<?xml version="1.0" encoding="UTF-8" standalone="no" ?>
<gpx xmlns="http://www.topografix.com/GPX/1/1" xmlns:xsi="http://www.w3.org/2001/XMLSchema-instance" xsi:schemaLocation="http://www.topografix.com/GPX/1/1 http://www.topografix.com/GPX/1/1/gpx.xsd" version="1.1" creator="VisuGPX - https://www.visugpx.com">
  <metadata>
    <name>08/08/2021</name>
    <desc><![CDATA[boucle au départ de Soustons jusqu'à Labenne en passant par Capbreton]]></desc>
  </metadata>
  <trk>
    <name><![CDATA[08/08/2021_1]]></name>
    <trkseg>
      <trkpt lat="43.75178" lon="-1.35377">
        <ele>17.4</ele>
        <time>2021-08-08T05:38:45Z</time>
      </trkpt>
      <trkpt lat="43.7518" lon="-1.35403">
        <ele>19.2</ele>
        <time>2021-08-08T05:38:50Z</time>
      </trkpt>
      <trkpt lat="43.7518" lon="-1.35408">
        <ele>18.6</ele>
        <time>2021-08-08T05:38:51Z</time>
      </trkpt>
      <trkpt lat="43.75186" lon="-1.35442">
        <ele>18.4</ele>
        <time>2021-08-08T05:38:57Z</time>
      </trkpt>
      <trkpt lat="43.75187" lon="-1.35448">
        <ele>18.6</ele>
        <time>2021-08-08T05:38:58Z</time>
      </trkpt>
      <trkpt lat="43.75187" lon="-1.35452">
        <ele>18.6</ele>
        <time>2021-08-08T05:38:59Z</time>
      </trkpt>
      <trkpt lat="43.75187" lon="-1.35461">
        <ele>18.2</ele>
        <time>2021-08-08T05:39:01Z</time>
      </trkpt>
      <trkpt lat="43.75187" lon="-1.35464">
        <ele>18.2</ele>
        <time>2021-08-08T05:39:02Z</time>
      </trkpt>
      <trkpt lat="43.75188" lon="-1.35468">
        <ele>18.2</ele>
        <time>2021-08-08T05:39:03Z</time>
      </trkpt>
      <trkpt lat="43.75188" lon="-1.35471">
        <ele>18.2</ele>
        <time>2021-08-08T05:39:04Z</time>
      </trkpt>
      <trkpt lat="43.75189" lon="-1.35473">
        <ele>18</ele>
        <time>2021-08-08T05:39:05Z</time>
      </trkpt>
      <trkpt lat="43.75189" lon="-1.35476">
        <ele>18</ele>
        <time>2021-08-08T05:39:06Z</time>
      </trkpt>
      <trkpt lat="43.75189" lon="-1.35478">
        <ele>18</ele>
        <time>2021-08-08T05:39:07Z</time>
      </trkpt>
      <trkpt lat="43.75188" lon="-1.3548">
        <ele>18</ele>
        <time>2021-08-08T05:39:08Z</time>
      </trkpt>
      <trkpt lat="43.75187" lon="-1.35481">
        <ele>18</ele>
        <time>2021-08-08T05:39:09Z</time>
      </trkpt>
      <trkpt lat="43.75185" lon="-1.35482">
        <ele>18</ele>
        <time>2021-08-08T05:39:10Z</time>
      </trkpt>
      <trkpt lat="43.75181" lon="-1.35483">
        <ele>18</ele>
        <time>2021-08-08T05:39:12Z</time>
      </trkpt>
      <trkpt lat="43.75179" lon="-1.35484">
        <ele>18</ele>
        <time>2021-08-08T05:39:13Z</time>
      </trkpt>
      <trkpt lat="43.75177" lon="-1.35484">
        <ele>18</ele>
        <time>2021-08-08T05:39:14Z</time>
      </trkpt>
      <trkpt lat="43.75175" lon="-1.35484">
        <ele>18</ele>
        <time>2021-08-08T05:39:15Z</time>
      </trkpt>
      <trkpt lat="43.75173" lon="-1.35485">
        <ele>18</ele>
        <time>2021-08-08T05:39:16Z</time>
      </trkpt>
      <trkpt lat="43.75159" lon="-1.35488">
        <ele>17.8</ele>
        <time>2021-08-08T05:39:23Z</time>
      </trkpt>
      <trkpt lat="43.75157" lon="-1.35488">
        <ele>17.8</ele>
        <time>2021-08-08T05:39:24Z</time>
      </trkpt>
      <trkpt lat="43.75156" lon="-1.35489">
        <ele>17.8</ele>
        <time>2021-08-08T05:39:25Z</time>
      </trkpt>
      <trkpt lat="43.75154" lon="-1.35489">
        <ele>17.8</ele>
        <time>2021-08-08T05:39:26Z</time>
      </trkpt>
      <trkpt lat="43.75153" lon="-1.35489">
        <ele>17.8</ele>
        <time>2021-08-08T05:39:27Z</time>
      </trkpt>
      <trkpt lat="43.75151" lon="-1.3549">
        <ele>17.8</ele>
        <time>2021-08-08T05:39:28Z</time>
      </trkpt>
      <trkpt lat="43.75149" lon="-1.3549">
        <ele>17.8</ele>
        <time>2021-08-08T05:39:29Z</time>
      </trkpt>
      <trkpt lat="43.75148" lon="-1.3549">
        <ele>17.8</ele>
        <time>2021-08-08T05:39:30Z</time>
      </trkpt>
      <trkpt lat="43.75148" lon="-1.3549">
        <ele>17.8</ele>
        <time>2021-08-08T05:39:31Z</time>
      </trkpt>
      <trkpt lat="43.75148" lon="-1.3549">
        <ele>18</ele>
        <time>2021-08-08T05:39:36Z</time>
      </trkpt>
      <trkpt lat="43.75146" lon="-1.35492">
        <ele>18.2</ele>
        <time>2021-08-08T05:39:47Z</time>
      </trkpt>
      <trkpt lat="43.75146" lon="-1.35502">
        <ele>18.2</ele>
        <time>2021-08-08T05:40:02Z</time>
      </trkpt>
      <trkpt lat="43.75146" lon="-1.35504">
        <ele>18.4</ele>
        <time>2021-08-08T05:40:03Z</time>
      </trkpt>
      <trkpt lat="43.75148" lon="-1.35523">
        <ele>18.4</ele>
        <time>2021-08-08T05:40:08Z</time>
      </trkpt>
      <trkpt lat="43.75154" lon="-1.35551">
        <ele>18.6</ele>
        <time>2021-08-08T05:40:14Z</time>
      </trkpt>
      <trkpt lat="43.75155" lon="-1.35565">
        <ele>18.6</ele>
        <time>2021-08-08T05:40:16Z</time>
      </trkpt>
      <trkpt lat="43.75158" lon="-1.35578">
        <ele>18.6</ele>
        <time>2021-08-08T05:40:18Z</time>
      </trkpt>
      <trkpt lat="43.75159" lon="-1.35585">
        <ele>18.8</ele>
        <time>2021-08-08T05:40:19Z</time>
      </trkpt>
      <trkpt lat="43.75161" lon="-1.35606">
        <ele>18.8</ele>
        <time>2021-08-08T05:40:22Z</time>
      </trkpt>
      <trkpt lat="43.75162" lon="-1.35614">
        <ele>18.8</ele>
        <time>2021-08-08T05:40:23Z</time>
      </trkpt>
      <trkpt lat="43.75163" lon="-1.35622">
        <ele>19</ele>
        <time>2021-08-08T05:40:24Z</time>
      </trkpt>
      <trkpt lat="43.75167" lon="-1.35655">
        <ele>19.2</ele>
        <time>2021-08-08T05:40:28Z</time>
      </trkpt>
      <trkpt lat="43.75168" lon="-1.35663">
        <ele>19.2</ele>
        <time>2021-08-08T05:40:29Z</time>
      </trkpt>
      <trkpt lat="43.75171" lon="-1.35712">
        <ele>19.4</ele>
        <time>2021-08-08T05:40:35Z</time>
      </trkpt>
      <trkpt lat="43.75176" lon="-1.3578">
        <ele>19.6</ele>
        <time>2021-08-08T05:40:43Z</time>
      </trkpt>
      <trkpt lat="43.75177" lon="-1.35797">
        <ele>19.6</ele>
        <time>2021-08-08T05:40:45Z</time>
      </trkpt>
      <trkpt lat="43.75178" lon="-1.35815">
        <ele>19.6</ele>
        <time>2021-08-08T05:40:47Z</time>
      </trkpt>
      <trkpt lat="43.75178" lon="-1.35833">
        <ele>19.6</ele>
        <time>2021-08-08T05:40:49Z</time>
      </trkpt>
      <trkpt lat="43.75178" lon="-1.35868">
        <ele>19.8</ele>
        <time>2021-08-08T05:40:53Z</time>
      </trkpt>
      <trkpt lat="43.75178" lon="-1.35876">
        <ele>19.8</ele>
        <time>2021-08-08T05:40:54Z</time>
      </trkpt>
      <trkpt lat="43.75178" lon="-1.35885">
        <ele>20</ele>
        <time>2021-08-08T05:40:55Z</time>
      </trkpt>
      <trkpt lat="43.75177" lon="-1.35893">
        <ele>20</ele>
        <time>2021-08-08T05:40:56Z</time>
      </trkpt>
      <trkpt lat="43.75175" lon="-1.35908">
        <ele>20</ele>
        <time>2021-08-08T05:40:58Z</time>
      </trkpt>
      <trkpt lat="43.75174" lon="-1.35915">
        <ele>20</ele>
        <time>2021-08-08T05:40:59Z</time>
      </trkpt>
      <trkpt lat="43.75173" lon="-1.35922">
        <ele>20.2</ele>
        <time>2021-08-08T05:41:00Z</time>
      </trkpt>
      <trkpt lat="43.75172" lon="-1.3593">
        <ele>20.2</ele>
        <time>2021-08-08T05:41:01Z</time>
      </trkpt>
      <trkpt lat="43.75172" lon="-1.35938">
        <ele>20.2</ele>
        <time>2021-08-08T05:41:02Z</time>
      </trkpt>
      <trkpt lat="43.75171" lon="-1.35962">
        <ele>20.2</ele>
        <time>2021-08-08T05:41:05Z</time>
      </trkpt>
      <trkpt lat="43.7517" lon="-1.35977">
        <ele>20.4</ele>
        <time>2021-08-08T05:41:07Z</time>
      </trkpt>
      <trkpt lat="43.7517" lon="-1.35985">
        <ele>20.4</ele>
        <time>2021-08-08T05:41:08Z</time>
      </trkpt>
      <trkpt lat="43.7517" lon="-1.35993">
        <ele>20.4</ele>
        <time>2021-08-08T05:41:09Z</time>
      </trkpt>
      <trkpt lat="43.75171" lon="-1.36018">
        <ele>20.6</ele>
        <time>2021-08-08T05:41:12Z</time>
      </trkpt>
      <trkpt lat="43.75171" lon="-1.36038">
        <ele>20.6</ele>
        <time>2021-08-08T05:41:14Z</time>
      </trkpt>
      <trkpt lat="43.75174" lon="-1.36084">
        <ele>21</ele>
        <time>2021-08-08T05:41:19Z</time>
      </trkpt>
      <trkpt lat="43.75176" lon="-1.36093">
        <ele>21</ele>
        <time>2021-08-08T05:41:20Z</time>
      </trkpt>
      <trkpt lat="43.75191" lon="-1.36172">
        <ele>21.4</ele>
        <time>2021-08-08T05:41:29Z</time>
      </trkpt>
      <trkpt lat="43.75192" lon="-1.36181">
        <ele>21.6</ele>
        <time>2021-08-08T05:41:30Z</time>
      </trkpt>
      <trkpt lat="43.75208" lon="-1.36258">
        <ele>22</ele>
        <time>2021-08-08T05:41:39Z</time>
      </trkpt>
      <trkpt lat="43.75211" lon="-1.36275">
        <ele>22</ele>
        <time>2021-08-08T05:41:41Z</time>
      </trkpt>
      <trkpt lat="43.75225" lon="-1.36342">
        <ele>22.4</ele>
        <time>2021-08-08T05:41:50Z</time>
      </trkpt>
      <trkpt lat="43.75227" lon="-1.36352">
        <ele>22.6</ele>
        <time>2021-08-08T05:41:51Z</time>
      </trkpt>
      <trkpt lat="43.75229" lon="-1.36361">
        <ele>22.6</ele>
        <time>2021-08-08T05:41:52Z</time>
      </trkpt>
      <trkpt lat="43.75231" lon="-1.36369">
        <ele>22.6</ele>
        <time>2021-08-08T05:41:53Z</time>
      </trkpt>
      <trkpt lat="43.75234" lon="-1.36384">
        <ele>22.8</ele>
        <time>2021-08-08T05:41:55Z</time>
      </trkpt>
      <trkpt lat="43.75252" lon="-1.36446">
        <ele>23</ele>
        <time>2021-08-08T05:42:02Z</time>
      </trkpt>
      <trkpt lat="43.75262" lon="-1.36471">
        <ele>23</ele>
        <time>2021-08-08T05:42:05Z</time>
      </trkpt>
      <trkpt lat="43.75277" lon="-1.36502">
        <ele>23.2</ele>
        <time>2021-08-08T05:42:09Z</time>
      </trkpt>
      <trkpt lat="43.75299" lon="-1.36547">
        <ele>23.6</ele>
        <time>2021-08-08T05:42:15Z</time>
      </trkpt>
      <trkpt lat="43.7533" lon="-1.3661">
        <ele>23.8</ele>
        <time>2021-08-08T05:42:23Z</time>
      </trkpt>
      <trkpt lat="43.7535" lon="-1.36662">
        <ele>23.8</ele>
        <time>2021-08-08T05:42:29Z</time>
      </trkpt>
      <trkpt lat="43.75369" lon="-1.36738">
        <ele>23.2</ele>
        <time>2021-08-08T05:42:37Z</time>
      </trkpt>
      <trkpt lat="43.7538" lon="-1.36799">
        <ele>23</ele>
        <time>2021-08-08T05:42:43Z</time>
      </trkpt>
      <trkpt lat="43.75382" lon="-1.36809">
        <ele>22.8</ele>
        <time>2021-08-08T05:42:44Z</time>
      </trkpt>
      <trkpt lat="43.75384" lon="-1.36876">
        <ele>22</ele>
        <time>2021-08-08T05:42:50Z</time>
      </trkpt>
      <trkpt lat="43.75385" lon="-1.36896">
        <ele>22</ele>
        <time>2021-08-08T05:42:52Z</time>
      </trkpt>
      <trkpt lat="43.75386" lon="-1.3695">
        <ele>21.6</ele>
        <time>2021-08-08T05:42:57Z</time>
      </trkpt>
      <trkpt lat="43.75387" lon="-1.36994">
        <ele>21</ele>
        <time>2021-08-08T05:43:01Z</time>
      </trkpt>
      <trkpt lat="43.75388" lon="-1.37004">
        <ele>20.8</ele>
        <time>2021-08-08T05:43:02Z</time>
      </trkpt>
      <trkpt lat="43.75388" lon="-1.37017">
        <ele>20.6</ele>
        <time>2021-08-08T05:43:03Z</time>
      </trkpt>
      <trkpt lat="43.75388" lon="-1.37027">
        <ele>20.6</ele>
        <time>2021-08-08T05:43:04Z</time>
      </trkpt>
      <trkpt lat="43.75388" lon="-1.37041">
        <ele>20.4</ele>
        <time>2021-08-08T05:43:05Z</time>
      </trkpt>
      <trkpt lat="43.75387" lon="-1.3705">
        <ele>20.4</ele>
        <time>2021-08-08T05:43:06Z</time>
      </trkpt>
      <trkpt lat="43.75388" lon="-1.37085">
        <ele>20.2</ele>
        <time>2021-08-08T05:43:09Z</time>
      </trkpt>
      <trkpt lat="43.75388" lon="-1.37095">
        <ele>20.2</ele>
        <time>2021-08-08T05:43:10Z</time>
      </trkpt>
      <trkpt lat="43.75388" lon="-1.37106">
        <ele>20.2</ele>
        <time>2021-08-08T05:43:11Z</time>
      </trkpt>
      <trkpt lat="43.75391" lon="-1.37149">
        <ele>20.2</ele>
        <time>2021-08-08T05:43:15Z</time>
      </trkpt>
      <trkpt lat="43.7539" lon="-1.3717">
        <ele>20.2</ele>
        <time>2021-08-08T05:43:17Z</time>
      </trkpt>
      <trkpt lat="43.75386" lon="-1.37196">
        <ele>20.2</ele>
        <time>2021-08-08T05:43:20Z</time>
      </trkpt>
      <trkpt lat="43.75382" lon="-1.37215">
        <ele>20.2</ele>
        <time>2021-08-08T05:43:22Z</time>
      </trkpt>
      <trkpt lat="43.7538" lon="-1.37226">
        <ele>20.2</ele>
        <time>2021-08-08T05:43:23Z</time>
      </trkpt>
      <trkpt lat="43.75377" lon="-1.37234">
        <ele>20.2</ele>
        <time>2021-08-08T05:43:24Z</time>
      </trkpt>
      <trkpt lat="43.75374" lon="-1.37243">
        <ele>20.2</ele>
        <time>2021-08-08T05:43:25Z</time>
      </trkpt>
      <trkpt lat="43.75371" lon="-1.37254">
        <ele>20.2</ele>
        <time>2021-08-08T05:43:26Z</time>
      </trkpt>
      <trkpt lat="43.75368" lon="-1.37264">
        <ele>20.2</ele>
        <time>2021-08-08T05:43:27Z</time>
      </trkpt>
      <trkpt lat="43.75354" lon="-1.37313">
        <ele>20.2</ele>
        <time>2021-08-08T05:43:32Z</time>
      </trkpt>
      <trkpt lat="43.75348" lon="-1.37329">
        <ele>20.2</ele>
        <time>2021-08-08T05:43:34Z</time>
      </trkpt>
      <trkpt lat="43.75344" lon="-1.3734">
        <ele>20.4</ele>
        <time>2021-08-08T05:43:35Z</time>
      </trkpt>
      <trkpt lat="43.75334" lon="-1.37364">
        <ele>20.2</ele>
        <time>2021-08-08T05:43:38Z</time>
      </trkpt>
      <trkpt lat="43.75329" lon="-1.37374">
        <ele>20.2</ele>
        <time>2021-08-08T05:43:39Z</time>
      </trkpt>
      <trkpt lat="43.75313" lon="-1.37408">
        <ele>20.2</ele>
        <time>2021-08-08T05:43:43Z</time>
      </trkpt>
      <trkpt lat="43.75308" lon="-1.37419">
        <ele>20.2</ele>
        <time>2021-08-08T05:43:44Z</time>
      </trkpt>
      <trkpt lat="43.75305" lon="-1.37427">
        <ele>20.2</ele>
        <time>2021-08-08T05:43:45Z</time>
      </trkpt>
      <trkpt lat="43.75301" lon="-1.37436">
        <ele>20.2</ele>
        <time>2021-08-08T05:43:46Z</time>
      </trkpt>
      <trkpt lat="43.75297" lon="-1.37447">
        <ele>20.2</ele>
        <time>2021-08-08T05:43:47Z</time>
      </trkpt>
      <trkpt lat="43.75292" lon="-1.37459">
        <ele>20.2</ele>
        <time>2021-08-08T05:43:48Z</time>
      </trkpt>
      <trkpt lat="43.75283" lon="-1.37486">
        <ele>20</ele>
        <time>2021-08-08T05:43:51Z</time>
      </trkpt>
      <trkpt lat="43.75275" lon="-1.37515">
        <ele>20</ele>
        <time>2021-08-08T05:43:54Z</time>
      </trkpt>
      <trkpt lat="43.75274" lon="-1.37523">
        <ele>20</ele>
        <time>2021-08-08T05:43:55Z</time>
      </trkpt>
      <trkpt lat="43.75269" lon="-1.37544">
        <ele>20</ele>
        <time>2021-08-08T05:43:57Z</time>
      </trkpt>
      <trkpt lat="43.75268" lon="-1.37554">
        <ele>20</ele>
        <time>2021-08-08T05:43:58Z</time>
      </trkpt>
      <trkpt lat="43.75267" lon="-1.37565">
        <ele>20.2</ele>
        <time>2021-08-08T05:43:59Z</time>
      </trkpt>
      <trkpt lat="43.75266" lon="-1.37572">
        <ele>20.2</ele>
        <time>2021-08-08T05:44:00Z</time>
      </trkpt>
      <trkpt lat="43.75264" lon="-1.37581">
        <ele>20.2</ele>
        <time>2021-08-08T05:44:01Z</time>
      </trkpt>
      <trkpt lat="43.75264" lon="-1.37589">
        <ele>20.2</ele>
        <time>2021-08-08T05:44:02Z</time>
      </trkpt>
      <trkpt lat="43.75262" lon="-1.37617">
        <ele>20.2</ele>
        <time>2021-08-08T05:44:05Z</time>
      </trkpt>
      <trkpt lat="43.75262" lon="-1.37684">
        <ele>20.2</ele>
        <time>2021-08-08T05:44:11Z</time>
      </trkpt>
      <trkpt lat="43.75266" lon="-1.37722">
        <ele>20.2</ele>
        <time>2021-08-08T05:44:15Z</time>
      </trkpt>
      <trkpt lat="43.75268" lon="-1.37745">
        <ele>20</ele>
        <time>2021-08-08T05:44:17Z</time>
      </trkpt>
      <trkpt lat="43.75272" lon="-1.37784">
        <ele>20</ele>
        <time>2021-08-08T05:44:21Z</time>
      </trkpt>
      <trkpt lat="43.75279" lon="-1.37853">
        <ele>20.4</ele>
        <time>2021-08-08T05:44:28Z</time>
      </trkpt>
      <trkpt lat="43.75279" lon="-1.37862">
        <ele>20.4</ele>
        <time>2021-08-08T05:44:29Z</time>
      </trkpt>
      <trkpt lat="43.7528" lon="-1.37871">
        <ele>20.6</ele>
        <time>2021-08-08T05:44:30Z</time>
      </trkpt>
      <trkpt lat="43.75281" lon="-1.37881">
        <ele>20.6</ele>
        <time>2021-08-08T05:44:31Z</time>
      </trkpt>
      <trkpt lat="43.75282" lon="-1.3789">
        <ele>20.6</ele>
        <time>2021-08-08T05:44:32Z</time>
      </trkpt>
      <trkpt lat="43.75282" lon="-1.379">
        <ele>20.6</ele>
        <time>2021-08-08T05:44:33Z</time>
      </trkpt>
      <trkpt lat="43.75283" lon="-1.37909">
        <ele>20.6</ele>
        <time>2021-08-08T05:44:34Z</time>
      </trkpt>
      <trkpt lat="43.75284" lon="-1.37918">
        <ele>20.6</ele>
        <time>2021-08-08T05:44:35Z</time>
      </trkpt>
      <trkpt lat="43.75285" lon="-1.37927">
        <ele>20.6</ele>
        <time>2021-08-08T05:44:36Z</time>
      </trkpt>
      <trkpt lat="43.75286" lon="-1.37935">
        <ele>20.6</ele>
        <time>2021-08-08T05:44:37Z</time>
      </trkpt>
      <trkpt lat="43.75286" lon="-1.37945">
        <ele>20.8</ele>
        <time>2021-08-08T05:44:38Z</time>
      </trkpt>
      <trkpt lat="43.75287" lon="-1.37954">
        <ele>20.8</ele>
        <time>2021-08-08T05:44:39Z</time>
      </trkpt>
      <trkpt lat="43.75288" lon="-1.37962">
        <ele>20.8</ele>
        <time>2021-08-08T05:44:40Z</time>
      </trkpt>
      <trkpt lat="43.75289" lon="-1.37971">
        <ele>20.8</ele>
        <time>2021-08-08T05:44:41Z</time>
      </trkpt>
      <trkpt lat="43.7529" lon="-1.37978">
        <ele>20.8</ele>
        <time>2021-08-08T05:44:42Z</time>
      </trkpt>
      <trkpt lat="43.75291" lon="-1.37988">
        <ele>21</ele>
        <time>2021-08-08T05:44:43Z</time>
      </trkpt>
      <trkpt lat="43.75292" lon="-1.37994">
        <ele>21</ele>
        <time>2021-08-08T05:44:44Z</time>
      </trkpt>
      <trkpt lat="43.75292" lon="-1.38002">
        <ele>21</ele>
        <time>2021-08-08T05:44:45Z</time>
      </trkpt>
      <trkpt lat="43.75293" lon="-1.38012">
        <ele>21.2</ele>
        <time>2021-08-08T05:44:46Z</time>
      </trkpt>
      <trkpt lat="43.75293" lon="-1.38021">
        <ele>21.2</ele>
        <time>2021-08-08T05:44:47Z</time>
      </trkpt>
      <trkpt lat="43.75294" lon="-1.38028">
        <ele>21.4</ele>
        <time>2021-08-08T05:44:48Z</time>
      </trkpt>
      <trkpt lat="43.75305" lon="-1.3811">
        <ele>21.8</ele>
        <time>2021-08-08T05:44:57Z</time>
      </trkpt>
      <trkpt lat="43.75308" lon="-1.38128">
        <ele>22</ele>
        <time>2021-08-08T05:44:59Z</time>
      </trkpt>
      <trkpt lat="43.75325" lon="-1.38185">
        <ele>22.2</ele>
        <time>2021-08-08T05:45:05Z</time>
      </trkpt>
      <trkpt lat="43.75352" lon="-1.3825">
        <ele>21.8</ele>
        <time>2021-08-08T05:45:12Z</time>
      </trkpt>
      <trkpt lat="43.75361" lon="-1.38268">
        <ele>21.6</ele>
        <time>2021-08-08T05:45:14Z</time>
      </trkpt>
      <trkpt lat="43.75381" lon="-1.38298">
        <ele>21.2</ele>
        <time>2021-08-08T05:45:18Z</time>
      </trkpt>
      <trkpt lat="43.75413" lon="-1.38337">
        <ele>20.6</ele>
        <time>2021-08-08T05:45:23Z</time>
      </trkpt>
      <trkpt lat="43.75424" lon="-1.38349">
        <ele>20.6</ele>
        <time>2021-08-08T05:45:25Z</time>
      </trkpt>
      <trkpt lat="43.75432" lon="-1.38358">
        <ele>20.8</ele>
        <time>2021-08-08T05:45:26Z</time>
      </trkpt>
      <trkpt lat="43.75476" lon="-1.38407">
        <ele>19.8</ele>
        <time>2021-08-08T05:45:33Z</time>
      </trkpt>
      <trkpt lat="43.75482" lon="-1.38414">
        <ele>19.6</ele>
        <time>2021-08-08T05:45:34Z</time>
      </trkpt>
      <trkpt lat="43.75521" lon="-1.38458">
        <ele>19</ele>
        <time>2021-08-08T05:45:40Z</time>
      </trkpt>
      <trkpt lat="43.7555" lon="-1.38495">
        <ele>18.6</ele>
        <time>2021-08-08T05:45:45Z</time>
      </trkpt>
      <trkpt lat="43.75574" lon="-1.38525">
        <ele>18.4</ele>
        <time>2021-08-08T05:45:49Z</time>
      </trkpt>
      <trkpt lat="43.75603" lon="-1.38559">
        <ele>17.8</ele>
        <time>2021-08-08T05:45:54Z</time>
      </trkpt>
      <trkpt lat="43.75609" lon="-1.38565">
        <ele>17.8</ele>
        <time>2021-08-08T05:45:55Z</time>
      </trkpt>
      <trkpt lat="43.75614" lon="-1.38573">
        <ele>17.8</ele>
        <time>2021-08-08T05:45:56Z</time>
      </trkpt>
      <trkpt lat="43.75626" lon="-1.38589">
        <ele>17.6</ele>
        <time>2021-08-08T05:45:58Z</time>
      </trkpt>
      <trkpt lat="43.7563" lon="-1.38594">
        <ele>17.6</ele>
        <time>2021-08-08T05:45:59Z</time>
      </trkpt>
      <trkpt lat="43.75635" lon="-1.38601">
        <ele>17.6</ele>
        <time>2021-08-08T05:46:00Z</time>
      </trkpt>
      <trkpt lat="43.75641" lon="-1.3861">
        <ele>17.6</ele>
        <time>2021-08-08T05:46:01Z</time>
      </trkpt>
      <trkpt lat="43.75645" lon="-1.38618">
        <ele>17.4</ele>
        <time>2021-08-08T05:46:02Z</time>
      </trkpt>
      <trkpt lat="43.75649" lon="-1.38624">
        <ele>17.4</ele>
        <time>2021-08-08T05:46:03Z</time>
      </trkpt>
      <trkpt lat="43.75654" lon="-1.38631">
        <ele>17.4</ele>
        <time>2021-08-08T05:46:04Z</time>
      </trkpt>
      <trkpt lat="43.75673" lon="-1.38659">
        <ele>17.4</ele>
        <time>2021-08-08T05:46:08Z</time>
      </trkpt>
      <trkpt lat="43.75687" lon="-1.38682">
        <ele>17.2</ele>
        <time>2021-08-08T05:46:11Z</time>
      </trkpt>
      <trkpt lat="43.75697" lon="-1.38697">
        <ele>17.2</ele>
        <time>2021-08-08T05:46:13Z</time>
      </trkpt>
      <trkpt lat="43.75702" lon="-1.38704">
        <ele>17.2</ele>
        <time>2021-08-08T05:46:14Z</time>
      </trkpt>
      <trkpt lat="43.75724" lon="-1.38733">
        <ele>17.2</ele>
        <time>2021-08-08T05:46:18Z</time>
      </trkpt>
      <trkpt lat="43.75742" lon="-1.38753">
        <ele>17.2</ele>
        <time>2021-08-08T05:46:21Z</time>
      </trkpt>
      <trkpt lat="43.75782" lon="-1.3879">
        <ele>17</ele>
        <time>2021-08-08T05:46:27Z</time>
      </trkpt>
      <trkpt lat="43.7583" lon="-1.38831">
        <ele>16.8</ele>
        <time>2021-08-08T05:46:34Z</time>
      </trkpt>
      <trkpt lat="43.75842" lon="-1.38841">
        <ele>16.8</ele>
        <time>2021-08-08T05:46:36Z</time>
      </trkpt>
      <trkpt lat="43.7586" lon="-1.38858">
        <ele>16.8</ele>
        <time>2021-08-08T05:46:39Z</time>
      </trkpt>
      <trkpt lat="43.75866" lon="-1.38864">
        <ele>16.8</ele>
        <time>2021-08-08T05:46:40Z</time>
      </trkpt>
      <trkpt lat="43.75873" lon="-1.38871">
        <ele>16.8</ele>
        <time>2021-08-08T05:46:41Z</time>
      </trkpt>
      <trkpt lat="43.75878" lon="-1.38875">
        <ele>16.8</ele>
        <time>2021-08-08T05:46:42Z</time>
      </trkpt>
      <trkpt lat="43.7589" lon="-1.38886">
        <ele>16.8</ele>
        <time>2021-08-08T05:46:44Z</time>
      </trkpt>
      <trkpt lat="43.75896" lon="-1.38892">
        <ele>16.8</ele>
        <time>2021-08-08T05:46:45Z</time>
      </trkpt>
      <trkpt lat="43.75902" lon="-1.38899">
        <ele>16.8</ele>
        <time>2021-08-08T05:46:46Z</time>
      </trkpt>
      <trkpt lat="43.75907" lon="-1.38903">
        <ele>16.8</ele>
        <time>2021-08-08T05:46:47Z</time>
      </trkpt>
      <trkpt lat="43.75919" lon="-1.38914">
        <ele>16.8</ele>
        <time>2021-08-08T05:46:49Z</time>
      </trkpt>
      <trkpt lat="43.75943" lon="-1.38936">
        <ele>16.8</ele>
        <time>2021-08-08T05:46:53Z</time>
      </trkpt>
      <trkpt lat="43.75948" lon="-1.38941">
        <ele>16.8</ele>
        <time>2021-08-08T05:46:54Z</time>
      </trkpt>
      <trkpt lat="43.75962" lon="-1.38952">
        <ele>16.8</ele>
        <time>2021-08-08T05:46:56Z</time>
      </trkpt>
      <trkpt lat="43.75967" lon="-1.38955">
        <ele>16.8</ele>
        <time>2021-08-08T05:46:57Z</time>
      </trkpt>
      <trkpt lat="43.75973" lon="-1.3896">
        <ele>16.8</ele>
        <time>2021-08-08T05:46:58Z</time>
      </trkpt>
      <trkpt lat="43.75978" lon="-1.38964">
        <ele>16.8</ele>
        <time>2021-08-08T05:46:59Z</time>
      </trkpt>
      <trkpt lat="43.75983" lon="-1.38969">
        <ele>16.8</ele>
        <time>2021-08-08T05:47:00Z</time>
      </trkpt>
      <trkpt lat="43.7599" lon="-1.38973">
        <ele>16.8</ele>
        <time>2021-08-08T05:47:01Z</time>
      </trkpt>
      <trkpt lat="43.76" lon="-1.3898">
        <ele>16.6</ele>
        <time>2021-08-08T05:47:03Z</time>
      </trkpt>
      <trkpt lat="43.76006" lon="-1.38984">
        <ele>16.6</ele>
        <time>2021-08-08T05:47:04Z</time>
      </trkpt>
      <trkpt lat="43.76012" lon="-1.38988">
        <ele>16.6</ele>
        <time>2021-08-08T05:47:05Z</time>
      </trkpt>
      <trkpt lat="43.76026" lon="-1.38996">
        <ele>16.6</ele>
        <time>2021-08-08T05:47:07Z</time>
      </trkpt>
      <trkpt lat="43.76047" lon="-1.39005">
        <ele>16.6</ele>
        <time>2021-08-08T05:47:10Z</time>
      </trkpt>
      <trkpt lat="43.76053" lon="-1.39009">
        <ele>16.6</ele>
        <time>2021-08-08T05:47:11Z</time>
      </trkpt>
      <trkpt lat="43.7608" lon="-1.39024">
        <ele>16.6</ele>
        <time>2021-08-08T05:47:15Z</time>
      </trkpt>
      <trkpt lat="43.76109" lon="-1.39037">
        <ele>16.6</ele>
        <time>2021-08-08T05:47:19Z</time>
      </trkpt>
      <trkpt lat="43.76113" lon="-1.3904">
        <ele>16.6</ele>
        <time>2021-08-08T05:47:20Z</time>
      </trkpt>
      <trkpt lat="43.76118" lon="-1.39043">
        <ele>16.6</ele>
        <time>2021-08-08T05:47:21Z</time>
      </trkpt>
      <trkpt lat="43.76123" lon="-1.39047">
        <ele>16.6</ele>
        <time>2021-08-08T05:47:22Z</time>
      </trkpt>
      <trkpt lat="43.76137" lon="-1.39053">
        <ele>16.6</ele>
        <time>2021-08-08T05:47:24Z</time>
      </trkpt>
      <trkpt lat="43.76159" lon="-1.39063">
        <ele>16.8</ele>
        <time>2021-08-08T05:47:27Z</time>
      </trkpt>
      <trkpt lat="43.76166" lon="-1.39066">
        <ele>16.8</ele>
        <time>2021-08-08T05:47:28Z</time>
      </trkpt>
      <trkpt lat="43.76171" lon="-1.39068">
        <ele>16.8</ele>
        <time>2021-08-08T05:47:29Z</time>
      </trkpt>
      <trkpt lat="43.7618" lon="-1.39072">
        <ele>16.8</ele>
        <time>2021-08-08T05:47:30Z</time>
      </trkpt>
      <trkpt lat="43.762" lon="-1.39084">
        <ele>16.8</ele>
        <time>2021-08-08T05:47:33Z</time>
      </trkpt>
      <trkpt lat="43.76206" lon="-1.39087">
        <ele>16.8</ele>
        <time>2021-08-08T05:47:34Z</time>
      </trkpt>
      <trkpt lat="43.76221" lon="-1.39094">
        <ele>16.8</ele>
        <time>2021-08-08T05:47:36Z</time>
      </trkpt>
      <trkpt lat="43.76238" lon="-1.39101">
        <ele>16.6</ele>
        <time>2021-08-08T05:47:39Z</time>
      </trkpt>
      <trkpt lat="43.76248" lon="-1.39106">
        <ele>16.4</ele>
        <time>2021-08-08T05:47:41Z</time>
      </trkpt>
      <trkpt lat="43.76252" lon="-1.39108">
        <ele>16.4</ele>
        <time>2021-08-08T05:47:42Z</time>
      </trkpt>
      <trkpt lat="43.76256" lon="-1.3911">
        <ele>16.4</ele>
        <time>2021-08-08T05:47:43Z</time>
      </trkpt>
      <trkpt lat="43.76258" lon="-1.39113">
        <ele>16.4</ele>
        <time>2021-08-08T05:47:44Z</time>
      </trkpt>
      <trkpt lat="43.76257" lon="-1.39117">
        <ele>16.2</ele>
        <time>2021-08-08T05:47:45Z</time>
      </trkpt>
      <trkpt lat="43.76254" lon="-1.39122">
        <ele>16.2</ele>
        <time>2021-08-08T05:47:46Z</time>
      </trkpt>
      <trkpt lat="43.76243" lon="-1.39129">
        <ele>16.2</ele>
        <time>2021-08-08T05:47:49Z</time>
      </trkpt>
      <trkpt lat="43.7624" lon="-1.39132">
        <ele>16.2</ele>
        <time>2021-08-08T05:47:50Z</time>
      </trkpt>
      <trkpt lat="43.76225" lon="-1.39145">
        <ele>16.2</ele>
        <time>2021-08-08T05:47:53Z</time>
      </trkpt>
      <trkpt lat="43.76204" lon="-1.39163">
        <ele>16</ele>
        <time>2021-08-08T05:47:57Z</time>
      </trkpt>
      <trkpt lat="43.76199" lon="-1.39168">
        <ele>16</ele>
        <time>2021-08-08T05:47:58Z</time>
      </trkpt>
      <trkpt lat="43.76195" lon="-1.39172">
        <ele>16.2</ele>
        <time>2021-08-08T05:47:59Z</time>
      </trkpt>
      <trkpt lat="43.7619" lon="-1.39176">
        <ele>16.2</ele>
        <time>2021-08-08T05:48:00Z</time>
      </trkpt>
      <trkpt lat="43.76149" lon="-1.3921">
        <ele>16.2</ele>
        <time>2021-08-08T05:48:07Z</time>
      </trkpt>
      <trkpt lat="43.76143" lon="-1.39215">
        <ele>16.2</ele>
        <time>2021-08-08T05:48:08Z</time>
      </trkpt>
      <trkpt lat="43.76139" lon="-1.39218">
        <ele>16.2</ele>
        <time>2021-08-08T05:48:09Z</time>
      </trkpt>
      <trkpt lat="43.76116" lon="-1.39239">
        <ele>16.2</ele>
        <time>2021-08-08T05:48:13Z</time>
      </trkpt>
      <trkpt lat="43.76086" lon="-1.39262">
        <ele>16.4</ele>
        <time>2021-08-08T05:48:18Z</time>
      </trkpt>
      <trkpt lat="43.76081" lon="-1.39267">
        <ele>16.4</ele>
        <time>2021-08-08T05:48:19Z</time>
      </trkpt>
      <trkpt lat="43.76066" lon="-1.3928">
        <ele>16.4</ele>
        <time>2021-08-08T05:48:22Z</time>
      </trkpt>
      <trkpt lat="43.7606" lon="-1.39285">
        <ele>16.4</ele>
        <time>2021-08-08T05:48:23Z</time>
      </trkpt>
      <trkpt lat="43.76054" lon="-1.39289">
        <ele>16.6</ele>
        <time>2021-08-08T05:48:24Z</time>
      </trkpt>
      <trkpt lat="43.76042" lon="-1.39298">
        <ele>16.6</ele>
        <time>2021-08-08T05:48:26Z</time>
      </trkpt>
      <trkpt lat="43.76009" lon="-1.39325">
        <ele>16.6</ele>
        <time>2021-08-08T05:48:32Z</time>
      </trkpt>
      <trkpt lat="43.76003" lon="-1.3933">
        <ele>16.6</ele>
        <time>2021-08-08T05:48:33Z</time>
      </trkpt>
      <trkpt lat="43.75998" lon="-1.39335">
        <ele>16.6</ele>
        <time>2021-08-08T05:48:34Z</time>
      </trkpt>
      <trkpt lat="43.75994" lon="-1.39338">
        <ele>16.4</ele>
        <time>2021-08-08T05:48:35Z</time>
      </trkpt>
      <trkpt lat="43.75983" lon="-1.39348">
        <ele>16.4</ele>
        <time>2021-08-08T05:48:37Z</time>
      </trkpt>
      <trkpt lat="43.75979" lon="-1.39351">
        <ele>16.4</ele>
        <time>2021-08-08T05:48:38Z</time>
      </trkpt>
      <trkpt lat="43.75961" lon="-1.39366">
        <ele>16.4</ele>
        <time>2021-08-08T05:48:41Z</time>
      </trkpt>
      <trkpt lat="43.75937" lon="-1.39386">
        <ele>16.4</ele>
        <time>2021-08-08T05:48:45Z</time>
      </trkpt>
      <trkpt lat="43.7593" lon="-1.39391">
        <ele>16.4</ele>
        <time>2021-08-08T05:48:46Z</time>
      </trkpt>
      <trkpt lat="43.75924" lon="-1.39395">
        <ele>16.4</ele>
        <time>2021-08-08T05:48:47Z</time>
      </trkpt>
      <trkpt lat="43.75918" lon="-1.394">
        <ele>16.6</ele>
        <time>2021-08-08T05:48:48Z</time>
      </trkpt>
      <trkpt lat="43.75913" lon="-1.39403">
        <ele>16.6</ele>
        <time>2021-08-08T05:48:49Z</time>
      </trkpt>
      <trkpt lat="43.75908" lon="-1.39407">
        <ele>16.6</ele>
        <time>2021-08-08T05:48:50Z</time>
      </trkpt>
      <trkpt lat="43.759" lon="-1.39412">
        <ele>16.6</ele>
        <time>2021-08-08T05:48:51Z</time>
      </trkpt>
      <trkpt lat="43.75879" lon="-1.39428">
        <ele>16.6</ele>
        <time>2021-08-08T05:48:54Z</time>
      </trkpt>
      <trkpt lat="43.75845" lon="-1.39455">
        <ele>16.6</ele>
        <time>2021-08-08T05:48:59Z</time>
      </trkpt>
      <trkpt lat="43.75838" lon="-1.39461">
        <ele>16.6</ele>
        <time>2021-08-08T05:49:00Z</time>
      </trkpt>
      <trkpt lat="43.75831" lon="-1.39467">
        <ele>16.6</ele>
        <time>2021-08-08T05:49:01Z</time>
      </trkpt>
      <trkpt lat="43.75809" lon="-1.39486">
        <ele>16.4</ele>
        <time>2021-08-08T05:49:04Z</time>
      </trkpt>
      <trkpt lat="43.75776" lon="-1.39515">
        <ele>16</ele>
        <time>2021-08-08T05:49:09Z</time>
      </trkpt>
      <trkpt lat="43.75769" lon="-1.3952">
        <ele>16</ele>
        <time>2021-08-08T05:49:10Z</time>
      </trkpt>
      <trkpt lat="43.75722" lon="-1.39561">
        <ele>16.2</ele>
        <time>2021-08-08T05:49:18Z</time>
      </trkpt>
      <trkpt lat="43.75675" lon="-1.39596">
        <ele>16.4</ele>
        <time>2021-08-08T05:49:25Z</time>
      </trkpt>
      <trkpt lat="43.75628" lon="-1.39633">
        <ele>16.2</ele>
        <time>2021-08-08T05:49:32Z</time>
      </trkpt>
      <trkpt lat="43.75615" lon="-1.39642">
        <ele>16.2</ele>
        <time>2021-08-08T05:49:34Z</time>
      </trkpt>
      <trkpt lat="43.75569" lon="-1.39678">
        <ele>16.2</ele>
        <time>2021-08-08T05:49:41Z</time>
      </trkpt>
      <trkpt lat="43.75529" lon="-1.39711">
        <ele>16</ele>
        <time>2021-08-08T05:49:47Z</time>
      </trkpt>
      <trkpt lat="43.75516" lon="-1.39721">
        <ele>16</ele>
        <time>2021-08-08T05:49:49Z</time>
      </trkpt>
      <trkpt lat="43.75496" lon="-1.39736">
        <ele>16</ele>
        <time>2021-08-08T05:49:52Z</time>
      </trkpt>
      <trkpt lat="43.75477" lon="-1.39751">
        <ele>16</ele>
        <time>2021-08-08T05:49:55Z</time>
      </trkpt>
      <trkpt lat="43.75472" lon="-1.39755">
        <ele>16</ele>
        <time>2021-08-08T05:49:56Z</time>
      </trkpt>
      <trkpt lat="43.75451" lon="-1.39773">
        <ele>16</ele>
        <time>2021-08-08T05:49:59Z</time>
      </trkpt>
      <trkpt lat="43.75439" lon="-1.39785">
        <ele>16</ele>
        <time>2021-08-08T05:50:01Z</time>
      </trkpt>
      <trkpt lat="43.75394" lon="-1.39821">
        <ele>16</ele>
        <time>2021-08-08T05:50:08Z</time>
      </trkpt>
      <trkpt lat="43.75389" lon="-1.39825">
        <ele>16</ele>
        <time>2021-08-08T05:50:09Z</time>
      </trkpt>
      <trkpt lat="43.75364" lon="-1.39844">
        <ele>16</ele>
        <time>2021-08-08T05:50:13Z</time>
      </trkpt>
      <trkpt lat="43.75359" lon="-1.39848">
        <ele>16</ele>
        <time>2021-08-08T05:50:14Z</time>
      </trkpt>
      <trkpt lat="43.75353" lon="-1.39852">
        <ele>16</ele>
        <time>2021-08-08T05:50:15Z</time>
      </trkpt>
      <trkpt lat="43.75334" lon="-1.39865">
        <ele>15.8</ele>
        <time>2021-08-08T05:50:18Z</time>
      </trkpt>
      <trkpt lat="43.75329" lon="-1.3987">
        <ele>15.8</ele>
        <time>2021-08-08T05:50:19Z</time>
      </trkpt>
      <trkpt lat="43.75316" lon="-1.39881">
        <ele>15.8</ele>
        <time>2021-08-08T05:50:21Z</time>
      </trkpt>
      <trkpt lat="43.7529" lon="-1.39901">
        <ele>15.8</ele>
        <time>2021-08-08T05:50:25Z</time>
      </trkpt>
      <trkpt lat="43.75285" lon="-1.39905">
        <ele>16</ele>
        <time>2021-08-08T05:50:26Z</time>
      </trkpt>
      <trkpt lat="43.75279" lon="-1.39909">
        <ele>15.8</ele>
        <time>2021-08-08T05:50:27Z</time>
      </trkpt>
      <trkpt lat="43.75274" lon="-1.39913">
        <ele>15.8</ele>
        <time>2021-08-08T05:50:28Z</time>
      </trkpt>
      <trkpt lat="43.75266" lon="-1.39919">
        <ele>15.8</ele>
        <time>2021-08-08T05:50:29Z</time>
      </trkpt>
      <trkpt lat="43.75246" lon="-1.39939">
        <ele>16</ele>
        <time>2021-08-08T05:50:32Z</time>
      </trkpt>
      <trkpt lat="43.75216" lon="-1.3997">
        <ele>16</ele>
        <time>2021-08-08T05:50:37Z</time>
      </trkpt>
      <trkpt lat="43.75197" lon="-1.39981">
        <ele>16</ele>
        <time>2021-08-08T05:50:40Z</time>
      </trkpt>
      <trkpt lat="43.75191" lon="-1.39985">
        <ele>16</ele>
        <time>2021-08-08T05:50:41Z</time>
      </trkpt>
      <trkpt lat="43.75187" lon="-1.39989">
        <ele>16</ele>
        <time>2021-08-08T05:50:42Z</time>
      </trkpt>
      <trkpt lat="43.75181" lon="-1.39994">
        <ele>16</ele>
        <time>2021-08-08T05:50:43Z</time>
      </trkpt>
      <trkpt lat="43.75157" lon="-1.40013">
        <ele>16</ele>
        <time>2021-08-08T05:50:47Z</time>
      </trkpt>
      <trkpt lat="43.7515" lon="-1.40018">
        <ele>16</ele>
        <time>2021-08-08T05:50:48Z</time>
      </trkpt>
      <trkpt lat="43.75146" lon="-1.40022">
        <ele>16</ele>
        <time>2021-08-08T05:50:49Z</time>
      </trkpt>
      <trkpt lat="43.7514" lon="-1.40027">
        <ele>16.2</ele>
        <time>2021-08-08T05:50:50Z</time>
      </trkpt>
      <trkpt lat="43.75133" lon="-1.40032">
        <ele>16.2</ele>
        <time>2021-08-08T05:50:51Z</time>
      </trkpt>
      <trkpt lat="43.75129" lon="-1.40036">
        <ele>16.2</ele>
        <time>2021-08-08T05:50:52Z</time>
      </trkpt>
      <trkpt lat="43.75123" lon="-1.4004">
        <ele>16.2</ele>
        <time>2021-08-08T05:50:53Z</time>
      </trkpt>
      <trkpt lat="43.75113" lon="-1.40049">
        <ele>16.2</ele>
        <time>2021-08-08T05:50:55Z</time>
      </trkpt>
      <trkpt lat="43.75074" lon="-1.4008">
        <ele>16.4</ele>
        <time>2021-08-08T05:51:01Z</time>
      </trkpt>
      <trkpt lat="43.75021" lon="-1.40125">
        <ele>16.4</ele>
        <time>2021-08-08T05:51:09Z</time>
      </trkpt>
      <trkpt lat="43.75014" lon="-1.40131">
        <ele>16.4</ele>
        <time>2021-08-08T05:51:10Z</time>
      </trkpt>
      <trkpt lat="43.74971" lon="-1.40166">
        <ele>16.4</ele>
        <time>2021-08-08T05:51:17Z</time>
      </trkpt>
      <trkpt lat="43.74964" lon="-1.4017">
        <ele>16.4</ele>
        <time>2021-08-08T05:51:18Z</time>
      </trkpt>
      <trkpt lat="43.74959" lon="-1.40174">
        <ele>16.4</ele>
        <time>2021-08-08T05:51:19Z</time>
      </trkpt>
      <trkpt lat="43.7494" lon="-1.40187">
        <ele>16.6</ele>
        <time>2021-08-08T05:51:22Z</time>
      </trkpt>
      <trkpt lat="43.74891" lon="-1.40228">
        <ele>16.6</ele>
        <time>2021-08-08T05:51:30Z</time>
      </trkpt>
      <trkpt lat="43.74872" lon="-1.40245">
        <ele>16.6</ele>
        <time>2021-08-08T05:51:33Z</time>
      </trkpt>
      <trkpt lat="43.74861" lon="-1.40253">
        <ele>16.6</ele>
        <time>2021-08-08T05:51:35Z</time>
      </trkpt>
      <trkpt lat="43.74854" lon="-1.40259">
        <ele>16.6</ele>
        <time>2021-08-08T05:51:36Z</time>
      </trkpt>
      <trkpt lat="43.74847" lon="-1.40263">
        <ele>16.4</ele>
        <time>2021-08-08T05:51:37Z</time>
      </trkpt>
      <trkpt lat="43.74823" lon="-1.40283">
        <ele>16.4</ele>
        <time>2021-08-08T05:51:41Z</time>
      </trkpt>
      <trkpt lat="43.74773" lon="-1.40325">
        <ele>16.4</ele>
        <time>2021-08-08T05:51:49Z</time>
      </trkpt>
      <trkpt lat="43.74767" lon="-1.4033">
        <ele>16.4</ele>
        <time>2021-08-08T05:51:50Z</time>
      </trkpt>
      <trkpt lat="43.7473" lon="-1.4036">
        <ele>16.2</ele>
        <time>2021-08-08T05:51:56Z</time>
      </trkpt>
      <trkpt lat="43.74725" lon="-1.40364">
        <ele>16.2</ele>
        <time>2021-08-08T05:51:57Z</time>
      </trkpt>
      <trkpt lat="43.7468" lon="-1.404">
        <ele>16</ele>
        <time>2021-08-08T05:52:04Z</time>
      </trkpt>
      <trkpt lat="43.7463" lon="-1.40443">
        <ele>15.8</ele>
        <time>2021-08-08T05:52:12Z</time>
      </trkpt>
      <trkpt lat="43.74604" lon="-1.40462">
        <ele>15.8</ele>
        <time>2021-08-08T05:52:16Z</time>
      </trkpt>
      <trkpt lat="43.746" lon="-1.40466">
        <ele>15.8</ele>
        <time>2021-08-08T05:52:17Z</time>
      </trkpt>
      <trkpt lat="43.74593" lon="-1.40472">
        <ele>15.8</ele>
        <time>2021-08-08T05:52:18Z</time>
      </trkpt>
      <trkpt lat="43.74588" lon="-1.40476">
        <ele>15.8</ele>
        <time>2021-08-08T05:52:19Z</time>
      </trkpt>
      <trkpt lat="43.74582" lon="-1.40481">
        <ele>15.8</ele>
        <time>2021-08-08T05:52:20Z</time>
      </trkpt>
      <trkpt lat="43.74574" lon="-1.40487">
        <ele>15.8</ele>
        <time>2021-08-08T05:52:21Z</time>
      </trkpt>
      <trkpt lat="43.74563" lon="-1.40495">
        <ele>15.8</ele>
        <time>2021-08-08T05:52:23Z</time>
      </trkpt>
      <trkpt lat="43.7455" lon="-1.40504">
        <ele>16</ele>
        <time>2021-08-08T05:52:25Z</time>
      </trkpt>
      <trkpt lat="43.74543" lon="-1.40509">
        <ele>16</ele>
        <time>2021-08-08T05:52:26Z</time>
      </trkpt>
      <trkpt lat="43.74495" lon="-1.4055">
        <ele>16</ele>
        <time>2021-08-08T05:52:34Z</time>
      </trkpt>
      <trkpt lat="43.74489" lon="-1.40555">
        <ele>16</ele>
        <time>2021-08-08T05:52:35Z</time>
      </trkpt>
      <trkpt lat="43.74459" lon="-1.40583">
        <ele>15.8</ele>
        <time>2021-08-08T05:52:40Z</time>
      </trkpt>
      <trkpt lat="43.74446" lon="-1.40591">
        <ele>15.8</ele>
        <time>2021-08-08T05:52:42Z</time>
      </trkpt>
      <trkpt lat="43.74434" lon="-1.406">
        <ele>15.8</ele>
        <time>2021-08-08T05:52:44Z</time>
      </trkpt>
      <trkpt lat="43.74422" lon="-1.4061">
        <ele>15.8</ele>
        <time>2021-08-08T05:52:46Z</time>
      </trkpt>
      <trkpt lat="43.74416" lon="-1.40615">
        <ele>15.8</ele>
        <time>2021-08-08T05:52:47Z</time>
      </trkpt>
      <trkpt lat="43.7441" lon="-1.4062">
        <ele>15.8</ele>
        <time>2021-08-08T05:52:48Z</time>
      </trkpt>
      <trkpt lat="43.74404" lon="-1.40625">
        <ele>15.8</ele>
        <time>2021-08-08T05:52:49Z</time>
      </trkpt>
      <trkpt lat="43.74374" lon="-1.40649">
        <ele>15.8</ele>
        <time>2021-08-08T05:52:54Z</time>
      </trkpt>
      <trkpt lat="43.74355" lon="-1.40662">
        <ele>15.8</ele>
        <time>2021-08-08T05:52:57Z</time>
      </trkpt>
      <trkpt lat="43.7435" lon="-1.40666">
        <ele>15.8</ele>
        <time>2021-08-08T05:52:58Z</time>
      </trkpt>
      <trkpt lat="43.74344" lon="-1.4067">
        <ele>15.8</ele>
        <time>2021-08-08T05:52:59Z</time>
      </trkpt>
      <trkpt lat="43.74314" lon="-1.40697">
        <ele>15.6</ele>
        <time>2021-08-08T05:53:04Z</time>
      </trkpt>
      <trkpt lat="43.74308" lon="-1.40702">
        <ele>15.6</ele>
        <time>2021-08-08T05:53:05Z</time>
      </trkpt>
      <trkpt lat="43.74302" lon="-1.40707">
        <ele>15.6</ele>
        <time>2021-08-08T05:53:06Z</time>
      </trkpt>
      <trkpt lat="43.74296" lon="-1.40712">
        <ele>15.6</ele>
        <time>2021-08-08T05:53:07Z</time>
      </trkpt>
      <trkpt lat="43.74285" lon="-1.40722">
        <ele>15.8</ele>
        <time>2021-08-08T05:53:09Z</time>
      </trkpt>
      <trkpt lat="43.74236" lon="-1.40759">
        <ele>16</ele>
        <time>2021-08-08T05:53:17Z</time>
      </trkpt>
      <trkpt lat="43.74206" lon="-1.40783">
        <ele>16</ele>
        <time>2021-08-08T05:53:22Z</time>
      </trkpt>
      <trkpt lat="43.7417" lon="-1.40812">
        <ele>16.2</ele>
        <time>2021-08-08T05:53:28Z</time>
      </trkpt>
      <trkpt lat="43.74164" lon="-1.40818">
        <ele>16.2</ele>
        <time>2021-08-08T05:53:29Z</time>
      </trkpt>
      <trkpt lat="43.74127" lon="-1.40846">
        <ele>16</ele>
        <time>2021-08-08T05:53:35Z</time>
      </trkpt>
      <trkpt lat="43.7412" lon="-1.40853">
        <ele>16</ele>
        <time>2021-08-08T05:53:36Z</time>
      </trkpt>
      <trkpt lat="43.74078" lon="-1.40889">
        <ele>16</ele>
        <time>2021-08-08T05:53:43Z</time>
      </trkpt>
      <trkpt lat="43.74072" lon="-1.40893">
        <ele>16</ele>
        <time>2021-08-08T05:53:44Z</time>
      </trkpt>
      <trkpt lat="43.74066" lon="-1.40897">
        <ele>16.2</ele>
        <time>2021-08-08T05:53:45Z</time>
      </trkpt>
      <trkpt lat="43.74053" lon="-1.40909">
        <ele>16.2</ele>
        <time>2021-08-08T05:53:47Z</time>
      </trkpt>
      <trkpt lat="43.74047" lon="-1.40914">
        <ele>16.2</ele>
        <time>2021-08-08T05:53:48Z</time>
      </trkpt>
      <trkpt lat="43.74042" lon="-1.40919">
        <ele>16.2</ele>
        <time>2021-08-08T05:53:49Z</time>
      </trkpt>
      <trkpt lat="43.7403" lon="-1.40929">
        <ele>16.2</ele>
        <time>2021-08-08T05:53:51Z</time>
      </trkpt>
      <trkpt lat="43.74025" lon="-1.40933">
        <ele>16.2</ele>
        <time>2021-08-08T05:53:52Z</time>
      </trkpt>
      <trkpt lat="43.74019" lon="-1.40937">
        <ele>16.2</ele>
        <time>2021-08-08T05:53:53Z</time>
      </trkpt>
      <trkpt lat="43.74002" lon="-1.4095">
        <ele>16.2</ele>
        <time>2021-08-08T05:53:56Z</time>
      </trkpt>
      <trkpt lat="43.73991" lon="-1.40957">
        <ele>16.2</ele>
        <time>2021-08-08T05:53:58Z</time>
      </trkpt>
      <trkpt lat="43.73985" lon="-1.4096">
        <ele>16.2</ele>
        <time>2021-08-08T05:53:59Z</time>
      </trkpt>
      <trkpt lat="43.7398" lon="-1.40964">
        <ele>16.2</ele>
        <time>2021-08-08T05:54:00Z</time>
      </trkpt>
      <trkpt lat="43.73974" lon="-1.40968">
        <ele>16.2</ele>
        <time>2021-08-08T05:54:01Z</time>
      </trkpt>
      <trkpt lat="43.73968" lon="-1.40972">
        <ele>16.2</ele>
        <time>2021-08-08T05:54:02Z</time>
      </trkpt>
      <trkpt lat="43.73962" lon="-1.40976">
        <ele>16.2</ele>
        <time>2021-08-08T05:54:03Z</time>
      </trkpt>
      <trkpt lat="43.73943" lon="-1.40991">
        <ele>16</ele>
        <time>2021-08-08T05:54:06Z</time>
      </trkpt>
      <trkpt lat="43.73905" lon="-1.41022">
        <ele>16</ele>
        <time>2021-08-08T05:54:12Z</time>
      </trkpt>
      <trkpt lat="43.73891" lon="-1.41033">
        <ele>15.8</ele>
        <time>2021-08-08T05:54:14Z</time>
      </trkpt>
      <trkpt lat="43.73871" lon="-1.41051">
        <ele>15.8</ele>
        <time>2021-08-08T05:54:17Z</time>
      </trkpt>
      <trkpt lat="43.73828" lon="-1.41089">
        <ele>15.6</ele>
        <time>2021-08-08T05:54:24Z</time>
      </trkpt>
      <trkpt lat="43.73816" lon="-1.41098">
        <ele>15.6</ele>
        <time>2021-08-08T05:54:26Z</time>
      </trkpt>
      <trkpt lat="43.73797" lon="-1.41113">
        <ele>15.8</ele>
        <time>2021-08-08T05:54:29Z</time>
      </trkpt>
      <trkpt lat="43.7377" lon="-1.41138">
        <ele>15.8</ele>
        <time>2021-08-08T05:54:34Z</time>
      </trkpt>
      <trkpt lat="43.73762" lon="-1.41145">
        <ele>15.8</ele>
        <time>2021-08-08T05:54:35Z</time>
      </trkpt>
      <trkpt lat="43.73756" lon="-1.4115">
        <ele>15.8</ele>
        <time>2021-08-08T05:54:36Z</time>
      </trkpt>
      <trkpt lat="43.73749" lon="-1.41155">
        <ele>16</ele>
        <time>2021-08-08T05:54:37Z</time>
      </trkpt>
      <trkpt lat="43.73743" lon="-1.41158">
        <ele>16</ele>
        <time>2021-08-08T05:54:38Z</time>
      </trkpt>
      <trkpt lat="43.73729" lon="-1.41167">
        <ele>16</ele>
        <time>2021-08-08T05:54:40Z</time>
      </trkpt>
      <trkpt lat="43.73695" lon="-1.41195">
        <ele>16.2</ele>
        <time>2021-08-08T05:54:46Z</time>
      </trkpt>
      <trkpt lat="43.73683" lon="-1.41204">
        <ele>16.2</ele>
        <time>2021-08-08T05:54:48Z</time>
      </trkpt>
      <trkpt lat="43.73678" lon="-1.41209">
        <ele>16.4</ele>
        <time>2021-08-08T05:54:49Z</time>
      </trkpt>
      <trkpt lat="43.73673" lon="-1.41213">
        <ele>16.4</ele>
        <time>2021-08-08T05:54:50Z</time>
      </trkpt>
      <trkpt lat="43.73668" lon="-1.41218">
        <ele>16.6</ele>
        <time>2021-08-08T05:54:51Z</time>
      </trkpt>
      <trkpt lat="43.73663" lon="-1.41222">
        <ele>16.6</ele>
        <time>2021-08-08T05:54:52Z</time>
      </trkpt>
      <trkpt lat="43.73657" lon="-1.41226">
        <ele>16.6</ele>
        <time>2021-08-08T05:54:53Z</time>
      </trkpt>
      <trkpt lat="43.73635" lon="-1.41233">
        <ele>16.6</ele>
        <time>2021-08-08T05:54:56Z</time>
      </trkpt>
      <trkpt lat="43.7362" lon="-1.41231">
        <ele>16.4</ele>
        <time>2021-08-08T05:54:58Z</time>
      </trkpt>
      <trkpt lat="43.73606" lon="-1.41226">
        <ele>16.4</ele>
        <time>2021-08-08T05:55:00Z</time>
      </trkpt>
      <trkpt lat="43.73573" lon="-1.41204">
        <ele>16.2</ele>
        <time>2021-08-08T05:55:05Z</time>
      </trkpt>
      <trkpt lat="43.73567" lon="-1.41199">
        <ele>16</ele>
        <time>2021-08-08T05:55:06Z</time>
      </trkpt>
      <trkpt lat="43.73554" lon="-1.4119">
        <ele>16</ele>
        <time>2021-08-08T05:55:08Z</time>
      </trkpt>
      <trkpt lat="43.73548" lon="-1.41186">
        <ele>16</ele>
        <time>2021-08-08T05:55:09Z</time>
      </trkpt>
      <trkpt lat="43.73542" lon="-1.41182">
        <ele>16</ele>
        <time>2021-08-08T05:55:10Z</time>
      </trkpt>
      <trkpt lat="43.73535" lon="-1.41178">
        <ele>16</ele>
        <time>2021-08-08T05:55:11Z</time>
      </trkpt>
      <trkpt lat="43.73529" lon="-1.41174">
        <ele>16</ele>
        <time>2021-08-08T05:55:12Z</time>
      </trkpt>
      <trkpt lat="43.73523" lon="-1.4117">
        <ele>16</ele>
        <time>2021-08-08T05:55:13Z</time>
      </trkpt>
      <trkpt lat="43.73518" lon="-1.41165">
        <ele>16</ele>
        <time>2021-08-08T05:55:14Z</time>
      </trkpt>
      <trkpt lat="43.73512" lon="-1.41162">
        <ele>16</ele>
        <time>2021-08-08T05:55:15Z</time>
      </trkpt>
      <trkpt lat="43.73506" lon="-1.41158">
        <ele>16</ele>
        <time>2021-08-08T05:55:16Z</time>
      </trkpt>
      <trkpt lat="43.73501" lon="-1.41154">
        <ele>16</ele>
        <time>2021-08-08T05:55:17Z</time>
      </trkpt>
      <trkpt lat="43.73496" lon="-1.41151">
        <ele>16</ele>
        <time>2021-08-08T05:55:18Z</time>
      </trkpt>
      <trkpt lat="43.73491" lon="-1.41147">
        <ele>16</ele>
        <time>2021-08-08T05:55:19Z</time>
      </trkpt>
      <trkpt lat="43.73486" lon="-1.41145">
        <ele>16</ele>
        <time>2021-08-08T05:55:20Z</time>
      </trkpt>
      <trkpt lat="43.73481" lon="-1.41144">
        <ele>16</ele>
        <time>2021-08-08T05:55:21Z</time>
      </trkpt>
      <trkpt lat="43.73469" lon="-1.41142">
        <ele>16</ele>
        <time>2021-08-08T05:55:23Z</time>
      </trkpt>
      <trkpt lat="43.73446" lon="-1.4114">
        <ele>16.2</ele>
        <time>2021-08-08T05:55:27Z</time>
      </trkpt>
      <trkpt lat="43.73441" lon="-1.41142">
        <ele>16.2</ele>
        <time>2021-08-08T05:55:28Z</time>
      </trkpt>
      <trkpt lat="43.73435" lon="-1.41144">
        <ele>16.2</ele>
        <time>2021-08-08T05:55:29Z</time>
      </trkpt>
      <trkpt lat="43.73418" lon="-1.41151">
        <ele>16.4</ele>
        <time>2021-08-08T05:55:32Z</time>
      </trkpt>
      <trkpt lat="43.73406" lon="-1.41154">
        <ele>16.4</ele>
        <time>2021-08-08T05:55:34Z</time>
      </trkpt>
      <trkpt lat="43.73401" lon="-1.41157">
        <ele>16.4</ele>
        <time>2021-08-08T05:55:35Z</time>
      </trkpt>
      <trkpt lat="43.73396" lon="-1.41159">
        <ele>16.4</ele>
        <time>2021-08-08T05:55:36Z</time>
      </trkpt>
      <trkpt lat="43.7339" lon="-1.41162">
        <ele>16.4</ele>
        <time>2021-08-08T05:55:37Z</time>
      </trkpt>
      <trkpt lat="43.73367" lon="-1.41173">
        <ele>16.4</ele>
        <time>2021-08-08T05:55:41Z</time>
      </trkpt>
      <trkpt lat="43.73361" lon="-1.41175">
        <ele>16.4</ele>
        <time>2021-08-08T05:55:42Z</time>
      </trkpt>
      <trkpt lat="43.73357" lon="-1.41178">
        <ele>16.4</ele>
        <time>2021-08-08T05:55:43Z</time>
      </trkpt>
      <trkpt lat="43.73338" lon="-1.41187">
        <ele>16.6</ele>
        <time>2021-08-08T05:55:46Z</time>
      </trkpt>
      <trkpt lat="43.73332" lon="-1.41191">
        <ele>16.6</ele>
        <time>2021-08-08T05:55:47Z</time>
      </trkpt>
      <trkpt lat="43.7332" lon="-1.41198">
        <ele>16.8</ele>
        <time>2021-08-08T05:55:49Z</time>
      </trkpt>
      <trkpt lat="43.73315" lon="-1.412">
        <ele>17</ele>
        <time>2021-08-08T05:55:50Z</time>
      </trkpt>
      <trkpt lat="43.73309" lon="-1.41204">
        <ele>17</ele>
        <time>2021-08-08T05:55:51Z</time>
      </trkpt>
      <trkpt lat="43.73303" lon="-1.41207">
        <ele>17</ele>
        <time>2021-08-08T05:55:52Z</time>
      </trkpt>
      <trkpt lat="43.73297" lon="-1.4121">
        <ele>17.2</ele>
        <time>2021-08-08T05:55:53Z</time>
      </trkpt>
      <trkpt lat="43.73292" lon="-1.41213">
        <ele>17.2</ele>
        <time>2021-08-08T05:55:54Z</time>
      </trkpt>
      <trkpt lat="43.73281" lon="-1.41219">
        <ele>17.4</ele>
        <time>2021-08-08T05:55:56Z</time>
      </trkpt>
      <trkpt lat="43.73277" lon="-1.41222">
        <ele>17.8</ele>
        <time>2021-08-08T05:55:57Z</time>
      </trkpt>
      <trkpt lat="43.73273" lon="-1.41224">
        <ele>18</ele>
        <time>2021-08-08T05:55:58Z</time>
      </trkpt>
      <trkpt lat="43.73266" lon="-1.41228">
        <ele>18.2</ele>
        <time>2021-08-08T05:55:59Z</time>
      </trkpt>
      <trkpt lat="43.73259" lon="-1.4123">
        <ele>18.4</ele>
        <time>2021-08-08T05:56:00Z</time>
      </trkpt>
      <trkpt lat="43.73254" lon="-1.41234">
        <ele>18.4</ele>
        <time>2021-08-08T05:56:01Z</time>
      </trkpt>
      <trkpt lat="43.73237" lon="-1.41243">
        <ele>18.6</ele>
        <time>2021-08-08T05:56:04Z</time>
      </trkpt>
      <trkpt lat="43.73195" lon="-1.41264">
        <ele>18.8</ele>
        <time>2021-08-08T05:56:11Z</time>
      </trkpt>
      <trkpt lat="43.73187" lon="-1.41268">
        <ele>18.6</ele>
        <time>2021-08-08T05:56:12Z</time>
      </trkpt>
      <trkpt lat="43.73174" lon="-1.41275">
        <ele>18.6</ele>
        <time>2021-08-08T05:56:14Z</time>
      </trkpt>
      <trkpt lat="43.73166" lon="-1.41278">
        <ele>18.4</ele>
        <time>2021-08-08T05:56:15Z</time>
      </trkpt>
      <trkpt lat="43.73152" lon="-1.41286">
        <ele>18.4</ele>
        <time>2021-08-08T05:56:17Z</time>
      </trkpt>
      <trkpt lat="43.73122" lon="-1.413">
        <ele>17.8</ele>
        <time>2021-08-08T05:56:21Z</time>
      </trkpt>
      <trkpt lat="43.73094" lon="-1.4131">
        <ele>17.6</ele>
        <time>2021-08-08T05:56:25Z</time>
      </trkpt>
      <trkpt lat="43.73079" lon="-1.4131">
        <ele>17.4</ele>
        <time>2021-08-08T05:56:27Z</time>
      </trkpt>
      <trkpt lat="43.73073" lon="-1.41308">
        <ele>17.4</ele>
        <time>2021-08-08T05:56:28Z</time>
      </trkpt>
      <trkpt lat="43.73066" lon="-1.41306">
        <ele>17.2</ele>
        <time>2021-08-08T05:56:29Z</time>
      </trkpt>
      <trkpt lat="43.73059" lon="-1.41303">
        <ele>17.2</ele>
        <time>2021-08-08T05:56:30Z</time>
      </trkpt>
      <trkpt lat="43.73052" lon="-1.41299">
        <ele>17.2</ele>
        <time>2021-08-08T05:56:31Z</time>
      </trkpt>
      <trkpt lat="43.73046" lon="-1.41294">
        <ele>17.2</ele>
        <time>2021-08-08T05:56:32Z</time>
      </trkpt>
      <trkpt lat="43.73016" lon="-1.41265">
        <ele>17.2</ele>
        <time>2021-08-08T05:56:37Z</time>
      </trkpt>
      <trkpt lat="43.72979" lon="-1.41235">
        <ele>17</ele>
        <time>2021-08-08T05:56:43Z</time>
      </trkpt>
      <trkpt lat="43.72968" lon="-1.41223">
        <ele>17</ele>
        <time>2021-08-08T05:56:45Z</time>
      </trkpt>
      <trkpt lat="43.7295" lon="-1.41209">
        <ele>17</ele>
        <time>2021-08-08T05:56:48Z</time>
      </trkpt>
      <trkpt lat="43.72944" lon="-1.41205">
        <ele>17</ele>
        <time>2021-08-08T05:56:49Z</time>
      </trkpt>
      <trkpt lat="43.72938" lon="-1.41202">
        <ele>17</ele>
        <time>2021-08-08T05:56:50Z</time>
      </trkpt>
      <trkpt lat="43.72931" lon="-1.41199">
        <ele>17</ele>
        <time>2021-08-08T05:56:51Z</time>
      </trkpt>
      <trkpt lat="43.72925" lon="-1.41196">
        <ele>17</ele>
        <time>2021-08-08T05:56:52Z</time>
      </trkpt>
      <trkpt lat="43.72919" lon="-1.41193">
        <ele>17</ele>
        <time>2021-08-08T05:56:53Z</time>
      </trkpt>
      <trkpt lat="43.72913" lon="-1.4119">
        <ele>17</ele>
        <time>2021-08-08T05:56:54Z</time>
      </trkpt>
      <trkpt lat="43.72907" lon="-1.41187">
        <ele>17</ele>
        <time>2021-08-08T05:56:55Z</time>
      </trkpt>
      <trkpt lat="43.72901" lon="-1.41184">
        <ele>17.2</ele>
        <time>2021-08-08T05:56:56Z</time>
      </trkpt>
      <trkpt lat="43.72895" lon="-1.41181">
        <ele>17.2</ele>
        <time>2021-08-08T05:56:57Z</time>
      </trkpt>
      <trkpt lat="43.72889" lon="-1.41178">
        <ele>17.2</ele>
        <time>2021-08-08T05:56:58Z</time>
      </trkpt>
      <trkpt lat="43.72858" lon="-1.41164">
        <ele>17.2</ele>
        <time>2021-08-08T05:57:03Z</time>
      </trkpt>
      <trkpt lat="43.72853" lon="-1.4116">
        <ele>17.2</ele>
        <time>2021-08-08T05:57:04Z</time>
      </trkpt>
      <trkpt lat="43.72847" lon="-1.41158">
        <ele>17.2</ele>
        <time>2021-08-08T05:57:05Z</time>
      </trkpt>
      <trkpt lat="43.72841" lon="-1.41157">
        <ele>17.2</ele>
        <time>2021-08-08T05:57:06Z</time>
      </trkpt>
      <trkpt lat="43.72835" lon="-1.41156">
        <ele>17</ele>
        <time>2021-08-08T05:57:07Z</time>
      </trkpt>
      <trkpt lat="43.72829" lon="-1.41155">
        <ele>17</ele>
        <time>2021-08-08T05:57:08Z</time>
      </trkpt>
      <trkpt lat="43.72823" lon="-1.41155">
        <ele>17</ele>
        <time>2021-08-08T05:57:09Z</time>
      </trkpt>
      <trkpt lat="43.72817" lon="-1.41155">
        <ele>17</ele>
        <time>2021-08-08T05:57:10Z</time>
      </trkpt>
      <trkpt lat="43.72811" lon="-1.41154">
        <ele>17</ele>
        <time>2021-08-08T05:57:11Z</time>
      </trkpt>
      <trkpt lat="43.72805" lon="-1.41154">
        <ele>17</ele>
        <time>2021-08-08T05:57:12Z</time>
      </trkpt>
      <trkpt lat="43.728" lon="-1.41153">
        <ele>17</ele>
        <time>2021-08-08T05:57:13Z</time>
      </trkpt>
      <trkpt lat="43.72794" lon="-1.41153">
        <ele>17.2</ele>
        <time>2021-08-08T05:57:14Z</time>
      </trkpt>
      <trkpt lat="43.72788" lon="-1.41152">
        <ele>17.2</ele>
        <time>2021-08-08T05:57:15Z</time>
      </trkpt>
      <trkpt lat="43.72783" lon="-1.41153">
        <ele>17.2</ele>
        <time>2021-08-08T05:57:16Z</time>
      </trkpt>
      <trkpt lat="43.72777" lon="-1.41153">
        <ele>17.2</ele>
        <time>2021-08-08T05:57:17Z</time>
      </trkpt>
      <trkpt lat="43.72772" lon="-1.41153">
        <ele>17.4</ele>
        <time>2021-08-08T05:57:18Z</time>
      </trkpt>
      <trkpt lat="43.72761" lon="-1.41152">
        <ele>17.4</ele>
        <time>2021-08-08T05:57:20Z</time>
      </trkpt>
      <trkpt lat="43.72755" lon="-1.41153">
        <ele>17.6</ele>
        <time>2021-08-08T05:57:21Z</time>
      </trkpt>
      <trkpt lat="43.72745" lon="-1.41156">
        <ele>17.8</ele>
        <time>2021-08-08T05:57:23Z</time>
      </trkpt>
      <trkpt lat="43.7274" lon="-1.41157">
        <ele>17.8</ele>
        <time>2021-08-08T05:57:24Z</time>
      </trkpt>
      <trkpt lat="43.72735" lon="-1.41158">
        <ele>18</ele>
        <time>2021-08-08T05:57:25Z</time>
      </trkpt>
      <trkpt lat="43.72731" lon="-1.41158">
        <ele>18.4</ele>
        <time>2021-08-08T05:57:26Z</time>
      </trkpt>
      <trkpt lat="43.72726" lon="-1.4116">
        <ele>18.6</ele>
        <time>2021-08-08T05:57:27Z</time>
      </trkpt>
      <trkpt lat="43.72717" lon="-1.41162">
        <ele>18.8</ele>
        <time>2021-08-08T05:57:29Z</time>
      </trkpt>
      <trkpt lat="43.72714" lon="-1.41162">
        <ele>19.2</ele>
        <time>2021-08-08T05:57:30Z</time>
      </trkpt>
      <trkpt lat="43.7271" lon="-1.41163">
        <ele>19.4</ele>
        <time>2021-08-08T05:57:31Z</time>
      </trkpt>
      <trkpt lat="43.72707" lon="-1.41164">
        <ele>19.6</ele>
        <time>2021-08-08T05:57:32Z</time>
      </trkpt>
      <trkpt lat="43.72702" lon="-1.41166">
        <ele>19.8</ele>
        <time>2021-08-08T05:57:33Z</time>
      </trkpt>
      <trkpt lat="43.7269" lon="-1.4117">
        <ele>20.2</ele>
        <time>2021-08-08T05:57:36Z</time>
      </trkpt>
      <trkpt lat="43.72686" lon="-1.41171">
        <ele>20.2</ele>
        <time>2021-08-08T05:57:37Z</time>
      </trkpt>
      <trkpt lat="43.72683" lon="-1.41172">
        <ele>20.2</ele>
        <time>2021-08-08T05:57:38Z</time>
      </trkpt>
      <trkpt lat="43.72681" lon="-1.41172">
        <ele>20.2</ele>
        <time>2021-08-08T05:57:39Z</time>
      </trkpt>
      <trkpt lat="43.72679" lon="-1.41172">
        <ele>20.2</ele>
        <time>2021-08-08T05:57:40Z</time>
      </trkpt>
      <trkpt lat="43.72676" lon="-1.41174">
        <ele>20.2</ele>
        <time>2021-08-08T05:57:41Z</time>
      </trkpt>
      <trkpt lat="43.72673" lon="-1.41176">
        <ele>20.2</ele>
        <time>2021-08-08T05:57:42Z</time>
      </trkpt>
      <trkpt lat="43.72669" lon="-1.41179">
        <ele>20.2</ele>
        <time>2021-08-08T05:57:43Z</time>
      </trkpt>
      <trkpt lat="43.72665" lon="-1.41182">
        <ele>20.2</ele>
        <time>2021-08-08T05:57:44Z</time>
      </trkpt>
      <trkpt lat="43.72662" lon="-1.41185">
        <ele>20</ele>
        <time>2021-08-08T05:57:45Z</time>
      </trkpt>
      <trkpt lat="43.72658" lon="-1.41189">
        <ele>20</ele>
        <time>2021-08-08T05:57:46Z</time>
      </trkpt>
      <trkpt lat="43.72655" lon="-1.41192">
        <ele>20</ele>
        <time>2021-08-08T05:57:47Z</time>
      </trkpt>
      <trkpt lat="43.72651" lon="-1.41195">
        <ele>19.8</ele>
        <time>2021-08-08T05:57:48Z</time>
      </trkpt>
      <trkpt lat="43.72647" lon="-1.41198">
        <ele>19.8</ele>
        <time>2021-08-08T05:57:49Z</time>
      </trkpt>
      <trkpt lat="43.72644" lon="-1.41201">
        <ele>19.8</ele>
        <time>2021-08-08T05:57:50Z</time>
      </trkpt>
      <trkpt lat="43.72642" lon="-1.41204">
        <ele>19.6</ele>
        <time>2021-08-08T05:57:51Z</time>
      </trkpt>
      <trkpt lat="43.72641" lon="-1.41207">
        <ele>19.6</ele>
        <time>2021-08-08T05:57:52Z</time>
      </trkpt>
      <trkpt lat="43.72643" lon="-1.4121">
        <ele>19.4</ele>
        <time>2021-08-08T05:57:53Z</time>
      </trkpt>
      <trkpt lat="43.72645" lon="-1.41212">
        <ele>19.4</ele>
        <time>2021-08-08T05:57:54Z</time>
      </trkpt>
      <trkpt lat="43.72647" lon="-1.41213">
        <ele>19.2</ele>
        <time>2021-08-08T05:57:55Z</time>
      </trkpt>
      <trkpt lat="43.7265" lon="-1.41214">
        <ele>19</ele>
        <time>2021-08-08T05:57:56Z</time>
      </trkpt>
      <trkpt lat="43.72652" lon="-1.41216">
        <ele>19</ele>
        <time>2021-08-08T05:57:57Z</time>
      </trkpt>
      <trkpt lat="43.72656" lon="-1.41217">
        <ele>19</ele>
        <time>2021-08-08T05:57:58Z</time>
      </trkpt>
      <trkpt lat="43.72658" lon="-1.41216">
        <ele>19</ele>
        <time>2021-08-08T05:57:59Z</time>
      </trkpt>
      <trkpt lat="43.72661" lon="-1.41214">
        <ele>19</ele>
        <time>2021-08-08T05:58:00Z</time>
      </trkpt>
      <trkpt lat="43.72679" lon="-1.41203">
        <ele>19.2</ele>
        <time>2021-08-08T05:58:06Z</time>
      </trkpt>
      <trkpt lat="43.72682" lon="-1.41203">
        <ele>19.4</ele>
        <time>2021-08-08T05:58:07Z</time>
      </trkpt>
      <trkpt lat="43.72685" lon="-1.41206">
        <ele>19.4</ele>
        <time>2021-08-08T05:58:08Z</time>
      </trkpt>
      <trkpt lat="43.72689" lon="-1.41208">
        <ele>19.6</ele>
        <time>2021-08-08T05:58:09Z</time>
      </trkpt>
      <trkpt lat="43.72692" lon="-1.41208">
        <ele>19.6</ele>
        <time>2021-08-08T05:58:10Z</time>
      </trkpt>
      <trkpt lat="43.72695" lon="-1.41206">
        <ele>19.6</ele>
        <time>2021-08-08T05:58:11Z</time>
      </trkpt>
      <trkpt lat="43.72699" lon="-1.41205">
        <ele>19.8</ele>
        <time>2021-08-08T05:58:12Z</time>
      </trkpt>
      <trkpt lat="43.72703" lon="-1.41205">
        <ele>19.8</ele>
        <time>2021-08-08T05:58:13Z</time>
      </trkpt>
      <trkpt lat="43.72705" lon="-1.41208">
        <ele>19.8</ele>
        <time>2021-08-08T05:58:14Z</time>
      </trkpt>
      <trkpt lat="43.72705" lon="-1.41211">
        <ele>20</ele>
        <time>2021-08-08T05:58:15Z</time>
      </trkpt>
      <trkpt lat="43.72705" lon="-1.41215">
        <ele>20.2</ele>
        <time>2021-08-08T05:58:16Z</time>
      </trkpt>
      <trkpt lat="43.72706" lon="-1.4122">
        <ele>20.2</ele>
        <time>2021-08-08T05:58:17Z</time>
      </trkpt>
      <trkpt lat="43.7271" lon="-1.41236">
        <ele>20.6</ele>
        <time>2021-08-08T05:58:20Z</time>
      </trkpt>
      <trkpt lat="43.72713" lon="-1.41241">
        <ele>20.8</ele>
        <time>2021-08-08T05:58:21Z</time>
      </trkpt>
      <trkpt lat="43.72723" lon="-1.41263">
        <ele>21.8</ele>
        <time>2021-08-08T05:58:26Z</time>
      </trkpt>
      <trkpt lat="43.72726" lon="-1.41268">
        <ele>22</ele>
        <time>2021-08-08T05:58:27Z</time>
      </trkpt>
      <trkpt lat="43.7273" lon="-1.41283">
        <ele>23.2</ele>
        <time>2021-08-08T05:58:30Z</time>
      </trkpt>
      <trkpt lat="43.72731" lon="-1.41288">
        <ele>23.4</ele>
        <time>2021-08-08T05:58:31Z</time>
      </trkpt>
      <trkpt lat="43.72732" lon="-1.41293">
        <ele>23.8</ele>
        <time>2021-08-08T05:58:32Z</time>
      </trkpt>
      <trkpt lat="43.72732" lon="-1.41298">
        <ele>23.8</ele>
        <time>2021-08-08T05:58:33Z</time>
      </trkpt>
      <trkpt lat="43.72733" lon="-1.41303">
        <ele>24.2</ele>
        <time>2021-08-08T05:58:34Z</time>
      </trkpt>
      <trkpt lat="43.72734" lon="-1.41308">
        <ele>24.4</ele>
        <time>2021-08-08T05:58:35Z</time>
      </trkpt>
      <trkpt lat="43.72735" lon="-1.41313">
        <ele>24.8</ele>
        <time>2021-08-08T05:58:36Z</time>
      </trkpt>
      <trkpt lat="43.72736" lon="-1.41318">
        <ele>25.2</ele>
        <time>2021-08-08T05:58:37Z</time>
      </trkpt>
      <trkpt lat="43.72737" lon="-1.41324">
        <ele>25.6</ele>
        <time>2021-08-08T05:58:38Z</time>
      </trkpt>
      <trkpt lat="43.72737" lon="-1.41329">
        <ele>25.6</ele>
        <time>2021-08-08T05:58:39Z</time>
      </trkpt>
      <trkpt lat="43.72737" lon="-1.41334">
        <ele>26</ele>
        <time>2021-08-08T05:58:40Z</time>
      </trkpt>
      <trkpt lat="43.72737" lon="-1.41339">
        <ele>26.2</ele>
        <time>2021-08-08T05:58:41Z</time>
      </trkpt>
      <trkpt lat="43.72737" lon="-1.41344">
        <ele>26.2</ele>
        <time>2021-08-08T05:58:42Z</time>
      </trkpt>
      <trkpt lat="43.72737" lon="-1.4135">
        <ele>26.4</ele>
        <time>2021-08-08T05:58:43Z</time>
      </trkpt>
      <trkpt lat="43.72737" lon="-1.41355">
        <ele>26.6</ele>
        <time>2021-08-08T05:58:44Z</time>
      </trkpt>
      <trkpt lat="43.72737" lon="-1.41361">
        <ele>26.8</ele>
        <time>2021-08-08T05:58:45Z</time>
      </trkpt>
      <trkpt lat="43.72736" lon="-1.41367">
        <ele>27</ele>
        <time>2021-08-08T05:58:46Z</time>
      </trkpt>
      <trkpt lat="43.72735" lon="-1.41372">
        <ele>27.2</ele>
        <time>2021-08-08T05:58:47Z</time>
      </trkpt>
      <trkpt lat="43.72734" lon="-1.41378">
        <ele>27.2</ele>
        <time>2021-08-08T05:58:48Z</time>
      </trkpt>
      <trkpt lat="43.72733" lon="-1.41384">
        <ele>27.4</ele>
        <time>2021-08-08T05:58:49Z</time>
      </trkpt>
      <trkpt lat="43.72732" lon="-1.4139">
        <ele>27.4</ele>
        <time>2021-08-08T05:58:50Z</time>
      </trkpt>
      <trkpt lat="43.7273" lon="-1.41395">
        <ele>27.6</ele>
        <time>2021-08-08T05:58:51Z</time>
      </trkpt>
      <trkpt lat="43.72729" lon="-1.41401">
        <ele>27.8</ele>
        <time>2021-08-08T05:58:52Z</time>
      </trkpt>
      <trkpt lat="43.72728" lon="-1.41407">
        <ele>28</ele>
        <time>2021-08-08T05:58:53Z</time>
      </trkpt>
      <trkpt lat="43.72727" lon="-1.41412">
        <ele>28</ele>
        <time>2021-08-08T05:58:54Z</time>
      </trkpt>
      <trkpt lat="43.72725" lon="-1.41418">
        <ele>28</ele>
        <time>2021-08-08T05:58:55Z</time>
      </trkpt>
      <trkpt lat="43.72723" lon="-1.41423">
        <ele>28.2</ele>
        <time>2021-08-08T05:58:56Z</time>
      </trkpt>
      <trkpt lat="43.72722" lon="-1.41429">
        <ele>28.2</ele>
        <time>2021-08-08T05:58:57Z</time>
      </trkpt>
      <trkpt lat="43.7272" lon="-1.41434">
        <ele>28.2</ele>
        <time>2021-08-08T05:58:58Z</time>
      </trkpt>
      <trkpt lat="43.72719" lon="-1.41441">
        <ele>28.2</ele>
        <time>2021-08-08T05:58:59Z</time>
      </trkpt>
      <trkpt lat="43.72717" lon="-1.41447">
        <ele>28.4</ele>
        <time>2021-08-08T05:59:00Z</time>
      </trkpt>
      <trkpt lat="43.72715" lon="-1.41453">
        <ele>28.4</ele>
        <time>2021-08-08T05:59:01Z</time>
      </trkpt>
      <trkpt lat="43.72713" lon="-1.41459">
        <ele>28.4</ele>
        <time>2021-08-08T05:59:02Z</time>
      </trkpt>
      <trkpt lat="43.72711" lon="-1.41465">
        <ele>28.6</ele>
        <time>2021-08-08T05:59:03Z</time>
      </trkpt>
      <trkpt lat="43.72709" lon="-1.41472">
        <ele>28.6</ele>
        <time>2021-08-08T05:59:04Z</time>
      </trkpt>
      <trkpt lat="43.72707" lon="-1.41477">
        <ele>28.8</ele>
        <time>2021-08-08T05:59:05Z</time>
      </trkpt>
      <trkpt lat="43.72706" lon="-1.41484">
        <ele>29</ele>
        <time>2021-08-08T05:59:06Z</time>
      </trkpt>
      <trkpt lat="43.72705" lon="-1.4149">
        <ele>29</ele>
        <time>2021-08-08T05:59:07Z</time>
      </trkpt>
      <trkpt lat="43.72703" lon="-1.41496">
        <ele>29.2</ele>
        <time>2021-08-08T05:59:08Z</time>
      </trkpt>
      <trkpt lat="43.72701" lon="-1.41502">
        <ele>29.4</ele>
        <time>2021-08-08T05:59:09Z</time>
      </trkpt>
      <trkpt lat="43.72699" lon="-1.41507">
        <ele>29.6</ele>
        <time>2021-08-08T05:59:10Z</time>
      </trkpt>
      <trkpt lat="43.72697" lon="-1.41513">
        <ele>29.6</ele>
        <time>2021-08-08T05:59:11Z</time>
      </trkpt>
      <trkpt lat="43.72696" lon="-1.41518">
        <ele>29.8</ele>
        <time>2021-08-08T05:59:12Z</time>
      </trkpt>
      <trkpt lat="43.72694" lon="-1.41525">
        <ele>29.8</ele>
        <time>2021-08-08T05:59:13Z</time>
      </trkpt>
      <trkpt lat="43.72693" lon="-1.41531">
        <ele>30</ele>
        <time>2021-08-08T05:59:14Z</time>
      </trkpt>
      <trkpt lat="43.72691" lon="-1.41537">
        <ele>30.2</ele>
        <time>2021-08-08T05:59:15Z</time>
      </trkpt>
      <trkpt lat="43.7269" lon="-1.41543">
        <ele>30.4</ele>
        <time>2021-08-08T05:59:16Z</time>
      </trkpt>
      <trkpt lat="43.72688" lon="-1.41548">
        <ele>30.4</ele>
        <time>2021-08-08T05:59:17Z</time>
      </trkpt>
      <trkpt lat="43.72687" lon="-1.41554">
        <ele>30.6</ele>
        <time>2021-08-08T05:59:18Z</time>
      </trkpt>
      <trkpt lat="43.72685" lon="-1.4156">
        <ele>30.6</ele>
        <time>2021-08-08T05:59:19Z</time>
      </trkpt>
      <trkpt lat="43.72684" lon="-1.41566">
        <ele>30.8</ele>
        <time>2021-08-08T05:59:20Z</time>
      </trkpt>
      <trkpt lat="43.72682" lon="-1.41571">
        <ele>30.8</ele>
        <time>2021-08-08T05:59:21Z</time>
      </trkpt>
      <trkpt lat="43.72681" lon="-1.41576">
        <ele>31</ele>
        <time>2021-08-08T05:59:22Z</time>
      </trkpt>
      <trkpt lat="43.72679" lon="-1.41582">
        <ele>31.2</ele>
        <time>2021-08-08T05:59:23Z</time>
      </trkpt>
      <trkpt lat="43.72678" lon="-1.41587">
        <ele>31.2</ele>
        <time>2021-08-08T05:59:24Z</time>
      </trkpt>
      <trkpt lat="43.72676" lon="-1.41593">
        <ele>31.2</ele>
        <time>2021-08-08T05:59:25Z</time>
      </trkpt>
      <trkpt lat="43.72674" lon="-1.416">
        <ele>31.2</ele>
        <time>2021-08-08T05:59:26Z</time>
      </trkpt>
      <trkpt lat="43.72672" lon="-1.41607">
        <ele>31.4</ele>
        <time>2021-08-08T05:59:27Z</time>
      </trkpt>
      <trkpt lat="43.7267" lon="-1.41614">
        <ele>31.4</ele>
        <time>2021-08-08T05:59:28Z</time>
      </trkpt>
      <trkpt lat="43.72668" lon="-1.41621">
        <ele>31.4</ele>
        <time>2021-08-08T05:59:29Z</time>
      </trkpt>
      <trkpt lat="43.72666" lon="-1.41627">
        <ele>31.4</ele>
        <time>2021-08-08T05:59:30Z</time>
      </trkpt>
      <trkpt lat="43.72664" lon="-1.41635">
        <ele>31.4</ele>
        <time>2021-08-08T05:59:31Z</time>
      </trkpt>
      <trkpt lat="43.72661" lon="-1.41642">
        <ele>31.4</ele>
        <time>2021-08-08T05:59:32Z</time>
      </trkpt>
      <trkpt lat="43.72659" lon="-1.4165">
        <ele>31.2</ele>
        <time>2021-08-08T05:59:33Z</time>
      </trkpt>
      <trkpt lat="43.72654" lon="-1.41668">
        <ele>31</ele>
        <time>2021-08-08T05:59:35Z</time>
      </trkpt>
      <trkpt lat="43.72638" lon="-1.41727">
        <ele>30</ele>
        <time>2021-08-08T05:59:41Z</time>
      </trkpt>
      <trkpt lat="43.72635" lon="-1.41737">
        <ele>29.6</ele>
        <time>2021-08-08T05:59:42Z</time>
      </trkpt>
      <trkpt lat="43.72623" lon="-1.41782">
        <ele>28.4</ele>
        <time>2021-08-08T05:59:46Z</time>
      </trkpt>
      <trkpt lat="43.72617" lon="-1.41805">
        <ele>27.6</ele>
        <time>2021-08-08T05:59:48Z</time>
      </trkpt>
      <trkpt lat="43.7261" lon="-1.41829">
        <ele>26.8</ele>
        <time>2021-08-08T05:59:50Z</time>
      </trkpt>
      <trkpt lat="43.72607" lon="-1.41842">
        <ele>26.2</ele>
        <time>2021-08-08T05:59:51Z</time>
      </trkpt>
      <trkpt lat="43.72599" lon="-1.41867">
        <ele>25.2</ele>
        <time>2021-08-08T05:59:53Z</time>
      </trkpt>
      <trkpt lat="43.72596" lon="-1.4188">
        <ele>24.8</ele>
        <time>2021-08-08T05:59:54Z</time>
      </trkpt>
      <trkpt lat="43.72592" lon="-1.41893">
        <ele>24</ele>
        <time>2021-08-08T05:59:55Z</time>
      </trkpt>
      <trkpt lat="43.72586" lon="-1.41919">
        <ele>23.2</ele>
        <time>2021-08-08T05:59:57Z</time>
      </trkpt>
      <trkpt lat="43.72582" lon="-1.41931">
        <ele>22.6</ele>
        <time>2021-08-08T05:59:58Z</time>
      </trkpt>
      <trkpt lat="43.72575" lon="-1.41957">
        <ele>21.8</ele>
        <time>2021-08-08T06:00:00Z</time>
      </trkpt>
      <trkpt lat="43.72571" lon="-1.4197">
        <ele>21</ele>
        <time>2021-08-08T06:00:01Z</time>
      </trkpt>
      <trkpt lat="43.72564" lon="-1.41996">
        <ele>19.8</ele>
        <time>2021-08-08T06:00:03Z</time>
      </trkpt>
      <trkpt lat="43.72555" lon="-1.42031">
        <ele>18.8</ele>
        <time>2021-08-08T06:00:06Z</time>
      </trkpt>
      <trkpt lat="43.72552" lon="-1.42043">
        <ele>18.2</ele>
        <time>2021-08-08T06:00:07Z</time>
      </trkpt>
      <trkpt lat="43.72549" lon="-1.42054">
        <ele>17.8</ele>
        <time>2021-08-08T06:00:08Z</time>
      </trkpt>
      <trkpt lat="43.72546" lon="-1.42065">
        <ele>17.6</ele>
        <time>2021-08-08T06:00:09Z</time>
      </trkpt>
      <trkpt lat="43.72543" lon="-1.42076">
        <ele>17</ele>
        <time>2021-08-08T06:00:10Z</time>
      </trkpt>
      <trkpt lat="43.7254" lon="-1.42088">
        <ele>16.6</ele>
        <time>2021-08-08T06:00:11Z</time>
      </trkpt>
      <trkpt lat="43.72537" lon="-1.42099">
        <ele>16.4</ele>
        <time>2021-08-08T06:00:12Z</time>
      </trkpt>
      <trkpt lat="43.72534" lon="-1.4211">
        <ele>16.4</ele>
        <time>2021-08-08T06:00:13Z</time>
      </trkpt>
      <trkpt lat="43.72531" lon="-1.42122">
        <ele>16.2</ele>
        <time>2021-08-08T06:00:14Z</time>
      </trkpt>
      <trkpt lat="43.72527" lon="-1.42133">
        <ele>16.2</ele>
        <time>2021-08-08T06:00:15Z</time>
      </trkpt>
      <trkpt lat="43.72521" lon="-1.42155">
        <ele>16</ele>
        <time>2021-08-08T06:00:17Z</time>
      </trkpt>
      <trkpt lat="43.72503" lon="-1.42221">
        <ele>15.4</ele>
        <time>2021-08-08T06:00:23Z</time>
      </trkpt>
      <trkpt lat="43.72498" lon="-1.42242">
        <ele>15.4</ele>
        <time>2021-08-08T06:00:25Z</time>
      </trkpt>
      <trkpt lat="43.72495" lon="-1.42253">
        <ele>15.2</ele>
        <time>2021-08-08T06:00:26Z</time>
      </trkpt>
      <trkpt lat="43.72493" lon="-1.42264">
        <ele>15.2</ele>
        <time>2021-08-08T06:00:27Z</time>
      </trkpt>
      <trkpt lat="43.72491" lon="-1.42274">
        <ele>15.2</ele>
        <time>2021-08-08T06:00:28Z</time>
      </trkpt>
      <trkpt lat="43.72486" lon="-1.42295">
        <ele>15.2</ele>
        <time>2021-08-08T06:00:30Z</time>
      </trkpt>
      <trkpt lat="43.72482" lon="-1.42305">
        <ele>15.2</ele>
        <time>2021-08-08T06:00:31Z</time>
      </trkpt>
      <trkpt lat="43.72479" lon="-1.42315">
        <ele>15.2</ele>
        <time>2021-08-08T06:00:32Z</time>
      </trkpt>
      <trkpt lat="43.72476" lon="-1.42325">
        <ele>15.2</ele>
        <time>2021-08-08T06:00:33Z</time>
      </trkpt>
      <trkpt lat="43.72463" lon="-1.42375">
        <ele>14.8</ele>
        <time>2021-08-08T06:00:38Z</time>
      </trkpt>
      <trkpt lat="43.72458" lon="-1.42395">
        <ele>14.6</ele>
        <time>2021-08-08T06:00:40Z</time>
      </trkpt>
      <trkpt lat="43.72455" lon="-1.42404">
        <ele>14.4</ele>
        <time>2021-08-08T06:00:41Z</time>
      </trkpt>
      <trkpt lat="43.72452" lon="-1.42413">
        <ele>14.4</ele>
        <time>2021-08-08T06:00:42Z</time>
      </trkpt>
      <trkpt lat="43.72449" lon="-1.42422">
        <ele>14.4</ele>
        <time>2021-08-08T06:00:43Z</time>
      </trkpt>
      <trkpt lat="43.72447" lon="-1.42431">
        <ele>14.4</ele>
        <time>2021-08-08T06:00:44Z</time>
      </trkpt>
      <trkpt lat="43.72445" lon="-1.4244">
        <ele>14.4</ele>
        <time>2021-08-08T06:00:45Z</time>
      </trkpt>
      <trkpt lat="43.72444" lon="-1.42449">
        <ele>14.4</ele>
        <time>2021-08-08T06:00:46Z</time>
      </trkpt>
      <trkpt lat="43.72443" lon="-1.42457">
        <ele>14.4</ele>
        <time>2021-08-08T06:00:47Z</time>
      </trkpt>
      <trkpt lat="43.72443" lon="-1.42468">
        <ele>14.4</ele>
        <time>2021-08-08T06:00:48Z</time>
      </trkpt>
      <trkpt lat="43.72443" lon="-1.42476">
        <ele>14.4</ele>
        <time>2021-08-08T06:00:49Z</time>
      </trkpt>
      <trkpt lat="43.72444" lon="-1.42484">
        <ele>14.6</ele>
        <time>2021-08-08T06:00:50Z</time>
      </trkpt>
      <trkpt lat="43.72446" lon="-1.4249">
        <ele>14.6</ele>
        <time>2021-08-08T06:00:51Z</time>
      </trkpt>
      <trkpt lat="43.72449" lon="-1.42497">
        <ele>14.6</ele>
        <time>2021-08-08T06:00:52Z</time>
      </trkpt>
      <trkpt lat="43.72452" lon="-1.42502">
        <ele>14.8</ele>
        <time>2021-08-08T06:00:53Z</time>
      </trkpt>
      <trkpt lat="43.72456" lon="-1.42507">
        <ele>15</ele>
        <time>2021-08-08T06:00:54Z</time>
      </trkpt>
      <trkpt lat="43.72459" lon="-1.42513">
        <ele>15</ele>
        <time>2021-08-08T06:00:55Z</time>
      </trkpt>
      <trkpt lat="43.72461" lon="-1.42518">
        <ele>15</ele>
        <time>2021-08-08T06:00:56Z</time>
      </trkpt>
      <trkpt lat="43.7246" lon="-1.42524">
        <ele>15</ele>
        <time>2021-08-08T06:00:57Z</time>
      </trkpt>
      <trkpt lat="43.72457" lon="-1.42529">
        <ele>15</ele>
        <time>2021-08-08T06:00:58Z</time>
      </trkpt>
      <trkpt lat="43.72449" lon="-1.42539">
        <ele>15.2</ele>
        <time>2021-08-08T06:01:00Z</time>
      </trkpt>
      <trkpt lat="43.72447" lon="-1.42543">
        <ele>15.2</ele>
        <time>2021-08-08T06:01:01Z</time>
      </trkpt>
      <trkpt lat="43.72445" lon="-1.42549">
        <ele>15.2</ele>
        <time>2021-08-08T06:01:02Z</time>
      </trkpt>
      <trkpt lat="43.72444" lon="-1.42555">
        <ele>15.4</ele>
        <time>2021-08-08T06:01:03Z</time>
      </trkpt>
      <trkpt lat="43.72441" lon="-1.42561">
        <ele>15.4</ele>
        <time>2021-08-08T06:01:04Z</time>
      </trkpt>
      <trkpt lat="43.7244" lon="-1.42566">
        <ele>15.4</ele>
        <time>2021-08-08T06:01:05Z</time>
      </trkpt>
      <trkpt lat="43.72438" lon="-1.42572">
        <ele>15.4</ele>
        <time>2021-08-08T06:01:06Z</time>
      </trkpt>
      <trkpt lat="43.72435" lon="-1.42586">
        <ele>15.4</ele>
        <time>2021-08-08T06:01:08Z</time>
      </trkpt>
      <trkpt lat="43.72434" lon="-1.42594">
        <ele>15.6</ele>
        <time>2021-08-08T06:01:09Z</time>
      </trkpt>
      <trkpt lat="43.72433" lon="-1.4262">
        <ele>15.8</ele>
        <time>2021-08-08T06:01:12Z</time>
      </trkpt>
      <trkpt lat="43.7243" lon="-1.42637">
        <ele>16</ele>
        <time>2021-08-08T06:01:14Z</time>
      </trkpt>
      <trkpt lat="43.72429" lon="-1.42646">
        <ele>16.2</ele>
        <time>2021-08-08T06:01:15Z</time>
      </trkpt>
      <trkpt lat="43.72427" lon="-1.42663">
        <ele>16.8</ele>
        <time>2021-08-08T06:01:17Z</time>
      </trkpt>
      <trkpt lat="43.7242" lon="-1.42698">
        <ele>17</ele>
        <time>2021-08-08T06:01:21Z</time>
      </trkpt>
      <trkpt lat="43.72408" lon="-1.42742">
        <ele>17.2</ele>
        <time>2021-08-08T06:01:26Z</time>
      </trkpt>
      <trkpt lat="43.72406" lon="-1.4275">
        <ele>17.2</ele>
        <time>2021-08-08T06:01:27Z</time>
      </trkpt>
      <trkpt lat="43.72386" lon="-1.42818">
        <ele>17.4</ele>
        <time>2021-08-08T06:01:35Z</time>
      </trkpt>
      <trkpt lat="43.72374" lon="-1.42858">
        <ele>17.6</ele>
        <time>2021-08-08T06:01:40Z</time>
      </trkpt>
      <trkpt lat="43.72372" lon="-1.42866">
        <ele>17.6</ele>
        <time>2021-08-08T06:01:41Z</time>
      </trkpt>
      <trkpt lat="43.72362" lon="-1.42901">
        <ele>17.6</ele>
        <time>2021-08-08T06:01:45Z</time>
      </trkpt>
      <trkpt lat="43.7235" lon="-1.4295">
        <ele>17.2</ele>
        <time>2021-08-08T06:01:50Z</time>
      </trkpt>
      <trkpt lat="43.72344" lon="-1.42969">
        <ele>16.6</ele>
        <time>2021-08-08T06:01:52Z</time>
      </trkpt>
      <trkpt lat="43.72332" lon="-1.43007">
        <ele>15.6</ele>
        <time>2021-08-08T06:01:56Z</time>
      </trkpt>
      <trkpt lat="43.7232" lon="-1.43043">
        <ele>15.2</ele>
        <time>2021-08-08T06:02:00Z</time>
      </trkpt>
      <trkpt lat="43.72316" lon="-1.4305">
        <ele>15.2</ele>
        <time>2021-08-08T06:02:01Z</time>
      </trkpt>
      <trkpt lat="43.72313" lon="-1.43058">
        <ele>15</ele>
        <time>2021-08-08T06:02:02Z</time>
      </trkpt>
      <trkpt lat="43.7231" lon="-1.43064">
        <ele>15</ele>
        <time>2021-08-08T06:02:03Z</time>
      </trkpt>
      <trkpt lat="43.72307" lon="-1.43069">
        <ele>15</ele>
        <time>2021-08-08T06:02:04Z</time>
      </trkpt>
      <trkpt lat="43.72305" lon="-1.43074">
        <ele>15</ele>
        <time>2021-08-08T06:02:05Z</time>
      </trkpt>
      <trkpt lat="43.72303" lon="-1.43078">
        <ele>15.2</ele>
        <time>2021-08-08T06:02:06Z</time>
      </trkpt>
      <trkpt lat="43.72301" lon="-1.43082">
        <ele>15.2</ele>
        <time>2021-08-08T06:02:07Z</time>
      </trkpt>
      <trkpt lat="43.723" lon="-1.43086">
        <ele>15.6</ele>
        <time>2021-08-08T06:02:08Z</time>
      </trkpt>
      <trkpt lat="43.72299" lon="-1.43089">
        <ele>15.6</ele>
        <time>2021-08-08T06:02:09Z</time>
      </trkpt>
      <trkpt lat="43.72298" lon="-1.43092">
        <ele>16.2</ele>
        <time>2021-08-08T06:02:10Z</time>
      </trkpt>
      <trkpt lat="43.72297" lon="-1.43095">
        <ele>16.4</ele>
        <time>2021-08-08T06:02:11Z</time>
      </trkpt>
      <trkpt lat="43.72296" lon="-1.43098">
        <ele>16.8</ele>
        <time>2021-08-08T06:02:12Z</time>
      </trkpt>
      <trkpt lat="43.72296" lon="-1.43101">
        <ele>17.6</ele>
        <time>2021-08-08T06:02:13Z</time>
      </trkpt>
      <trkpt lat="43.72296" lon="-1.43108">
        <ele>18.6</ele>
        <time>2021-08-08T06:02:15Z</time>
      </trkpt>
      <trkpt lat="43.72296" lon="-1.43112">
        <ele>19</ele>
        <time>2021-08-08T06:02:16Z</time>
      </trkpt>
      <trkpt lat="43.72296" lon="-1.43119">
        <ele>20</ele>
        <time>2021-08-08T06:02:18Z</time>
      </trkpt>
      <trkpt lat="43.72296" lon="-1.43123">
        <ele>20.4</ele>
        <time>2021-08-08T06:02:19Z</time>
      </trkpt>
      <trkpt lat="43.72297" lon="-1.43127">
        <ele>20.8</ele>
        <time>2021-08-08T06:02:20Z</time>
      </trkpt>
      <trkpt lat="43.72299" lon="-1.43131">
        <ele>21.2</ele>
        <time>2021-08-08T06:02:21Z</time>
      </trkpt>
      <trkpt lat="43.723" lon="-1.43135">
        <ele>21.2</ele>
        <time>2021-08-08T06:02:22Z</time>
      </trkpt>
      <trkpt lat="43.72302" lon="-1.4314">
        <ele>21.8</ele>
        <time>2021-08-08T06:02:23Z</time>
      </trkpt>
      <trkpt lat="43.72303" lon="-1.43145">
        <ele>22</ele>
        <time>2021-08-08T06:02:24Z</time>
      </trkpt>
      <trkpt lat="43.72304" lon="-1.43149">
        <ele>22.6</ele>
        <time>2021-08-08T06:02:25Z</time>
      </trkpt>
      <trkpt lat="43.72305" lon="-1.43153">
        <ele>22.8</ele>
        <time>2021-08-08T06:02:26Z</time>
      </trkpt>
      <trkpt lat="43.72306" lon="-1.43156">
        <ele>23</ele>
        <time>2021-08-08T06:02:27Z</time>
      </trkpt>
      <trkpt lat="43.72308" lon="-1.43159">
        <ele>23.6</ele>
        <time>2021-08-08T06:02:28Z</time>
      </trkpt>
      <trkpt lat="43.72309" lon="-1.4316">
        <ele>23.8</ele>
        <time>2021-08-08T06:02:29Z</time>
      </trkpt>
      <trkpt lat="43.7231" lon="-1.43162">
        <ele>24.2</ele>
        <time>2021-08-08T06:02:30Z</time>
      </trkpt>
      <trkpt lat="43.7231" lon="-1.43163">
        <ele>24.2</ele>
        <time>2021-08-08T06:02:31Z</time>
      </trkpt>
      <trkpt lat="43.72308" lon="-1.43164">
        <ele>24.2</ele>
        <time>2021-08-08T06:02:32Z</time>
      </trkpt>
      <trkpt lat="43.72307" lon="-1.43164">
        <ele>24.4</ele>
        <time>2021-08-08T06:02:33Z</time>
      </trkpt>
      <trkpt lat="43.72306" lon="-1.43163">
        <ele>24.4</ele>
        <time>2021-08-08T06:02:34Z</time>
      </trkpt>
      <trkpt lat="43.72304" lon="-1.43162">
        <ele>24.4</ele>
        <time>2021-08-08T06:02:35Z</time>
      </trkpt>
      <trkpt lat="43.72304" lon="-1.4316">
        <ele>24.2</ele>
        <time>2021-08-08T06:02:36Z</time>
      </trkpt>
      <trkpt lat="43.72303" lon="-1.43158">
        <ele>24.2</ele>
        <time>2021-08-08T06:02:37Z</time>
      </trkpt>
      <trkpt lat="43.72303" lon="-1.43156">
        <ele>24</ele>
        <time>2021-08-08T06:02:38Z</time>
      </trkpt>
      <trkpt lat="43.72302" lon="-1.43154">
        <ele>24</ele>
        <time>2021-08-08T06:02:39Z</time>
      </trkpt>
      <trkpt lat="43.72301" lon="-1.43152">
        <ele>23.8</ele>
        <time>2021-08-08T06:02:40Z</time>
      </trkpt>
      <trkpt lat="43.72301" lon="-1.4315">
        <ele>23.8</ele>
        <time>2021-08-08T06:02:41Z</time>
      </trkpt>
      <trkpt lat="43.723" lon="-1.43147">
        <ele>23.6</ele>
        <time>2021-08-08T06:02:42Z</time>
      </trkpt>
      <trkpt lat="43.723" lon="-1.43143">
        <ele>23.6</ele>
        <time>2021-08-08T06:02:43Z</time>
      </trkpt>
      <trkpt lat="43.72299" lon="-1.43139">
        <ele>23.6</ele>
        <time>2021-08-08T06:02:44Z</time>
      </trkpt>
      <trkpt lat="43.72298" lon="-1.43135">
        <ele>23.6</ele>
        <time>2021-08-08T06:02:45Z</time>
      </trkpt>
      <trkpt lat="43.72297" lon="-1.4313">
        <ele>23.6</ele>
        <time>2021-08-08T06:02:46Z</time>
      </trkpt>
      <trkpt lat="43.72296" lon="-1.43124">
        <ele>23.4</ele>
        <time>2021-08-08T06:02:47Z</time>
      </trkpt>
      <trkpt lat="43.72295" lon="-1.43117">
        <ele>23.4</ele>
        <time>2021-08-08T06:02:48Z</time>
      </trkpt>
      <trkpt lat="43.72295" lon="-1.4311">
        <ele>23.4</ele>
        <time>2021-08-08T06:02:49Z</time>
      </trkpt>
      <trkpt lat="43.72295" lon="-1.43102">
        <ele>23.4</ele>
        <time>2021-08-08T06:02:50Z</time>
      </trkpt>
      <trkpt lat="43.72298" lon="-1.43087">
        <ele>23</ele>
        <time>2021-08-08T06:02:52Z</time>
      </trkpt>
      <trkpt lat="43.72301" lon="-1.43079">
        <ele>22.6</ele>
        <time>2021-08-08T06:02:53Z</time>
      </trkpt>
      <trkpt lat="43.72305" lon="-1.43071">
        <ele>22.4</ele>
        <time>2021-08-08T06:02:54Z</time>
      </trkpt>
      <trkpt lat="43.72309" lon="-1.43063">
        <ele>21.6</ele>
        <time>2021-08-08T06:02:55Z</time>
      </trkpt>
      <trkpt lat="43.72314" lon="-1.43053">
        <ele>21.4</ele>
        <time>2021-08-08T06:02:56Z</time>
      </trkpt>
      <trkpt lat="43.72319" lon="-1.43043">
        <ele>20.2</ele>
        <time>2021-08-08T06:02:57Z</time>
      </trkpt>
      <trkpt lat="43.72328" lon="-1.43021">
        <ele>18.6</ele>
        <time>2021-08-08T06:02:59Z</time>
      </trkpt>
      <trkpt lat="43.72332" lon="-1.43011">
        <ele>17.8</ele>
        <time>2021-08-08T06:03:00Z</time>
      </trkpt>
      <trkpt lat="43.72335" lon="-1.43001">
        <ele>16.6</ele>
        <time>2021-08-08T06:03:01Z</time>
      </trkpt>
      <trkpt lat="43.72339" lon="-1.4299">
        <ele>15.4</ele>
        <time>2021-08-08T06:03:02Z</time>
      </trkpt>
      <trkpt lat="43.72341" lon="-1.4298">
        <ele>15</ele>
        <time>2021-08-08T06:03:03Z</time>
      </trkpt>
      <trkpt lat="43.72346" lon="-1.4296">
        <ele>14.4</ele>
        <time>2021-08-08T06:03:05Z</time>
      </trkpt>
      <trkpt lat="43.72348" lon="-1.4295">
        <ele>14.4</ele>
        <time>2021-08-08T06:03:06Z</time>
      </trkpt>
      <trkpt lat="43.72356" lon="-1.42922">
        <ele>14.4</ele>
        <time>2021-08-08T06:03:09Z</time>
      </trkpt>
      <trkpt lat="43.72358" lon="-1.42913">
        <ele>14.4</ele>
        <time>2021-08-08T06:03:10Z</time>
      </trkpt>
      <trkpt lat="43.72361" lon="-1.42904">
        <ele>14.4</ele>
        <time>2021-08-08T06:03:11Z</time>
      </trkpt>
      <trkpt lat="43.72363" lon="-1.42895">
        <ele>14.4</ele>
        <time>2021-08-08T06:03:12Z</time>
      </trkpt>
      <trkpt lat="43.72367" lon="-1.42878">
        <ele>14.6</ele>
        <time>2021-08-08T06:03:14Z</time>
      </trkpt>
      <trkpt lat="43.72369" lon="-1.4287">
        <ele>14.8</ele>
        <time>2021-08-08T06:03:15Z</time>
      </trkpt>
      <trkpt lat="43.72371" lon="-1.42862">
        <ele>15</ele>
        <time>2021-08-08T06:03:16Z</time>
      </trkpt>
      <trkpt lat="43.72374" lon="-1.42854">
        <ele>15</ele>
        <time>2021-08-08T06:03:17Z</time>
      </trkpt>
      <trkpt lat="43.72388" lon="-1.42811">
        <ele>16.4</ele>
        <time>2021-08-08T06:03:22Z</time>
      </trkpt>
      <trkpt lat="43.72392" lon="-1.42793">
        <ele>16.6</ele>
        <time>2021-08-08T06:03:24Z</time>
      </trkpt>
      <trkpt lat="43.72412" lon="-1.42725">
        <ele>16.6</ele>
        <time>2021-08-08T06:03:31Z</time>
      </trkpt>
      <trkpt lat="43.72423" lon="-1.42687">
        <ele>16.4</ele>
        <time>2021-08-08T06:03:35Z</time>
      </trkpt>
      <trkpt lat="43.72427" lon="-1.42666">
        <ele>16.4</ele>
        <time>2021-08-08T06:03:37Z</time>
      </trkpt>
      <trkpt lat="43.72433" lon="-1.42614">
        <ele>16.2</ele>
        <time>2021-08-08T06:03:42Z</time>
      </trkpt>
      <trkpt lat="43.72434" lon="-1.42595">
        <ele>16.2</ele>
        <time>2021-08-08T06:03:44Z</time>
      </trkpt>
      <trkpt lat="43.72434" lon="-1.42585">
        <ele>16.2</ele>
        <time>2021-08-08T06:03:45Z</time>
      </trkpt>
      <trkpt lat="43.72436" lon="-1.42578">
        <ele>16.2</ele>
        <time>2021-08-08T06:03:46Z</time>
      </trkpt>
      <trkpt lat="43.7244" lon="-1.42572">
        <ele>16</ele>
        <time>2021-08-08T06:03:47Z</time>
      </trkpt>
      <trkpt lat="43.72443" lon="-1.42566">
        <ele>16</ele>
        <time>2021-08-08T06:03:48Z</time>
      </trkpt>
      <trkpt lat="43.72445" lon="-1.42561">
        <ele>16</ele>
        <time>2021-08-08T06:03:49Z</time>
      </trkpt>
      <trkpt lat="43.72446" lon="-1.42557">
        <ele>16</ele>
        <time>2021-08-08T06:03:50Z</time>
      </trkpt>
      <trkpt lat="43.72446" lon="-1.42551">
        <ele>16</ele>
        <time>2021-08-08T06:03:51Z</time>
      </trkpt>
      <trkpt lat="43.72447" lon="-1.42547">
        <ele>15.6</ele>
        <time>2021-08-08T06:03:52Z</time>
      </trkpt>
      <trkpt lat="43.72449" lon="-1.42543">
        <ele>15.6</ele>
        <time>2021-08-08T06:03:53Z</time>
      </trkpt>
      <trkpt lat="43.72451" lon="-1.4254">
        <ele>15.4</ele>
        <time>2021-08-08T06:03:54Z</time>
      </trkpt>
      <trkpt lat="43.72454" lon="-1.42536">
        <ele>15.2</ele>
        <time>2021-08-08T06:03:55Z</time>
      </trkpt>
      <trkpt lat="43.72457" lon="-1.42531">
        <ele>15.2</ele>
        <time>2021-08-08T06:03:56Z</time>
      </trkpt>
      <trkpt lat="43.72461" lon="-1.42514">
        <ele>15</ele>
        <time>2021-08-08T06:03:59Z</time>
      </trkpt>
      <trkpt lat="43.72449" lon="-1.42494">
        <ele>14.8</ele>
        <time>2021-08-08T06:04:03Z</time>
      </trkpt>
      <trkpt lat="43.72446" lon="-1.42488">
        <ele>14.8</ele>
        <time>2021-08-08T06:04:04Z</time>
      </trkpt>
      <trkpt lat="43.72445" lon="-1.42481">
        <ele>14.6</ele>
        <time>2021-08-08T06:04:05Z</time>
      </trkpt>
      <trkpt lat="43.72444" lon="-1.42472">
        <ele>14.6</ele>
        <time>2021-08-08T06:04:06Z</time>
      </trkpt>
      <trkpt lat="43.72444" lon="-1.42463">
        <ele>14.6</ele>
        <time>2021-08-08T06:04:07Z</time>
      </trkpt>
      <trkpt lat="43.72445" lon="-1.42453">
        <ele>14.6</ele>
        <time>2021-08-08T06:04:08Z</time>
      </trkpt>
      <trkpt lat="43.72446" lon="-1.42445">
        <ele>14.4</ele>
        <time>2021-08-08T06:04:09Z</time>
      </trkpt>
      <trkpt lat="43.72447" lon="-1.42436">
        <ele>14.4</ele>
        <time>2021-08-08T06:04:10Z</time>
      </trkpt>
      <trkpt lat="43.72449" lon="-1.42427">
        <ele>14.4</ele>
        <time>2021-08-08T06:04:11Z</time>
      </trkpt>
      <trkpt lat="43.72463" lon="-1.42384">
        <ele>14</ele>
        <time>2021-08-08T06:04:16Z</time>
      </trkpt>
      <trkpt lat="43.72467" lon="-1.42367">
        <ele>13.8</ele>
        <time>2021-08-08T06:04:18Z</time>
      </trkpt>
      <trkpt lat="43.72469" lon="-1.42358">
        <ele>13.8</ele>
        <time>2021-08-08T06:04:19Z</time>
      </trkpt>
      <trkpt lat="43.7247" lon="-1.4235">
        <ele>13.8</ele>
        <time>2021-08-08T06:04:20Z</time>
      </trkpt>
      <trkpt lat="43.72472" lon="-1.42341">
        <ele>13.8</ele>
        <time>2021-08-08T06:04:21Z</time>
      </trkpt>
      <trkpt lat="43.72475" lon="-1.42333">
        <ele>13.8</ele>
        <time>2021-08-08T06:04:22Z</time>
      </trkpt>
      <trkpt lat="43.72477" lon="-1.42326">
        <ele>13.8</ele>
        <time>2021-08-08T06:04:23Z</time>
      </trkpt>
      <trkpt lat="43.7248" lon="-1.42319">
        <ele>14</ele>
        <time>2021-08-08T06:04:24Z</time>
      </trkpt>
      <trkpt lat="43.72482" lon="-1.42312">
        <ele>14</ele>
        <time>2021-08-08T06:04:25Z</time>
      </trkpt>
      <trkpt lat="43.72484" lon="-1.42305">
        <ele>14</ele>
        <time>2021-08-08T06:04:26Z</time>
      </trkpt>
      <trkpt lat="43.72486" lon="-1.42298">
        <ele>14.2</ele>
        <time>2021-08-08T06:04:27Z</time>
      </trkpt>
      <trkpt lat="43.72496" lon="-1.42259">
        <ele>14.2</ele>
        <time>2021-08-08T06:04:32Z</time>
      </trkpt>
      <trkpt lat="43.7251" lon="-1.422">
        <ele>14.4</ele>
        <time>2021-08-08T06:04:39Z</time>
      </trkpt>
      <trkpt lat="43.72531" lon="-1.42122">
        <ele>15</ele>
        <time>2021-08-08T06:04:48Z</time>
      </trkpt>
      <trkpt lat="43.72552" lon="-1.42045">
        <ele>15.2</ele>
        <time>2021-08-08T06:04:57Z</time>
      </trkpt>
      <trkpt lat="43.72555" lon="-1.42036">
        <ele>15.2</ele>
        <time>2021-08-08T06:04:58Z</time>
      </trkpt>
      <trkpt lat="43.72569" lon="-1.41986">
        <ele>15.4</ele>
        <time>2021-08-08T06:05:04Z</time>
      </trkpt>
      <trkpt lat="43.72571" lon="-1.41978">
        <ele>15.4</ele>
        <time>2021-08-08T06:05:05Z</time>
      </trkpt>
      <trkpt lat="43.72573" lon="-1.4197">
        <ele>15.6</ele>
        <time>2021-08-08T06:05:06Z</time>
      </trkpt>
      <trkpt lat="43.72575" lon="-1.41962">
        <ele>15.6</ele>
        <time>2021-08-08T06:05:07Z</time>
      </trkpt>
      <trkpt lat="43.72577" lon="-1.41954">
        <ele>15.8</ele>
        <time>2021-08-08T06:05:08Z</time>
      </trkpt>
      <trkpt lat="43.72579" lon="-1.41947">
        <ele>15.8</ele>
        <time>2021-08-08T06:05:09Z</time>
      </trkpt>
      <trkpt lat="43.72581" lon="-1.41939">
        <ele>16</ele>
        <time>2021-08-08T06:05:10Z</time>
      </trkpt>
      <trkpt lat="43.72583" lon="-1.41932">
        <ele>16.2</ele>
        <time>2021-08-08T06:05:11Z</time>
      </trkpt>
      <trkpt lat="43.72585" lon="-1.41925">
        <ele>16.2</ele>
        <time>2021-08-08T06:05:12Z</time>
      </trkpt>
      <trkpt lat="43.72587" lon="-1.41918">
        <ele>16.4</ele>
        <time>2021-08-08T06:05:13Z</time>
      </trkpt>
      <trkpt lat="43.72589" lon="-1.41912">
        <ele>16.6</ele>
        <time>2021-08-08T06:05:14Z</time>
      </trkpt>
      <trkpt lat="43.72592" lon="-1.41905">
        <ele>17.2</ele>
        <time>2021-08-08T06:05:15Z</time>
      </trkpt>
      <trkpt lat="43.72593" lon="-1.41899">
        <ele>17.2</ele>
        <time>2021-08-08T06:05:16Z</time>
      </trkpt>
      <trkpt lat="43.72595" lon="-1.41892">
        <ele>17.8</ele>
        <time>2021-08-08T06:05:17Z</time>
      </trkpt>
      <trkpt lat="43.72597" lon="-1.41885">
        <ele>18.2</ele>
        <time>2021-08-08T06:05:18Z</time>
      </trkpt>
      <trkpt lat="43.72598" lon="-1.41879">
        <ele>18.2</ele>
        <time>2021-08-08T06:05:19Z</time>
      </trkpt>
      <trkpt lat="43.726" lon="-1.41873">
        <ele>18.4</ele>
        <time>2021-08-08T06:05:20Z</time>
      </trkpt>
      <trkpt lat="43.72601" lon="-1.41867">
        <ele>18.6</ele>
        <time>2021-08-08T06:05:21Z</time>
      </trkpt>
      <trkpt lat="43.72603" lon="-1.41861">
        <ele>18.6</ele>
        <time>2021-08-08T06:05:22Z</time>
      </trkpt>
      <trkpt lat="43.72604" lon="-1.41855">
        <ele>19</ele>
        <time>2021-08-08T06:05:23Z</time>
      </trkpt>
      <trkpt lat="43.72605" lon="-1.41851">
        <ele>19.4</ele>
        <time>2021-08-08T06:05:24Z</time>
      </trkpt>
      <trkpt lat="43.72607" lon="-1.41845">
        <ele>19.6</ele>
        <time>2021-08-08T06:05:25Z</time>
      </trkpt>
      <trkpt lat="43.72609" lon="-1.41841">
        <ele>20</ele>
        <time>2021-08-08T06:05:26Z</time>
      </trkpt>
      <trkpt lat="43.7261" lon="-1.41835">
        <ele>20.2</ele>
        <time>2021-08-08T06:05:27Z</time>
      </trkpt>
      <trkpt lat="43.72612" lon="-1.41829">
        <ele>20.4</ele>
        <time>2021-08-08T06:05:28Z</time>
      </trkpt>
      <trkpt lat="43.72613" lon="-1.41824">
        <ele>20.6</ele>
        <time>2021-08-08T06:05:29Z</time>
      </trkpt>
      <trkpt lat="43.72615" lon="-1.41819">
        <ele>21</ele>
        <time>2021-08-08T06:05:30Z</time>
      </trkpt>
      <trkpt lat="43.72616" lon="-1.41813">
        <ele>21</ele>
        <time>2021-08-08T06:05:31Z</time>
      </trkpt>
      <trkpt lat="43.72617" lon="-1.41809">
        <ele>21.4</ele>
        <time>2021-08-08T06:05:32Z</time>
      </trkpt>
      <trkpt lat="43.72619" lon="-1.41804">
        <ele>21.6</ele>
        <time>2021-08-08T06:05:33Z</time>
      </trkpt>
      <trkpt lat="43.7262" lon="-1.41797">
        <ele>22</ele>
        <time>2021-08-08T06:05:34Z</time>
      </trkpt>
      <trkpt lat="43.72621" lon="-1.41792">
        <ele>22.4</ele>
        <time>2021-08-08T06:05:35Z</time>
      </trkpt>
      <trkpt lat="43.72623" lon="-1.41788">
        <ele>22.6</ele>
        <time>2021-08-08T06:05:36Z</time>
      </trkpt>
      <trkpt lat="43.72624" lon="-1.41783">
        <ele>22.8</ele>
        <time>2021-08-08T06:05:37Z</time>
      </trkpt>
      <trkpt lat="43.72626" lon="-1.41778">
        <ele>23</ele>
        <time>2021-08-08T06:05:38Z</time>
      </trkpt>
      <trkpt lat="43.72627" lon="-1.41774">
        <ele>23.4</ele>
        <time>2021-08-08T06:05:39Z</time>
      </trkpt>
      <trkpt lat="43.72629" lon="-1.41768">
        <ele>23.4</ele>
        <time>2021-08-08T06:05:40Z</time>
      </trkpt>
      <trkpt lat="43.72631" lon="-1.41764">
        <ele>23.8</ele>
        <time>2021-08-08T06:05:41Z</time>
      </trkpt>
      <trkpt lat="43.72632" lon="-1.41759">
        <ele>24</ele>
        <time>2021-08-08T06:05:42Z</time>
      </trkpt>
      <trkpt lat="43.72633" lon="-1.41753">
        <ele>24.4</ele>
        <time>2021-08-08T06:05:43Z</time>
      </trkpt>
      <trkpt lat="43.72635" lon="-1.41747">
        <ele>24.6</ele>
        <time>2021-08-08T06:05:44Z</time>
      </trkpt>
      <trkpt lat="43.72636" lon="-1.41742">
        <ele>25</ele>
        <time>2021-08-08T06:05:45Z</time>
      </trkpt>
      <trkpt lat="43.72637" lon="-1.41737">
        <ele>25</ele>
        <time>2021-08-08T06:05:46Z</time>
      </trkpt>
      <trkpt lat="43.72639" lon="-1.41731">
        <ele>25.2</ele>
        <time>2021-08-08T06:05:47Z</time>
      </trkpt>
      <trkpt lat="43.7264" lon="-1.41726">
        <ele>25.4</ele>
        <time>2021-08-08T06:05:48Z</time>
      </trkpt>
      <trkpt lat="43.72642" lon="-1.41721">
        <ele>25.8</ele>
        <time>2021-08-08T06:05:49Z</time>
      </trkpt>
      <trkpt lat="43.72643" lon="-1.41716">
        <ele>26</ele>
        <time>2021-08-08T06:05:50Z</time>
      </trkpt>
      <trkpt lat="43.72644" lon="-1.41711">
        <ele>26.4</ele>
        <time>2021-08-08T06:05:51Z</time>
      </trkpt>
      <trkpt lat="43.72646" lon="-1.41706">
        <ele>26.6</ele>
        <time>2021-08-08T06:05:52Z</time>
      </trkpt>
      <trkpt lat="43.72647" lon="-1.41701">
        <ele>26.6</ele>
        <time>2021-08-08T06:05:53Z</time>
      </trkpt>
      <trkpt lat="43.72649" lon="-1.41697">
        <ele>27</ele>
        <time>2021-08-08T06:05:54Z</time>
      </trkpt>
      <trkpt lat="43.7265" lon="-1.41692">
        <ele>27</ele>
        <time>2021-08-08T06:05:55Z</time>
      </trkpt>
      <trkpt lat="43.72651" lon="-1.41687">
        <ele>27.2</ele>
        <time>2021-08-08T06:05:56Z</time>
      </trkpt>
      <trkpt lat="43.72652" lon="-1.41682">
        <ele>27.2</ele>
        <time>2021-08-08T06:05:57Z</time>
      </trkpt>
      <trkpt lat="43.72654" lon="-1.41677">
        <ele>27.4</ele>
        <time>2021-08-08T06:05:58Z</time>
      </trkpt>
      <trkpt lat="43.72655" lon="-1.41672">
        <ele>27.4</ele>
        <time>2021-08-08T06:05:59Z</time>
      </trkpt>
      <trkpt lat="43.72656" lon="-1.41668">
        <ele>27.6</ele>
        <time>2021-08-08T06:06:00Z</time>
      </trkpt>
      <trkpt lat="43.72657" lon="-1.41663">
        <ele>27.8</ele>
        <time>2021-08-08T06:06:01Z</time>
      </trkpt>
      <trkpt lat="43.72658" lon="-1.41657">
        <ele>28</ele>
        <time>2021-08-08T06:06:02Z</time>
      </trkpt>
      <trkpt lat="43.72659" lon="-1.41653">
        <ele>28.2</ele>
        <time>2021-08-08T06:06:03Z</time>
      </trkpt>
      <trkpt lat="43.7266" lon="-1.41649">
        <ele>28.6</ele>
        <time>2021-08-08T06:06:04Z</time>
      </trkpt>
      <trkpt lat="43.72662" lon="-1.41643">
        <ele>28.6</ele>
        <time>2021-08-08T06:06:05Z</time>
      </trkpt>
      <trkpt lat="43.72663" lon="-1.41639">
        <ele>29</ele>
        <time>2021-08-08T06:06:06Z</time>
      </trkpt>
      <trkpt lat="43.72665" lon="-1.41633">
        <ele>29.2</ele>
        <time>2021-08-08T06:06:07Z</time>
      </trkpt>
      <trkpt lat="43.72667" lon="-1.41629">
        <ele>29.4</ele>
        <time>2021-08-08T06:06:08Z</time>
      </trkpt>
      <trkpt lat="43.72668" lon="-1.41624">
        <ele>29.6</ele>
        <time>2021-08-08T06:06:09Z</time>
      </trkpt>
      <trkpt lat="43.7267" lon="-1.41617">
        <ele>29.6</ele>
        <time>2021-08-08T06:06:10Z</time>
      </trkpt>
      <trkpt lat="43.72672" lon="-1.41611">
        <ele>29.8</ele>
        <time>2021-08-08T06:06:11Z</time>
      </trkpt>
      <trkpt lat="43.72673" lon="-1.41607">
        <ele>29.8</ele>
        <time>2021-08-08T06:06:12Z</time>
      </trkpt>
      <trkpt lat="43.72674" lon="-1.41601">
        <ele>30</ele>
        <time>2021-08-08T06:06:13Z</time>
      </trkpt>
      <trkpt lat="43.72677" lon="-1.41594">
        <ele>30.2</ele>
        <time>2021-08-08T06:06:14Z</time>
      </trkpt>
      <trkpt lat="43.72678" lon="-1.41589">
        <ele>30.4</ele>
        <time>2021-08-08T06:06:15Z</time>
      </trkpt>
      <trkpt lat="43.7268" lon="-1.41582">
        <ele>30.4</ele>
        <time>2021-08-08T06:06:16Z</time>
      </trkpt>
      <trkpt lat="43.72681" lon="-1.41577">
        <ele>30.6</ele>
        <time>2021-08-08T06:06:17Z</time>
      </trkpt>
      <trkpt lat="43.72683" lon="-1.4157">
        <ele>30.6</ele>
        <time>2021-08-08T06:06:18Z</time>
      </trkpt>
      <trkpt lat="43.72685" lon="-1.41562">
        <ele>30.8</ele>
        <time>2021-08-08T06:06:19Z</time>
      </trkpt>
      <trkpt lat="43.72687" lon="-1.41556">
        <ele>30.8</ele>
        <time>2021-08-08T06:06:20Z</time>
      </trkpt>
      <trkpt lat="43.72688" lon="-1.41551">
        <ele>30.8</ele>
        <time>2021-08-08T06:06:21Z</time>
      </trkpt>
      <trkpt lat="43.7269" lon="-1.41543">
        <ele>30.8</ele>
        <time>2021-08-08T06:06:22Z</time>
      </trkpt>
      <trkpt lat="43.72693" lon="-1.41535">
        <ele>30.8</ele>
        <time>2021-08-08T06:06:23Z</time>
      </trkpt>
      <trkpt lat="43.72695" lon="-1.41529">
        <ele>30.8</ele>
        <time>2021-08-08T06:06:24Z</time>
      </trkpt>
      <trkpt lat="43.72698" lon="-1.41519">
        <ele>30.8</ele>
        <time>2021-08-08T06:06:25Z</time>
      </trkpt>
      <trkpt lat="43.727" lon="-1.41512">
        <ele>30.8</ele>
        <time>2021-08-08T06:06:26Z</time>
      </trkpt>
      <trkpt lat="43.72702" lon="-1.41504">
        <ele>30.8</ele>
        <time>2021-08-08T06:06:27Z</time>
      </trkpt>
      <trkpt lat="43.72705" lon="-1.41493">
        <ele>30.8</ele>
        <time>2021-08-08T06:06:28Z</time>
      </trkpt>
      <trkpt lat="43.72708" lon="-1.41484">
        <ele>30.8</ele>
        <time>2021-08-08T06:06:29Z</time>
      </trkpt>
      <trkpt lat="43.7271" lon="-1.41477">
        <ele>30.8</ele>
        <time>2021-08-08T06:06:30Z</time>
      </trkpt>
      <trkpt lat="43.72713" lon="-1.41467">
        <ele>30.8</ele>
        <time>2021-08-08T06:06:31Z</time>
      </trkpt>
      <trkpt lat="43.72716" lon="-1.41456">
        <ele>30.6</ele>
        <time>2021-08-08T06:06:32Z</time>
      </trkpt>
      <trkpt lat="43.72718" lon="-1.41448">
        <ele>30.6</ele>
        <time>2021-08-08T06:06:33Z</time>
      </trkpt>
      <trkpt lat="43.72726" lon="-1.41418">
        <ele>29.8</ele>
        <time>2021-08-08T06:06:36Z</time>
      </trkpt>
      <trkpt lat="43.7273" lon="-1.41406">
        <ele>29.6</ele>
        <time>2021-08-08T06:06:37Z</time>
      </trkpt>
      <trkpt lat="43.72737" lon="-1.41365">
        <ele>28.8</ele>
        <time>2021-08-08T06:06:41Z</time>
      </trkpt>
      <trkpt lat="43.72738" lon="-1.41356">
        <ele>28.4</ele>
        <time>2021-08-08T06:06:42Z</time>
      </trkpt>
      <trkpt lat="43.72737" lon="-1.41344">
        <ele>28.2</ele>
        <time>2021-08-08T06:06:43Z</time>
      </trkpt>
      <trkpt lat="43.72734" lon="-1.41312">
        <ele>28</ele>
        <time>2021-08-08T06:06:46Z</time>
      </trkpt>
      <trkpt lat="43.72729" lon="-1.41291">
        <ele>27.8</ele>
        <time>2021-08-08T06:06:48Z</time>
      </trkpt>
      <trkpt lat="43.72721" lon="-1.4127">
        <ele>27.6</ele>
        <time>2021-08-08T06:06:50Z</time>
      </trkpt>
      <trkpt lat="43.72718" lon="-1.41262">
        <ele>27</ele>
        <time>2021-08-08T06:06:51Z</time>
      </trkpt>
      <trkpt lat="43.72707" lon="-1.41233">
        <ele>26.2</ele>
        <time>2021-08-08T06:06:54Z</time>
      </trkpt>
      <trkpt lat="43.72704" lon="-1.41222">
        <ele>25.8</ele>
        <time>2021-08-08T06:06:55Z</time>
      </trkpt>
      <trkpt lat="43.72702" lon="-1.41215">
        <ele>25.4</ele>
        <time>2021-08-08T06:06:56Z</time>
      </trkpt>
      <trkpt lat="43.727" lon="-1.41211">
        <ele>24.4</ele>
        <time>2021-08-08T06:06:57Z</time>
      </trkpt>
      <trkpt lat="43.72698" lon="-1.41209">
        <ele>23.8</ele>
        <time>2021-08-08T06:06:58Z</time>
      </trkpt>
      <trkpt lat="43.72696" lon="-1.4121">
        <ele>22.8</ele>
        <time>2021-08-08T06:06:59Z</time>
      </trkpt>
      <trkpt lat="43.72692" lon="-1.41212">
        <ele>21.8</ele>
        <time>2021-08-08T06:07:00Z</time>
      </trkpt>
      <trkpt lat="43.72688" lon="-1.41212">
        <ele>21.4</ele>
        <time>2021-08-08T06:07:01Z</time>
      </trkpt>
      <trkpt lat="43.7268" lon="-1.41209">
        <ele>20.4</ele>
        <time>2021-08-08T06:07:03Z</time>
      </trkpt>
      <trkpt lat="43.72675" lon="-1.41211">
        <ele>20</ele>
        <time>2021-08-08T06:07:04Z</time>
      </trkpt>
      <trkpt lat="43.72672" lon="-1.41213">
        <ele>20</ele>
        <time>2021-08-08T06:07:05Z</time>
      </trkpt>
      <trkpt lat="43.72667" lon="-1.41215">
        <ele>19.8</ele>
        <time>2021-08-08T06:07:06Z</time>
      </trkpt>
      <trkpt lat="43.72663" lon="-1.41218">
        <ele>19.8</ele>
        <time>2021-08-08T06:07:07Z</time>
      </trkpt>
      <trkpt lat="43.72656" lon="-1.41221">
        <ele>19.6</ele>
        <time>2021-08-08T06:07:09Z</time>
      </trkpt>
      <trkpt lat="43.72653" lon="-1.41221">
        <ele>19.6</ele>
        <time>2021-08-08T06:07:10Z</time>
      </trkpt>
      <trkpt lat="43.72651" lon="-1.41219">
        <ele>19.4</ele>
        <time>2021-08-08T06:07:11Z</time>
      </trkpt>
      <trkpt lat="43.7265" lon="-1.41217">
        <ele>19.2</ele>
        <time>2021-08-08T06:07:12Z</time>
      </trkpt>
      <trkpt lat="43.72647" lon="-1.41216">
        <ele>19</ele>
        <time>2021-08-08T06:07:13Z</time>
      </trkpt>
      <trkpt lat="43.72644" lon="-1.41216">
        <ele>18.8</ele>
        <time>2021-08-08T06:07:14Z</time>
      </trkpt>
      <trkpt lat="43.72642" lon="-1.41214">
        <ele>18.8</ele>
        <time>2021-08-08T06:07:15Z</time>
      </trkpt>
      <trkpt lat="43.72635" lon="-1.41211">
        <ele>18.6</ele>
        <time>2021-08-08T06:07:17Z</time>
      </trkpt>
      <trkpt lat="43.72625" lon="-1.41215">
        <ele>18.4</ele>
        <time>2021-08-08T06:07:19Z</time>
      </trkpt>
      <trkpt lat="43.7262" lon="-1.41218">
        <ele>18.2</ele>
        <time>2021-08-08T06:07:20Z</time>
      </trkpt>
      <trkpt lat="43.72615" lon="-1.41222">
        <ele>18.2</ele>
        <time>2021-08-08T06:07:21Z</time>
      </trkpt>
      <trkpt lat="43.72607" lon="-1.41227">
        <ele>18</ele>
        <time>2021-08-08T06:07:22Z</time>
      </trkpt>
      <trkpt lat="43.72602" lon="-1.41231">
        <ele>17.8</ele>
        <time>2021-08-08T06:07:23Z</time>
      </trkpt>
      <trkpt lat="43.72589" lon="-1.41241">
        <ele>17.4</ele>
        <time>2021-08-08T06:07:25Z</time>
      </trkpt>
      <trkpt lat="43.72576" lon="-1.41251">
        <ele>17</ele>
        <time>2021-08-08T06:07:27Z</time>
      </trkpt>
      <trkpt lat="43.7257" lon="-1.41255">
        <ele>17</ele>
        <time>2021-08-08T06:07:28Z</time>
      </trkpt>
      <trkpt lat="43.72558" lon="-1.41264">
        <ele>16.8</ele>
        <time>2021-08-08T06:07:30Z</time>
      </trkpt>
      <trkpt lat="43.72517" lon="-1.4129">
        <ele>16.6</ele>
        <time>2021-08-08T06:07:36Z</time>
      </trkpt>
      <trkpt lat="43.72468" lon="-1.41325">
        <ele>17.2</ele>
        <time>2021-08-08T06:07:44Z</time>
      </trkpt>
      <trkpt lat="43.72432" lon="-1.4135">
        <ele>17.2</ele>
        <time>2021-08-08T06:07:49Z</time>
      </trkpt>
      <trkpt lat="43.72425" lon="-1.41354">
        <ele>17.2</ele>
        <time>2021-08-08T06:07:50Z</time>
      </trkpt>
      <trkpt lat="43.72419" lon="-1.41358">
        <ele>16.8</ele>
        <time>2021-08-08T06:07:51Z</time>
      </trkpt>
      <trkpt lat="43.72414" lon="-1.41361">
        <ele>16.8</ele>
        <time>2021-08-08T06:07:52Z</time>
      </trkpt>
      <trkpt lat="43.72407" lon="-1.41365">
        <ele>16.6</ele>
        <time>2021-08-08T06:07:53Z</time>
      </trkpt>
      <trkpt lat="43.72401" lon="-1.41368">
        <ele>16.4</ele>
        <time>2021-08-08T06:07:54Z</time>
      </trkpt>
      <trkpt lat="43.72395" lon="-1.4137">
        <ele>16.2</ele>
        <time>2021-08-08T06:07:55Z</time>
      </trkpt>
      <trkpt lat="43.72389" lon="-1.41373">
        <ele>16.2</ele>
        <time>2021-08-08T06:07:56Z</time>
      </trkpt>
      <trkpt lat="43.72385" lon="-1.41374">
        <ele>16</ele>
        <time>2021-08-08T06:07:57Z</time>
      </trkpt>
      <trkpt lat="43.7238" lon="-1.41376">
        <ele>16</ele>
        <time>2021-08-08T06:07:58Z</time>
      </trkpt>
      <trkpt lat="43.72374" lon="-1.41379">
        <ele>16</ele>
        <time>2021-08-08T06:07:59Z</time>
      </trkpt>
      <trkpt lat="43.72348" lon="-1.41396">
        <ele>16</ele>
        <time>2021-08-08T06:08:04Z</time>
      </trkpt>
      <trkpt lat="43.72343" lon="-1.41399">
        <ele>16</ele>
        <time>2021-08-08T06:08:05Z</time>
      </trkpt>
      <trkpt lat="43.72325" lon="-1.41409">
        <ele>16</ele>
        <time>2021-08-08T06:08:08Z</time>
      </trkpt>
      <trkpt lat="43.72307" lon="-1.41423">
        <ele>16</ele>
        <time>2021-08-08T06:08:11Z</time>
      </trkpt>
      <trkpt lat="43.72271" lon="-1.41446">
        <ele>16</ele>
        <time>2021-08-08T06:08:17Z</time>
      </trkpt>
      <trkpt lat="43.72228" lon="-1.41469">
        <ele>16</ele>
        <time>2021-08-08T06:08:24Z</time>
      </trkpt>
      <trkpt lat="43.7221" lon="-1.41481">
        <ele>16.2</ele>
        <time>2021-08-08T06:08:27Z</time>
      </trkpt>
      <trkpt lat="43.72204" lon="-1.41485">
        <ele>16.2</ele>
        <time>2021-08-08T06:08:28Z</time>
      </trkpt>
      <trkpt lat="43.72199" lon="-1.41489">
        <ele>16.4</ele>
        <time>2021-08-08T06:08:29Z</time>
      </trkpt>
      <trkpt lat="43.72193" lon="-1.41494">
        <ele>16.4</ele>
        <time>2021-08-08T06:08:30Z</time>
      </trkpt>
      <trkpt lat="43.72187" lon="-1.415">
        <ele>16.6</ele>
        <time>2021-08-08T06:08:31Z</time>
      </trkpt>
      <trkpt lat="43.72181" lon="-1.41505">
        <ele>16.6</ele>
        <time>2021-08-08T06:08:32Z</time>
      </trkpt>
      <trkpt lat="43.72176" lon="-1.41509">
        <ele>16.8</ele>
        <time>2021-08-08T06:08:33Z</time>
      </trkpt>
      <trkpt lat="43.72164" lon="-1.41517">
        <ele>17.2</ele>
        <time>2021-08-08T06:08:35Z</time>
      </trkpt>
      <trkpt lat="43.72156" lon="-1.41521">
        <ele>17.2</ele>
        <time>2021-08-08T06:08:36Z</time>
      </trkpt>
      <trkpt lat="43.7213" lon="-1.41532">
        <ele>17.6</ele>
        <time>2021-08-08T06:08:40Z</time>
      </trkpt>
      <trkpt lat="43.72116" lon="-1.41541">
        <ele>17.6</ele>
        <time>2021-08-08T06:08:42Z</time>
      </trkpt>
      <trkpt lat="43.72073" lon="-1.4157">
        <ele>16</ele>
        <time>2021-08-08T06:08:48Z</time>
      </trkpt>
      <trkpt lat="43.72035" lon="-1.41595">
        <ele>16.6</ele>
        <time>2021-08-08T06:08:53Z</time>
      </trkpt>
      <trkpt lat="43.72007" lon="-1.41613">
        <ele>16.2</ele>
        <time>2021-08-08T06:08:57Z</time>
      </trkpt>
      <trkpt lat="43.71999" lon="-1.41617">
        <ele>16.2</ele>
        <time>2021-08-08T06:08:58Z</time>
      </trkpt>
      <trkpt lat="43.71992" lon="-1.41621">
        <ele>16.2</ele>
        <time>2021-08-08T06:08:59Z</time>
      </trkpt>
      <trkpt lat="43.71986" lon="-1.41626">
        <ele>16</ele>
        <time>2021-08-08T06:09:00Z</time>
      </trkpt>
      <trkpt lat="43.71979" lon="-1.4163">
        <ele>16</ele>
        <time>2021-08-08T06:09:01Z</time>
      </trkpt>
      <trkpt lat="43.71974" lon="-1.41632">
        <ele>16</ele>
        <time>2021-08-08T06:09:02Z</time>
      </trkpt>
      <trkpt lat="43.71966" lon="-1.41636">
        <ele>15.8</ele>
        <time>2021-08-08T06:09:03Z</time>
      </trkpt>
      <trkpt lat="43.7196" lon="-1.4164">
        <ele>15.8</ele>
        <time>2021-08-08T06:09:04Z</time>
      </trkpt>
      <trkpt lat="43.71953" lon="-1.41645">
        <ele>15.8</ele>
        <time>2021-08-08T06:09:05Z</time>
      </trkpt>
      <trkpt lat="43.71934" lon="-1.4166">
        <ele>15.8</ele>
        <time>2021-08-08T06:09:08Z</time>
      </trkpt>
      <trkpt lat="43.71921" lon="-1.41672">
        <ele>15.8</ele>
        <time>2021-08-08T06:09:10Z</time>
      </trkpt>
      <trkpt lat="43.7189" lon="-1.41697">
        <ele>16.2</ele>
        <time>2021-08-08T06:09:15Z</time>
      </trkpt>
      <trkpt lat="43.71885" lon="-1.41702">
        <ele>16.2</ele>
        <time>2021-08-08T06:09:16Z</time>
      </trkpt>
      <trkpt lat="43.7188" lon="-1.41707">
        <ele>16.4</ele>
        <time>2021-08-08T06:09:17Z</time>
      </trkpt>
      <trkpt lat="43.71875" lon="-1.41713">
        <ele>16.4</ele>
        <time>2021-08-08T06:09:18Z</time>
      </trkpt>
      <trkpt lat="43.71871" lon="-1.41719">
        <ele>16.6</ele>
        <time>2021-08-08T06:09:19Z</time>
      </trkpt>
      <trkpt lat="43.71863" lon="-1.41728">
        <ele>16.8</ele>
        <time>2021-08-08T06:09:21Z</time>
      </trkpt>
      <trkpt lat="43.71858" lon="-1.41734">
        <ele>17.2</ele>
        <time>2021-08-08T06:09:22Z</time>
      </trkpt>
      <trkpt lat="43.71853" lon="-1.41739">
        <ele>17.4</ele>
        <time>2021-08-08T06:09:23Z</time>
      </trkpt>
      <trkpt lat="43.71849" lon="-1.41743">
        <ele>17.8</ele>
        <time>2021-08-08T06:09:24Z</time>
      </trkpt>
      <trkpt lat="43.71844" lon="-1.41748">
        <ele>18</ele>
        <time>2021-08-08T06:09:25Z</time>
      </trkpt>
      <trkpt lat="43.7184" lon="-1.41754">
        <ele>18.8</ele>
        <time>2021-08-08T06:09:26Z</time>
      </trkpt>
      <trkpt lat="43.71836" lon="-1.41757">
        <ele>18.8</ele>
        <time>2021-08-08T06:09:27Z</time>
      </trkpt>
      <trkpt lat="43.71833" lon="-1.41761">
        <ele>19</ele>
        <time>2021-08-08T06:09:28Z</time>
      </trkpt>
      <trkpt lat="43.7182" lon="-1.41777">
        <ele>19.8</ele>
        <time>2021-08-08T06:09:31Z</time>
      </trkpt>
      <trkpt lat="43.71815" lon="-1.41784">
        <ele>19.8</ele>
        <time>2021-08-08T06:09:32Z</time>
      </trkpt>
      <trkpt lat="43.71812" lon="-1.41789">
        <ele>19.8</ele>
        <time>2021-08-08T06:09:33Z</time>
      </trkpt>
      <trkpt lat="43.71808" lon="-1.41794">
        <ele>20</ele>
        <time>2021-08-08T06:09:34Z</time>
      </trkpt>
      <trkpt lat="43.71804" lon="-1.41798">
        <ele>20.2</ele>
        <time>2021-08-08T06:09:35Z</time>
      </trkpt>
      <trkpt lat="43.718" lon="-1.41803">
        <ele>20.4</ele>
        <time>2021-08-08T06:09:36Z</time>
      </trkpt>
      <trkpt lat="43.71796" lon="-1.41808">
        <ele>20.6</ele>
        <time>2021-08-08T06:09:37Z</time>
      </trkpt>
      <trkpt lat="43.71793" lon="-1.41812">
        <ele>20.8</ele>
        <time>2021-08-08T06:09:38Z</time>
      </trkpt>
      <trkpt lat="43.7179" lon="-1.41816">
        <ele>21</ele>
        <time>2021-08-08T06:09:39Z</time>
      </trkpt>
      <trkpt lat="43.71786" lon="-1.41821">
        <ele>21.2</ele>
        <time>2021-08-08T06:09:40Z</time>
      </trkpt>
      <trkpt lat="43.71783" lon="-1.41825">
        <ele>21.4</ele>
        <time>2021-08-08T06:09:41Z</time>
      </trkpt>
      <trkpt lat="43.7178" lon="-1.41828">
        <ele>21.6</ele>
        <time>2021-08-08T06:09:42Z</time>
      </trkpt>
      <trkpt lat="43.71776" lon="-1.41832">
        <ele>21.8</ele>
        <time>2021-08-08T06:09:43Z</time>
      </trkpt>
      <trkpt lat="43.71773" lon="-1.41836">
        <ele>22</ele>
        <time>2021-08-08T06:09:44Z</time>
      </trkpt>
      <trkpt lat="43.71769" lon="-1.4184">
        <ele>22.2</ele>
        <time>2021-08-08T06:09:45Z</time>
      </trkpt>
      <trkpt lat="43.71766" lon="-1.41845">
        <ele>22.4</ele>
        <time>2021-08-08T06:09:46Z</time>
      </trkpt>
      <trkpt lat="43.71762" lon="-1.41849">
        <ele>22.6</ele>
        <time>2021-08-08T06:09:47Z</time>
      </trkpt>
      <trkpt lat="43.71759" lon="-1.41853">
        <ele>22.8</ele>
        <time>2021-08-08T06:09:48Z</time>
      </trkpt>
      <trkpt lat="43.71756" lon="-1.41857">
        <ele>23</ele>
        <time>2021-08-08T06:09:49Z</time>
      </trkpt>
      <trkpt lat="43.71752" lon="-1.41861">
        <ele>23</ele>
        <time>2021-08-08T06:09:50Z</time>
      </trkpt>
      <trkpt lat="43.71749" lon="-1.41866">
        <ele>23.2</ele>
        <time>2021-08-08T06:09:51Z</time>
      </trkpt>
      <trkpt lat="43.71746" lon="-1.4187">
        <ele>23.2</ele>
        <time>2021-08-08T06:09:52Z</time>
      </trkpt>
      <trkpt lat="43.71742" lon="-1.41874">
        <ele>23.4</ele>
        <time>2021-08-08T06:09:53Z</time>
      </trkpt>
      <trkpt lat="43.71739" lon="-1.41877">
        <ele>23.6</ele>
        <time>2021-08-08T06:09:54Z</time>
      </trkpt>
      <trkpt lat="43.71735" lon="-1.41882">
        <ele>23.6</ele>
        <time>2021-08-08T06:09:55Z</time>
      </trkpt>
      <trkpt lat="43.71731" lon="-1.41885">
        <ele>23.8</ele>
        <time>2021-08-08T06:09:56Z</time>
      </trkpt>
      <trkpt lat="43.71727" lon="-1.4189">
        <ele>23.8</ele>
        <time>2021-08-08T06:09:57Z</time>
      </trkpt>
      <trkpt lat="43.71723" lon="-1.41894">
        <ele>23.8</ele>
        <time>2021-08-08T06:09:58Z</time>
      </trkpt>
      <trkpt lat="43.71719" lon="-1.419">
        <ele>23.8</ele>
        <time>2021-08-08T06:09:59Z</time>
      </trkpt>
      <trkpt lat="43.71715" lon="-1.41906">
        <ele>23.8</ele>
        <time>2021-08-08T06:10:00Z</time>
      </trkpt>
      <trkpt lat="43.7171" lon="-1.41913">
        <ele>23.8</ele>
        <time>2021-08-08T06:10:01Z</time>
      </trkpt>
      <trkpt lat="43.71705" lon="-1.41921">
        <ele>23.8</ele>
        <time>2021-08-08T06:10:02Z</time>
      </trkpt>
      <trkpt lat="43.717" lon="-1.41929">
        <ele>23.8</ele>
        <time>2021-08-08T06:10:03Z</time>
      </trkpt>
      <trkpt lat="43.71695" lon="-1.41938">
        <ele>23.6</ele>
        <time>2021-08-08T06:10:04Z</time>
      </trkpt>
      <trkpt lat="43.7169" lon="-1.41947">
        <ele>23.4</ele>
        <time>2021-08-08T06:10:05Z</time>
      </trkpt>
      <trkpt lat="43.71685" lon="-1.41957">
        <ele>23</ele>
        <time>2021-08-08T06:10:06Z</time>
      </trkpt>
      <trkpt lat="43.71679" lon="-1.41968">
        <ele>23</ele>
        <time>2021-08-08T06:10:07Z</time>
      </trkpt>
      <trkpt lat="43.71673" lon="-1.41978">
        <ele>22.6</ele>
        <time>2021-08-08T06:10:08Z</time>
      </trkpt>
      <trkpt lat="43.71661" lon="-1.41999">
        <ele>21.6</ele>
        <time>2021-08-08T06:10:10Z</time>
      </trkpt>
      <trkpt lat="43.71647" lon="-1.42021">
        <ele>21</ele>
        <time>2021-08-08T06:10:12Z</time>
      </trkpt>
      <trkpt lat="43.71641" lon="-1.42031">
        <ele>20.6</ele>
        <time>2021-08-08T06:10:13Z</time>
      </trkpt>
      <trkpt lat="43.71636" lon="-1.4204">
        <ele>20</ele>
        <time>2021-08-08T06:10:14Z</time>
      </trkpt>
      <trkpt lat="43.71631" lon="-1.42048">
        <ele>19.6</ele>
        <time>2021-08-08T06:10:15Z</time>
      </trkpt>
      <trkpt lat="43.71625" lon="-1.42057">
        <ele>19.4</ele>
        <time>2021-08-08T06:10:16Z</time>
      </trkpt>
      <trkpt lat="43.71618" lon="-1.42067">
        <ele>19.2</ele>
        <time>2021-08-08T06:10:17Z</time>
      </trkpt>
      <trkpt lat="43.71611" lon="-1.42074">
        <ele>18.8</ele>
        <time>2021-08-08T06:10:18Z</time>
      </trkpt>
      <trkpt lat="43.71598" lon="-1.42085">
        <ele>18.4</ele>
        <time>2021-08-08T06:10:20Z</time>
      </trkpt>
      <trkpt lat="43.71589" lon="-1.42092">
        <ele>18.2</ele>
        <time>2021-08-08T06:10:21Z</time>
      </trkpt>
      <trkpt lat="43.71549" lon="-1.42111">
        <ele>17.2</ele>
        <time>2021-08-08T06:10:26Z</time>
      </trkpt>
      <trkpt lat="43.71541" lon="-1.42112">
        <ele>17.2</ele>
        <time>2021-08-08T06:10:27Z</time>
      </trkpt>
      <trkpt lat="43.71516" lon="-1.42112">
        <ele>17</ele>
        <time>2021-08-08T06:10:30Z</time>
      </trkpt>
      <trkpt lat="43.71493" lon="-1.42114">
        <ele>16.8</ele>
        <time>2021-08-08T06:10:33Z</time>
      </trkpt>
      <trkpt lat="43.71478" lon="-1.42111">
        <ele>16.8</ele>
        <time>2021-08-08T06:10:35Z</time>
      </trkpt>
      <trkpt lat="43.7147" lon="-1.42108">
        <ele>16.8</ele>
        <time>2021-08-08T06:10:36Z</time>
      </trkpt>
      <trkpt lat="43.71463" lon="-1.42105">
        <ele>16.8</ele>
        <time>2021-08-08T06:10:37Z</time>
      </trkpt>
      <trkpt lat="43.71456" lon="-1.42103">
        <ele>16.8</ele>
        <time>2021-08-08T06:10:38Z</time>
      </trkpt>
      <trkpt lat="43.71449" lon="-1.421">
        <ele>16.8</ele>
        <time>2021-08-08T06:10:39Z</time>
      </trkpt>
      <trkpt lat="43.71441" lon="-1.42097">
        <ele>16.8</ele>
        <time>2021-08-08T06:10:40Z</time>
      </trkpt>
      <trkpt lat="43.71407" lon="-1.42075">
        <ele>16.8</ele>
        <time>2021-08-08T06:10:45Z</time>
      </trkpt>
      <trkpt lat="43.71361" lon="-1.42034">
        <ele>16.8</ele>
        <time>2021-08-08T06:10:52Z</time>
      </trkpt>
      <trkpt lat="43.71336" lon="-1.42005">
        <ele>16.2</ele>
        <time>2021-08-08T06:10:56Z</time>
      </trkpt>
      <trkpt lat="43.71318" lon="-1.41981">
        <ele>16</ele>
        <time>2021-08-08T06:10:59Z</time>
      </trkpt>
      <trkpt lat="43.71314" lon="-1.41972">
        <ele>15.8</ele>
        <time>2021-08-08T06:11:00Z</time>
      </trkpt>
      <trkpt lat="43.7131" lon="-1.41965">
        <ele>15.8</ele>
        <time>2021-08-08T06:11:01Z</time>
      </trkpt>
      <trkpt lat="43.71307" lon="-1.41957">
        <ele>15.8</ele>
        <time>2021-08-08T06:11:02Z</time>
      </trkpt>
      <trkpt lat="43.71303" lon="-1.41951">
        <ele>15.8</ele>
        <time>2021-08-08T06:11:03Z</time>
      </trkpt>
      <trkpt lat="43.71299" lon="-1.41946">
        <ele>15.8</ele>
        <time>2021-08-08T06:11:04Z</time>
      </trkpt>
      <trkpt lat="43.71295" lon="-1.41942">
        <ele>15.8</ele>
        <time>2021-08-08T06:11:05Z</time>
      </trkpt>
      <trkpt lat="43.71292" lon="-1.41938">
        <ele>16</ele>
        <time>2021-08-08T06:11:06Z</time>
      </trkpt>
      <trkpt lat="43.71287" lon="-1.41936">
        <ele>16.2</ele>
        <time>2021-08-08T06:11:07Z</time>
      </trkpt>
      <trkpt lat="43.71281" lon="-1.41936">
        <ele>16.6</ele>
        <time>2021-08-08T06:11:08Z</time>
      </trkpt>
      <trkpt lat="43.71276" lon="-1.41935">
        <ele>16.8</ele>
        <time>2021-08-08T06:11:09Z</time>
      </trkpt>
      <trkpt lat="43.71271" lon="-1.41933">
        <ele>17.4</ele>
        <time>2021-08-08T06:11:10Z</time>
      </trkpt>
      <trkpt lat="43.71265" lon="-1.41929">
        <ele>17.6</ele>
        <time>2021-08-08T06:11:11Z</time>
      </trkpt>
      <trkpt lat="43.71261" lon="-1.41925">
        <ele>17.8</ele>
        <time>2021-08-08T06:11:12Z</time>
      </trkpt>
      <trkpt lat="43.71256" lon="-1.4192">
        <ele>18</ele>
        <time>2021-08-08T06:11:13Z</time>
      </trkpt>
      <trkpt lat="43.71252" lon="-1.41916">
        <ele>18.8</ele>
        <time>2021-08-08T06:11:14Z</time>
      </trkpt>
      <trkpt lat="43.71242" lon="-1.41905">
        <ele>19.2</ele>
        <time>2021-08-08T06:11:16Z</time>
      </trkpt>
      <trkpt lat="43.71236" lon="-1.41901">
        <ele>19.2</ele>
        <time>2021-08-08T06:11:17Z</time>
      </trkpt>
      <trkpt lat="43.71219" lon="-1.41889">
        <ele>19.2</ele>
        <time>2021-08-08T06:11:20Z</time>
      </trkpt>
      <trkpt lat="43.71212" lon="-1.41886">
        <ele>19.2</ele>
        <time>2021-08-08T06:11:21Z</time>
      </trkpt>
      <trkpt lat="43.71205" lon="-1.41884">
        <ele>19.2</ele>
        <time>2021-08-08T06:11:22Z</time>
      </trkpt>
      <trkpt lat="43.71197" lon="-1.41882">
        <ele>19.2</ele>
        <time>2021-08-08T06:11:23Z</time>
      </trkpt>
      <trkpt lat="43.71189" lon="-1.41881">
        <ele>19.2</ele>
        <time>2021-08-08T06:11:24Z</time>
      </trkpt>
      <trkpt lat="43.71181" lon="-1.41881">
        <ele>19.2</ele>
        <time>2021-08-08T06:11:25Z</time>
      </trkpt>
      <trkpt lat="43.71172" lon="-1.41882">
        <ele>19</ele>
        <time>2021-08-08T06:11:26Z</time>
      </trkpt>
      <trkpt lat="43.71163" lon="-1.41883">
        <ele>18.8</ele>
        <time>2021-08-08T06:11:27Z</time>
      </trkpt>
      <trkpt lat="43.71156" lon="-1.41884">
        <ele>18.8</ele>
        <time>2021-08-08T06:11:28Z</time>
      </trkpt>
      <trkpt lat="43.71146" lon="-1.41887">
        <ele>18.4</ele>
        <time>2021-08-08T06:11:29Z</time>
      </trkpt>
      <trkpt lat="43.71138" lon="-1.41889">
        <ele>18.2</ele>
        <time>2021-08-08T06:11:30Z</time>
      </trkpt>
      <trkpt lat="43.7113" lon="-1.41892">
        <ele>17.8</ele>
        <time>2021-08-08T06:11:31Z</time>
      </trkpt>
      <trkpt lat="43.71122" lon="-1.41895">
        <ele>17.8</ele>
        <time>2021-08-08T06:11:32Z</time>
      </trkpt>
      <trkpt lat="43.7109" lon="-1.41904">
        <ele>16.8</ele>
        <time>2021-08-08T06:11:36Z</time>
      </trkpt>
      <trkpt lat="43.71083" lon="-1.41904">
        <ele>16.8</ele>
        <time>2021-08-08T06:11:37Z</time>
      </trkpt>
      <trkpt lat="43.71077" lon="-1.41904">
        <ele>16.8</ele>
        <time>2021-08-08T06:11:38Z</time>
      </trkpt>
      <trkpt lat="43.71062" lon="-1.41906">
        <ele>16.8</ele>
        <time>2021-08-08T06:11:40Z</time>
      </trkpt>
      <trkpt lat="43.71048" lon="-1.4191">
        <ele>16.8</ele>
        <time>2021-08-08T06:11:42Z</time>
      </trkpt>
      <trkpt lat="43.71041" lon="-1.41911">
        <ele>16.8</ele>
        <time>2021-08-08T06:11:43Z</time>
      </trkpt>
      <trkpt lat="43.71034" lon="-1.41912">
        <ele>17</ele>
        <time>2021-08-08T06:11:44Z</time>
      </trkpt>
      <trkpt lat="43.71027" lon="-1.41912">
        <ele>17</ele>
        <time>2021-08-08T06:11:45Z</time>
      </trkpt>
      <trkpt lat="43.7102" lon="-1.41912">
        <ele>17</ele>
        <time>2021-08-08T06:11:46Z</time>
      </trkpt>
      <trkpt lat="43.71013" lon="-1.41912">
        <ele>17.2</ele>
        <time>2021-08-08T06:11:47Z</time>
      </trkpt>
      <trkpt lat="43.71" lon="-1.41908">
        <ele>17.2</ele>
        <time>2021-08-08T06:11:49Z</time>
      </trkpt>
      <trkpt lat="43.70987" lon="-1.41904">
        <ele>17.4</ele>
        <time>2021-08-08T06:11:51Z</time>
      </trkpt>
      <trkpt lat="43.70969" lon="-1.41897">
        <ele>17.4</ele>
        <time>2021-08-08T06:11:54Z</time>
      </trkpt>
      <trkpt lat="43.70963" lon="-1.41894">
        <ele>17.6</ele>
        <time>2021-08-08T06:11:55Z</time>
      </trkpt>
      <trkpt lat="43.70958" lon="-1.4189">
        <ele>17.6</ele>
        <time>2021-08-08T06:11:56Z</time>
      </trkpt>
      <trkpt lat="43.70953" lon="-1.41886">
        <ele>17.8</ele>
        <time>2021-08-08T06:11:57Z</time>
      </trkpt>
      <trkpt lat="43.70948" lon="-1.41882">
        <ele>17.8</ele>
        <time>2021-08-08T06:11:58Z</time>
      </trkpt>
      <trkpt lat="43.70943" lon="-1.41878">
        <ele>18</ele>
        <time>2021-08-08T06:11:59Z</time>
      </trkpt>
      <trkpt lat="43.70939" lon="-1.41874">
        <ele>18</ele>
        <time>2021-08-08T06:12:00Z</time>
      </trkpt>
      <trkpt lat="43.70935" lon="-1.41869">
        <ele>18.4</ele>
        <time>2021-08-08T06:12:01Z</time>
      </trkpt>
      <trkpt lat="43.70927" lon="-1.4186">
        <ele>19</ele>
        <time>2021-08-08T06:12:03Z</time>
      </trkpt>
      <trkpt lat="43.70923" lon="-1.41855">
        <ele>19</ele>
        <time>2021-08-08T06:12:04Z</time>
      </trkpt>
      <trkpt lat="43.7092" lon="-1.41851">
        <ele>19.4</ele>
        <time>2021-08-08T06:12:05Z</time>
      </trkpt>
      <trkpt lat="43.70917" lon="-1.41846">
        <ele>19.4</ele>
        <time>2021-08-08T06:12:06Z</time>
      </trkpt>
      <trkpt lat="43.70905" lon="-1.41828">
        <ele>20</ele>
        <time>2021-08-08T06:12:09Z</time>
      </trkpt>
      <trkpt lat="43.70893" lon="-1.41808">
        <ele>20.4</ele>
        <time>2021-08-08T06:12:12Z</time>
      </trkpt>
      <trkpt lat="43.7089" lon="-1.41801">
        <ele>20.4</ele>
        <time>2021-08-08T06:12:13Z</time>
      </trkpt>
      <trkpt lat="43.70887" lon="-1.41795">
        <ele>20.4</ele>
        <time>2021-08-08T06:12:14Z</time>
      </trkpt>
      <trkpt lat="43.70882" lon="-1.41786">
        <ele>20.4</ele>
        <time>2021-08-08T06:12:15Z</time>
      </trkpt>
      <trkpt lat="43.70879" lon="-1.41779">
        <ele>20.4</ele>
        <time>2021-08-08T06:12:16Z</time>
      </trkpt>
      <trkpt lat="43.70875" lon="-1.41772">
        <ele>20.4</ele>
        <time>2021-08-08T06:12:17Z</time>
      </trkpt>
      <trkpt lat="43.70871" lon="-1.41765">
        <ele>20.6</ele>
        <time>2021-08-08T06:12:18Z</time>
      </trkpt>
      <trkpt lat="43.70868" lon="-1.41758">
        <ele>20.6</ele>
        <time>2021-08-08T06:12:19Z</time>
      </trkpt>
      <trkpt lat="43.70864" lon="-1.4175">
        <ele>20.6</ele>
        <time>2021-08-08T06:12:20Z</time>
      </trkpt>
      <trkpt lat="43.7086" lon="-1.41744">
        <ele>20.6</ele>
        <time>2021-08-08T06:12:21Z</time>
      </trkpt>
      <trkpt lat="43.70856" lon="-1.41737">
        <ele>20.6</ele>
        <time>2021-08-08T06:12:22Z</time>
      </trkpt>
      <trkpt lat="43.70851" lon="-1.41732">
        <ele>20.6</ele>
        <time>2021-08-08T06:12:23Z</time>
      </trkpt>
      <trkpt lat="43.70845" lon="-1.41726">
        <ele>20.6</ele>
        <time>2021-08-08T06:12:24Z</time>
      </trkpt>
      <trkpt lat="43.70839" lon="-1.41721">
        <ele>20.6</ele>
        <time>2021-08-08T06:12:25Z</time>
      </trkpt>
      <trkpt lat="43.70833" lon="-1.41716">
        <ele>20.6</ele>
        <time>2021-08-08T06:12:26Z</time>
      </trkpt>
      <trkpt lat="43.70819" lon="-1.41707">
        <ele>20.6</ele>
        <time>2021-08-08T06:12:28Z</time>
      </trkpt>
      <trkpt lat="43.70814" lon="-1.41704">
        <ele>20.6</ele>
        <time>2021-08-08T06:12:29Z</time>
      </trkpt>
      <trkpt lat="43.70805" lon="-1.417">
        <ele>20.6</ele>
        <time>2021-08-08T06:12:30Z</time>
      </trkpt>
      <trkpt lat="43.70784" lon="-1.41698">
        <ele>20</ele>
        <time>2021-08-08T06:12:33Z</time>
      </trkpt>
      <trkpt lat="43.70758" lon="-1.41703">
        <ele>19.8</ele>
        <time>2021-08-08T06:12:36Z</time>
      </trkpt>
      <trkpt lat="43.70743" lon="-1.41712">
        <ele>19.4</ele>
        <time>2021-08-08T06:12:38Z</time>
      </trkpt>
      <trkpt lat="43.70729" lon="-1.41722">
        <ele>18.8</ele>
        <time>2021-08-08T06:12:40Z</time>
      </trkpt>
      <trkpt lat="43.70715" lon="-1.41735">
        <ele>18.4</ele>
        <time>2021-08-08T06:12:42Z</time>
      </trkpt>
      <trkpt lat="43.70708" lon="-1.41742">
        <ele>18.4</ele>
        <time>2021-08-08T06:12:43Z</time>
      </trkpt>
      <trkpt lat="43.70701" lon="-1.41748">
        <ele>18.2</ele>
        <time>2021-08-08T06:12:44Z</time>
      </trkpt>
      <trkpt lat="43.70696" lon="-1.41753">
        <ele>18.2</ele>
        <time>2021-08-08T06:12:45Z</time>
      </trkpt>
      <trkpt lat="43.70691" lon="-1.41757">
        <ele>18</ele>
        <time>2021-08-08T06:12:46Z</time>
      </trkpt>
      <trkpt lat="43.70684" lon="-1.41763">
        <ele>18</ele>
        <time>2021-08-08T06:12:47Z</time>
      </trkpt>
      <trkpt lat="43.70678" lon="-1.41769">
        <ele>17.8</ele>
        <time>2021-08-08T06:12:48Z</time>
      </trkpt>
      <trkpt lat="43.70666" lon="-1.41781">
        <ele>17.8</ele>
        <time>2021-08-08T06:12:50Z</time>
      </trkpt>
      <trkpt lat="43.70661" lon="-1.41785">
        <ele>17.8</ele>
        <time>2021-08-08T06:12:51Z</time>
      </trkpt>
      <trkpt lat="43.70655" lon="-1.4179">
        <ele>17.6</ele>
        <time>2021-08-08T06:12:52Z</time>
      </trkpt>
      <trkpt lat="43.70649" lon="-1.41793">
        <ele>17.6</ele>
        <time>2021-08-08T06:12:53Z</time>
      </trkpt>
      <trkpt lat="43.70643" lon="-1.41793">
        <ele>17.6</ele>
        <time>2021-08-08T06:12:54Z</time>
      </trkpt>
      <trkpt lat="43.70638" lon="-1.41792">
        <ele>17.6</ele>
        <time>2021-08-08T06:12:55Z</time>
      </trkpt>
      <trkpt lat="43.70634" lon="-1.4179">
        <ele>17.6</ele>
        <time>2021-08-08T06:12:56Z</time>
      </trkpt>
      <trkpt lat="43.70631" lon="-1.41786">
        <ele>17.4</ele>
        <time>2021-08-08T06:12:57Z</time>
      </trkpt>
      <trkpt lat="43.7063" lon="-1.41784">
        <ele>17.4</ele>
        <time>2021-08-08T06:12:58Z</time>
      </trkpt>
      <trkpt lat="43.70629" lon="-1.41782">
        <ele>17.2</ele>
        <time>2021-08-08T06:12:59Z</time>
      </trkpt>
      <trkpt lat="43.70629" lon="-1.41782">
        <ele>17.2</ele>
        <time>2021-08-08T06:13:00Z</time>
      </trkpt>
      <trkpt lat="43.70629" lon="-1.41782">
        <ele>16.8</ele>
        <time>2021-08-08T06:13:02Z</time>
      </trkpt>
      <trkpt lat="43.70627" lon="-1.41782">
        <ele>16.6</ele>
        <time>2021-08-08T06:13:03Z</time>
      </trkpt>
      <trkpt lat="43.70626" lon="-1.41783">
        <ele>16.6</ele>
        <time>2021-08-08T06:13:04Z</time>
      </trkpt>
      <trkpt lat="43.70616" lon="-1.41787">
        <ele>16.2</ele>
        <time>2021-08-08T06:13:08Z</time>
      </trkpt>
      <trkpt lat="43.70613" lon="-1.4179">
        <ele>16.2</ele>
        <time>2021-08-08T06:13:09Z</time>
      </trkpt>
      <trkpt lat="43.70612" lon="-1.41793">
        <ele>16.2</ele>
        <time>2021-08-08T06:13:10Z</time>
      </trkpt>
      <trkpt lat="43.70611" lon="-1.41804">
        <ele>16.2</ele>
        <time>2021-08-08T06:13:12Z</time>
      </trkpt>
      <trkpt lat="43.7061" lon="-1.41811">
        <ele>16.2</ele>
        <time>2021-08-08T06:13:13Z</time>
      </trkpt>
      <trkpt lat="43.70608" lon="-1.41818">
        <ele>16.2</ele>
        <time>2021-08-08T06:13:14Z</time>
      </trkpt>
      <trkpt lat="43.70606" lon="-1.41824">
        <ele>16.2</ele>
        <time>2021-08-08T06:13:15Z</time>
      </trkpt>
      <trkpt lat="43.70603" lon="-1.4183">
        <ele>16.2</ele>
        <time>2021-08-08T06:13:16Z</time>
      </trkpt>
      <trkpt lat="43.706" lon="-1.41835">
        <ele>16.2</ele>
        <time>2021-08-08T06:13:17Z</time>
      </trkpt>
      <trkpt lat="43.70597" lon="-1.4184">
        <ele>16.2</ele>
        <time>2021-08-08T06:13:18Z</time>
      </trkpt>
      <trkpt lat="43.70594" lon="-1.41844">
        <ele>16.2</ele>
        <time>2021-08-08T06:13:19Z</time>
      </trkpt>
      <trkpt lat="43.70593" lon="-1.41849">
        <ele>16.2</ele>
        <time>2021-08-08T06:13:20Z</time>
      </trkpt>
      <trkpt lat="43.70593" lon="-1.41854">
        <ele>16.2</ele>
        <time>2021-08-08T06:13:21Z</time>
      </trkpt>
      <trkpt lat="43.70595" lon="-1.41858">
        <ele>16.2</ele>
        <time>2021-08-08T06:13:22Z</time>
      </trkpt>
      <trkpt lat="43.70597" lon="-1.4186">
        <ele>16.2</ele>
        <time>2021-08-08T06:13:23Z</time>
      </trkpt>
      <trkpt lat="43.706" lon="-1.41863">
        <ele>16.2</ele>
        <time>2021-08-08T06:13:24Z</time>
      </trkpt>
      <trkpt lat="43.70602" lon="-1.41867">
        <ele>16.2</ele>
        <time>2021-08-08T06:13:25Z</time>
      </trkpt>
      <trkpt lat="43.70604" lon="-1.41871">
        <ele>16.2</ele>
        <time>2021-08-08T06:13:26Z</time>
      </trkpt>
      <trkpt lat="43.70603" lon="-1.41875">
        <ele>16.2</ele>
        <time>2021-08-08T06:13:27Z</time>
      </trkpt>
      <trkpt lat="43.70599" lon="-1.41883">
        <ele>16</ele>
        <time>2021-08-08T06:13:29Z</time>
      </trkpt>
      <trkpt lat="43.70597" lon="-1.41889">
        <ele>16</ele>
        <time>2021-08-08T06:13:30Z</time>
      </trkpt>
      <trkpt lat="43.70597" lon="-1.41896">
        <ele>16</ele>
        <time>2021-08-08T06:13:31Z</time>
      </trkpt>
      <trkpt lat="43.70596" lon="-1.41903">
        <ele>16</ele>
        <time>2021-08-08T06:13:32Z</time>
      </trkpt>
      <trkpt lat="43.70596" lon="-1.4191">
        <ele>16</ele>
        <time>2021-08-08T06:13:33Z</time>
      </trkpt>
      <trkpt lat="43.70595" lon="-1.41917">
        <ele>16</ele>
        <time>2021-08-08T06:13:34Z</time>
      </trkpt>
      <trkpt lat="43.70593" lon="-1.41932">
        <ele>16</ele>
        <time>2021-08-08T06:13:36Z</time>
      </trkpt>
      <trkpt lat="43.70591" lon="-1.4194">
        <ele>16</ele>
        <time>2021-08-08T06:13:37Z</time>
      </trkpt>
      <trkpt lat="43.70589" lon="-1.41947">
        <ele>16</ele>
        <time>2021-08-08T06:13:38Z</time>
      </trkpt>
      <trkpt lat="43.7059" lon="-1.41962">
        <ele>16</ele>
        <time>2021-08-08T06:13:40Z</time>
      </trkpt>
      <trkpt lat="43.70591" lon="-1.41969">
        <ele>16</ele>
        <time>2021-08-08T06:13:41Z</time>
      </trkpt>
      <trkpt lat="43.70593" lon="-1.41977">
        <ele>16</ele>
        <time>2021-08-08T06:13:42Z</time>
      </trkpt>
      <trkpt lat="43.70596" lon="-1.41983">
        <ele>16</ele>
        <time>2021-08-08T06:13:43Z</time>
      </trkpt>
      <trkpt lat="43.70599" lon="-1.41989">
        <ele>16</ele>
        <time>2021-08-08T06:13:44Z</time>
      </trkpt>
      <trkpt lat="43.70601" lon="-1.41994">
        <ele>16</ele>
        <time>2021-08-08T06:13:45Z</time>
      </trkpt>
      <trkpt lat="43.70602" lon="-1.41999">
        <ele>16</ele>
        <time>2021-08-08T06:13:46Z</time>
      </trkpt>
      <trkpt lat="43.70603" lon="-1.42004">
        <ele>16</ele>
        <time>2021-08-08T06:13:47Z</time>
      </trkpt>
      <trkpt lat="43.70604" lon="-1.42008">
        <ele>16</ele>
        <time>2021-08-08T06:13:48Z</time>
      </trkpt>
      <trkpt lat="43.70603" lon="-1.42013">
        <ele>16</ele>
        <time>2021-08-08T06:13:49Z</time>
      </trkpt>
      <trkpt lat="43.70603" lon="-1.42018">
        <ele>16</ele>
        <time>2021-08-08T06:13:50Z</time>
      </trkpt>
      <trkpt lat="43.70607" lon="-1.42035">
        <ele>16.4</ele>
        <time>2021-08-08T06:13:52Z</time>
      </trkpt>
      <trkpt lat="43.7061" lon="-1.4204">
        <ele>16.4</ele>
        <time>2021-08-08T06:13:53Z</time>
      </trkpt>
      <trkpt lat="43.70614" lon="-1.42043">
        <ele>16.4</ele>
        <time>2021-08-08T06:13:54Z</time>
      </trkpt>
      <trkpt lat="43.70617" lon="-1.42046">
        <ele>16.6</ele>
        <time>2021-08-08T06:13:55Z</time>
      </trkpt>
      <trkpt lat="43.7062" lon="-1.42048">
        <ele>16.6</ele>
        <time>2021-08-08T06:13:56Z</time>
      </trkpt>
      <trkpt lat="43.70622" lon="-1.4205">
        <ele>16.6</ele>
        <time>2021-08-08T06:13:57Z</time>
      </trkpt>
      <trkpt lat="43.70625" lon="-1.42051">
        <ele>16.6</ele>
        <time>2021-08-08T06:13:58Z</time>
      </trkpt>
      <trkpt lat="43.70628" lon="-1.42052">
        <ele>16.6</ele>
        <time>2021-08-08T06:13:59Z</time>
      </trkpt>
      <trkpt lat="43.70633" lon="-1.42053">
        <ele>16.8</ele>
        <time>2021-08-08T06:14:00Z</time>
      </trkpt>
      <trkpt lat="43.70647" lon="-1.42059">
        <ele>17.2</ele>
        <time>2021-08-08T06:14:03Z</time>
      </trkpt>
      <trkpt lat="43.70662" lon="-1.42064">
        <ele>17.8</ele>
        <time>2021-08-08T06:14:06Z</time>
      </trkpt>
      <trkpt lat="43.70672" lon="-1.42067">
        <ele>18.2</ele>
        <time>2021-08-08T06:14:08Z</time>
      </trkpt>
      <trkpt lat="43.70676" lon="-1.4207">
        <ele>18.4</ele>
        <time>2021-08-08T06:14:09Z</time>
      </trkpt>
      <trkpt lat="43.70703" lon="-1.42094">
        <ele>18.8</ele>
        <time>2021-08-08T06:14:15Z</time>
      </trkpt>
      <trkpt lat="43.70711" lon="-1.42105">
        <ele>19</ele>
        <time>2021-08-08T06:14:17Z</time>
      </trkpt>
      <trkpt lat="43.70727" lon="-1.42127">
        <ele>19.4</ele>
        <time>2021-08-08T06:14:21Z</time>
      </trkpt>
      <trkpt lat="43.7073" lon="-1.42134">
        <ele>19.4</ele>
        <time>2021-08-08T06:14:22Z</time>
      </trkpt>
      <trkpt lat="43.70734" lon="-1.42141">
        <ele>19.4</ele>
        <time>2021-08-08T06:14:23Z</time>
      </trkpt>
      <trkpt lat="43.70738" lon="-1.42148">
        <ele>19.6</ele>
        <time>2021-08-08T06:14:24Z</time>
      </trkpt>
      <trkpt lat="43.70741" lon="-1.42155">
        <ele>19.6</ele>
        <time>2021-08-08T06:14:25Z</time>
      </trkpt>
      <trkpt lat="43.70748" lon="-1.4217">
        <ele>19.8</ele>
        <time>2021-08-08T06:14:27Z</time>
      </trkpt>
      <trkpt lat="43.70752" lon="-1.42179">
        <ele>19.6</ele>
        <time>2021-08-08T06:14:28Z</time>
      </trkpt>
      <trkpt lat="43.70755" lon="-1.42186">
        <ele>19.6</ele>
        <time>2021-08-08T06:14:29Z</time>
      </trkpt>
      <trkpt lat="43.70759" lon="-1.42193">
        <ele>19.8</ele>
        <time>2021-08-08T06:14:30Z</time>
      </trkpt>
      <trkpt lat="43.70768" lon="-1.42205">
        <ele>19.8</ele>
        <time>2021-08-08T06:14:32Z</time>
      </trkpt>
      <trkpt lat="43.70772" lon="-1.42211">
        <ele>19.8</ele>
        <time>2021-08-08T06:14:33Z</time>
      </trkpt>
      <trkpt lat="43.70779" lon="-1.42226">
        <ele>19.6</ele>
        <time>2021-08-08T06:14:35Z</time>
      </trkpt>
      <trkpt lat="43.70784" lon="-1.42235">
        <ele>19.4</ele>
        <time>2021-08-08T06:14:36Z</time>
      </trkpt>
      <trkpt lat="43.70799" lon="-1.42255">
        <ele>19.4</ele>
        <time>2021-08-08T06:14:39Z</time>
      </trkpt>
      <trkpt lat="43.70804" lon="-1.42264">
        <ele>19.2</ele>
        <time>2021-08-08T06:14:40Z</time>
      </trkpt>
      <trkpt lat="43.70812" lon="-1.42283">
        <ele>18.8</ele>
        <time>2021-08-08T06:14:42Z</time>
      </trkpt>
      <trkpt lat="43.7082" lon="-1.42302">
        <ele>18</ele>
        <time>2021-08-08T06:14:44Z</time>
      </trkpt>
      <trkpt lat="43.70824" lon="-1.42312">
        <ele>17.6</ele>
        <time>2021-08-08T06:14:45Z</time>
      </trkpt>
      <trkpt lat="43.70835" lon="-1.42342">
        <ele>17.4</ele>
        <time>2021-08-08T06:14:48Z</time>
      </trkpt>
      <trkpt lat="43.70838" lon="-1.42352">
        <ele>17.2</ele>
        <time>2021-08-08T06:14:49Z</time>
      </trkpt>
      <trkpt lat="43.70844" lon="-1.42371">
        <ele>17</ele>
        <time>2021-08-08T06:14:51Z</time>
      </trkpt>
      <trkpt lat="43.70846" lon="-1.42381">
        <ele>17</ele>
        <time>2021-08-08T06:14:52Z</time>
      </trkpt>
      <trkpt lat="43.70848" lon="-1.4239">
        <ele>17</ele>
        <time>2021-08-08T06:14:53Z</time>
      </trkpt>
      <trkpt lat="43.70849" lon="-1.424">
        <ele>17</ele>
        <time>2021-08-08T06:14:54Z</time>
      </trkpt>
      <trkpt lat="43.70851" lon="-1.42409">
        <ele>17</ele>
        <time>2021-08-08T06:14:55Z</time>
      </trkpt>
      <trkpt lat="43.70852" lon="-1.42421">
        <ele>17</ele>
        <time>2021-08-08T06:14:56Z</time>
      </trkpt>
      <trkpt lat="43.70851" lon="-1.42449">
        <ele>17.2</ele>
        <time>2021-08-08T06:14:59Z</time>
      </trkpt>
      <trkpt lat="43.7085" lon="-1.42458">
        <ele>17.2</ele>
        <time>2021-08-08T06:15:00Z</time>
      </trkpt>
      <trkpt lat="43.70849" lon="-1.42467">
        <ele>17.2</ele>
        <time>2021-08-08T06:15:01Z</time>
      </trkpt>
      <trkpt lat="43.70848" lon="-1.42475">
        <ele>17.4</ele>
        <time>2021-08-08T06:15:02Z</time>
      </trkpt>
      <trkpt lat="43.70848" lon="-1.42482">
        <ele>17.4</ele>
        <time>2021-08-08T06:15:03Z</time>
      </trkpt>
      <trkpt lat="43.70847" lon="-1.4249">
        <ele>17.6</ele>
        <time>2021-08-08T06:15:04Z</time>
      </trkpt>
      <trkpt lat="43.70844" lon="-1.42497">
        <ele>17.6</ele>
        <time>2021-08-08T06:15:05Z</time>
      </trkpt>
      <trkpt lat="43.70842" lon="-1.42505">
        <ele>17.8</ele>
        <time>2021-08-08T06:15:06Z</time>
      </trkpt>
      <trkpt lat="43.70839" lon="-1.4252">
        <ele>18</ele>
        <time>2021-08-08T06:15:08Z</time>
      </trkpt>
      <trkpt lat="43.70837" lon="-1.42529">
        <ele>18</ele>
        <time>2021-08-08T06:15:09Z</time>
      </trkpt>
      <trkpt lat="43.70833" lon="-1.42554">
        <ele>18.4</ele>
        <time>2021-08-08T06:15:12Z</time>
      </trkpt>
      <trkpt lat="43.70829" lon="-1.42562">
        <ele>18.6</ele>
        <time>2021-08-08T06:15:13Z</time>
      </trkpt>
      <trkpt lat="43.70826" lon="-1.4257">
        <ele>18.6</ele>
        <time>2021-08-08T06:15:14Z</time>
      </trkpt>
      <trkpt lat="43.70813" lon="-1.42623">
        <ele>19</ele>
        <time>2021-08-08T06:15:20Z</time>
      </trkpt>
      <trkpt lat="43.70809" lon="-1.42639">
        <ele>19</ele>
        <time>2021-08-08T06:15:22Z</time>
      </trkpt>
      <trkpt lat="43.70806" lon="-1.42648">
        <ele>19</ele>
        <time>2021-08-08T06:15:23Z</time>
      </trkpt>
      <trkpt lat="43.70801" lon="-1.42663">
        <ele>18.8</ele>
        <time>2021-08-08T06:15:25Z</time>
      </trkpt>
      <trkpt lat="43.70797" lon="-1.42673">
        <ele>18.6</ele>
        <time>2021-08-08T06:15:26Z</time>
      </trkpt>
      <trkpt lat="43.70787" lon="-1.42689">
        <ele>18.4</ele>
        <time>2021-08-08T06:15:28Z</time>
      </trkpt>
      <trkpt lat="43.70783" lon="-1.42697">
        <ele>18.2</ele>
        <time>2021-08-08T06:15:29Z</time>
      </trkpt>
      <trkpt lat="43.70778" lon="-1.42714">
        <ele>18</ele>
        <time>2021-08-08T06:15:31Z</time>
      </trkpt>
      <trkpt lat="43.70777" lon="-1.42724">
        <ele>17.8</ele>
        <time>2021-08-08T06:15:32Z</time>
      </trkpt>
      <trkpt lat="43.70775" lon="-1.42734">
        <ele>17.4</ele>
        <time>2021-08-08T06:15:33Z</time>
      </trkpt>
      <trkpt lat="43.70766" lon="-1.42771">
        <ele>16.6</ele>
        <time>2021-08-08T06:15:37Z</time>
      </trkpt>
      <trkpt lat="43.70761" lon="-1.42779">
        <ele>16.4</ele>
        <time>2021-08-08T06:15:38Z</time>
      </trkpt>
      <trkpt lat="43.70757" lon="-1.42788">
        <ele>16.4</ele>
        <time>2021-08-08T06:15:39Z</time>
      </trkpt>
      <trkpt lat="43.70751" lon="-1.42808">
        <ele>16</ele>
        <time>2021-08-08T06:15:41Z</time>
      </trkpt>
      <trkpt lat="43.70748" lon="-1.42818">
        <ele>15.8</ele>
        <time>2021-08-08T06:15:42Z</time>
      </trkpt>
      <trkpt lat="43.70747" lon="-1.42828">
        <ele>15.6</ele>
        <time>2021-08-08T06:15:43Z</time>
      </trkpt>
      <trkpt lat="43.70746" lon="-1.42838">
        <ele>15.2</ele>
        <time>2021-08-08T06:15:44Z</time>
      </trkpt>
      <trkpt lat="43.70741" lon="-1.42879">
        <ele>14.8</ele>
        <time>2021-08-08T06:15:48Z</time>
      </trkpt>
      <trkpt lat="43.70737" lon="-1.42898">
        <ele>14.6</ele>
        <time>2021-08-08T06:15:50Z</time>
      </trkpt>
      <trkpt lat="43.70735" lon="-1.42908">
        <ele>14.4</ele>
        <time>2021-08-08T06:15:51Z</time>
      </trkpt>
      <trkpt lat="43.70734" lon="-1.42915">
        <ele>14.4</ele>
        <time>2021-08-08T06:15:52Z</time>
      </trkpt>
      <trkpt lat="43.70733" lon="-1.42921">
        <ele>14.2</ele>
        <time>2021-08-08T06:15:53Z</time>
      </trkpt>
      <trkpt lat="43.70732" lon="-1.42925">
        <ele>14.2</ele>
        <time>2021-08-08T06:15:54Z</time>
      </trkpt>
      <trkpt lat="43.70731" lon="-1.42929">
        <ele>14.2</ele>
        <time>2021-08-08T06:15:55Z</time>
      </trkpt>
      <trkpt lat="43.70729" lon="-1.42932">
        <ele>14.2</ele>
        <time>2021-08-08T06:15:56Z</time>
      </trkpt>
      <trkpt lat="43.70727" lon="-1.42935">
        <ele>14.2</ele>
        <time>2021-08-08T06:15:57Z</time>
      </trkpt>
      <trkpt lat="43.70719" lon="-1.42952">
        <ele>14.2</ele>
        <time>2021-08-08T06:16:01Z</time>
      </trkpt>
      <trkpt lat="43.70709" lon="-1.42998">
        <ele>14.4</ele>
        <time>2021-08-08T06:16:09Z</time>
      </trkpt>
      <trkpt lat="43.70709" lon="-1.43004">
        <ele>14.4</ele>
        <time>2021-08-08T06:16:10Z</time>
      </trkpt>
      <trkpt lat="43.70707" lon="-1.43008">
        <ele>14.4</ele>
        <time>2021-08-08T06:16:11Z</time>
      </trkpt>
      <trkpt lat="43.70706" lon="-1.43014">
        <ele>14.6</ele>
        <time>2021-08-08T06:16:12Z</time>
      </trkpt>
      <trkpt lat="43.70703" lon="-1.43023">
        <ele>14.6</ele>
        <time>2021-08-08T06:16:14Z</time>
      </trkpt>
      <trkpt lat="43.70698" lon="-1.43032">
        <ele>14.6</ele>
        <time>2021-08-08T06:16:16Z</time>
      </trkpt>
      <trkpt lat="43.70697" lon="-1.43035">
        <ele>14.6</ele>
        <time>2021-08-08T06:16:17Z</time>
      </trkpt>
      <trkpt lat="43.70697" lon="-1.43039">
        <ele>14.6</ele>
        <time>2021-08-08T06:16:18Z</time>
      </trkpt>
      <trkpt lat="43.70697" lon="-1.43042">
        <ele>14.4</ele>
        <time>2021-08-08T06:16:19Z</time>
      </trkpt>
      <trkpt lat="43.70697" lon="-1.43046">
        <ele>14</ele>
        <time>2021-08-08T06:16:20Z</time>
      </trkpt>
      <trkpt lat="43.70695" lon="-1.43049">
        <ele>13.6</ele>
        <time>2021-08-08T06:16:21Z</time>
      </trkpt>
      <trkpt lat="43.70693" lon="-1.43051">
        <ele>13</ele>
        <time>2021-08-08T06:16:22Z</time>
      </trkpt>
      <trkpt lat="43.70686" lon="-1.43056">
        <ele>12.6</ele>
        <time>2021-08-08T06:16:24Z</time>
      </trkpt>
      <trkpt lat="43.70683" lon="-1.43058">
        <ele>12.6</ele>
        <time>2021-08-08T06:16:25Z</time>
      </trkpt>
      <trkpt lat="43.70675" lon="-1.43064">
        <ele>12.6</ele>
        <time>2021-08-08T06:16:27Z</time>
      </trkpt>
      <trkpt lat="43.70666" lon="-1.43071">
        <ele>12.4</ele>
        <time>2021-08-08T06:16:29Z</time>
      </trkpt>
      <trkpt lat="43.70652" lon="-1.4308">
        <ele>12.4</ele>
        <time>2021-08-08T06:16:32Z</time>
      </trkpt>
      <trkpt lat="43.70634" lon="-1.43093">
        <ele>12.4</ele>
        <time>2021-08-08T06:16:36Z</time>
      </trkpt>
      <trkpt lat="43.7063" lon="-1.43097">
        <ele>12.4</ele>
        <time>2021-08-08T06:16:37Z</time>
      </trkpt>
      <trkpt lat="43.70622" lon="-1.43104">
        <ele>12.4</ele>
        <time>2021-08-08T06:16:39Z</time>
      </trkpt>
      <trkpt lat="43.70618" lon="-1.43107">
        <ele>12.4</ele>
        <time>2021-08-08T06:16:40Z</time>
      </trkpt>
      <trkpt lat="43.7061" lon="-1.43114">
        <ele>12.6</ele>
        <time>2021-08-08T06:16:42Z</time>
      </trkpt>
      <trkpt lat="43.70601" lon="-1.43121">
        <ele>12.6</ele>
        <time>2021-08-08T06:16:44Z</time>
      </trkpt>
      <trkpt lat="43.70596" lon="-1.43125">
        <ele>12.6</ele>
        <time>2021-08-08T06:16:45Z</time>
      </trkpt>
      <trkpt lat="43.70591" lon="-1.43129">
        <ele>12.8</ele>
        <time>2021-08-08T06:16:46Z</time>
      </trkpt>
      <trkpt lat="43.70559" lon="-1.4316">
        <ele>13.4</ele>
        <time>2021-08-08T06:16:53Z</time>
      </trkpt>
      <trkpt lat="43.70554" lon="-1.43164">
        <ele>13.6</ele>
        <time>2021-08-08T06:16:54Z</time>
      </trkpt>
      <trkpt lat="43.70545" lon="-1.43166">
        <ele>13.6</ele>
        <time>2021-08-08T06:16:56Z</time>
      </trkpt>
      <trkpt lat="43.7054" lon="-1.43165">
        <ele>13.6</ele>
        <time>2021-08-08T06:16:57Z</time>
      </trkpt>
      <trkpt lat="43.70536" lon="-1.43164">
        <ele>13.6</ele>
        <time>2021-08-08T06:16:58Z</time>
      </trkpt>
      <trkpt lat="43.7053" lon="-1.43165">
        <ele>13.6</ele>
        <time>2021-08-08T06:16:59Z</time>
      </trkpt>
      <trkpt lat="43.70525" lon="-1.43168">
        <ele>13.6</ele>
        <time>2021-08-08T06:17:00Z</time>
      </trkpt>
      <trkpt lat="43.70522" lon="-1.43172">
        <ele>13.6</ele>
        <time>2021-08-08T06:17:01Z</time>
      </trkpt>
      <trkpt lat="43.70518" lon="-1.43179">
        <ele>13.4</ele>
        <time>2021-08-08T06:17:02Z</time>
      </trkpt>
      <trkpt lat="43.70515" lon="-1.43192">
        <ele>13.2</ele>
        <time>2021-08-08T06:17:04Z</time>
      </trkpt>
      <trkpt lat="43.70513" lon="-1.432">
        <ele>13</ele>
        <time>2021-08-08T06:17:05Z</time>
      </trkpt>
      <trkpt lat="43.70509" lon="-1.43206">
        <ele>13</ele>
        <time>2021-08-08T06:17:06Z</time>
      </trkpt>
      <trkpt lat="43.70505" lon="-1.4321">
        <ele>13</ele>
        <time>2021-08-08T06:17:07Z</time>
      </trkpt>
      <trkpt lat="43.70501" lon="-1.43213">
        <ele>13</ele>
        <time>2021-08-08T06:17:08Z</time>
      </trkpt>
      <trkpt lat="43.70497" lon="-1.43216">
        <ele>13</ele>
        <time>2021-08-08T06:17:09Z</time>
      </trkpt>
      <trkpt lat="43.70494" lon="-1.43219">
        <ele>13.2</ele>
        <time>2021-08-08T06:17:10Z</time>
      </trkpt>
      <trkpt lat="43.70489" lon="-1.43222">
        <ele>13.4</ele>
        <time>2021-08-08T06:17:11Z</time>
      </trkpt>
      <trkpt lat="43.70486" lon="-1.43225">
        <ele>13.6</ele>
        <time>2021-08-08T06:17:12Z</time>
      </trkpt>
      <trkpt lat="43.70482" lon="-1.43227">
        <ele>13.8</ele>
        <time>2021-08-08T06:17:13Z</time>
      </trkpt>
      <trkpt lat="43.70478" lon="-1.43229">
        <ele>14</ele>
        <time>2021-08-08T06:17:14Z</time>
      </trkpt>
      <trkpt lat="43.70474" lon="-1.43232">
        <ele>14</ele>
        <time>2021-08-08T06:17:15Z</time>
      </trkpt>
      <trkpt lat="43.7047" lon="-1.43236">
        <ele>14</ele>
        <time>2021-08-08T06:17:16Z</time>
      </trkpt>
      <trkpt lat="43.7045" lon="-1.4325">
        <ele>15.4</ele>
        <time>2021-08-08T06:17:21Z</time>
      </trkpt>
      <trkpt lat="43.70438" lon="-1.43259">
        <ele>15.8</ele>
        <time>2021-08-08T06:17:24Z</time>
      </trkpt>
      <trkpt lat="43.70422" lon="-1.43273">
        <ele>16.6</ele>
        <time>2021-08-08T06:17:28Z</time>
      </trkpt>
      <trkpt lat="43.70416" lon="-1.43277">
        <ele>16.6</ele>
        <time>2021-08-08T06:17:29Z</time>
      </trkpt>
      <trkpt lat="43.70411" lon="-1.4328">
        <ele>16.8</ele>
        <time>2021-08-08T06:17:30Z</time>
      </trkpt>
      <trkpt lat="43.70406" lon="-1.43284">
        <ele>17</ele>
        <time>2021-08-08T06:17:31Z</time>
      </trkpt>
      <trkpt lat="43.70403" lon="-1.43287">
        <ele>17.4</ele>
        <time>2021-08-08T06:17:32Z</time>
      </trkpt>
      <trkpt lat="43.70397" lon="-1.4329">
        <ele>17.4</ele>
        <time>2021-08-08T06:17:33Z</time>
      </trkpt>
      <trkpt lat="43.70391" lon="-1.43294">
        <ele>17.6</ele>
        <time>2021-08-08T06:17:34Z</time>
      </trkpt>
      <trkpt lat="43.70386" lon="-1.43298">
        <ele>17.6</ele>
        <time>2021-08-08T06:17:35Z</time>
      </trkpt>
      <trkpt lat="43.70381" lon="-1.43301">
        <ele>17.6</ele>
        <time>2021-08-08T06:17:36Z</time>
      </trkpt>
      <trkpt lat="43.70375" lon="-1.43304">
        <ele>17.6</ele>
        <time>2021-08-08T06:17:37Z</time>
      </trkpt>
      <trkpt lat="43.7037" lon="-1.43306">
        <ele>17.6</ele>
        <time>2021-08-08T06:17:38Z</time>
      </trkpt>
      <trkpt lat="43.70364" lon="-1.43309">
        <ele>17.6</ele>
        <time>2021-08-08T06:17:39Z</time>
      </trkpt>
      <trkpt lat="43.70359" lon="-1.43312">
        <ele>17.6</ele>
        <time>2021-08-08T06:17:40Z</time>
      </trkpt>
      <trkpt lat="43.70354" lon="-1.43315">
        <ele>17.6</ele>
        <time>2021-08-08T06:17:41Z</time>
      </trkpt>
      <trkpt lat="43.70348" lon="-1.43317">
        <ele>17.6</ele>
        <time>2021-08-08T06:17:42Z</time>
      </trkpt>
      <trkpt lat="43.70343" lon="-1.43321">
        <ele>17.4</ele>
        <time>2021-08-08T06:17:43Z</time>
      </trkpt>
      <trkpt lat="43.70337" lon="-1.43324">
        <ele>17.2</ele>
        <time>2021-08-08T06:17:44Z</time>
      </trkpt>
      <trkpt lat="43.70332" lon="-1.43326">
        <ele>17</ele>
        <time>2021-08-08T06:17:45Z</time>
      </trkpt>
      <trkpt lat="43.70326" lon="-1.43326">
        <ele>17</ele>
        <time>2021-08-08T06:17:46Z</time>
      </trkpt>
      <trkpt lat="43.70301" lon="-1.43324">
        <ele>16.4</ele>
        <time>2021-08-08T06:17:50Z</time>
      </trkpt>
      <trkpt lat="43.70295" lon="-1.43326">
        <ele>16</ele>
        <time>2021-08-08T06:17:51Z</time>
      </trkpt>
      <trkpt lat="43.7029" lon="-1.43331">
        <ele>15.8</ele>
        <time>2021-08-08T06:17:52Z</time>
      </trkpt>
      <trkpt lat="43.70287" lon="-1.43336">
        <ele>15.4</ele>
        <time>2021-08-08T06:17:53Z</time>
      </trkpt>
      <trkpt lat="43.70283" lon="-1.4334">
        <ele>15</ele>
        <time>2021-08-08T06:17:54Z</time>
      </trkpt>
      <trkpt lat="43.70277" lon="-1.43343">
        <ele>14.4</ele>
        <time>2021-08-08T06:17:55Z</time>
      </trkpt>
      <trkpt lat="43.70271" lon="-1.43344">
        <ele>13.8</ele>
        <time>2021-08-08T06:17:56Z</time>
      </trkpt>
      <trkpt lat="43.70265" lon="-1.43345">
        <ele>13.6</ele>
        <time>2021-08-08T06:17:57Z</time>
      </trkpt>
      <trkpt lat="43.70258" lon="-1.43346">
        <ele>13.2</ele>
        <time>2021-08-08T06:17:58Z</time>
      </trkpt>
      <trkpt lat="43.70211" lon="-1.43349">
        <ele>12.6</ele>
        <time>2021-08-08T06:18:05Z</time>
      </trkpt>
      <trkpt lat="43.70205" lon="-1.43349">
        <ele>12.6</ele>
        <time>2021-08-08T06:18:06Z</time>
      </trkpt>
      <trkpt lat="43.70199" lon="-1.43349">
        <ele>12.6</ele>
        <time>2021-08-08T06:18:07Z</time>
      </trkpt>
      <trkpt lat="43.70193" lon="-1.43348">
        <ele>12.6</ele>
        <time>2021-08-08T06:18:08Z</time>
      </trkpt>
      <trkpt lat="43.70188" lon="-1.43348">
        <ele>12.6</ele>
        <time>2021-08-08T06:18:09Z</time>
      </trkpt>
      <trkpt lat="43.70172" lon="-1.43348">
        <ele>13.4</ele>
        <time>2021-08-08T06:18:12Z</time>
      </trkpt>
      <trkpt lat="43.70167" lon="-1.43348">
        <ele>13.6</ele>
        <time>2021-08-08T06:18:13Z</time>
      </trkpt>
      <trkpt lat="43.70162" lon="-1.43347">
        <ele>13.8</ele>
        <time>2021-08-08T06:18:14Z</time>
      </trkpt>
      <trkpt lat="43.70156" lon="-1.43347">
        <ele>14.2</ele>
        <time>2021-08-08T06:18:15Z</time>
      </trkpt>
      <trkpt lat="43.7015" lon="-1.43347">
        <ele>14.4</ele>
        <time>2021-08-08T06:18:16Z</time>
      </trkpt>
      <trkpt lat="43.70137" lon="-1.43348">
        <ele>15</ele>
        <time>2021-08-08T06:18:18Z</time>
      </trkpt>
      <trkpt lat="43.7013" lon="-1.43348">
        <ele>15.2</ele>
        <time>2021-08-08T06:18:19Z</time>
      </trkpt>
      <trkpt lat="43.70117" lon="-1.43349">
        <ele>15.4</ele>
        <time>2021-08-08T06:18:21Z</time>
      </trkpt>
      <trkpt lat="43.70111" lon="-1.43349">
        <ele>15.6</ele>
        <time>2021-08-08T06:18:22Z</time>
      </trkpt>
      <trkpt lat="43.70105" lon="-1.43349">
        <ele>15.6</ele>
        <time>2021-08-08T06:18:23Z</time>
      </trkpt>
      <trkpt lat="43.70085" lon="-1.43349">
        <ele>16</ele>
        <time>2021-08-08T06:18:26Z</time>
      </trkpt>
      <trkpt lat="43.7006" lon="-1.43351">
        <ele>16.4</ele>
        <time>2021-08-08T06:18:30Z</time>
      </trkpt>
      <trkpt lat="43.70041" lon="-1.43352">
        <ele>16.4</ele>
        <time>2021-08-08T06:18:33Z</time>
      </trkpt>
      <trkpt lat="43.70034" lon="-1.43353">
        <ele>16.6</ele>
        <time>2021-08-08T06:18:34Z</time>
      </trkpt>
      <trkpt lat="43.70028" lon="-1.43354">
        <ele>16.6</ele>
        <time>2021-08-08T06:18:35Z</time>
      </trkpt>
      <trkpt lat="43.70022" lon="-1.43355">
        <ele>16.8</ele>
        <time>2021-08-08T06:18:36Z</time>
      </trkpt>
      <trkpt lat="43.70016" lon="-1.43355">
        <ele>16.8</ele>
        <time>2021-08-08T06:18:37Z</time>
      </trkpt>
      <trkpt lat="43.7001" lon="-1.43356">
        <ele>17</ele>
        <time>2021-08-08T06:18:38Z</time>
      </trkpt>
      <trkpt lat="43.70004" lon="-1.43356">
        <ele>17</ele>
        <time>2021-08-08T06:18:39Z</time>
      </trkpt>
      <trkpt lat="43.69998" lon="-1.43355">
        <ele>17</ele>
        <time>2021-08-08T06:18:40Z</time>
      </trkpt>
      <trkpt lat="43.69994" lon="-1.43352">
        <ele>17.2</ele>
        <time>2021-08-08T06:18:41Z</time>
      </trkpt>
      <trkpt lat="43.6999" lon="-1.43348">
        <ele>17.2</ele>
        <time>2021-08-08T06:18:42Z</time>
      </trkpt>
      <trkpt lat="43.69984" lon="-1.43343">
        <ele>17.2</ele>
        <time>2021-08-08T06:18:43Z</time>
      </trkpt>
      <trkpt lat="43.69979" lon="-1.4334">
        <ele>17.2</ele>
        <time>2021-08-08T06:18:44Z</time>
      </trkpt>
      <trkpt lat="43.69974" lon="-1.43338">
        <ele>17.2</ele>
        <time>2021-08-08T06:18:45Z</time>
      </trkpt>
      <trkpt lat="43.69968" lon="-1.43338">
        <ele>17.2</ele>
        <time>2021-08-08T06:18:46Z</time>
      </trkpt>
      <trkpt lat="43.69962" lon="-1.4334">
        <ele>17</ele>
        <time>2021-08-08T06:18:47Z</time>
      </trkpt>
      <trkpt lat="43.69956" lon="-1.43344">
        <ele>17</ele>
        <time>2021-08-08T06:18:48Z</time>
      </trkpt>
      <trkpt lat="43.69951" lon="-1.4335">
        <ele>16.4</ele>
        <time>2021-08-08T06:18:49Z</time>
      </trkpt>
      <trkpt lat="43.69947" lon="-1.43356">
        <ele>16.4</ele>
        <time>2021-08-08T06:18:50Z</time>
      </trkpt>
      <trkpt lat="43.69941" lon="-1.4336">
        <ele>16.2</ele>
        <time>2021-08-08T06:18:51Z</time>
      </trkpt>
      <trkpt lat="43.69929" lon="-1.43365">
        <ele>16</ele>
        <time>2021-08-08T06:18:53Z</time>
      </trkpt>
      <trkpt lat="43.69923" lon="-1.43366">
        <ele>15.8</ele>
        <time>2021-08-08T06:18:54Z</time>
      </trkpt>
      <trkpt lat="43.69914" lon="-1.43366">
        <ele>15.6</ele>
        <time>2021-08-08T06:18:55Z</time>
      </trkpt>
      <trkpt lat="43.69905" lon="-1.43366">
        <ele>15.4</ele>
        <time>2021-08-08T06:18:56Z</time>
      </trkpt>
      <trkpt lat="43.69881" lon="-1.43367">
        <ele>14.2</ele>
        <time>2021-08-08T06:18:59Z</time>
      </trkpt>
      <trkpt lat="43.69874" lon="-1.43365">
        <ele>13.8</ele>
        <time>2021-08-08T06:19:00Z</time>
      </trkpt>
      <trkpt lat="43.69866" lon="-1.43365">
        <ele>13.2</ele>
        <time>2021-08-08T06:19:01Z</time>
      </trkpt>
      <trkpt lat="43.69859" lon="-1.43367">
        <ele>12.8</ele>
        <time>2021-08-08T06:19:02Z</time>
      </trkpt>
      <trkpt lat="43.69853" lon="-1.43369">
        <ele>12.8</ele>
        <time>2021-08-08T06:19:03Z</time>
      </trkpt>
      <trkpt lat="43.69847" lon="-1.4337">
        <ele>12.6</ele>
        <time>2021-08-08T06:19:04Z</time>
      </trkpt>
      <trkpt lat="43.69841" lon="-1.4337">
        <ele>12.4</ele>
        <time>2021-08-08T06:19:05Z</time>
      </trkpt>
      <trkpt lat="43.69836" lon="-1.43366">
        <ele>12.2</ele>
        <time>2021-08-08T06:19:06Z</time>
      </trkpt>
      <trkpt lat="43.69834" lon="-1.4336">
        <ele>12.2</ele>
        <time>2021-08-08T06:19:07Z</time>
      </trkpt>
      <trkpt lat="43.69832" lon="-1.43355">
        <ele>12</ele>
        <time>2021-08-08T06:19:08Z</time>
      </trkpt>
      <trkpt lat="43.69827" lon="-1.43347">
        <ele>12</ele>
        <time>2021-08-08T06:19:09Z</time>
      </trkpt>
      <trkpt lat="43.69822" lon="-1.43342">
        <ele>12</ele>
        <time>2021-08-08T06:19:10Z</time>
      </trkpt>
      <trkpt lat="43.69812" lon="-1.4334">
        <ele>12</ele>
        <time>2021-08-08T06:19:12Z</time>
      </trkpt>
      <trkpt lat="43.69807" lon="-1.43341">
        <ele>12</ele>
        <time>2021-08-08T06:19:13Z</time>
      </trkpt>
      <trkpt lat="43.69801" lon="-1.43341">
        <ele>12</ele>
        <time>2021-08-08T06:19:14Z</time>
      </trkpt>
      <trkpt lat="43.69796" lon="-1.43342">
        <ele>12</ele>
        <time>2021-08-08T06:19:15Z</time>
      </trkpt>
      <trkpt lat="43.69791" lon="-1.43343">
        <ele>12</ele>
        <time>2021-08-08T06:19:16Z</time>
      </trkpt>
      <trkpt lat="43.69781" lon="-1.43348">
        <ele>12.2</ele>
        <time>2021-08-08T06:19:18Z</time>
      </trkpt>
      <trkpt lat="43.69778" lon="-1.43353">
        <ele>12.4</ele>
        <time>2021-08-08T06:19:19Z</time>
      </trkpt>
      <trkpt lat="43.69778" lon="-1.43358">
        <ele>12.4</ele>
        <time>2021-08-08T06:19:20Z</time>
      </trkpt>
      <trkpt lat="43.69778" lon="-1.43364">
        <ele>12.4</ele>
        <time>2021-08-08T06:19:21Z</time>
      </trkpt>
      <trkpt lat="43.69777" lon="-1.43369">
        <ele>12.6</ele>
        <time>2021-08-08T06:19:22Z</time>
      </trkpt>
      <trkpt lat="43.69774" lon="-1.43374">
        <ele>12.8</ele>
        <time>2021-08-08T06:19:23Z</time>
      </trkpt>
      <trkpt lat="43.69771" lon="-1.43377">
        <ele>12.8</ele>
        <time>2021-08-08T06:19:24Z</time>
      </trkpt>
      <trkpt lat="43.69764" lon="-1.43378">
        <ele>13</ele>
        <time>2021-08-08T06:19:26Z</time>
      </trkpt>
      <trkpt lat="43.69758" lon="-1.43378">
        <ele>13.2</ele>
        <time>2021-08-08T06:19:27Z</time>
      </trkpt>
      <trkpt lat="43.69754" lon="-1.43378">
        <ele>13.2</ele>
        <time>2021-08-08T06:19:28Z</time>
      </trkpt>
      <trkpt lat="43.69746" lon="-1.43378">
        <ele>13.4</ele>
        <time>2021-08-08T06:19:30Z</time>
      </trkpt>
      <trkpt lat="43.69736" lon="-1.43379">
        <ele>13.8</ele>
        <time>2021-08-08T06:19:32Z</time>
      </trkpt>
      <trkpt lat="43.69726" lon="-1.43379">
        <ele>14</ele>
        <time>2021-08-08T06:19:34Z</time>
      </trkpt>
      <trkpt lat="43.69708" lon="-1.43382">
        <ele>14.4</ele>
        <time>2021-08-08T06:19:37Z</time>
      </trkpt>
      <trkpt lat="43.69696" lon="-1.43384">
        <ele>14.6</ele>
        <time>2021-08-08T06:19:39Z</time>
      </trkpt>
      <trkpt lat="43.69659" lon="-1.43387">
        <ele>15.2</ele>
        <time>2021-08-08T06:19:45Z</time>
      </trkpt>
      <trkpt lat="43.69642" lon="-1.43393">
        <ele>15.4</ele>
        <time>2021-08-08T06:19:48Z</time>
      </trkpt>
      <trkpt lat="43.6963" lon="-1.434">
        <ele>15.6</ele>
        <time>2021-08-08T06:19:50Z</time>
      </trkpt>
      <trkpt lat="43.69606" lon="-1.43424">
        <ele>15.8</ele>
        <time>2021-08-08T06:19:55Z</time>
      </trkpt>
      <trkpt lat="43.69602" lon="-1.43431">
        <ele>15.8</ele>
        <time>2021-08-08T06:19:56Z</time>
      </trkpt>
      <trkpt lat="43.69599" lon="-1.43436">
        <ele>15.8</ele>
        <time>2021-08-08T06:19:57Z</time>
      </trkpt>
      <trkpt lat="43.69591" lon="-1.43459">
        <ele>16</ele>
        <time>2021-08-08T06:20:00Z</time>
      </trkpt>
      <trkpt lat="43.69589" lon="-1.43465">
        <ele>16.4</ele>
        <time>2021-08-08T06:20:01Z</time>
      </trkpt>
      <trkpt lat="43.69587" lon="-1.43471">
        <ele>16.6</ele>
        <time>2021-08-08T06:20:02Z</time>
      </trkpt>
      <trkpt lat="43.69585" lon="-1.43478">
        <ele>17</ele>
        <time>2021-08-08T06:20:03Z</time>
      </trkpt>
      <trkpt lat="43.69583" lon="-1.43484">
        <ele>17.2</ele>
        <time>2021-08-08T06:20:04Z</time>
      </trkpt>
      <trkpt lat="43.69582" lon="-1.4349">
        <ele>17.4</ele>
        <time>2021-08-08T06:20:05Z</time>
      </trkpt>
      <trkpt lat="43.6958" lon="-1.43502">
        <ele>17.8</ele>
        <time>2021-08-08T06:20:07Z</time>
      </trkpt>
      <trkpt lat="43.69579" lon="-1.4351">
        <ele>18</ele>
        <time>2021-08-08T06:20:08Z</time>
      </trkpt>
      <trkpt lat="43.69577" lon="-1.43516">
        <ele>18.4</ele>
        <time>2021-08-08T06:20:09Z</time>
      </trkpt>
      <trkpt lat="43.69576" lon="-1.43522">
        <ele>18.6</ele>
        <time>2021-08-08T06:20:10Z</time>
      </trkpt>
      <trkpt lat="43.69574" lon="-1.43527">
        <ele>18.8</ele>
        <time>2021-08-08T06:20:11Z</time>
      </trkpt>
      <trkpt lat="43.69572" lon="-1.43534">
        <ele>19</ele>
        <time>2021-08-08T06:20:12Z</time>
      </trkpt>
      <trkpt lat="43.6957" lon="-1.4354">
        <ele>19.2</ele>
        <time>2021-08-08T06:20:13Z</time>
      </trkpt>
      <trkpt lat="43.69568" lon="-1.43546">
        <ele>19.4</ele>
        <time>2021-08-08T06:20:14Z</time>
      </trkpt>
      <trkpt lat="43.69567" lon="-1.4355">
        <ele>19.6</ele>
        <time>2021-08-08T06:20:15Z</time>
      </trkpt>
      <trkpt lat="43.69564" lon="-1.43557">
        <ele>19.6</ele>
        <time>2021-08-08T06:20:16Z</time>
      </trkpt>
      <trkpt lat="43.69562" lon="-1.43562">
        <ele>19.6</ele>
        <time>2021-08-08T06:20:17Z</time>
      </trkpt>
      <trkpt lat="43.69559" lon="-1.43566">
        <ele>19.6</ele>
        <time>2021-08-08T06:20:18Z</time>
      </trkpt>
      <trkpt lat="43.69556" lon="-1.43571">
        <ele>20</ele>
        <time>2021-08-08T06:20:19Z</time>
      </trkpt>
      <trkpt lat="43.69555" lon="-1.43576">
        <ele>19.8</ele>
        <time>2021-08-08T06:20:20Z</time>
      </trkpt>
      <trkpt lat="43.69555" lon="-1.4358">
        <ele>19.8</ele>
        <time>2021-08-08T06:20:21Z</time>
      </trkpt>
      <trkpt lat="43.69557" lon="-1.43583">
        <ele>19.8</ele>
        <time>2021-08-08T06:20:22Z</time>
      </trkpt>
      <trkpt lat="43.69559" lon="-1.43586">
        <ele>20</ele>
        <time>2021-08-08T06:20:23Z</time>
      </trkpt>
      <trkpt lat="43.69562" lon="-1.43589">
        <ele>20</ele>
        <time>2021-08-08T06:20:24Z</time>
      </trkpt>
      <trkpt lat="43.69564" lon="-1.43593">
        <ele>20</ele>
        <time>2021-08-08T06:20:25Z</time>
      </trkpt>
      <trkpt lat="43.69565" lon="-1.43597">
        <ele>20</ele>
        <time>2021-08-08T06:20:26Z</time>
      </trkpt>
      <trkpt lat="43.69564" lon="-1.43601">
        <ele>20</ele>
        <time>2021-08-08T06:20:27Z</time>
      </trkpt>
      <trkpt lat="43.69563" lon="-1.43605">
        <ele>20.2</ele>
        <time>2021-08-08T06:20:28Z</time>
      </trkpt>
      <trkpt lat="43.6956" lon="-1.43608">
        <ele>20.2</ele>
        <time>2021-08-08T06:20:29Z</time>
      </trkpt>
      <trkpt lat="43.69556" lon="-1.43611">
        <ele>20.4</ele>
        <time>2021-08-08T06:20:30Z</time>
      </trkpt>
      <trkpt lat="43.69552" lon="-1.43614">
        <ele>20.6</ele>
        <time>2021-08-08T06:20:31Z</time>
      </trkpt>
      <trkpt lat="43.69548" lon="-1.43617">
        <ele>20.6</ele>
        <time>2021-08-08T06:20:32Z</time>
      </trkpt>
      <trkpt lat="43.69543" lon="-1.4362">
        <ele>20.6</ele>
        <time>2021-08-08T06:20:33Z</time>
      </trkpt>
      <trkpt lat="43.69528" lon="-1.43626">
        <ele>20.6</ele>
        <time>2021-08-08T06:20:36Z</time>
      </trkpt>
      <trkpt lat="43.6949" lon="-1.4363">
        <ele>20.2</ele>
        <time>2021-08-08T06:20:42Z</time>
      </trkpt>
      <trkpt lat="43.69476" lon="-1.43629">
        <ele>20</ele>
        <time>2021-08-08T06:20:44Z</time>
      </trkpt>
      <trkpt lat="43.69462" lon="-1.43624">
        <ele>19.6</ele>
        <time>2021-08-08T06:20:46Z</time>
      </trkpt>
      <trkpt lat="43.69432" lon="-1.43608">
        <ele>18.6</ele>
        <time>2021-08-08T06:20:50Z</time>
      </trkpt>
      <trkpt lat="43.69416" lon="-1.43599">
        <ele>17.8</ele>
        <time>2021-08-08T06:20:52Z</time>
      </trkpt>
      <trkpt lat="43.69399" lon="-1.43592">
        <ele>17.4</ele>
        <time>2021-08-08T06:20:54Z</time>
      </trkpt>
      <trkpt lat="43.69381" lon="-1.43587">
        <ele>16.4</ele>
        <time>2021-08-08T06:20:56Z</time>
      </trkpt>
      <trkpt lat="43.69373" lon="-1.43586">
        <ele>16.2</ele>
        <time>2021-08-08T06:20:57Z</time>
      </trkpt>
      <trkpt lat="43.69365" lon="-1.43586">
        <ele>15.4</ele>
        <time>2021-08-08T06:20:58Z</time>
      </trkpt>
      <trkpt lat="43.69357" lon="-1.43586">
        <ele>15.2</ele>
        <time>2021-08-08T06:20:59Z</time>
      </trkpt>
      <trkpt lat="43.69351" lon="-1.43587">
        <ele>14.8</ele>
        <time>2021-08-08T06:21:00Z</time>
      </trkpt>
      <trkpt lat="43.69344" lon="-1.43588">
        <ele>14.6</ele>
        <time>2021-08-08T06:21:01Z</time>
      </trkpt>
      <trkpt lat="43.69338" lon="-1.43589">
        <ele>14.6</ele>
        <time>2021-08-08T06:21:02Z</time>
      </trkpt>
      <trkpt lat="43.69332" lon="-1.43591">
        <ele>14.6</ele>
        <time>2021-08-08T06:21:03Z</time>
      </trkpt>
      <trkpt lat="43.69326" lon="-1.43593">
        <ele>14.6</ele>
        <time>2021-08-08T06:21:04Z</time>
      </trkpt>
      <trkpt lat="43.6932" lon="-1.43595">
        <ele>14.6</ele>
        <time>2021-08-08T06:21:05Z</time>
      </trkpt>
      <trkpt lat="43.69314" lon="-1.43597">
        <ele>14.6</ele>
        <time>2021-08-08T06:21:06Z</time>
      </trkpt>
      <trkpt lat="43.69308" lon="-1.43599">
        <ele>15</ele>
        <time>2021-08-08T06:21:07Z</time>
      </trkpt>
      <trkpt lat="43.69292" lon="-1.43605">
        <ele>15.8</ele>
        <time>2021-08-08T06:21:10Z</time>
      </trkpt>
      <trkpt lat="43.69287" lon="-1.43606">
        <ele>16.2</ele>
        <time>2021-08-08T06:21:11Z</time>
      </trkpt>
      <trkpt lat="43.69282" lon="-1.43607">
        <ele>16.4</ele>
        <time>2021-08-08T06:21:12Z</time>
      </trkpt>
      <trkpt lat="43.69276" lon="-1.43608">
        <ele>16.6</ele>
        <time>2021-08-08T06:21:13Z</time>
      </trkpt>
      <trkpt lat="43.69271" lon="-1.43609">
        <ele>16.8</ele>
        <time>2021-08-08T06:21:14Z</time>
      </trkpt>
      <trkpt lat="43.69265" lon="-1.43609">
        <ele>17</ele>
        <time>2021-08-08T06:21:15Z</time>
      </trkpt>
      <trkpt lat="43.69252" lon="-1.43609">
        <ele>17.2</ele>
        <time>2021-08-08T06:21:17Z</time>
      </trkpt>
      <trkpt lat="43.69238" lon="-1.43606">
        <ele>17.2</ele>
        <time>2021-08-08T06:21:19Z</time>
      </trkpt>
      <trkpt lat="43.69192" lon="-1.43596">
        <ele>16.8</ele>
        <time>2021-08-08T06:21:25Z</time>
      </trkpt>
      <trkpt lat="43.69185" lon="-1.43594">
        <ele>16.6</ele>
        <time>2021-08-08T06:21:26Z</time>
      </trkpt>
      <trkpt lat="43.69178" lon="-1.43592">
        <ele>16.6</ele>
        <time>2021-08-08T06:21:27Z</time>
      </trkpt>
      <trkpt lat="43.6917" lon="-1.43592">
        <ele>16.4</ele>
        <time>2021-08-08T06:21:28Z</time>
      </trkpt>
      <trkpt lat="43.69157" lon="-1.43595">
        <ele>16.2</ele>
        <time>2021-08-08T06:21:30Z</time>
      </trkpt>
      <trkpt lat="43.69151" lon="-1.43598">
        <ele>16.2</ele>
        <time>2021-08-08T06:21:31Z</time>
      </trkpt>
      <trkpt lat="43.69147" lon="-1.43602">
        <ele>16.2</ele>
        <time>2021-08-08T06:21:32Z</time>
      </trkpt>
      <trkpt lat="43.69143" lon="-1.43607">
        <ele>16.2</ele>
        <time>2021-08-08T06:21:33Z</time>
      </trkpt>
      <trkpt lat="43.69139" lon="-1.43611">
        <ele>16</ele>
        <time>2021-08-08T06:21:34Z</time>
      </trkpt>
      <trkpt lat="43.69134" lon="-1.43614">
        <ele>15.8</ele>
        <time>2021-08-08T06:21:35Z</time>
      </trkpt>
      <trkpt lat="43.69128" lon="-1.43615">
        <ele>15.8</ele>
        <time>2021-08-08T06:21:36Z</time>
      </trkpt>
      <trkpt lat="43.69123" lon="-1.43616">
        <ele>15.6</ele>
        <time>2021-08-08T06:21:37Z</time>
      </trkpt>
      <trkpt lat="43.69117" lon="-1.43617">
        <ele>15.6</ele>
        <time>2021-08-08T06:21:38Z</time>
      </trkpt>
      <trkpt lat="43.69087" lon="-1.43621">
        <ele>15.4</ele>
        <time>2021-08-08T06:21:43Z</time>
      </trkpt>
      <trkpt lat="43.69082" lon="-1.43624">
        <ele>15.4</ele>
        <time>2021-08-08T06:21:44Z</time>
      </trkpt>
      <trkpt lat="43.69073" lon="-1.43629">
        <ele>15.4</ele>
        <time>2021-08-08T06:21:46Z</time>
      </trkpt>
      <trkpt lat="43.69069" lon="-1.43629">
        <ele>15.4</ele>
        <time>2021-08-08T06:21:47Z</time>
      </trkpt>
      <trkpt lat="43.69064" lon="-1.43626">
        <ele>15.4</ele>
        <time>2021-08-08T06:21:48Z</time>
      </trkpt>
      <trkpt lat="43.6906" lon="-1.43623">
        <ele>15.2</ele>
        <time>2021-08-08T06:21:49Z</time>
      </trkpt>
      <trkpt lat="43.69056" lon="-1.43621">
        <ele>15.2</ele>
        <time>2021-08-08T06:21:50Z</time>
      </trkpt>
      <trkpt lat="43.69052" lon="-1.43621">
        <ele>15.2</ele>
        <time>2021-08-08T06:21:51Z</time>
      </trkpt>
      <trkpt lat="43.69049" lon="-1.43621">
        <ele>15.2</ele>
        <time>2021-08-08T06:21:52Z</time>
      </trkpt>
      <trkpt lat="43.69044" lon="-1.43623">
        <ele>15</ele>
        <time>2021-08-08T06:21:53Z</time>
      </trkpt>
      <trkpt lat="43.69039" lon="-1.43625">
        <ele>15</ele>
        <time>2021-08-08T06:21:54Z</time>
      </trkpt>
      <trkpt lat="43.69034" lon="-1.43627">
        <ele>15</ele>
        <time>2021-08-08T06:21:55Z</time>
      </trkpt>
      <trkpt lat="43.69023" lon="-1.43632">
        <ele>15</ele>
        <time>2021-08-08T06:21:57Z</time>
      </trkpt>
      <trkpt lat="43.69006" lon="-1.43637">
        <ele>14.8</ele>
        <time>2021-08-08T06:22:00Z</time>
      </trkpt>
      <trkpt lat="43.68952" lon="-1.43649">
        <ele>15.2</ele>
        <time>2021-08-08T06:22:08Z</time>
      </trkpt>
      <trkpt lat="43.68923" lon="-1.43656">
        <ele>15.2</ele>
        <time>2021-08-08T06:22:12Z</time>
      </trkpt>
      <trkpt lat="43.68916" lon="-1.43658">
        <ele>15.2</ele>
        <time>2021-08-08T06:22:13Z</time>
      </trkpt>
      <trkpt lat="43.68909" lon="-1.43659">
        <ele>15.2</ele>
        <time>2021-08-08T06:22:14Z</time>
      </trkpt>
      <trkpt lat="43.6885" lon="-1.43674">
        <ele>14.8</ele>
        <time>2021-08-08T06:22:22Z</time>
      </trkpt>
      <trkpt lat="43.68808" lon="-1.43686">
        <ele>14.6</ele>
        <time>2021-08-08T06:22:28Z</time>
      </trkpt>
      <trkpt lat="43.68801" lon="-1.43687">
        <ele>14.6</ele>
        <time>2021-08-08T06:22:29Z</time>
      </trkpt>
      <trkpt lat="43.68794" lon="-1.43687">
        <ele>14.6</ele>
        <time>2021-08-08T06:22:30Z</time>
      </trkpt>
      <trkpt lat="43.68787" lon="-1.43687">
        <ele>14.6</ele>
        <time>2021-08-08T06:22:31Z</time>
      </trkpt>
      <trkpt lat="43.6878" lon="-1.43688">
        <ele>14.6</ele>
        <time>2021-08-08T06:22:32Z</time>
      </trkpt>
      <trkpt lat="43.68757" lon="-1.43688">
        <ele>14.6</ele>
        <time>2021-08-08T06:22:35Z</time>
      </trkpt>
      <trkpt lat="43.68748" lon="-1.43687">
        <ele>14.4</ele>
        <time>2021-08-08T06:22:36Z</time>
      </trkpt>
      <trkpt lat="43.68725" lon="-1.43685">
        <ele>14.2</ele>
        <time>2021-08-08T06:22:39Z</time>
      </trkpt>
      <trkpt lat="43.68719" lon="-1.43686">
        <ele>13.8</ele>
        <time>2021-08-08T06:22:40Z</time>
      </trkpt>
      <trkpt lat="43.68713" lon="-1.43686">
        <ele>13.4</ele>
        <time>2021-08-08T06:22:41Z</time>
      </trkpt>
      <trkpt lat="43.68707" lon="-1.43685">
        <ele>13.2</ele>
        <time>2021-08-08T06:22:42Z</time>
      </trkpt>
      <trkpt lat="43.68703" lon="-1.43684">
        <ele>13.2</ele>
        <time>2021-08-08T06:22:43Z</time>
      </trkpt>
      <trkpt lat="43.68699" lon="-1.43684">
        <ele>13.2</ele>
        <time>2021-08-08T06:22:44Z</time>
      </trkpt>
      <trkpt lat="43.68695" lon="-1.43682">
        <ele>13.2</ele>
        <time>2021-08-08T06:22:45Z</time>
      </trkpt>
      <trkpt lat="43.68691" lon="-1.43679">
        <ele>13</ele>
        <time>2021-08-08T06:22:46Z</time>
      </trkpt>
      <trkpt lat="43.68687" lon="-1.43676">
        <ele>13</ele>
        <time>2021-08-08T06:22:47Z</time>
      </trkpt>
      <trkpt lat="43.68683" lon="-1.43675">
        <ele>13</ele>
        <time>2021-08-08T06:22:48Z</time>
      </trkpt>
      <trkpt lat="43.68678" lon="-1.43674">
        <ele>12.8</ele>
        <time>2021-08-08T06:22:49Z</time>
      </trkpt>
      <trkpt lat="43.68674" lon="-1.43674">
        <ele>12.8</ele>
        <time>2021-08-08T06:22:50Z</time>
      </trkpt>
      <trkpt lat="43.68669" lon="-1.43675">
        <ele>12.8</ele>
        <time>2021-08-08T06:22:51Z</time>
      </trkpt>
      <trkpt lat="43.68664" lon="-1.43675">
        <ele>12.6</ele>
        <time>2021-08-08T06:22:52Z</time>
      </trkpt>
      <trkpt lat="43.6866" lon="-1.43676">
        <ele>12.6</ele>
        <time>2021-08-08T06:22:53Z</time>
      </trkpt>
      <trkpt lat="43.68656" lon="-1.43677">
        <ele>12.6</ele>
        <time>2021-08-08T06:22:54Z</time>
      </trkpt>
      <trkpt lat="43.68652" lon="-1.43677">
        <ele>12.4</ele>
        <time>2021-08-08T06:22:55Z</time>
      </trkpt>
      <trkpt lat="43.68647" lon="-1.43678">
        <ele>12.4</ele>
        <time>2021-08-08T06:22:56Z</time>
      </trkpt>
      <trkpt lat="43.68638" lon="-1.43681">
        <ele>12.4</ele>
        <time>2021-08-08T06:22:58Z</time>
      </trkpt>
      <trkpt lat="43.68603" lon="-1.43692">
        <ele>12.6</ele>
        <time>2021-08-08T06:23:05Z</time>
      </trkpt>
      <trkpt lat="43.68556" lon="-1.43705">
        <ele>13.2</ele>
        <time>2021-08-08T06:23:14Z</time>
      </trkpt>
      <trkpt lat="43.68535" lon="-1.43702">
        <ele>13.4</ele>
        <time>2021-08-08T06:23:17Z</time>
      </trkpt>
      <trkpt lat="43.68514" lon="-1.43698">
        <ele>13.2</ele>
        <time>2021-08-08T06:23:20Z</time>
      </trkpt>
      <trkpt lat="43.68472" lon="-1.4369">
        <ele>12.8</ele>
        <time>2021-08-08T06:23:26Z</time>
      </trkpt>
      <trkpt lat="43.68416" lon="-1.43679">
        <ele>12.6</ele>
        <time>2021-08-08T06:23:34Z</time>
      </trkpt>
      <trkpt lat="43.68409" lon="-1.43677">
        <ele>12.6</ele>
        <time>2021-08-08T06:23:35Z</time>
      </trkpt>
      <trkpt lat="43.68388" lon="-1.43673">
        <ele>12.4</ele>
        <time>2021-08-08T06:23:38Z</time>
      </trkpt>
      <trkpt lat="43.68374" lon="-1.4367">
        <ele>12.4</ele>
        <time>2021-08-08T06:23:40Z</time>
      </trkpt>
      <trkpt lat="43.68332" lon="-1.4366">
        <ele>12.2</ele>
        <time>2021-08-08T06:23:46Z</time>
      </trkpt>
      <trkpt lat="43.68288" lon="-1.43654">
        <ele>12</ele>
        <time>2021-08-08T06:23:52Z</time>
      </trkpt>
      <trkpt lat="43.68274" lon="-1.43655">
        <ele>11.8</ele>
        <time>2021-08-08T06:23:54Z</time>
      </trkpt>
      <trkpt lat="43.68246" lon="-1.43663">
        <ele>11.6</ele>
        <time>2021-08-08T06:23:58Z</time>
      </trkpt>
      <trkpt lat="43.68227" lon="-1.43673">
        <ele>11.6</ele>
        <time>2021-08-08T06:24:01Z</time>
      </trkpt>
      <trkpt lat="43.68221" lon="-1.43676">
        <ele>11.6</ele>
        <time>2021-08-08T06:24:02Z</time>
      </trkpt>
      <trkpt lat="43.68215" lon="-1.43678">
        <ele>11.6</ele>
        <time>2021-08-08T06:24:03Z</time>
      </trkpt>
      <trkpt lat="43.6821" lon="-1.4368">
        <ele>11.6</ele>
        <time>2021-08-08T06:24:04Z</time>
      </trkpt>
      <trkpt lat="43.68206" lon="-1.43683">
        <ele>11.6</ele>
        <time>2021-08-08T06:24:05Z</time>
      </trkpt>
      <trkpt lat="43.68202" lon="-1.43684">
        <ele>11.6</ele>
        <time>2021-08-08T06:24:06Z</time>
      </trkpt>
      <trkpt lat="43.68198" lon="-1.43684">
        <ele>11.6</ele>
        <time>2021-08-08T06:24:07Z</time>
      </trkpt>
      <trkpt lat="43.68194" lon="-1.43683">
        <ele>11.6</ele>
        <time>2021-08-08T06:24:08Z</time>
      </trkpt>
      <trkpt lat="43.68191" lon="-1.4368">
        <ele>11.6</ele>
        <time>2021-08-08T06:24:09Z</time>
      </trkpt>
      <trkpt lat="43.68188" lon="-1.43678">
        <ele>11.6</ele>
        <time>2021-08-08T06:24:10Z</time>
      </trkpt>
      <trkpt lat="43.68184" lon="-1.43676">
        <ele>11.8</ele>
        <time>2021-08-08T06:24:11Z</time>
      </trkpt>
      <trkpt lat="43.6818" lon="-1.43677">
        <ele>11.8</ele>
        <time>2021-08-08T06:24:12Z</time>
      </trkpt>
      <trkpt lat="43.68177" lon="-1.43681">
        <ele>11.8</ele>
        <time>2021-08-08T06:24:13Z</time>
      </trkpt>
      <trkpt lat="43.68173" lon="-1.43691">
        <ele>11.6</ele>
        <time>2021-08-08T06:24:15Z</time>
      </trkpt>
      <trkpt lat="43.6817" lon="-1.43696">
        <ele>11.6</ele>
        <time>2021-08-08T06:24:16Z</time>
      </trkpt>
      <trkpt lat="43.68166" lon="-1.43702">
        <ele>11.6</ele>
        <time>2021-08-08T06:24:17Z</time>
      </trkpt>
      <trkpt lat="43.68162" lon="-1.43707">
        <ele>11.4</ele>
        <time>2021-08-08T06:24:18Z</time>
      </trkpt>
      <trkpt lat="43.68155" lon="-1.43719">
        <ele>11.4</ele>
        <time>2021-08-08T06:24:20Z</time>
      </trkpt>
      <trkpt lat="43.68146" lon="-1.43729">
        <ele>11.4</ele>
        <time>2021-08-08T06:24:22Z</time>
      </trkpt>
      <trkpt lat="43.68142" lon="-1.43734">
        <ele>11.4</ele>
        <time>2021-08-08T06:24:23Z</time>
      </trkpt>
      <trkpt lat="43.68102" lon="-1.43775">
        <ele>11.4</ele>
        <time>2021-08-08T06:24:31Z</time>
      </trkpt>
      <trkpt lat="43.6806" lon="-1.43808">
        <ele>11.6</ele>
        <time>2021-08-08T06:24:39Z</time>
      </trkpt>
      <trkpt lat="43.68055" lon="-1.43811">
        <ele>11.8</ele>
        <time>2021-08-08T06:24:40Z</time>
      </trkpt>
      <trkpt lat="43.68051" lon="-1.43814">
        <ele>12</ele>
        <time>2021-08-08T06:24:41Z</time>
      </trkpt>
      <trkpt lat="43.68046" lon="-1.43817">
        <ele>12</ele>
        <time>2021-08-08T06:24:42Z</time>
      </trkpt>
      <trkpt lat="43.68041" lon="-1.43819">
        <ele>12.4</ele>
        <time>2021-08-08T06:24:43Z</time>
      </trkpt>
      <trkpt lat="43.68037" lon="-1.43822">
        <ele>12.4</ele>
        <time>2021-08-08T06:24:44Z</time>
      </trkpt>
      <trkpt lat="43.68032" lon="-1.43824">
        <ele>12.6</ele>
        <time>2021-08-08T06:24:45Z</time>
      </trkpt>
      <trkpt lat="43.68028" lon="-1.43826">
        <ele>12.8</ele>
        <time>2021-08-08T06:24:46Z</time>
      </trkpt>
      <trkpt lat="43.68024" lon="-1.43829">
        <ele>12.8</ele>
        <time>2021-08-08T06:24:47Z</time>
      </trkpt>
      <trkpt lat="43.6802" lon="-1.4383">
        <ele>12.8</ele>
        <time>2021-08-08T06:24:48Z</time>
      </trkpt>
      <trkpt lat="43.68017" lon="-1.43832">
        <ele>13</ele>
        <time>2021-08-08T06:24:49Z</time>
      </trkpt>
      <trkpt lat="43.68013" lon="-1.43834">
        <ele>13.2</ele>
        <time>2021-08-08T06:24:50Z</time>
      </trkpt>
      <trkpt lat="43.68005" lon="-1.43836">
        <ele>13.8</ele>
        <time>2021-08-08T06:24:52Z</time>
      </trkpt>
      <trkpt lat="43.68002" lon="-1.43837">
        <ele>14</ele>
        <time>2021-08-08T06:24:53Z</time>
      </trkpt>
      <trkpt lat="43.67999" lon="-1.43838">
        <ele>14.4</ele>
        <time>2021-08-08T06:24:54Z</time>
      </trkpt>
      <trkpt lat="43.67996" lon="-1.43839">
        <ele>14.4</ele>
        <time>2021-08-08T06:24:55Z</time>
      </trkpt>
      <trkpt lat="43.67994" lon="-1.4384">
        <ele>14.8</ele>
        <time>2021-08-08T06:24:56Z</time>
      </trkpt>
      <trkpt lat="43.67991" lon="-1.43841">
        <ele>15</ele>
        <time>2021-08-08T06:24:57Z</time>
      </trkpt>
      <trkpt lat="43.67987" lon="-1.43842">
        <ele>15.2</ele>
        <time>2021-08-08T06:24:58Z</time>
      </trkpt>
      <trkpt lat="43.67983" lon="-1.43843">
        <ele>15.4</ele>
        <time>2021-08-08T06:24:59Z</time>
      </trkpt>
      <trkpt lat="43.67978" lon="-1.43844">
        <ele>15.6</ele>
        <time>2021-08-08T06:25:00Z</time>
      </trkpt>
      <trkpt lat="43.67974" lon="-1.43846">
        <ele>15.6</ele>
        <time>2021-08-08T06:25:01Z</time>
      </trkpt>
      <trkpt lat="43.6797" lon="-1.43848">
        <ele>15.6</ele>
        <time>2021-08-08T06:25:02Z</time>
      </trkpt>
      <trkpt lat="43.67965" lon="-1.4385">
        <ele>15.6</ele>
        <time>2021-08-08T06:25:03Z</time>
      </trkpt>
      <trkpt lat="43.67961" lon="-1.43852">
        <ele>15.6</ele>
        <time>2021-08-08T06:25:04Z</time>
      </trkpt>
      <trkpt lat="43.67956" lon="-1.43854">
        <ele>15.8</ele>
        <time>2021-08-08T06:25:05Z</time>
      </trkpt>
      <trkpt lat="43.67952" lon="-1.43855">
        <ele>15.8</ele>
        <time>2021-08-08T06:25:06Z</time>
      </trkpt>
      <trkpt lat="43.67947" lon="-1.43856">
        <ele>15.8</ele>
        <time>2021-08-08T06:25:07Z</time>
      </trkpt>
      <trkpt lat="43.67941" lon="-1.43857">
        <ele>15.8</ele>
        <time>2021-08-08T06:25:08Z</time>
      </trkpt>
      <trkpt lat="43.67936" lon="-1.43857">
        <ele>15.8</ele>
        <time>2021-08-08T06:25:09Z</time>
      </trkpt>
      <trkpt lat="43.67929" lon="-1.43858">
        <ele>15.8</ele>
        <time>2021-08-08T06:25:10Z</time>
      </trkpt>
      <trkpt lat="43.67923" lon="-1.43858">
        <ele>15.8</ele>
        <time>2021-08-08T06:25:11Z</time>
      </trkpt>
      <trkpt lat="43.67916" lon="-1.43858">
        <ele>15.8</ele>
        <time>2021-08-08T06:25:12Z</time>
      </trkpt>
      <trkpt lat="43.67909" lon="-1.43858">
        <ele>15.8</ele>
        <time>2021-08-08T06:25:13Z</time>
      </trkpt>
      <trkpt lat="43.67902" lon="-1.43857">
        <ele>15.6</ele>
        <time>2021-08-08T06:25:14Z</time>
      </trkpt>
      <trkpt lat="43.67894" lon="-1.43856">
        <ele>15.6</ele>
        <time>2021-08-08T06:25:15Z</time>
      </trkpt>
      <trkpt lat="43.67887" lon="-1.43854">
        <ele>15.4</ele>
        <time>2021-08-08T06:25:16Z</time>
      </trkpt>
      <trkpt lat="43.67879" lon="-1.43853">
        <ele>15</ele>
        <time>2021-08-08T06:25:17Z</time>
      </trkpt>
      <trkpt lat="43.67848" lon="-1.43845">
        <ele>14.2</ele>
        <time>2021-08-08T06:25:21Z</time>
      </trkpt>
      <trkpt lat="43.6784" lon="-1.43842">
        <ele>13.6</ele>
        <time>2021-08-08T06:25:22Z</time>
      </trkpt>
      <trkpt lat="43.67818" lon="-1.43835">
        <ele>12.6</ele>
        <time>2021-08-08T06:25:25Z</time>
      </trkpt>
      <trkpt lat="43.67788" lon="-1.43825">
        <ele>11.8</ele>
        <time>2021-08-08T06:25:29Z</time>
      </trkpt>
      <trkpt lat="43.67781" lon="-1.43822">
        <ele>11.8</ele>
        <time>2021-08-08T06:25:30Z</time>
      </trkpt>
      <trkpt lat="43.67774" lon="-1.43819">
        <ele>11.8</ele>
        <time>2021-08-08T06:25:31Z</time>
      </trkpt>
      <trkpt lat="43.67746" lon="-1.4381">
        <ele>11.6</ele>
        <time>2021-08-08T06:25:35Z</time>
      </trkpt>
      <trkpt lat="43.67727" lon="-1.43802">
        <ele>11.8</ele>
        <time>2021-08-08T06:25:38Z</time>
      </trkpt>
      <trkpt lat="43.6772" lon="-1.438">
        <ele>11.8</ele>
        <time>2021-08-08T06:25:39Z</time>
      </trkpt>
      <trkpt lat="43.67713" lon="-1.43797">
        <ele>11.8</ele>
        <time>2021-08-08T06:25:40Z</time>
      </trkpt>
      <trkpt lat="43.67706" lon="-1.43794">
        <ele>11.6</ele>
        <time>2021-08-08T06:25:41Z</time>
      </trkpt>
      <trkpt lat="43.677" lon="-1.43792">
        <ele>11.6</ele>
        <time>2021-08-08T06:25:42Z</time>
      </trkpt>
      <trkpt lat="43.67645" lon="-1.43773">
        <ele>11.6</ele>
        <time>2021-08-08T06:25:50Z</time>
      </trkpt>
      <trkpt lat="43.67632" lon="-1.43769">
        <ele>11.6</ele>
        <time>2021-08-08T06:25:52Z</time>
      </trkpt>
      <trkpt lat="43.67613" lon="-1.43762">
        <ele>11.8</ele>
        <time>2021-08-08T06:25:55Z</time>
      </trkpt>
      <trkpt lat="43.67607" lon="-1.4376">
        <ele>11.8</ele>
        <time>2021-08-08T06:25:56Z</time>
      </trkpt>
      <trkpt lat="43.67601" lon="-1.43758">
        <ele>11.8</ele>
        <time>2021-08-08T06:25:57Z</time>
      </trkpt>
      <trkpt lat="43.67596" lon="-1.43756">
        <ele>11.8</ele>
        <time>2021-08-08T06:25:58Z</time>
      </trkpt>
      <trkpt lat="43.6759" lon="-1.43754">
        <ele>12</ele>
        <time>2021-08-08T06:25:59Z</time>
      </trkpt>
      <trkpt lat="43.67586" lon="-1.43752">
        <ele>12.2</ele>
        <time>2021-08-08T06:26:00Z</time>
      </trkpt>
      <trkpt lat="43.67584" lon="-1.43749">
        <ele>12.2</ele>
        <time>2021-08-08T06:26:01Z</time>
      </trkpt>
      <trkpt lat="43.67583" lon="-1.43745">
        <ele>12.4</ele>
        <time>2021-08-08T06:26:02Z</time>
      </trkpt>
      <trkpt lat="43.67584" lon="-1.43741">
        <ele>12.4</ele>
        <time>2021-08-08T06:26:03Z</time>
      </trkpt>
      <trkpt lat="43.67586" lon="-1.43739">
        <ele>12.4</ele>
        <time>2021-08-08T06:26:04Z</time>
      </trkpt>
      <trkpt lat="43.67587" lon="-1.43737">
        <ele>12.6</ele>
        <time>2021-08-08T06:26:05Z</time>
      </trkpt>
      <trkpt lat="43.67588" lon="-1.43737">
        <ele>12.6</ele>
        <time>2021-08-08T06:26:06Z</time>
      </trkpt>
      <trkpt lat="43.67588" lon="-1.43737">
        <ele>12.6</ele>
        <time>2021-08-08T06:26:09Z</time>
      </trkpt>
      <trkpt lat="43.67587" lon="-1.43737">
        <ele>12.8</ele>
        <time>2021-08-08T06:26:10Z</time>
      </trkpt>
      <trkpt lat="43.67587" lon="-1.43737">
        <ele>12.6</ele>
        <time>2021-08-08T06:26:14Z</time>
      </trkpt>
      <trkpt lat="43.67587" lon="-1.43737">
        <ele>12.2</ele>
        <time>2021-08-08T06:26:19Z</time>
      </trkpt>
      <trkpt lat="43.67587" lon="-1.43738">
        <ele>12.2</ele>
        <time>2021-08-08T06:27:08Z</time>
      </trkpt>
      <trkpt lat="43.67587" lon="-1.43739">
        <ele>12.4</ele>
        <time>2021-08-08T06:27:09Z</time>
      </trkpt>
      <trkpt lat="43.67587" lon="-1.43741">
        <ele>12.4</ele>
        <time>2021-08-08T06:27:10Z</time>
      </trkpt>
      <trkpt lat="43.67586" lon="-1.43748">
        <ele>12.6</ele>
        <time>2021-08-08T06:27:13Z</time>
      </trkpt>
      <trkpt lat="43.67585" lon="-1.4375">
        <ele>12.6</ele>
        <time>2021-08-08T06:27:14Z</time>
      </trkpt>
      <trkpt lat="43.67583" lon="-1.43752">
        <ele>12.6</ele>
        <time>2021-08-08T06:27:15Z</time>
      </trkpt>
      <trkpt lat="43.67578" lon="-1.43755">
        <ele>12.8</ele>
        <time>2021-08-08T06:27:17Z</time>
      </trkpt>
      <trkpt lat="43.67575" lon="-1.43755">
        <ele>12.8</ele>
        <time>2021-08-08T06:27:18Z</time>
      </trkpt>
      <trkpt lat="43.67571" lon="-1.43756">
        <ele>12.8</ele>
        <time>2021-08-08T06:27:19Z</time>
      </trkpt>
      <trkpt lat="43.67549" lon="-1.43763">
        <ele>12.8</ele>
        <time>2021-08-08T06:27:24Z</time>
      </trkpt>
      <trkpt lat="43.67539" lon="-1.43765">
        <ele>13</ele>
        <time>2021-08-08T06:27:26Z</time>
      </trkpt>
      <trkpt lat="43.67534" lon="-1.43766">
        <ele>13</ele>
        <time>2021-08-08T06:27:27Z</time>
      </trkpt>
      <trkpt lat="43.67528" lon="-1.43765">
        <ele>13</ele>
        <time>2021-08-08T06:27:28Z</time>
      </trkpt>
      <trkpt lat="43.67523" lon="-1.43764">
        <ele>13</ele>
        <time>2021-08-08T06:27:29Z</time>
      </trkpt>
      <trkpt lat="43.67518" lon="-1.43765">
        <ele>13</ele>
        <time>2021-08-08T06:27:30Z</time>
      </trkpt>
      <trkpt lat="43.6751" lon="-1.43772">
        <ele>13</ele>
        <time>2021-08-08T06:27:32Z</time>
      </trkpt>
      <trkpt lat="43.67508" lon="-1.43777">
        <ele>12.8</ele>
        <time>2021-08-08T06:27:33Z</time>
      </trkpt>
      <trkpt lat="43.67505" lon="-1.43783">
        <ele>12.8</ele>
        <time>2021-08-08T06:27:34Z</time>
      </trkpt>
      <trkpt lat="43.67501" lon="-1.4379">
        <ele>12.6</ele>
        <time>2021-08-08T06:27:35Z</time>
      </trkpt>
      <trkpt lat="43.67496" lon="-1.43795">
        <ele>12.4</ele>
        <time>2021-08-08T06:27:36Z</time>
      </trkpt>
      <trkpt lat="43.67491" lon="-1.438">
        <ele>12.2</ele>
        <time>2021-08-08T06:27:37Z</time>
      </trkpt>
      <trkpt lat="43.67481" lon="-1.43811">
        <ele>12</ele>
        <time>2021-08-08T06:27:39Z</time>
      </trkpt>
      <trkpt lat="43.67476" lon="-1.43817">
        <ele>11.8</ele>
        <time>2021-08-08T06:27:40Z</time>
      </trkpt>
      <trkpt lat="43.67434" lon="-1.43862">
        <ele>11.2</ele>
        <time>2021-08-08T06:27:48Z</time>
      </trkpt>
      <trkpt lat="43.67429" lon="-1.43867">
        <ele>11.2</ele>
        <time>2021-08-08T06:27:49Z</time>
      </trkpt>
      <trkpt lat="43.67405" lon="-1.43884">
        <ele>11.2</ele>
        <time>2021-08-08T06:27:53Z</time>
      </trkpt>
      <trkpt lat="43.67359" lon="-1.43899">
        <ele>11.4</ele>
        <time>2021-08-08T06:28:00Z</time>
      </trkpt>
      <trkpt lat="43.67299" lon="-1.43908">
        <ele>11.4</ele>
        <time>2021-08-08T06:28:09Z</time>
      </trkpt>
      <trkpt lat="43.67279" lon="-1.4391">
        <ele>11.4</ele>
        <time>2021-08-08T06:28:12Z</time>
      </trkpt>
      <trkpt lat="43.67259" lon="-1.43912">
        <ele>11.4</ele>
        <time>2021-08-08T06:28:15Z</time>
      </trkpt>
      <trkpt lat="43.67245" lon="-1.43915">
        <ele>11.6</ele>
        <time>2021-08-08T06:28:17Z</time>
      </trkpt>
      <trkpt lat="43.67191" lon="-1.43924">
        <ele>11.6</ele>
        <time>2021-08-08T06:28:25Z</time>
      </trkpt>
      <trkpt lat="43.67137" lon="-1.43931">
        <ele>11.4</ele>
        <time>2021-08-08T06:28:33Z</time>
      </trkpt>
      <trkpt lat="43.67131" lon="-1.43932">
        <ele>11.4</ele>
        <time>2021-08-08T06:28:34Z</time>
      </trkpt>
      <trkpt lat="43.67125" lon="-1.43935">
        <ele>11.6</ele>
        <time>2021-08-08T06:28:35Z</time>
      </trkpt>
      <trkpt lat="43.67119" lon="-1.43937">
        <ele>11.6</ele>
        <time>2021-08-08T06:28:36Z</time>
      </trkpt>
      <trkpt lat="43.67114" lon="-1.43939">
        <ele>11.6</ele>
        <time>2021-08-08T06:28:37Z</time>
      </trkpt>
      <trkpt lat="43.67108" lon="-1.43941">
        <ele>11.8</ele>
        <time>2021-08-08T06:28:38Z</time>
      </trkpt>
      <trkpt lat="43.67102" lon="-1.43941">
        <ele>11.8</ele>
        <time>2021-08-08T06:28:39Z</time>
      </trkpt>
      <trkpt lat="43.67097" lon="-1.43942">
        <ele>11.8</ele>
        <time>2021-08-08T06:28:40Z</time>
      </trkpt>
      <trkpt lat="43.67092" lon="-1.43942">
        <ele>12</ele>
        <time>2021-08-08T06:28:41Z</time>
      </trkpt>
      <trkpt lat="43.67087" lon="-1.4394">
        <ele>12</ele>
        <time>2021-08-08T06:28:42Z</time>
      </trkpt>
      <trkpt lat="43.67083" lon="-1.43936">
        <ele>12</ele>
        <time>2021-08-08T06:28:43Z</time>
      </trkpt>
      <trkpt lat="43.67078" lon="-1.43931">
        <ele>12</ele>
        <time>2021-08-08T06:28:44Z</time>
      </trkpt>
      <trkpt lat="43.67074" lon="-1.43926">
        <ele>12</ele>
        <time>2021-08-08T06:28:45Z</time>
      </trkpt>
      <trkpt lat="43.67069" lon="-1.4392">
        <ele>12</ele>
        <time>2021-08-08T06:28:46Z</time>
      </trkpt>
      <trkpt lat="43.67064" lon="-1.43915">
        <ele>12</ele>
        <time>2021-08-08T06:28:47Z</time>
      </trkpt>
      <trkpt lat="43.67058" lon="-1.43911">
        <ele>11.8</ele>
        <time>2021-08-08T06:28:48Z</time>
      </trkpt>
      <trkpt lat="43.67052" lon="-1.43909">
        <ele>11.8</ele>
        <time>2021-08-08T06:28:49Z</time>
      </trkpt>
      <trkpt lat="43.67045" lon="-1.43909">
        <ele>11.6</ele>
        <time>2021-08-08T06:28:50Z</time>
      </trkpt>
      <trkpt lat="43.6704" lon="-1.43912">
        <ele>11.6</ele>
        <time>2021-08-08T06:28:51Z</time>
      </trkpt>
      <trkpt lat="43.67035" lon="-1.43916">
        <ele>11.6</ele>
        <time>2021-08-08T06:28:52Z</time>
      </trkpt>
      <trkpt lat="43.67031" lon="-1.43921">
        <ele>11.6</ele>
        <time>2021-08-08T06:28:53Z</time>
      </trkpt>
      <trkpt lat="43.67026" lon="-1.43925">
        <ele>11.6</ele>
        <time>2021-08-08T06:28:54Z</time>
      </trkpt>
      <trkpt lat="43.6702" lon="-1.43928">
        <ele>11.6</ele>
        <time>2021-08-08T06:28:55Z</time>
      </trkpt>
      <trkpt lat="43.67015" lon="-1.4393">
        <ele>11.6</ele>
        <time>2021-08-08T06:28:56Z</time>
      </trkpt>
      <trkpt lat="43.67009" lon="-1.43932">
        <ele>11.6</ele>
        <time>2021-08-08T06:28:57Z</time>
      </trkpt>
      <trkpt lat="43.67003" lon="-1.43933">
        <ele>11.6</ele>
        <time>2021-08-08T06:28:58Z</time>
      </trkpt>
      <trkpt lat="43.66997" lon="-1.43934">
        <ele>11.8</ele>
        <time>2021-08-08T06:28:59Z</time>
      </trkpt>
      <trkpt lat="43.66938" lon="-1.43945">
        <ele>12</ele>
        <time>2021-08-08T06:29:08Z</time>
      </trkpt>
      <trkpt lat="43.66881" lon="-1.43951">
        <ele>12</ele>
        <time>2021-08-08T06:29:16Z</time>
      </trkpt>
      <trkpt lat="43.66874" lon="-1.43952">
        <ele>12</ele>
        <time>2021-08-08T06:29:17Z</time>
      </trkpt>
      <trkpt lat="43.66816" lon="-1.43959">
        <ele>12</ele>
        <time>2021-08-08T06:29:25Z</time>
      </trkpt>
      <trkpt lat="43.66801" lon="-1.43962">
        <ele>11.8</ele>
        <time>2021-08-08T06:29:27Z</time>
      </trkpt>
      <trkpt lat="43.66764" lon="-1.43968">
        <ele>11.6</ele>
        <time>2021-08-08T06:29:32Z</time>
      </trkpt>
      <trkpt lat="43.66758" lon="-1.43968">
        <ele>11.6</ele>
        <time>2021-08-08T06:29:33Z</time>
      </trkpt>
      <trkpt lat="43.66751" lon="-1.43969">
        <ele>11.8</ele>
        <time>2021-08-08T06:29:34Z</time>
      </trkpt>
      <trkpt lat="43.66745" lon="-1.43969">
        <ele>11.8</ele>
        <time>2021-08-08T06:29:35Z</time>
      </trkpt>
      <trkpt lat="43.66739" lon="-1.4397">
        <ele>12</ele>
        <time>2021-08-08T06:29:36Z</time>
      </trkpt>
      <trkpt lat="43.66733" lon="-1.4397">
        <ele>12</ele>
        <time>2021-08-08T06:29:37Z</time>
      </trkpt>
      <trkpt lat="43.66721" lon="-1.43972">
        <ele>12.2</ele>
        <time>2021-08-08T06:29:39Z</time>
      </trkpt>
      <trkpt lat="43.66715" lon="-1.43972">
        <ele>12.2</ele>
        <time>2021-08-08T06:29:40Z</time>
      </trkpt>
      <trkpt lat="43.66709" lon="-1.43972">
        <ele>12.4</ele>
        <time>2021-08-08T06:29:41Z</time>
      </trkpt>
      <trkpt lat="43.66704" lon="-1.43972">
        <ele>12.6</ele>
        <time>2021-08-08T06:29:42Z</time>
      </trkpt>
      <trkpt lat="43.66698" lon="-1.43973">
        <ele>12.6</ele>
        <time>2021-08-08T06:29:43Z</time>
      </trkpt>
      <trkpt lat="43.66693" lon="-1.43974">
        <ele>12.6</ele>
        <time>2021-08-08T06:29:44Z</time>
      </trkpt>
      <trkpt lat="43.66682" lon="-1.43978">
        <ele>12.8</ele>
        <time>2021-08-08T06:29:46Z</time>
      </trkpt>
      <trkpt lat="43.66647" lon="-1.43985">
        <ele>12.6</ele>
        <time>2021-08-08T06:29:51Z</time>
      </trkpt>
      <trkpt lat="43.66591" lon="-1.43994">
        <ele>12.2</ele>
        <time>2021-08-08T06:29:59Z</time>
      </trkpt>
      <trkpt lat="43.66557" lon="-1.43999">
        <ele>12.2</ele>
        <time>2021-08-08T06:30:04Z</time>
      </trkpt>
      <trkpt lat="43.66537" lon="-1.44002">
        <ele>12.2</ele>
        <time>2021-08-08T06:30:07Z</time>
      </trkpt>
      <trkpt lat="43.66531" lon="-1.44003">
        <ele>12.2</ele>
        <time>2021-08-08T06:30:08Z</time>
      </trkpt>
      <trkpt lat="43.66518" lon="-1.44005">
        <ele>12.2</ele>
        <time>2021-08-08T06:30:10Z</time>
      </trkpt>
      <trkpt lat="43.66512" lon="-1.44005">
        <ele>12.2</ele>
        <time>2021-08-08T06:30:11Z</time>
      </trkpt>
      <trkpt lat="43.66506" lon="-1.44006">
        <ele>12.2</ele>
        <time>2021-08-08T06:30:12Z</time>
      </trkpt>
      <trkpt lat="43.66501" lon="-1.44008">
        <ele>12.2</ele>
        <time>2021-08-08T06:30:13Z</time>
      </trkpt>
      <trkpt lat="43.66495" lon="-1.44009">
        <ele>12.2</ele>
        <time>2021-08-08T06:30:14Z</time>
      </trkpt>
      <trkpt lat="43.66479" lon="-1.44011">
        <ele>12.4</ele>
        <time>2021-08-08T06:30:17Z</time>
      </trkpt>
      <trkpt lat="43.66474" lon="-1.44011">
        <ele>12.6</ele>
        <time>2021-08-08T06:30:18Z</time>
      </trkpt>
      <trkpt lat="43.66469" lon="-1.44011">
        <ele>12.8</ele>
        <time>2021-08-08T06:30:19Z</time>
      </trkpt>
      <trkpt lat="43.66466" lon="-1.4401">
        <ele>12.8</ele>
        <time>2021-08-08T06:30:20Z</time>
      </trkpt>
      <trkpt lat="43.66461" lon="-1.44008">
        <ele>13</ele>
        <time>2021-08-08T06:30:21Z</time>
      </trkpt>
      <trkpt lat="43.66458" lon="-1.44005">
        <ele>13</ele>
        <time>2021-08-08T06:30:22Z</time>
      </trkpt>
      <trkpt lat="43.66455" lon="-1.44002">
        <ele>13</ele>
        <time>2021-08-08T06:30:23Z</time>
      </trkpt>
      <trkpt lat="43.66451" lon="-1.43999">
        <ele>13</ele>
        <time>2021-08-08T06:30:24Z</time>
      </trkpt>
      <trkpt lat="43.66444" lon="-1.43997">
        <ele>13.2</ele>
        <time>2021-08-08T06:30:26Z</time>
      </trkpt>
      <trkpt lat="43.66442" lon="-1.43998">
        <ele>13.2</ele>
        <time>2021-08-08T06:30:27Z</time>
      </trkpt>
      <trkpt lat="43.66441" lon="-1.44001">
        <ele>13.2</ele>
        <time>2021-08-08T06:30:28Z</time>
      </trkpt>
      <trkpt lat="43.66438" lon="-1.44006">
        <ele>13</ele>
        <time>2021-08-08T06:30:29Z</time>
      </trkpt>
      <trkpt lat="43.66435" lon="-1.44009">
        <ele>13</ele>
        <time>2021-08-08T06:30:30Z</time>
      </trkpt>
      <trkpt lat="43.66431" lon="-1.44011">
        <ele>12.8</ele>
        <time>2021-08-08T06:30:31Z</time>
      </trkpt>
      <trkpt lat="43.66426" lon="-1.44012">
        <ele>12.8</ele>
        <time>2021-08-08T06:30:32Z</time>
      </trkpt>
      <trkpt lat="43.66421" lon="-1.44013">
        <ele>12.6</ele>
        <time>2021-08-08T06:30:33Z</time>
      </trkpt>
      <trkpt lat="43.66416" lon="-1.44013">
        <ele>12.6</ele>
        <time>2021-08-08T06:30:34Z</time>
      </trkpt>
      <trkpt lat="43.66393" lon="-1.44019">
        <ele>12.2</ele>
        <time>2021-08-08T06:30:38Z</time>
      </trkpt>
      <trkpt lat="43.66387" lon="-1.4402">
        <ele>12.2</ele>
        <time>2021-08-08T06:30:39Z</time>
      </trkpt>
      <trkpt lat="43.66375" lon="-1.44024">
        <ele>12</ele>
        <time>2021-08-08T06:30:41Z</time>
      </trkpt>
      <trkpt lat="43.66357" lon="-1.44027">
        <ele>12</ele>
        <time>2021-08-08T06:30:44Z</time>
      </trkpt>
      <trkpt lat="43.66352" lon="-1.44028">
        <ele>12</ele>
        <time>2021-08-08T06:30:45Z</time>
      </trkpt>
      <trkpt lat="43.66342" lon="-1.44029">
        <ele>12</ele>
        <time>2021-08-08T06:30:47Z</time>
      </trkpt>
      <trkpt lat="43.66339" lon="-1.44031">
        <ele>12</ele>
        <time>2021-08-08T06:30:48Z</time>
      </trkpt>
      <trkpt lat="43.66336" lon="-1.44034">
        <ele>11.8</ele>
        <time>2021-08-08T06:30:49Z</time>
      </trkpt>
      <trkpt lat="43.66332" lon="-1.44037">
        <ele>12</ele>
        <time>2021-08-08T06:30:50Z</time>
      </trkpt>
      <trkpt lat="43.66325" lon="-1.44039">
        <ele>12</ele>
        <time>2021-08-08T06:30:52Z</time>
      </trkpt>
      <trkpt lat="43.66321" lon="-1.4404">
        <ele>12</ele>
        <time>2021-08-08T06:30:53Z</time>
      </trkpt>
      <trkpt lat="43.66316" lon="-1.44042">
        <ele>12</ele>
        <time>2021-08-08T06:30:54Z</time>
      </trkpt>
      <trkpt lat="43.66292" lon="-1.44046">
        <ele>12</ele>
        <time>2021-08-08T06:31:00Z</time>
      </trkpt>
      <trkpt lat="43.66289" lon="-1.44048">
        <ele>12</ele>
        <time>2021-08-08T06:31:01Z</time>
      </trkpt>
      <trkpt lat="43.66286" lon="-1.4405">
        <ele>12</ele>
        <time>2021-08-08T06:31:02Z</time>
      </trkpt>
      <trkpt lat="43.66284" lon="-1.44051">
        <ele>12</ele>
        <time>2021-08-08T06:31:03Z</time>
      </trkpt>
      <trkpt lat="43.66281" lon="-1.44052">
        <ele>12.2</ele>
        <time>2021-08-08T06:31:04Z</time>
      </trkpt>
      <trkpt lat="43.66279" lon="-1.44055">
        <ele>12.2</ele>
        <time>2021-08-08T06:31:05Z</time>
      </trkpt>
      <trkpt lat="43.66274" lon="-1.44061">
        <ele>12.4</ele>
        <time>2021-08-08T06:31:07Z</time>
      </trkpt>
      <trkpt lat="43.66272" lon="-1.44065">
        <ele>12.4</ele>
        <time>2021-08-08T06:31:08Z</time>
      </trkpt>
      <trkpt lat="43.66267" lon="-1.44073">
        <ele>12.6</ele>
        <time>2021-08-08T06:31:10Z</time>
      </trkpt>
      <trkpt lat="43.66262" lon="-1.44083">
        <ele>13.2</ele>
        <time>2021-08-08T06:31:12Z</time>
      </trkpt>
      <trkpt lat="43.66259" lon="-1.44088">
        <ele>13.6</ele>
        <time>2021-08-08T06:31:13Z</time>
      </trkpt>
      <trkpt lat="43.66257" lon="-1.44092">
        <ele>13.8</ele>
        <time>2021-08-08T06:31:14Z</time>
      </trkpt>
      <trkpt lat="43.66255" lon="-1.44097">
        <ele>14</ele>
        <time>2021-08-08T06:31:15Z</time>
      </trkpt>
      <trkpt lat="43.66253" lon="-1.44102">
        <ele>14.2</ele>
        <time>2021-08-08T06:31:16Z</time>
      </trkpt>
      <trkpt lat="43.66251" lon="-1.44106">
        <ele>14.6</ele>
        <time>2021-08-08T06:31:17Z</time>
      </trkpt>
      <trkpt lat="43.6625" lon="-1.44111">
        <ele>14.8</ele>
        <time>2021-08-08T06:31:18Z</time>
      </trkpt>
      <trkpt lat="43.66248" lon="-1.44122">
        <ele>15.2</ele>
        <time>2021-08-08T06:31:20Z</time>
      </trkpt>
      <trkpt lat="43.66248" lon="-1.44127">
        <ele>15.8</ele>
        <time>2021-08-08T06:31:21Z</time>
      </trkpt>
      <trkpt lat="43.66248" lon="-1.44132">
        <ele>16</ele>
        <time>2021-08-08T06:31:22Z</time>
      </trkpt>
      <trkpt lat="43.66248" lon="-1.44138">
        <ele>16.2</ele>
        <time>2021-08-08T06:31:23Z</time>
      </trkpt>
      <trkpt lat="43.66248" lon="-1.44144">
        <ele>16.2</ele>
        <time>2021-08-08T06:31:24Z</time>
      </trkpt>
      <trkpt lat="43.66249" lon="-1.44149">
        <ele>16.4</ele>
        <time>2021-08-08T06:31:25Z</time>
      </trkpt>
      <trkpt lat="43.6625" lon="-1.44154">
        <ele>16.8</ele>
        <time>2021-08-08T06:31:26Z</time>
      </trkpt>
      <trkpt lat="43.66252" lon="-1.44159">
        <ele>17</ele>
        <time>2021-08-08T06:31:27Z</time>
      </trkpt>
      <trkpt lat="43.66254" lon="-1.44163">
        <ele>17.2</ele>
        <time>2021-08-08T06:31:28Z</time>
      </trkpt>
      <trkpt lat="43.66256" lon="-1.44165">
        <ele>17.4</ele>
        <time>2021-08-08T06:31:29Z</time>
      </trkpt>
      <trkpt lat="43.6626" lon="-1.44167">
        <ele>17.8</ele>
        <time>2021-08-08T06:31:30Z</time>
      </trkpt>
      <trkpt lat="43.66263" lon="-1.44169">
        <ele>18</ele>
        <time>2021-08-08T06:31:31Z</time>
      </trkpt>
      <trkpt lat="43.66266" lon="-1.44171">
        <ele>18.2</ele>
        <time>2021-08-08T06:31:32Z</time>
      </trkpt>
      <trkpt lat="43.66269" lon="-1.44174">
        <ele>18.2</ele>
        <time>2021-08-08T06:31:33Z</time>
      </trkpt>
      <trkpt lat="43.6627" lon="-1.44178">
        <ele>18.4</ele>
        <time>2021-08-08T06:31:34Z</time>
      </trkpt>
      <trkpt lat="43.6627" lon="-1.44182">
        <ele>18.6</ele>
        <time>2021-08-08T06:31:35Z</time>
      </trkpt>
      <trkpt lat="43.66269" lon="-1.44185">
        <ele>18.8</ele>
        <time>2021-08-08T06:31:36Z</time>
      </trkpt>
      <trkpt lat="43.66267" lon="-1.44189">
        <ele>18.8</ele>
        <time>2021-08-08T06:31:37Z</time>
      </trkpt>
      <trkpt lat="43.66264" lon="-1.44191">
        <ele>19</ele>
        <time>2021-08-08T06:31:38Z</time>
      </trkpt>
      <trkpt lat="43.66261" lon="-1.44193">
        <ele>19</ele>
        <time>2021-08-08T06:31:39Z</time>
      </trkpt>
      <trkpt lat="43.66258" lon="-1.44195">
        <ele>19</ele>
        <time>2021-08-08T06:31:40Z</time>
      </trkpt>
      <trkpt lat="43.66255" lon="-1.44196">
        <ele>19</ele>
        <time>2021-08-08T06:31:41Z</time>
      </trkpt>
      <trkpt lat="43.66252" lon="-1.44197">
        <ele>19</ele>
        <time>2021-08-08T06:31:42Z</time>
      </trkpt>
      <trkpt lat="43.66249" lon="-1.44198">
        <ele>19</ele>
        <time>2021-08-08T06:31:43Z</time>
      </trkpt>
      <trkpt lat="43.66246" lon="-1.44198">
        <ele>19</ele>
        <time>2021-08-08T06:31:44Z</time>
      </trkpt>
      <trkpt lat="43.66242" lon="-1.44198">
        <ele>19</ele>
        <time>2021-08-08T06:31:45Z</time>
      </trkpt>
      <trkpt lat="43.66238" lon="-1.44197">
        <ele>19</ele>
        <time>2021-08-08T06:31:46Z</time>
      </trkpt>
      <trkpt lat="43.66235" lon="-1.44197">
        <ele>18.8</ele>
        <time>2021-08-08T06:31:47Z</time>
      </trkpt>
      <trkpt lat="43.66231" lon="-1.44198">
        <ele>18.8</ele>
        <time>2021-08-08T06:31:48Z</time>
      </trkpt>
      <trkpt lat="43.66227" lon="-1.44198">
        <ele>18.6</ele>
        <time>2021-08-08T06:31:49Z</time>
      </trkpt>
      <trkpt lat="43.66223" lon="-1.44199">
        <ele>18.6</ele>
        <time>2021-08-08T06:31:50Z</time>
      </trkpt>
      <trkpt lat="43.66219" lon="-1.44201">
        <ele>18.4</ele>
        <time>2021-08-08T06:31:51Z</time>
      </trkpt>
      <trkpt lat="43.66215" lon="-1.44203">
        <ele>18.4</ele>
        <time>2021-08-08T06:31:52Z</time>
      </trkpt>
      <trkpt lat="43.66195" lon="-1.44215">
        <ele>18.2</ele>
        <time>2021-08-08T06:31:57Z</time>
      </trkpt>
      <trkpt lat="43.66191" lon="-1.44217">
        <ele>18.2</ele>
        <time>2021-08-08T06:31:58Z</time>
      </trkpt>
      <trkpt lat="43.66173" lon="-1.4423">
        <ele>18</ele>
        <time>2021-08-08T06:32:03Z</time>
      </trkpt>
      <trkpt lat="43.66167" lon="-1.44237">
        <ele>17.8</ele>
        <time>2021-08-08T06:32:05Z</time>
      </trkpt>
      <trkpt lat="43.66164" lon="-1.44241">
        <ele>17.8</ele>
        <time>2021-08-08T06:32:06Z</time>
      </trkpt>
      <trkpt lat="43.66161" lon="-1.44245">
        <ele>17.8</ele>
        <time>2021-08-08T06:32:07Z</time>
      </trkpt>
      <trkpt lat="43.66159" lon="-1.44249">
        <ele>17.6</ele>
        <time>2021-08-08T06:32:08Z</time>
      </trkpt>
      <trkpt lat="43.66157" lon="-1.44254">
        <ele>17.6</ele>
        <time>2021-08-08T06:32:09Z</time>
      </trkpt>
      <trkpt lat="43.66156" lon="-1.44259">
        <ele>17.6</ele>
        <time>2021-08-08T06:32:10Z</time>
      </trkpt>
      <trkpt lat="43.66155" lon="-1.44264">
        <ele>17.6</ele>
        <time>2021-08-08T06:32:11Z</time>
      </trkpt>
      <trkpt lat="43.66155" lon="-1.44269">
        <ele>17.4</ele>
        <time>2021-08-08T06:32:12Z</time>
      </trkpt>
      <trkpt lat="43.66154" lon="-1.44272">
        <ele>17.4</ele>
        <time>2021-08-08T06:32:13Z</time>
      </trkpt>
      <trkpt lat="43.66153" lon="-1.44274">
        <ele>17.4</ele>
        <time>2021-08-08T06:32:14Z</time>
      </trkpt>
      <trkpt lat="43.66152" lon="-1.44275">
        <ele>17.4</ele>
        <time>2021-08-08T06:32:15Z</time>
      </trkpt>
      <trkpt lat="43.6615" lon="-1.44276">
        <ele>17.4</ele>
        <time>2021-08-08T06:32:16Z</time>
      </trkpt>
      <trkpt lat="43.66148" lon="-1.44277">
        <ele>17.2</ele>
        <time>2021-08-08T06:32:17Z</time>
      </trkpt>
      <trkpt lat="43.66147" lon="-1.44279">
        <ele>17.2</ele>
        <time>2021-08-08T06:32:18Z</time>
      </trkpt>
      <trkpt lat="43.66146" lon="-1.44282">
        <ele>17.2</ele>
        <time>2021-08-08T06:32:19Z</time>
      </trkpt>
      <trkpt lat="43.66145" lon="-1.44284">
        <ele>17.2</ele>
        <time>2021-08-08T06:32:20Z</time>
      </trkpt>
      <trkpt lat="43.66143" lon="-1.44286">
        <ele>17.2</ele>
        <time>2021-08-08T06:32:21Z</time>
      </trkpt>
      <trkpt lat="43.66142" lon="-1.44287">
        <ele>17.2</ele>
        <time>2021-08-08T06:32:22Z</time>
      </trkpt>
      <trkpt lat="43.6614" lon="-1.44287">
        <ele>17</ele>
        <time>2021-08-08T06:32:23Z</time>
      </trkpt>
      <trkpt lat="43.66139" lon="-1.44287">
        <ele>17</ele>
        <time>2021-08-08T06:32:24Z</time>
      </trkpt>
      <trkpt lat="43.66139" lon="-1.44287">
        <ele>16.8</ele>
        <time>2021-08-08T06:32:25Z</time>
      </trkpt>
      <trkpt lat="43.66138" lon="-1.44287">
        <ele>16.6</ele>
        <time>2021-08-08T06:32:27Z</time>
      </trkpt>
      <trkpt lat="43.66137" lon="-1.44287">
        <ele>16.6</ele>
        <time>2021-08-08T06:32:28Z</time>
      </trkpt>
      <trkpt lat="43.66136" lon="-1.44287">
        <ele>16.6</ele>
        <time>2021-08-08T06:32:29Z</time>
      </trkpt>
      <trkpt lat="43.66134" lon="-1.4429">
        <ele>16.6</ele>
        <time>2021-08-08T06:32:31Z</time>
      </trkpt>
      <trkpt lat="43.6613" lon="-1.44306">
        <ele>16.6</ele>
        <time>2021-08-08T06:32:35Z</time>
      </trkpt>
      <trkpt lat="43.66127" lon="-1.4431">
        <ele>16.6</ele>
        <time>2021-08-08T06:32:36Z</time>
      </trkpt>
      <trkpt lat="43.66125" lon="-1.44314">
        <ele>16.6</ele>
        <time>2021-08-08T06:32:37Z</time>
      </trkpt>
      <trkpt lat="43.66116" lon="-1.44326">
        <ele>16.6</ele>
        <time>2021-08-08T06:32:40Z</time>
      </trkpt>
      <trkpt lat="43.66113" lon="-1.4433">
        <ele>16.6</ele>
        <time>2021-08-08T06:32:41Z</time>
      </trkpt>
      <trkpt lat="43.66095" lon="-1.44348">
        <ele>16.2</ele>
        <time>2021-08-08T06:32:47Z</time>
      </trkpt>
      <trkpt lat="43.66089" lon="-1.44353">
        <ele>16.2</ele>
        <time>2021-08-08T06:32:49Z</time>
      </trkpt>
      <trkpt lat="43.66086" lon="-1.44355">
        <ele>16.2</ele>
        <time>2021-08-08T06:32:50Z</time>
      </trkpt>
      <trkpt lat="43.66083" lon="-1.44357">
        <ele>16</ele>
        <time>2021-08-08T06:32:51Z</time>
      </trkpt>
      <trkpt lat="43.6608" lon="-1.44358">
        <ele>16</ele>
        <time>2021-08-08T06:32:52Z</time>
      </trkpt>
      <trkpt lat="43.66077" lon="-1.44359">
        <ele>16</ele>
        <time>2021-08-08T06:32:53Z</time>
      </trkpt>
      <trkpt lat="43.66074" lon="-1.44359">
        <ele>16</ele>
        <time>2021-08-08T06:32:54Z</time>
      </trkpt>
      <trkpt lat="43.6607" lon="-1.44361">
        <ele>16</ele>
        <time>2021-08-08T06:32:55Z</time>
      </trkpt>
      <trkpt lat="43.66068" lon="-1.44363">
        <ele>16</ele>
        <time>2021-08-08T06:32:56Z</time>
      </trkpt>
      <trkpt lat="43.66066" lon="-1.44366">
        <ele>16</ele>
        <time>2021-08-08T06:32:57Z</time>
      </trkpt>
      <trkpt lat="43.66063" lon="-1.44369">
        <ele>16</ele>
        <time>2021-08-08T06:32:58Z</time>
      </trkpt>
      <trkpt lat="43.66061" lon="-1.44369">
        <ele>16</ele>
        <time>2021-08-08T06:32:59Z</time>
      </trkpt>
      <trkpt lat="43.66058" lon="-1.44369">
        <ele>16</ele>
        <time>2021-08-08T06:33:00Z</time>
      </trkpt>
      <trkpt lat="43.66055" lon="-1.44369">
        <ele>16</ele>
        <time>2021-08-08T06:33:01Z</time>
      </trkpt>
      <trkpt lat="43.66052" lon="-1.44369">
        <ele>16.2</ele>
        <time>2021-08-08T06:33:02Z</time>
      </trkpt>
      <trkpt lat="43.66044" lon="-1.44367">
        <ele>16.4</ele>
        <time>2021-08-08T06:33:05Z</time>
      </trkpt>
      <trkpt lat="43.66041" lon="-1.44367">
        <ele>16.6</ele>
        <time>2021-08-08T06:33:06Z</time>
      </trkpt>
      <trkpt lat="43.66032" lon="-1.44361">
        <ele>16.6</ele>
        <time>2021-08-08T06:33:09Z</time>
      </trkpt>
      <trkpt lat="43.66014" lon="-1.44356">
        <ele>17.4</ele>
        <time>2021-08-08T06:33:15Z</time>
      </trkpt>
      <trkpt lat="43.66011" lon="-1.44356">
        <ele>17.4</ele>
        <time>2021-08-08T06:33:16Z</time>
      </trkpt>
      <trkpt lat="43.65982" lon="-1.4436">
        <ele>18.2</ele>
        <time>2021-08-08T06:33:24Z</time>
      </trkpt>
      <trkpt lat="43.65969" lon="-1.44362">
        <ele>18.4</ele>
        <time>2021-08-08T06:33:27Z</time>
      </trkpt>
      <trkpt lat="43.65952" lon="-1.44363">
        <ele>18.6</ele>
        <time>2021-08-08T06:33:31Z</time>
      </trkpt>
      <trkpt lat="43.65948" lon="-1.44363">
        <ele>18.8</ele>
        <time>2021-08-08T06:33:32Z</time>
      </trkpt>
      <trkpt lat="43.65934" lon="-1.44365">
        <ele>19.2</ele>
        <time>2021-08-08T06:33:35Z</time>
      </trkpt>
      <trkpt lat="43.6592" lon="-1.44366">
        <ele>19.2</ele>
        <time>2021-08-08T06:33:38Z</time>
      </trkpt>
      <trkpt lat="43.65906" lon="-1.44369">
        <ele>19.2</ele>
        <time>2021-08-08T06:33:41Z</time>
      </trkpt>
      <trkpt lat="43.65892" lon="-1.44374">
        <ele>19.4</ele>
        <time>2021-08-08T06:33:44Z</time>
      </trkpt>
      <trkpt lat="43.65888" lon="-1.44376">
        <ele>19.4</ele>
        <time>2021-08-08T06:33:45Z</time>
      </trkpt>
      <trkpt lat="43.65874" lon="-1.4438">
        <ele>19.4</ele>
        <time>2021-08-08T06:33:48Z</time>
      </trkpt>
      <trkpt lat="43.6587" lon="-1.44382">
        <ele>19.4</ele>
        <time>2021-08-08T06:33:49Z</time>
      </trkpt>
      <trkpt lat="43.65842" lon="-1.44391">
        <ele>19.4</ele>
        <time>2021-08-08T06:33:55Z</time>
      </trkpt>
      <trkpt lat="43.65805" lon="-1.44405">
        <ele>18.8</ele>
        <time>2021-08-08T06:34:03Z</time>
      </trkpt>
      <trkpt lat="43.65801" lon="-1.44406">
        <ele>18.6</ele>
        <time>2021-08-08T06:34:04Z</time>
      </trkpt>
      <trkpt lat="43.65798" lon="-1.44408">
        <ele>18.6</ele>
        <time>2021-08-08T06:34:05Z</time>
      </trkpt>
      <trkpt lat="43.65795" lon="-1.44411">
        <ele>18</ele>
        <time>2021-08-08T06:34:06Z</time>
      </trkpt>
      <trkpt lat="43.65793" lon="-1.44414">
        <ele>17.8</ele>
        <time>2021-08-08T06:34:07Z</time>
      </trkpt>
      <trkpt lat="43.65791" lon="-1.44418">
        <ele>17.4</ele>
        <time>2021-08-08T06:34:08Z</time>
      </trkpt>
      <trkpt lat="43.65789" lon="-1.44422">
        <ele>17.2</ele>
        <time>2021-08-08T06:34:09Z</time>
      </trkpt>
      <trkpt lat="43.65787" lon="-1.44426">
        <ele>17</ele>
        <time>2021-08-08T06:34:10Z</time>
      </trkpt>
      <trkpt lat="43.65785" lon="-1.4443">
        <ele>16.8</ele>
        <time>2021-08-08T06:34:11Z</time>
      </trkpt>
      <trkpt lat="43.65783" lon="-1.44433">
        <ele>16.6</ele>
        <time>2021-08-08T06:34:12Z</time>
      </trkpt>
      <trkpt lat="43.65781" lon="-1.44435">
        <ele>16.4</ele>
        <time>2021-08-08T06:34:13Z</time>
      </trkpt>
      <trkpt lat="43.65779" lon="-1.44439">
        <ele>16.2</ele>
        <time>2021-08-08T06:34:14Z</time>
      </trkpt>
      <trkpt lat="43.65777" lon="-1.44442">
        <ele>16</ele>
        <time>2021-08-08T06:34:15Z</time>
      </trkpt>
      <trkpt lat="43.65774" lon="-1.44446">
        <ele>15.8</ele>
        <time>2021-08-08T06:34:16Z</time>
      </trkpt>
      <trkpt lat="43.65764" lon="-1.44453">
        <ele>15</ele>
        <time>2021-08-08T06:34:19Z</time>
      </trkpt>
      <trkpt lat="43.6576" lon="-1.44454">
        <ele>14.8</ele>
        <time>2021-08-08T06:34:20Z</time>
      </trkpt>
      <trkpt lat="43.65756" lon="-1.44454">
        <ele>14.4</ele>
        <time>2021-08-08T06:34:21Z</time>
      </trkpt>
      <trkpt lat="43.65749" lon="-1.44455">
        <ele>13.8</ele>
        <time>2021-08-08T06:34:23Z</time>
      </trkpt>
      <trkpt lat="43.65735" lon="-1.44462">
        <ele>13.2</ele>
        <time>2021-08-08T06:34:27Z</time>
      </trkpt>
      <trkpt lat="43.6571" lon="-1.44473">
        <ele>13.4</ele>
        <time>2021-08-08T06:34:34Z</time>
      </trkpt>
      <trkpt lat="43.65707" lon="-1.44474">
        <ele>13.4</ele>
        <time>2021-08-08T06:34:35Z</time>
      </trkpt>
      <trkpt lat="43.65705" lon="-1.44475">
        <ele>13.4</ele>
        <time>2021-08-08T06:34:36Z</time>
      </trkpt>
      <trkpt lat="43.65703" lon="-1.44475">
        <ele>13.4</ele>
        <time>2021-08-08T06:34:37Z</time>
      </trkpt>
      <trkpt lat="43.65694" lon="-1.44474">
        <ele>13.6</ele>
        <time>2021-08-08T06:34:40Z</time>
      </trkpt>
      <trkpt lat="43.65682" lon="-1.4447">
        <ele>13.2</ele>
        <time>2021-08-08T06:34:44Z</time>
      </trkpt>
      <trkpt lat="43.65679" lon="-1.4447">
        <ele>13.2</ele>
        <time>2021-08-08T06:34:45Z</time>
      </trkpt>
      <trkpt lat="43.65676" lon="-1.4447">
        <ele>13.2</ele>
        <time>2021-08-08T06:34:46Z</time>
      </trkpt>
      <trkpt lat="43.65673" lon="-1.4447">
        <ele>13.2</ele>
        <time>2021-08-08T06:34:47Z</time>
      </trkpt>
      <trkpt lat="43.65659" lon="-1.44477">
        <ele>13.2</ele>
        <time>2021-08-08T06:34:52Z</time>
      </trkpt>
      <trkpt lat="43.65657" lon="-1.4448">
        <ele>13.2</ele>
        <time>2021-08-08T06:34:53Z</time>
      </trkpt>
      <trkpt lat="43.65655" lon="-1.44483">
        <ele>13.2</ele>
        <time>2021-08-08T06:34:54Z</time>
      </trkpt>
      <trkpt lat="43.65653" lon="-1.44486">
        <ele>13.2</ele>
        <time>2021-08-08T06:34:55Z</time>
      </trkpt>
      <trkpt lat="43.6565" lon="-1.44492">
        <ele>13.2</ele>
        <time>2021-08-08T06:34:57Z</time>
      </trkpt>
      <trkpt lat="43.65648" lon="-1.44495">
        <ele>13.2</ele>
        <time>2021-08-08T06:34:58Z</time>
      </trkpt>
      <trkpt lat="43.65646" lon="-1.44498">
        <ele>13.2</ele>
        <time>2021-08-08T06:34:59Z</time>
      </trkpt>
      <trkpt lat="43.65644" lon="-1.44501">
        <ele>13.2</ele>
        <time>2021-08-08T06:35:00Z</time>
      </trkpt>
      <trkpt lat="43.65636" lon="-1.44508">
        <ele>13.2</ele>
        <time>2021-08-08T06:35:03Z</time>
      </trkpt>
      <trkpt lat="43.65612" lon="-1.44519">
        <ele>13.2</ele>
        <time>2021-08-08T06:35:10Z</time>
      </trkpt>
      <trkpt lat="43.656" lon="-1.44524">
        <ele>13</ele>
        <time>2021-08-08T06:35:14Z</time>
      </trkpt>
      <trkpt lat="43.65597" lon="-1.44525">
        <ele>13</ele>
        <time>2021-08-08T06:35:15Z</time>
      </trkpt>
      <trkpt lat="43.65593" lon="-1.44527">
        <ele>13</ele>
        <time>2021-08-08T06:35:16Z</time>
      </trkpt>
      <trkpt lat="43.6559" lon="-1.44528">
        <ele>13</ele>
        <time>2021-08-08T06:35:17Z</time>
      </trkpt>
      <trkpt lat="43.65587" lon="-1.44529">
        <ele>13</ele>
        <time>2021-08-08T06:35:18Z</time>
      </trkpt>
      <trkpt lat="43.65583" lon="-1.4453">
        <ele>13</ele>
        <time>2021-08-08T06:35:19Z</time>
      </trkpt>
      <trkpt lat="43.65568" lon="-1.44538">
        <ele>11.8</ele>
        <time>2021-08-08T06:35:24Z</time>
      </trkpt>
      <trkpt lat="43.65565" lon="-1.44538">
        <ele>11.4</ele>
        <time>2021-08-08T06:35:25Z</time>
      </trkpt>
      <trkpt lat="43.65563" lon="-1.44538">
        <ele>11.2</ele>
        <time>2021-08-08T06:35:26Z</time>
      </trkpt>
      <trkpt lat="43.6556" lon="-1.44536">
        <ele>11</ele>
        <time>2021-08-08T06:35:27Z</time>
      </trkpt>
      <trkpt lat="43.65559" lon="-1.44532">
        <ele>10.8</ele>
        <time>2021-08-08T06:35:28Z</time>
      </trkpt>
      <trkpt lat="43.65558" lon="-1.44528">
        <ele>10.6</ele>
        <time>2021-08-08T06:35:29Z</time>
      </trkpt>
      <trkpt lat="43.65557" lon="-1.44524">
        <ele>10.4</ele>
        <time>2021-08-08T06:35:30Z</time>
      </trkpt>
      <trkpt lat="43.65557" lon="-1.4452">
        <ele>10.4</ele>
        <time>2021-08-08T06:35:31Z</time>
      </trkpt>
      <trkpt lat="43.65557" lon="-1.44515">
        <ele>10.2</ele>
        <time>2021-08-08T06:35:32Z</time>
      </trkpt>
      <trkpt lat="43.65556" lon="-1.445">
        <ele>10.2</ele>
        <time>2021-08-08T06:35:35Z</time>
      </trkpt>
      <trkpt lat="43.6555" lon="-1.44479">
        <ele>10.2</ele>
        <time>2021-08-08T06:35:39Z</time>
      </trkpt>
      <trkpt lat="43.65548" lon="-1.44466">
        <ele>10.2</ele>
        <time>2021-08-08T06:35:41Z</time>
      </trkpt>
      <trkpt lat="43.65548" lon="-1.4446">
        <ele>10.2</ele>
        <time>2021-08-08T06:35:42Z</time>
      </trkpt>
      <trkpt lat="43.65547" lon="-1.44453">
        <ele>10.2</ele>
        <time>2021-08-08T06:35:43Z</time>
      </trkpt>
      <trkpt lat="43.65544" lon="-1.44434">
        <ele>10.2</ele>
        <time>2021-08-08T06:35:46Z</time>
      </trkpt>
      <trkpt lat="43.6553" lon="-1.44362">
        <ele>10.4</ele>
        <time>2021-08-08T06:35:57Z</time>
      </trkpt>
      <trkpt lat="43.6552" lon="-1.44312">
        <ele>10.2</ele>
        <time>2021-08-08T06:36:04Z</time>
      </trkpt>
      <trkpt lat="43.65519" lon="-1.44305">
        <ele>10.2</ele>
        <time>2021-08-08T06:36:05Z</time>
      </trkpt>
      <trkpt lat="43.65504" lon="-1.44236">
        <ele>10.2</ele>
        <time>2021-08-08T06:36:15Z</time>
      </trkpt>
      <trkpt lat="43.65495" lon="-1.44196">
        <ele>10.2</ele>
        <time>2021-08-08T06:36:21Z</time>
      </trkpt>
      <trkpt lat="43.65494" lon="-1.44189">
        <ele>10.2</ele>
        <time>2021-08-08T06:36:22Z</time>
      </trkpt>
      <trkpt lat="43.65493" lon="-1.44182">
        <ele>10.2</ele>
        <time>2021-08-08T06:36:23Z</time>
      </trkpt>
      <trkpt lat="43.65493" lon="-1.44174">
        <ele>10.2</ele>
        <time>2021-08-08T06:36:24Z</time>
      </trkpt>
      <trkpt lat="43.65494" lon="-1.44138">
        <ele>9.8</ele>
        <time>2021-08-08T06:36:29Z</time>
      </trkpt>
      <trkpt lat="43.65493" lon="-1.4411">
        <ele>9.8</ele>
        <time>2021-08-08T06:36:33Z</time>
      </trkpt>
      <trkpt lat="43.65493" lon="-1.44103">
        <ele>9.8</ele>
        <time>2021-08-08T06:36:34Z</time>
      </trkpt>
      <trkpt lat="43.65494" lon="-1.44097">
        <ele>9.8</ele>
        <time>2021-08-08T06:36:35Z</time>
      </trkpt>
      <trkpt lat="43.65495" lon="-1.4409">
        <ele>10</ele>
        <time>2021-08-08T06:36:36Z</time>
      </trkpt>
      <trkpt lat="43.65496" lon="-1.44083">
        <ele>10</ele>
        <time>2021-08-08T06:36:37Z</time>
      </trkpt>
      <trkpt lat="43.65497" lon="-1.44076">
        <ele>10</ele>
        <time>2021-08-08T06:36:38Z</time>
      </trkpt>
      <trkpt lat="43.65501" lon="-1.44056">
        <ele>10</ele>
        <time>2021-08-08T06:36:41Z</time>
      </trkpt>
      <trkpt lat="43.65505" lon="-1.44035">
        <ele>10</ele>
        <time>2021-08-08T06:36:44Z</time>
      </trkpt>
      <trkpt lat="43.65511" lon="-1.44015">
        <ele>10</ele>
        <time>2021-08-08T06:36:47Z</time>
      </trkpt>
      <trkpt lat="43.65516" lon="-1.44004">
        <ele>10</ele>
        <time>2021-08-08T06:36:49Z</time>
      </trkpt>
      <trkpt lat="43.65519" lon="-1.43998">
        <ele>10</ele>
        <time>2021-08-08T06:36:50Z</time>
      </trkpt>
      <trkpt lat="43.65521" lon="-1.43993">
        <ele>10</ele>
        <time>2021-08-08T06:36:51Z</time>
      </trkpt>
      <trkpt lat="43.65525" lon="-1.43988">
        <ele>10</ele>
        <time>2021-08-08T06:36:52Z</time>
      </trkpt>
      <trkpt lat="43.65528" lon="-1.43983">
        <ele>10</ele>
        <time>2021-08-08T06:36:53Z</time>
      </trkpt>
      <trkpt lat="43.6553" lon="-1.43978">
        <ele>10</ele>
        <time>2021-08-08T06:36:54Z</time>
      </trkpt>
      <trkpt lat="43.65533" lon="-1.43974">
        <ele>10</ele>
        <time>2021-08-08T06:36:55Z</time>
      </trkpt>
      <trkpt lat="43.65536" lon="-1.4397">
        <ele>10</ele>
        <time>2021-08-08T06:36:56Z</time>
      </trkpt>
      <trkpt lat="43.65539" lon="-1.43966">
        <ele>10</ele>
        <time>2021-08-08T06:36:57Z</time>
      </trkpt>
      <trkpt lat="43.65543" lon="-1.43963">
        <ele>10</ele>
        <time>2021-08-08T06:36:58Z</time>
      </trkpt>
      <trkpt lat="43.65546" lon="-1.43959">
        <ele>10</ele>
        <time>2021-08-08T06:36:59Z</time>
      </trkpt>
      <trkpt lat="43.65549" lon="-1.43956">
        <ele>10</ele>
        <time>2021-08-08T06:37:00Z</time>
      </trkpt>
      <trkpt lat="43.65552" lon="-1.43955">
        <ele>10</ele>
        <time>2021-08-08T06:37:01Z</time>
      </trkpt>
      <trkpt lat="43.65556" lon="-1.43955">
        <ele>10</ele>
        <time>2021-08-08T06:37:02Z</time>
      </trkpt>
      <trkpt lat="43.65559" lon="-1.43955">
        <ele>10.2</ele>
        <time>2021-08-08T06:37:03Z</time>
      </trkpt>
      <trkpt lat="43.65562" lon="-1.43957">
        <ele>10.2</ele>
        <time>2021-08-08T06:37:04Z</time>
      </trkpt>
      <trkpt lat="43.65566" lon="-1.43959">
        <ele>10.2</ele>
        <time>2021-08-08T06:37:05Z</time>
      </trkpt>
      <trkpt lat="43.65568" lon="-1.43961">
        <ele>10.2</ele>
        <time>2021-08-08T06:37:06Z</time>
      </trkpt>
      <trkpt lat="43.65571" lon="-1.43964">
        <ele>10.4</ele>
        <time>2021-08-08T06:37:07Z</time>
      </trkpt>
      <trkpt lat="43.65573" lon="-1.43966">
        <ele>10.6</ele>
        <time>2021-08-08T06:37:08Z</time>
      </trkpt>
      <trkpt lat="43.65575" lon="-1.43969">
        <ele>10.8</ele>
        <time>2021-08-08T06:37:09Z</time>
      </trkpt>
      <trkpt lat="43.65576" lon="-1.43971">
        <ele>10.8</ele>
        <time>2021-08-08T06:37:10Z</time>
      </trkpt>
      <trkpt lat="43.65578" lon="-1.43971">
        <ele>11.2</ele>
        <time>2021-08-08T06:37:11Z</time>
      </trkpt>
      <trkpt lat="43.65579" lon="-1.43971">
        <ele>11.2</ele>
        <time>2021-08-08T06:37:12Z</time>
      </trkpt>
      <trkpt lat="43.6558" lon="-1.43969">
        <ele>11.4</ele>
        <time>2021-08-08T06:37:13Z</time>
      </trkpt>
      <trkpt lat="43.65579" lon="-1.43966">
        <ele>11.6</ele>
        <time>2021-08-08T06:37:14Z</time>
      </trkpt>
      <trkpt lat="43.65576" lon="-1.43959">
        <ele>12</ele>
        <time>2021-08-08T06:37:16Z</time>
      </trkpt>
      <trkpt lat="43.65574" lon="-1.43955">
        <ele>12.2</ele>
        <time>2021-08-08T06:37:17Z</time>
      </trkpt>
      <trkpt lat="43.65565" lon="-1.43931">
        <ele>12.8</ele>
        <time>2021-08-08T06:37:23Z</time>
      </trkpt>
      <trkpt lat="43.65564" lon="-1.43927">
        <ele>13</ele>
        <time>2021-08-08T06:37:24Z</time>
      </trkpt>
      <trkpt lat="43.65562" lon="-1.43922">
        <ele>13</ele>
        <time>2021-08-08T06:37:25Z</time>
      </trkpt>
      <trkpt lat="43.65561" lon="-1.43917">
        <ele>13.2</ele>
        <time>2021-08-08T06:37:26Z</time>
      </trkpt>
      <trkpt lat="43.6556" lon="-1.43912">
        <ele>13.2</ele>
        <time>2021-08-08T06:37:27Z</time>
      </trkpt>
      <trkpt lat="43.65558" lon="-1.43908">
        <ele>13.2</ele>
        <time>2021-08-08T06:37:28Z</time>
      </trkpt>
      <trkpt lat="43.65557" lon="-1.43903">
        <ele>13.2</ele>
        <time>2021-08-08T06:37:29Z</time>
      </trkpt>
      <trkpt lat="43.65555" lon="-1.43898">
        <ele>13.6</ele>
        <time>2021-08-08T06:37:30Z</time>
      </trkpt>
      <trkpt lat="43.65554" lon="-1.43893">
        <ele>13.6</ele>
        <time>2021-08-08T06:37:31Z</time>
      </trkpt>
      <trkpt lat="43.65552" lon="-1.43888">
        <ele>14</ele>
        <time>2021-08-08T06:37:32Z</time>
      </trkpt>
      <trkpt lat="43.6555" lon="-1.43883">
        <ele>14.2</ele>
        <time>2021-08-08T06:37:33Z</time>
      </trkpt>
      <trkpt lat="43.65548" lon="-1.43878">
        <ele>14.4</ele>
        <time>2021-08-08T06:37:34Z</time>
      </trkpt>
      <trkpt lat="43.65546" lon="-1.43873">
        <ele>14.6</ele>
        <time>2021-08-08T06:37:35Z</time>
      </trkpt>
      <trkpt lat="43.65545" lon="-1.43867">
        <ele>14.6</ele>
        <time>2021-08-08T06:37:36Z</time>
      </trkpt>
      <trkpt lat="43.65543" lon="-1.43862">
        <ele>14.6</ele>
        <time>2021-08-08T06:37:37Z</time>
      </trkpt>
      <trkpt lat="43.65541" lon="-1.43857">
        <ele>14.6</ele>
        <time>2021-08-08T06:37:38Z</time>
      </trkpt>
      <trkpt lat="43.65539" lon="-1.43851">
        <ele>14.6</ele>
        <time>2021-08-08T06:37:39Z</time>
      </trkpt>
      <trkpt lat="43.65537" lon="-1.43846">
        <ele>14.6</ele>
        <time>2021-08-08T06:37:40Z</time>
      </trkpt>
      <trkpt lat="43.65535" lon="-1.43841">
        <ele>14.8</ele>
        <time>2021-08-08T06:37:41Z</time>
      </trkpt>
      <trkpt lat="43.65534" lon="-1.43836">
        <ele>14.8</ele>
        <time>2021-08-08T06:37:42Z</time>
      </trkpt>
      <trkpt lat="43.65532" lon="-1.43829">
        <ele>14.8</ele>
        <time>2021-08-08T06:37:43Z</time>
      </trkpt>
      <trkpt lat="43.65529" lon="-1.43823">
        <ele>14.8</ele>
        <time>2021-08-08T06:37:44Z</time>
      </trkpt>
      <trkpt lat="43.65527" lon="-1.43817">
        <ele>14.6</ele>
        <time>2021-08-08T06:37:45Z</time>
      </trkpt>
      <trkpt lat="43.65525" lon="-1.4381">
        <ele>14.6</ele>
        <time>2021-08-08T06:37:46Z</time>
      </trkpt>
      <trkpt lat="43.65511" lon="-1.43764">
        <ele>13.6</ele>
        <time>2021-08-08T06:37:52Z</time>
      </trkpt>
      <trkpt lat="43.65509" lon="-1.43756">
        <ele>13.6</ele>
        <time>2021-08-08T06:37:53Z</time>
      </trkpt>
      <trkpt lat="43.65506" lon="-1.43749">
        <ele>13.2</ele>
        <time>2021-08-08T06:37:54Z</time>
      </trkpt>
      <trkpt lat="43.65504" lon="-1.43742">
        <ele>13</ele>
        <time>2021-08-08T06:37:55Z</time>
      </trkpt>
      <trkpt lat="43.65502" lon="-1.43736">
        <ele>12.6</ele>
        <time>2021-08-08T06:37:56Z</time>
      </trkpt>
      <trkpt lat="43.65499" lon="-1.43731">
        <ele>12.6</ele>
        <time>2021-08-08T06:37:57Z</time>
      </trkpt>
      <trkpt lat="43.65496" lon="-1.43728">
        <ele>12.2</ele>
        <time>2021-08-08T06:37:58Z</time>
      </trkpt>
      <trkpt lat="43.65493" lon="-1.43727">
        <ele>12</ele>
        <time>2021-08-08T06:37:59Z</time>
      </trkpt>
      <trkpt lat="43.65489" lon="-1.43726">
        <ele>11.6</ele>
        <time>2021-08-08T06:38:00Z</time>
      </trkpt>
      <trkpt lat="43.65486" lon="-1.43725">
        <ele>11.4</ele>
        <time>2021-08-08T06:38:01Z</time>
      </trkpt>
      <trkpt lat="43.65482" lon="-1.43725">
        <ele>11</ele>
        <time>2021-08-08T06:38:02Z</time>
      </trkpt>
      <trkpt lat="43.65478" lon="-1.43725">
        <ele>11</ele>
        <time>2021-08-08T06:38:03Z</time>
      </trkpt>
      <trkpt lat="43.65471" lon="-1.43724">
        <ele>10.6</ele>
        <time>2021-08-08T06:38:05Z</time>
      </trkpt>
      <trkpt lat="43.65468" lon="-1.43723">
        <ele>10.4</ele>
        <time>2021-08-08T06:38:06Z</time>
      </trkpt>
      <trkpt lat="43.65466" lon="-1.43722">
        <ele>10.4</ele>
        <time>2021-08-08T06:38:07Z</time>
      </trkpt>
      <trkpt lat="43.65464" lon="-1.4372">
        <ele>10.4</ele>
        <time>2021-08-08T06:38:08Z</time>
      </trkpt>
      <trkpt lat="43.65464" lon="-1.43715">
        <ele>10.2</ele>
        <time>2021-08-08T06:38:09Z</time>
      </trkpt>
      <trkpt lat="43.65463" lon="-1.43711">
        <ele>10.2</ele>
        <time>2021-08-08T06:38:10Z</time>
      </trkpt>
      <trkpt lat="43.65466" lon="-1.43686">
        <ele>10.2</ele>
        <time>2021-08-08T06:38:15Z</time>
      </trkpt>
      <trkpt lat="43.65464" lon="-1.43676">
        <ele>10.2</ele>
        <time>2021-08-08T06:38:17Z</time>
      </trkpt>
      <trkpt lat="43.65461" lon="-1.43671">
        <ele>10.2</ele>
        <time>2021-08-08T06:38:18Z</time>
      </trkpt>
      <trkpt lat="43.65458" lon="-1.43667">
        <ele>10.4</ele>
        <time>2021-08-08T06:38:19Z</time>
      </trkpt>
      <trkpt lat="43.65455" lon="-1.43663">
        <ele>10.4</ele>
        <time>2021-08-08T06:38:20Z</time>
      </trkpt>
      <trkpt lat="43.65452" lon="-1.43659">
        <ele>10.4</ele>
        <time>2021-08-08T06:38:21Z</time>
      </trkpt>
      <trkpt lat="43.65441" lon="-1.43642">
        <ele>10.4</ele>
        <time>2021-08-08T06:38:25Z</time>
      </trkpt>
      <trkpt lat="43.65422" lon="-1.43601">
        <ele>10.4</ele>
        <time>2021-08-08T06:38:33Z</time>
      </trkpt>
      <trkpt lat="43.65409" lon="-1.43571">
        <ele>10.2</ele>
        <time>2021-08-08T06:38:38Z</time>
      </trkpt>
      <trkpt lat="43.65406" lon="-1.43558">
        <ele>10.2</ele>
        <time>2021-08-08T06:38:40Z</time>
      </trkpt>
      <trkpt lat="43.65403" lon="-1.43538">
        <ele>10.2</ele>
        <time>2021-08-08T06:38:43Z</time>
      </trkpt>
      <trkpt lat="43.65398" lon="-1.43527">
        <ele>10.2</ele>
        <time>2021-08-08T06:38:45Z</time>
      </trkpt>
      <trkpt lat="43.65395" lon="-1.43523">
        <ele>10.2</ele>
        <time>2021-08-08T06:38:46Z</time>
      </trkpt>
      <trkpt lat="43.65391" lon="-1.4352">
        <ele>10.2</ele>
        <time>2021-08-08T06:38:47Z</time>
      </trkpt>
      <trkpt lat="43.65387" lon="-1.43517">
        <ele>10.2</ele>
        <time>2021-08-08T06:38:48Z</time>
      </trkpt>
      <trkpt lat="43.65383" lon="-1.43515">
        <ele>10.2</ele>
        <time>2021-08-08T06:38:49Z</time>
      </trkpt>
      <trkpt lat="43.65379" lon="-1.43512">
        <ele>10.2</ele>
        <time>2021-08-08T06:38:50Z</time>
      </trkpt>
      <trkpt lat="43.65357" lon="-1.43498">
        <ele>10.2</ele>
        <time>2021-08-08T06:38:55Z</time>
      </trkpt>
      <trkpt lat="43.65349" lon="-1.43493">
        <ele>10.2</ele>
        <time>2021-08-08T06:38:57Z</time>
      </trkpt>
      <trkpt lat="43.65346" lon="-1.4349">
        <ele>10.2</ele>
        <time>2021-08-08T06:38:58Z</time>
      </trkpt>
      <trkpt lat="43.65345" lon="-1.43486">
        <ele>10.2</ele>
        <time>2021-08-08T06:38:59Z</time>
      </trkpt>
      <trkpt lat="43.65344" lon="-1.43481">
        <ele>10.2</ele>
        <time>2021-08-08T06:39:00Z</time>
      </trkpt>
      <trkpt lat="43.65343" lon="-1.43476">
        <ele>10.2</ele>
        <time>2021-08-08T06:39:01Z</time>
      </trkpt>
      <trkpt lat="43.65343" lon="-1.43471">
        <ele>10.2</ele>
        <time>2021-08-08T06:39:02Z</time>
      </trkpt>
      <trkpt lat="43.65342" lon="-1.43465">
        <ele>10.2</ele>
        <time>2021-08-08T06:39:03Z</time>
      </trkpt>
      <trkpt lat="43.65342" lon="-1.4346">
        <ele>10.2</ele>
        <time>2021-08-08T06:39:04Z</time>
      </trkpt>
      <trkpt lat="43.65341" lon="-1.43456">
        <ele>10.2</ele>
        <time>2021-08-08T06:39:05Z</time>
      </trkpt>
      <trkpt lat="43.6534" lon="-1.43451">
        <ele>10.2</ele>
        <time>2021-08-08T06:39:06Z</time>
      </trkpt>
      <trkpt lat="43.65339" lon="-1.43447">
        <ele>10.2</ele>
        <time>2021-08-08T06:39:07Z</time>
      </trkpt>
      <trkpt lat="43.65338" lon="-1.43443">
        <ele>10.2</ele>
        <time>2021-08-08T06:39:08Z</time>
      </trkpt>
      <trkpt lat="43.65337" lon="-1.43438">
        <ele>10.2</ele>
        <time>2021-08-08T06:39:09Z</time>
      </trkpt>
      <trkpt lat="43.65337" lon="-1.43434">
        <ele>10.2</ele>
        <time>2021-08-08T06:39:10Z</time>
      </trkpt>
      <trkpt lat="43.65336" lon="-1.43428">
        <ele>10.2</ele>
        <time>2021-08-08T06:39:11Z</time>
      </trkpt>
      <trkpt lat="43.65334" lon="-1.4341">
        <ele>10.2</ele>
        <time>2021-08-08T06:39:14Z</time>
      </trkpt>
      <trkpt lat="43.65332" lon="-1.4339">
        <ele>10.2</ele>
        <time>2021-08-08T06:39:17Z</time>
      </trkpt>
      <trkpt lat="43.65331" lon="-1.43384">
        <ele>10.2</ele>
        <time>2021-08-08T06:39:18Z</time>
      </trkpt>
      <trkpt lat="43.65329" lon="-1.43365">
        <ele>10</ele>
        <time>2021-08-08T06:39:21Z</time>
      </trkpt>
      <trkpt lat="43.65329" lon="-1.43359">
        <ele>10.2</ele>
        <time>2021-08-08T06:39:22Z</time>
      </trkpt>
      <trkpt lat="43.65331" lon="-1.43353">
        <ele>10</ele>
        <time>2021-08-08T06:39:23Z</time>
      </trkpt>
      <trkpt lat="43.65333" lon="-1.43347">
        <ele>10</ele>
        <time>2021-08-08T06:39:24Z</time>
      </trkpt>
      <trkpt lat="43.65336" lon="-1.43343">
        <ele>10</ele>
        <time>2021-08-08T06:39:25Z</time>
      </trkpt>
      <trkpt lat="43.6534" lon="-1.43339">
        <ele>10</ele>
        <time>2021-08-08T06:39:26Z</time>
      </trkpt>
      <trkpt lat="43.65344" lon="-1.43335">
        <ele>10</ele>
        <time>2021-08-08T06:39:27Z</time>
      </trkpt>
      <trkpt lat="43.65357" lon="-1.43322">
        <ele>9.8</ele>
        <time>2021-08-08T06:39:30Z</time>
      </trkpt>
      <trkpt lat="43.65385" lon="-1.43292">
        <ele>9.8</ele>
        <time>2021-08-08T06:39:37Z</time>
      </trkpt>
      <trkpt lat="43.65391" lon="-1.4328">
        <ele>9.8</ele>
        <time>2021-08-08T06:39:39Z</time>
      </trkpt>
      <trkpt lat="43.65395" lon="-1.43267">
        <ele>10</ele>
        <time>2021-08-08T06:39:41Z</time>
      </trkpt>
      <trkpt lat="43.65401" lon="-1.43239">
        <ele>10</ele>
        <time>2021-08-08T06:39:45Z</time>
      </trkpt>
      <trkpt lat="43.65403" lon="-1.43224">
        <ele>10</ele>
        <time>2021-08-08T06:39:47Z</time>
      </trkpt>
      <trkpt lat="43.65403" lon="-1.43217">
        <ele>10</ele>
        <time>2021-08-08T06:39:48Z</time>
      </trkpt>
      <trkpt lat="43.6541" lon="-1.43164">
        <ele>10</ele>
        <time>2021-08-08T06:39:55Z</time>
      </trkpt>
      <trkpt lat="43.65414" lon="-1.43133">
        <ele>10</ele>
        <time>2021-08-08T06:39:59Z</time>
      </trkpt>
      <trkpt lat="43.65419" lon="-1.4312">
        <ele>10</ele>
        <time>2021-08-08T06:40:01Z</time>
      </trkpt>
      <trkpt lat="43.65423" lon="-1.43106">
        <ele>10</ele>
        <time>2021-08-08T06:40:03Z</time>
      </trkpt>
      <trkpt lat="43.65426" lon="-1.43092">
        <ele>10</ele>
        <time>2021-08-08T06:40:05Z</time>
      </trkpt>
      <trkpt lat="43.65426" lon="-1.43086">
        <ele>10</ele>
        <time>2021-08-08T06:40:06Z</time>
      </trkpt>
      <trkpt lat="43.65426" lon="-1.43079">
        <ele>10</ele>
        <time>2021-08-08T06:40:07Z</time>
      </trkpt>
      <trkpt lat="43.65427" lon="-1.43072">
        <ele>10</ele>
        <time>2021-08-08T06:40:08Z</time>
      </trkpt>
      <trkpt lat="43.65427" lon="-1.43065">
        <ele>10</ele>
        <time>2021-08-08T06:40:09Z</time>
      </trkpt>
      <trkpt lat="43.65427" lon="-1.43058">
        <ele>10</ele>
        <time>2021-08-08T06:40:10Z</time>
      </trkpt>
      <trkpt lat="43.65426" lon="-1.43051">
        <ele>10</ele>
        <time>2021-08-08T06:40:11Z</time>
      </trkpt>
      <trkpt lat="43.65425" lon="-1.43044">
        <ele>10</ele>
        <time>2021-08-08T06:40:12Z</time>
      </trkpt>
      <trkpt lat="43.65424" lon="-1.43038">
        <ele>10</ele>
        <time>2021-08-08T06:40:13Z</time>
      </trkpt>
      <trkpt lat="43.65422" lon="-1.43032">
        <ele>10.2</ele>
        <time>2021-08-08T06:40:14Z</time>
      </trkpt>
      <trkpt lat="43.65418" lon="-1.43022">
        <ele>10.2</ele>
        <time>2021-08-08T06:40:16Z</time>
      </trkpt>
      <trkpt lat="43.65414" lon="-1.43021">
        <ele>10.2</ele>
        <time>2021-08-08T06:40:17Z</time>
      </trkpt>
      <trkpt lat="43.6541" lon="-1.4302">
        <ele>10.2</ele>
        <time>2021-08-08T06:40:18Z</time>
      </trkpt>
      <trkpt lat="43.65406" lon="-1.4302">
        <ele>10.2</ele>
        <time>2021-08-08T06:40:19Z</time>
      </trkpt>
      <trkpt lat="43.6538" lon="-1.43023">
        <ele>11.4</ele>
        <time>2021-08-08T06:40:25Z</time>
      </trkpt>
      <trkpt lat="43.65376" lon="-1.43023">
        <ele>11.6</ele>
        <time>2021-08-08T06:40:26Z</time>
      </trkpt>
      <trkpt lat="43.65371" lon="-1.43022">
        <ele>11.6</ele>
        <time>2021-08-08T06:40:27Z</time>
      </trkpt>
      <trkpt lat="43.65366" lon="-1.43023">
        <ele>11.6</ele>
        <time>2021-08-08T06:40:28Z</time>
      </trkpt>
      <trkpt lat="43.65357" lon="-1.43029">
        <ele>11.6</ele>
        <time>2021-08-08T06:40:30Z</time>
      </trkpt>
      <trkpt lat="43.65353" lon="-1.43034">
        <ele>11.6</ele>
        <time>2021-08-08T06:40:31Z</time>
      </trkpt>
      <trkpt lat="43.65348" lon="-1.43038">
        <ele>11.6</ele>
        <time>2021-08-08T06:40:32Z</time>
      </trkpt>
      <trkpt lat="43.65343" lon="-1.43043">
        <ele>11.6</ele>
        <time>2021-08-08T06:40:33Z</time>
      </trkpt>
      <trkpt lat="43.65334" lon="-1.4305">
        <ele>11.4</ele>
        <time>2021-08-08T06:40:35Z</time>
      </trkpt>
      <trkpt lat="43.65328" lon="-1.43052">
        <ele>11.2</ele>
        <time>2021-08-08T06:40:36Z</time>
      </trkpt>
      <trkpt lat="43.65323" lon="-1.43054">
        <ele>11.2</ele>
        <time>2021-08-08T06:40:37Z</time>
      </trkpt>
      <trkpt lat="43.65314" lon="-1.43059">
        <ele>11</ele>
        <time>2021-08-08T06:40:39Z</time>
      </trkpt>
      <trkpt lat="43.65311" lon="-1.43062">
        <ele>11</ele>
        <time>2021-08-08T06:40:40Z</time>
      </trkpt>
      <trkpt lat="43.65309" lon="-1.43066">
        <ele>11</ele>
        <time>2021-08-08T06:40:41Z</time>
      </trkpt>
      <trkpt lat="43.65308" lon="-1.43071">
        <ele>11</ele>
        <time>2021-08-08T06:40:42Z</time>
      </trkpt>
      <trkpt lat="43.65307" lon="-1.43076">
        <ele>11</ele>
        <time>2021-08-08T06:40:43Z</time>
      </trkpt>
      <trkpt lat="43.65305" lon="-1.43082">
        <ele>11</ele>
        <time>2021-08-08T06:40:44Z</time>
      </trkpt>
      <trkpt lat="43.65302" lon="-1.43094">
        <ele>11</ele>
        <time>2021-08-08T06:40:46Z</time>
      </trkpt>
      <trkpt lat="43.65293" lon="-1.43135">
        <ele>11.2</ele>
        <time>2021-08-08T06:40:53Z</time>
      </trkpt>
      <trkpt lat="43.65292" lon="-1.43141">
        <ele>11.2</ele>
        <time>2021-08-08T06:40:54Z</time>
      </trkpt>
      <trkpt lat="43.65287" lon="-1.43156">
        <ele>11.2</ele>
        <time>2021-08-08T06:40:56Z</time>
      </trkpt>
      <trkpt lat="43.65285" lon="-1.43162">
        <ele>11</ele>
        <time>2021-08-08T06:40:57Z</time>
      </trkpt>
      <trkpt lat="43.65283" lon="-1.4317">
        <ele>11</ele>
        <time>2021-08-08T06:40:58Z</time>
      </trkpt>
      <trkpt lat="43.65273" lon="-1.43205">
        <ele>11</ele>
        <time>2021-08-08T06:41:03Z</time>
      </trkpt>
      <trkpt lat="43.65269" lon="-1.43225">
        <ele>10.8</ele>
        <time>2021-08-08T06:41:06Z</time>
      </trkpt>
      <trkpt lat="43.65269" lon="-1.43231">
        <ele>10.8</ele>
        <time>2021-08-08T06:41:07Z</time>
      </trkpt>
      <trkpt lat="43.65268" lon="-1.43237">
        <ele>10.8</ele>
        <time>2021-08-08T06:41:08Z</time>
      </trkpt>
      <trkpt lat="43.65267" lon="-1.43243">
        <ele>10.8</ele>
        <time>2021-08-08T06:41:09Z</time>
      </trkpt>
      <trkpt lat="43.65265" lon="-1.43248">
        <ele>10.8</ele>
        <time>2021-08-08T06:41:10Z</time>
      </trkpt>
      <trkpt lat="43.65257" lon="-1.43271">
        <ele>10.8</ele>
        <time>2021-08-08T06:41:14Z</time>
      </trkpt>
      <trkpt lat="43.65237" lon="-1.43324">
        <ele>10.8</ele>
        <time>2021-08-08T06:41:23Z</time>
      </trkpt>
      <trkpt lat="43.65223" lon="-1.43363">
        <ele>10.8</ele>
        <time>2021-08-08T06:41:30Z</time>
      </trkpt>
      <trkpt lat="43.65221" lon="-1.43368">
        <ele>10.8</ele>
        <time>2021-08-08T06:41:31Z</time>
      </trkpt>
      <trkpt lat="43.65219" lon="-1.43372">
        <ele>10.8</ele>
        <time>2021-08-08T06:41:32Z</time>
      </trkpt>
      <trkpt lat="43.65217" lon="-1.43378">
        <ele>10.8</ele>
        <time>2021-08-08T06:41:33Z</time>
      </trkpt>
      <trkpt lat="43.65213" lon="-1.43388">
        <ele>10.8</ele>
        <time>2021-08-08T06:41:35Z</time>
      </trkpt>
      <trkpt lat="43.65211" lon="-1.43393">
        <ele>10.8</ele>
        <time>2021-08-08T06:41:36Z</time>
      </trkpt>
      <trkpt lat="43.65211" lon="-1.43398">
        <ele>10.8</ele>
        <time>2021-08-08T06:41:37Z</time>
      </trkpt>
      <trkpt lat="43.65213" lon="-1.43402">
        <ele>10.8</ele>
        <time>2021-08-08T06:41:38Z</time>
      </trkpt>
      <trkpt lat="43.65216" lon="-1.43406">
        <ele>10.8</ele>
        <time>2021-08-08T06:41:39Z</time>
      </trkpt>
      <trkpt lat="43.65219" lon="-1.43409">
        <ele>10.8</ele>
        <time>2021-08-08T06:41:40Z</time>
      </trkpt>
      <trkpt lat="43.65221" lon="-1.43413">
        <ele>10.8</ele>
        <time>2021-08-08T06:41:41Z</time>
      </trkpt>
      <trkpt lat="43.65224" lon="-1.43417">
        <ele>10.8</ele>
        <time>2021-08-08T06:41:42Z</time>
      </trkpt>
      <trkpt lat="43.65232" lon="-1.4343">
        <ele>10.8</ele>
        <time>2021-08-08T06:41:45Z</time>
      </trkpt>
      <trkpt lat="43.65232" lon="-1.43435">
        <ele>10.8</ele>
        <time>2021-08-08T06:41:46Z</time>
      </trkpt>
      <trkpt lat="43.65231" lon="-1.43439">
        <ele>10.8</ele>
        <time>2021-08-08T06:41:47Z</time>
      </trkpt>
      <trkpt lat="43.65224" lon="-1.43452">
        <ele>10.8</ele>
        <time>2021-08-08T06:41:50Z</time>
      </trkpt>
      <trkpt lat="43.65206" lon="-1.43475">
        <ele>10.8</ele>
        <time>2021-08-08T06:41:56Z</time>
      </trkpt>
      <trkpt lat="43.65199" lon="-1.4348">
        <ele>10.8</ele>
        <time>2021-08-08T06:41:58Z</time>
      </trkpt>
      <trkpt lat="43.65195" lon="-1.4348">
        <ele>10.8</ele>
        <time>2021-08-08T06:41:59Z</time>
      </trkpt>
      <trkpt lat="43.65191" lon="-1.4348">
        <ele>10.8</ele>
        <time>2021-08-08T06:42:00Z</time>
      </trkpt>
      <trkpt lat="43.65186" lon="-1.43478">
        <ele>10.8</ele>
        <time>2021-08-08T06:42:01Z</time>
      </trkpt>
      <trkpt lat="43.65182" lon="-1.43476">
        <ele>10.8</ele>
        <time>2021-08-08T06:42:02Z</time>
      </trkpt>
      <trkpt lat="43.65178" lon="-1.43474">
        <ele>10.8</ele>
        <time>2021-08-08T06:42:03Z</time>
      </trkpt>
      <trkpt lat="43.65174" lon="-1.43472">
        <ele>10.8</ele>
        <time>2021-08-08T06:42:04Z</time>
      </trkpt>
      <trkpt lat="43.6517" lon="-1.43473">
        <ele>10.6</ele>
        <time>2021-08-08T06:42:05Z</time>
      </trkpt>
      <trkpt lat="43.65167" lon="-1.43476">
        <ele>10.6</ele>
        <time>2021-08-08T06:42:06Z</time>
      </trkpt>
      <trkpt lat="43.6516" lon="-1.43483">
        <ele>10.6</ele>
        <time>2021-08-08T06:42:08Z</time>
      </trkpt>
      <trkpt lat="43.65156" lon="-1.43487">
        <ele>10.6</ele>
        <time>2021-08-08T06:42:09Z</time>
      </trkpt>
      <trkpt lat="43.65153" lon="-1.4349">
        <ele>10.6</ele>
        <time>2021-08-08T06:42:10Z</time>
      </trkpt>
      <trkpt lat="43.6515" lon="-1.43493">
        <ele>10.6</ele>
        <time>2021-08-08T06:42:11Z</time>
      </trkpt>
      <trkpt lat="43.65146" lon="-1.43493">
        <ele>10.8</ele>
        <time>2021-08-08T06:42:12Z</time>
      </trkpt>
      <trkpt lat="43.65143" lon="-1.43492">
        <ele>10.8</ele>
        <time>2021-08-08T06:42:13Z</time>
      </trkpt>
      <trkpt lat="43.65139" lon="-1.43491">
        <ele>10.6</ele>
        <time>2021-08-08T06:42:14Z</time>
      </trkpt>
      <trkpt lat="43.65136" lon="-1.43489">
        <ele>10.8</ele>
        <time>2021-08-08T06:42:15Z</time>
      </trkpt>
      <trkpt lat="43.65133" lon="-1.43488">
        <ele>10.8</ele>
        <time>2021-08-08T06:42:16Z</time>
      </trkpt>
      <trkpt lat="43.6513" lon="-1.43486">
        <ele>10.8</ele>
        <time>2021-08-08T06:42:17Z</time>
      </trkpt>
      <trkpt lat="43.65124" lon="-1.43482">
        <ele>10.6</ele>
        <time>2021-08-08T06:42:19Z</time>
      </trkpt>
      <trkpt lat="43.6512" lon="-1.43481">
        <ele>10.6</ele>
        <time>2021-08-08T06:42:20Z</time>
      </trkpt>
      <trkpt lat="43.65117" lon="-1.43479">
        <ele>10.6</ele>
        <time>2021-08-08T06:42:21Z</time>
      </trkpt>
      <trkpt lat="43.65096" lon="-1.43471">
        <ele>10.6</ele>
        <time>2021-08-08T06:42:26Z</time>
      </trkpt>
      <trkpt lat="43.6508" lon="-1.43462">
        <ele>10.4</ele>
        <time>2021-08-08T06:42:30Z</time>
      </trkpt>
      <trkpt lat="43.65072" lon="-1.43459">
        <ele>10.4</ele>
        <time>2021-08-08T06:42:32Z</time>
      </trkpt>
      <trkpt lat="43.65055" lon="-1.4345">
        <ele>10.4</ele>
        <time>2021-08-08T06:42:36Z</time>
      </trkpt>
      <trkpt lat="43.65046" lon="-1.43448">
        <ele>10.4</ele>
        <time>2021-08-08T06:42:38Z</time>
      </trkpt>
      <trkpt lat="43.65029" lon="-1.43441">
        <ele>10.4</ele>
        <time>2021-08-08T06:42:42Z</time>
      </trkpt>
      <trkpt lat="43.65025" lon="-1.43439">
        <ele>10.4</ele>
        <time>2021-08-08T06:42:43Z</time>
      </trkpt>
      <trkpt lat="43.65012" lon="-1.43433">
        <ele>10.4</ele>
        <time>2021-08-08T06:42:46Z</time>
      </trkpt>
      <trkpt lat="43.64995" lon="-1.43425">
        <ele>10.2</ele>
        <time>2021-08-08T06:42:50Z</time>
      </trkpt>
      <trkpt lat="43.64986" lon="-1.43426">
        <ele>10.2</ele>
        <time>2021-08-08T06:42:52Z</time>
      </trkpt>
      <trkpt lat="43.64982" lon="-1.43428">
        <ele>10.2</ele>
        <time>2021-08-08T06:42:53Z</time>
      </trkpt>
      <trkpt lat="43.64978" lon="-1.43431">
        <ele>10.2</ele>
        <time>2021-08-08T06:42:54Z</time>
      </trkpt>
      <trkpt lat="43.64975" lon="-1.43434">
        <ele>10.2</ele>
        <time>2021-08-08T06:42:55Z</time>
      </trkpt>
      <trkpt lat="43.64971" lon="-1.43438">
        <ele>10.4</ele>
        <time>2021-08-08T06:42:56Z</time>
      </trkpt>
      <trkpt lat="43.64968" lon="-1.43442">
        <ele>10.4</ele>
        <time>2021-08-08T06:42:57Z</time>
      </trkpt>
      <trkpt lat="43.64965" lon="-1.43445">
        <ele>10.4</ele>
        <time>2021-08-08T06:42:58Z</time>
      </trkpt>
      <trkpt lat="43.64963" lon="-1.4345">
        <ele>10.4</ele>
        <time>2021-08-08T06:42:59Z</time>
      </trkpt>
      <trkpt lat="43.64961" lon="-1.43455">
        <ele>10.4</ele>
        <time>2021-08-08T06:43:00Z</time>
      </trkpt>
      <trkpt lat="43.64958" lon="-1.4346">
        <ele>10.4</ele>
        <time>2021-08-08T06:43:01Z</time>
      </trkpt>
      <trkpt lat="43.64953" lon="-1.4347">
        <ele>10.4</ele>
        <time>2021-08-08T06:43:03Z</time>
      </trkpt>
      <trkpt lat="43.64937" lon="-1.43504">
        <ele>10.8</ele>
        <time>2021-08-08T06:43:09Z</time>
      </trkpt>
      <trkpt lat="43.64934" lon="-1.43509">
        <ele>10.8</ele>
        <time>2021-08-08T06:43:10Z</time>
      </trkpt>
      <trkpt lat="43.6493" lon="-1.43513">
        <ele>10.8</ele>
        <time>2021-08-08T06:43:11Z</time>
      </trkpt>
      <trkpt lat="43.64926" lon="-1.43517">
        <ele>10.8</ele>
        <time>2021-08-08T06:43:12Z</time>
      </trkpt>
      <trkpt lat="43.64921" lon="-1.43519">
        <ele>10.8</ele>
        <time>2021-08-08T06:43:13Z</time>
      </trkpt>
      <trkpt lat="43.64916" lon="-1.43521">
        <ele>10.8</ele>
        <time>2021-08-08T06:43:14Z</time>
      </trkpt>
      <trkpt lat="43.64912" lon="-1.43521">
        <ele>10.8</ele>
        <time>2021-08-08T06:43:15Z</time>
      </trkpt>
      <trkpt lat="43.64907" lon="-1.4352">
        <ele>10.8</ele>
        <time>2021-08-08T06:43:16Z</time>
      </trkpt>
      <trkpt lat="43.64902" lon="-1.4352">
        <ele>10.8</ele>
        <time>2021-08-08T06:43:17Z</time>
      </trkpt>
      <trkpt lat="43.64898" lon="-1.4352">
        <ele>10.8</ele>
        <time>2021-08-08T06:43:18Z</time>
      </trkpt>
      <trkpt lat="43.64894" lon="-1.4352">
        <ele>10.8</ele>
        <time>2021-08-08T06:43:19Z</time>
      </trkpt>
      <trkpt lat="43.64891" lon="-1.43522">
        <ele>10.8</ele>
        <time>2021-08-08T06:43:20Z</time>
      </trkpt>
      <trkpt lat="43.6489" lon="-1.43524">
        <ele>10.8</ele>
        <time>2021-08-08T06:43:21Z</time>
      </trkpt>
      <trkpt lat="43.64889" lon="-1.43528">
        <ele>10.8</ele>
        <time>2021-08-08T06:43:22Z</time>
      </trkpt>
      <trkpt lat="43.64887" lon="-1.43538">
        <ele>10.8</ele>
        <time>2021-08-08T06:43:24Z</time>
      </trkpt>
      <trkpt lat="43.64886" lon="-1.43543">
        <ele>10.8</ele>
        <time>2021-08-08T06:43:25Z</time>
      </trkpt>
      <trkpt lat="43.64886" lon="-1.43553">
        <ele>10.8</ele>
        <time>2021-08-08T06:43:27Z</time>
      </trkpt>
      <trkpt lat="43.64887" lon="-1.43558">
        <ele>10.8</ele>
        <time>2021-08-08T06:43:28Z</time>
      </trkpt>
      <trkpt lat="43.64889" lon="-1.43563">
        <ele>10.8</ele>
        <time>2021-08-08T06:43:29Z</time>
      </trkpt>
      <trkpt lat="43.64896" lon="-1.43569">
        <ele>11</ele>
        <time>2021-08-08T06:43:31Z</time>
      </trkpt>
      <trkpt lat="43.64901" lon="-1.4357">
        <ele>11</ele>
        <time>2021-08-08T06:43:32Z</time>
      </trkpt>
      <trkpt lat="43.64906" lon="-1.43572">
        <ele>11</ele>
        <time>2021-08-08T06:43:33Z</time>
      </trkpt>
      <trkpt lat="43.6491" lon="-1.43574">
        <ele>11</ele>
        <time>2021-08-08T06:43:34Z</time>
      </trkpt>
      <trkpt lat="43.6492" lon="-1.43578">
        <ele>10.8</ele>
        <time>2021-08-08T06:43:36Z</time>
      </trkpt>
      <trkpt lat="43.64925" lon="-1.4358">
        <ele>10.8</ele>
        <time>2021-08-08T06:43:37Z</time>
      </trkpt>
      <trkpt lat="43.64967" lon="-1.43592">
        <ele>10.2</ele>
        <time>2021-08-08T06:43:45Z</time>
      </trkpt>
      <trkpt lat="43.65015" lon="-1.43609">
        <ele>10.2</ele>
        <time>2021-08-08T06:43:54Z</time>
      </trkpt>
      <trkpt lat="43.65054" lon="-1.43623">
        <ele>10.8</ele>
        <time>2021-08-08T06:44:01Z</time>
      </trkpt>
      <trkpt lat="43.65067" lon="-1.43627">
        <ele>10.6</ele>
        <time>2021-08-08T06:44:04Z</time>
      </trkpt>
      <trkpt lat="43.65078" lon="-1.4363">
        <ele>10.6</ele>
        <time>2021-08-08T06:44:06Z</time>
      </trkpt>
      <trkpt lat="43.65125" lon="-1.43646">
        <ele>10.6</ele>
        <time>2021-08-08T06:44:14Z</time>
      </trkpt>
      <trkpt lat="43.65177" lon="-1.43666">
        <ele>11</ele>
        <time>2021-08-08T06:44:23Z</time>
      </trkpt>
      <trkpt lat="43.65217" lon="-1.43689">
        <ele>10.8</ele>
        <time>2021-08-08T06:44:30Z</time>
      </trkpt>
      <trkpt lat="43.65244" lon="-1.43723">
        <ele>10.6</ele>
        <time>2021-08-08T06:44:36Z</time>
      </trkpt>
      <trkpt lat="43.65268" lon="-1.43772">
        <ele>11</ele>
        <time>2021-08-08T06:44:43Z</time>
      </trkpt>
      <trkpt lat="43.65273" lon="-1.43786">
        <ele>11</ele>
        <time>2021-08-08T06:44:45Z</time>
      </trkpt>
      <trkpt lat="43.65276" lon="-1.43793">
        <ele>11</ele>
        <time>2021-08-08T06:44:46Z</time>
      </trkpt>
      <trkpt lat="43.65279" lon="-1.438">
        <ele>11</ele>
        <time>2021-08-08T06:44:47Z</time>
      </trkpt>
      <trkpt lat="43.65294" lon="-1.43836">
        <ele>11</ele>
        <time>2021-08-08T06:44:52Z</time>
      </trkpt>
      <trkpt lat="43.65308" lon="-1.43871">
        <ele>10.8</ele>
        <time>2021-08-08T06:44:57Z</time>
      </trkpt>
      <trkpt lat="43.6531" lon="-1.43878">
        <ele>10.8</ele>
        <time>2021-08-08T06:44:58Z</time>
      </trkpt>
      <trkpt lat="43.65312" lon="-1.43884">
        <ele>10.8</ele>
        <time>2021-08-08T06:44:59Z</time>
      </trkpt>
      <trkpt lat="43.65315" lon="-1.43891">
        <ele>10.8</ele>
        <time>2021-08-08T06:45:00Z</time>
      </trkpt>
      <trkpt lat="43.65317" lon="-1.43897">
        <ele>10.6</ele>
        <time>2021-08-08T06:45:01Z</time>
      </trkpt>
      <trkpt lat="43.6532" lon="-1.43904">
        <ele>10.6</ele>
        <time>2021-08-08T06:45:02Z</time>
      </trkpt>
      <trkpt lat="43.65323" lon="-1.4391">
        <ele>10.6</ele>
        <time>2021-08-08T06:45:03Z</time>
      </trkpt>
      <trkpt lat="43.65326" lon="-1.43916">
        <ele>10.6</ele>
        <time>2021-08-08T06:45:04Z</time>
      </trkpt>
      <trkpt lat="43.65331" lon="-1.4393">
        <ele>10.6</ele>
        <time>2021-08-08T06:45:06Z</time>
      </trkpt>
      <trkpt lat="43.65334" lon="-1.43937">
        <ele>10.8</ele>
        <time>2021-08-08T06:45:07Z</time>
      </trkpt>
      <trkpt lat="43.65336" lon="-1.43943">
        <ele>10.8</ele>
        <time>2021-08-08T06:45:08Z</time>
      </trkpt>
      <trkpt lat="43.65338" lon="-1.4395">
        <ele>10.8</ele>
        <time>2021-08-08T06:45:09Z</time>
      </trkpt>
      <trkpt lat="43.65359" lon="-1.44003">
        <ele>11</ele>
        <time>2021-08-08T06:45:17Z</time>
      </trkpt>
      <trkpt lat="43.65363" lon="-1.44016">
        <ele>11</ele>
        <time>2021-08-08T06:45:19Z</time>
      </trkpt>
      <trkpt lat="43.65367" lon="-1.44029">
        <ele>11</ele>
        <time>2021-08-08T06:45:21Z</time>
      </trkpt>
      <trkpt lat="43.65369" lon="-1.44035">
        <ele>11</ele>
        <time>2021-08-08T06:45:22Z</time>
      </trkpt>
      <trkpt lat="43.65372" lon="-1.44041">
        <ele>11</ele>
        <time>2021-08-08T06:45:23Z</time>
      </trkpt>
      <trkpt lat="43.65375" lon="-1.44047">
        <ele>11</ele>
        <time>2021-08-08T06:45:24Z</time>
      </trkpt>
      <trkpt lat="43.65377" lon="-1.44054">
        <ele>11</ele>
        <time>2021-08-08T06:45:25Z</time>
      </trkpt>
      <trkpt lat="43.6538" lon="-1.4406">
        <ele>11</ele>
        <time>2021-08-08T06:45:26Z</time>
      </trkpt>
      <trkpt lat="43.65382" lon="-1.44066">
        <ele>11</ele>
        <time>2021-08-08T06:45:27Z</time>
      </trkpt>
      <trkpt lat="43.65387" lon="-1.4408">
        <ele>11</ele>
        <time>2021-08-08T06:45:29Z</time>
      </trkpt>
      <trkpt lat="43.65388" lon="-1.44086">
        <ele>11</ele>
        <time>2021-08-08T06:45:30Z</time>
      </trkpt>
      <trkpt lat="43.65391" lon="-1.44093">
        <ele>11</ele>
        <time>2021-08-08T06:45:31Z</time>
      </trkpt>
      <trkpt lat="43.65399" lon="-1.44111">
        <ele>11</ele>
        <time>2021-08-08T06:45:34Z</time>
      </trkpt>
      <trkpt lat="43.65418" lon="-1.44155">
        <ele>11.2</ele>
        <time>2021-08-08T06:45:41Z</time>
      </trkpt>
      <trkpt lat="43.65422" lon="-1.44168">
        <ele>10.8</ele>
        <time>2021-08-08T06:45:43Z</time>
      </trkpt>
      <trkpt lat="43.65424" lon="-1.44175">
        <ele>10.8</ele>
        <time>2021-08-08T06:45:44Z</time>
      </trkpt>
      <trkpt lat="43.65426" lon="-1.44181">
        <ele>10.8</ele>
        <time>2021-08-08T06:45:45Z</time>
      </trkpt>
      <trkpt lat="43.65429" lon="-1.44188">
        <ele>10.8</ele>
        <time>2021-08-08T06:45:46Z</time>
      </trkpt>
      <trkpt lat="43.65441" lon="-1.44222">
        <ele>10.6</ele>
        <time>2021-08-08T06:45:51Z</time>
      </trkpt>
      <trkpt lat="43.65444" lon="-1.44236">
        <ele>10.6</ele>
        <time>2021-08-08T06:45:53Z</time>
      </trkpt>
      <trkpt lat="43.65457" lon="-1.44302">
        <ele>10.4</ele>
        <time>2021-08-08T06:46:02Z</time>
      </trkpt>
      <trkpt lat="43.6547" lon="-1.44369">
        <ele>10.4</ele>
        <time>2021-08-08T06:46:11Z</time>
      </trkpt>
      <trkpt lat="43.65476" lon="-1.44405">
        <ele>10.4</ele>
        <time>2021-08-08T06:46:15Z</time>
      </trkpt>
      <trkpt lat="43.65479" lon="-1.44418">
        <ele>10.6</ele>
        <time>2021-08-08T06:46:17Z</time>
      </trkpt>
      <trkpt lat="43.6548" lon="-1.44424">
        <ele>10.6</ele>
        <time>2021-08-08T06:46:18Z</time>
      </trkpt>
      <trkpt lat="43.65481" lon="-1.4443">
        <ele>10.8</ele>
        <time>2021-08-08T06:46:19Z</time>
      </trkpt>
      <trkpt lat="43.65482" lon="-1.44435">
        <ele>10.8</ele>
        <time>2021-08-08T06:46:20Z</time>
      </trkpt>
      <trkpt lat="43.65483" lon="-1.44439">
        <ele>11</ele>
        <time>2021-08-08T06:46:21Z</time>
      </trkpt>
      <trkpt lat="43.65483" lon="-1.44444">
        <ele>11</ele>
        <time>2021-08-08T06:46:22Z</time>
      </trkpt>
      <trkpt lat="43.65483" lon="-1.44447">
        <ele>11.2</ele>
        <time>2021-08-08T06:46:23Z</time>
      </trkpt>
      <trkpt lat="43.65483" lon="-1.44447">
        <ele>11.2</ele>
        <time>2021-08-08T06:46:24Z</time>
      </trkpt>
      <trkpt lat="43.65481" lon="-1.44455">
        <ele>11.4</ele>
        <time>2021-08-08T06:46:25Z</time>
      </trkpt>
      <trkpt lat="43.6548" lon="-1.44459">
        <ele>11.6</ele>
        <time>2021-08-08T06:46:26Z</time>
      </trkpt>
      <trkpt lat="43.65478" lon="-1.44464">
        <ele>12</ele>
        <time>2021-08-08T06:46:28Z</time>
      </trkpt>
      <trkpt lat="43.65478" lon="-1.44467">
        <ele>12.2</ele>
        <time>2021-08-08T06:46:29Z</time>
      </trkpt>
      <trkpt lat="43.65478" lon="-1.44469">
        <ele>12.4</ele>
        <time>2021-08-08T06:46:30Z</time>
      </trkpt>
      <trkpt lat="43.65478" lon="-1.44472">
        <ele>12.4</ele>
        <time>2021-08-08T06:46:31Z</time>
      </trkpt>
      <trkpt lat="43.65479" lon="-1.44474">
        <ele>12.4</ele>
        <time>2021-08-08T06:46:32Z</time>
      </trkpt>
      <trkpt lat="43.6548" lon="-1.44476">
        <ele>12.4</ele>
        <time>2021-08-08T06:46:33Z</time>
      </trkpt>
      <trkpt lat="43.6548" lon="-1.44478">
        <ele>12.4</ele>
        <time>2021-08-08T06:46:34Z</time>
      </trkpt>
      <trkpt lat="43.65481" lon="-1.44479">
        <ele>12.4</ele>
        <time>2021-08-08T06:46:35Z</time>
      </trkpt>
      <trkpt lat="43.65481" lon="-1.44481">
        <ele>12.4</ele>
        <time>2021-08-08T06:46:36Z</time>
      </trkpt>
      <trkpt lat="43.65481" lon="-1.44484">
        <ele>12.4</ele>
        <time>2021-08-08T06:46:37Z</time>
      </trkpt>
      <trkpt lat="43.6548" lon="-1.44486">
        <ele>12.4</ele>
        <time>2021-08-08T06:46:38Z</time>
      </trkpt>
      <trkpt lat="43.6548" lon="-1.44488">
        <ele>12.4</ele>
        <time>2021-08-08T06:46:39Z</time>
      </trkpt>
      <trkpt lat="43.65481" lon="-1.4449">
        <ele>12.4</ele>
        <time>2021-08-08T06:46:40Z</time>
      </trkpt>
      <trkpt lat="43.65481" lon="-1.44492">
        <ele>12.4</ele>
        <time>2021-08-08T06:46:41Z</time>
      </trkpt>
      <trkpt lat="43.65481" lon="-1.44495">
        <ele>12.4</ele>
        <time>2021-08-08T06:46:42Z</time>
      </trkpt>
      <trkpt lat="43.6548" lon="-1.44497">
        <ele>12.4</ele>
        <time>2021-08-08T06:46:43Z</time>
      </trkpt>
      <trkpt lat="43.65479" lon="-1.44498">
        <ele>12.4</ele>
        <time>2021-08-08T06:46:44Z</time>
      </trkpt>
      <trkpt lat="43.65477" lon="-1.44497">
        <ele>12.4</ele>
        <time>2021-08-08T06:46:45Z</time>
      </trkpt>
      <trkpt lat="43.65475" lon="-1.44491">
        <ele>12.6</ele>
        <time>2021-08-08T06:46:47Z</time>
      </trkpt>
      <trkpt lat="43.65474" lon="-1.44488">
        <ele>12.6</ele>
        <time>2021-08-08T06:46:48Z</time>
      </trkpt>
      <trkpt lat="43.65464" lon="-1.44471">
        <ele>12.4</ele>
        <time>2021-08-08T06:46:54Z</time>
      </trkpt>
      <trkpt lat="43.65461" lon="-1.44471">
        <ele>12.4</ele>
        <time>2021-08-08T06:46:55Z</time>
      </trkpt>
      <trkpt lat="43.65458" lon="-1.44472">
        <ele>12.2</ele>
        <time>2021-08-08T06:46:56Z</time>
      </trkpt>
      <trkpt lat="43.65451" lon="-1.44475">
        <ele>12.4</ele>
        <time>2021-08-08T06:46:58Z</time>
      </trkpt>
      <trkpt lat="43.65422" lon="-1.44485">
        <ele>12.6</ele>
        <time>2021-08-08T06:47:05Z</time>
      </trkpt>
      <trkpt lat="43.65401" lon="-1.44492">
        <ele>12.8</ele>
        <time>2021-08-08T06:47:10Z</time>
      </trkpt>
      <trkpt lat="43.65389" lon="-1.44497">
        <ele>12.8</ele>
        <time>2021-08-08T06:47:13Z</time>
      </trkpt>
      <trkpt lat="43.65364" lon="-1.44506">
        <ele>13.4</ele>
        <time>2021-08-08T06:47:19Z</time>
      </trkpt>
      <trkpt lat="43.65343" lon="-1.44512">
        <ele>14</ele>
        <time>2021-08-08T06:47:24Z</time>
      </trkpt>
      <trkpt lat="43.65312" lon="-1.44523">
        <ele>14.4</ele>
        <time>2021-08-08T06:47:31Z</time>
      </trkpt>
      <trkpt lat="43.65307" lon="-1.44524">
        <ele>14.6</ele>
        <time>2021-08-08T06:47:32Z</time>
      </trkpt>
      <trkpt lat="43.65294" lon="-1.44528">
        <ele>14.6</ele>
        <time>2021-08-08T06:47:35Z</time>
      </trkpt>
      <trkpt lat="43.65272" lon="-1.44534">
        <ele>14.6</ele>
        <time>2021-08-08T06:47:40Z</time>
      </trkpt>
      <trkpt lat="43.65263" lon="-1.44537">
        <ele>14.6</ele>
        <time>2021-08-08T06:47:42Z</time>
      </trkpt>
      <trkpt lat="43.65254" lon="-1.4454">
        <ele>14.6</ele>
        <time>2021-08-08T06:47:44Z</time>
      </trkpt>
      <trkpt lat="43.6525" lon="-1.44542">
        <ele>14.6</ele>
        <time>2021-08-08T06:47:45Z</time>
      </trkpt>
      <trkpt lat="43.65245" lon="-1.44545">
        <ele>14.6</ele>
        <time>2021-08-08T06:47:46Z</time>
      </trkpt>
      <trkpt lat="43.65225" lon="-1.44552">
        <ele>14.6</ele>
        <time>2021-08-08T06:47:50Z</time>
      </trkpt>
      <trkpt lat="43.65209" lon="-1.44553">
        <ele>14.6</ele>
        <time>2021-08-08T06:47:53Z</time>
      </trkpt>
      <trkpt lat="43.65203" lon="-1.44554">
        <ele>14.6</ele>
        <time>2021-08-08T06:47:54Z</time>
      </trkpt>
      <trkpt lat="43.65198" lon="-1.44555">
        <ele>14.6</ele>
        <time>2021-08-08T06:47:55Z</time>
      </trkpt>
      <trkpt lat="43.65177" lon="-1.44559">
        <ele>14.8</ele>
        <time>2021-08-08T06:47:59Z</time>
      </trkpt>
      <trkpt lat="43.6516" lon="-1.44561">
        <ele>14.8</ele>
        <time>2021-08-08T06:48:02Z</time>
      </trkpt>
      <trkpt lat="43.65155" lon="-1.44561">
        <ele>14.8</ele>
        <time>2021-08-08T06:48:03Z</time>
      </trkpt>
      <trkpt lat="43.6514" lon="-1.44561">
        <ele>14.6</ele>
        <time>2021-08-08T06:48:06Z</time>
      </trkpt>
      <trkpt lat="43.65135" lon="-1.44561">
        <ele>14.6</ele>
        <time>2021-08-08T06:48:07Z</time>
      </trkpt>
      <trkpt lat="43.6513" lon="-1.44562">
        <ele>14.6</ele>
        <time>2021-08-08T06:48:08Z</time>
      </trkpt>
      <trkpt lat="43.65124" lon="-1.44562">
        <ele>14.6</ele>
        <time>2021-08-08T06:48:09Z</time>
      </trkpt>
      <trkpt lat="43.65119" lon="-1.44563">
        <ele>14.6</ele>
        <time>2021-08-08T06:48:10Z</time>
      </trkpt>
      <trkpt lat="43.65114" lon="-1.44563">
        <ele>14.6</ele>
        <time>2021-08-08T06:48:11Z</time>
      </trkpt>
      <trkpt lat="43.65108" lon="-1.44563">
        <ele>14.6</ele>
        <time>2021-08-08T06:48:12Z</time>
      </trkpt>
      <trkpt lat="43.65092" lon="-1.44563">
        <ele>14.6</ele>
        <time>2021-08-08T06:48:15Z</time>
      </trkpt>
      <trkpt lat="43.6507" lon="-1.44563">
        <ele>14.8</ele>
        <time>2021-08-08T06:48:19Z</time>
      </trkpt>
      <trkpt lat="43.65059" lon="-1.44561">
        <ele>15</ele>
        <time>2021-08-08T06:48:21Z</time>
      </trkpt>
      <trkpt lat="43.65054" lon="-1.44558">
        <ele>15</ele>
        <time>2021-08-08T06:48:22Z</time>
      </trkpt>
      <trkpt lat="43.6505" lon="-1.44557">
        <ele>15</ele>
        <time>2021-08-08T06:48:23Z</time>
      </trkpt>
      <trkpt lat="43.65046" lon="-1.44555">
        <ele>15</ele>
        <time>2021-08-08T06:48:24Z</time>
      </trkpt>
      <trkpt lat="43.65042" lon="-1.44552">
        <ele>15</ele>
        <time>2021-08-08T06:48:25Z</time>
      </trkpt>
      <trkpt lat="43.65039" lon="-1.44549">
        <ele>15</ele>
        <time>2021-08-08T06:48:26Z</time>
      </trkpt>
      <trkpt lat="43.65036" lon="-1.44545">
        <ele>15</ele>
        <time>2021-08-08T06:48:27Z</time>
      </trkpt>
      <trkpt lat="43.65033" lon="-1.4454">
        <ele>15</ele>
        <time>2021-08-08T06:48:28Z</time>
      </trkpt>
      <trkpt lat="43.65029" lon="-1.44536">
        <ele>15</ele>
        <time>2021-08-08T06:48:29Z</time>
      </trkpt>
      <trkpt lat="43.65022" lon="-1.44528">
        <ele>15</ele>
        <time>2021-08-08T06:48:31Z</time>
      </trkpt>
      <trkpt lat="43.65015" lon="-1.44518">
        <ele>14.8</ele>
        <time>2021-08-08T06:48:33Z</time>
      </trkpt>
      <trkpt lat="43.65002" lon="-1.44493">
        <ele>14.4</ele>
        <time>2021-08-08T06:48:37Z</time>
      </trkpt>
      <trkpt lat="43.64998" lon="-1.44487">
        <ele>14.2</ele>
        <time>2021-08-08T06:48:38Z</time>
      </trkpt>
      <trkpt lat="43.6498" lon="-1.44452">
        <ele>13.8</ele>
        <time>2021-08-08T06:48:43Z</time>
      </trkpt>
      <trkpt lat="43.64976" lon="-1.44446">
        <ele>13.8</ele>
        <time>2021-08-08T06:48:44Z</time>
      </trkpt>
      <trkpt lat="43.64969" lon="-1.44434">
        <ele>13.6</ele>
        <time>2021-08-08T06:48:46Z</time>
      </trkpt>
      <trkpt lat="43.64966" lon="-1.44428">
        <ele>13.4</ele>
        <time>2021-08-08T06:48:47Z</time>
      </trkpt>
      <trkpt lat="43.64963" lon="-1.44423">
        <ele>13.2</ele>
        <time>2021-08-08T06:48:48Z</time>
      </trkpt>
      <trkpt lat="43.64961" lon="-1.44418">
        <ele>13.2</ele>
        <time>2021-08-08T06:48:49Z</time>
      </trkpt>
      <trkpt lat="43.64961" lon="-1.44418">
        <ele>13.2</ele>
        <time>2021-08-08T06:48:50Z</time>
      </trkpt>
      <trkpt lat="43.64956" lon="-1.44413">
        <ele>13.2</ele>
        <time>2021-08-08T06:48:51Z</time>
      </trkpt>
      <trkpt lat="43.64954" lon="-1.44413">
        <ele>13</ele>
        <time>2021-08-08T06:48:52Z</time>
      </trkpt>
      <trkpt lat="43.64952" lon="-1.44412">
        <ele>13</ele>
        <time>2021-08-08T06:48:53Z</time>
      </trkpt>
      <trkpt lat="43.6495" lon="-1.44411">
        <ele>13</ele>
        <time>2021-08-08T06:48:54Z</time>
      </trkpt>
      <trkpt lat="43.64948" lon="-1.44409">
        <ele>13</ele>
        <time>2021-08-08T06:48:55Z</time>
      </trkpt>
      <trkpt lat="43.64946" lon="-1.44406">
        <ele>13</ele>
        <time>2021-08-08T06:48:56Z</time>
      </trkpt>
      <trkpt lat="43.64945" lon="-1.44402">
        <ele>13</ele>
        <time>2021-08-08T06:48:57Z</time>
      </trkpt>
      <trkpt lat="43.64947" lon="-1.44384">
        <ele>13</ele>
        <time>2021-08-08T06:49:01Z</time>
      </trkpt>
      <trkpt lat="43.64946" lon="-1.44379">
        <ele>13</ele>
        <time>2021-08-08T06:49:02Z</time>
      </trkpt>
      <trkpt lat="43.64945" lon="-1.44375">
        <ele>13</ele>
        <time>2021-08-08T06:49:03Z</time>
      </trkpt>
      <trkpt lat="43.64943" lon="-1.44371">
        <ele>13</ele>
        <time>2021-08-08T06:49:04Z</time>
      </trkpt>
      <trkpt lat="43.6494" lon="-1.44366">
        <ele>13</ele>
        <time>2021-08-08T06:49:05Z</time>
      </trkpt>
      <trkpt lat="43.64937" lon="-1.44361">
        <ele>13</ele>
        <time>2021-08-08T06:49:06Z</time>
      </trkpt>
      <trkpt lat="43.64934" lon="-1.44355">
        <ele>13</ele>
        <time>2021-08-08T06:49:07Z</time>
      </trkpt>
      <trkpt lat="43.64928" lon="-1.44345">
        <ele>13</ele>
        <time>2021-08-08T06:49:09Z</time>
      </trkpt>
      <trkpt lat="43.64922" lon="-1.44335">
        <ele>13</ele>
        <time>2021-08-08T06:49:11Z</time>
      </trkpt>
      <trkpt lat="43.64918" lon="-1.44328">
        <ele>13</ele>
        <time>2021-08-08T06:49:12Z</time>
      </trkpt>
      <trkpt lat="43.64916" lon="-1.44323">
        <ele>13</ele>
        <time>2021-08-08T06:49:13Z</time>
      </trkpt>
      <trkpt lat="43.64909" lon="-1.44309">
        <ele>13</ele>
        <time>2021-08-08T06:49:15Z</time>
      </trkpt>
      <trkpt lat="43.64894" lon="-1.44283">
        <ele>12.4</ele>
        <time>2021-08-08T06:49:19Z</time>
      </trkpt>
      <trkpt lat="43.64887" lon="-1.44271">
        <ele>12.2</ele>
        <time>2021-08-08T06:49:21Z</time>
      </trkpt>
      <trkpt lat="43.64883" lon="-1.44264">
        <ele>12.2</ele>
        <time>2021-08-08T06:49:22Z</time>
      </trkpt>
      <trkpt lat="43.64879" lon="-1.44258">
        <ele>12</ele>
        <time>2021-08-08T06:49:23Z</time>
      </trkpt>
      <trkpt lat="43.64876" lon="-1.44251">
        <ele>11.8</ele>
        <time>2021-08-08T06:49:24Z</time>
      </trkpt>
      <trkpt lat="43.6486" lon="-1.44225">
        <ele>11</ele>
        <time>2021-08-08T06:49:28Z</time>
      </trkpt>
      <trkpt lat="43.64829" lon="-1.4417">
        <ele>10.4</ele>
        <time>2021-08-08T06:49:36Z</time>
      </trkpt>
      <trkpt lat="43.64803" lon="-1.44123">
        <ele>10.4</ele>
        <time>2021-08-08T06:49:43Z</time>
      </trkpt>
      <trkpt lat="43.64799" lon="-1.44116">
        <ele>10.4</ele>
        <time>2021-08-08T06:49:44Z</time>
      </trkpt>
      <trkpt lat="43.64791" lon="-1.44102">
        <ele>10.4</ele>
        <time>2021-08-08T06:49:46Z</time>
      </trkpt>
      <trkpt lat="43.64788" lon="-1.44096">
        <ele>10.4</ele>
        <time>2021-08-08T06:49:47Z</time>
      </trkpt>
      <trkpt lat="43.6477" lon="-1.44064">
        <ele>10.6</ele>
        <time>2021-08-08T06:49:52Z</time>
      </trkpt>
      <trkpt lat="43.64766" lon="-1.44058">
        <ele>10.6</ele>
        <time>2021-08-08T06:49:53Z</time>
      </trkpt>
      <trkpt lat="43.64763" lon="-1.44052">
        <ele>10.6</ele>
        <time>2021-08-08T06:49:54Z</time>
      </trkpt>
      <trkpt lat="43.6476" lon="-1.44045">
        <ele>10.6</ele>
        <time>2021-08-08T06:49:55Z</time>
      </trkpt>
      <trkpt lat="43.64757" lon="-1.44039">
        <ele>10.8</ele>
        <time>2021-08-08T06:49:56Z</time>
      </trkpt>
      <trkpt lat="43.64753" lon="-1.44033">
        <ele>10.8</ele>
        <time>2021-08-08T06:49:57Z</time>
      </trkpt>
      <trkpt lat="43.6475" lon="-1.44027">
        <ele>11</ele>
        <time>2021-08-08T06:49:58Z</time>
      </trkpt>
      <trkpt lat="43.64747" lon="-1.44021">
        <ele>11</ele>
        <time>2021-08-08T06:49:59Z</time>
      </trkpt>
      <trkpt lat="43.64744" lon="-1.44016">
        <ele>11.2</ele>
        <time>2021-08-08T06:50:00Z</time>
      </trkpt>
      <trkpt lat="43.64741" lon="-1.44012">
        <ele>11.4</ele>
        <time>2021-08-08T06:50:01Z</time>
      </trkpt>
      <trkpt lat="43.64738" lon="-1.44007">
        <ele>11.4</ele>
        <time>2021-08-08T06:50:02Z</time>
      </trkpt>
      <trkpt lat="43.64735" lon="-1.44001">
        <ele>11.6</ele>
        <time>2021-08-08T06:50:03Z</time>
      </trkpt>
      <trkpt lat="43.64722" lon="-1.43979">
        <ele>12.2</ele>
        <time>2021-08-08T06:50:07Z</time>
      </trkpt>
      <trkpt lat="43.64719" lon="-1.43974">
        <ele>12.4</ele>
        <time>2021-08-08T06:50:08Z</time>
      </trkpt>
      <trkpt lat="43.64717" lon="-1.43969">
        <ele>12.8</ele>
        <time>2021-08-08T06:50:09Z</time>
      </trkpt>
      <trkpt lat="43.64715" lon="-1.43965">
        <ele>12.8</ele>
        <time>2021-08-08T06:50:10Z</time>
      </trkpt>
      <trkpt lat="43.64713" lon="-1.43962">
        <ele>13</ele>
        <time>2021-08-08T06:50:11Z</time>
      </trkpt>
      <trkpt lat="43.64712" lon="-1.4396">
        <ele>13</ele>
        <time>2021-08-08T06:50:12Z</time>
      </trkpt>
      <trkpt lat="43.64711" lon="-1.43959">
        <ele>13</ele>
        <time>2021-08-08T06:50:13Z</time>
      </trkpt>
      <trkpt lat="43.6471" lon="-1.43958">
        <ele>13</ele>
        <time>2021-08-08T06:50:14Z</time>
      </trkpt>
      <trkpt lat="43.64708" lon="-1.43958">
        <ele>13.2</ele>
        <time>2021-08-08T06:50:15Z</time>
      </trkpt>
      <trkpt lat="43.64706" lon="-1.43959">
        <ele>13.2</ele>
        <time>2021-08-08T06:50:16Z</time>
      </trkpt>
      <trkpt lat="43.64699" lon="-1.43966">
        <ele>13</ele>
        <time>2021-08-08T06:50:19Z</time>
      </trkpt>
      <trkpt lat="43.64696" lon="-1.43968">
        <ele>13</ele>
        <time>2021-08-08T06:50:20Z</time>
      </trkpt>
      <trkpt lat="43.64689" lon="-1.43973">
        <ele>13</ele>
        <time>2021-08-08T06:50:22Z</time>
      </trkpt>
      <trkpt lat="43.64662" lon="-1.43995">
        <ele>13</ele>
        <time>2021-08-08T06:50:29Z</time>
      </trkpt>
      <trkpt lat="43.64657" lon="-1.43999">
        <ele>12.8</ele>
        <time>2021-08-08T06:50:30Z</time>
      </trkpt>
      <trkpt lat="43.64628" lon="-1.44016">
        <ele>13</ele>
        <time>2021-08-08T06:50:36Z</time>
      </trkpt>
      <trkpt lat="43.64584" lon="-1.44037">
        <ele>12.8</ele>
        <time>2021-08-08T06:50:44Z</time>
      </trkpt>
      <trkpt lat="43.64533" lon="-1.44061">
        <ele>12.4</ele>
        <time>2021-08-08T06:50:53Z</time>
      </trkpt>
      <trkpt lat="43.64522" lon="-1.44066">
        <ele>12.2</ele>
        <time>2021-08-08T06:50:55Z</time>
      </trkpt>
      <trkpt lat="43.64517" lon="-1.44069">
        <ele>12.2</ele>
        <time>2021-08-08T06:50:56Z</time>
      </trkpt>
      <trkpt lat="43.64512" lon="-1.44071">
        <ele>12.2</ele>
        <time>2021-08-08T06:50:57Z</time>
      </trkpt>
      <trkpt lat="43.64507" lon="-1.44073">
        <ele>12.2</ele>
        <time>2021-08-08T06:50:58Z</time>
      </trkpt>
      <trkpt lat="43.64501" lon="-1.44076">
        <ele>12.2</ele>
        <time>2021-08-08T06:50:59Z</time>
      </trkpt>
      <trkpt lat="43.64497" lon="-1.44078">
        <ele>12.4</ele>
        <time>2021-08-08T06:51:00Z</time>
      </trkpt>
      <trkpt lat="43.64491" lon="-1.4408">
        <ele>12.4</ele>
        <time>2021-08-08T06:51:01Z</time>
      </trkpt>
      <trkpt lat="43.64486" lon="-1.44083">
        <ele>12.6</ele>
        <time>2021-08-08T06:51:02Z</time>
      </trkpt>
      <trkpt lat="43.64481" lon="-1.44085">
        <ele>12.8</ele>
        <time>2021-08-08T06:51:03Z</time>
      </trkpt>
      <trkpt lat="43.64476" lon="-1.44087">
        <ele>12.8</ele>
        <time>2021-08-08T06:51:04Z</time>
      </trkpt>
      <trkpt lat="43.64472" lon="-1.4409">
        <ele>13</ele>
        <time>2021-08-08T06:51:05Z</time>
      </trkpt>
      <trkpt lat="43.64467" lon="-1.44092">
        <ele>13</ele>
        <time>2021-08-08T06:51:06Z</time>
      </trkpt>
      <trkpt lat="43.64462" lon="-1.44094">
        <ele>13.2</ele>
        <time>2021-08-08T06:51:07Z</time>
      </trkpt>
      <trkpt lat="43.64458" lon="-1.44095">
        <ele>13.4</ele>
        <time>2021-08-08T06:51:08Z</time>
      </trkpt>
      <trkpt lat="43.64454" lon="-1.44097">
        <ele>13.8</ele>
        <time>2021-08-08T06:51:09Z</time>
      </trkpt>
      <trkpt lat="43.6445" lon="-1.44099">
        <ele>14</ele>
        <time>2021-08-08T06:51:10Z</time>
      </trkpt>
      <trkpt lat="43.64446" lon="-1.441">
        <ele>14.2</ele>
        <time>2021-08-08T06:51:11Z</time>
      </trkpt>
      <trkpt lat="43.64442" lon="-1.44102">
        <ele>14.4</ele>
        <time>2021-08-08T06:51:12Z</time>
      </trkpt>
      <trkpt lat="43.64439" lon="-1.44103">
        <ele>14.6</ele>
        <time>2021-08-08T06:51:13Z</time>
      </trkpt>
      <trkpt lat="43.64434" lon="-1.44104">
        <ele>14.8</ele>
        <time>2021-08-08T06:51:14Z</time>
      </trkpt>
      <trkpt lat="43.64427" lon="-1.44107">
        <ele>15.4</ele>
        <time>2021-08-08T06:51:16Z</time>
      </trkpt>
      <trkpt lat="43.64423" lon="-1.44109">
        <ele>15.8</ele>
        <time>2021-08-08T06:51:17Z</time>
      </trkpt>
      <trkpt lat="43.64418" lon="-1.4411">
        <ele>15.8</ele>
        <time>2021-08-08T06:51:18Z</time>
      </trkpt>
      <trkpt lat="43.64414" lon="-1.44112">
        <ele>16.2</ele>
        <time>2021-08-08T06:51:19Z</time>
      </trkpt>
      <trkpt lat="43.6441" lon="-1.44113">
        <ele>16.2</ele>
        <time>2021-08-08T06:51:20Z</time>
      </trkpt>
      <trkpt lat="43.64406" lon="-1.44115">
        <ele>16.4</ele>
        <time>2021-08-08T06:51:21Z</time>
      </trkpt>
      <trkpt lat="43.64401" lon="-1.44116">
        <ele>16.4</ele>
        <time>2021-08-08T06:51:22Z</time>
      </trkpt>
      <trkpt lat="43.64395" lon="-1.44118">
        <ele>16.4</ele>
        <time>2021-08-08T06:51:23Z</time>
      </trkpt>
      <trkpt lat="43.64389" lon="-1.44119">
        <ele>16.4</ele>
        <time>2021-08-08T06:51:24Z</time>
      </trkpt>
      <trkpt lat="43.64382" lon="-1.4412">
        <ele>16.4</ele>
        <time>2021-08-08T06:51:25Z</time>
      </trkpt>
      <trkpt lat="43.64375" lon="-1.44122">
        <ele>16.4</ele>
        <time>2021-08-08T06:51:26Z</time>
      </trkpt>
      <trkpt lat="43.64367" lon="-1.44123">
        <ele>16.4</ele>
        <time>2021-08-08T06:51:27Z</time>
      </trkpt>
      <trkpt lat="43.6436" lon="-1.44125">
        <ele>16.2</ele>
        <time>2021-08-08T06:51:28Z</time>
      </trkpt>
      <trkpt lat="43.64352" lon="-1.44126">
        <ele>16.2</ele>
        <time>2021-08-08T06:51:29Z</time>
      </trkpt>
      <trkpt lat="43.64344" lon="-1.44128">
        <ele>15.6</ele>
        <time>2021-08-08T06:51:30Z</time>
      </trkpt>
      <trkpt lat="43.64336" lon="-1.4413">
        <ele>15.4</ele>
        <time>2021-08-08T06:51:31Z</time>
      </trkpt>
      <trkpt lat="43.64327" lon="-1.44132">
        <ele>15</ele>
        <time>2021-08-08T06:51:32Z</time>
      </trkpt>
      <trkpt lat="43.64319" lon="-1.44134">
        <ele>14.6</ele>
        <time>2021-08-08T06:51:33Z</time>
      </trkpt>
      <trkpt lat="43.64311" lon="-1.44136">
        <ele>14.2</ele>
        <time>2021-08-08T06:51:34Z</time>
      </trkpt>
      <trkpt lat="43.64303" lon="-1.44138">
        <ele>13.8</ele>
        <time>2021-08-08T06:51:35Z</time>
      </trkpt>
      <trkpt lat="43.64295" lon="-1.44139">
        <ele>13.2</ele>
        <time>2021-08-08T06:51:36Z</time>
      </trkpt>
      <trkpt lat="43.64271" lon="-1.44143">
        <ele>12</ele>
        <time>2021-08-08T06:51:39Z</time>
      </trkpt>
      <trkpt lat="43.64249" lon="-1.44148">
        <ele>11.8</ele>
        <time>2021-08-08T06:51:42Z</time>
      </trkpt>
      <trkpt lat="43.64242" lon="-1.44149">
        <ele>11.6</ele>
        <time>2021-08-08T06:51:43Z</time>
      </trkpt>
      <trkpt lat="43.64213" lon="-1.44157">
        <ele>11.4</ele>
        <time>2021-08-08T06:51:47Z</time>
      </trkpt>
      <trkpt lat="43.64206" lon="-1.44158">
        <ele>11.4</ele>
        <time>2021-08-08T06:51:48Z</time>
      </trkpt>
      <trkpt lat="43.64199" lon="-1.4416">
        <ele>11.4</ele>
        <time>2021-08-08T06:51:49Z</time>
      </trkpt>
      <trkpt lat="43.64192" lon="-1.44161">
        <ele>11.4</ele>
        <time>2021-08-08T06:51:50Z</time>
      </trkpt>
      <trkpt lat="43.64185" lon="-1.44161">
        <ele>11.4</ele>
        <time>2021-08-08T06:51:51Z</time>
      </trkpt>
      <trkpt lat="43.64179" lon="-1.44162">
        <ele>11.4</ele>
        <time>2021-08-08T06:51:52Z</time>
      </trkpt>
      <trkpt lat="43.64172" lon="-1.44161">
        <ele>11.4</ele>
        <time>2021-08-08T06:51:53Z</time>
      </trkpt>
      <trkpt lat="43.64159" lon="-1.44159">
        <ele>11.4</ele>
        <time>2021-08-08T06:51:55Z</time>
      </trkpt>
      <trkpt lat="43.64153" lon="-1.44157">
        <ele>11.2</ele>
        <time>2021-08-08T06:51:56Z</time>
      </trkpt>
      <trkpt lat="43.64147" lon="-1.44156">
        <ele>11.2</ele>
        <time>2021-08-08T06:51:57Z</time>
      </trkpt>
      <trkpt lat="43.64142" lon="-1.44156">
        <ele>11.2</ele>
        <time>2021-08-08T06:51:58Z</time>
      </trkpt>
      <trkpt lat="43.64137" lon="-1.44157">
        <ele>11.2</ele>
        <time>2021-08-08T06:51:59Z</time>
      </trkpt>
      <trkpt lat="43.64134" lon="-1.4416">
        <ele>11.2</ele>
        <time>2021-08-08T06:52:00Z</time>
      </trkpt>
      <trkpt lat="43.64132" lon="-1.44164">
        <ele>11.2</ele>
        <time>2021-08-08T06:52:01Z</time>
      </trkpt>
      <trkpt lat="43.6413" lon="-1.44169">
        <ele>11</ele>
        <time>2021-08-08T06:52:02Z</time>
      </trkpt>
      <trkpt lat="43.64128" lon="-1.44172">
        <ele>11</ele>
        <time>2021-08-08T06:52:03Z</time>
      </trkpt>
      <trkpt lat="43.64125" lon="-1.44174">
        <ele>11</ele>
        <time>2021-08-08T06:52:04Z</time>
      </trkpt>
      <trkpt lat="43.64121" lon="-1.44175">
        <ele>10.8</ele>
        <time>2021-08-08T06:52:05Z</time>
      </trkpt>
      <trkpt lat="43.64118" lon="-1.44173">
        <ele>10.8</ele>
        <time>2021-08-08T06:52:06Z</time>
      </trkpt>
      <trkpt lat="43.64112" lon="-1.44165">
        <ele>10.8</ele>
        <time>2021-08-08T06:52:08Z</time>
      </trkpt>
      <trkpt lat="43.64106" lon="-1.44155">
        <ele>10.8</ele>
        <time>2021-08-08T06:52:10Z</time>
      </trkpt>
      <trkpt lat="43.64103" lon="-1.4415">
        <ele>10.8</ele>
        <time>2021-08-08T06:52:11Z</time>
      </trkpt>
      <trkpt lat="43.64094" lon="-1.44134">
        <ele>10.8</ele>
        <time>2021-08-08T06:52:14Z</time>
      </trkpt>
      <trkpt lat="43.6407" lon="-1.441">
        <ele>10.8</ele>
        <time>2021-08-08T06:52:20Z</time>
      </trkpt>
      <trkpt lat="43.64057" lon="-1.44083">
        <ele>11</ele>
        <time>2021-08-08T06:52:23Z</time>
      </trkpt>
      <trkpt lat="43.64032" lon="-1.44049">
        <ele>11</ele>
        <time>2021-08-08T06:52:29Z</time>
      </trkpt>
      <trkpt lat="43.64005" lon="-1.44012">
        <ele>11.2</ele>
        <time>2021-08-08T06:52:35Z</time>
      </trkpt>
      <trkpt lat="43.63993" lon="-1.43994">
        <ele>11</ele>
        <time>2021-08-08T06:52:38Z</time>
      </trkpt>
      <trkpt lat="43.63987" lon="-1.4398">
        <ele>11</ele>
        <time>2021-08-08T06:52:40Z</time>
      </trkpt>
      <trkpt lat="43.63978" lon="-1.43948">
        <ele>10.6</ele>
        <time>2021-08-08T06:52:44Z</time>
      </trkpt>
      <trkpt lat="43.63975" lon="-1.43931">
        <ele>10.4</ele>
        <time>2021-08-08T06:52:46Z</time>
      </trkpt>
      <trkpt lat="43.63965" lon="-1.43871">
        <ele>10.2</ele>
        <time>2021-08-08T06:52:53Z</time>
      </trkpt>
      <trkpt lat="43.63956" lon="-1.43803">
        <ele>10.2</ele>
        <time>2021-08-08T06:53:00Z</time>
      </trkpt>
      <trkpt lat="43.63947" lon="-1.43749">
        <ele>10</ele>
        <time>2021-08-08T06:53:06Z</time>
      </trkpt>
      <trkpt lat="43.63941" lon="-1.43735">
        <ele>9.8</ele>
        <time>2021-08-08T06:53:08Z</time>
      </trkpt>
      <trkpt lat="43.63937" lon="-1.4373">
        <ele>9.8</ele>
        <time>2021-08-08T06:53:09Z</time>
      </trkpt>
      <trkpt lat="43.63932" lon="-1.43725">
        <ele>9.8</ele>
        <time>2021-08-08T06:53:10Z</time>
      </trkpt>
      <trkpt lat="43.63927" lon="-1.43722">
        <ele>9.8</ele>
        <time>2021-08-08T06:53:11Z</time>
      </trkpt>
      <trkpt lat="43.63921" lon="-1.43717">
        <ele>9.8</ele>
        <time>2021-08-08T06:53:12Z</time>
      </trkpt>
      <trkpt lat="43.63915" lon="-1.43712">
        <ele>9.8</ele>
        <time>2021-08-08T06:53:13Z</time>
      </trkpt>
      <trkpt lat="43.639" lon="-1.43698">
        <ele>9.8</ele>
        <time>2021-08-08T06:53:16Z</time>
      </trkpt>
      <trkpt lat="43.63895" lon="-1.43693">
        <ele>9.8</ele>
        <time>2021-08-08T06:53:17Z</time>
      </trkpt>
      <trkpt lat="43.6389" lon="-1.43688">
        <ele>9.8</ele>
        <time>2021-08-08T06:53:18Z</time>
      </trkpt>
      <trkpt lat="43.63885" lon="-1.43684">
        <ele>9.8</ele>
        <time>2021-08-08T06:53:19Z</time>
      </trkpt>
      <trkpt lat="43.63881" lon="-1.43679">
        <ele>9.8</ele>
        <time>2021-08-08T06:53:20Z</time>
      </trkpt>
      <trkpt lat="43.63877" lon="-1.43676">
        <ele>9.8</ele>
        <time>2021-08-08T06:53:21Z</time>
      </trkpt>
      <trkpt lat="43.63872" lon="-1.43675">
        <ele>9.8</ele>
        <time>2021-08-08T06:53:22Z</time>
      </trkpt>
      <trkpt lat="43.63868" lon="-1.43673">
        <ele>9.8</ele>
        <time>2021-08-08T06:53:23Z</time>
      </trkpt>
      <trkpt lat="43.63863" lon="-1.4367">
        <ele>9.8</ele>
        <time>2021-08-08T06:53:24Z</time>
      </trkpt>
      <trkpt lat="43.63858" lon="-1.43669">
        <ele>9.8</ele>
        <time>2021-08-08T06:53:25Z</time>
      </trkpt>
      <trkpt lat="43.63854" lon="-1.43669">
        <ele>9.8</ele>
        <time>2021-08-08T06:53:26Z</time>
      </trkpt>
      <trkpt lat="43.6385" lon="-1.43669">
        <ele>9.8</ele>
        <time>2021-08-08T06:53:27Z</time>
      </trkpt>
      <trkpt lat="43.63846" lon="-1.4367">
        <ele>9.8</ele>
        <time>2021-08-08T06:53:28Z</time>
      </trkpt>
      <trkpt lat="43.63842" lon="-1.43672">
        <ele>9.8</ele>
        <time>2021-08-08T06:53:29Z</time>
      </trkpt>
      <trkpt lat="43.63838" lon="-1.43675">
        <ele>9.8</ele>
        <time>2021-08-08T06:53:30Z</time>
      </trkpt>
      <trkpt lat="43.63835" lon="-1.43678">
        <ele>9.8</ele>
        <time>2021-08-08T06:53:31Z</time>
      </trkpt>
      <trkpt lat="43.63817" lon="-1.43697">
        <ele>9.6</ele>
        <time>2021-08-08T06:53:36Z</time>
      </trkpt>
      <trkpt lat="43.63795" lon="-1.43722">
        <ele>9.6</ele>
        <time>2021-08-08T06:53:41Z</time>
      </trkpt>
      <trkpt lat="43.63766" lon="-1.43754">
        <ele>9.6</ele>
        <time>2021-08-08T06:53:47Z</time>
      </trkpt>
      <trkpt lat="43.63762" lon="-1.43759">
        <ele>9.6</ele>
        <time>2021-08-08T06:53:48Z</time>
      </trkpt>
      <trkpt lat="43.63758" lon="-1.43764">
        <ele>9.6</ele>
        <time>2021-08-08T06:53:49Z</time>
      </trkpt>
      <trkpt lat="43.63754" lon="-1.43769">
        <ele>9.6</ele>
        <time>2021-08-08T06:53:50Z</time>
      </trkpt>
      <trkpt lat="43.6375" lon="-1.43774">
        <ele>9.6</ele>
        <time>2021-08-08T06:53:51Z</time>
      </trkpt>
      <trkpt lat="43.63747" lon="-1.43779">
        <ele>9.6</ele>
        <time>2021-08-08T06:53:52Z</time>
      </trkpt>
      <trkpt lat="43.63743" lon="-1.43785">
        <ele>9.6</ele>
        <time>2021-08-08T06:53:53Z</time>
      </trkpt>
      <trkpt lat="43.63743" lon="-1.43785">
        <ele>9.6</ele>
        <time>2021-08-08T06:53:54Z</time>
      </trkpt>
      <trkpt lat="43.63738" lon="-1.43797">
        <ele>9.6</ele>
        <time>2021-08-08T06:53:55Z</time>
      </trkpt>
      <trkpt lat="43.63735" lon="-1.43803">
        <ele>9.8</ele>
        <time>2021-08-08T06:53:56Z</time>
      </trkpt>
      <trkpt lat="43.63733" lon="-1.4381">
        <ele>9.8</ele>
        <time>2021-08-08T06:53:57Z</time>
      </trkpt>
      <trkpt lat="43.6373" lon="-1.43816">
        <ele>9.8</ele>
        <time>2021-08-08T06:53:58Z</time>
      </trkpt>
      <trkpt lat="43.63728" lon="-1.43823">
        <ele>9.8</ele>
        <time>2021-08-08T06:53:59Z</time>
      </trkpt>
      <trkpt lat="43.63725" lon="-1.43828">
        <ele>9.8</ele>
        <time>2021-08-08T06:54:00Z</time>
      </trkpt>
      <trkpt lat="43.6372" lon="-1.43833">
        <ele>10</ele>
        <time>2021-08-08T06:54:01Z</time>
      </trkpt>
      <trkpt lat="43.63716" lon="-1.43835">
        <ele>10</ele>
        <time>2021-08-08T06:54:02Z</time>
      </trkpt>
      <trkpt lat="43.63711" lon="-1.43835">
        <ele>10</ele>
        <time>2021-08-08T06:54:03Z</time>
      </trkpt>
      <trkpt lat="43.63706" lon="-1.43834">
        <ele>10</ele>
        <time>2021-08-08T06:54:04Z</time>
      </trkpt>
      <trkpt lat="43.63702" lon="-1.43832">
        <ele>10</ele>
        <time>2021-08-08T06:54:05Z</time>
      </trkpt>
      <trkpt lat="43.63699" lon="-1.43831">
        <ele>10</ele>
        <time>2021-08-08T06:54:06Z</time>
      </trkpt>
      <trkpt lat="43.63696" lon="-1.4383">
        <ele>10</ele>
        <time>2021-08-08T06:54:07Z</time>
      </trkpt>
      <trkpt lat="43.63693" lon="-1.43829">
        <ele>10</ele>
        <time>2021-08-08T06:54:08Z</time>
      </trkpt>
      <trkpt lat="43.6369" lon="-1.43827">
        <ele>9.8</ele>
        <time>2021-08-08T06:54:09Z</time>
      </trkpt>
      <trkpt lat="43.63687" lon="-1.43826">
        <ele>9.6</ele>
        <time>2021-08-08T06:54:10Z</time>
      </trkpt>
      <trkpt lat="43.63684" lon="-1.43827">
        <ele>9.4</ele>
        <time>2021-08-08T06:54:11Z</time>
      </trkpt>
      <trkpt lat="43.6368" lon="-1.43828">
        <ele>9.4</ele>
        <time>2021-08-08T06:54:12Z</time>
      </trkpt>
      <trkpt lat="43.63676" lon="-1.43831">
        <ele>9.4</ele>
        <time>2021-08-08T06:54:13Z</time>
      </trkpt>
      <trkpt lat="43.63668" lon="-1.43838">
        <ele>9.2</ele>
        <time>2021-08-08T06:54:15Z</time>
      </trkpt>
      <trkpt lat="43.63663" lon="-1.43842">
        <ele>9.2</ele>
        <time>2021-08-08T06:54:16Z</time>
      </trkpt>
      <trkpt lat="43.63658" lon="-1.43845">
        <ele>9.2</ele>
        <time>2021-08-08T06:54:17Z</time>
      </trkpt>
      <trkpt lat="43.63633" lon="-1.43862">
        <ele>9.2</ele>
        <time>2021-08-08T06:54:22Z</time>
      </trkpt>
      <trkpt lat="43.63628" lon="-1.43864">
        <ele>9.2</ele>
        <time>2021-08-08T06:54:23Z</time>
      </trkpt>
      <trkpt lat="43.63581" lon="-1.4388">
        <ele>9.4</ele>
        <time>2021-08-08T06:54:31Z</time>
      </trkpt>
      <trkpt lat="43.63539" lon="-1.43889">
        <ele>9.4</ele>
        <time>2021-08-08T06:54:38Z</time>
      </trkpt>
      <trkpt lat="43.63484" lon="-1.439">
        <ele>9.4</ele>
        <time>2021-08-08T06:54:47Z</time>
      </trkpt>
      <trkpt lat="43.63478" lon="-1.43901">
        <ele>9.2</ele>
        <time>2021-08-08T06:54:48Z</time>
      </trkpt>
      <trkpt lat="43.63472" lon="-1.43902">
        <ele>9.2</ele>
        <time>2021-08-08T06:54:49Z</time>
      </trkpt>
      <trkpt lat="43.63429" lon="-1.43907">
        <ele>9.2</ele>
        <time>2021-08-08T06:54:56Z</time>
      </trkpt>
      <trkpt lat="43.63391" lon="-1.43905">
        <ele>9.2</ele>
        <time>2021-08-08T06:55:02Z</time>
      </trkpt>
      <trkpt lat="43.63385" lon="-1.43903">
        <ele>9.2</ele>
        <time>2021-08-08T06:55:03Z</time>
      </trkpt>
      <trkpt lat="43.63356" lon="-1.43892">
        <ele>9.2</ele>
        <time>2021-08-08T06:55:08Z</time>
      </trkpt>
      <trkpt lat="43.6335" lon="-1.43889">
        <ele>9.2</ele>
        <time>2021-08-08T06:55:09Z</time>
      </trkpt>
      <trkpt lat="43.63345" lon="-1.43887">
        <ele>9.2</ele>
        <time>2021-08-08T06:55:10Z</time>
      </trkpt>
      <trkpt lat="43.63339" lon="-1.43885">
        <ele>9.2</ele>
        <time>2021-08-08T06:55:11Z</time>
      </trkpt>
      <trkpt lat="43.63334" lon="-1.43883">
        <ele>9.2</ele>
        <time>2021-08-08T06:55:12Z</time>
      </trkpt>
      <trkpt lat="43.63328" lon="-1.43881">
        <ele>9.4</ele>
        <time>2021-08-08T06:55:13Z</time>
      </trkpt>
      <trkpt lat="43.63323" lon="-1.43879">
        <ele>9.4</ele>
        <time>2021-08-08T06:55:14Z</time>
      </trkpt>
      <trkpt lat="43.63318" lon="-1.43876">
        <ele>9.4</ele>
        <time>2021-08-08T06:55:15Z</time>
      </trkpt>
      <trkpt lat="43.63314" lon="-1.43872">
        <ele>9.4</ele>
        <time>2021-08-08T06:55:16Z</time>
      </trkpt>
      <trkpt lat="43.63311" lon="-1.43868">
        <ele>9.4</ele>
        <time>2021-08-08T06:55:17Z</time>
      </trkpt>
      <trkpt lat="43.63307" lon="-1.43861">
        <ele>9.4</ele>
        <time>2021-08-08T06:55:18Z</time>
      </trkpt>
      <trkpt lat="43.63303" lon="-1.43856">
        <ele>9.4</ele>
        <time>2021-08-08T06:55:19Z</time>
      </trkpt>
      <trkpt lat="43.63299" lon="-1.4385">
        <ele>9.6</ele>
        <time>2021-08-08T06:55:20Z</time>
      </trkpt>
      <trkpt lat="43.63295" lon="-1.43845">
        <ele>9.6</ele>
        <time>2021-08-08T06:55:21Z</time>
      </trkpt>
      <trkpt lat="43.63291" lon="-1.43841">
        <ele>9.6</ele>
        <time>2021-08-08T06:55:22Z</time>
      </trkpt>
      <trkpt lat="43.63287" lon="-1.43838">
        <ele>9.6</ele>
        <time>2021-08-08T06:55:23Z</time>
      </trkpt>
      <trkpt lat="43.63283" lon="-1.43835">
        <ele>9.6</ele>
        <time>2021-08-08T06:55:24Z</time>
      </trkpt>
      <trkpt lat="43.6328" lon="-1.43832">
        <ele>9.6</ele>
        <time>2021-08-08T06:55:25Z</time>
      </trkpt>
      <trkpt lat="43.63278" lon="-1.4383">
        <ele>9.6</ele>
        <time>2021-08-08T06:55:26Z</time>
      </trkpt>
      <trkpt lat="43.63275" lon="-1.43827">
        <ele>9.6</ele>
        <time>2021-08-08T06:55:27Z</time>
      </trkpt>
      <trkpt lat="43.63273" lon="-1.43824">
        <ele>9.8</ele>
        <time>2021-08-08T06:55:28Z</time>
      </trkpt>
      <trkpt lat="43.63271" lon="-1.43822">
        <ele>9.8</ele>
        <time>2021-08-08T06:55:29Z</time>
      </trkpt>
      <trkpt lat="43.63269" lon="-1.4382">
        <ele>9.8</ele>
        <time>2021-08-08T06:55:30Z</time>
      </trkpt>
      <trkpt lat="43.63254" lon="-1.43798">
        <ele>9.8</ele>
        <time>2021-08-08T06:55:36Z</time>
      </trkpt>
      <trkpt lat="43.63235" lon="-1.43773">
        <ele>9.2</ele>
        <time>2021-08-08T06:55:42Z</time>
      </trkpt>
      <trkpt lat="43.63218" lon="-1.43756">
        <ele>9.2</ele>
        <time>2021-08-08T06:55:46Z</time>
      </trkpt>
      <trkpt lat="43.63209" lon="-1.43746">
        <ele>9.4</ele>
        <time>2021-08-08T06:55:48Z</time>
      </trkpt>
      <trkpt lat="43.63179" lon="-1.43716">
        <ele>9.6</ele>
        <time>2021-08-08T06:55:54Z</time>
      </trkpt>
      <trkpt lat="43.63174" lon="-1.43711">
        <ele>9.6</ele>
        <time>2021-08-08T06:55:55Z</time>
      </trkpt>
      <trkpt lat="43.63159" lon="-1.43695">
        <ele>9.6</ele>
        <time>2021-08-08T06:55:58Z</time>
      </trkpt>
      <trkpt lat="43.63148" lon="-1.43685">
        <ele>9.6</ele>
        <time>2021-08-08T06:56:00Z</time>
      </trkpt>
      <trkpt lat="43.63114" lon="-1.43659">
        <ele>9.6</ele>
        <time>2021-08-08T06:56:06Z</time>
      </trkpt>
      <trkpt lat="43.63096" lon="-1.43647">
        <ele>9.6</ele>
        <time>2021-08-08T06:56:09Z</time>
      </trkpt>
      <trkpt lat="43.63091" lon="-1.43644">
        <ele>9.6</ele>
        <time>2021-08-08T06:56:10Z</time>
      </trkpt>
      <trkpt lat="43.63072" lon="-1.43631">
        <ele>9.8</ele>
        <time>2021-08-08T06:56:13Z</time>
      </trkpt>
      <trkpt lat="43.63054" lon="-1.43622">
        <ele>9.8</ele>
        <time>2021-08-08T06:56:16Z</time>
      </trkpt>
      <trkpt lat="43.63036" lon="-1.4361">
        <ele>9.8</ele>
        <time>2021-08-08T06:56:19Z</time>
      </trkpt>
      <trkpt lat="43.63" lon="-1.43591">
        <ele>9.8</ele>
        <time>2021-08-08T06:56:25Z</time>
      </trkpt>
      <trkpt lat="43.62995" lon="-1.43588">
        <ele>9.8</ele>
        <time>2021-08-08T06:56:26Z</time>
      </trkpt>
      <trkpt lat="43.6299" lon="-1.43585">
        <ele>9.8</ele>
        <time>2021-08-08T06:56:27Z</time>
      </trkpt>
      <trkpt lat="43.62985" lon="-1.43582">
        <ele>9.8</ele>
        <time>2021-08-08T06:56:28Z</time>
      </trkpt>
      <trkpt lat="43.6298" lon="-1.43579">
        <ele>10</ele>
        <time>2021-08-08T06:56:29Z</time>
      </trkpt>
      <trkpt lat="43.62975" lon="-1.43575">
        <ele>10</ele>
        <time>2021-08-08T06:56:30Z</time>
      </trkpt>
      <trkpt lat="43.6297" lon="-1.43572">
        <ele>10</ele>
        <time>2021-08-08T06:56:31Z</time>
      </trkpt>
      <trkpt lat="43.62965" lon="-1.43568">
        <ele>10</ele>
        <time>2021-08-08T06:56:32Z</time>
      </trkpt>
      <trkpt lat="43.62959" lon="-1.43564">
        <ele>10.2</ele>
        <time>2021-08-08T06:56:33Z</time>
      </trkpt>
      <trkpt lat="43.62954" lon="-1.43561">
        <ele>10.2</ele>
        <time>2021-08-08T06:56:34Z</time>
      </trkpt>
      <trkpt lat="43.62936" lon="-1.43553">
        <ele>10.6</ele>
        <time>2021-08-08T06:56:37Z</time>
      </trkpt>
      <trkpt lat="43.62916" lon="-1.43541">
        <ele>11</ele>
        <time>2021-08-08T06:56:41Z</time>
      </trkpt>
      <trkpt lat="43.62911" lon="-1.43538">
        <ele>11.2</ele>
        <time>2021-08-08T06:56:42Z</time>
      </trkpt>
      <trkpt lat="43.62907" lon="-1.43533">
        <ele>11.4</ele>
        <time>2021-08-08T06:56:43Z</time>
      </trkpt>
      <trkpt lat="43.62903" lon="-1.43528">
        <ele>11.6</ele>
        <time>2021-08-08T06:56:44Z</time>
      </trkpt>
      <trkpt lat="43.62898" lon="-1.43515">
        <ele>11.8</ele>
        <time>2021-08-08T06:56:46Z</time>
      </trkpt>
      <trkpt lat="43.62896" lon="-1.43507">
        <ele>11.8</ele>
        <time>2021-08-08T06:56:47Z</time>
      </trkpt>
      <trkpt lat="43.62895" lon="-1.43499">
        <ele>12</ele>
        <time>2021-08-08T06:56:48Z</time>
      </trkpt>
      <trkpt lat="43.62894" lon="-1.43492">
        <ele>12</ele>
        <time>2021-08-08T06:56:49Z</time>
      </trkpt>
      <trkpt lat="43.62893" lon="-1.43485">
        <ele>12</ele>
        <time>2021-08-08T06:56:50Z</time>
      </trkpt>
      <trkpt lat="43.62891" lon="-1.43479">
        <ele>11.8</ele>
        <time>2021-08-08T06:56:51Z</time>
      </trkpt>
      <trkpt lat="43.62888" lon="-1.43477">
        <ele>11.8</ele>
        <time>2021-08-08T06:56:52Z</time>
      </trkpt>
      <trkpt lat="43.62883" lon="-1.43478">
        <ele>11.8</ele>
        <time>2021-08-08T06:56:53Z</time>
      </trkpt>
      <trkpt lat="43.62878" lon="-1.43481">
        <ele>11.8</ele>
        <time>2021-08-08T06:56:54Z</time>
      </trkpt>
      <trkpt lat="43.62857" lon="-1.43494">
        <ele>11.8</ele>
        <time>2021-08-08T06:56:58Z</time>
      </trkpt>
      <trkpt lat="43.62818" lon="-1.4352">
        <ele>11.8</ele>
        <time>2021-08-08T06:57:05Z</time>
      </trkpt>
      <trkpt lat="43.62807" lon="-1.43527">
        <ele>12</ele>
        <time>2021-08-08T06:57:07Z</time>
      </trkpt>
      <trkpt lat="43.62784" lon="-1.43544">
        <ele>11.8</ele>
        <time>2021-08-08T06:57:11Z</time>
      </trkpt>
      <trkpt lat="43.62778" lon="-1.43548">
        <ele>11.8</ele>
        <time>2021-08-08T06:57:12Z</time>
      </trkpt>
      <trkpt lat="43.62747" lon="-1.4357">
        <ele>12</ele>
        <time>2021-08-08T06:57:17Z</time>
      </trkpt>
      <trkpt lat="43.62727" lon="-1.43585">
        <ele>12.2</ele>
        <time>2021-08-08T06:57:20Z</time>
      </trkpt>
      <trkpt lat="43.62688" lon="-1.43615">
        <ele>12.4</ele>
        <time>2021-08-08T06:57:26Z</time>
      </trkpt>
      <trkpt lat="43.62636" lon="-1.43651">
        <ele>12</ele>
        <time>2021-08-08T06:57:34Z</time>
      </trkpt>
      <trkpt lat="43.62585" lon="-1.43685">
        <ele>11.4</ele>
        <time>2021-08-08T06:57:42Z</time>
      </trkpt>
      <trkpt lat="43.62579" lon="-1.43688">
        <ele>11.4</ele>
        <time>2021-08-08T06:57:43Z</time>
      </trkpt>
      <trkpt lat="43.62573" lon="-1.43692">
        <ele>11.4</ele>
        <time>2021-08-08T06:57:44Z</time>
      </trkpt>
      <trkpt lat="43.62567" lon="-1.43697">
        <ele>11.4</ele>
        <time>2021-08-08T06:57:45Z</time>
      </trkpt>
      <trkpt lat="43.62561" lon="-1.43701">
        <ele>11.4</ele>
        <time>2021-08-08T06:57:46Z</time>
      </trkpt>
      <trkpt lat="43.62555" lon="-1.43705">
        <ele>11.4</ele>
        <time>2021-08-08T06:57:47Z</time>
      </trkpt>
      <trkpt lat="43.62549" lon="-1.4371">
        <ele>11.2</ele>
        <time>2021-08-08T06:57:48Z</time>
      </trkpt>
      <trkpt lat="43.62537" lon="-1.4372">
        <ele>11.2</ele>
        <time>2021-08-08T06:57:50Z</time>
      </trkpt>
      <trkpt lat="43.62531" lon="-1.43724">
        <ele>11.2</ele>
        <time>2021-08-08T06:57:51Z</time>
      </trkpt>
      <trkpt lat="43.625" lon="-1.43745">
        <ele>10.6</ele>
        <time>2021-08-08T06:57:56Z</time>
      </trkpt>
      <trkpt lat="43.62476" lon="-1.43763">
        <ele>10.2</ele>
        <time>2021-08-08T06:58:00Z</time>
      </trkpt>
      <trkpt lat="43.62432" lon="-1.43794">
        <ele>10</ele>
        <time>2021-08-08T06:58:07Z</time>
      </trkpt>
      <trkpt lat="43.62396" lon="-1.4382">
        <ele>9.8</ele>
        <time>2021-08-08T06:58:13Z</time>
      </trkpt>
      <trkpt lat="43.62391" lon="-1.43825">
        <ele>9.8</ele>
        <time>2021-08-08T06:58:14Z</time>
      </trkpt>
      <trkpt lat="43.62385" lon="-1.43829">
        <ele>9.8</ele>
        <time>2021-08-08T06:58:15Z</time>
      </trkpt>
      <trkpt lat="43.62379" lon="-1.43832">
        <ele>9.8</ele>
        <time>2021-08-08T06:58:16Z</time>
      </trkpt>
      <trkpt lat="43.62373" lon="-1.43836">
        <ele>9.8</ele>
        <time>2021-08-08T06:58:17Z</time>
      </trkpt>
      <trkpt lat="43.62367" lon="-1.4384">
        <ele>9.8</ele>
        <time>2021-08-08T06:58:18Z</time>
      </trkpt>
      <trkpt lat="43.62362" lon="-1.43844">
        <ele>9.8</ele>
        <time>2021-08-08T06:58:19Z</time>
      </trkpt>
      <trkpt lat="43.62356" lon="-1.43848">
        <ele>9.8</ele>
        <time>2021-08-08T06:58:20Z</time>
      </trkpt>
      <trkpt lat="43.6235" lon="-1.43852">
        <ele>10</ele>
        <time>2021-08-08T06:58:21Z</time>
      </trkpt>
      <trkpt lat="43.62344" lon="-1.43856">
        <ele>10</ele>
        <time>2021-08-08T06:58:22Z</time>
      </trkpt>
      <trkpt lat="43.62339" lon="-1.4386">
        <ele>10</ele>
        <time>2021-08-08T06:58:23Z</time>
      </trkpt>
      <trkpt lat="43.62333" lon="-1.43865">
        <ele>10</ele>
        <time>2021-08-08T06:58:24Z</time>
      </trkpt>
      <trkpt lat="43.62327" lon="-1.43869">
        <ele>10</ele>
        <time>2021-08-08T06:58:25Z</time>
      </trkpt>
      <trkpt lat="43.62322" lon="-1.43873">
        <ele>10</ele>
        <time>2021-08-08T06:58:26Z</time>
      </trkpt>
      <trkpt lat="43.6228" lon="-1.43903">
        <ele>9.8</ele>
        <time>2021-08-08T06:58:33Z</time>
      </trkpt>
      <trkpt lat="43.62253" lon="-1.43922">
        <ele>9.8</ele>
        <time>2021-08-08T06:58:38Z</time>
      </trkpt>
      <trkpt lat="43.62247" lon="-1.43926">
        <ele>9.8</ele>
        <time>2021-08-08T06:58:39Z</time>
      </trkpt>
      <trkpt lat="43.62242" lon="-1.4393">
        <ele>9.8</ele>
        <time>2021-08-08T06:58:40Z</time>
      </trkpt>
      <trkpt lat="43.62237" lon="-1.43933">
        <ele>9.8</ele>
        <time>2021-08-08T06:58:41Z</time>
      </trkpt>
      <trkpt lat="43.62231" lon="-1.43937">
        <ele>9.8</ele>
        <time>2021-08-08T06:58:42Z</time>
      </trkpt>
      <trkpt lat="43.62226" lon="-1.4394">
        <ele>9.8</ele>
        <time>2021-08-08T06:58:43Z</time>
      </trkpt>
      <trkpt lat="43.62221" lon="-1.43943">
        <ele>9.8</ele>
        <time>2021-08-08T06:58:44Z</time>
      </trkpt>
      <trkpt lat="43.62215" lon="-1.43947">
        <ele>9.8</ele>
        <time>2021-08-08T06:58:45Z</time>
      </trkpt>
      <trkpt lat="43.6221" lon="-1.43951">
        <ele>9.8</ele>
        <time>2021-08-08T06:58:46Z</time>
      </trkpt>
      <trkpt lat="43.62205" lon="-1.43954">
        <ele>9.8</ele>
        <time>2021-08-08T06:58:47Z</time>
      </trkpt>
      <trkpt lat="43.622" lon="-1.43957">
        <ele>9.8</ele>
        <time>2021-08-08T06:58:48Z</time>
      </trkpt>
      <trkpt lat="43.62195" lon="-1.43961">
        <ele>9.8</ele>
        <time>2021-08-08T06:58:49Z</time>
      </trkpt>
      <trkpt lat="43.62191" lon="-1.43964">
        <ele>9.8</ele>
        <time>2021-08-08T06:58:50Z</time>
      </trkpt>
      <trkpt lat="43.62186" lon="-1.43968">
        <ele>9.8</ele>
        <time>2021-08-08T06:58:51Z</time>
      </trkpt>
      <trkpt lat="43.62177" lon="-1.43976">
        <ele>9.8</ele>
        <time>2021-08-08T06:58:53Z</time>
      </trkpt>
      <trkpt lat="43.62172" lon="-1.43979">
        <ele>9.8</ele>
        <time>2021-08-08T06:58:54Z</time>
      </trkpt>
      <trkpt lat="43.62168" lon="-1.43982">
        <ele>9.8</ele>
        <time>2021-08-08T06:58:55Z</time>
      </trkpt>
      <trkpt lat="43.62164" lon="-1.43984">
        <ele>9.8</ele>
        <time>2021-08-08T06:58:56Z</time>
      </trkpt>
      <trkpt lat="43.6216" lon="-1.43987">
        <ele>9.8</ele>
        <time>2021-08-08T06:58:57Z</time>
      </trkpt>
      <trkpt lat="43.62157" lon="-1.4399">
        <ele>9.8</ele>
        <time>2021-08-08T06:58:58Z</time>
      </trkpt>
      <trkpt lat="43.62156" lon="-1.43995">
        <ele>10</ele>
        <time>2021-08-08T06:58:59Z</time>
      </trkpt>
      <trkpt lat="43.62156" lon="-1.43999">
        <ele>10</ele>
        <time>2021-08-08T06:59:00Z</time>
      </trkpt>
      <trkpt lat="43.62156" lon="-1.44001">
        <ele>10</ele>
        <time>2021-08-08T06:59:01Z</time>
      </trkpt>
      <trkpt lat="43.62156" lon="-1.44003">
        <ele>10</ele>
        <time>2021-08-08T06:59:02Z</time>
      </trkpt>
      <trkpt lat="43.62156" lon="-1.44005">
        <ele>10</ele>
        <time>2021-08-08T06:59:03Z</time>
      </trkpt>
      <trkpt lat="43.62157" lon="-1.44009">
        <ele>10</ele>
        <time>2021-08-08T06:59:04Z</time>
      </trkpt>
      <trkpt lat="43.6216" lon="-1.44015">
        <ele>9.8</ele>
        <time>2021-08-08T06:59:06Z</time>
      </trkpt>
      <trkpt lat="43.62161" lon="-1.44019">
        <ele>9.8</ele>
        <time>2021-08-08T06:59:07Z</time>
      </trkpt>
      <trkpt lat="43.62162" lon="-1.44023">
        <ele>9.6</ele>
        <time>2021-08-08T06:59:08Z</time>
      </trkpt>
      <trkpt lat="43.62166" lon="-1.44032">
        <ele>9.6</ele>
        <time>2021-08-08T06:59:10Z</time>
      </trkpt>
      <trkpt lat="43.62171" lon="-1.44049">
        <ele>9.4</ele>
        <time>2021-08-08T06:59:13Z</time>
      </trkpt>
      <trkpt lat="43.62172" lon="-1.44055">
        <ele>9.4</ele>
        <time>2021-08-08T06:59:14Z</time>
      </trkpt>
      <trkpt lat="43.62174" lon="-1.44066">
        <ele>9.2</ele>
        <time>2021-08-08T06:59:16Z</time>
      </trkpt>
      <trkpt lat="43.62175" lon="-1.44073">
        <ele>9.2</ele>
        <time>2021-08-08T06:59:17Z</time>
      </trkpt>
      <trkpt lat="43.62177" lon="-1.4409">
        <ele>9.2</ele>
        <time>2021-08-08T06:59:20Z</time>
      </trkpt>
      <trkpt lat="43.62178" lon="-1.44123">
        <ele>9.2</ele>
        <time>2021-08-08T06:59:25Z</time>
      </trkpt>
      <trkpt lat="43.62177" lon="-1.44146">
        <ele>9.2</ele>
        <time>2021-08-08T06:59:28Z</time>
      </trkpt>
      <trkpt lat="43.62172" lon="-1.4419">
        <ele>9.2</ele>
        <time>2021-08-08T06:59:34Z</time>
      </trkpt>
      <trkpt lat="43.62172" lon="-1.44203">
        <ele>9.2</ele>
        <time>2021-08-08T06:59:36Z</time>
      </trkpt>
      <trkpt lat="43.62174" lon="-1.44217">
        <ele>9.4</ele>
        <time>2021-08-08T06:59:38Z</time>
      </trkpt>
      <trkpt lat="43.62176" lon="-1.4423">
        <ele>9.4</ele>
        <time>2021-08-08T06:59:40Z</time>
      </trkpt>
      <trkpt lat="43.62176" lon="-1.44237">
        <ele>9.4</ele>
        <time>2021-08-08T06:59:41Z</time>
      </trkpt>
      <trkpt lat="43.62177" lon="-1.4425">
        <ele>9.4</ele>
        <time>2021-08-08T06:59:43Z</time>
      </trkpt>
      <trkpt lat="43.62179" lon="-1.44264">
        <ele>9.6</ele>
        <time>2021-08-08T06:59:45Z</time>
      </trkpt>
      <trkpt lat="43.6218" lon="-1.44269">
        <ele>9.6</ele>
        <time>2021-08-08T06:59:46Z</time>
      </trkpt>
      <trkpt lat="43.62181" lon="-1.44275">
        <ele>9.6</ele>
        <time>2021-08-08T06:59:47Z</time>
      </trkpt>
      <trkpt lat="43.62181" lon="-1.4428">
        <ele>9.6</ele>
        <time>2021-08-08T06:59:48Z</time>
      </trkpt>
      <trkpt lat="43.62182" lon="-1.44284">
        <ele>9.6</ele>
        <time>2021-08-08T06:59:49Z</time>
      </trkpt>
      <trkpt lat="43.6218" lon="-1.44288">
        <ele>9.6</ele>
        <time>2021-08-08T06:59:50Z</time>
      </trkpt>
      <trkpt lat="43.62178" lon="-1.44291">
        <ele>9.6</ele>
        <time>2021-08-08T06:59:51Z</time>
      </trkpt>
      <trkpt lat="43.62175" lon="-1.44292">
        <ele>9.6</ele>
        <time>2021-08-08T06:59:52Z</time>
      </trkpt>
      <trkpt lat="43.62171" lon="-1.44294">
        <ele>9.6</ele>
        <time>2021-08-08T06:59:53Z</time>
      </trkpt>
      <trkpt lat="43.6216" lon="-1.44298">
        <ele>9.6</ele>
        <time>2021-08-08T06:59:55Z</time>
      </trkpt>
      <trkpt lat="43.62155" lon="-1.44299">
        <ele>9.6</ele>
        <time>2021-08-08T06:59:56Z</time>
      </trkpt>
      <trkpt lat="43.62148" lon="-1.44302">
        <ele>9.6</ele>
        <time>2021-08-08T06:59:57Z</time>
      </trkpt>
      <trkpt lat="43.62131" lon="-1.44308">
        <ele>9.2</ele>
        <time>2021-08-08T07:00:00Z</time>
      </trkpt>
      <trkpt lat="43.62125" lon="-1.4431">
        <ele>9.2</ele>
        <time>2021-08-08T07:00:01Z</time>
      </trkpt>
      <trkpt lat="43.62119" lon="-1.44312">
        <ele>9</ele>
        <time>2021-08-08T07:00:02Z</time>
      </trkpt>
      <trkpt lat="43.62106" lon="-1.44318">
        <ele>8.8</ele>
        <time>2021-08-08T07:00:04Z</time>
      </trkpt>
      <trkpt lat="43.62088" lon="-1.44328">
        <ele>8.6</ele>
        <time>2021-08-08T07:00:07Z</time>
      </trkpt>
      <trkpt lat="43.62082" lon="-1.44331">
        <ele>8.6</ele>
        <time>2021-08-08T07:00:08Z</time>
      </trkpt>
      <trkpt lat="43.62064" lon="-1.44341">
        <ele>8.8</ele>
        <time>2021-08-08T07:00:11Z</time>
      </trkpt>
      <trkpt lat="43.62058" lon="-1.44344">
        <ele>8.8</ele>
        <time>2021-08-08T07:00:12Z</time>
      </trkpt>
      <trkpt lat="43.62045" lon="-1.4435">
        <ele>9</ele>
        <time>2021-08-08T07:00:14Z</time>
      </trkpt>
      <trkpt lat="43.62032" lon="-1.44357">
        <ele>9</ele>
        <time>2021-08-08T07:00:16Z</time>
      </trkpt>
      <trkpt lat="43.62024" lon="-1.44362">
        <ele>9</ele>
        <time>2021-08-08T07:00:17Z</time>
      </trkpt>
      <trkpt lat="43.6197" lon="-1.4439">
        <ele>9</ele>
        <time>2021-08-08T07:00:25Z</time>
      </trkpt>
      <trkpt lat="43.61963" lon="-1.44393">
        <ele>9</ele>
        <time>2021-08-08T07:00:26Z</time>
      </trkpt>
      <trkpt lat="43.61921" lon="-1.44414">
        <ele>8.6</ele>
        <time>2021-08-08T07:00:32Z</time>
      </trkpt>
      <trkpt lat="43.61914" lon="-1.44418">
        <ele>8.6</ele>
        <time>2021-08-08T07:00:33Z</time>
      </trkpt>
      <trkpt lat="43.61891" lon="-1.44435">
        <ele>8.6</ele>
        <time>2021-08-08T07:00:37Z</time>
      </trkpt>
      <trkpt lat="43.61885" lon="-1.4444">
        <ele>8.6</ele>
        <time>2021-08-08T07:00:38Z</time>
      </trkpt>
      <trkpt lat="43.61879" lon="-1.44445">
        <ele>8.6</ele>
        <time>2021-08-08T07:00:39Z</time>
      </trkpt>
      <trkpt lat="43.61855" lon="-1.44462">
        <ele>9</ele>
        <time>2021-08-08T07:00:43Z</time>
      </trkpt>
      <trkpt lat="43.61844" lon="-1.4447">
        <ele>9.2</ele>
        <time>2021-08-08T07:00:45Z</time>
      </trkpt>
      <trkpt lat="43.61838" lon="-1.44474">
        <ele>9.2</ele>
        <time>2021-08-08T07:00:46Z</time>
      </trkpt>
      <trkpt lat="43.61831" lon="-1.44479">
        <ele>9.2</ele>
        <time>2021-08-08T07:00:47Z</time>
      </trkpt>
      <trkpt lat="43.61811" lon="-1.44495">
        <ele>9.2</ele>
        <time>2021-08-08T07:00:50Z</time>
      </trkpt>
      <trkpt lat="43.61767" lon="-1.4452">
        <ele>9.4</ele>
        <time>2021-08-08T07:00:56Z</time>
      </trkpt>
      <trkpt lat="43.6176" lon="-1.4452">
        <ele>9.4</ele>
        <time>2021-08-08T07:00:57Z</time>
      </trkpt>
      <trkpt lat="43.61752" lon="-1.44521">
        <ele>9.2</ele>
        <time>2021-08-08T07:00:58Z</time>
      </trkpt>
      <trkpt lat="43.61745" lon="-1.44523">
        <ele>9.2</ele>
        <time>2021-08-08T07:00:59Z</time>
      </trkpt>
      <trkpt lat="43.61739" lon="-1.44525">
        <ele>9.2</ele>
        <time>2021-08-08T07:01:00Z</time>
      </trkpt>
      <trkpt lat="43.61732" lon="-1.44528">
        <ele>9.2</ele>
        <time>2021-08-08T07:01:01Z</time>
      </trkpt>
      <trkpt lat="43.61726" lon="-1.44533">
        <ele>9.2</ele>
        <time>2021-08-08T07:01:02Z</time>
      </trkpt>
      <trkpt lat="43.6172" lon="-1.44538">
        <ele>9.2</ele>
        <time>2021-08-08T07:01:03Z</time>
      </trkpt>
      <trkpt lat="43.61714" lon="-1.44543">
        <ele>9.2</ele>
        <time>2021-08-08T07:01:04Z</time>
      </trkpt>
      <trkpt lat="43.61709" lon="-1.44549">
        <ele>9.2</ele>
        <time>2021-08-08T07:01:05Z</time>
      </trkpt>
      <trkpt lat="43.61695" lon="-1.44572">
        <ele>9.2</ele>
        <time>2021-08-08T07:01:08Z</time>
      </trkpt>
      <trkpt lat="43.61692" lon="-1.4458">
        <ele>9.2</ele>
        <time>2021-08-08T07:01:09Z</time>
      </trkpt>
      <trkpt lat="43.61688" lon="-1.44588">
        <ele>9</ele>
        <time>2021-08-08T07:01:10Z</time>
      </trkpt>
      <trkpt lat="43.61671" lon="-1.44632">
        <ele>9</ele>
        <time>2021-08-08T07:01:15Z</time>
      </trkpt>
      <trkpt lat="43.61668" lon="-1.4464">
        <ele>9</ele>
        <time>2021-08-08T07:01:16Z</time>
      </trkpt>
      <trkpt lat="43.61665" lon="-1.44648">
        <ele>9</ele>
        <time>2021-08-08T07:01:17Z</time>
      </trkpt>
      <trkpt lat="43.61662" lon="-1.44656">
        <ele>9</ele>
        <time>2021-08-08T07:01:18Z</time>
      </trkpt>
      <trkpt lat="43.61659" lon="-1.44665">
        <ele>9</ele>
        <time>2021-08-08T07:01:19Z</time>
      </trkpt>
      <trkpt lat="43.61646" lon="-1.44698">
        <ele>9</ele>
        <time>2021-08-08T07:01:23Z</time>
      </trkpt>
      <trkpt lat="43.61642" lon="-1.44706">
        <ele>9</ele>
        <time>2021-08-08T07:01:24Z</time>
      </trkpt>
      <trkpt lat="43.61621" lon="-1.44747">
        <ele>9</ele>
        <time>2021-08-08T07:01:29Z</time>
      </trkpt>
      <trkpt lat="43.61612" lon="-1.44763">
        <ele>8.8</ele>
        <time>2021-08-08T07:01:31Z</time>
      </trkpt>
      <trkpt lat="43.61606" lon="-1.4477">
        <ele>8.8</ele>
        <time>2021-08-08T07:01:32Z</time>
      </trkpt>
      <trkpt lat="43.61603" lon="-1.44778">
        <ele>8.8</ele>
        <time>2021-08-08T07:01:33Z</time>
      </trkpt>
      <trkpt lat="43.61598" lon="-1.44786">
        <ele>8.8</ele>
        <time>2021-08-08T07:01:34Z</time>
      </trkpt>
      <trkpt lat="43.6159" lon="-1.44805">
        <ele>8.8</ele>
        <time>2021-08-08T07:01:36Z</time>
      </trkpt>
      <trkpt lat="43.61585" lon="-1.44815">
        <ele>8.8</ele>
        <time>2021-08-08T07:01:37Z</time>
      </trkpt>
      <trkpt lat="43.61581" lon="-1.44824">
        <ele>8.8</ele>
        <time>2021-08-08T07:01:38Z</time>
      </trkpt>
      <trkpt lat="43.61576" lon="-1.44833">
        <ele>8.8</ele>
        <time>2021-08-08T07:01:39Z</time>
      </trkpt>
      <trkpt lat="43.61571" lon="-1.44841">
        <ele>9</ele>
        <time>2021-08-08T07:01:40Z</time>
      </trkpt>
      <trkpt lat="43.6156" lon="-1.44854">
        <ele>9</ele>
        <time>2021-08-08T07:01:42Z</time>
      </trkpt>
      <trkpt lat="43.61556" lon="-1.44862">
        <ele>9</ele>
        <time>2021-08-08T07:01:43Z</time>
      </trkpt>
      <trkpt lat="43.61554" lon="-1.44869">
        <ele>9.2</ele>
        <time>2021-08-08T07:01:44Z</time>
      </trkpt>
      <trkpt lat="43.61548" lon="-1.44886">
        <ele>9.2</ele>
        <time>2021-08-08T07:01:46Z</time>
      </trkpt>
      <trkpt lat="43.61543" lon="-1.44893">
        <ele>9</ele>
        <time>2021-08-08T07:01:47Z</time>
      </trkpt>
      <trkpt lat="43.61538" lon="-1.449">
        <ele>9</ele>
        <time>2021-08-08T07:01:48Z</time>
      </trkpt>
      <trkpt lat="43.61532" lon="-1.4491">
        <ele>9</ele>
        <time>2021-08-08T07:01:49Z</time>
      </trkpt>
      <trkpt lat="43.61527" lon="-1.44917">
        <ele>9</ele>
        <time>2021-08-08T07:01:50Z</time>
      </trkpt>
      <trkpt lat="43.61523" lon="-1.44925">
        <ele>9</ele>
        <time>2021-08-08T07:01:51Z</time>
      </trkpt>
      <trkpt lat="43.61518" lon="-1.44934">
        <ele>9</ele>
        <time>2021-08-08T07:01:52Z</time>
      </trkpt>
      <trkpt lat="43.61502" lon="-1.44963">
        <ele>9</ele>
        <time>2021-08-08T07:01:56Z</time>
      </trkpt>
      <trkpt lat="43.61481" lon="-1.45011">
        <ele>9</ele>
        <time>2021-08-08T07:02:02Z</time>
      </trkpt>
      <trkpt lat="43.61452" lon="-1.45055">
        <ele>9</ele>
        <time>2021-08-08T07:02:08Z</time>
      </trkpt>
      <trkpt lat="43.61449" lon="-1.45062">
        <ele>9</ele>
        <time>2021-08-08T07:02:09Z</time>
      </trkpt>
      <trkpt lat="43.61445" lon="-1.45069">
        <ele>9</ele>
        <time>2021-08-08T07:02:10Z</time>
      </trkpt>
      <trkpt lat="43.61441" lon="-1.45078">
        <ele>9</ele>
        <time>2021-08-08T07:02:11Z</time>
      </trkpt>
      <trkpt lat="43.61437" lon="-1.45084">
        <ele>9</ele>
        <time>2021-08-08T07:02:12Z</time>
      </trkpt>
      <trkpt lat="43.61433" lon="-1.4509">
        <ele>9</ele>
        <time>2021-08-08T07:02:13Z</time>
      </trkpt>
      <trkpt lat="43.61424" lon="-1.45102">
        <ele>9</ele>
        <time>2021-08-08T07:02:15Z</time>
      </trkpt>
      <trkpt lat="43.61419" lon="-1.45108">
        <ele>9</ele>
        <time>2021-08-08T07:02:16Z</time>
      </trkpt>
      <trkpt lat="43.61411" lon="-1.4512">
        <ele>9</ele>
        <time>2021-08-08T07:02:18Z</time>
      </trkpt>
      <trkpt lat="43.61406" lon="-1.45127">
        <ele>9</ele>
        <time>2021-08-08T07:02:19Z</time>
      </trkpt>
      <trkpt lat="43.6139" lon="-1.45147">
        <ele>9</ele>
        <time>2021-08-08T07:02:22Z</time>
      </trkpt>
      <trkpt lat="43.61381" lon="-1.45157">
        <ele>9</ele>
        <time>2021-08-08T07:02:24Z</time>
      </trkpt>
      <trkpt lat="43.61349" lon="-1.45196">
        <ele>9</ele>
        <time>2021-08-08T07:02:30Z</time>
      </trkpt>
      <trkpt lat="43.61343" lon="-1.45202">
        <ele>9</ele>
        <time>2021-08-08T07:02:31Z</time>
      </trkpt>
      <trkpt lat="43.61331" lon="-1.45214">
        <ele>9.2</ele>
        <time>2021-08-08T07:02:33Z</time>
      </trkpt>
      <trkpt lat="43.61326" lon="-1.45219">
        <ele>9.2</ele>
        <time>2021-08-08T07:02:34Z</time>
      </trkpt>
      <trkpt lat="43.61322" lon="-1.45226">
        <ele>9.2</ele>
        <time>2021-08-08T07:02:35Z</time>
      </trkpt>
      <trkpt lat="43.61316" lon="-1.45235">
        <ele>9.2</ele>
        <time>2021-08-08T07:02:36Z</time>
      </trkpt>
      <trkpt lat="43.61305" lon="-1.45247">
        <ele>9.2</ele>
        <time>2021-08-08T07:02:38Z</time>
      </trkpt>
      <trkpt lat="43.613" lon="-1.45253">
        <ele>9.2</ele>
        <time>2021-08-08T07:02:39Z</time>
      </trkpt>
      <trkpt lat="43.61295" lon="-1.4526">
        <ele>9.2</ele>
        <time>2021-08-08T07:02:40Z</time>
      </trkpt>
      <trkpt lat="43.61289" lon="-1.45266">
        <ele>9.4</ele>
        <time>2021-08-08T07:02:41Z</time>
      </trkpt>
      <trkpt lat="43.61271" lon="-1.45284">
        <ele>9.4</ele>
        <time>2021-08-08T07:02:44Z</time>
      </trkpt>
      <trkpt lat="43.61259" lon="-1.45296">
        <ele>9.4</ele>
        <time>2021-08-08T07:02:46Z</time>
      </trkpt>
      <trkpt lat="43.61243" lon="-1.45316">
        <ele>9.4</ele>
        <time>2021-08-08T07:02:49Z</time>
      </trkpt>
      <trkpt lat="43.61233" lon="-1.45332">
        <ele>9.4</ele>
        <time>2021-08-08T07:02:51Z</time>
      </trkpt>
      <trkpt lat="43.61208" lon="-1.45363">
        <ele>9.2</ele>
        <time>2021-08-08T07:02:56Z</time>
      </trkpt>
      <trkpt lat="43.61203" lon="-1.45369">
        <ele>9</ele>
        <time>2021-08-08T07:02:57Z</time>
      </trkpt>
      <trkpt lat="43.61199" lon="-1.45375">
        <ele>9.2</ele>
        <time>2021-08-08T07:02:58Z</time>
      </trkpt>
      <trkpt lat="43.61194" lon="-1.4538">
        <ele>9.2</ele>
        <time>2021-08-08T07:02:59Z</time>
      </trkpt>
      <trkpt lat="43.61178" lon="-1.45398">
        <ele>9.2</ele>
        <time>2021-08-08T07:03:02Z</time>
      </trkpt>
      <trkpt lat="43.61162" lon="-1.45416">
        <ele>9.2</ele>
        <time>2021-08-08T07:03:05Z</time>
      </trkpt>
      <trkpt lat="43.61158" lon="-1.45421">
        <ele>9</ele>
        <time>2021-08-08T07:03:06Z</time>
      </trkpt>
      <trkpt lat="43.61153" lon="-1.45427">
        <ele>9.2</ele>
        <time>2021-08-08T07:03:07Z</time>
      </trkpt>
      <trkpt lat="43.61142" lon="-1.45438">
        <ele>9.2</ele>
        <time>2021-08-08T07:03:09Z</time>
      </trkpt>
      <trkpt lat="43.61137" lon="-1.45443">
        <ele>9.2</ele>
        <time>2021-08-08T07:03:10Z</time>
      </trkpt>
      <trkpt lat="43.61132" lon="-1.45447">
        <ele>9.2</ele>
        <time>2021-08-08T07:03:11Z</time>
      </trkpt>
      <trkpt lat="43.61125" lon="-1.45452">
        <ele>9.2</ele>
        <time>2021-08-08T07:03:12Z</time>
      </trkpt>
      <trkpt lat="43.6112" lon="-1.45455">
        <ele>9.2</ele>
        <time>2021-08-08T07:03:13Z</time>
      </trkpt>
      <trkpt lat="43.61114" lon="-1.4546">
        <ele>9.2</ele>
        <time>2021-08-08T07:03:14Z</time>
      </trkpt>
      <trkpt lat="43.61108" lon="-1.45464">
        <ele>9.2</ele>
        <time>2021-08-08T07:03:15Z</time>
      </trkpt>
      <trkpt lat="43.61101" lon="-1.45466">
        <ele>9.4</ele>
        <time>2021-08-08T07:03:16Z</time>
      </trkpt>
      <trkpt lat="43.6108" lon="-1.45472">
        <ele>9.4</ele>
        <time>2021-08-08T07:03:19Z</time>
      </trkpt>
      <trkpt lat="43.61043" lon="-1.4547">
        <ele>9.4</ele>
        <time>2021-08-08T07:03:24Z</time>
      </trkpt>
      <trkpt lat="43.61023" lon="-1.45466">
        <ele>9.2</ele>
        <time>2021-08-08T07:03:27Z</time>
      </trkpt>
      <trkpt lat="43.61016" lon="-1.45467">
        <ele>9.2</ele>
        <time>2021-08-08T07:03:28Z</time>
      </trkpt>
      <trkpt lat="43.61008" lon="-1.45468">
        <ele>9</ele>
        <time>2021-08-08T07:03:29Z</time>
      </trkpt>
      <trkpt lat="43.61" lon="-1.4547">
        <ele>9</ele>
        <time>2021-08-08T07:03:30Z</time>
      </trkpt>
      <trkpt lat="43.60987" lon="-1.45466">
        <ele>9</ele>
        <time>2021-08-08T07:03:32Z</time>
      </trkpt>
      <trkpt lat="43.60976" lon="-1.45456">
        <ele>9</ele>
        <time>2021-08-08T07:03:34Z</time>
      </trkpt>
      <trkpt lat="43.60971" lon="-1.45452">
        <ele>9</ele>
        <time>2021-08-08T07:03:35Z</time>
      </trkpt>
      <trkpt lat="43.60964" lon="-1.45446">
        <ele>8.8</ele>
        <time>2021-08-08T07:03:36Z</time>
      </trkpt>
      <trkpt lat="43.60957" lon="-1.45442">
        <ele>8.8</ele>
        <time>2021-08-08T07:03:37Z</time>
      </trkpt>
      <trkpt lat="43.60944" lon="-1.45436">
        <ele>8.8</ele>
        <time>2021-08-08T07:03:39Z</time>
      </trkpt>
      <trkpt lat="43.60931" lon="-1.45433">
        <ele>8.8</ele>
        <time>2021-08-08T07:03:41Z</time>
      </trkpt>
      <trkpt lat="43.60884" lon="-1.45432">
        <ele>8.4</ele>
        <time>2021-08-08T07:03:48Z</time>
      </trkpt>
      <trkpt lat="43.60878" lon="-1.45433">
        <ele>8.4</ele>
        <time>2021-08-08T07:03:49Z</time>
      </trkpt>
      <trkpt lat="43.60873" lon="-1.45434">
        <ele>8.4</ele>
        <time>2021-08-08T07:03:50Z</time>
      </trkpt>
      <trkpt lat="43.60865" lon="-1.45436">
        <ele>8.4</ele>
        <time>2021-08-08T07:03:51Z</time>
      </trkpt>
      <trkpt lat="43.60858" lon="-1.45438">
        <ele>8.4</ele>
        <time>2021-08-08T07:03:52Z</time>
      </trkpt>
      <trkpt lat="43.60852" lon="-1.4544">
        <ele>8.4</ele>
        <time>2021-08-08T07:03:53Z</time>
      </trkpt>
      <trkpt lat="43.60838" lon="-1.45445">
        <ele>8.6</ele>
        <time>2021-08-08T07:03:55Z</time>
      </trkpt>
      <trkpt lat="43.60818" lon="-1.45452">
        <ele>8.8</ele>
        <time>2021-08-08T07:03:58Z</time>
      </trkpt>
      <trkpt lat="43.60811" lon="-1.45455">
        <ele>8.8</ele>
        <time>2021-08-08T07:03:59Z</time>
      </trkpt>
      <trkpt lat="43.60803" lon="-1.45457">
        <ele>9</ele>
        <time>2021-08-08T07:04:00Z</time>
      </trkpt>
      <trkpt lat="43.60768" lon="-1.45467">
        <ele>9.2</ele>
        <time>2021-08-08T07:04:05Z</time>
      </trkpt>
      <trkpt lat="43.6076" lon="-1.45468">
        <ele>9.2</ele>
        <time>2021-08-08T07:04:06Z</time>
      </trkpt>
      <trkpt lat="43.60754" lon="-1.45468">
        <ele>9.2</ele>
        <time>2021-08-08T07:04:07Z</time>
      </trkpt>
      <trkpt lat="43.60747" lon="-1.45469">
        <ele>9.2</ele>
        <time>2021-08-08T07:04:08Z</time>
      </trkpt>
      <trkpt lat="43.6074" lon="-1.45469">
        <ele>9.2</ele>
        <time>2021-08-08T07:04:09Z</time>
      </trkpt>
      <trkpt lat="43.60726" lon="-1.4547">
        <ele>9</ele>
        <time>2021-08-08T07:04:11Z</time>
      </trkpt>
      <trkpt lat="43.60697" lon="-1.45472">
        <ele>9</ele>
        <time>2021-08-08T07:04:15Z</time>
      </trkpt>
      <trkpt lat="43.60683" lon="-1.45475">
        <ele>9</ele>
        <time>2021-08-08T07:04:17Z</time>
      </trkpt>
      <trkpt lat="43.60638" lon="-1.45493">
        <ele>8.6</ele>
        <time>2021-08-08T07:04:24Z</time>
      </trkpt>
      <trkpt lat="43.60632" lon="-1.45497">
        <ele>8.4</ele>
        <time>2021-08-08T07:04:25Z</time>
      </trkpt>
      <trkpt lat="43.6061" lon="-1.45517">
        <ele>8.4</ele>
        <time>2021-08-08T07:04:29Z</time>
      </trkpt>
      <trkpt lat="43.60604" lon="-1.45523">
        <ele>8.2</ele>
        <time>2021-08-08T07:04:30Z</time>
      </trkpt>
      <trkpt lat="43.60599" lon="-1.45529">
        <ele>8.2</ele>
        <time>2021-08-08T07:04:31Z</time>
      </trkpt>
      <trkpt lat="43.60593" lon="-1.45535">
        <ele>8.2</ele>
        <time>2021-08-08T07:04:32Z</time>
      </trkpt>
      <trkpt lat="43.60584" lon="-1.45548">
        <ele>8.2</ele>
        <time>2021-08-08T07:04:34Z</time>
      </trkpt>
      <trkpt lat="43.60544" lon="-1.45591">
        <ele>8.2</ele>
        <time>2021-08-08T07:04:41Z</time>
      </trkpt>
      <trkpt lat="43.60518" lon="-1.45618">
        <ele>8.2</ele>
        <time>2021-08-08T07:04:46Z</time>
      </trkpt>
      <trkpt lat="43.60507" lon="-1.45627">
        <ele>8.2</ele>
        <time>2021-08-08T07:04:48Z</time>
      </trkpt>
      <trkpt lat="43.60494" lon="-1.45637">
        <ele>8.2</ele>
        <time>2021-08-08T07:04:50Z</time>
      </trkpt>
      <trkpt lat="43.60488" lon="-1.45641">
        <ele>8.4</ele>
        <time>2021-08-08T07:04:51Z</time>
      </trkpt>
      <trkpt lat="43.60482" lon="-1.45645">
        <ele>8.4</ele>
        <time>2021-08-08T07:04:52Z</time>
      </trkpt>
      <trkpt lat="43.60476" lon="-1.45649">
        <ele>8.4</ele>
        <time>2021-08-08T07:04:53Z</time>
      </trkpt>
      <trkpt lat="43.6047" lon="-1.45652">
        <ele>8.4</ele>
        <time>2021-08-08T07:04:54Z</time>
      </trkpt>
      <trkpt lat="43.60421" lon="-1.45672">
        <ele>8.6</ele>
        <time>2021-08-08T07:05:02Z</time>
      </trkpt>
      <trkpt lat="43.60414" lon="-1.45674">
        <ele>8.6</ele>
        <time>2021-08-08T07:05:03Z</time>
      </trkpt>
      <trkpt lat="43.60408" lon="-1.45675">
        <ele>8.6</ele>
        <time>2021-08-08T07:05:04Z</time>
      </trkpt>
      <trkpt lat="43.60401" lon="-1.45677">
        <ele>8.6</ele>
        <time>2021-08-08T07:05:05Z</time>
      </trkpt>
      <trkpt lat="43.60366" lon="-1.45687">
        <ele>8.6</ele>
        <time>2021-08-08T07:05:10Z</time>
      </trkpt>
      <trkpt lat="43.60352" lon="-1.45691">
        <ele>8.4</ele>
        <time>2021-08-08T07:05:12Z</time>
      </trkpt>
      <trkpt lat="43.60333" lon="-1.45698">
        <ele>8.2</ele>
        <time>2021-08-08T07:05:15Z</time>
      </trkpt>
      <trkpt lat="43.60327" lon="-1.45701">
        <ele>8.2</ele>
        <time>2021-08-08T07:05:16Z</time>
      </trkpt>
      <trkpt lat="43.60321" lon="-1.45703">
        <ele>8.2</ele>
        <time>2021-08-08T07:05:17Z</time>
      </trkpt>
      <trkpt lat="43.60315" lon="-1.45706">
        <ele>8.2</ele>
        <time>2021-08-08T07:05:18Z</time>
      </trkpt>
      <trkpt lat="43.60308" lon="-1.45709">
        <ele>8.2</ele>
        <time>2021-08-08T07:05:19Z</time>
      </trkpt>
      <trkpt lat="43.60302" lon="-1.45713">
        <ele>8.2</ele>
        <time>2021-08-08T07:05:20Z</time>
      </trkpt>
      <trkpt lat="43.60296" lon="-1.45715">
        <ele>8.2</ele>
        <time>2021-08-08T07:05:21Z</time>
      </trkpt>
      <trkpt lat="43.6029" lon="-1.45719">
        <ele>8.2</ele>
        <time>2021-08-08T07:05:22Z</time>
      </trkpt>
      <trkpt lat="43.60284" lon="-1.45723">
        <ele>8.2</ele>
        <time>2021-08-08T07:05:23Z</time>
      </trkpt>
      <trkpt lat="43.60278" lon="-1.45727">
        <ele>8.2</ele>
        <time>2021-08-08T07:05:24Z</time>
      </trkpt>
      <trkpt lat="43.60241" lon="-1.4575">
        <ele>8.2</ele>
        <time>2021-08-08T07:05:30Z</time>
      </trkpt>
      <trkpt lat="43.60236" lon="-1.45754">
        <ele>8.2</ele>
        <time>2021-08-08T07:05:31Z</time>
      </trkpt>
      <trkpt lat="43.60229" lon="-1.45757">
        <ele>8.4</ele>
        <time>2021-08-08T07:05:32Z</time>
      </trkpt>
      <trkpt lat="43.60204" lon="-1.45775">
        <ele>8.4</ele>
        <time>2021-08-08T07:05:36Z</time>
      </trkpt>
      <trkpt lat="43.60199" lon="-1.4578">
        <ele>8.4</ele>
        <time>2021-08-08T07:05:37Z</time>
      </trkpt>
      <trkpt lat="43.60194" lon="-1.45784">
        <ele>8.4</ele>
        <time>2021-08-08T07:05:38Z</time>
      </trkpt>
      <trkpt lat="43.60189" lon="-1.4579">
        <ele>8.2</ele>
        <time>2021-08-08T07:05:39Z</time>
      </trkpt>
      <trkpt lat="43.6018" lon="-1.458">
        <ele>8.2</ele>
        <time>2021-08-08T07:05:41Z</time>
      </trkpt>
      <trkpt lat="43.60175" lon="-1.45805">
        <ele>8.2</ele>
        <time>2021-08-08T07:05:42Z</time>
      </trkpt>
      <trkpt lat="43.60172" lon="-1.4581">
        <ele>8.6</ele>
        <time>2021-08-08T07:05:43Z</time>
      </trkpt>
      <trkpt lat="43.60168" lon="-1.45815">
        <ele>8.6</ele>
        <time>2021-08-08T07:05:44Z</time>
      </trkpt>
      <trkpt lat="43.60127" lon="-1.45857">
        <ele>9</ele>
        <time>2021-08-08T07:05:52Z</time>
      </trkpt>
      <trkpt lat="43.60095" lon="-1.45883">
        <ele>9.4</ele>
        <time>2021-08-08T07:05:58Z</time>
      </trkpt>
      <trkpt lat="43.60073" lon="-1.45895">
        <ele>9.6</ele>
        <time>2021-08-08T07:06:02Z</time>
      </trkpt>
      <trkpt lat="43.60056" lon="-1.45907">
        <ele>9.6</ele>
        <time>2021-08-08T07:06:05Z</time>
      </trkpt>
      <trkpt lat="43.6001" lon="-1.45938">
        <ele>9</ele>
        <time>2021-08-08T07:06:12Z</time>
      </trkpt>
      <trkpt lat="43.59991" lon="-1.45951">
        <ele>8.8</ele>
        <time>2021-08-08T07:06:15Z</time>
      </trkpt>
      <trkpt lat="43.59985" lon="-1.45956">
        <ele>8.8</ele>
        <time>2021-08-08T07:06:16Z</time>
      </trkpt>
      <trkpt lat="43.59979" lon="-1.4596">
        <ele>8.6</ele>
        <time>2021-08-08T07:06:17Z</time>
      </trkpt>
      <trkpt lat="43.59973" lon="-1.45964">
        <ele>8.6</ele>
        <time>2021-08-08T07:06:18Z</time>
      </trkpt>
      <trkpt lat="43.59961" lon="-1.45971">
        <ele>8.8</ele>
        <time>2021-08-08T07:06:20Z</time>
      </trkpt>
      <trkpt lat="43.59955" lon="-1.45973">
        <ele>8.8</ele>
        <time>2021-08-08T07:06:21Z</time>
      </trkpt>
      <trkpt lat="43.59948" lon="-1.45976">
        <ele>9</ele>
        <time>2021-08-08T07:06:22Z</time>
      </trkpt>
      <trkpt lat="43.59942" lon="-1.45979">
        <ele>9</ele>
        <time>2021-08-08T07:06:23Z</time>
      </trkpt>
      <trkpt lat="43.59936" lon="-1.45981">
        <ele>9</ele>
        <time>2021-08-08T07:06:24Z</time>
      </trkpt>
      <trkpt lat="43.5993" lon="-1.45984">
        <ele>9</ele>
        <time>2021-08-08T07:06:25Z</time>
      </trkpt>
      <trkpt lat="43.59924" lon="-1.45986">
        <ele>9</ele>
        <time>2021-08-08T07:06:26Z</time>
      </trkpt>
      <trkpt lat="43.59917" lon="-1.45989">
        <ele>9</ele>
        <time>2021-08-08T07:06:27Z</time>
      </trkpt>
      <trkpt lat="43.59867" lon="-1.46007">
        <ele>9.2</ele>
        <time>2021-08-08T07:06:35Z</time>
      </trkpt>
      <trkpt lat="43.59822" lon="-1.46019">
        <ele>9.4</ele>
        <time>2021-08-08T07:06:42Z</time>
      </trkpt>
      <trkpt lat="43.59778" lon="-1.46023">
        <ele>9.6</ele>
        <time>2021-08-08T07:06:48Z</time>
      </trkpt>
      <trkpt lat="43.59723" lon="-1.46021">
        <ele>9.4</ele>
        <time>2021-08-08T07:06:56Z</time>
      </trkpt>
      <trkpt lat="43.59716" lon="-1.4602">
        <ele>9.4</ele>
        <time>2021-08-08T07:06:57Z</time>
      </trkpt>
      <trkpt lat="43.59709" lon="-1.4602">
        <ele>9.2</ele>
        <time>2021-08-08T07:06:58Z</time>
      </trkpt>
      <trkpt lat="43.59703" lon="-1.4602">
        <ele>9.2</ele>
        <time>2021-08-08T07:06:59Z</time>
      </trkpt>
      <trkpt lat="43.59697" lon="-1.46019">
        <ele>9</ele>
        <time>2021-08-08T07:07:00Z</time>
      </trkpt>
      <trkpt lat="43.59691" lon="-1.46018">
        <ele>9</ele>
        <time>2021-08-08T07:07:01Z</time>
      </trkpt>
      <trkpt lat="43.59685" lon="-1.46017">
        <ele>9</ele>
        <time>2021-08-08T07:07:02Z</time>
      </trkpt>
      <trkpt lat="43.59678" lon="-1.46017">
        <ele>9</ele>
        <time>2021-08-08T07:07:03Z</time>
      </trkpt>
      <trkpt lat="43.59672" lon="-1.46018">
        <ele>9</ele>
        <time>2021-08-08T07:07:04Z</time>
      </trkpt>
      <trkpt lat="43.59653" lon="-1.46021">
        <ele>9</ele>
        <time>2021-08-08T07:07:07Z</time>
      </trkpt>
      <trkpt lat="43.59641" lon="-1.46024">
        <ele>8.8</ele>
        <time>2021-08-08T07:07:09Z</time>
      </trkpt>
      <trkpt lat="43.59636" lon="-1.46024">
        <ele>8.8</ele>
        <time>2021-08-08T07:07:10Z</time>
      </trkpt>
      <trkpt lat="43.5963" lon="-1.46025">
        <ele>8.8</ele>
        <time>2021-08-08T07:07:11Z</time>
      </trkpt>
      <trkpt lat="43.59625" lon="-1.46026">
        <ele>8.6</ele>
        <time>2021-08-08T07:07:12Z</time>
      </trkpt>
      <trkpt lat="43.59619" lon="-1.46026">
        <ele>8.6</ele>
        <time>2021-08-08T07:07:13Z</time>
      </trkpt>
      <trkpt lat="43.59615" lon="-1.46026">
        <ele>8.6</ele>
        <time>2021-08-08T07:07:14Z</time>
      </trkpt>
      <trkpt lat="43.59611" lon="-1.46029">
        <ele>8.6</ele>
        <time>2021-08-08T07:07:15Z</time>
      </trkpt>
      <trkpt lat="43.5961" lon="-1.46033">
        <ele>8.6</ele>
        <time>2021-08-08T07:07:16Z</time>
      </trkpt>
      <trkpt lat="43.5961" lon="-1.46037">
        <ele>8.6</ele>
        <time>2021-08-08T07:07:17Z</time>
      </trkpt>
      <trkpt lat="43.5961" lon="-1.46042">
        <ele>8.6</ele>
        <time>2021-08-08T07:07:18Z</time>
      </trkpt>
      <trkpt lat="43.5961" lon="-1.46048">
        <ele>8.6</ele>
        <time>2021-08-08T07:07:19Z</time>
      </trkpt>
      <trkpt lat="43.5961" lon="-1.46053">
        <ele>8.6</ele>
        <time>2021-08-08T07:07:20Z</time>
      </trkpt>
      <trkpt lat="43.59611" lon="-1.46059">
        <ele>8.6</ele>
        <time>2021-08-08T07:07:21Z</time>
      </trkpt>
      <trkpt lat="43.59611" lon="-1.46071">
        <ele>8.8</ele>
        <time>2021-08-08T07:07:23Z</time>
      </trkpt>
      <trkpt lat="43.59611" lon="-1.46107">
        <ele>9.4</ele>
        <time>2021-08-08T07:07:28Z</time>
      </trkpt>
      <trkpt lat="43.59611" lon="-1.46147">
        <ele>9.2</ele>
        <time>2021-08-08T07:07:33Z</time>
      </trkpt>
      <trkpt lat="43.59611" lon="-1.46155">
        <ele>9</ele>
        <time>2021-08-08T07:07:34Z</time>
      </trkpt>
      <trkpt lat="43.59611" lon="-1.46162">
        <ele>9</ele>
        <time>2021-08-08T07:07:35Z</time>
      </trkpt>
      <trkpt lat="43.5961" lon="-1.46175">
        <ele>8.8</ele>
        <time>2021-08-08T07:07:37Z</time>
      </trkpt>
      <trkpt lat="43.59609" lon="-1.46181">
        <ele>8.8</ele>
        <time>2021-08-08T07:07:38Z</time>
      </trkpt>
      <trkpt lat="43.59609" lon="-1.46185">
        <ele>8.8</ele>
        <time>2021-08-08T07:07:39Z</time>
      </trkpt>
      <trkpt lat="43.59609" lon="-1.46189">
        <ele>8.8</ele>
        <time>2021-08-08T07:07:40Z</time>
      </trkpt>
      <trkpt lat="43.59609" lon="-1.46194">
        <ele>8.6</ele>
        <time>2021-08-08T07:07:41Z</time>
      </trkpt>
      <trkpt lat="43.59609" lon="-1.46199">
        <ele>8.6</ele>
        <time>2021-08-08T07:07:42Z</time>
      </trkpt>
      <trkpt lat="43.5961" lon="-1.46204">
        <ele>8.6</ele>
        <time>2021-08-08T07:07:43Z</time>
      </trkpt>
      <trkpt lat="43.5961" lon="-1.4622">
        <ele>8.6</ele>
        <time>2021-08-08T07:07:46Z</time>
      </trkpt>
      <trkpt lat="43.59608" lon="-1.46259">
        <ele>8.4</ele>
        <time>2021-08-08T07:07:52Z</time>
      </trkpt>
      <trkpt lat="43.59608" lon="-1.46266">
        <ele>8.4</ele>
        <time>2021-08-08T07:07:53Z</time>
      </trkpt>
      <trkpt lat="43.59608" lon="-1.46272">
        <ele>8.4</ele>
        <time>2021-08-08T07:07:54Z</time>
      </trkpt>
      <trkpt lat="43.59609" lon="-1.46302">
        <ele>8.4</ele>
        <time>2021-08-08T07:07:58Z</time>
      </trkpt>
      <trkpt lat="43.59609" lon="-1.46327">
        <ele>8.4</ele>
        <time>2021-08-08T07:08:01Z</time>
      </trkpt>
      <trkpt lat="43.5961" lon="-1.46342">
        <ele>8.4</ele>
        <time>2021-08-08T07:08:03Z</time>
      </trkpt>
      <trkpt lat="43.5961" lon="-1.46358">
        <ele>8.4</ele>
        <time>2021-08-08T07:08:05Z</time>
      </trkpt>
      <trkpt lat="43.59614" lon="-1.46389">
        <ele>8.2</ele>
        <time>2021-08-08T07:08:09Z</time>
      </trkpt>
      <trkpt lat="43.59623" lon="-1.46426">
        <ele>8.6</ele>
        <time>2021-08-08T07:08:14Z</time>
      </trkpt>
      <trkpt lat="43.59625" lon="-1.46432">
        <ele>8.8</ele>
        <time>2021-08-08T07:08:15Z</time>
      </trkpt>
      <trkpt lat="43.59628" lon="-1.46438">
        <ele>8.8</ele>
        <time>2021-08-08T07:08:16Z</time>
      </trkpt>
      <trkpt lat="43.59631" lon="-1.46444">
        <ele>9</ele>
        <time>2021-08-08T07:08:17Z</time>
      </trkpt>
      <trkpt lat="43.59634" lon="-1.4645">
        <ele>9</ele>
        <time>2021-08-08T07:08:18Z</time>
      </trkpt>
      <trkpt lat="43.59637" lon="-1.46456">
        <ele>9</ele>
        <time>2021-08-08T07:08:19Z</time>
      </trkpt>
      <trkpt lat="43.59639" lon="-1.46462">
        <ele>9.2</ele>
        <time>2021-08-08T07:08:20Z</time>
      </trkpt>
      <trkpt lat="43.5964" lon="-1.46467">
        <ele>9.2</ele>
        <time>2021-08-08T07:08:21Z</time>
      </trkpt>
      <trkpt lat="43.59642" lon="-1.46472">
        <ele>9.2</ele>
        <time>2021-08-08T07:08:22Z</time>
      </trkpt>
      <trkpt lat="43.59644" lon="-1.46478">
        <ele>9.2</ele>
        <time>2021-08-08T07:08:23Z</time>
      </trkpt>
      <trkpt lat="43.59649" lon="-1.4649">
        <ele>9.2</ele>
        <time>2021-08-08T07:08:25Z</time>
      </trkpt>
      <trkpt lat="43.59653" lon="-1.46495">
        <ele>9.2</ele>
        <time>2021-08-08T07:08:26Z</time>
      </trkpt>
      <trkpt lat="43.59657" lon="-1.46501">
        <ele>9.2</ele>
        <time>2021-08-08T07:08:27Z</time>
      </trkpt>
      <trkpt lat="43.5966" lon="-1.46508">
        <ele>9.2</ele>
        <time>2021-08-08T07:08:28Z</time>
      </trkpt>
      <trkpt lat="43.59669" lon="-1.46529">
        <ele>9.2</ele>
        <time>2021-08-08T07:08:31Z</time>
      </trkpt>
      <trkpt lat="43.59675" lon="-1.46543">
        <ele>9.4</ele>
        <time>2021-08-08T07:08:33Z</time>
      </trkpt>
      <trkpt lat="43.59683" lon="-1.46566">
        <ele>9.6</ele>
        <time>2021-08-08T07:08:36Z</time>
      </trkpt>
      <trkpt lat="43.5969" lon="-1.4658">
        <ele>9.6</ele>
        <time>2021-08-08T07:08:38Z</time>
      </trkpt>
      <trkpt lat="43.597" lon="-1.46609">
        <ele>10</ele>
        <time>2021-08-08T07:08:42Z</time>
      </trkpt>
      <trkpt lat="43.59702" lon="-1.46615">
        <ele>10</ele>
        <time>2021-08-08T07:08:43Z</time>
      </trkpt>
      <trkpt lat="43.59703" lon="-1.4662">
        <ele>10</ele>
        <time>2021-08-08T07:08:44Z</time>
      </trkpt>
      <trkpt lat="43.59706" lon="-1.46623">
        <ele>10.2</ele>
        <time>2021-08-08T07:08:45Z</time>
      </trkpt>
      <trkpt lat="43.5971" lon="-1.46626">
        <ele>10.2</ele>
        <time>2021-08-08T07:08:46Z</time>
      </trkpt>
      <trkpt lat="43.59713" lon="-1.4663">
        <ele>10.2</ele>
        <time>2021-08-08T07:08:47Z</time>
      </trkpt>
      <trkpt lat="43.59715" lon="-1.46635">
        <ele>10.2</ele>
        <time>2021-08-08T07:08:48Z</time>
      </trkpt>
      <trkpt lat="43.59718" lon="-1.46646">
        <ele>10.4</ele>
        <time>2021-08-08T07:08:50Z</time>
      </trkpt>
      <trkpt lat="43.5972" lon="-1.46651">
        <ele>10.4</ele>
        <time>2021-08-08T07:08:51Z</time>
      </trkpt>
      <trkpt lat="43.59724" lon="-1.46661">
        <ele>10.6</ele>
        <time>2021-08-08T07:08:53Z</time>
      </trkpt>
      <trkpt lat="43.59727" lon="-1.46667">
        <ele>10.6</ele>
        <time>2021-08-08T07:08:54Z</time>
      </trkpt>
      <trkpt lat="43.5973" lon="-1.46679">
        <ele>10.6</ele>
        <time>2021-08-08T07:08:56Z</time>
      </trkpt>
      <trkpt lat="43.59733" lon="-1.46685">
        <ele>10.8</ele>
        <time>2021-08-08T07:08:57Z</time>
      </trkpt>
      <trkpt lat="43.59736" lon="-1.46691">
        <ele>10.8</ele>
        <time>2021-08-08T07:08:58Z</time>
      </trkpt>
      <trkpt lat="43.59743" lon="-1.46704">
        <ele>11</ele>
        <time>2021-08-08T07:09:00Z</time>
      </trkpt>
      <trkpt lat="43.59749" lon="-1.46718">
        <ele>11</ele>
        <time>2021-08-08T07:09:02Z</time>
      </trkpt>
      <trkpt lat="43.59765" lon="-1.46759">
        <ele>10.8</ele>
        <time>2021-08-08T07:09:07Z</time>
      </trkpt>
      <trkpt lat="43.59783" lon="-1.46806">
        <ele>10.4</ele>
        <time>2021-08-08T07:09:12Z</time>
      </trkpt>
      <trkpt lat="43.59787" lon="-1.46814">
        <ele>10.2</ele>
        <time>2021-08-08T07:09:13Z</time>
      </trkpt>
      <trkpt lat="43.59794" lon="-1.46831">
        <ele>9.8</ele>
        <time>2021-08-08T07:09:15Z</time>
      </trkpt>
      <trkpt lat="43.5981" lon="-1.4688">
        <ele>9.6</ele>
        <time>2021-08-08T07:09:21Z</time>
      </trkpt>
      <trkpt lat="43.59814" lon="-1.46887">
        <ele>9.6</ele>
        <time>2021-08-08T07:09:22Z</time>
      </trkpt>
      <trkpt lat="43.59817" lon="-1.46894">
        <ele>9.6</ele>
        <time>2021-08-08T07:09:23Z</time>
      </trkpt>
      <trkpt lat="43.5982" lon="-1.46901">
        <ele>9.6</ele>
        <time>2021-08-08T07:09:24Z</time>
      </trkpt>
      <trkpt lat="43.59823" lon="-1.46908">
        <ele>9.8</ele>
        <time>2021-08-08T07:09:25Z</time>
      </trkpt>
      <trkpt lat="43.59826" lon="-1.46914">
        <ele>9.8</ele>
        <time>2021-08-08T07:09:26Z</time>
      </trkpt>
      <trkpt lat="43.59829" lon="-1.46921">
        <ele>9.8</ele>
        <time>2021-08-08T07:09:27Z</time>
      </trkpt>
      <trkpt lat="43.59832" lon="-1.46927">
        <ele>9.8</ele>
        <time>2021-08-08T07:09:28Z</time>
      </trkpt>
      <trkpt lat="43.59835" lon="-1.46934">
        <ele>9.8</ele>
        <time>2021-08-08T07:09:29Z</time>
      </trkpt>
      <trkpt lat="43.59845" lon="-1.46953">
        <ele>9.8</ele>
        <time>2021-08-08T07:09:32Z</time>
      </trkpt>
      <trkpt lat="43.59847" lon="-1.46959">
        <ele>10</ele>
        <time>2021-08-08T07:09:33Z</time>
      </trkpt>
      <trkpt lat="43.5985" lon="-1.46966">
        <ele>10</ele>
        <time>2021-08-08T07:09:34Z</time>
      </trkpt>
      <trkpt lat="43.59852" lon="-1.46972">
        <ele>10</ele>
        <time>2021-08-08T07:09:35Z</time>
      </trkpt>
      <trkpt lat="43.59855" lon="-1.46977">
        <ele>10</ele>
        <time>2021-08-08T07:09:36Z</time>
      </trkpt>
      <trkpt lat="43.59858" lon="-1.46982">
        <ele>10.2</ele>
        <time>2021-08-08T07:09:37Z</time>
      </trkpt>
      <trkpt lat="43.59861" lon="-1.46986">
        <ele>10.2</ele>
        <time>2021-08-08T07:09:38Z</time>
      </trkpt>
      <trkpt lat="43.59865" lon="-1.46989">
        <ele>10.2</ele>
        <time>2021-08-08T07:09:39Z</time>
      </trkpt>
      <trkpt lat="43.59866" lon="-1.46993">
        <ele>10.4</ele>
        <time>2021-08-08T07:09:40Z</time>
      </trkpt>
      <trkpt lat="43.59867" lon="-1.46997">
        <ele>10.4</ele>
        <time>2021-08-08T07:09:41Z</time>
      </trkpt>
      <trkpt lat="43.59867" lon="-1.47001">
        <ele>10.4</ele>
        <time>2021-08-08T07:09:42Z</time>
      </trkpt>
      <trkpt lat="43.59867" lon="-1.47006">
        <ele>10.4</ele>
        <time>2021-08-08T07:09:43Z</time>
      </trkpt>
      <trkpt lat="43.59867" lon="-1.4701">
        <ele>10.4</ele>
        <time>2021-08-08T07:09:44Z</time>
      </trkpt>
      <trkpt lat="43.59867" lon="-1.47017">
        <ele>10.4</ele>
        <time>2021-08-08T07:09:45Z</time>
      </trkpt>
      <trkpt lat="43.59869" lon="-1.47027">
        <ele>10.6</ele>
        <time>2021-08-08T07:09:47Z</time>
      </trkpt>
      <trkpt lat="43.59875" lon="-1.47043">
        <ele>10.8</ele>
        <time>2021-08-08T07:09:50Z</time>
      </trkpt>
      <trkpt lat="43.59878" lon="-1.47053">
        <ele>10.8</ele>
        <time>2021-08-08T07:09:52Z</time>
      </trkpt>
      <trkpt lat="43.5988" lon="-1.47059">
        <ele>11</ele>
        <time>2021-08-08T07:09:53Z</time>
      </trkpt>
      <trkpt lat="43.5989" lon="-1.4708">
        <ele>11</ele>
        <time>2021-08-08T07:09:58Z</time>
      </trkpt>
      <trkpt lat="43.59892" lon="-1.47085">
        <ele>11</ele>
        <time>2021-08-08T07:09:59Z</time>
      </trkpt>
      <trkpt lat="43.59893" lon="-1.47088">
        <ele>11</ele>
        <time>2021-08-08T07:10:00Z</time>
      </trkpt>
      <trkpt lat="43.59895" lon="-1.47092">
        <ele>11.2</ele>
        <time>2021-08-08T07:10:01Z</time>
      </trkpt>
      <trkpt lat="43.59897" lon="-1.47097">
        <ele>11.2</ele>
        <time>2021-08-08T07:10:02Z</time>
      </trkpt>
      <trkpt lat="43.59904" lon="-1.47111">
        <ele>11.8</ele>
        <time>2021-08-08T07:10:05Z</time>
      </trkpt>
      <trkpt lat="43.5992" lon="-1.4715">
        <ele>13</ele>
        <time>2021-08-08T07:10:12Z</time>
      </trkpt>
      <trkpt lat="43.59922" lon="-1.47156">
        <ele>13</ele>
        <time>2021-08-08T07:10:13Z</time>
      </trkpt>
      <trkpt lat="43.59928" lon="-1.4717">
        <ele>13.8</ele>
        <time>2021-08-08T07:10:16Z</time>
      </trkpt>
      <trkpt lat="43.5993" lon="-1.47173">
        <ele>13.8</ele>
        <time>2021-08-08T07:10:17Z</time>
      </trkpt>
      <trkpt lat="43.59933" lon="-1.47175">
        <ele>14.2</ele>
        <time>2021-08-08T07:10:18Z</time>
      </trkpt>
      <trkpt lat="43.59935" lon="-1.47177">
        <ele>14.2</ele>
        <time>2021-08-08T07:10:19Z</time>
      </trkpt>
      <trkpt lat="43.59937" lon="-1.4718">
        <ele>14.6</ele>
        <time>2021-08-08T07:10:20Z</time>
      </trkpt>
      <trkpt lat="43.59939" lon="-1.47183">
        <ele>14.8</ele>
        <time>2021-08-08T07:10:21Z</time>
      </trkpt>
      <trkpt lat="43.59941" lon="-1.47187">
        <ele>15</ele>
        <time>2021-08-08T07:10:22Z</time>
      </trkpt>
      <trkpt lat="43.59942" lon="-1.47191">
        <ele>15</ele>
        <time>2021-08-08T07:10:23Z</time>
      </trkpt>
      <trkpt lat="43.59944" lon="-1.47196">
        <ele>15</ele>
        <time>2021-08-08T07:10:24Z</time>
      </trkpt>
      <trkpt lat="43.59946" lon="-1.472">
        <ele>15.2</ele>
        <time>2021-08-08T07:10:25Z</time>
      </trkpt>
      <trkpt lat="43.59948" lon="-1.47205">
        <ele>15.2</ele>
        <time>2021-08-08T07:10:26Z</time>
      </trkpt>
      <trkpt lat="43.59949" lon="-1.47208">
        <ele>15.4</ele>
        <time>2021-08-08T07:10:27Z</time>
      </trkpt>
      <trkpt lat="43.5995" lon="-1.47213">
        <ele>15.4</ele>
        <time>2021-08-08T07:10:28Z</time>
      </trkpt>
      <trkpt lat="43.59952" lon="-1.47218">
        <ele>15.4</ele>
        <time>2021-08-08T07:10:29Z</time>
      </trkpt>
      <trkpt lat="43.59953" lon="-1.47222">
        <ele>15.6</ele>
        <time>2021-08-08T07:10:30Z</time>
      </trkpt>
      <trkpt lat="43.59953" lon="-1.47226">
        <ele>15.6</ele>
        <time>2021-08-08T07:10:31Z</time>
      </trkpt>
      <trkpt lat="43.59954" lon="-1.47231">
        <ele>15.6</ele>
        <time>2021-08-08T07:10:32Z</time>
      </trkpt>
      <trkpt lat="43.59955" lon="-1.47235">
        <ele>15.8</ele>
        <time>2021-08-08T07:10:33Z</time>
      </trkpt>
      <trkpt lat="43.59957" lon="-1.47239">
        <ele>15.8</ele>
        <time>2021-08-08T07:10:34Z</time>
      </trkpt>
      <trkpt lat="43.59958" lon="-1.47243">
        <ele>15.8</ele>
        <time>2021-08-08T07:10:35Z</time>
      </trkpt>
      <trkpt lat="43.5996" lon="-1.47246">
        <ele>15.8</ele>
        <time>2021-08-08T07:10:36Z</time>
      </trkpt>
      <trkpt lat="43.59961" lon="-1.4725">
        <ele>16</ele>
        <time>2021-08-08T07:10:37Z</time>
      </trkpt>
      <trkpt lat="43.59963" lon="-1.47253">
        <ele>16</ele>
        <time>2021-08-08T07:10:38Z</time>
      </trkpt>
      <trkpt lat="43.59964" lon="-1.47256">
        <ele>16.2</ele>
        <time>2021-08-08T07:10:39Z</time>
      </trkpt>
      <trkpt lat="43.59965" lon="-1.47259">
        <ele>16.2</ele>
        <time>2021-08-08T07:10:40Z</time>
      </trkpt>
      <trkpt lat="43.59966" lon="-1.47261">
        <ele>16.4</ele>
        <time>2021-08-08T07:10:41Z</time>
      </trkpt>
      <trkpt lat="43.59965" lon="-1.47263">
        <ele>16.4</ele>
        <time>2021-08-08T07:10:42Z</time>
      </trkpt>
      <trkpt lat="43.59964" lon="-1.47263">
        <ele>16.6</ele>
        <time>2021-08-08T07:10:43Z</time>
      </trkpt>
      <trkpt lat="43.59964" lon="-1.47263">
        <ele>16.6</ele>
        <time>2021-08-08T07:10:44Z</time>
      </trkpt>
      <trkpt lat="43.59964" lon="-1.47263">
        <ele>16.6</ele>
        <time>2021-08-08T07:10:45Z</time>
      </trkpt>
      <trkpt lat="43.59964" lon="-1.47263">
        <ele>16.6</ele>
        <time>2021-08-08T07:11:04Z</time>
      </trkpt>
      <trkpt lat="43.59963" lon="-1.47259">
        <ele>16.4</ele>
        <time>2021-08-08T07:11:18Z</time>
      </trkpt>
      <trkpt lat="43.59962" lon="-1.47257">
        <ele>16.4</ele>
        <time>2021-08-08T07:11:19Z</time>
      </trkpt>
      <trkpt lat="43.59962" lon="-1.47255">
        <ele>16.4</ele>
        <time>2021-08-08T07:11:20Z</time>
      </trkpt>
      <trkpt lat="43.59961" lon="-1.4725">
        <ele>16.4</ele>
        <time>2021-08-08T07:11:22Z</time>
      </trkpt>
      <trkpt lat="43.59961" lon="-1.47247">
        <ele>16.4</ele>
        <time>2021-08-08T07:11:23Z</time>
      </trkpt>
      <trkpt lat="43.5996" lon="-1.47244">
        <ele>16.2</ele>
        <time>2021-08-08T07:11:24Z</time>
      </trkpt>
      <trkpt lat="43.59958" lon="-1.4724">
        <ele>16</ele>
        <time>2021-08-08T07:11:26Z</time>
      </trkpt>
      <trkpt lat="43.59956" lon="-1.47238">
        <ele>16</ele>
        <time>2021-08-08T07:11:27Z</time>
      </trkpt>
      <trkpt lat="43.59955" lon="-1.47236">
        <ele>16</ele>
        <time>2021-08-08T07:11:28Z</time>
      </trkpt>
      <trkpt lat="43.59952" lon="-1.47231">
        <ele>15.8</ele>
        <time>2021-08-08T07:11:30Z</time>
      </trkpt>
      <trkpt lat="43.59952" lon="-1.47227">
        <ele>15.8</ele>
        <time>2021-08-08T07:11:31Z</time>
      </trkpt>
      <trkpt lat="43.59952" lon="-1.47224">
        <ele>15.8</ele>
        <time>2021-08-08T07:11:32Z</time>
      </trkpt>
      <trkpt lat="43.59951" lon="-1.47221">
        <ele>15.8</ele>
        <time>2021-08-08T07:11:33Z</time>
      </trkpt>
      <trkpt lat="43.59951" lon="-1.47217">
        <ele>15.6</ele>
        <time>2021-08-08T07:11:34Z</time>
      </trkpt>
      <trkpt lat="43.59946" lon="-1.47201">
        <ele>15.4</ele>
        <time>2021-08-08T07:11:38Z</time>
      </trkpt>
      <trkpt lat="43.59937" lon="-1.47181">
        <ele>15.4</ele>
        <time>2021-08-08T07:11:44Z</time>
      </trkpt>
      <trkpt lat="43.59937" lon="-1.47178">
        <ele>15.2</ele>
        <time>2021-08-08T07:11:45Z</time>
      </trkpt>
      <trkpt lat="43.59937" lon="-1.47175">
        <ele>15.2</ele>
        <time>2021-08-08T07:11:46Z</time>
      </trkpt>
      <trkpt lat="43.59937" lon="-1.47173">
        <ele>15</ele>
        <time>2021-08-08T07:11:47Z</time>
      </trkpt>
      <trkpt lat="43.59938" lon="-1.47172">
        <ele>15</ele>
        <time>2021-08-08T07:11:48Z</time>
      </trkpt>
      <trkpt lat="43.59939" lon="-1.4717">
        <ele>15</ele>
        <time>2021-08-08T07:11:49Z</time>
      </trkpt>
      <trkpt lat="43.59941" lon="-1.47169">
        <ele>14.8</ele>
        <time>2021-08-08T07:11:50Z</time>
      </trkpt>
      <trkpt lat="43.59943" lon="-1.47167">
        <ele>14.8</ele>
        <time>2021-08-08T07:11:51Z</time>
      </trkpt>
      <trkpt lat="43.59945" lon="-1.47165">
        <ele>14.8</ele>
        <time>2021-08-08T07:11:52Z</time>
      </trkpt>
      <trkpt lat="43.59953" lon="-1.47157">
        <ele>14.8</ele>
        <time>2021-08-08T07:11:56Z</time>
      </trkpt>
      <trkpt lat="43.59968" lon="-1.47146">
        <ele>15</ele>
        <time>2021-08-08T07:12:03Z</time>
      </trkpt>
      <trkpt lat="43.5997" lon="-1.47144">
        <ele>15</ele>
        <time>2021-08-08T07:12:04Z</time>
      </trkpt>
      <trkpt lat="43.59971" lon="-1.47142">
        <ele>15</ele>
        <time>2021-08-08T07:12:05Z</time>
      </trkpt>
      <trkpt lat="43.59972" lon="-1.47139">
        <ele>15</ele>
        <time>2021-08-08T07:12:06Z</time>
      </trkpt>
      <trkpt lat="43.59972" lon="-1.47138">
        <ele>15</ele>
        <time>2021-08-08T07:12:07Z</time>
      </trkpt>
      <trkpt lat="43.59973" lon="-1.47137">
        <ele>14.8</ele>
        <time>2021-08-08T07:12:08Z</time>
      </trkpt>
      <trkpt lat="43.59973" lon="-1.47135">
        <ele>14.8</ele>
        <time>2021-08-08T07:12:09Z</time>
      </trkpt>
      <trkpt lat="43.59973" lon="-1.47134">
        <ele>14.8</ele>
        <time>2021-08-08T07:12:10Z</time>
      </trkpt>
      <trkpt lat="43.59973" lon="-1.47133">
        <ele>14.8</ele>
        <time>2021-08-08T07:12:11Z</time>
      </trkpt>
      <trkpt lat="43.59973" lon="-1.47133">
        <ele>14.8</ele>
        <time>2021-08-08T07:12:12Z</time>
      </trkpt>
      <trkpt lat="43.59973" lon="-1.47133">
        <ele>14.8</ele>
        <time>2021-08-08T07:12:42Z</time>
      </trkpt>
      <trkpt lat="43.59971" lon="-1.47136">
        <ele>14.8</ele>
        <time>2021-08-08T07:13:05Z</time>
      </trkpt>
      <trkpt lat="43.59971" lon="-1.47137">
        <ele>14.8</ele>
        <time>2021-08-08T07:13:06Z</time>
      </trkpt>
      <trkpt lat="43.59971" lon="-1.47137">
        <ele>14.8</ele>
        <time>2021-08-08T07:13:07Z</time>
      </trkpt>
      <trkpt lat="43.59971" lon="-1.47137">
        <ele>14.8</ele>
        <time>2021-08-08T07:13:13Z</time>
      </trkpt>
      <trkpt lat="43.59971" lon="-1.47137">
        <ele>15</ele>
        <time>2021-08-08T07:13:28Z</time>
      </trkpt>
      <trkpt lat="43.59967" lon="-1.47143">
        <ele>15</ele>
        <time>2021-08-08T07:13:36Z</time>
      </trkpt>
      <trkpt lat="43.59964" lon="-1.47146">
        <ele>15.2</ele>
        <time>2021-08-08T07:13:38Z</time>
      </trkpt>
      <trkpt lat="43.59962" lon="-1.47149">
        <ele>15.2</ele>
        <time>2021-08-08T07:13:39Z</time>
      </trkpt>
      <trkpt lat="43.5996" lon="-1.47151">
        <ele>15.2</ele>
        <time>2021-08-08T07:13:40Z</time>
      </trkpt>
      <trkpt lat="43.59958" lon="-1.47153">
        <ele>15.4</ele>
        <time>2021-08-08T07:13:41Z</time>
      </trkpt>
      <trkpt lat="43.59954" lon="-1.47156">
        <ele>15.4</ele>
        <time>2021-08-08T07:13:43Z</time>
      </trkpt>
      <trkpt lat="43.59942" lon="-1.47166">
        <ele>15.4</ele>
        <time>2021-08-08T07:13:49Z</time>
      </trkpt>
      <trkpt lat="43.59941" lon="-1.47168">
        <ele>15.4</ele>
        <time>2021-08-08T07:13:50Z</time>
      </trkpt>
      <trkpt lat="43.5994" lon="-1.4717">
        <ele>15.2</ele>
        <time>2021-08-08T07:13:51Z</time>
      </trkpt>
      <trkpt lat="43.59939" lon="-1.47172">
        <ele>15.2</ele>
        <time>2021-08-08T07:13:52Z</time>
      </trkpt>
      <trkpt lat="43.59936" lon="-1.47176">
        <ele>15.2</ele>
        <time>2021-08-08T07:13:54Z</time>
      </trkpt>
      <trkpt lat="43.59932" lon="-1.47178">
        <ele>15.4</ele>
        <time>2021-08-08T07:13:56Z</time>
      </trkpt>
      <trkpt lat="43.59929" lon="-1.47178">
        <ele>15.4</ele>
        <time>2021-08-08T07:13:57Z</time>
      </trkpt>
      <trkpt lat="43.59927" lon="-1.47177">
        <ele>15.4</ele>
        <time>2021-08-08T07:13:58Z</time>
      </trkpt>
      <trkpt lat="43.59926" lon="-1.47175">
        <ele>15.4</ele>
        <time>2021-08-08T07:13:59Z</time>
      </trkpt>
      <trkpt lat="43.59925" lon="-1.47173">
        <ele>15.4</ele>
        <time>2021-08-08T07:14:00Z</time>
      </trkpt>
      <trkpt lat="43.59924" lon="-1.4717">
        <ele>15.4</ele>
        <time>2021-08-08T07:14:01Z</time>
      </trkpt>
      <trkpt lat="43.59923" lon="-1.47167">
        <ele>15.2</ele>
        <time>2021-08-08T07:14:02Z</time>
      </trkpt>
      <trkpt lat="43.5992" lon="-1.47163">
        <ele>15.2</ele>
        <time>2021-08-08T07:14:03Z</time>
      </trkpt>
      <trkpt lat="43.59918" lon="-1.47158">
        <ele>15.2</ele>
        <time>2021-08-08T07:14:04Z</time>
      </trkpt>
      <trkpt lat="43.59916" lon="-1.47152">
        <ele>15</ele>
        <time>2021-08-08T07:14:05Z</time>
      </trkpt>
      <trkpt lat="43.59907" lon="-1.47128">
        <ele>14.8</ele>
        <time>2021-08-08T07:14:09Z</time>
      </trkpt>
      <trkpt lat="43.599" lon="-1.47115">
        <ele>14.4</ele>
        <time>2021-08-08T07:14:11Z</time>
      </trkpt>
      <trkpt lat="43.59898" lon="-1.47109">
        <ele>14.2</ele>
        <time>2021-08-08T07:14:12Z</time>
      </trkpt>
      <trkpt lat="43.59894" lon="-1.47099">
        <ele>13.8</ele>
        <time>2021-08-08T07:14:14Z</time>
      </trkpt>
      <trkpt lat="43.59892" lon="-1.47093">
        <ele>13.6</ele>
        <time>2021-08-08T07:14:15Z</time>
      </trkpt>
      <trkpt lat="43.5989" lon="-1.47088">
        <ele>13.4</ele>
        <time>2021-08-08T07:14:16Z</time>
      </trkpt>
      <trkpt lat="43.59889" lon="-1.47084">
        <ele>13</ele>
        <time>2021-08-08T07:14:17Z</time>
      </trkpt>
      <trkpt lat="43.59886" lon="-1.47078">
        <ele>12.8</ele>
        <time>2021-08-08T07:14:18Z</time>
      </trkpt>
      <trkpt lat="43.59884" lon="-1.47072">
        <ele>12.6</ele>
        <time>2021-08-08T07:14:19Z</time>
      </trkpt>
      <trkpt lat="43.59875" lon="-1.4705">
        <ele>11.8</ele>
        <time>2021-08-08T07:14:23Z</time>
      </trkpt>
      <trkpt lat="43.59873" lon="-1.47045">
        <ele>11.8</ele>
        <time>2021-08-08T07:14:24Z</time>
      </trkpt>
      <trkpt lat="43.59871" lon="-1.47041">
        <ele>11.6</ele>
        <time>2021-08-08T07:14:25Z</time>
      </trkpt>
      <trkpt lat="43.59869" lon="-1.47037">
        <ele>11.6</ele>
        <time>2021-08-08T07:14:26Z</time>
      </trkpt>
      <trkpt lat="43.59867" lon="-1.47032">
        <ele>11.4</ele>
        <time>2021-08-08T07:14:27Z</time>
      </trkpt>
      <trkpt lat="43.59866" lon="-1.47028">
        <ele>11.4</ele>
        <time>2021-08-08T07:14:28Z</time>
      </trkpt>
      <trkpt lat="43.59865" lon="-1.47024">
        <ele>11.2</ele>
        <time>2021-08-08T07:14:29Z</time>
      </trkpt>
      <trkpt lat="43.59865" lon="-1.47021">
        <ele>11.2</ele>
        <time>2021-08-08T07:14:30Z</time>
      </trkpt>
      <trkpt lat="43.59866" lon="-1.47017">
        <ele>11</ele>
        <time>2021-08-08T07:14:31Z</time>
      </trkpt>
      <trkpt lat="43.59866" lon="-1.47014">
        <ele>11</ele>
        <time>2021-08-08T07:14:32Z</time>
      </trkpt>
      <trkpt lat="43.59866" lon="-1.4701">
        <ele>11</ele>
        <time>2021-08-08T07:14:33Z</time>
      </trkpt>
      <trkpt lat="43.59866" lon="-1.47006">
        <ele>10.8</ele>
        <time>2021-08-08T07:14:34Z</time>
      </trkpt>
      <trkpt lat="43.59864" lon="-1.46992">
        <ele>10.6</ele>
        <time>2021-08-08T07:14:37Z</time>
      </trkpt>
      <trkpt lat="43.59862" lon="-1.46989">
        <ele>10.6</ele>
        <time>2021-08-08T07:14:38Z</time>
      </trkpt>
      <trkpt lat="43.5986" lon="-1.46986">
        <ele>10.6</ele>
        <time>2021-08-08T07:14:39Z</time>
      </trkpt>
      <trkpt lat="43.59854" lon="-1.46981">
        <ele>10.6</ele>
        <time>2021-08-08T07:14:41Z</time>
      </trkpt>
      <trkpt lat="43.59852" lon="-1.46977">
        <ele>10.4</ele>
        <time>2021-08-08T07:14:42Z</time>
      </trkpt>
      <trkpt lat="43.5985" lon="-1.46973">
        <ele>10.2</ele>
        <time>2021-08-08T07:14:43Z</time>
      </trkpt>
      <trkpt lat="43.59848" lon="-1.46969">
        <ele>10.2</ele>
        <time>2021-08-08T07:14:44Z</time>
      </trkpt>
      <trkpt lat="43.59846" lon="-1.46964">
        <ele>10.2</ele>
        <time>2021-08-08T07:14:45Z</time>
      </trkpt>
      <trkpt lat="43.59835" lon="-1.46939">
        <ele>10</ele>
        <time>2021-08-08T07:14:51Z</time>
      </trkpt>
      <trkpt lat="43.59822" lon="-1.46907">
        <ele>9.8</ele>
        <time>2021-08-08T07:14:58Z</time>
      </trkpt>
      <trkpt lat="43.59819" lon="-1.46901">
        <ele>9.8</ele>
        <time>2021-08-08T07:14:59Z</time>
      </trkpt>
      <trkpt lat="43.59804" lon="-1.46867">
        <ele>9.6</ele>
        <time>2021-08-08T07:15:05Z</time>
      </trkpt>
      <trkpt lat="43.59801" lon="-1.46861">
        <ele>9.6</ele>
        <time>2021-08-08T07:15:06Z</time>
      </trkpt>
      <trkpt lat="43.59788" lon="-1.4683">
        <ele>9.4</ele>
        <time>2021-08-08T07:15:11Z</time>
      </trkpt>
      <trkpt lat="43.59782" lon="-1.46816">
        <ele>9.2</ele>
        <time>2021-08-08T07:15:13Z</time>
      </trkpt>
      <trkpt lat="43.59765" lon="-1.46777">
        <ele>9.2</ele>
        <time>2021-08-08T07:15:19Z</time>
      </trkpt>
      <trkpt lat="43.59754" lon="-1.46749">
        <ele>9.2</ele>
        <time>2021-08-08T07:15:23Z</time>
      </trkpt>
      <trkpt lat="43.59751" lon="-1.46743">
        <ele>9.4</ele>
        <time>2021-08-08T07:15:24Z</time>
      </trkpt>
      <trkpt lat="43.59749" lon="-1.46736">
        <ele>9.4</ele>
        <time>2021-08-08T07:15:25Z</time>
      </trkpt>
      <trkpt lat="43.59747" lon="-1.4673">
        <ele>9.4</ele>
        <time>2021-08-08T07:15:26Z</time>
      </trkpt>
      <trkpt lat="43.59744" lon="-1.46723">
        <ele>9.6</ele>
        <time>2021-08-08T07:15:27Z</time>
      </trkpt>
      <trkpt lat="43.59741" lon="-1.46717">
        <ele>9.6</ele>
        <time>2021-08-08T07:15:28Z</time>
      </trkpt>
      <trkpt lat="43.59739" lon="-1.46711">
        <ele>9.6</ele>
        <time>2021-08-08T07:15:29Z</time>
      </trkpt>
      <trkpt lat="43.59736" lon="-1.46705">
        <ele>9.8</ele>
        <time>2021-08-08T07:15:30Z</time>
      </trkpt>
      <trkpt lat="43.59733" lon="-1.467">
        <ele>10</ele>
        <time>2021-08-08T07:15:31Z</time>
      </trkpt>
      <trkpt lat="43.59731" lon="-1.46695">
        <ele>10.2</ele>
        <time>2021-08-08T07:15:32Z</time>
      </trkpt>
      <trkpt lat="43.59728" lon="-1.46687">
        <ele>10.4</ele>
        <time>2021-08-08T07:15:33Z</time>
      </trkpt>
      <trkpt lat="43.5972" lon="-1.46668">
        <ele>10.6</ele>
        <time>2021-08-08T07:15:36Z</time>
      </trkpt>
      <trkpt lat="43.59717" lon="-1.46662">
        <ele>10.6</ele>
        <time>2021-08-08T07:15:37Z</time>
      </trkpt>
      <trkpt lat="43.59715" lon="-1.46656">
        <ele>10.8</ele>
        <time>2021-08-08T07:15:38Z</time>
      </trkpt>
      <trkpt lat="43.59714" lon="-1.4665">
        <ele>10.8</ele>
        <time>2021-08-08T07:15:39Z</time>
      </trkpt>
      <trkpt lat="43.59714" lon="-1.46644">
        <ele>10.8</ele>
        <time>2021-08-08T07:15:40Z</time>
      </trkpt>
      <trkpt lat="43.59712" lon="-1.46637">
        <ele>10.8</ele>
        <time>2021-08-08T07:15:41Z</time>
      </trkpt>
      <trkpt lat="43.59709" lon="-1.46632">
        <ele>10.8</ele>
        <time>2021-08-08T07:15:42Z</time>
      </trkpt>
      <trkpt lat="43.59706" lon="-1.46628">
        <ele>10.8</ele>
        <time>2021-08-08T07:15:43Z</time>
      </trkpt>
      <trkpt lat="43.59691" lon="-1.46596">
        <ele>10.6</ele>
        <time>2021-08-08T07:15:48Z</time>
      </trkpt>
      <trkpt lat="43.59673" lon="-1.46554">
        <ele>10</ele>
        <time>2021-08-08T07:15:54Z</time>
      </trkpt>
      <trkpt lat="43.59647" lon="-1.46491">
        <ele>9.6</ele>
        <time>2021-08-08T07:16:03Z</time>
      </trkpt>
      <trkpt lat="43.59644" lon="-1.46484">
        <ele>9.6</ele>
        <time>2021-08-08T07:16:04Z</time>
      </trkpt>
      <trkpt lat="43.59641" lon="-1.46478">
        <ele>9.6</ele>
        <time>2021-08-08T07:16:05Z</time>
      </trkpt>
      <trkpt lat="43.59638" lon="-1.46472">
        <ele>9.4</ele>
        <time>2021-08-08T07:16:06Z</time>
      </trkpt>
      <trkpt lat="43.59636" lon="-1.46465">
        <ele>9.4</ele>
        <time>2021-08-08T07:16:07Z</time>
      </trkpt>
      <trkpt lat="43.59633" lon="-1.46458">
        <ele>9.2</ele>
        <time>2021-08-08T07:16:08Z</time>
      </trkpt>
      <trkpt lat="43.5963" lon="-1.46451">
        <ele>9.2</ele>
        <time>2021-08-08T07:16:09Z</time>
      </trkpt>
      <trkpt lat="43.59627" lon="-1.46444">
        <ele>9.2</ele>
        <time>2021-08-08T07:16:10Z</time>
      </trkpt>
      <trkpt lat="43.59625" lon="-1.46437">
        <ele>9</ele>
        <time>2021-08-08T07:16:11Z</time>
      </trkpt>
      <trkpt lat="43.59615" lon="-1.46407">
        <ele>9</ele>
        <time>2021-08-08T07:16:15Z</time>
      </trkpt>
      <trkpt lat="43.59608" lon="-1.46352">
        <ele>8.8</ele>
        <time>2021-08-08T07:16:22Z</time>
      </trkpt>
      <trkpt lat="43.59608" lon="-1.46336">
        <ele>8.8</ele>
        <time>2021-08-08T07:16:24Z</time>
      </trkpt>
      <trkpt lat="43.59608" lon="-1.4632">
        <ele>8.6</ele>
        <time>2021-08-08T07:16:26Z</time>
      </trkpt>
      <trkpt lat="43.59607" lon="-1.46312">
        <ele>8.6</ele>
        <time>2021-08-08T07:16:27Z</time>
      </trkpt>
      <trkpt lat="43.59606" lon="-1.46305">
        <ele>8.6</ele>
        <time>2021-08-08T07:16:28Z</time>
      </trkpt>
      <trkpt lat="43.59607" lon="-1.46297">
        <ele>8.6</ele>
        <time>2021-08-08T07:16:29Z</time>
      </trkpt>
      <trkpt lat="43.59607" lon="-1.46267">
        <ele>8.4</ele>
        <time>2021-08-08T07:16:33Z</time>
      </trkpt>
      <trkpt lat="43.59607" lon="-1.46259">
        <ele>8.2</ele>
        <time>2021-08-08T07:16:34Z</time>
      </trkpt>
      <trkpt lat="43.59607" lon="-1.46251">
        <ele>8.2</ele>
        <time>2021-08-08T07:16:35Z</time>
      </trkpt>
      <trkpt lat="43.59608" lon="-1.46188">
        <ele>8.4</ele>
        <time>2021-08-08T07:16:43Z</time>
      </trkpt>
      <trkpt lat="43.59608" lon="-1.46172">
        <ele>8.4</ele>
        <time>2021-08-08T07:16:45Z</time>
      </trkpt>
      <trkpt lat="43.59608" lon="-1.46144">
        <ele>8.4</ele>
        <time>2021-08-08T07:16:49Z</time>
      </trkpt>
      <trkpt lat="43.59608" lon="-1.46139">
        <ele>8.4</ele>
        <time>2021-08-08T07:16:50Z</time>
      </trkpt>
      <trkpt lat="43.59608" lon="-1.46134">
        <ele>8.4</ele>
        <time>2021-08-08T07:16:51Z</time>
      </trkpt>
      <trkpt lat="43.59608" lon="-1.4613">
        <ele>8.4</ele>
        <time>2021-08-08T07:16:52Z</time>
      </trkpt>
      <trkpt lat="43.59607" lon="-1.46126">
        <ele>8.4</ele>
        <time>2021-08-08T07:16:53Z</time>
      </trkpt>
      <trkpt lat="43.59607" lon="-1.46122">
        <ele>8.4</ele>
        <time>2021-08-08T07:16:54Z</time>
      </trkpt>
      <trkpt lat="43.59608" lon="-1.46117">
        <ele>8.4</ele>
        <time>2021-08-08T07:16:55Z</time>
      </trkpt>
      <trkpt lat="43.59609" lon="-1.46112">
        <ele>8.2</ele>
        <time>2021-08-08T07:16:56Z</time>
      </trkpt>
      <trkpt lat="43.59608" lon="-1.46094">
        <ele>8.2</ele>
        <time>2021-08-08T07:16:59Z</time>
      </trkpt>
      <trkpt lat="43.59608" lon="-1.46063">
        <ele>8.4</ele>
        <time>2021-08-08T07:17:04Z</time>
      </trkpt>
      <trkpt lat="43.59609" lon="-1.46058">
        <ele>8.6</ele>
        <time>2021-08-08T07:17:05Z</time>
      </trkpt>
      <trkpt lat="43.59609" lon="-1.46052">
        <ele>8.6</ele>
        <time>2021-08-08T07:17:06Z</time>
      </trkpt>
      <trkpt lat="43.59609" lon="-1.46048">
        <ele>8.8</ele>
        <time>2021-08-08T07:17:07Z</time>
      </trkpt>
      <trkpt lat="43.59609" lon="-1.46045">
        <ele>8.8</ele>
        <time>2021-08-08T07:17:08Z</time>
      </trkpt>
      <trkpt lat="43.59609" lon="-1.46042">
        <ele>8.8</ele>
        <time>2021-08-08T07:17:09Z</time>
      </trkpt>
      <trkpt lat="43.59609" lon="-1.46039">
        <ele>9</ele>
        <time>2021-08-08T07:17:10Z</time>
      </trkpt>
      <trkpt lat="43.5961" lon="-1.46036">
        <ele>9.2</ele>
        <time>2021-08-08T07:17:11Z</time>
      </trkpt>
      <trkpt lat="43.59609" lon="-1.46033">
        <ele>9.2</ele>
        <time>2021-08-08T07:17:12Z</time>
      </trkpt>
      <trkpt lat="43.5961" lon="-1.46029">
        <ele>9.2</ele>
        <time>2021-08-08T07:17:13Z</time>
      </trkpt>
      <trkpt lat="43.59612" lon="-1.46026">
        <ele>9.2</ele>
        <time>2021-08-08T07:17:14Z</time>
      </trkpt>
      <trkpt lat="43.59615" lon="-1.46024">
        <ele>9.2</ele>
        <time>2021-08-08T07:17:15Z</time>
      </trkpt>
      <trkpt lat="43.59619" lon="-1.46024">
        <ele>9.2</ele>
        <time>2021-08-08T07:17:16Z</time>
      </trkpt>
      <trkpt lat="43.59627" lon="-1.46024">
        <ele>9.2</ele>
        <time>2021-08-08T07:17:18Z</time>
      </trkpt>
      <trkpt lat="43.59645" lon="-1.46021">
        <ele>8.6</ele>
        <time>2021-08-08T07:17:22Z</time>
      </trkpt>
      <trkpt lat="43.59662" lon="-1.46017">
        <ele>8.4</ele>
        <time>2021-08-08T07:17:25Z</time>
      </trkpt>
      <trkpt lat="43.59668" lon="-1.46016">
        <ele>8.4</ele>
        <time>2021-08-08T07:17:26Z</time>
      </trkpt>
      <trkpt lat="43.59698" lon="-1.46015">
        <ele>8.6</ele>
        <time>2021-08-08T07:17:31Z</time>
      </trkpt>
      <trkpt lat="43.59703" lon="-1.46016">
        <ele>8.6</ele>
        <time>2021-08-08T07:17:32Z</time>
      </trkpt>
      <trkpt lat="43.59709" lon="-1.46017">
        <ele>8.6</ele>
        <time>2021-08-08T07:17:33Z</time>
      </trkpt>
      <trkpt lat="43.59715" lon="-1.46017">
        <ele>8.6</ele>
        <time>2021-08-08T07:17:34Z</time>
      </trkpt>
      <trkpt lat="43.59749" lon="-1.46019">
        <ele>8.8</ele>
        <time>2021-08-08T07:17:39Z</time>
      </trkpt>
      <trkpt lat="43.59762" lon="-1.4602">
        <ele>8.8</ele>
        <time>2021-08-08T07:17:41Z</time>
      </trkpt>
      <trkpt lat="43.59798" lon="-1.46018">
        <ele>8.8</ele>
        <time>2021-08-08T07:17:46Z</time>
      </trkpt>
      <trkpt lat="43.59811" lon="-1.46016">
        <ele>9</ele>
        <time>2021-08-08T07:17:48Z</time>
      </trkpt>
      <trkpt lat="43.59834" lon="-1.46012">
        <ele>9</ele>
        <time>2021-08-08T07:17:51Z</time>
      </trkpt>
      <trkpt lat="43.59887" lon="-1.45995">
        <ele>9.2</ele>
        <time>2021-08-08T07:17:58Z</time>
      </trkpt>
      <trkpt lat="43.59942" lon="-1.45974">
        <ele>9.2</ele>
        <time>2021-08-08T07:18:05Z</time>
      </trkpt>
      <trkpt lat="43.59995" lon="-1.45945">
        <ele>9.2</ele>
        <time>2021-08-08T07:18:12Z</time>
      </trkpt>
      <trkpt lat="43.6" lon="-1.45941">
        <ele>9.2</ele>
        <time>2021-08-08T07:18:13Z</time>
      </trkpt>
      <trkpt lat="43.60005" lon="-1.45938">
        <ele>9</ele>
        <time>2021-08-08T07:18:14Z</time>
      </trkpt>
      <trkpt lat="43.60011" lon="-1.45935">
        <ele>9</ele>
        <time>2021-08-08T07:18:15Z</time>
      </trkpt>
      <trkpt lat="43.60016" lon="-1.45931">
        <ele>8.8</ele>
        <time>2021-08-08T07:18:16Z</time>
      </trkpt>
      <trkpt lat="43.60048" lon="-1.45912">
        <ele>8.8</ele>
        <time>2021-08-08T07:18:21Z</time>
      </trkpt>
      <trkpt lat="43.60087" lon="-1.45887">
        <ele>8.8</ele>
        <time>2021-08-08T07:18:27Z</time>
      </trkpt>
      <trkpt lat="43.60128" lon="-1.45857">
        <ele>9</ele>
        <time>2021-08-08T07:18:33Z</time>
      </trkpt>
      <trkpt lat="43.60134" lon="-1.4585">
        <ele>9</ele>
        <time>2021-08-08T07:18:34Z</time>
      </trkpt>
      <trkpt lat="43.60159" lon="-1.45824">
        <ele>9.2</ele>
        <time>2021-08-08T07:18:38Z</time>
      </trkpt>
      <trkpt lat="43.60165" lon="-1.45816">
        <ele>9.2</ele>
        <time>2021-08-08T07:18:39Z</time>
      </trkpt>
      <trkpt lat="43.60171" lon="-1.45808">
        <ele>9.2</ele>
        <time>2021-08-08T07:18:40Z</time>
      </trkpt>
      <trkpt lat="43.60183" lon="-1.45793">
        <ele>9.2</ele>
        <time>2021-08-08T07:18:42Z</time>
      </trkpt>
      <trkpt lat="43.60195" lon="-1.45778">
        <ele>9.2</ele>
        <time>2021-08-08T07:18:44Z</time>
      </trkpt>
      <trkpt lat="43.60208" lon="-1.45764">
        <ele>9.2</ele>
        <time>2021-08-08T07:18:46Z</time>
      </trkpt>
      <trkpt lat="43.60216" lon="-1.45758">
        <ele>9.2</ele>
        <time>2021-08-08T07:18:47Z</time>
      </trkpt>
      <trkpt lat="43.60224" lon="-1.45753">
        <ele>9</ele>
        <time>2021-08-08T07:18:48Z</time>
      </trkpt>
      <trkpt lat="43.60247" lon="-1.45738">
        <ele>9</ele>
        <time>2021-08-08T07:18:51Z</time>
      </trkpt>
      <trkpt lat="43.60262" lon="-1.45729">
        <ele>8.8</ele>
        <time>2021-08-08T07:18:53Z</time>
      </trkpt>
      <trkpt lat="43.60292" lon="-1.45711">
        <ele>8.4</ele>
        <time>2021-08-08T07:18:57Z</time>
      </trkpt>
      <trkpt lat="43.60299" lon="-1.45706">
        <ele>8.4</ele>
        <time>2021-08-08T07:18:58Z</time>
      </trkpt>
      <trkpt lat="43.60314" lon="-1.457">
        <ele>8.2</ele>
        <time>2021-08-08T07:19:00Z</time>
      </trkpt>
      <trkpt lat="43.60322" lon="-1.45696">
        <ele>8.2</ele>
        <time>2021-08-08T07:19:01Z</time>
      </trkpt>
      <trkpt lat="43.60329" lon="-1.45692">
        <ele>8.2</ele>
        <time>2021-08-08T07:19:02Z</time>
      </trkpt>
      <trkpt lat="43.60337" lon="-1.45689">
        <ele>8.2</ele>
        <time>2021-08-08T07:19:03Z</time>
      </trkpt>
      <trkpt lat="43.60359" lon="-1.45681">
        <ele>8.2</ele>
        <time>2021-08-08T07:19:06Z</time>
      </trkpt>
      <trkpt lat="43.60367" lon="-1.45679">
        <ele>8.2</ele>
        <time>2021-08-08T07:19:07Z</time>
      </trkpt>
      <trkpt lat="43.60374" lon="-1.45677">
        <ele>8.2</ele>
        <time>2021-08-08T07:19:08Z</time>
      </trkpt>
      <trkpt lat="43.60382" lon="-1.45675">
        <ele>8</ele>
        <time>2021-08-08T07:19:09Z</time>
      </trkpt>
      <trkpt lat="43.6039" lon="-1.45673">
        <ele>8</ele>
        <time>2021-08-08T07:19:10Z</time>
      </trkpt>
      <trkpt lat="43.6042" lon="-1.45665">
        <ele>7.8</ele>
        <time>2021-08-08T07:19:14Z</time>
      </trkpt>
      <trkpt lat="43.60427" lon="-1.45663">
        <ele>7.8</ele>
        <time>2021-08-08T07:19:15Z</time>
      </trkpt>
      <trkpt lat="43.60435" lon="-1.4566">
        <ele>8</ele>
        <time>2021-08-08T07:19:16Z</time>
      </trkpt>
      <trkpt lat="43.6045" lon="-1.45655">
        <ele>8.2</ele>
        <time>2021-08-08T07:19:18Z</time>
      </trkpt>
      <trkpt lat="43.60479" lon="-1.45642">
        <ele>8.4</ele>
        <time>2021-08-08T07:19:22Z</time>
      </trkpt>
      <trkpt lat="43.60486" lon="-1.45638">
        <ele>8.6</ele>
        <time>2021-08-08T07:19:23Z</time>
      </trkpt>
      <trkpt lat="43.60533" lon="-1.456">
        <ele>8.4</ele>
        <time>2021-08-08T07:19:30Z</time>
      </trkpt>
      <trkpt lat="43.60577" lon="-1.45555">
        <ele>8.2</ele>
        <time>2021-08-08T07:19:37Z</time>
      </trkpt>
      <trkpt lat="43.60589" lon="-1.4554">
        <ele>8</ele>
        <time>2021-08-08T07:19:39Z</time>
      </trkpt>
      <trkpt lat="43.60594" lon="-1.45532">
        <ele>8</ele>
        <time>2021-08-08T07:19:40Z</time>
      </trkpt>
      <trkpt lat="43.60612" lon="-1.45512">
        <ele>8</ele>
        <time>2021-08-08T07:19:43Z</time>
      </trkpt>
      <trkpt lat="43.60618" lon="-1.45506">
        <ele>8</ele>
        <time>2021-08-08T07:19:44Z</time>
      </trkpt>
      <trkpt lat="43.60624" lon="-1.45501">
        <ele>8</ele>
        <time>2021-08-08T07:19:45Z</time>
      </trkpt>
      <trkpt lat="43.60631" lon="-1.45495">
        <ele>8</ele>
        <time>2021-08-08T07:19:46Z</time>
      </trkpt>
      <trkpt lat="43.60638" lon="-1.45489">
        <ele>8</ele>
        <time>2021-08-08T07:19:47Z</time>
      </trkpt>
      <trkpt lat="43.60646" lon="-1.45484">
        <ele>8</ele>
        <time>2021-08-08T07:19:48Z</time>
      </trkpt>
      <trkpt lat="43.6067" lon="-1.45473">
        <ele>8</ele>
        <time>2021-08-08T07:19:51Z</time>
      </trkpt>
      <trkpt lat="43.60712" lon="-1.45462">
        <ele>7.8</ele>
        <time>2021-08-08T07:19:56Z</time>
      </trkpt>
      <trkpt lat="43.6072" lon="-1.45462">
        <ele>7.8</ele>
        <time>2021-08-08T07:19:57Z</time>
      </trkpt>
      <trkpt lat="43.60736" lon="-1.45463">
        <ele>7.8</ele>
        <time>2021-08-08T07:19:59Z</time>
      </trkpt>
      <trkpt lat="43.60743" lon="-1.45462">
        <ele>7.8</ele>
        <time>2021-08-08T07:20:00Z</time>
      </trkpt>
      <trkpt lat="43.6075" lon="-1.45462">
        <ele>7.8</ele>
        <time>2021-08-08T07:20:01Z</time>
      </trkpt>
      <trkpt lat="43.60757" lon="-1.45462">
        <ele>7.8</ele>
        <time>2021-08-08T07:20:02Z</time>
      </trkpt>
      <trkpt lat="43.60764" lon="-1.45461">
        <ele>7.8</ele>
        <time>2021-08-08T07:20:03Z</time>
      </trkpt>
      <trkpt lat="43.60795" lon="-1.45455">
        <ele>8.2</ele>
        <time>2021-08-08T07:20:07Z</time>
      </trkpt>
      <trkpt lat="43.60803" lon="-1.45454">
        <ele>8.2</ele>
        <time>2021-08-08T07:20:08Z</time>
      </trkpt>
      <trkpt lat="43.60834" lon="-1.45443">
        <ele>8.4</ele>
        <time>2021-08-08T07:20:12Z</time>
      </trkpt>
      <trkpt lat="43.60887" lon="-1.45427">
        <ele>8.4</ele>
        <time>2021-08-08T07:20:19Z</time>
      </trkpt>
      <trkpt lat="43.60894" lon="-1.45427">
        <ele>8.4</ele>
        <time>2021-08-08T07:20:20Z</time>
      </trkpt>
      <trkpt lat="43.60902" lon="-1.45426">
        <ele>8.4</ele>
        <time>2021-08-08T07:20:21Z</time>
      </trkpt>
      <trkpt lat="43.60909" lon="-1.45426">
        <ele>8.4</ele>
        <time>2021-08-08T07:20:22Z</time>
      </trkpt>
      <trkpt lat="43.60917" lon="-1.45426">
        <ele>8.4</ele>
        <time>2021-08-08T07:20:23Z</time>
      </trkpt>
      <trkpt lat="43.60924" lon="-1.45427">
        <ele>8.4</ele>
        <time>2021-08-08T07:20:24Z</time>
      </trkpt>
      <trkpt lat="43.60931" lon="-1.45428">
        <ele>8.4</ele>
        <time>2021-08-08T07:20:25Z</time>
      </trkpt>
      <trkpt lat="43.60939" lon="-1.45429">
        <ele>8.2</ele>
        <time>2021-08-08T07:20:26Z</time>
      </trkpt>
      <trkpt lat="43.60946" lon="-1.45432">
        <ele>8.2</ele>
        <time>2021-08-08T07:20:27Z</time>
      </trkpt>
      <trkpt lat="43.60953" lon="-1.45436">
        <ele>8.2</ele>
        <time>2021-08-08T07:20:28Z</time>
      </trkpt>
      <trkpt lat="43.6096" lon="-1.4544">
        <ele>8</ele>
        <time>2021-08-08T07:20:29Z</time>
      </trkpt>
      <trkpt lat="43.60978" lon="-1.45453">
        <ele>8</ele>
        <time>2021-08-08T07:20:32Z</time>
      </trkpt>
      <trkpt lat="43.60985" lon="-1.45458">
        <ele>8</ele>
        <time>2021-08-08T07:20:33Z</time>
      </trkpt>
      <trkpt lat="43.60991" lon="-1.45461">
        <ele>8</ele>
        <time>2021-08-08T07:20:34Z</time>
      </trkpt>
      <trkpt lat="43.60997" lon="-1.45463">
        <ele>8</ele>
        <time>2021-08-08T07:20:35Z</time>
      </trkpt>
      <trkpt lat="43.61004" lon="-1.45463">
        <ele>8</ele>
        <time>2021-08-08T07:20:36Z</time>
      </trkpt>
      <trkpt lat="43.61012" lon="-1.45464">
        <ele>8</ele>
        <time>2021-08-08T07:20:37Z</time>
      </trkpt>
      <trkpt lat="43.61027" lon="-1.45466">
        <ele>8</ele>
        <time>2021-08-08T07:20:39Z</time>
      </trkpt>
      <trkpt lat="43.61042" lon="-1.45468">
        <ele>8</ele>
        <time>2021-08-08T07:20:41Z</time>
      </trkpt>
      <trkpt lat="43.6105" lon="-1.45469">
        <ele>8</ele>
        <time>2021-08-08T07:20:42Z</time>
      </trkpt>
      <trkpt lat="43.61065" lon="-1.45469">
        <ele>8</ele>
        <time>2021-08-08T07:20:44Z</time>
      </trkpt>
      <trkpt lat="43.61094" lon="-1.4546">
        <ele>8.2</ele>
        <time>2021-08-08T07:20:48Z</time>
      </trkpt>
      <trkpt lat="43.611" lon="-1.45457">
        <ele>8.4</ele>
        <time>2021-08-08T07:20:49Z</time>
      </trkpt>
      <trkpt lat="43.61115" lon="-1.45449">
        <ele>8.4</ele>
        <time>2021-08-08T07:20:51Z</time>
      </trkpt>
      <trkpt lat="43.61135" lon="-1.45435">
        <ele>8.6</ele>
        <time>2021-08-08T07:20:54Z</time>
      </trkpt>
      <trkpt lat="43.61169" lon="-1.454">
        <ele>8.6</ele>
        <time>2021-08-08T07:20:59Z</time>
      </trkpt>
      <trkpt lat="43.61183" lon="-1.45385">
        <ele>8.6</ele>
        <time>2021-08-08T07:21:01Z</time>
      </trkpt>
      <trkpt lat="43.61191" lon="-1.45372">
        <ele>8.6</ele>
        <time>2021-08-08T07:21:03Z</time>
      </trkpt>
      <trkpt lat="43.61196" lon="-1.45365">
        <ele>8.6</ele>
        <time>2021-08-08T07:21:04Z</time>
      </trkpt>
      <trkpt lat="43.61202" lon="-1.45359">
        <ele>8.6</ele>
        <time>2021-08-08T07:21:05Z</time>
      </trkpt>
      <trkpt lat="43.61208" lon="-1.45352">
        <ele>8.6</ele>
        <time>2021-08-08T07:21:06Z</time>
      </trkpt>
      <trkpt lat="43.61214" lon="-1.45345">
        <ele>8.6</ele>
        <time>2021-08-08T07:21:07Z</time>
      </trkpt>
      <trkpt lat="43.6122" lon="-1.45339">
        <ele>8.6</ele>
        <time>2021-08-08T07:21:08Z</time>
      </trkpt>
      <trkpt lat="43.6125" lon="-1.45308">
        <ele>8.4</ele>
        <time>2021-08-08T07:21:13Z</time>
      </trkpt>
      <trkpt lat="43.61255" lon="-1.45303">
        <ele>8.4</ele>
        <time>2021-08-08T07:21:14Z</time>
      </trkpt>
      <trkpt lat="43.61261" lon="-1.45298">
        <ele>8.4</ele>
        <time>2021-08-08T07:21:15Z</time>
      </trkpt>
      <trkpt lat="43.61286" lon="-1.45274">
        <ele>8.6</ele>
        <time>2021-08-08T07:21:19Z</time>
      </trkpt>
      <trkpt lat="43.61291" lon="-1.45269">
        <ele>8.6</ele>
        <time>2021-08-08T07:21:20Z</time>
      </trkpt>
      <trkpt lat="43.61296" lon="-1.45263">
        <ele>8.6</ele>
        <time>2021-08-08T07:21:21Z</time>
      </trkpt>
      <trkpt lat="43.61302" lon="-1.45256">
        <ele>8.6</ele>
        <time>2021-08-08T07:21:22Z</time>
      </trkpt>
      <trkpt lat="43.61315" lon="-1.45242">
        <ele>8.6</ele>
        <time>2021-08-08T07:21:24Z</time>
      </trkpt>
      <trkpt lat="43.61326" lon="-1.45228">
        <ele>8.8</ele>
        <time>2021-08-08T07:21:26Z</time>
      </trkpt>
      <trkpt lat="43.61337" lon="-1.45216">
        <ele>8.8</ele>
        <time>2021-08-08T07:21:28Z</time>
      </trkpt>
      <trkpt lat="43.61343" lon="-1.45209">
        <ele>8.6</ele>
        <time>2021-08-08T07:21:29Z</time>
      </trkpt>
      <trkpt lat="43.61349" lon="-1.45203">
        <ele>8.6</ele>
        <time>2021-08-08T07:21:30Z</time>
      </trkpt>
      <trkpt lat="43.61355" lon="-1.45197">
        <ele>8.4</ele>
        <time>2021-08-08T07:21:31Z</time>
      </trkpt>
      <trkpt lat="43.6138" lon="-1.45167">
        <ele>8.2</ele>
        <time>2021-08-08T07:21:35Z</time>
      </trkpt>
      <trkpt lat="43.61387" lon="-1.45159">
        <ele>8.2</ele>
        <time>2021-08-08T07:21:36Z</time>
      </trkpt>
      <trkpt lat="43.61405" lon="-1.45134">
        <ele>8</ele>
        <time>2021-08-08T07:21:39Z</time>
      </trkpt>
      <trkpt lat="43.61437" lon="-1.45082">
        <ele>8</ele>
        <time>2021-08-08T07:21:45Z</time>
      </trkpt>
      <trkpt lat="43.6146" lon="-1.45034">
        <ele>8</ele>
        <time>2021-08-08T07:21:50Z</time>
      </trkpt>
      <trkpt lat="43.61464" lon="-1.45025">
        <ele>8</ele>
        <time>2021-08-08T07:21:51Z</time>
      </trkpt>
      <trkpt lat="43.61469" lon="-1.45016">
        <ele>8</ele>
        <time>2021-08-08T07:21:52Z</time>
      </trkpt>
      <trkpt lat="43.61479" lon="-1.44997">
        <ele>8</ele>
        <time>2021-08-08T07:21:54Z</time>
      </trkpt>
      <trkpt lat="43.61484" lon="-1.44989">
        <ele>8</ele>
        <time>2021-08-08T07:21:55Z</time>
      </trkpt>
      <trkpt lat="43.61496" lon="-1.44965">
        <ele>8</ele>
        <time>2021-08-08T07:21:58Z</time>
      </trkpt>
      <trkpt lat="43.61529" lon="-1.44908">
        <ele>8.4</ele>
        <time>2021-08-08T07:22:05Z</time>
      </trkpt>
      <trkpt lat="43.61547" lon="-1.44875">
        <ele>8.2</ele>
        <time>2021-08-08T07:22:09Z</time>
      </trkpt>
      <trkpt lat="43.61557" lon="-1.44859">
        <ele>8</ele>
        <time>2021-08-08T07:22:11Z</time>
      </trkpt>
      <trkpt lat="43.6159" lon="-1.44799">
        <ele>7.8</ele>
        <time>2021-08-08T07:22:18Z</time>
      </trkpt>
      <trkpt lat="43.61607" lon="-1.44765">
        <ele>7.8</ele>
        <time>2021-08-08T07:22:22Z</time>
      </trkpt>
      <trkpt lat="43.61611" lon="-1.44757">
        <ele>7.8</ele>
        <time>2021-08-08T07:22:23Z</time>
      </trkpt>
      <trkpt lat="43.61615" lon="-1.4475">
        <ele>7.8</ele>
        <time>2021-08-08T07:22:24Z</time>
      </trkpt>
      <trkpt lat="43.61619" lon="-1.44742">
        <ele>7.8</ele>
        <time>2021-08-08T07:22:25Z</time>
      </trkpt>
      <trkpt lat="43.61635" lon="-1.44714">
        <ele>7.8</ele>
        <time>2021-08-08T07:22:28Z</time>
      </trkpt>
      <trkpt lat="43.61644" lon="-1.44696">
        <ele>7.8</ele>
        <time>2021-08-08T07:22:30Z</time>
      </trkpt>
      <trkpt lat="43.61648" lon="-1.44687">
        <ele>7.8</ele>
        <time>2021-08-08T07:22:31Z</time>
      </trkpt>
      <trkpt lat="43.61675" lon="-1.44618">
        <ele>7.8</ele>
        <time>2021-08-08T07:22:38Z</time>
      </trkpt>
      <trkpt lat="43.61692" lon="-1.44578">
        <ele>7.8</ele>
        <time>2021-08-08T07:22:42Z</time>
      </trkpt>
      <trkpt lat="43.61696" lon="-1.44569">
        <ele>7.8</ele>
        <time>2021-08-08T07:22:43Z</time>
      </trkpt>
      <trkpt lat="43.617" lon="-1.4456">
        <ele>7.8</ele>
        <time>2021-08-08T07:22:44Z</time>
      </trkpt>
      <trkpt lat="43.61705" lon="-1.44552">
        <ele>7.8</ele>
        <time>2021-08-08T07:22:45Z</time>
      </trkpt>
      <trkpt lat="43.61716" lon="-1.44537">
        <ele>7.8</ele>
        <time>2021-08-08T07:22:47Z</time>
      </trkpt>
      <trkpt lat="43.61729" lon="-1.44526">
        <ele>7.6</ele>
        <time>2021-08-08T07:22:49Z</time>
      </trkpt>
      <trkpt lat="43.61751" lon="-1.44514">
        <ele>7.6</ele>
        <time>2021-08-08T07:22:52Z</time>
      </trkpt>
      <trkpt lat="43.61759" lon="-1.44513">
        <ele>7.8</ele>
        <time>2021-08-08T07:22:53Z</time>
      </trkpt>
      <trkpt lat="43.61773" lon="-1.44511">
        <ele>7.6</ele>
        <time>2021-08-08T07:22:55Z</time>
      </trkpt>
      <trkpt lat="43.61788" lon="-1.44506">
        <ele>7.8</ele>
        <time>2021-08-08T07:22:57Z</time>
      </trkpt>
      <trkpt lat="43.61802" lon="-1.44497">
        <ele>7.8</ele>
        <time>2021-08-08T07:22:59Z</time>
      </trkpt>
      <trkpt lat="43.61822" lon="-1.44482">
        <ele>7.8</ele>
        <time>2021-08-08T07:23:02Z</time>
      </trkpt>
      <trkpt lat="43.61835" lon="-1.44472">
        <ele>7.8</ele>
        <time>2021-08-08T07:23:04Z</time>
      </trkpt>
      <trkpt lat="43.61841" lon="-1.44468">
        <ele>7.8</ele>
        <time>2021-08-08T07:23:05Z</time>
      </trkpt>
      <trkpt lat="43.61854" lon="-1.4446">
        <ele>7.8</ele>
        <time>2021-08-08T07:23:07Z</time>
      </trkpt>
      <trkpt lat="43.61861" lon="-1.44455">
        <ele>7.8</ele>
        <time>2021-08-08T07:23:08Z</time>
      </trkpt>
      <trkpt lat="43.61867" lon="-1.4445">
        <ele>7.8</ele>
        <time>2021-08-08T07:23:09Z</time>
      </trkpt>
      <trkpt lat="43.61875" lon="-1.44444">
        <ele>7.8</ele>
        <time>2021-08-08T07:23:10Z</time>
      </trkpt>
      <trkpt lat="43.61901" lon="-1.44424">
        <ele>7.8</ele>
        <time>2021-08-08T07:23:14Z</time>
      </trkpt>
      <trkpt lat="43.61907" lon="-1.4442">
        <ele>7.8</ele>
        <time>2021-08-08T07:23:15Z</time>
      </trkpt>
      <trkpt lat="43.61914" lon="-1.44416">
        <ele>7.8</ele>
        <time>2021-08-08T07:23:16Z</time>
      </trkpt>
      <trkpt lat="43.61931" lon="-1.44407">
        <ele>7.8</ele>
        <time>2021-08-08T07:23:18Z</time>
      </trkpt>
      <trkpt lat="43.61962" lon="-1.44391">
        <ele>7.2</ele>
        <time>2021-08-08T07:23:22Z</time>
      </trkpt>
      <trkpt lat="43.61971" lon="-1.44387">
        <ele>7.2</ele>
        <time>2021-08-08T07:23:23Z</time>
      </trkpt>
      <trkpt lat="43.61979" lon="-1.44383">
        <ele>7.2</ele>
        <time>2021-08-08T07:23:24Z</time>
      </trkpt>
      <trkpt lat="43.61993" lon="-1.44376">
        <ele>7</ele>
        <time>2021-08-08T07:23:26Z</time>
      </trkpt>
      <trkpt lat="43.62008" lon="-1.44367">
        <ele>7</ele>
        <time>2021-08-08T07:23:28Z</time>
      </trkpt>
      <trkpt lat="43.62014" lon="-1.44363">
        <ele>7</ele>
        <time>2021-08-08T07:23:29Z</time>
      </trkpt>
      <trkpt lat="43.62021" lon="-1.4436">
        <ele>7</ele>
        <time>2021-08-08T07:23:30Z</time>
      </trkpt>
      <trkpt lat="43.62035" lon="-1.44352">
        <ele>7</ele>
        <time>2021-08-08T07:23:32Z</time>
      </trkpt>
      <trkpt lat="43.62049" lon="-1.44345">
        <ele>7</ele>
        <time>2021-08-08T07:23:34Z</time>
      </trkpt>
      <trkpt lat="43.62064" lon="-1.44338">
        <ele>7.2</ele>
        <time>2021-08-08T07:23:36Z</time>
      </trkpt>
      <trkpt lat="43.6208" lon="-1.4433">
        <ele>7.2</ele>
        <time>2021-08-08T07:23:38Z</time>
      </trkpt>
      <trkpt lat="43.62098" lon="-1.44321">
        <ele>7.4</ele>
        <time>2021-08-08T07:23:40Z</time>
      </trkpt>
      <trkpt lat="43.62129" lon="-1.44306">
        <ele>7.2</ele>
        <time>2021-08-08T07:23:44Z</time>
      </trkpt>
      <trkpt lat="43.62135" lon="-1.44304">
        <ele>7.2</ele>
        <time>2021-08-08T07:23:45Z</time>
      </trkpt>
      <trkpt lat="43.62143" lon="-1.44301">
        <ele>7.2</ele>
        <time>2021-08-08T07:23:46Z</time>
      </trkpt>
      <trkpt lat="43.62151" lon="-1.44299">
        <ele>7.2</ele>
        <time>2021-08-08T07:23:47Z</time>
      </trkpt>
      <trkpt lat="43.62158" lon="-1.44296">
        <ele>7.2</ele>
        <time>2021-08-08T07:23:48Z</time>
      </trkpt>
      <trkpt lat="43.62164" lon="-1.44293">
        <ele>7.2</ele>
        <time>2021-08-08T07:23:49Z</time>
      </trkpt>
      <trkpt lat="43.62169" lon="-1.44291">
        <ele>7.2</ele>
        <time>2021-08-08T07:23:50Z</time>
      </trkpt>
      <trkpt lat="43.62173" lon="-1.44288">
        <ele>7.2</ele>
        <time>2021-08-08T07:23:51Z</time>
      </trkpt>
      <trkpt lat="43.62176" lon="-1.44285">
        <ele>7.2</ele>
        <time>2021-08-08T07:23:52Z</time>
      </trkpt>
      <trkpt lat="43.62178" lon="-1.4428">
        <ele>7.2</ele>
        <time>2021-08-08T07:23:53Z</time>
      </trkpt>
      <trkpt lat="43.62179" lon="-1.44275">
        <ele>7.2</ele>
        <time>2021-08-08T07:23:54Z</time>
      </trkpt>
      <trkpt lat="43.62178" lon="-1.44268">
        <ele>7.2</ele>
        <time>2021-08-08T07:23:55Z</time>
      </trkpt>
      <trkpt lat="43.62175" lon="-1.44254">
        <ele>7.4</ele>
        <time>2021-08-08T07:23:57Z</time>
      </trkpt>
      <trkpt lat="43.62173" lon="-1.44246">
        <ele>7.6</ele>
        <time>2021-08-08T07:23:58Z</time>
      </trkpt>
      <trkpt lat="43.62172" lon="-1.44238">
        <ele>7.6</ele>
        <time>2021-08-08T07:23:59Z</time>
      </trkpt>
      <trkpt lat="43.6217" lon="-1.44212">
        <ele>8</ele>
        <time>2021-08-08T07:24:02Z</time>
      </trkpt>
      <trkpt lat="43.62169" lon="-1.44184">
        <ele>8</ele>
        <time>2021-08-08T07:24:05Z</time>
      </trkpt>
      <trkpt lat="43.62171" lon="-1.44167">
        <ele>8</ele>
        <time>2021-08-08T07:24:07Z</time>
      </trkpt>
      <trkpt lat="43.62179" lon="-1.44095">
        <ele>8</ele>
        <time>2021-08-08T07:24:15Z</time>
      </trkpt>
      <trkpt lat="43.62178" lon="-1.44077">
        <ele>7.8</ele>
        <time>2021-08-08T07:24:17Z</time>
      </trkpt>
      <trkpt lat="43.62177" lon="-1.44069">
        <ele>7.8</ele>
        <time>2021-08-08T07:24:18Z</time>
      </trkpt>
      <trkpt lat="43.62174" lon="-1.44053">
        <ele>7.8</ele>
        <time>2021-08-08T07:24:20Z</time>
      </trkpt>
      <trkpt lat="43.62171" lon="-1.44038">
        <ele>7.8</ele>
        <time>2021-08-08T07:24:22Z</time>
      </trkpt>
      <trkpt lat="43.62168" lon="-1.44031">
        <ele>7.8</ele>
        <time>2021-08-08T07:24:23Z</time>
      </trkpt>
      <trkpt lat="43.62166" lon="-1.44024">
        <ele>8</ele>
        <time>2021-08-08T07:24:24Z</time>
      </trkpt>
      <trkpt lat="43.62162" lon="-1.44019">
        <ele>8</ele>
        <time>2021-08-08T07:24:25Z</time>
      </trkpt>
      <trkpt lat="43.62159" lon="-1.44014">
        <ele>8</ele>
        <time>2021-08-08T07:24:26Z</time>
      </trkpt>
      <trkpt lat="43.62156" lon="-1.44009">
        <ele>8</ele>
        <time>2021-08-08T07:24:27Z</time>
      </trkpt>
      <trkpt lat="43.62154" lon="-1.44006">
        <ele>8</ele>
        <time>2021-08-08T07:24:28Z</time>
      </trkpt>
      <trkpt lat="43.62152" lon="-1.44002">
        <ele>8</ele>
        <time>2021-08-08T07:24:29Z</time>
      </trkpt>
      <trkpt lat="43.62151" lon="-1.43999">
        <ele>8</ele>
        <time>2021-08-08T07:24:30Z</time>
      </trkpt>
      <trkpt lat="43.62151" lon="-1.43995">
        <ele>8</ele>
        <time>2021-08-08T07:24:31Z</time>
      </trkpt>
      <trkpt lat="43.62151" lon="-1.43992">
        <ele>8</ele>
        <time>2021-08-08T07:24:32Z</time>
      </trkpt>
      <trkpt lat="43.62152" lon="-1.43989">
        <ele>8</ele>
        <time>2021-08-08T07:24:33Z</time>
      </trkpt>
      <trkpt lat="43.62156" lon="-1.43986">
        <ele>8</ele>
        <time>2021-08-08T07:24:35Z</time>
      </trkpt>
      <trkpt lat="43.62161" lon="-1.43984">
        <ele>7.8</ele>
        <time>2021-08-08T07:24:37Z</time>
      </trkpt>
      <trkpt lat="43.62162" lon="-1.43983">
        <ele>7.8</ele>
        <time>2021-08-08T07:24:38Z</time>
      </trkpt>
      <trkpt lat="43.62166" lon="-1.4398">
        <ele>7.6</ele>
        <time>2021-08-08T07:24:40Z</time>
      </trkpt>
      <trkpt lat="43.62169" lon="-1.43979">
        <ele>7.6</ele>
        <time>2021-08-08T07:24:41Z</time>
      </trkpt>
      <trkpt lat="43.62171" lon="-1.43977">
        <ele>7.6</ele>
        <time>2021-08-08T07:24:42Z</time>
      </trkpt>
      <trkpt lat="43.62178" lon="-1.43972">
        <ele>7.6</ele>
        <time>2021-08-08T07:24:45Z</time>
      </trkpt>
      <trkpt lat="43.62181" lon="-1.4397">
        <ele>7.6</ele>
        <time>2021-08-08T07:24:46Z</time>
      </trkpt>
      <trkpt lat="43.62185" lon="-1.43969">
        <ele>7.6</ele>
        <time>2021-08-08T07:24:47Z</time>
      </trkpt>
      <trkpt lat="43.62209" lon="-1.43956">
        <ele>7.8</ele>
        <time>2021-08-08T07:24:52Z</time>
      </trkpt>
      <trkpt lat="43.62228" lon="-1.43942">
        <ele>7.8</ele>
        <time>2021-08-08T07:24:55Z</time>
      </trkpt>
      <trkpt lat="43.62234" lon="-1.43938">
        <ele>7.8</ele>
        <time>2021-08-08T07:24:56Z</time>
      </trkpt>
      <trkpt lat="43.62248" lon="-1.43927">
        <ele>7.8</ele>
        <time>2021-08-08T07:24:58Z</time>
      </trkpt>
      <trkpt lat="43.62262" lon="-1.43916">
        <ele>7.8</ele>
        <time>2021-08-08T07:25:00Z</time>
      </trkpt>
      <trkpt lat="43.623" lon="-1.43888">
        <ele>8</ele>
        <time>2021-08-08T07:25:05Z</time>
      </trkpt>
      <trkpt lat="43.62315" lon="-1.43877">
        <ele>8</ele>
        <time>2021-08-08T07:25:07Z</time>
      </trkpt>
      <trkpt lat="43.62359" lon="-1.43844">
        <ele>8.2</ele>
        <time>2021-08-08T07:25:13Z</time>
      </trkpt>
      <trkpt lat="43.62412" lon="-1.4381">
        <ele>8.4</ele>
        <time>2021-08-08T07:25:20Z</time>
      </trkpt>
      <trkpt lat="43.62419" lon="-1.43805">
        <ele>8.2</ele>
        <time>2021-08-08T07:25:21Z</time>
      </trkpt>
      <trkpt lat="43.62469" lon="-1.43769">
        <ele>8.4</ele>
        <time>2021-08-08T07:25:28Z</time>
      </trkpt>
      <trkpt lat="43.62476" lon="-1.43764">
        <ele>8.4</ele>
        <time>2021-08-08T07:25:29Z</time>
      </trkpt>
      <trkpt lat="43.62482" lon="-1.43759">
        <ele>8.4</ele>
        <time>2021-08-08T07:25:30Z</time>
      </trkpt>
      <trkpt lat="43.62489" lon="-1.43754">
        <ele>8.4</ele>
        <time>2021-08-08T07:25:31Z</time>
      </trkpt>
      <trkpt lat="43.62503" lon="-1.43744">
        <ele>8.4</ele>
        <time>2021-08-08T07:25:33Z</time>
      </trkpt>
      <trkpt lat="43.62509" lon="-1.43739">
        <ele>8.4</ele>
        <time>2021-08-08T07:25:34Z</time>
      </trkpt>
      <trkpt lat="43.62516" lon="-1.43735">
        <ele>8.4</ele>
        <time>2021-08-08T07:25:35Z</time>
      </trkpt>
      <trkpt lat="43.62523" lon="-1.4373">
        <ele>8.6</ele>
        <time>2021-08-08T07:25:36Z</time>
      </trkpt>
      <trkpt lat="43.6253" lon="-1.43725">
        <ele>8.6</ele>
        <time>2021-08-08T07:25:37Z</time>
      </trkpt>
      <trkpt lat="43.62537" lon="-1.4372">
        <ele>8.6</ele>
        <time>2021-08-08T07:25:38Z</time>
      </trkpt>
      <trkpt lat="43.62544" lon="-1.43715">
        <ele>8.6</ele>
        <time>2021-08-08T07:25:39Z</time>
      </trkpt>
      <trkpt lat="43.62593" lon="-1.4368">
        <ele>8.8</ele>
        <time>2021-08-08T07:25:46Z</time>
      </trkpt>
      <trkpt lat="43.626" lon="-1.43675">
        <ele>9</ele>
        <time>2021-08-08T07:25:47Z</time>
      </trkpt>
      <trkpt lat="43.62635" lon="-1.43651">
        <ele>9</ele>
        <time>2021-08-08T07:25:52Z</time>
      </trkpt>
      <trkpt lat="43.62662" lon="-1.4363">
        <ele>9.2</ele>
        <time>2021-08-08T07:25:56Z</time>
      </trkpt>
      <trkpt lat="43.62669" lon="-1.43625">
        <ele>9.4</ele>
        <time>2021-08-08T07:25:57Z</time>
      </trkpt>
      <trkpt lat="43.62676" lon="-1.4362">
        <ele>9.4</ele>
        <time>2021-08-08T07:25:58Z</time>
      </trkpt>
      <trkpt lat="43.62709" lon="-1.43597">
        <ele>9.6</ele>
        <time>2021-08-08T07:26:03Z</time>
      </trkpt>
      <trkpt lat="43.62715" lon="-1.43592">
        <ele>9.6</ele>
        <time>2021-08-08T07:26:04Z</time>
      </trkpt>
      <trkpt lat="43.62722" lon="-1.43588">
        <ele>9.6</ele>
        <time>2021-08-08T07:26:05Z</time>
      </trkpt>
      <trkpt lat="43.62728" lon="-1.43583">
        <ele>9.6</ele>
        <time>2021-08-08T07:26:06Z</time>
      </trkpt>
      <trkpt lat="43.62734" lon="-1.43579">
        <ele>9.6</ele>
        <time>2021-08-08T07:26:07Z</time>
      </trkpt>
      <trkpt lat="43.62741" lon="-1.43575">
        <ele>9.8</ele>
        <time>2021-08-08T07:26:08Z</time>
      </trkpt>
      <trkpt lat="43.62747" lon="-1.4357">
        <ele>9.8</ele>
        <time>2021-08-08T07:26:09Z</time>
      </trkpt>
      <trkpt lat="43.62753" lon="-1.43565">
        <ele>9.8</ele>
        <time>2021-08-08T07:26:10Z</time>
      </trkpt>
      <trkpt lat="43.62767" lon="-1.43555">
        <ele>10</ele>
        <time>2021-08-08T07:26:12Z</time>
      </trkpt>
      <trkpt lat="43.62808" lon="-1.43528">
        <ele>10.2</ele>
        <time>2021-08-08T07:26:18Z</time>
      </trkpt>
      <trkpt lat="43.6283" lon="-1.43512">
        <ele>10.2</ele>
        <time>2021-08-08T07:26:21Z</time>
      </trkpt>
      <trkpt lat="43.62843" lon="-1.43502">
        <ele>10.2</ele>
        <time>2021-08-08T07:26:23Z</time>
      </trkpt>
      <trkpt lat="43.62875" lon="-1.43479">
        <ele>10.2</ele>
        <time>2021-08-08T07:26:28Z</time>
      </trkpt>
      <trkpt lat="43.6288" lon="-1.43476">
        <ele>10.2</ele>
        <time>2021-08-08T07:26:29Z</time>
      </trkpt>
      <trkpt lat="43.62886" lon="-1.43476">
        <ele>10.4</ele>
        <time>2021-08-08T07:26:30Z</time>
      </trkpt>
      <trkpt lat="43.62891" lon="-1.43477">
        <ele>10.4</ele>
        <time>2021-08-08T07:26:31Z</time>
      </trkpt>
      <trkpt lat="43.62896" lon="-1.43482">
        <ele>10.2</ele>
        <time>2021-08-08T07:26:32Z</time>
      </trkpt>
      <trkpt lat="43.629" lon="-1.43488">
        <ele>10</ele>
        <time>2021-08-08T07:26:33Z</time>
      </trkpt>
      <trkpt lat="43.62902" lon="-1.43496">
        <ele>10</ele>
        <time>2021-08-08T07:26:34Z</time>
      </trkpt>
      <trkpt lat="43.62903" lon="-1.43504">
        <ele>10</ele>
        <time>2021-08-08T07:26:35Z</time>
      </trkpt>
      <trkpt lat="43.62905" lon="-1.43521">
        <ele>10.2</ele>
        <time>2021-08-08T07:26:37Z</time>
      </trkpt>
      <trkpt lat="43.62911" lon="-1.43531">
        <ele>10</ele>
        <time>2021-08-08T07:26:39Z</time>
      </trkpt>
      <trkpt lat="43.62915" lon="-1.43535">
        <ele>10</ele>
        <time>2021-08-08T07:26:40Z</time>
      </trkpt>
      <trkpt lat="43.6292" lon="-1.43539">
        <ele>10</ele>
        <time>2021-08-08T07:26:41Z</time>
      </trkpt>
      <trkpt lat="43.62925" lon="-1.43542">
        <ele>10</ele>
        <time>2021-08-08T07:26:42Z</time>
      </trkpt>
      <trkpt lat="43.6293" lon="-1.43546">
        <ele>10</ele>
        <time>2021-08-08T07:26:43Z</time>
      </trkpt>
      <trkpt lat="43.62936" lon="-1.4355">
        <ele>10</ele>
        <time>2021-08-08T07:26:44Z</time>
      </trkpt>
      <trkpt lat="43.62963" lon="-1.43569">
        <ele>10</ele>
        <time>2021-08-08T07:26:48Z</time>
      </trkpt>
      <trkpt lat="43.62998" lon="-1.43589">
        <ele>9.4</ele>
        <time>2021-08-08T07:26:53Z</time>
      </trkpt>
      <trkpt lat="43.63051" lon="-1.43617">
        <ele>8.8</ele>
        <time>2021-08-08T07:27:00Z</time>
      </trkpt>
      <trkpt lat="43.63058" lon="-1.4362">
        <ele>8.6</ele>
        <time>2021-08-08T07:27:01Z</time>
      </trkpt>
      <trkpt lat="43.63072" lon="-1.4363">
        <ele>8.4</ele>
        <time>2021-08-08T07:27:03Z</time>
      </trkpt>
      <trkpt lat="43.63079" lon="-1.43635">
        <ele>8.4</ele>
        <time>2021-08-08T07:27:04Z</time>
      </trkpt>
      <trkpt lat="43.63086" lon="-1.4364">
        <ele>8.4</ele>
        <time>2021-08-08T07:27:05Z</time>
      </trkpt>
      <trkpt lat="43.63093" lon="-1.43645">
        <ele>8.4</ele>
        <time>2021-08-08T07:27:06Z</time>
      </trkpt>
      <trkpt lat="43.63105" lon="-1.43652">
        <ele>8.2</ele>
        <time>2021-08-08T07:27:08Z</time>
      </trkpt>
      <trkpt lat="43.6314" lon="-1.43678">
        <ele>8.2</ele>
        <time>2021-08-08T07:27:13Z</time>
      </trkpt>
      <trkpt lat="43.63147" lon="-1.43684">
        <ele>8.2</ele>
        <time>2021-08-08T07:27:14Z</time>
      </trkpt>
      <trkpt lat="43.63177" lon="-1.43711">
        <ele>8.2</ele>
        <time>2021-08-08T07:27:19Z</time>
      </trkpt>
      <trkpt lat="43.63189" lon="-1.43723">
        <ele>8.2</ele>
        <time>2021-08-08T07:27:21Z</time>
      </trkpt>
      <trkpt lat="43.63195" lon="-1.43729">
        <ele>8.2</ele>
        <time>2021-08-08T07:27:22Z</time>
      </trkpt>
      <trkpt lat="43.632" lon="-1.43735">
        <ele>8.2</ele>
        <time>2021-08-08T07:27:23Z</time>
      </trkpt>
      <trkpt lat="43.63205" lon="-1.4374">
        <ele>8.2</ele>
        <time>2021-08-08T07:27:24Z</time>
      </trkpt>
      <trkpt lat="43.6321" lon="-1.43746">
        <ele>8.2</ele>
        <time>2021-08-08T07:27:25Z</time>
      </trkpt>
      <trkpt lat="43.63214" lon="-1.43752">
        <ele>8.2</ele>
        <time>2021-08-08T07:27:26Z</time>
      </trkpt>
      <trkpt lat="43.63218" lon="-1.43757">
        <ele>8.2</ele>
        <time>2021-08-08T07:27:27Z</time>
      </trkpt>
      <trkpt lat="43.63221" lon="-1.43761">
        <ele>8.2</ele>
        <time>2021-08-08T07:27:28Z</time>
      </trkpt>
      <trkpt lat="43.63224" lon="-1.43765">
        <ele>8.2</ele>
        <time>2021-08-08T07:27:29Z</time>
      </trkpt>
      <trkpt lat="43.63227" lon="-1.43769">
        <ele>8</ele>
        <time>2021-08-08T07:27:30Z</time>
      </trkpt>
      <trkpt lat="43.63231" lon="-1.43771">
        <ele>8</ele>
        <time>2021-08-08T07:27:31Z</time>
      </trkpt>
      <trkpt lat="43.63234" lon="-1.43775">
        <ele>7.8</ele>
        <time>2021-08-08T07:27:32Z</time>
      </trkpt>
      <trkpt lat="43.63238" lon="-1.43779">
        <ele>7.8</ele>
        <time>2021-08-08T07:27:33Z</time>
      </trkpt>
      <trkpt lat="43.6324" lon="-1.43783">
        <ele>7.8</ele>
        <time>2021-08-08T07:27:34Z</time>
      </trkpt>
      <trkpt lat="43.63243" lon="-1.43789">
        <ele>7.6</ele>
        <time>2021-08-08T07:27:35Z</time>
      </trkpt>
      <trkpt lat="43.63246" lon="-1.43794">
        <ele>7.6</ele>
        <time>2021-08-08T07:27:36Z</time>
      </trkpt>
      <trkpt lat="43.63255" lon="-1.43806">
        <ele>7.4</ele>
        <time>2021-08-08T07:27:39Z</time>
      </trkpt>
      <trkpt lat="43.63258" lon="-1.4381">
        <ele>7.4</ele>
        <time>2021-08-08T07:27:40Z</time>
      </trkpt>
      <trkpt lat="43.63261" lon="-1.43814">
        <ele>7.4</ele>
        <time>2021-08-08T07:27:41Z</time>
      </trkpt>
      <trkpt lat="43.63265" lon="-1.43818">
        <ele>7.4</ele>
        <time>2021-08-08T07:27:42Z</time>
      </trkpt>
      <trkpt lat="43.63269" lon="-1.43822">
        <ele>7.4</ele>
        <time>2021-08-08T07:27:43Z</time>
      </trkpt>
      <trkpt lat="43.63272" lon="-1.43826">
        <ele>7.4</ele>
        <time>2021-08-08T07:27:44Z</time>
      </trkpt>
      <trkpt lat="43.63274" lon="-1.43829">
        <ele>7.6</ele>
        <time>2021-08-08T07:27:45Z</time>
      </trkpt>
      <trkpt lat="43.63277" lon="-1.4383">
        <ele>7.6</ele>
        <time>2021-08-08T07:27:46Z</time>
      </trkpt>
      <trkpt lat="43.6328" lon="-1.43831">
        <ele>7.6</ele>
        <time>2021-08-08T07:27:47Z</time>
      </trkpt>
      <trkpt lat="43.63282" lon="-1.43834">
        <ele>7.8</ele>
        <time>2021-08-08T07:27:48Z</time>
      </trkpt>
      <trkpt lat="43.63285" lon="-1.43837">
        <ele>7.8</ele>
        <time>2021-08-08T07:27:49Z</time>
      </trkpt>
      <trkpt lat="43.63299" lon="-1.43853">
        <ele>7.6</ele>
        <time>2021-08-08T07:27:53Z</time>
      </trkpt>
      <trkpt lat="43.63303" lon="-1.43862">
        <ele>7.6</ele>
        <time>2021-08-08T07:27:55Z</time>
      </trkpt>
      <trkpt lat="43.63305" lon="-1.43866">
        <ele>7.6</ele>
        <time>2021-08-08T07:27:56Z</time>
      </trkpt>
      <trkpt lat="43.63307" lon="-1.43869">
        <ele>7.6</ele>
        <time>2021-08-08T07:27:57Z</time>
      </trkpt>
      <trkpt lat="43.6331" lon="-1.43872">
        <ele>7.4</ele>
        <time>2021-08-08T07:27:58Z</time>
      </trkpt>
      <trkpt lat="43.63314" lon="-1.43875">
        <ele>7.4</ele>
        <time>2021-08-08T07:27:59Z</time>
      </trkpt>
      <trkpt lat="43.63319" lon="-1.43878">
        <ele>7.4</ele>
        <time>2021-08-08T07:28:00Z</time>
      </trkpt>
      <trkpt lat="43.63326" lon="-1.4388">
        <ele>7.2</ele>
        <time>2021-08-08T07:28:01Z</time>
      </trkpt>
      <trkpt lat="43.63333" lon="-1.43882">
        <ele>7.2</ele>
        <time>2021-08-08T07:28:02Z</time>
      </trkpt>
      <trkpt lat="43.63345" lon="-1.43888">
        <ele>7.2</ele>
        <time>2021-08-08T07:28:04Z</time>
      </trkpt>
      <trkpt lat="43.63385" lon="-1.43902">
        <ele>7</ele>
        <time>2021-08-08T07:28:10Z</time>
      </trkpt>
      <trkpt lat="43.63389" lon="-1.43904">
        <ele>7</ele>
        <time>2021-08-08T07:28:11Z</time>
      </trkpt>
      <trkpt lat="43.63425" lon="-1.43908">
        <ele>7</ele>
        <time>2021-08-08T07:28:12Z</time>
      </trkpt>
      <trkpt lat="43.63443" lon="-1.43911">
        <ele>7</ele>
        <time>2021-08-08T07:28:14Z</time>
      </trkpt>
      <trkpt lat="43.63422" lon="-1.43907">
        <ele>7</ele>
        <time>2021-08-08T07:28:15Z</time>
      </trkpt>
      <trkpt lat="43.63417" lon="-1.43902">
        <ele>7</ele>
        <time>2021-08-08T07:28:17Z</time>
      </trkpt>
      <trkpt lat="43.63423" lon="-1.43901">
        <ele>7.2</ele>
        <time>2021-08-08T07:28:18Z</time>
      </trkpt>
      <trkpt lat="43.63466" lon="-1.43898">
        <ele>7</ele>
        <time>2021-08-08T07:28:25Z</time>
      </trkpt>
      <trkpt lat="43.63523" lon="-1.43888">
        <ele>7</ele>
        <time>2021-08-08T07:28:33Z</time>
      </trkpt>
      <trkpt lat="43.63537" lon="-1.43885">
        <ele>7</ele>
        <time>2021-08-08T07:28:35Z</time>
      </trkpt>
      <trkpt lat="43.63586" lon="-1.43875">
        <ele>7.2</ele>
        <time>2021-08-08T07:28:42Z</time>
      </trkpt>
      <trkpt lat="43.63592" lon="-1.43873">
        <ele>7.2</ele>
        <time>2021-08-08T07:28:43Z</time>
      </trkpt>
      <trkpt lat="43.63632" lon="-1.43859">
        <ele>7.2</ele>
        <time>2021-08-08T07:28:49Z</time>
      </trkpt>
      <trkpt lat="43.63668" lon="-1.43833">
        <ele>6.8</ele>
        <time>2021-08-08T07:28:55Z</time>
      </trkpt>
      <trkpt lat="43.63678" lon="-1.43826">
        <ele>6.8</ele>
        <time>2021-08-08T07:28:57Z</time>
      </trkpt>
      <trkpt lat="43.63683" lon="-1.43823">
        <ele>6.8</ele>
        <time>2021-08-08T07:28:58Z</time>
      </trkpt>
      <trkpt lat="43.63687" lon="-1.43822">
        <ele>6.8</ele>
        <time>2021-08-08T07:28:59Z</time>
      </trkpt>
      <trkpt lat="43.63692" lon="-1.43822">
        <ele>6.8</ele>
        <time>2021-08-08T07:29:00Z</time>
      </trkpt>
      <trkpt lat="43.63696" lon="-1.43823">
        <ele>6.8</ele>
        <time>2021-08-08T07:29:01Z</time>
      </trkpt>
      <trkpt lat="43.637" lon="-1.43824">
        <ele>6.8</ele>
        <time>2021-08-08T07:29:02Z</time>
      </trkpt>
      <trkpt lat="43.63703" lon="-1.43828">
        <ele>6.8</ele>
        <time>2021-08-08T07:29:03Z</time>
      </trkpt>
      <trkpt lat="43.63707" lon="-1.4383">
        <ele>6.8</ele>
        <time>2021-08-08T07:29:04Z</time>
      </trkpt>
      <trkpt lat="43.6371" lon="-1.43831">
        <ele>6.8</ele>
        <time>2021-08-08T07:29:05Z</time>
      </trkpt>
      <trkpt lat="43.63712" lon="-1.43832">
        <ele>6.8</ele>
        <time>2021-08-08T07:29:06Z</time>
      </trkpt>
      <trkpt lat="43.63712" lon="-1.43832">
        <ele>6.8</ele>
        <time>2021-08-08T07:29:07Z</time>
      </trkpt>
      <trkpt lat="43.63712" lon="-1.43832">
        <ele>6.8</ele>
        <time>2021-08-08T07:29:08Z</time>
      </trkpt>
      <trkpt lat="43.63711" lon="-1.43832">
        <ele>6.8</ele>
        <time>2021-08-08T07:29:13Z</time>
      </trkpt>
      <trkpt lat="43.63711" lon="-1.43832">
        <ele>6.8</ele>
        <time>2021-08-08T07:29:15Z</time>
      </trkpt>
      <trkpt lat="43.63711" lon="-1.43832">
        <ele>7</ele>
        <time>2021-08-08T07:29:30Z</time>
      </trkpt>
      <trkpt lat="43.63711" lon="-1.43832">
        <ele>6.6</ele>
        <time>2021-08-08T07:31:03Z</time>
      </trkpt>
      <trkpt lat="43.6371" lon="-1.43833">
        <ele>6.4</ele>
        <time>2021-08-08T07:32:42Z</time>
      </trkpt>
      <trkpt lat="43.63716" lon="-1.43833">
        <ele>6.4</ele>
        <time>2021-08-08T07:32:45Z</time>
      </trkpt>
      <trkpt lat="43.63721" lon="-1.43829">
        <ele>6.6</ele>
        <time>2021-08-08T07:32:48Z</time>
      </trkpt>
      <trkpt lat="43.63723" lon="-1.43826">
        <ele>6.6</ele>
        <time>2021-08-08T07:32:49Z</time>
      </trkpt>
      <trkpt lat="43.63725" lon="-1.43823">
        <ele>6.6</ele>
        <time>2021-08-08T07:32:50Z</time>
      </trkpt>
      <trkpt lat="43.63726" lon="-1.4382">
        <ele>6.6</ele>
        <time>2021-08-08T07:32:51Z</time>
      </trkpt>
      <trkpt lat="43.63727" lon="-1.43817">
        <ele>6.6</ele>
        <time>2021-08-08T07:32:52Z</time>
      </trkpt>
      <trkpt lat="43.6373" lon="-1.43811">
        <ele>6.6</ele>
        <time>2021-08-08T07:32:54Z</time>
      </trkpt>
      <trkpt lat="43.63732" lon="-1.43808">
        <ele>6.6</ele>
        <time>2021-08-08T07:32:55Z</time>
      </trkpt>
      <trkpt lat="43.63733" lon="-1.43805">
        <ele>6.6</ele>
        <time>2021-08-08T07:32:56Z</time>
      </trkpt>
      <trkpt lat="43.63735" lon="-1.43799">
        <ele>6.6</ele>
        <time>2021-08-08T07:32:58Z</time>
      </trkpt>
      <trkpt lat="43.63739" lon="-1.43792">
        <ele>6.6</ele>
        <time>2021-08-08T07:33:01Z</time>
      </trkpt>
      <trkpt lat="43.6374" lon="-1.43789">
        <ele>6.6</ele>
        <time>2021-08-08T07:33:02Z</time>
      </trkpt>
      <trkpt lat="43.63741" lon="-1.43786">
        <ele>6.6</ele>
        <time>2021-08-08T07:33:03Z</time>
      </trkpt>
      <trkpt lat="43.63743" lon="-1.43783">
        <ele>6.6</ele>
        <time>2021-08-08T07:33:04Z</time>
      </trkpt>
      <trkpt lat="43.63747" lon="-1.43777">
        <ele>6.6</ele>
        <time>2021-08-08T07:33:06Z</time>
      </trkpt>
      <trkpt lat="43.63761" lon="-1.43759">
        <ele>6.8</ele>
        <time>2021-08-08T07:33:11Z</time>
      </trkpt>
      <trkpt lat="43.63783" lon="-1.43732">
        <ele>6.8</ele>
        <time>2021-08-08T07:33:17Z</time>
      </trkpt>
      <trkpt lat="43.63798" lon="-1.43714">
        <ele>6.6</ele>
        <time>2021-08-08T07:33:21Z</time>
      </trkpt>
      <trkpt lat="43.63802" lon="-1.4371">
        <ele>6.4</ele>
        <time>2021-08-08T07:33:22Z</time>
      </trkpt>
      <trkpt lat="43.63806" lon="-1.43706">
        <ele>6.4</ele>
        <time>2021-08-08T07:33:23Z</time>
      </trkpt>
      <trkpt lat="43.6381" lon="-1.43701">
        <ele>6.4</ele>
        <time>2021-08-08T07:33:24Z</time>
      </trkpt>
      <trkpt lat="43.63818" lon="-1.43693">
        <ele>6.4</ele>
        <time>2021-08-08T07:33:26Z</time>
      </trkpt>
      <trkpt lat="43.63826" lon="-1.43685">
        <ele>6.4</ele>
        <time>2021-08-08T07:33:28Z</time>
      </trkpt>
      <trkpt lat="43.63829" lon="-1.4368">
        <ele>6.6</ele>
        <time>2021-08-08T07:33:29Z</time>
      </trkpt>
      <trkpt lat="43.63833" lon="-1.43676">
        <ele>6.6</ele>
        <time>2021-08-08T07:33:30Z</time>
      </trkpt>
      <trkpt lat="43.63837" lon="-1.43673">
        <ele>6.6</ele>
        <time>2021-08-08T07:33:31Z</time>
      </trkpt>
      <trkpt lat="43.6384" lon="-1.4367">
        <ele>6.6</ele>
        <time>2021-08-08T07:33:32Z</time>
      </trkpt>
      <trkpt lat="43.63844" lon="-1.43669">
        <ele>6.6</ele>
        <time>2021-08-08T07:33:33Z</time>
      </trkpt>
      <trkpt lat="43.63846" lon="-1.43667">
        <ele>6.6</ele>
        <time>2021-08-08T07:33:34Z</time>
      </trkpt>
      <trkpt lat="43.63847" lon="-1.43665">
        <ele>6.8</ele>
        <time>2021-08-08T07:33:35Z</time>
      </trkpt>
      <trkpt lat="43.63847" lon="-1.43661">
        <ele>6.8</ele>
        <time>2021-08-08T07:33:36Z</time>
      </trkpt>
      <trkpt lat="43.63846" lon="-1.43658">
        <ele>6.8</ele>
        <time>2021-08-08T07:33:37Z</time>
      </trkpt>
      <trkpt lat="43.63845" lon="-1.43655">
        <ele>6.8</ele>
        <time>2021-08-08T07:33:38Z</time>
      </trkpt>
      <trkpt lat="43.63843" lon="-1.43649">
        <ele>6.8</ele>
        <time>2021-08-08T07:33:40Z</time>
      </trkpt>
      <trkpt lat="43.63843" lon="-1.43646">
        <ele>6.8</ele>
        <time>2021-08-08T07:33:41Z</time>
      </trkpt>
      <trkpt lat="43.63843" lon="-1.43643">
        <ele>6.8</ele>
        <time>2021-08-08T07:33:42Z</time>
      </trkpt>
      <trkpt lat="43.63845" lon="-1.4364">
        <ele>6.8</ele>
        <time>2021-08-08T07:33:43Z</time>
      </trkpt>
      <trkpt lat="43.63847" lon="-1.43637">
        <ele>6.8</ele>
        <time>2021-08-08T07:33:44Z</time>
      </trkpt>
      <trkpt lat="43.63848" lon="-1.43635">
        <ele>6.8</ele>
        <time>2021-08-08T07:33:45Z</time>
      </trkpt>
      <trkpt lat="43.63849" lon="-1.43632">
        <ele>7</ele>
        <time>2021-08-08T07:33:46Z</time>
      </trkpt>
      <trkpt lat="43.6385" lon="-1.43628">
        <ele>7</ele>
        <time>2021-08-08T07:33:47Z</time>
      </trkpt>
      <trkpt lat="43.63851" lon="-1.43625">
        <ele>7</ele>
        <time>2021-08-08T07:33:48Z</time>
      </trkpt>
      <trkpt lat="43.63852" lon="-1.43622">
        <ele>7</ele>
        <time>2021-08-08T07:33:49Z</time>
      </trkpt>
      <trkpt lat="43.63862" lon="-1.43601">
        <ele>7.2</ele>
        <time>2021-08-08T07:33:54Z</time>
      </trkpt>
      <trkpt lat="43.63876" lon="-1.43568">
        <ele>7.2</ele>
        <time>2021-08-08T07:34:00Z</time>
      </trkpt>
      <trkpt lat="43.63879" lon="-1.43562">
        <ele>7.2</ele>
        <time>2021-08-08T07:34:01Z</time>
      </trkpt>
      <trkpt lat="43.639" lon="-1.43519">
        <ele>7</ele>
        <time>2021-08-08T07:34:08Z</time>
      </trkpt>
      <trkpt lat="43.63908" lon="-1.43502">
        <ele>6.6</ele>
        <time>2021-08-08T07:34:11Z</time>
      </trkpt>
      <trkpt lat="43.6391" lon="-1.43489">
        <ele>6.6</ele>
        <time>2021-08-08T07:34:13Z</time>
      </trkpt>
      <trkpt lat="43.6391" lon="-1.43482">
        <ele>6.6</ele>
        <time>2021-08-08T07:34:14Z</time>
      </trkpt>
      <trkpt lat="43.63911" lon="-1.43476">
        <ele>6.4</ele>
        <time>2021-08-08T07:34:15Z</time>
      </trkpt>
      <trkpt lat="43.63911" lon="-1.4347">
        <ele>6.4</ele>
        <time>2021-08-08T07:34:16Z</time>
      </trkpt>
      <trkpt lat="43.6391" lon="-1.43463">
        <ele>6.4</ele>
        <time>2021-08-08T07:34:17Z</time>
      </trkpt>
      <trkpt lat="43.6391" lon="-1.43456">
        <ele>6.4</ele>
        <time>2021-08-08T07:34:18Z</time>
      </trkpt>
      <trkpt lat="43.6391" lon="-1.43449">
        <ele>6.4</ele>
        <time>2021-08-08T07:34:19Z</time>
      </trkpt>
      <trkpt lat="43.6391" lon="-1.43442">
        <ele>6.4</ele>
        <time>2021-08-08T07:34:20Z</time>
      </trkpt>
      <trkpt lat="43.63911" lon="-1.43436">
        <ele>6.2</ele>
        <time>2021-08-08T07:34:21Z</time>
      </trkpt>
      <trkpt lat="43.63916" lon="-1.43417">
        <ele>6.2</ele>
        <time>2021-08-08T07:34:24Z</time>
      </trkpt>
      <trkpt lat="43.63918" lon="-1.4341">
        <ele>6.2</ele>
        <time>2021-08-08T07:34:25Z</time>
      </trkpt>
      <trkpt lat="43.63923" lon="-1.43398">
        <ele>6.4</ele>
        <time>2021-08-08T07:34:27Z</time>
      </trkpt>
      <trkpt lat="43.63928" lon="-1.43387">
        <ele>6.4</ele>
        <time>2021-08-08T07:34:29Z</time>
      </trkpt>
      <trkpt lat="43.6393" lon="-1.43382">
        <ele>6.4</ele>
        <time>2021-08-08T07:34:30Z</time>
      </trkpt>
      <trkpt lat="43.63933" lon="-1.43377">
        <ele>6.4</ele>
        <time>2021-08-08T07:34:31Z</time>
      </trkpt>
      <trkpt lat="43.63937" lon="-1.43366">
        <ele>6.4</ele>
        <time>2021-08-08T07:34:33Z</time>
      </trkpt>
      <trkpt lat="43.63939" lon="-1.4336">
        <ele>6.4</ele>
        <time>2021-08-08T07:34:34Z</time>
      </trkpt>
      <trkpt lat="43.63941" lon="-1.43354">
        <ele>6.4</ele>
        <time>2021-08-08T07:34:35Z</time>
      </trkpt>
      <trkpt lat="43.63943" lon="-1.43348">
        <ele>6.4</ele>
        <time>2021-08-08T07:34:36Z</time>
      </trkpt>
      <trkpt lat="43.6395" lon="-1.4333">
        <ele>6.4</ele>
        <time>2021-08-08T07:34:39Z</time>
      </trkpt>
      <trkpt lat="43.63953" lon="-1.43319">
        <ele>6.4</ele>
        <time>2021-08-08T07:34:41Z</time>
      </trkpt>
      <trkpt lat="43.63959" lon="-1.43294">
        <ele>6.4</ele>
        <time>2021-08-08T07:34:45Z</time>
      </trkpt>
      <trkpt lat="43.63961" lon="-1.43289">
        <ele>6.4</ele>
        <time>2021-08-08T07:34:46Z</time>
      </trkpt>
      <trkpt lat="43.63964" lon="-1.43285">
        <ele>6.4</ele>
        <time>2021-08-08T07:34:47Z</time>
      </trkpt>
      <trkpt lat="43.63966" lon="-1.43281">
        <ele>6.4</ele>
        <time>2021-08-08T07:34:48Z</time>
      </trkpt>
      <trkpt lat="43.63972" lon="-1.43266">
        <ele>6.2</ele>
        <time>2021-08-08T07:34:51Z</time>
      </trkpt>
      <trkpt lat="43.63973" lon="-1.43261">
        <ele>6.2</ele>
        <time>2021-08-08T07:34:52Z</time>
      </trkpt>
      <trkpt lat="43.63976" lon="-1.43253">
        <ele>6.2</ele>
        <time>2021-08-08T07:34:54Z</time>
      </trkpt>
      <trkpt lat="43.63978" lon="-1.43251">
        <ele>6.2</ele>
        <time>2021-08-08T07:34:55Z</time>
      </trkpt>
      <trkpt lat="43.63979" lon="-1.4325">
        <ele>6.2</ele>
        <time>2021-08-08T07:34:56Z</time>
      </trkpt>
      <trkpt lat="43.6398" lon="-1.43249">
        <ele>6.2</ele>
        <time>2021-08-08T07:34:57Z</time>
      </trkpt>
      <trkpt lat="43.63982" lon="-1.43249">
        <ele>6.2</ele>
        <time>2021-08-08T07:34:58Z</time>
      </trkpt>
      <trkpt lat="43.63983" lon="-1.4325">
        <ele>6.2</ele>
        <time>2021-08-08T07:34:59Z</time>
      </trkpt>
      <trkpt lat="43.63985" lon="-1.43251">
        <ele>6.2</ele>
        <time>2021-08-08T07:35:00Z</time>
      </trkpt>
      <trkpt lat="43.63992" lon="-1.43257">
        <ele>6.4</ele>
        <time>2021-08-08T07:35:03Z</time>
      </trkpt>
      <trkpt lat="43.63996" lon="-1.4326">
        <ele>6.4</ele>
        <time>2021-08-08T07:35:04Z</time>
      </trkpt>
      <trkpt lat="43.64017" lon="-1.43278">
        <ele>6.4</ele>
        <time>2021-08-08T07:35:10Z</time>
      </trkpt>
      <trkpt lat="43.64026" lon="-1.43285">
        <ele>6.2</ele>
        <time>2021-08-08T07:35:12Z</time>
      </trkpt>
      <trkpt lat="43.64043" lon="-1.433">
        <ele>6.2</ele>
        <time>2021-08-08T07:35:16Z</time>
      </trkpt>
      <trkpt lat="43.64078" lon="-1.43329">
        <ele>6.2</ele>
        <time>2021-08-08T07:35:24Z</time>
      </trkpt>
      <trkpt lat="43.64119" lon="-1.43356">
        <ele>6.2</ele>
        <time>2021-08-08T07:35:32Z</time>
      </trkpt>
      <trkpt lat="43.64125" lon="-1.43359">
        <ele>6.2</ele>
        <time>2021-08-08T07:35:33Z</time>
      </trkpt>
      <trkpt lat="43.64146" lon="-1.43365">
        <ele>6.2</ele>
        <time>2021-08-08T07:35:37Z</time>
      </trkpt>
      <trkpt lat="43.64164" lon="-1.43369">
        <ele>6.2</ele>
        <time>2021-08-08T07:35:40Z</time>
      </trkpt>
      <trkpt lat="43.64187" lon="-1.43373">
        <ele>6</ele>
        <time>2021-08-08T07:35:44Z</time>
      </trkpt>
      <trkpt lat="43.64193" lon="-1.43373">
        <ele>6.2</ele>
        <time>2021-08-08T07:35:45Z</time>
      </trkpt>
      <trkpt lat="43.64198" lon="-1.43374">
        <ele>6.2</ele>
        <time>2021-08-08T07:35:46Z</time>
      </trkpt>
      <trkpt lat="43.64222" lon="-1.43377">
        <ele>6.2</ele>
        <time>2021-08-08T07:35:50Z</time>
      </trkpt>
      <trkpt lat="43.64229" lon="-1.43377">
        <ele>6.2</ele>
        <time>2021-08-08T07:35:51Z</time>
      </trkpt>
      <trkpt lat="43.64251" lon="-1.43375">
        <ele>6.2</ele>
        <time>2021-08-08T07:35:55Z</time>
      </trkpt>
      <trkpt lat="43.64256" lon="-1.43374">
        <ele>6.2</ele>
        <time>2021-08-08T07:35:56Z</time>
      </trkpt>
      <trkpt lat="43.64262" lon="-1.43373">
        <ele>6.2</ele>
        <time>2021-08-08T07:35:57Z</time>
      </trkpt>
      <trkpt lat="43.64268" lon="-1.43372">
        <ele>6.2</ele>
        <time>2021-08-08T07:35:58Z</time>
      </trkpt>
      <trkpt lat="43.64275" lon="-1.4337">
        <ele>6.2</ele>
        <time>2021-08-08T07:35:59Z</time>
      </trkpt>
      <trkpt lat="43.64292" lon="-1.43367">
        <ele>6.2</ele>
        <time>2021-08-08T07:36:02Z</time>
      </trkpt>
      <trkpt lat="43.64297" lon="-1.43365">
        <ele>6.2</ele>
        <time>2021-08-08T07:36:03Z</time>
      </trkpt>
      <trkpt lat="43.64303" lon="-1.43363">
        <ele>6.2</ele>
        <time>2021-08-08T07:36:04Z</time>
      </trkpt>
      <trkpt lat="43.6432" lon="-1.43358">
        <ele>6.4</ele>
        <time>2021-08-08T07:36:07Z</time>
      </trkpt>
      <trkpt lat="43.64356" lon="-1.4335">
        <ele>6.6</ele>
        <time>2021-08-08T07:36:13Z</time>
      </trkpt>
      <trkpt lat="43.64367" lon="-1.43346">
        <ele>6.6</ele>
        <time>2021-08-08T07:36:15Z</time>
      </trkpt>
      <trkpt lat="43.64385" lon="-1.43341">
        <ele>6.4</ele>
        <time>2021-08-08T07:36:18Z</time>
      </trkpt>
      <trkpt lat="43.6439" lon="-1.43341">
        <ele>6.4</ele>
        <time>2021-08-08T07:36:19Z</time>
      </trkpt>
      <trkpt lat="43.64394" lon="-1.4334">
        <ele>6.4</ele>
        <time>2021-08-08T07:36:20Z</time>
      </trkpt>
      <trkpt lat="43.64398" lon="-1.43339">
        <ele>6.4</ele>
        <time>2021-08-08T07:36:21Z</time>
      </trkpt>
      <trkpt lat="43.64402" lon="-1.43338">
        <ele>6.4</ele>
        <time>2021-08-08T07:36:22Z</time>
      </trkpt>
      <trkpt lat="43.64405" lon="-1.43337">
        <ele>6.4</ele>
        <time>2021-08-08T07:36:23Z</time>
      </trkpt>
      <trkpt lat="43.64408" lon="-1.43335">
        <ele>6.4</ele>
        <time>2021-08-08T07:36:24Z</time>
      </trkpt>
      <trkpt lat="43.64411" lon="-1.43334">
        <ele>6.4</ele>
        <time>2021-08-08T07:36:25Z</time>
      </trkpt>
      <trkpt lat="43.64414" lon="-1.43333">
        <ele>6.6</ele>
        <time>2021-08-08T07:36:26Z</time>
      </trkpt>
      <trkpt lat="43.64416" lon="-1.43332">
        <ele>6.8</ele>
        <time>2021-08-08T07:36:27Z</time>
      </trkpt>
      <trkpt lat="43.64419" lon="-1.43331">
        <ele>7</ele>
        <time>2021-08-08T07:36:28Z</time>
      </trkpt>
      <trkpt lat="43.64427" lon="-1.4333">
        <ele>7.2</ele>
        <time>2021-08-08T07:36:30Z</time>
      </trkpt>
      <trkpt lat="43.64432" lon="-1.43329">
        <ele>7.2</ele>
        <time>2021-08-08T07:36:31Z</time>
      </trkpt>
      <trkpt lat="43.64461" lon="-1.43327">
        <ele>7.4</ele>
        <time>2021-08-08T07:36:36Z</time>
      </trkpt>
      <trkpt lat="43.64487" lon="-1.43328">
        <ele>6.8</ele>
        <time>2021-08-08T07:36:40Z</time>
      </trkpt>
      <trkpt lat="43.64512" lon="-1.4333">
        <ele>6.2</ele>
        <time>2021-08-08T07:36:44Z</time>
      </trkpt>
      <trkpt lat="43.64518" lon="-1.4333">
        <ele>6</ele>
        <time>2021-08-08T07:36:45Z</time>
      </trkpt>
      <trkpt lat="43.6453" lon="-1.43331">
        <ele>6</ele>
        <time>2021-08-08T07:36:47Z</time>
      </trkpt>
      <trkpt lat="43.64535" lon="-1.43331">
        <ele>6</ele>
        <time>2021-08-08T07:36:48Z</time>
      </trkpt>
      <trkpt lat="43.64541" lon="-1.43332">
        <ele>6</ele>
        <time>2021-08-08T07:36:49Z</time>
      </trkpt>
      <trkpt lat="43.64547" lon="-1.43333">
        <ele>6</ele>
        <time>2021-08-08T07:36:50Z</time>
      </trkpt>
      <trkpt lat="43.64572" lon="-1.43339">
        <ele>6</ele>
        <time>2021-08-08T07:36:54Z</time>
      </trkpt>
      <trkpt lat="43.64591" lon="-1.43344">
        <ele>6</ele>
        <time>2021-08-08T07:36:57Z</time>
      </trkpt>
      <trkpt lat="43.64609" lon="-1.43352">
        <ele>6</ele>
        <time>2021-08-08T07:37:00Z</time>
      </trkpt>
      <trkpt lat="43.64626" lon="-1.43364">
        <ele>6</ele>
        <time>2021-08-08T07:37:03Z</time>
      </trkpt>
      <trkpt lat="43.64638" lon="-1.43372">
        <ele>5.8</ele>
        <time>2021-08-08T07:37:05Z</time>
      </trkpt>
      <trkpt lat="43.64654" lon="-1.43389">
        <ele>5.8</ele>
        <time>2021-08-08T07:37:08Z</time>
      </trkpt>
      <trkpt lat="43.64687" lon="-1.43432">
        <ele>6</ele>
        <time>2021-08-08T07:37:15Z</time>
      </trkpt>
      <trkpt lat="43.64703" lon="-1.43456">
        <ele>6</ele>
        <time>2021-08-08T07:37:19Z</time>
      </trkpt>
      <trkpt lat="43.64707" lon="-1.43464">
        <ele>6</ele>
        <time>2021-08-08T07:37:20Z</time>
      </trkpt>
      <trkpt lat="43.64708" lon="-1.4347">
        <ele>6</ele>
        <time>2021-08-08T07:37:21Z</time>
      </trkpt>
      <trkpt lat="43.64708" lon="-1.43477">
        <ele>6</ele>
        <time>2021-08-08T07:37:22Z</time>
      </trkpt>
      <trkpt lat="43.64707" lon="-1.43484">
        <ele>6</ele>
        <time>2021-08-08T07:37:23Z</time>
      </trkpt>
      <trkpt lat="43.64707" lon="-1.43492">
        <ele>6</ele>
        <time>2021-08-08T07:37:24Z</time>
      </trkpt>
      <trkpt lat="43.64707" lon="-1.43497">
        <ele>6</ele>
        <time>2021-08-08T07:37:25Z</time>
      </trkpt>
      <trkpt lat="43.64708" lon="-1.43503">
        <ele>5.8</ele>
        <time>2021-08-08T07:37:26Z</time>
      </trkpt>
      <trkpt lat="43.64711" lon="-1.43506">
        <ele>6</ele>
        <time>2021-08-08T07:37:27Z</time>
      </trkpt>
      <trkpt lat="43.64716" lon="-1.43509">
        <ele>6</ele>
        <time>2021-08-08T07:37:28Z</time>
      </trkpt>
      <trkpt lat="43.64728" lon="-1.43515">
        <ele>5.8</ele>
        <time>2021-08-08T07:37:31Z</time>
      </trkpt>
      <trkpt lat="43.64735" lon="-1.43517">
        <ele>5.8</ele>
        <time>2021-08-08T07:37:33Z</time>
      </trkpt>
      <trkpt lat="43.64738" lon="-1.43519">
        <ele>5.8</ele>
        <time>2021-08-08T07:37:34Z</time>
      </trkpt>
      <trkpt lat="43.64741" lon="-1.43521">
        <ele>5.8</ele>
        <time>2021-08-08T07:37:35Z</time>
      </trkpt>
      <trkpt lat="43.64746" lon="-1.43523">
        <ele>5.8</ele>
        <time>2021-08-08T07:37:36Z</time>
      </trkpt>
      <trkpt lat="43.6475" lon="-1.43525">
        <ele>5.8</ele>
        <time>2021-08-08T07:37:37Z</time>
      </trkpt>
      <trkpt lat="43.64779" lon="-1.43535">
        <ele>5.8</ele>
        <time>2021-08-08T07:37:42Z</time>
      </trkpt>
      <trkpt lat="43.64803" lon="-1.43543">
        <ele>5.8</ele>
        <time>2021-08-08T07:37:46Z</time>
      </trkpt>
      <trkpt lat="43.64809" lon="-1.43544">
        <ele>5.8</ele>
        <time>2021-08-08T07:37:47Z</time>
      </trkpt>
      <trkpt lat="43.64816" lon="-1.43546">
        <ele>6.2</ele>
        <time>2021-08-08T07:37:48Z</time>
      </trkpt>
      <trkpt lat="43.64821" lon="-1.43547">
        <ele>6</ele>
        <time>2021-08-08T07:37:49Z</time>
      </trkpt>
      <trkpt lat="43.64856" lon="-1.4356">
        <ele>6.4</ele>
        <time>2021-08-08T07:37:55Z</time>
      </trkpt>
      <trkpt lat="43.64861" lon="-1.43561">
        <ele>6.2</ele>
        <time>2021-08-08T07:37:56Z</time>
      </trkpt>
      <trkpt lat="43.64866" lon="-1.4356">
        <ele>6.4</ele>
        <time>2021-08-08T07:37:57Z</time>
      </trkpt>
      <trkpt lat="43.64869" lon="-1.43558">
        <ele>6.2</ele>
        <time>2021-08-08T07:37:58Z</time>
      </trkpt>
      <trkpt lat="43.64872" lon="-1.43555">
        <ele>6.2</ele>
        <time>2021-08-08T07:37:59Z</time>
      </trkpt>
      <trkpt lat="43.64875" lon="-1.4355">
        <ele>6.2</ele>
        <time>2021-08-08T07:38:00Z</time>
      </trkpt>
      <trkpt lat="43.64876" lon="-1.43548">
        <ele>6.2</ele>
        <time>2021-08-08T07:38:01Z</time>
      </trkpt>
      <trkpt lat="43.64876" lon="-1.43546">
        <ele>6.4</ele>
        <time>2021-08-08T07:38:02Z</time>
      </trkpt>
      <trkpt lat="43.64877" lon="-1.43545">
        <ele>6.2</ele>
        <time>2021-08-08T07:38:03Z</time>
      </trkpt>
      <trkpt lat="43.64878" lon="-1.43544">
        <ele>6.4</ele>
        <time>2021-08-08T07:38:04Z</time>
      </trkpt>
      <trkpt lat="43.6488" lon="-1.43544">
        <ele>6.2</ele>
        <time>2021-08-08T07:38:05Z</time>
      </trkpt>
      <trkpt lat="43.64883" lon="-1.43546">
        <ele>6.4</ele>
        <time>2021-08-08T07:38:06Z</time>
      </trkpt>
      <trkpt lat="43.64884" lon="-1.43546">
        <ele>6.4</ele>
        <time>2021-08-08T07:38:07Z</time>
      </trkpt>
      <trkpt lat="43.64886" lon="-1.43544">
        <ele>6.4</ele>
        <time>2021-08-08T07:38:08Z</time>
      </trkpt>
      <trkpt lat="43.64887" lon="-1.4354">
        <ele>6.4</ele>
        <time>2021-08-08T07:38:09Z</time>
      </trkpt>
      <trkpt lat="43.64888" lon="-1.43527">
        <ele>6.4</ele>
        <time>2021-08-08T07:38:12Z</time>
      </trkpt>
      <trkpt lat="43.6489" lon="-1.43521">
        <ele>6.4</ele>
        <time>2021-08-08T07:38:13Z</time>
      </trkpt>
      <trkpt lat="43.64892" lon="-1.43519">
        <ele>6.4</ele>
        <time>2021-08-08T07:38:14Z</time>
      </trkpt>
      <trkpt lat="43.64897" lon="-1.43517">
        <ele>6.4</ele>
        <time>2021-08-08T07:38:15Z</time>
      </trkpt>
      <trkpt lat="43.64906" lon="-1.43517">
        <ele>6.6</ele>
        <time>2021-08-08T07:38:17Z</time>
      </trkpt>
      <trkpt lat="43.64912" lon="-1.43517">
        <ele>6.4</ele>
        <time>2021-08-08T07:38:18Z</time>
      </trkpt>
      <trkpt lat="43.64917" lon="-1.43516">
        <ele>6.4</ele>
        <time>2021-08-08T07:38:19Z</time>
      </trkpt>
      <trkpt lat="43.64921" lon="-1.43515">
        <ele>6.2</ele>
        <time>2021-08-08T07:38:20Z</time>
      </trkpt>
      <trkpt lat="43.64925" lon="-1.43512">
        <ele>6.2</ele>
        <time>2021-08-08T07:38:21Z</time>
      </trkpt>
      <trkpt lat="43.6493" lon="-1.43507">
        <ele>6</ele>
        <time>2021-08-08T07:38:22Z</time>
      </trkpt>
      <trkpt lat="43.64933" lon="-1.43503">
        <ele>6</ele>
        <time>2021-08-08T07:38:23Z</time>
      </trkpt>
      <trkpt lat="43.64937" lon="-1.43497">
        <ele>6</ele>
        <time>2021-08-08T07:38:24Z</time>
      </trkpt>
      <trkpt lat="43.64939" lon="-1.43492">
        <ele>6</ele>
        <time>2021-08-08T07:38:25Z</time>
      </trkpt>
      <trkpt lat="43.64941" lon="-1.43486">
        <ele>6</ele>
        <time>2021-08-08T07:38:26Z</time>
      </trkpt>
      <trkpt lat="43.6495" lon="-1.43471">
        <ele>6</ele>
        <time>2021-08-08T07:38:29Z</time>
      </trkpt>
      <trkpt lat="43.64956" lon="-1.43461">
        <ele>6</ele>
        <time>2021-08-08T07:38:31Z</time>
      </trkpt>
      <trkpt lat="43.64958" lon="-1.43458">
        <ele>6.2</ele>
        <time>2021-08-08T07:38:32Z</time>
      </trkpt>
      <trkpt lat="43.6496" lon="-1.43452">
        <ele>6.2</ele>
        <time>2021-08-08T07:38:33Z</time>
      </trkpt>
      <trkpt lat="43.64964" lon="-1.43442">
        <ele>6.2</ele>
        <time>2021-08-08T07:38:35Z</time>
      </trkpt>
      <trkpt lat="43.64967" lon="-1.43439">
        <ele>6.2</ele>
        <time>2021-08-08T07:38:36Z</time>
      </trkpt>
      <trkpt lat="43.64971" lon="-1.43435">
        <ele>6.2</ele>
        <time>2021-08-08T07:38:37Z</time>
      </trkpt>
      <trkpt lat="43.64975" lon="-1.43432">
        <ele>6.2</ele>
        <time>2021-08-08T07:38:38Z</time>
      </trkpt>
      <trkpt lat="43.6498" lon="-1.43428">
        <ele>6.2</ele>
        <time>2021-08-08T07:38:39Z</time>
      </trkpt>
      <trkpt lat="43.64984" lon="-1.43425">
        <ele>6.2</ele>
        <time>2021-08-08T07:38:40Z</time>
      </trkpt>
      <trkpt lat="43.64994" lon="-1.43422">
        <ele>6.2</ele>
        <time>2021-08-08T07:38:42Z</time>
      </trkpt>
      <trkpt lat="43.64999" lon="-1.43423">
        <ele>6.2</ele>
        <time>2021-08-08T07:38:43Z</time>
      </trkpt>
      <trkpt lat="43.65004" lon="-1.43424">
        <ele>6.2</ele>
        <time>2021-08-08T07:38:44Z</time>
      </trkpt>
      <trkpt lat="43.65009" lon="-1.43426">
        <ele>6.2</ele>
        <time>2021-08-08T07:38:45Z</time>
      </trkpt>
      <trkpt lat="43.65014" lon="-1.43429">
        <ele>6.2</ele>
        <time>2021-08-08T07:38:46Z</time>
      </trkpt>
      <trkpt lat="43.65019" lon="-1.43431">
        <ele>6.2</ele>
        <time>2021-08-08T07:38:47Z</time>
      </trkpt>
      <trkpt lat="43.65023" lon="-1.43433">
        <ele>6.2</ele>
        <time>2021-08-08T07:38:48Z</time>
      </trkpt>
      <trkpt lat="43.65047" lon="-1.43444">
        <ele>6.4</ele>
        <time>2021-08-08T07:38:53Z</time>
      </trkpt>
      <trkpt lat="43.65098" lon="-1.43467">
        <ele>6.6</ele>
        <time>2021-08-08T07:39:03Z</time>
      </trkpt>
      <trkpt lat="43.65127" lon="-1.43481">
        <ele>6.4</ele>
        <time>2021-08-08T07:39:09Z</time>
      </trkpt>
      <trkpt lat="43.65132" lon="-1.43483">
        <ele>6.4</ele>
        <time>2021-08-08T07:39:10Z</time>
      </trkpt>
      <trkpt lat="43.65137" lon="-1.43485">
        <ele>6.4</ele>
        <time>2021-08-08T07:39:11Z</time>
      </trkpt>
      <trkpt lat="43.65141" lon="-1.43487">
        <ele>6.4</ele>
        <time>2021-08-08T07:39:12Z</time>
      </trkpt>
      <trkpt lat="43.65146" lon="-1.43488">
        <ele>6.4</ele>
        <time>2021-08-08T07:39:13Z</time>
      </trkpt>
      <trkpt lat="43.65149" lon="-1.43489">
        <ele>6.4</ele>
        <time>2021-08-08T07:39:14Z</time>
      </trkpt>
      <trkpt lat="43.65155" lon="-1.43487">
        <ele>6.4</ele>
        <time>2021-08-08T07:39:15Z</time>
      </trkpt>
      <trkpt lat="43.65158" lon="-1.43484">
        <ele>6.4</ele>
        <time>2021-08-08T07:39:16Z</time>
      </trkpt>
      <trkpt lat="43.65161" lon="-1.43481">
        <ele>6.4</ele>
        <time>2021-08-08T07:39:17Z</time>
      </trkpt>
      <trkpt lat="43.65164" lon="-1.43479">
        <ele>6.4</ele>
        <time>2021-08-08T07:39:18Z</time>
      </trkpt>
      <trkpt lat="43.65167" lon="-1.43476">
        <ele>6.2</ele>
        <time>2021-08-08T07:39:19Z</time>
      </trkpt>
      <trkpt lat="43.6517" lon="-1.43473">
        <ele>6.2</ele>
        <time>2021-08-08T07:39:20Z</time>
      </trkpt>
      <trkpt lat="43.65174" lon="-1.43471">
        <ele>6.2</ele>
        <time>2021-08-08T07:39:21Z</time>
      </trkpt>
      <trkpt lat="43.65178" lon="-1.43471">
        <ele>6</ele>
        <time>2021-08-08T07:39:22Z</time>
      </trkpt>
      <trkpt lat="43.65182" lon="-1.43472">
        <ele>6</ele>
        <time>2021-08-08T07:39:23Z</time>
      </trkpt>
      <trkpt lat="43.65186" lon="-1.43474">
        <ele>6</ele>
        <time>2021-08-08T07:39:24Z</time>
      </trkpt>
      <trkpt lat="43.6519" lon="-1.43476">
        <ele>6</ele>
        <time>2021-08-08T07:39:25Z</time>
      </trkpt>
      <trkpt lat="43.65194" lon="-1.43478">
        <ele>6</ele>
        <time>2021-08-08T07:39:26Z</time>
      </trkpt>
      <trkpt lat="43.65198" lon="-1.43477">
        <ele>6</ele>
        <time>2021-08-08T07:39:27Z</time>
      </trkpt>
      <trkpt lat="43.65201" lon="-1.43476">
        <ele>6</ele>
        <time>2021-08-08T07:39:28Z</time>
      </trkpt>
      <trkpt lat="43.65206" lon="-1.43471">
        <ele>6</ele>
        <time>2021-08-08T07:39:29Z</time>
      </trkpt>
      <trkpt lat="43.65214" lon="-1.43462">
        <ele>6</ele>
        <time>2021-08-08T07:39:31Z</time>
      </trkpt>
      <trkpt lat="43.65217" lon="-1.43457">
        <ele>6</ele>
        <time>2021-08-08T07:39:32Z</time>
      </trkpt>
      <trkpt lat="43.65225" lon="-1.43446">
        <ele>6</ele>
        <time>2021-08-08T07:39:34Z</time>
      </trkpt>
      <trkpt lat="43.65228" lon="-1.43441">
        <ele>6</ele>
        <time>2021-08-08T07:39:35Z</time>
      </trkpt>
      <trkpt lat="43.6523" lon="-1.43436">
        <ele>6</ele>
        <time>2021-08-08T07:39:36Z</time>
      </trkpt>
      <trkpt lat="43.65231" lon="-1.4343">
        <ele>6</ele>
        <time>2021-08-08T07:39:37Z</time>
      </trkpt>
      <trkpt lat="43.65231" lon="-1.43425">
        <ele>6</ele>
        <time>2021-08-08T07:39:38Z</time>
      </trkpt>
      <trkpt lat="43.65229" lon="-1.43422">
        <ele>6</ele>
        <time>2021-08-08T07:39:39Z</time>
      </trkpt>
      <trkpt lat="43.65222" lon="-1.43413">
        <ele>6</ele>
        <time>2021-08-08T07:39:41Z</time>
      </trkpt>
      <trkpt lat="43.65218" lon="-1.4341">
        <ele>6</ele>
        <time>2021-08-08T07:39:42Z</time>
      </trkpt>
      <trkpt lat="43.65215" lon="-1.43405">
        <ele>6</ele>
        <time>2021-08-08T07:39:43Z</time>
      </trkpt>
      <trkpt lat="43.6521" lon="-1.43396">
        <ele>6</ele>
        <time>2021-08-08T07:39:45Z</time>
      </trkpt>
      <trkpt lat="43.65209" lon="-1.43391">
        <ele>6</ele>
        <time>2021-08-08T07:39:46Z</time>
      </trkpt>
      <trkpt lat="43.6521" lon="-1.43386">
        <ele>6</ele>
        <time>2021-08-08T07:39:47Z</time>
      </trkpt>
      <trkpt lat="43.65214" lon="-1.43376">
        <ele>6</ele>
        <time>2021-08-08T07:39:49Z</time>
      </trkpt>
      <trkpt lat="43.65216" lon="-1.43369">
        <ele>6</ele>
        <time>2021-08-08T07:39:50Z</time>
      </trkpt>
      <trkpt lat="43.65218" lon="-1.43364">
        <ele>6</ele>
        <time>2021-08-08T07:39:51Z</time>
      </trkpt>
      <trkpt lat="43.6522" lon="-1.43359">
        <ele>6</ele>
        <time>2021-08-08T07:39:52Z</time>
      </trkpt>
      <trkpt lat="43.65222" lon="-1.43355">
        <ele>6</ele>
        <time>2021-08-08T07:39:53Z</time>
      </trkpt>
      <trkpt lat="43.65224" lon="-1.43349">
        <ele>6</ele>
        <time>2021-08-08T07:39:54Z</time>
      </trkpt>
      <trkpt lat="43.65226" lon="-1.43344">
        <ele>6</ele>
        <time>2021-08-08T07:39:55Z</time>
      </trkpt>
      <trkpt lat="43.65228" lon="-1.43339">
        <ele>6</ele>
        <time>2021-08-08T07:39:56Z</time>
      </trkpt>
      <trkpt lat="43.65232" lon="-1.4333">
        <ele>6</ele>
        <time>2021-08-08T07:39:58Z</time>
      </trkpt>
      <trkpt lat="43.65234" lon="-1.43325">
        <ele>6</ele>
        <time>2021-08-08T07:39:59Z</time>
      </trkpt>
      <trkpt lat="43.65236" lon="-1.43321">
        <ele>6</ele>
        <time>2021-08-08T07:40:00Z</time>
      </trkpt>
      <trkpt lat="43.65237" lon="-1.43316">
        <ele>6</ele>
        <time>2021-08-08T07:40:01Z</time>
      </trkpt>
      <trkpt lat="43.65238" lon="-1.43312">
        <ele>6</ele>
        <time>2021-08-08T07:40:02Z</time>
      </trkpt>
      <trkpt lat="43.6524" lon="-1.43307">
        <ele>6</ele>
        <time>2021-08-08T07:40:03Z</time>
      </trkpt>
      <trkpt lat="43.65242" lon="-1.43302">
        <ele>6</ele>
        <time>2021-08-08T07:40:04Z</time>
      </trkpt>
      <trkpt lat="43.65245" lon="-1.43297">
        <ele>6</ele>
        <time>2021-08-08T07:40:05Z</time>
      </trkpt>
      <trkpt lat="43.65246" lon="-1.43292">
        <ele>6</ele>
        <time>2021-08-08T07:40:06Z</time>
      </trkpt>
      <trkpt lat="43.65261" lon="-1.43257">
        <ele>5.8</ele>
        <time>2021-08-08T07:40:14Z</time>
      </trkpt>
      <trkpt lat="43.6527" lon="-1.4323">
        <ele>5.8</ele>
        <time>2021-08-08T07:40:19Z</time>
      </trkpt>
      <trkpt lat="43.6527" lon="-1.43223">
        <ele>5.8</ele>
        <time>2021-08-08T07:40:20Z</time>
      </trkpt>
      <trkpt lat="43.65271" lon="-1.43215">
        <ele>5.8</ele>
        <time>2021-08-08T07:40:21Z</time>
      </trkpt>
      <trkpt lat="43.65278" lon="-1.43187">
        <ele>5.6</ele>
        <time>2021-08-08T07:40:25Z</time>
      </trkpt>
      <trkpt lat="43.65285" lon="-1.43164">
        <ele>5.8</ele>
        <time>2021-08-08T07:40:28Z</time>
      </trkpt>
      <trkpt lat="43.65289" lon="-1.43141">
        <ele>5.8</ele>
        <time>2021-08-08T07:40:31Z</time>
      </trkpt>
      <trkpt lat="43.65305" lon="-1.43077">
        <ele>6</ele>
        <time>2021-08-08T07:40:39Z</time>
      </trkpt>
      <trkpt lat="43.6531" lon="-1.43063">
        <ele>6</ele>
        <time>2021-08-08T07:40:41Z</time>
      </trkpt>
      <trkpt lat="43.65313" lon="-1.43057">
        <ele>6</ele>
        <time>2021-08-08T07:40:42Z</time>
      </trkpt>
      <trkpt lat="43.65318" lon="-1.43053">
        <ele>6</ele>
        <time>2021-08-08T07:40:43Z</time>
      </trkpt>
      <trkpt lat="43.65322" lon="-1.43051">
        <ele>6</ele>
        <time>2021-08-08T07:40:44Z</time>
      </trkpt>
      <trkpt lat="43.65326" lon="-1.43049">
        <ele>6</ele>
        <time>2021-08-08T07:40:45Z</time>
      </trkpt>
      <trkpt lat="43.65332" lon="-1.43047">
        <ele>6</ele>
        <time>2021-08-08T07:40:46Z</time>
      </trkpt>
      <trkpt lat="43.65336" lon="-1.43046">
        <ele>6</ele>
        <time>2021-08-08T07:40:47Z</time>
      </trkpt>
      <trkpt lat="43.65341" lon="-1.43043">
        <ele>6</ele>
        <time>2021-08-08T07:40:48Z</time>
      </trkpt>
      <trkpt lat="43.65345" lon="-1.43039">
        <ele>6.2</ele>
        <time>2021-08-08T07:40:49Z</time>
      </trkpt>
      <trkpt lat="43.65349" lon="-1.43035">
        <ele>6.2</ele>
        <time>2021-08-08T07:40:50Z</time>
      </trkpt>
      <trkpt lat="43.65352" lon="-1.4303">
        <ele>6.2</ele>
        <time>2021-08-08T07:40:51Z</time>
      </trkpt>
      <trkpt lat="43.65357" lon="-1.43026">
        <ele>6.2</ele>
        <time>2021-08-08T07:40:52Z</time>
      </trkpt>
      <trkpt lat="43.65361" lon="-1.43023">
        <ele>6</ele>
        <time>2021-08-08T07:40:53Z</time>
      </trkpt>
      <trkpt lat="43.65365" lon="-1.4302">
        <ele>6.2</ele>
        <time>2021-08-08T07:40:54Z</time>
      </trkpt>
      <trkpt lat="43.65369" lon="-1.43019">
        <ele>6.2</ele>
        <time>2021-08-08T07:40:55Z</time>
      </trkpt>
      <trkpt lat="43.65374" lon="-1.43017">
        <ele>6.2</ele>
        <time>2021-08-08T07:40:56Z</time>
      </trkpt>
      <trkpt lat="43.65379" lon="-1.43017">
        <ele>6.2</ele>
        <time>2021-08-08T07:40:57Z</time>
      </trkpt>
      <trkpt lat="43.65403" lon="-1.43014">
        <ele>6.8</ele>
        <time>2021-08-08T07:41:02Z</time>
      </trkpt>
      <trkpt lat="43.65407" lon="-1.43014">
        <ele>6.8</ele>
        <time>2021-08-08T07:41:03Z</time>
      </trkpt>
      <trkpt lat="43.65412" lon="-1.43013">
        <ele>7</ele>
        <time>2021-08-08T07:41:04Z</time>
      </trkpt>
      <trkpt lat="43.65416" lon="-1.43014">
        <ele>7</ele>
        <time>2021-08-08T07:41:05Z</time>
      </trkpt>
      <trkpt lat="43.65419" lon="-1.43018">
        <ele>7.2</ele>
        <time>2021-08-08T07:41:06Z</time>
      </trkpt>
      <trkpt lat="43.65422" lon="-1.43023">
        <ele>7.2</ele>
        <time>2021-08-08T07:41:07Z</time>
      </trkpt>
      <trkpt lat="43.65424" lon="-1.43028">
        <ele>7.2</ele>
        <time>2021-08-08T07:41:08Z</time>
      </trkpt>
      <trkpt lat="43.65425" lon="-1.43033">
        <ele>7.2</ele>
        <time>2021-08-08T07:41:09Z</time>
      </trkpt>
      <trkpt lat="43.65426" lon="-1.43042">
        <ele>7.2</ele>
        <time>2021-08-08T07:41:10Z</time>
      </trkpt>
      <trkpt lat="43.65428" lon="-1.43049">
        <ele>7.2</ele>
        <time>2021-08-08T07:41:11Z</time>
      </trkpt>
      <trkpt lat="43.65429" lon="-1.43074">
        <ele>7</ele>
        <time>2021-08-08T07:41:14Z</time>
      </trkpt>
      <trkpt lat="43.65429" lon="-1.43082">
        <ele>6.6</ele>
        <time>2021-08-08T07:41:15Z</time>
      </trkpt>
      <trkpt lat="43.65429" lon="-1.4309">
        <ele>6.4</ele>
        <time>2021-08-08T07:41:16Z</time>
      </trkpt>
      <trkpt lat="43.65426" lon="-1.43105">
        <ele>6</ele>
        <time>2021-08-08T07:41:18Z</time>
      </trkpt>
      <trkpt lat="43.65423" lon="-1.43114">
        <ele>6</ele>
        <time>2021-08-08T07:41:19Z</time>
      </trkpt>
      <trkpt lat="43.65415" lon="-1.43136">
        <ele>6</ele>
        <time>2021-08-08T07:41:22Z</time>
      </trkpt>
      <trkpt lat="43.65412" lon="-1.43158">
        <ele>5.6</ele>
        <time>2021-08-08T07:41:25Z</time>
      </trkpt>
      <trkpt lat="43.65411" lon="-1.43166">
        <ele>5.6</ele>
        <time>2021-08-08T07:41:26Z</time>
      </trkpt>
      <trkpt lat="43.6541" lon="-1.43172">
        <ele>5.6</ele>
        <time>2021-08-08T07:41:27Z</time>
      </trkpt>
      <trkpt lat="43.65407" lon="-1.43195">
        <ele>5.6</ele>
        <time>2021-08-08T07:41:30Z</time>
      </trkpt>
      <trkpt lat="43.65406" lon="-1.43202">
        <ele>5.6</ele>
        <time>2021-08-08T07:41:31Z</time>
      </trkpt>
      <trkpt lat="43.65405" lon="-1.43211">
        <ele>5.6</ele>
        <time>2021-08-08T07:41:32Z</time>
      </trkpt>
      <trkpt lat="43.654" lon="-1.43249">
        <ele>5.6</ele>
        <time>2021-08-08T07:41:37Z</time>
      </trkpt>
      <trkpt lat="43.65398" lon="-1.43257">
        <ele>5.6</ele>
        <time>2021-08-08T07:41:38Z</time>
      </trkpt>
      <trkpt lat="43.65392" lon="-1.43279">
        <ele>5.4</ele>
        <time>2021-08-08T07:41:41Z</time>
      </trkpt>
      <trkpt lat="43.65386" lon="-1.43291">
        <ele>5.4</ele>
        <time>2021-08-08T07:41:43Z</time>
      </trkpt>
      <trkpt lat="43.65378" lon="-1.43303">
        <ele>5.4</ele>
        <time>2021-08-08T07:41:45Z</time>
      </trkpt>
      <trkpt lat="43.65374" lon="-1.43307">
        <ele>5.6</ele>
        <time>2021-08-08T07:41:46Z</time>
      </trkpt>
      <trkpt lat="43.65364" lon="-1.43317">
        <ele>5.6</ele>
        <time>2021-08-08T07:41:48Z</time>
      </trkpt>
      <trkpt lat="43.65337" lon="-1.43346">
        <ele>5.8</ele>
        <time>2021-08-08T07:41:54Z</time>
      </trkpt>
      <trkpt lat="43.65334" lon="-1.43352">
        <ele>5.8</ele>
        <time>2021-08-08T07:41:55Z</time>
      </trkpt>
      <trkpt lat="43.65332" lon="-1.43359">
        <ele>5.8</ele>
        <time>2021-08-08T07:41:56Z</time>
      </trkpt>
      <trkpt lat="43.65331" lon="-1.43366">
        <ele>5.8</ele>
        <time>2021-08-08T07:41:57Z</time>
      </trkpt>
      <trkpt lat="43.65331" lon="-1.43372">
        <ele>5.8</ele>
        <time>2021-08-08T07:41:58Z</time>
      </trkpt>
      <trkpt lat="43.65331" lon="-1.43378">
        <ele>5.8</ele>
        <time>2021-08-08T07:41:59Z</time>
      </trkpt>
      <trkpt lat="43.65332" lon="-1.43386">
        <ele>5.8</ele>
        <time>2021-08-08T07:42:00Z</time>
      </trkpt>
      <trkpt lat="43.65332" lon="-1.43391">
        <ele>5.8</ele>
        <time>2021-08-08T07:42:01Z</time>
      </trkpt>
      <trkpt lat="43.65333" lon="-1.43398">
        <ele>5.8</ele>
        <time>2021-08-08T07:42:02Z</time>
      </trkpt>
      <trkpt lat="43.65334" lon="-1.43406">
        <ele>5.8</ele>
        <time>2021-08-08T07:42:03Z</time>
      </trkpt>
      <trkpt lat="43.65335" lon="-1.43413">
        <ele>5.8</ele>
        <time>2021-08-08T07:42:04Z</time>
      </trkpt>
      <trkpt lat="43.65336" lon="-1.43419">
        <ele>5.8</ele>
        <time>2021-08-08T07:42:05Z</time>
      </trkpt>
      <trkpt lat="43.65337" lon="-1.43426">
        <ele>5.8</ele>
        <time>2021-08-08T07:42:06Z</time>
      </trkpt>
      <trkpt lat="43.65338" lon="-1.43432">
        <ele>5.8</ele>
        <time>2021-08-08T07:42:07Z</time>
      </trkpt>
      <trkpt lat="43.65338" lon="-1.43438">
        <ele>5.8</ele>
        <time>2021-08-08T07:42:08Z</time>
      </trkpt>
      <trkpt lat="43.65339" lon="-1.43443">
        <ele>5.8</ele>
        <time>2021-08-08T07:42:09Z</time>
      </trkpt>
      <trkpt lat="43.6534" lon="-1.43447">
        <ele>5.8</ele>
        <time>2021-08-08T07:42:10Z</time>
      </trkpt>
      <trkpt lat="43.65341" lon="-1.43451">
        <ele>6</ele>
        <time>2021-08-08T07:42:11Z</time>
      </trkpt>
      <trkpt lat="43.65346" lon="-1.43468">
        <ele>6</ele>
        <time>2021-08-08T07:42:14Z</time>
      </trkpt>
      <trkpt lat="43.65347" lon="-1.43474">
        <ele>6.2</ele>
        <time>2021-08-08T07:42:15Z</time>
      </trkpt>
      <trkpt lat="43.65348" lon="-1.43486">
        <ele>6.2</ele>
        <time>2021-08-08T07:42:17Z</time>
      </trkpt>
      <trkpt lat="43.65349" lon="-1.43491">
        <ele>6.2</ele>
        <time>2021-08-08T07:42:18Z</time>
      </trkpt>
      <trkpt lat="43.65351" lon="-1.43494">
        <ele>6.4</ele>
        <time>2021-08-08T07:42:19Z</time>
      </trkpt>
      <trkpt lat="43.65354" lon="-1.43496">
        <ele>6.4</ele>
        <time>2021-08-08T07:42:20Z</time>
      </trkpt>
      <trkpt lat="43.65363" lon="-1.43501">
        <ele>6.4</ele>
        <time>2021-08-08T07:42:22Z</time>
      </trkpt>
      <trkpt lat="43.65368" lon="-1.43504">
        <ele>6.4</ele>
        <time>2021-08-08T07:42:23Z</time>
      </trkpt>
      <trkpt lat="43.65377" lon="-1.43509">
        <ele>6.4</ele>
        <time>2021-08-08T07:42:25Z</time>
      </trkpt>
      <trkpt lat="43.65386" lon="-1.43515">
        <ele>6.4</ele>
        <time>2021-08-08T07:42:27Z</time>
      </trkpt>
      <trkpt lat="43.6539" lon="-1.43518">
        <ele>6.4</ele>
        <time>2021-08-08T07:42:28Z</time>
      </trkpt>
      <trkpt lat="43.65399" lon="-1.43524">
        <ele>6.4</ele>
        <time>2021-08-08T07:42:30Z</time>
      </trkpt>
      <trkpt lat="43.65403" lon="-1.43529">
        <ele>6.4</ele>
        <time>2021-08-08T07:42:31Z</time>
      </trkpt>
      <trkpt lat="43.65405" lon="-1.43534">
        <ele>6.4</ele>
        <time>2021-08-08T07:42:32Z</time>
      </trkpt>
      <trkpt lat="43.65407" lon="-1.43541">
        <ele>6.2</ele>
        <time>2021-08-08T07:42:33Z</time>
      </trkpt>
      <trkpt lat="43.65409" lon="-1.43549">
        <ele>6.2</ele>
        <time>2021-08-08T07:42:34Z</time>
      </trkpt>
      <trkpt lat="43.6541" lon="-1.43556">
        <ele>6.2</ele>
        <time>2021-08-08T07:42:35Z</time>
      </trkpt>
      <trkpt lat="43.6541" lon="-1.43563">
        <ele>6.2</ele>
        <time>2021-08-08T07:42:36Z</time>
      </trkpt>
      <trkpt lat="43.65412" lon="-1.43569">
        <ele>6.2</ele>
        <time>2021-08-08T07:42:37Z</time>
      </trkpt>
      <trkpt lat="43.65416" lon="-1.43582">
        <ele>6.2</ele>
        <time>2021-08-08T07:42:39Z</time>
      </trkpt>
      <trkpt lat="43.65419" lon="-1.43588">
        <ele>6.2</ele>
        <time>2021-08-08T07:42:40Z</time>
      </trkpt>
      <trkpt lat="43.65431" lon="-1.4361">
        <ele>6.2</ele>
        <time>2021-08-08T07:42:44Z</time>
      </trkpt>
      <trkpt lat="43.65433" lon="-1.43617">
        <ele>6.2</ele>
        <time>2021-08-08T07:42:45Z</time>
      </trkpt>
      <trkpt lat="43.65435" lon="-1.43624">
        <ele>6.2</ele>
        <time>2021-08-08T07:42:46Z</time>
      </trkpt>
      <trkpt lat="43.6545" lon="-1.43652">
        <ele>6.2</ele>
        <time>2021-08-08T07:42:51Z</time>
      </trkpt>
      <trkpt lat="43.65463" lon="-1.43668">
        <ele>6.2</ele>
        <time>2021-08-08T07:42:54Z</time>
      </trkpt>
      <trkpt lat="43.65467" lon="-1.43681">
        <ele>6.2</ele>
        <time>2021-08-08T07:42:56Z</time>
      </trkpt>
      <trkpt lat="43.65468" lon="-1.43688">
        <ele>6.2</ele>
        <time>2021-08-08T07:42:57Z</time>
      </trkpt>
      <trkpt lat="43.65468" lon="-1.43695">
        <ele>6.2</ele>
        <time>2021-08-08T07:42:58Z</time>
      </trkpt>
      <trkpt lat="43.65467" lon="-1.43702">
        <ele>6.2</ele>
        <time>2021-08-08T07:42:59Z</time>
      </trkpt>
      <trkpt lat="43.65466" lon="-1.43709">
        <ele>6.2</ele>
        <time>2021-08-08T07:43:00Z</time>
      </trkpt>
      <trkpt lat="43.65464" lon="-1.43716">
        <ele>6.2</ele>
        <time>2021-08-08T07:43:01Z</time>
      </trkpt>
      <trkpt lat="43.65464" lon="-1.43721">
        <ele>6.2</ele>
        <time>2021-08-08T07:43:02Z</time>
      </trkpt>
      <trkpt lat="43.65463" lon="-1.43726">
        <ele>6.2</ele>
        <time>2021-08-08T07:43:03Z</time>
      </trkpt>
      <trkpt lat="43.65463" lon="-1.4373">
        <ele>6.2</ele>
        <time>2021-08-08T07:43:04Z</time>
      </trkpt>
      <trkpt lat="43.65463" lon="-1.43735">
        <ele>6</ele>
        <time>2021-08-08T07:43:05Z</time>
      </trkpt>
      <trkpt lat="43.65465" lon="-1.43738">
        <ele>6</ele>
        <time>2021-08-08T07:43:06Z</time>
      </trkpt>
      <trkpt lat="43.65467" lon="-1.43741">
        <ele>6</ele>
        <time>2021-08-08T07:43:07Z</time>
      </trkpt>
      <trkpt lat="43.65468" lon="-1.43744">
        <ele>6</ele>
        <time>2021-08-08T07:43:08Z</time>
      </trkpt>
      <trkpt lat="43.6547" lon="-1.43748">
        <ele>6</ele>
        <time>2021-08-08T07:43:09Z</time>
      </trkpt>
      <trkpt lat="43.65479" lon="-1.43769">
        <ele>6</ele>
        <time>2021-08-08T07:43:14Z</time>
      </trkpt>
      <trkpt lat="43.65492" lon="-1.43799">
        <ele>6</ele>
        <time>2021-08-08T07:43:21Z</time>
      </trkpt>
      <trkpt lat="43.65497" lon="-1.43809">
        <ele>6</ele>
        <time>2021-08-08T07:43:24Z</time>
      </trkpt>
      <trkpt lat="43.65499" lon="-1.43809">
        <ele>6</ele>
        <time>2021-08-08T07:43:25Z</time>
      </trkpt>
      <trkpt lat="43.65501" lon="-1.43807">
        <ele>6</ele>
        <time>2021-08-08T07:43:26Z</time>
      </trkpt>
      <trkpt lat="43.65501" lon="-1.43804">
        <ele>6</ele>
        <time>2021-08-08T07:43:27Z</time>
      </trkpt>
      <trkpt lat="43.655" lon="-1.43801">
        <ele>5.8</ele>
        <time>2021-08-08T07:43:28Z</time>
      </trkpt>
      <trkpt lat="43.65497" lon="-1.43789">
        <ele>5.8</ele>
        <time>2021-08-08T07:43:31Z</time>
      </trkpt>
      <trkpt lat="43.65497" lon="-1.43784">
        <ele>5.8</ele>
        <time>2021-08-08T07:43:32Z</time>
      </trkpt>
      <trkpt lat="43.65498" lon="-1.4378">
        <ele>5.8</ele>
        <time>2021-08-08T07:43:33Z</time>
      </trkpt>
      <trkpt lat="43.655" lon="-1.43775">
        <ele>5.8</ele>
        <time>2021-08-08T07:43:34Z</time>
      </trkpt>
      <trkpt lat="43.65501" lon="-1.43772">
        <ele>5.6</ele>
        <time>2021-08-08T07:43:35Z</time>
      </trkpt>
      <trkpt lat="43.65502" lon="-1.43767">
        <ele>5.6</ele>
        <time>2021-08-08T07:43:36Z</time>
      </trkpt>
      <trkpt lat="43.65501" lon="-1.43762">
        <ele>5.6</ele>
        <time>2021-08-08T07:43:37Z</time>
      </trkpt>
      <trkpt lat="43.65499" lon="-1.43757">
        <ele>5.8</ele>
        <time>2021-08-08T07:43:38Z</time>
      </trkpt>
      <trkpt lat="43.65494" lon="-1.43749">
        <ele>6</ele>
        <time>2021-08-08T07:43:40Z</time>
      </trkpt>
      <trkpt lat="43.65492" lon="-1.43744">
        <ele>6</ele>
        <time>2021-08-08T07:43:41Z</time>
      </trkpt>
      <trkpt lat="43.65486" lon="-1.43727">
        <ele>5.8</ele>
        <time>2021-08-08T07:43:45Z</time>
      </trkpt>
      <trkpt lat="43.65487" lon="-1.43725">
        <ele>5.8</ele>
        <time>2021-08-08T07:43:46Z</time>
      </trkpt>
      <trkpt lat="43.65488" lon="-1.43724">
        <ele>5.8</ele>
        <time>2021-08-08T07:43:47Z</time>
      </trkpt>
      <trkpt lat="43.65491" lon="-1.43723">
        <ele>6</ele>
        <time>2021-08-08T07:43:48Z</time>
      </trkpt>
      <trkpt lat="43.65493" lon="-1.43723">
        <ele>6</ele>
        <time>2021-08-08T07:43:49Z</time>
      </trkpt>
      <trkpt lat="43.65499" lon="-1.43726">
        <ele>6</ele>
        <time>2021-08-08T07:43:51Z</time>
      </trkpt>
      <trkpt lat="43.65503" lon="-1.43732">
        <ele>5.8</ele>
        <time>2021-08-08T07:43:53Z</time>
      </trkpt>
      <trkpt lat="43.65506" lon="-1.43736">
        <ele>5.8</ele>
        <time>2021-08-08T07:43:54Z</time>
      </trkpt>
      <trkpt lat="43.65508" lon="-1.4374">
        <ele>5.8</ele>
        <time>2021-08-08T07:43:55Z</time>
      </trkpt>
      <trkpt lat="43.65509" lon="-1.43744">
        <ele>6</ele>
        <time>2021-08-08T07:43:56Z</time>
      </trkpt>
      <trkpt lat="43.65515" lon="-1.43763">
        <ele>6.2</ele>
        <time>2021-08-08T07:44:00Z</time>
      </trkpt>
      <trkpt lat="43.65522" lon="-1.43789">
        <ele>7.2</ele>
        <time>2021-08-08T07:44:05Z</time>
      </trkpt>
      <trkpt lat="43.65523" lon="-1.43793">
        <ele>7.2</ele>
        <time>2021-08-08T07:44:06Z</time>
      </trkpt>
      <trkpt lat="43.65526" lon="-1.43799">
        <ele>7.4</ele>
        <time>2021-08-08T07:44:07Z</time>
      </trkpt>
      <trkpt lat="43.65529" lon="-1.43809">
        <ele>7.6</ele>
        <time>2021-08-08T07:44:09Z</time>
      </trkpt>
      <trkpt lat="43.65532" lon="-1.4382">
        <ele>8</ele>
        <time>2021-08-08T07:44:11Z</time>
      </trkpt>
      <trkpt lat="43.65537" lon="-1.43835">
        <ele>8.8</ele>
        <time>2021-08-08T07:44:14Z</time>
      </trkpt>
      <trkpt lat="43.65542" lon="-1.43851">
        <ele>9.6</ele>
        <time>2021-08-08T07:44:17Z</time>
      </trkpt>
      <trkpt lat="43.65544" lon="-1.43857">
        <ele>9.8</ele>
        <time>2021-08-08T07:44:18Z</time>
      </trkpt>
      <trkpt lat="43.65546" lon="-1.43862">
        <ele>10</ele>
        <time>2021-08-08T07:44:19Z</time>
      </trkpt>
      <trkpt lat="43.65548" lon="-1.43868">
        <ele>10.4</ele>
        <time>2021-08-08T07:44:20Z</time>
      </trkpt>
      <trkpt lat="43.6555" lon="-1.43874">
        <ele>10.4</ele>
        <time>2021-08-08T07:44:21Z</time>
      </trkpt>
      <trkpt lat="43.65552" lon="-1.4388">
        <ele>10.8</ele>
        <time>2021-08-08T07:44:22Z</time>
      </trkpt>
      <trkpt lat="43.65553" lon="-1.43884">
        <ele>10.8</ele>
        <time>2021-08-08T07:44:23Z</time>
      </trkpt>
      <trkpt lat="43.65555" lon="-1.4389">
        <ele>10.8</ele>
        <time>2021-08-08T07:44:24Z</time>
      </trkpt>
      <trkpt lat="43.65557" lon="-1.43897">
        <ele>10.8</ele>
        <time>2021-08-08T07:44:25Z</time>
      </trkpt>
      <trkpt lat="43.65559" lon="-1.43903">
        <ele>10.8</ele>
        <time>2021-08-08T07:44:26Z</time>
      </trkpt>
      <trkpt lat="43.65561" lon="-1.43909">
        <ele>10.8</ele>
        <time>2021-08-08T07:44:27Z</time>
      </trkpt>
      <trkpt lat="43.65562" lon="-1.43913">
        <ele>10.8</ele>
        <time>2021-08-08T07:44:28Z</time>
      </trkpt>
      <trkpt lat="43.65565" lon="-1.43921">
        <ele>10.8</ele>
        <time>2021-08-08T07:44:29Z</time>
      </trkpt>
      <trkpt lat="43.65568" lon="-1.43927">
        <ele>10.8</ele>
        <time>2021-08-08T07:44:30Z</time>
      </trkpt>
      <trkpt lat="43.65569" lon="-1.43933">
        <ele>10.8</ele>
        <time>2021-08-08T07:44:31Z</time>
      </trkpt>
      <trkpt lat="43.65571" lon="-1.43939">
        <ele>10.8</ele>
        <time>2021-08-08T07:44:32Z</time>
      </trkpt>
      <trkpt lat="43.65573" lon="-1.43946">
        <ele>10.8</ele>
        <time>2021-08-08T07:44:33Z</time>
      </trkpt>
      <trkpt lat="43.65575" lon="-1.43952">
        <ele>10.6</ele>
        <time>2021-08-08T07:44:34Z</time>
      </trkpt>
      <trkpt lat="43.65577" lon="-1.43958">
        <ele>10.4</ele>
        <time>2021-08-08T07:44:35Z</time>
      </trkpt>
      <trkpt lat="43.65579" lon="-1.43964">
        <ele>10.2</ele>
        <time>2021-08-08T07:44:36Z</time>
      </trkpt>
      <trkpt lat="43.6558" lon="-1.43968">
        <ele>10</ele>
        <time>2021-08-08T07:44:37Z</time>
      </trkpt>
      <trkpt lat="43.6558" lon="-1.43971">
        <ele>9.8</ele>
        <time>2021-08-08T07:44:38Z</time>
      </trkpt>
      <trkpt lat="43.6558" lon="-1.43974">
        <ele>9.6</ele>
        <time>2021-08-08T07:44:39Z</time>
      </trkpt>
      <trkpt lat="43.65578" lon="-1.43974">
        <ele>9.6</ele>
        <time>2021-08-08T07:44:40Z</time>
      </trkpt>
      <trkpt lat="43.65577" lon="-1.43974">
        <ele>9.4</ele>
        <time>2021-08-08T07:44:41Z</time>
      </trkpt>
      <trkpt lat="43.65568" lon="-1.43965">
        <ele>9</ele>
        <time>2021-08-08T07:44:44Z</time>
      </trkpt>
      <trkpt lat="43.65565" lon="-1.43961">
        <ele>8.8</ele>
        <time>2021-08-08T07:44:45Z</time>
      </trkpt>
      <trkpt lat="43.65557" lon="-1.43958">
        <ele>8.4</ele>
        <time>2021-08-08T07:44:47Z</time>
      </trkpt>
      <trkpt lat="43.65552" lon="-1.43959">
        <ele>8.2</ele>
        <time>2021-08-08T07:44:48Z</time>
      </trkpt>
      <trkpt lat="43.65549" lon="-1.43962">
        <ele>8</ele>
        <time>2021-08-08T07:44:49Z</time>
      </trkpt>
      <trkpt lat="43.65546" lon="-1.43966">
        <ele>7.6</ele>
        <time>2021-08-08T07:44:50Z</time>
      </trkpt>
      <trkpt lat="43.65544" lon="-1.43971">
        <ele>7.6</ele>
        <time>2021-08-08T07:44:51Z</time>
      </trkpt>
      <trkpt lat="43.65542" lon="-1.43975">
        <ele>7.2</ele>
        <time>2021-08-08T07:44:52Z</time>
      </trkpt>
      <trkpt lat="43.65539" lon="-1.4398">
        <ele>7.2</ele>
        <time>2021-08-08T07:44:53Z</time>
      </trkpt>
      <trkpt lat="43.65532" lon="-1.43991">
        <ele>6.8</ele>
        <time>2021-08-08T07:44:55Z</time>
      </trkpt>
      <trkpt lat="43.65528" lon="-1.43996">
        <ele>6.6</ele>
        <time>2021-08-08T07:44:56Z</time>
      </trkpt>
      <trkpt lat="43.65525" lon="-1.44001">
        <ele>6.4</ele>
        <time>2021-08-08T07:44:57Z</time>
      </trkpt>
      <trkpt lat="43.65511" lon="-1.44043">
        <ele>6.4</ele>
        <time>2021-08-08T07:45:04Z</time>
      </trkpt>
      <trkpt lat="43.65501" lon="-1.44091">
        <ele>6.4</ele>
        <time>2021-08-08T07:45:11Z</time>
      </trkpt>
      <trkpt lat="43.65501" lon="-1.44098">
        <ele>6.6</ele>
        <time>2021-08-08T07:45:12Z</time>
      </trkpt>
      <trkpt lat="43.65499" lon="-1.44146">
        <ele>6.6</ele>
        <time>2021-08-08T07:45:19Z</time>
      </trkpt>
      <trkpt lat="43.655" lon="-1.44199">
        <ele>6.8</ele>
        <time>2021-08-08T07:45:26Z</time>
      </trkpt>
      <trkpt lat="43.65512" lon="-1.44277">
        <ele>6.6</ele>
        <time>2021-08-08T07:45:37Z</time>
      </trkpt>
      <trkpt lat="43.65513" lon="-1.44284">
        <ele>6.6</ele>
        <time>2021-08-08T07:45:38Z</time>
      </trkpt>
      <trkpt lat="43.65528" lon="-1.44345">
        <ele>6.6</ele>
        <time>2021-08-08T07:45:47Z</time>
      </trkpt>
      <trkpt lat="43.65529" lon="-1.44352">
        <ele>6.6</ele>
        <time>2021-08-08T07:45:48Z</time>
      </trkpt>
      <trkpt lat="43.6553" lon="-1.44359">
        <ele>6.8</ele>
        <time>2021-08-08T07:45:49Z</time>
      </trkpt>
      <trkpt lat="43.65532" lon="-1.44365">
        <ele>6.8</ele>
        <time>2021-08-08T07:45:50Z</time>
      </trkpt>
      <trkpt lat="43.65533" lon="-1.44372">
        <ele>6.8</ele>
        <time>2021-08-08T07:45:51Z</time>
      </trkpt>
      <trkpt lat="43.65536" lon="-1.44392">
        <ele>6.8</ele>
        <time>2021-08-08T07:45:54Z</time>
      </trkpt>
      <trkpt lat="43.65541" lon="-1.44419">
        <ele>6.8</ele>
        <time>2021-08-08T07:45:58Z</time>
      </trkpt>
      <trkpt lat="43.65548" lon="-1.44444">
        <ele>6.8</ele>
        <time>2021-08-08T07:46:02Z</time>
      </trkpt>
      <trkpt lat="43.6555" lon="-1.44451">
        <ele>6.8</ele>
        <time>2021-08-08T07:46:03Z</time>
      </trkpt>
      <trkpt lat="43.65551" lon="-1.44457">
        <ele>6.8</ele>
        <time>2021-08-08T07:46:04Z</time>
      </trkpt>
      <trkpt lat="43.65553" lon="-1.4447">
        <ele>6.8</ele>
        <time>2021-08-08T07:46:06Z</time>
      </trkpt>
      <trkpt lat="43.65556" lon="-1.44489">
        <ele>6.8</ele>
        <time>2021-08-08T07:46:09Z</time>
      </trkpt>
      <trkpt lat="43.65557" lon="-1.44495">
        <ele>6.8</ele>
        <time>2021-08-08T07:46:10Z</time>
      </trkpt>
      <trkpt lat="43.65558" lon="-1.44501">
        <ele>6.6</ele>
        <time>2021-08-08T07:46:11Z</time>
      </trkpt>
      <trkpt lat="43.6556" lon="-1.44505">
        <ele>6.6</ele>
        <time>2021-08-08T07:46:12Z</time>
      </trkpt>
      <trkpt lat="43.65562" lon="-1.44509">
        <ele>6.6</ele>
        <time>2021-08-08T07:46:13Z</time>
      </trkpt>
      <trkpt lat="43.65566" lon="-1.44511">
        <ele>6.6</ele>
        <time>2021-08-08T07:46:14Z</time>
      </trkpt>
      <trkpt lat="43.65569" lon="-1.44512">
        <ele>6.4</ele>
        <time>2021-08-08T07:46:15Z</time>
      </trkpt>
      <trkpt lat="43.65572" lon="-1.44514">
        <ele>6.4</ele>
        <time>2021-08-08T07:46:16Z</time>
      </trkpt>
      <trkpt lat="43.65574" lon="-1.44518">
        <ele>6.4</ele>
        <time>2021-08-08T07:46:17Z</time>
      </trkpt>
      <trkpt lat="43.65575" lon="-1.44522">
        <ele>6.4</ele>
        <time>2021-08-08T07:46:18Z</time>
      </trkpt>
      <trkpt lat="43.65577" lon="-1.44526">
        <ele>6.4</ele>
        <time>2021-08-08T07:46:19Z</time>
      </trkpt>
      <trkpt lat="43.65579" lon="-1.44528">
        <ele>6.2</ele>
        <time>2021-08-08T07:46:20Z</time>
      </trkpt>
      <trkpt lat="43.65583" lon="-1.4453">
        <ele>6.2</ele>
        <time>2021-08-08T07:46:21Z</time>
      </trkpt>
      <trkpt lat="43.65587" lon="-1.44531">
        <ele>6.2</ele>
        <time>2021-08-08T07:46:22Z</time>
      </trkpt>
      <trkpt lat="43.65594" lon="-1.44529">
        <ele>6.2</ele>
        <time>2021-08-08T07:46:24Z</time>
      </trkpt>
      <trkpt lat="43.65598" lon="-1.44527">
        <ele>6.2</ele>
        <time>2021-08-08T07:46:25Z</time>
      </trkpt>
      <trkpt lat="43.65601" lon="-1.44526">
        <ele>6.2</ele>
        <time>2021-08-08T07:46:26Z</time>
      </trkpt>
      <trkpt lat="43.65604" lon="-1.44525">
        <ele>6.2</ele>
        <time>2021-08-08T07:46:27Z</time>
      </trkpt>
      <trkpt lat="43.65606" lon="-1.44523">
        <ele>6.4</ele>
        <time>2021-08-08T07:46:28Z</time>
      </trkpt>
      <trkpt lat="43.65619" lon="-1.44511">
        <ele>7.4</ele>
        <time>2021-08-08T07:46:32Z</time>
      </trkpt>
      <trkpt lat="43.65626" lon="-1.44505">
        <ele>7.8</ele>
        <time>2021-08-08T07:46:34Z</time>
      </trkpt>
      <trkpt lat="43.65643" lon="-1.44488">
        <ele>8.2</ele>
        <time>2021-08-08T07:46:39Z</time>
      </trkpt>
      <trkpt lat="43.65671" lon="-1.44467">
        <ele>8.4</ele>
        <time>2021-08-08T07:46:46Z</time>
      </trkpt>
      <trkpt lat="43.6568" lon="-1.44467">
        <ele>8.6</ele>
        <time>2021-08-08T07:46:48Z</time>
      </trkpt>
      <trkpt lat="43.65684" lon="-1.44468">
        <ele>8.6</ele>
        <time>2021-08-08T07:46:49Z</time>
      </trkpt>
      <trkpt lat="43.65688" lon="-1.4447">
        <ele>8.6</ele>
        <time>2021-08-08T07:46:50Z</time>
      </trkpt>
      <trkpt lat="43.65692" lon="-1.44473">
        <ele>8.6</ele>
        <time>2021-08-08T07:46:51Z</time>
      </trkpt>
      <trkpt lat="43.65696" lon="-1.44474">
        <ele>8.6</ele>
        <time>2021-08-08T07:46:52Z</time>
      </trkpt>
      <trkpt lat="43.657" lon="-1.44474">
        <ele>8.6</ele>
        <time>2021-08-08T07:46:53Z</time>
      </trkpt>
      <trkpt lat="43.65704" lon="-1.44474">
        <ele>8.6</ele>
        <time>2021-08-08T07:46:54Z</time>
      </trkpt>
      <trkpt lat="43.65708" lon="-1.44472">
        <ele>8.4</ele>
        <time>2021-08-08T07:46:55Z</time>
      </trkpt>
      <trkpt lat="43.65712" lon="-1.44471">
        <ele>8.4</ele>
        <time>2021-08-08T07:46:56Z</time>
      </trkpt>
      <trkpt lat="43.65716" lon="-1.44469">
        <ele>8.4</ele>
        <time>2021-08-08T07:46:57Z</time>
      </trkpt>
      <trkpt lat="43.65747" lon="-1.44456">
        <ele>8.4</ele>
        <time>2021-08-08T07:47:04Z</time>
      </trkpt>
      <trkpt lat="43.65756" lon="-1.44452">
        <ele>8.6</ele>
        <time>2021-08-08T07:47:06Z</time>
      </trkpt>
      <trkpt lat="43.6577" lon="-1.4445">
        <ele>8.6</ele>
        <time>2021-08-08T07:47:09Z</time>
      </trkpt>
      <trkpt lat="43.65775" lon="-1.44448">
        <ele>8.6</ele>
        <time>2021-08-08T07:47:10Z</time>
      </trkpt>
      <trkpt lat="43.65778" lon="-1.44445">
        <ele>8.6</ele>
        <time>2021-08-08T07:47:11Z</time>
      </trkpt>
      <trkpt lat="43.65781" lon="-1.44442">
        <ele>8.6</ele>
        <time>2021-08-08T07:47:12Z</time>
      </trkpt>
      <trkpt lat="43.65783" lon="-1.44439">
        <ele>8.6</ele>
        <time>2021-08-08T07:47:13Z</time>
      </trkpt>
      <trkpt lat="43.65785" lon="-1.44435">
        <ele>8.8</ele>
        <time>2021-08-08T07:47:14Z</time>
      </trkpt>
      <trkpt lat="43.65786" lon="-1.44431">
        <ele>8.8</ele>
        <time>2021-08-08T07:47:15Z</time>
      </trkpt>
      <trkpt lat="43.65788" lon="-1.44427">
        <ele>8.8</ele>
        <time>2021-08-08T07:47:16Z</time>
      </trkpt>
      <trkpt lat="43.65792" lon="-1.44419">
        <ele>9</ele>
        <time>2021-08-08T07:47:18Z</time>
      </trkpt>
      <trkpt lat="43.65794" lon="-1.44415">
        <ele>9</ele>
        <time>2021-08-08T07:47:19Z</time>
      </trkpt>
      <trkpt lat="43.65797" lon="-1.44411">
        <ele>9</ele>
        <time>2021-08-08T07:47:20Z</time>
      </trkpt>
      <trkpt lat="43.65808" lon="-1.44403">
        <ele>9.8</ele>
        <time>2021-08-08T07:47:23Z</time>
      </trkpt>
      <trkpt lat="43.65811" lon="-1.44402">
        <ele>10</ele>
        <time>2021-08-08T07:47:24Z</time>
      </trkpt>
      <trkpt lat="43.65815" lon="-1.444">
        <ele>10.2</ele>
        <time>2021-08-08T07:47:25Z</time>
      </trkpt>
      <trkpt lat="43.65826" lon="-1.44396">
        <ele>11</ele>
        <time>2021-08-08T07:47:28Z</time>
      </trkpt>
      <trkpt lat="43.65834" lon="-1.44392">
        <ele>11.6</ele>
        <time>2021-08-08T07:47:30Z</time>
      </trkpt>
      <trkpt lat="43.65842" lon="-1.44389">
        <ele>12</ele>
        <time>2021-08-08T07:47:32Z</time>
      </trkpt>
      <trkpt lat="43.65846" lon="-1.44387">
        <ele>12.2</ele>
        <time>2021-08-08T07:47:33Z</time>
      </trkpt>
      <trkpt lat="43.65851" lon="-1.44385">
        <ele>12.4</ele>
        <time>2021-08-08T07:47:34Z</time>
      </trkpt>
      <trkpt lat="43.65856" lon="-1.44384">
        <ele>12.6</ele>
        <time>2021-08-08T07:47:35Z</time>
      </trkpt>
      <trkpt lat="43.6586" lon="-1.44383">
        <ele>12.8</ele>
        <time>2021-08-08T07:47:36Z</time>
      </trkpt>
      <trkpt lat="43.65865" lon="-1.44381">
        <ele>13</ele>
        <time>2021-08-08T07:47:37Z</time>
      </trkpt>
      <trkpt lat="43.6587" lon="-1.44379">
        <ele>13.2</ele>
        <time>2021-08-08T07:47:38Z</time>
      </trkpt>
      <trkpt lat="43.65875" lon="-1.44378">
        <ele>13.2</ele>
        <time>2021-08-08T07:47:39Z</time>
      </trkpt>
      <trkpt lat="43.6588" lon="-1.44376">
        <ele>13.4</ele>
        <time>2021-08-08T07:47:40Z</time>
      </trkpt>
      <trkpt lat="43.65885" lon="-1.44375">
        <ele>13.4</ele>
        <time>2021-08-08T07:47:41Z</time>
      </trkpt>
      <trkpt lat="43.65889" lon="-1.44373">
        <ele>13.8</ele>
        <time>2021-08-08T07:47:42Z</time>
      </trkpt>
      <trkpt lat="43.65894" lon="-1.44371">
        <ele>13.8</ele>
        <time>2021-08-08T07:47:43Z</time>
      </trkpt>
      <trkpt lat="43.65899" lon="-1.44369">
        <ele>14</ele>
        <time>2021-08-08T07:47:44Z</time>
      </trkpt>
      <trkpt lat="43.65904" lon="-1.44367">
        <ele>14</ele>
        <time>2021-08-08T07:47:45Z</time>
      </trkpt>
      <trkpt lat="43.6591" lon="-1.44366">
        <ele>14.2</ele>
        <time>2021-08-08T07:47:46Z</time>
      </trkpt>
      <trkpt lat="43.65915" lon="-1.44365">
        <ele>14.2</ele>
        <time>2021-08-08T07:47:47Z</time>
      </trkpt>
      <trkpt lat="43.6592" lon="-1.44364">
        <ele>14.2</ele>
        <time>2021-08-08T07:47:48Z</time>
      </trkpt>
      <trkpt lat="43.65925" lon="-1.44363">
        <ele>14.4</ele>
        <time>2021-08-08T07:47:49Z</time>
      </trkpt>
      <trkpt lat="43.6593" lon="-1.44362">
        <ele>14.4</ele>
        <time>2021-08-08T07:47:50Z</time>
      </trkpt>
      <trkpt lat="43.65934" lon="-1.44362">
        <ele>14.4</ele>
        <time>2021-08-08T07:47:51Z</time>
      </trkpt>
      <trkpt lat="43.65939" lon="-1.44361">
        <ele>14.4</ele>
        <time>2021-08-08T07:47:52Z</time>
      </trkpt>
      <trkpt lat="43.65944" lon="-1.44361">
        <ele>14.4</ele>
        <time>2021-08-08T07:47:53Z</time>
      </trkpt>
      <trkpt lat="43.65947" lon="-1.44361">
        <ele>14.4</ele>
        <time>2021-08-08T07:47:54Z</time>
      </trkpt>
      <trkpt lat="43.65951" lon="-1.44361">
        <ele>14.2</ele>
        <time>2021-08-08T07:47:55Z</time>
      </trkpt>
      <trkpt lat="43.65955" lon="-1.4436">
        <ele>14.2</ele>
        <time>2021-08-08T07:47:56Z</time>
      </trkpt>
      <trkpt lat="43.6596" lon="-1.44359">
        <ele>14.2</ele>
        <time>2021-08-08T07:47:57Z</time>
      </trkpt>
      <trkpt lat="43.65965" lon="-1.44358">
        <ele>13.8</ele>
        <time>2021-08-08T07:47:58Z</time>
      </trkpt>
      <trkpt lat="43.6597" lon="-1.44358">
        <ele>13.6</ele>
        <time>2021-08-08T07:47:59Z</time>
      </trkpt>
      <trkpt lat="43.65976" lon="-1.44357">
        <ele>13.8</ele>
        <time>2021-08-08T07:48:00Z</time>
      </trkpt>
      <trkpt lat="43.65999" lon="-1.44355">
        <ele>13.2</ele>
        <time>2021-08-08T07:48:05Z</time>
      </trkpt>
      <trkpt lat="43.66003" lon="-1.44355">
        <ele>13.2</ele>
        <time>2021-08-08T07:48:06Z</time>
      </trkpt>
      <trkpt lat="43.66007" lon="-1.44355">
        <ele>13.2</ele>
        <time>2021-08-08T07:48:07Z</time>
      </trkpt>
      <trkpt lat="43.6601" lon="-1.44355">
        <ele>13.2</ele>
        <time>2021-08-08T07:48:08Z</time>
      </trkpt>
      <trkpt lat="43.66014" lon="-1.44355">
        <ele>13.2</ele>
        <time>2021-08-08T07:48:09Z</time>
      </trkpt>
      <trkpt lat="43.66029" lon="-1.44357">
        <ele>13.2</ele>
        <time>2021-08-08T07:48:13Z</time>
      </trkpt>
      <trkpt lat="43.66056" lon="-1.44358">
        <ele>13.2</ele>
        <time>2021-08-08T07:48:18Z</time>
      </trkpt>
      <trkpt lat="43.66067" lon="-1.44357">
        <ele>13</ele>
        <time>2021-08-08T07:48:20Z</time>
      </trkpt>
      <trkpt lat="43.66073" lon="-1.44358">
        <ele>12.8</ele>
        <time>2021-08-08T07:48:21Z</time>
      </trkpt>
      <trkpt lat="43.66089" lon="-1.44359">
        <ele>12.4</ele>
        <time>2021-08-08T07:48:24Z</time>
      </trkpt>
      <trkpt lat="43.661" lon="-1.44358">
        <ele>12</ele>
        <time>2021-08-08T07:48:26Z</time>
      </trkpt>
      <trkpt lat="43.66104" lon="-1.44356">
        <ele>11.6</ele>
        <time>2021-08-08T07:48:27Z</time>
      </trkpt>
      <trkpt lat="43.66108" lon="-1.44352">
        <ele>11.4</ele>
        <time>2021-08-08T07:48:28Z</time>
      </trkpt>
      <trkpt lat="43.66112" lon="-1.44349">
        <ele>11.2</ele>
        <time>2021-08-08T07:48:29Z</time>
      </trkpt>
      <trkpt lat="43.66115" lon="-1.44344">
        <ele>11.2</ele>
        <time>2021-08-08T07:48:30Z</time>
      </trkpt>
      <trkpt lat="43.66118" lon="-1.4434">
        <ele>11.2</ele>
        <time>2021-08-08T07:48:31Z</time>
      </trkpt>
      <trkpt lat="43.66121" lon="-1.44335">
        <ele>11.2</ele>
        <time>2021-08-08T07:48:32Z</time>
      </trkpt>
      <trkpt lat="43.66124" lon="-1.44331">
        <ele>11.2</ele>
        <time>2021-08-08T07:48:33Z</time>
      </trkpt>
      <trkpt lat="43.66127" lon="-1.44327">
        <ele>11.2</ele>
        <time>2021-08-08T07:48:34Z</time>
      </trkpt>
      <trkpt lat="43.6613" lon="-1.44324">
        <ele>11</ele>
        <time>2021-08-08T07:48:35Z</time>
      </trkpt>
      <trkpt lat="43.66132" lon="-1.44322">
        <ele>11</ele>
        <time>2021-08-08T07:48:36Z</time>
      </trkpt>
      <trkpt lat="43.66134" lon="-1.44322">
        <ele>11</ele>
        <time>2021-08-08T07:48:37Z</time>
      </trkpt>
      <trkpt lat="43.66136" lon="-1.44323">
        <ele>11.2</ele>
        <time>2021-08-08T07:48:38Z</time>
      </trkpt>
      <trkpt lat="43.66137" lon="-1.44323">
        <ele>11.2</ele>
        <time>2021-08-08T07:48:39Z</time>
      </trkpt>
      <trkpt lat="43.66137" lon="-1.44321">
        <ele>11.2</ele>
        <time>2021-08-08T07:48:40Z</time>
      </trkpt>
      <trkpt lat="43.66137" lon="-1.4432">
        <ele>11.2</ele>
        <time>2021-08-08T07:48:41Z</time>
      </trkpt>
      <trkpt lat="43.66138" lon="-1.44318">
        <ele>11.2</ele>
        <time>2021-08-08T07:48:42Z</time>
      </trkpt>
      <trkpt lat="43.66142" lon="-1.44317">
        <ele>11.2</ele>
        <time>2021-08-08T07:48:45Z</time>
      </trkpt>
      <trkpt lat="43.66149" lon="-1.44316">
        <ele>11.4</ele>
        <time>2021-08-08T07:48:48Z</time>
      </trkpt>
      <trkpt lat="43.66152" lon="-1.44314">
        <ele>11.4</ele>
        <time>2021-08-08T07:48:49Z</time>
      </trkpt>
      <trkpt lat="43.66155" lon="-1.44313">
        <ele>11.4</ele>
        <time>2021-08-08T07:48:50Z</time>
      </trkpt>
      <trkpt lat="43.66174" lon="-1.44303">
        <ele>11.4</ele>
        <time>2021-08-08T07:48:55Z</time>
      </trkpt>
      <trkpt lat="43.66183" lon="-1.44298">
        <ele>11.6</ele>
        <time>2021-08-08T07:48:57Z</time>
      </trkpt>
      <trkpt lat="43.66187" lon="-1.44296">
        <ele>11.6</ele>
        <time>2021-08-08T07:48:58Z</time>
      </trkpt>
      <trkpt lat="43.66192" lon="-1.44293">
        <ele>11.8</ele>
        <time>2021-08-08T07:48:59Z</time>
      </trkpt>
      <trkpt lat="43.662" lon="-1.44288">
        <ele>12</ele>
        <time>2021-08-08T07:49:01Z</time>
      </trkpt>
      <trkpt lat="43.66204" lon="-1.44285">
        <ele>12</ele>
        <time>2021-08-08T07:49:02Z</time>
      </trkpt>
      <trkpt lat="43.66217" lon="-1.44268">
        <ele>12.2</ele>
        <time>2021-08-08T07:49:06Z</time>
      </trkpt>
      <trkpt lat="43.66229" lon="-1.44248">
        <ele>12.8</ele>
        <time>2021-08-08T07:49:10Z</time>
      </trkpt>
      <trkpt lat="43.6624" lon="-1.44227">
        <ele>13</ele>
        <time>2021-08-08T07:49:14Z</time>
      </trkpt>
      <trkpt lat="43.66242" lon="-1.44222">
        <ele>13</ele>
        <time>2021-08-08T07:49:15Z</time>
      </trkpt>
      <trkpt lat="43.66243" lon="-1.44217">
        <ele>13</ele>
        <time>2021-08-08T07:49:16Z</time>
      </trkpt>
      <trkpt lat="43.66244" lon="-1.44212">
        <ele>13</ele>
        <time>2021-08-08T07:49:17Z</time>
      </trkpt>
      <trkpt lat="43.66245" lon="-1.44207">
        <ele>13.2</ele>
        <time>2021-08-08T07:49:18Z</time>
      </trkpt>
      <trkpt lat="43.66245" lon="-1.44202">
        <ele>13.2</ele>
        <time>2021-08-08T07:49:19Z</time>
      </trkpt>
      <trkpt lat="43.66246" lon="-1.44199">
        <ele>13.2</ele>
        <time>2021-08-08T07:49:20Z</time>
      </trkpt>
      <trkpt lat="43.66248" lon="-1.44196">
        <ele>13.2</ele>
        <time>2021-08-08T07:49:21Z</time>
      </trkpt>
      <trkpt lat="43.66252" lon="-1.44195">
        <ele>13.4</ele>
        <time>2021-08-08T07:49:22Z</time>
      </trkpt>
      <trkpt lat="43.66258" lon="-1.44193">
        <ele>13.4</ele>
        <time>2021-08-08T07:49:24Z</time>
      </trkpt>
      <trkpt lat="43.66261" lon="-1.44191">
        <ele>13.4</ele>
        <time>2021-08-08T07:49:25Z</time>
      </trkpt>
      <trkpt lat="43.66264" lon="-1.44188">
        <ele>13.4</ele>
        <time>2021-08-08T07:49:26Z</time>
      </trkpt>
      <trkpt lat="43.66267" lon="-1.44185">
        <ele>13.4</ele>
        <time>2021-08-08T07:49:27Z</time>
      </trkpt>
      <trkpt lat="43.66278" lon="-1.44171">
        <ele>13.6</ele>
        <time>2021-08-08T07:49:31Z</time>
      </trkpt>
      <trkpt lat="43.66285" lon="-1.44166">
        <ele>13.6</ele>
        <time>2021-08-08T07:49:33Z</time>
      </trkpt>
      <trkpt lat="43.66289" lon="-1.44165">
        <ele>13.6</ele>
        <time>2021-08-08T07:49:34Z</time>
      </trkpt>
      <trkpt lat="43.66293" lon="-1.44164">
        <ele>13.6</ele>
        <time>2021-08-08T07:49:35Z</time>
      </trkpt>
      <trkpt lat="43.66303" lon="-1.4416">
        <ele>13.8</ele>
        <time>2021-08-08T07:49:38Z</time>
      </trkpt>
      <trkpt lat="43.6631" lon="-1.44156">
        <ele>13.8</ele>
        <time>2021-08-08T07:49:40Z</time>
      </trkpt>
      <trkpt lat="43.66313" lon="-1.44155">
        <ele>13.8</ele>
        <time>2021-08-08T07:49:41Z</time>
      </trkpt>
      <trkpt lat="43.66316" lon="-1.44154">
        <ele>14</ele>
        <time>2021-08-08T07:49:42Z</time>
      </trkpt>
      <trkpt lat="43.6632" lon="-1.44152">
        <ele>14</ele>
        <time>2021-08-08T07:49:43Z</time>
      </trkpt>
      <trkpt lat="43.66323" lon="-1.4415">
        <ele>14</ele>
        <time>2021-08-08T07:49:44Z</time>
      </trkpt>
      <trkpt lat="43.66327" lon="-1.44148">
        <ele>14</ele>
        <time>2021-08-08T07:49:45Z</time>
      </trkpt>
      <trkpt lat="43.66362" lon="-1.44141">
        <ele>14.2</ele>
        <time>2021-08-08T07:49:53Z</time>
      </trkpt>
      <trkpt lat="43.66396" lon="-1.44127">
        <ele>14.2</ele>
        <time>2021-08-08T07:50:00Z</time>
      </trkpt>
      <trkpt lat="43.66428" lon="-1.44116">
        <ele>14.2</ele>
        <time>2021-08-08T07:50:06Z</time>
      </trkpt>
      <trkpt lat="43.66433" lon="-1.44115">
        <ele>14.2</ele>
        <time>2021-08-08T07:50:07Z</time>
      </trkpt>
      <trkpt lat="43.66458" lon="-1.44112">
        <ele>14.2</ele>
        <time>2021-08-08T07:50:12Z</time>
      </trkpt>
      <trkpt lat="43.66463" lon="-1.44111">
        <ele>14.2</ele>
        <time>2021-08-08T07:50:13Z</time>
      </trkpt>
      <trkpt lat="43.66468" lon="-1.44111">
        <ele>14.2</ele>
        <time>2021-08-08T07:50:14Z</time>
      </trkpt>
      <trkpt lat="43.66473" lon="-1.4411">
        <ele>14.4</ele>
        <time>2021-08-08T07:50:15Z</time>
      </trkpt>
      <trkpt lat="43.66484" lon="-1.44109">
        <ele>14.4</ele>
        <time>2021-08-08T07:50:17Z</time>
      </trkpt>
      <trkpt lat="43.66525" lon="-1.44102">
        <ele>14</ele>
        <time>2021-08-08T07:50:25Z</time>
      </trkpt>
      <trkpt lat="43.66529" lon="-1.44102">
        <ele>13.8</ele>
        <time>2021-08-08T07:50:26Z</time>
      </trkpt>
      <trkpt lat="43.66534" lon="-1.44101">
        <ele>13.8</ele>
        <time>2021-08-08T07:50:27Z</time>
      </trkpt>
      <trkpt lat="43.66538" lon="-1.44101">
        <ele>13.6</ele>
        <time>2021-08-08T07:50:28Z</time>
      </trkpt>
      <trkpt lat="43.66542" lon="-1.441">
        <ele>13.6</ele>
        <time>2021-08-08T07:50:29Z</time>
      </trkpt>
      <trkpt lat="43.66546" lon="-1.441">
        <ele>13.6</ele>
        <time>2021-08-08T07:50:30Z</time>
      </trkpt>
      <trkpt lat="43.6655" lon="-1.44099">
        <ele>13.6</ele>
        <time>2021-08-08T07:50:31Z</time>
      </trkpt>
      <trkpt lat="43.66554" lon="-1.44098">
        <ele>13.6</ele>
        <time>2021-08-08T07:50:32Z</time>
      </trkpt>
      <trkpt lat="43.66559" lon="-1.44098">
        <ele>13.6</ele>
        <time>2021-08-08T07:50:33Z</time>
      </trkpt>
      <trkpt lat="43.66563" lon="-1.44097">
        <ele>13.6</ele>
        <time>2021-08-08T07:50:34Z</time>
      </trkpt>
      <trkpt lat="43.66567" lon="-1.44097">
        <ele>13.8</ele>
        <time>2021-08-08T07:50:35Z</time>
      </trkpt>
      <trkpt lat="43.6657" lon="-1.44097">
        <ele>14</ele>
        <time>2021-08-08T07:50:36Z</time>
      </trkpt>
      <trkpt lat="43.66575" lon="-1.44096">
        <ele>14</ele>
        <time>2021-08-08T07:50:37Z</time>
      </trkpt>
      <trkpt lat="43.66579" lon="-1.44095">
        <ele>14</ele>
        <time>2021-08-08T07:50:38Z</time>
      </trkpt>
      <trkpt lat="43.66611" lon="-1.44091">
        <ele>14.6</ele>
        <time>2021-08-08T07:50:46Z</time>
      </trkpt>
      <trkpt lat="43.6662" lon="-1.4409">
        <ele>15</ele>
        <time>2021-08-08T07:50:48Z</time>
      </trkpt>
      <trkpt lat="43.66638" lon="-1.44088">
        <ele>15.4</ele>
        <time>2021-08-08T07:50:52Z</time>
      </trkpt>
      <trkpt lat="43.66642" lon="-1.44088">
        <ele>15.4</ele>
        <time>2021-08-08T07:50:53Z</time>
      </trkpt>
      <trkpt lat="43.66645" lon="-1.44089">
        <ele>15.6</ele>
        <time>2021-08-08T07:50:54Z</time>
      </trkpt>
      <trkpt lat="43.66649" lon="-1.44088">
        <ele>15.6</ele>
        <time>2021-08-08T07:50:55Z</time>
      </trkpt>
      <trkpt lat="43.66656" lon="-1.44084">
        <ele>15.8</ele>
        <time>2021-08-08T07:50:57Z</time>
      </trkpt>
      <trkpt lat="43.6666" lon="-1.44082">
        <ele>15.8</ele>
        <time>2021-08-08T07:50:58Z</time>
      </trkpt>
      <trkpt lat="43.66664" lon="-1.44079">
        <ele>15.8</ele>
        <time>2021-08-08T07:50:59Z</time>
      </trkpt>
      <trkpt lat="43.66668" lon="-1.44076">
        <ele>16</ele>
        <time>2021-08-08T07:51:00Z</time>
      </trkpt>
      <trkpt lat="43.66671" lon="-1.44072">
        <ele>16</ele>
        <time>2021-08-08T07:51:01Z</time>
      </trkpt>
      <trkpt lat="43.66674" lon="-1.44068">
        <ele>16</ele>
        <time>2021-08-08T07:51:02Z</time>
      </trkpt>
      <trkpt lat="43.66683" lon="-1.44057">
        <ele>15.8</ele>
        <time>2021-08-08T07:51:05Z</time>
      </trkpt>
      <trkpt lat="43.6669" lon="-1.44046">
        <ele>15.4</ele>
        <time>2021-08-08T07:51:08Z</time>
      </trkpt>
      <trkpt lat="43.66693" lon="-1.44042">
        <ele>15.4</ele>
        <time>2021-08-08T07:51:09Z</time>
      </trkpt>
      <trkpt lat="43.66695" lon="-1.44038">
        <ele>15.2</ele>
        <time>2021-08-08T07:51:10Z</time>
      </trkpt>
      <trkpt lat="43.66698" lon="-1.44034">
        <ele>15.2</ele>
        <time>2021-08-08T07:51:11Z</time>
      </trkpt>
      <trkpt lat="43.667" lon="-1.44029">
        <ele>14.8</ele>
        <time>2021-08-08T07:51:12Z</time>
      </trkpt>
      <trkpt lat="43.66702" lon="-1.44025">
        <ele>14.8</ele>
        <time>2021-08-08T07:51:13Z</time>
      </trkpt>
      <trkpt lat="43.66704" lon="-1.44021">
        <ele>14.6</ele>
        <time>2021-08-08T07:51:14Z</time>
      </trkpt>
      <trkpt lat="43.66714" lon="-1.44004">
        <ele>13.4</ele>
        <time>2021-08-08T07:51:18Z</time>
      </trkpt>
      <trkpt lat="43.66722" lon="-1.43992">
        <ele>12.4</ele>
        <time>2021-08-08T07:51:21Z</time>
      </trkpt>
      <trkpt lat="43.66725" lon="-1.43989">
        <ele>11.6</ele>
        <time>2021-08-08T07:51:22Z</time>
      </trkpt>
      <trkpt lat="43.66727" lon="-1.43986">
        <ele>11</ele>
        <time>2021-08-08T07:51:23Z</time>
      </trkpt>
      <trkpt lat="43.66729" lon="-1.43983">
        <ele>10.8</ele>
        <time>2021-08-08T07:51:24Z</time>
      </trkpt>
      <trkpt lat="43.6673" lon="-1.43981">
        <ele>10</ele>
        <time>2021-08-08T07:51:25Z</time>
      </trkpt>
      <trkpt lat="43.66732" lon="-1.4398">
        <ele>9.8</ele>
        <time>2021-08-08T07:51:26Z</time>
      </trkpt>
      <trkpt lat="43.66735" lon="-1.43979">
        <ele>9.2</ele>
        <time>2021-08-08T07:51:27Z</time>
      </trkpt>
      <trkpt lat="43.66736" lon="-1.43979">
        <ele>9.2</ele>
        <time>2021-08-08T07:51:28Z</time>
      </trkpt>
      <trkpt lat="43.66738" lon="-1.43979">
        <ele>8.6</ele>
        <time>2021-08-08T07:51:29Z</time>
      </trkpt>
      <trkpt lat="43.66738" lon="-1.43979">
        <ele>8.4</ele>
        <time>2021-08-08T07:51:30Z</time>
      </trkpt>
      <trkpt lat="43.66739" lon="-1.43977">
        <ele>7.8</ele>
        <time>2021-08-08T07:51:34Z</time>
      </trkpt>
      <trkpt lat="43.66739" lon="-1.43975">
        <ele>7.8</ele>
        <time>2021-08-08T07:51:35Z</time>
      </trkpt>
      <trkpt lat="43.6674" lon="-1.43973">
        <ele>7.6</ele>
        <time>2021-08-08T07:51:36Z</time>
      </trkpt>
      <trkpt lat="43.6674" lon="-1.4397">
        <ele>7.6</ele>
        <time>2021-08-08T07:51:37Z</time>
      </trkpt>
      <trkpt lat="43.66741" lon="-1.43967">
        <ele>7.4</ele>
        <time>2021-08-08T07:51:38Z</time>
      </trkpt>
      <trkpt lat="43.66743" lon="-1.43964">
        <ele>7.4</ele>
        <time>2021-08-08T07:51:39Z</time>
      </trkpt>
      <trkpt lat="43.6675" lon="-1.43963">
        <ele>7.2</ele>
        <time>2021-08-08T07:51:41Z</time>
      </trkpt>
      <trkpt lat="43.66755" lon="-1.43964">
        <ele>7.2</ele>
        <time>2021-08-08T07:51:42Z</time>
      </trkpt>
      <trkpt lat="43.6676" lon="-1.43964">
        <ele>7.2</ele>
        <time>2021-08-08T07:51:43Z</time>
      </trkpt>
      <trkpt lat="43.66765" lon="-1.43964">
        <ele>7</ele>
        <time>2021-08-08T07:51:44Z</time>
      </trkpt>
      <trkpt lat="43.66786" lon="-1.43961">
        <ele>6.8</ele>
        <time>2021-08-08T07:51:48Z</time>
      </trkpt>
      <trkpt lat="43.66808" lon="-1.43957">
        <ele>6.6</ele>
        <time>2021-08-08T07:51:52Z</time>
      </trkpt>
      <trkpt lat="43.66825" lon="-1.43954">
        <ele>6.4</ele>
        <time>2021-08-08T07:51:55Z</time>
      </trkpt>
      <trkpt lat="43.66867" lon="-1.4395">
        <ele>6.2</ele>
        <time>2021-08-08T07:52:02Z</time>
      </trkpt>
      <trkpt lat="43.66912" lon="-1.43944">
        <ele>6.4</ele>
        <time>2021-08-08T07:52:09Z</time>
      </trkpt>
      <trkpt lat="43.66966" lon="-1.43938">
        <ele>6.6</ele>
        <time>2021-08-08T07:52:17Z</time>
      </trkpt>
      <trkpt lat="43.66973" lon="-1.43938">
        <ele>6.6</ele>
        <time>2021-08-08T07:52:18Z</time>
      </trkpt>
      <trkpt lat="43.66979" lon="-1.43936">
        <ele>6.6</ele>
        <time>2021-08-08T07:52:19Z</time>
      </trkpt>
      <trkpt lat="43.67006" lon="-1.43931">
        <ele>6.8</ele>
        <time>2021-08-08T07:52:23Z</time>
      </trkpt>
      <trkpt lat="43.67018" lon="-1.43929">
        <ele>7</ele>
        <time>2021-08-08T07:52:25Z</time>
      </trkpt>
      <trkpt lat="43.67031" lon="-1.43922">
        <ele>7</ele>
        <time>2021-08-08T07:52:27Z</time>
      </trkpt>
      <trkpt lat="43.67043" lon="-1.43912">
        <ele>7.2</ele>
        <time>2021-08-08T07:52:29Z</time>
      </trkpt>
      <trkpt lat="43.67057" lon="-1.43908">
        <ele>7.2</ele>
        <time>2021-08-08T07:52:31Z</time>
      </trkpt>
      <trkpt lat="43.67063" lon="-1.4391">
        <ele>7.2</ele>
        <time>2021-08-08T07:52:32Z</time>
      </trkpt>
      <trkpt lat="43.67069" lon="-1.43914">
        <ele>7.2</ele>
        <time>2021-08-08T07:52:33Z</time>
      </trkpt>
      <trkpt lat="43.67074" lon="-1.4392">
        <ele>7.2</ele>
        <time>2021-08-08T07:52:34Z</time>
      </trkpt>
      <trkpt lat="43.67078" lon="-1.43926">
        <ele>7.2</ele>
        <time>2021-08-08T07:52:35Z</time>
      </trkpt>
      <trkpt lat="43.67083" lon="-1.43932">
        <ele>7.2</ele>
        <time>2021-08-08T07:52:36Z</time>
      </trkpt>
      <trkpt lat="43.67088" lon="-1.43936">
        <ele>7.2</ele>
        <time>2021-08-08T07:52:37Z</time>
      </trkpt>
      <trkpt lat="43.67094" lon="-1.43938">
        <ele>7.2</ele>
        <time>2021-08-08T07:52:38Z</time>
      </trkpt>
      <trkpt lat="43.671" lon="-1.43938">
        <ele>7.2</ele>
        <time>2021-08-08T07:52:39Z</time>
      </trkpt>
      <trkpt lat="43.67107" lon="-1.43938">
        <ele>7.2</ele>
        <time>2021-08-08T07:52:40Z</time>
      </trkpt>
      <trkpt lat="43.67113" lon="-1.43937">
        <ele>7.2</ele>
        <time>2021-08-08T07:52:41Z</time>
      </trkpt>
      <trkpt lat="43.6712" lon="-1.43936">
        <ele>7.2</ele>
        <time>2021-08-08T07:52:42Z</time>
      </trkpt>
      <trkpt lat="43.67127" lon="-1.43934">
        <ele>7.2</ele>
        <time>2021-08-08T07:52:43Z</time>
      </trkpt>
      <trkpt lat="43.67155" lon="-1.43924">
        <ele>7.2</ele>
        <time>2021-08-08T07:52:47Z</time>
      </trkpt>
      <trkpt lat="43.6721" lon="-1.43917">
        <ele>6.8</ele>
        <time>2021-08-08T07:52:54Z</time>
      </trkpt>
      <trkpt lat="43.67269" lon="-1.43909">
        <ele>6.6</ele>
        <time>2021-08-08T07:53:02Z</time>
      </trkpt>
      <trkpt lat="43.67277" lon="-1.43908">
        <ele>6.6</ele>
        <time>2021-08-08T07:53:03Z</time>
      </trkpt>
      <trkpt lat="43.67292" lon="-1.43905">
        <ele>6.6</ele>
        <time>2021-08-08T07:53:05Z</time>
      </trkpt>
      <trkpt lat="43.67315" lon="-1.43902">
        <ele>6.6</ele>
        <time>2021-08-08T07:53:08Z</time>
      </trkpt>
      <trkpt lat="43.67322" lon="-1.43901">
        <ele>6.6</ele>
        <time>2021-08-08T07:53:09Z</time>
      </trkpt>
      <trkpt lat="43.6736" lon="-1.43896">
        <ele>6.4</ele>
        <time>2021-08-08T07:53:14Z</time>
      </trkpt>
      <trkpt lat="43.67398" lon="-1.43886">
        <ele>6.4</ele>
        <time>2021-08-08T07:53:19Z</time>
      </trkpt>
      <trkpt lat="43.67406" lon="-1.43883">
        <ele>6.4</ele>
        <time>2021-08-08T07:53:20Z</time>
      </trkpt>
      <trkpt lat="43.67439" lon="-1.43858">
        <ele>6.2</ele>
        <time>2021-08-08T07:53:25Z</time>
      </trkpt>
      <trkpt lat="43.67445" lon="-1.43851">
        <ele>6</ele>
        <time>2021-08-08T07:53:26Z</time>
      </trkpt>
      <trkpt lat="43.67457" lon="-1.43839">
        <ele>6</ele>
        <time>2021-08-08T07:53:28Z</time>
      </trkpt>
      <trkpt lat="43.67462" lon="-1.43832">
        <ele>6</ele>
        <time>2021-08-08T07:53:29Z</time>
      </trkpt>
      <trkpt lat="43.67468" lon="-1.43826">
        <ele>6</ele>
        <time>2021-08-08T07:53:30Z</time>
      </trkpt>
      <trkpt lat="43.67474" lon="-1.4382">
        <ele>6</ele>
        <time>2021-08-08T07:53:31Z</time>
      </trkpt>
      <trkpt lat="43.67479" lon="-1.43814">
        <ele>6</ele>
        <time>2021-08-08T07:53:32Z</time>
      </trkpt>
      <trkpt lat="43.67485" lon="-1.43808">
        <ele>6</ele>
        <time>2021-08-08T07:53:33Z</time>
      </trkpt>
      <trkpt lat="43.6749" lon="-1.43803">
        <ele>6</ele>
        <time>2021-08-08T07:53:34Z</time>
      </trkpt>
      <trkpt lat="43.67494" lon="-1.43797">
        <ele>6</ele>
        <time>2021-08-08T07:53:35Z</time>
      </trkpt>
      <trkpt lat="43.67498" lon="-1.43792">
        <ele>6.2</ele>
        <time>2021-08-08T07:53:36Z</time>
      </trkpt>
      <trkpt lat="43.67503" lon="-1.43787">
        <ele>6.2</ele>
        <time>2021-08-08T07:53:37Z</time>
      </trkpt>
      <trkpt lat="43.67507" lon="-1.43781">
        <ele>6.2</ele>
        <time>2021-08-08T07:53:38Z</time>
      </trkpt>
      <trkpt lat="43.6751" lon="-1.43774">
        <ele>6.2</ele>
        <time>2021-08-08T07:53:39Z</time>
      </trkpt>
      <trkpt lat="43.67514" lon="-1.43769">
        <ele>6.4</ele>
        <time>2021-08-08T07:53:40Z</time>
      </trkpt>
      <trkpt lat="43.67525" lon="-1.43763">
        <ele>6.6</ele>
        <time>2021-08-08T07:53:42Z</time>
      </trkpt>
      <trkpt lat="43.67531" lon="-1.43763">
        <ele>6.8</ele>
        <time>2021-08-08T07:53:43Z</time>
      </trkpt>
      <trkpt lat="43.67536" lon="-1.43763">
        <ele>6.8</ele>
        <time>2021-08-08T07:53:44Z</time>
      </trkpt>
      <trkpt lat="43.67542" lon="-1.43762">
        <ele>7</ele>
        <time>2021-08-08T07:53:45Z</time>
      </trkpt>
      <trkpt lat="43.67547" lon="-1.4376">
        <ele>7</ele>
        <time>2021-08-08T07:53:46Z</time>
      </trkpt>
      <trkpt lat="43.67553" lon="-1.43759">
        <ele>7.2</ele>
        <time>2021-08-08T07:53:47Z</time>
      </trkpt>
      <trkpt lat="43.67576" lon="-1.43752">
        <ele>7.8</ele>
        <time>2021-08-08T07:53:51Z</time>
      </trkpt>
      <trkpt lat="43.67582" lon="-1.4375">
        <ele>7.8</ele>
        <time>2021-08-08T07:53:52Z</time>
      </trkpt>
      <trkpt lat="43.67593" lon="-1.43751">
        <ele>8.2</ele>
        <time>2021-08-08T07:53:54Z</time>
      </trkpt>
      <trkpt lat="43.67599" lon="-1.43752">
        <ele>8.2</ele>
        <time>2021-08-08T07:53:55Z</time>
      </trkpt>
      <trkpt lat="43.67634" lon="-1.43767">
        <ele>8.4</ele>
        <time>2021-08-08T07:54:01Z</time>
      </trkpt>
      <trkpt lat="43.6764" lon="-1.43768">
        <ele>8.2</ele>
        <time>2021-08-08T07:54:02Z</time>
      </trkpt>
      <trkpt lat="43.67674" lon="-1.4378">
        <ele>7.4</ele>
        <time>2021-08-08T07:54:07Z</time>
      </trkpt>
      <trkpt lat="43.67681" lon="-1.43783">
        <ele>7.4</ele>
        <time>2021-08-08T07:54:08Z</time>
      </trkpt>
      <trkpt lat="43.67735" lon="-1.43802">
        <ele>6.8</ele>
        <time>2021-08-08T07:54:16Z</time>
      </trkpt>
      <trkpt lat="43.67791" lon="-1.43823">
        <ele>7</ele>
        <time>2021-08-08T07:54:24Z</time>
      </trkpt>
      <trkpt lat="43.67812" lon="-1.4383">
        <ele>7</ele>
        <time>2021-08-08T07:54:27Z</time>
      </trkpt>
      <trkpt lat="43.67845" lon="-1.43842">
        <ele>6.6</ele>
        <time>2021-08-08T07:54:32Z</time>
      </trkpt>
      <trkpt lat="43.67852" lon="-1.43845">
        <ele>6.6</ele>
        <time>2021-08-08T07:54:33Z</time>
      </trkpt>
      <trkpt lat="43.67866" lon="-1.4385">
        <ele>6.6</ele>
        <time>2021-08-08T07:54:35Z</time>
      </trkpt>
      <trkpt lat="43.67873" lon="-1.43851">
        <ele>6.8</ele>
        <time>2021-08-08T07:54:36Z</time>
      </trkpt>
      <trkpt lat="43.67899" lon="-1.43853">
        <ele>7.2</ele>
        <time>2021-08-08T07:54:40Z</time>
      </trkpt>
      <trkpt lat="43.67905" lon="-1.43854">
        <ele>7.2</ele>
        <time>2021-08-08T07:54:41Z</time>
      </trkpt>
      <trkpt lat="43.67911" lon="-1.43854">
        <ele>7.4</ele>
        <time>2021-08-08T07:54:42Z</time>
      </trkpt>
      <trkpt lat="43.67917" lon="-1.43854">
        <ele>7.4</ele>
        <time>2021-08-08T07:54:43Z</time>
      </trkpt>
      <trkpt lat="43.67923" lon="-1.43854">
        <ele>7.6</ele>
        <time>2021-08-08T07:54:44Z</time>
      </trkpt>
      <trkpt lat="43.67929" lon="-1.43854">
        <ele>7.8</ele>
        <time>2021-08-08T07:54:45Z</time>
      </trkpt>
      <trkpt lat="43.67934" lon="-1.43854">
        <ele>8.2</ele>
        <time>2021-08-08T07:54:46Z</time>
      </trkpt>
      <trkpt lat="43.6794" lon="-1.43854">
        <ele>8.4</ele>
        <time>2021-08-08T07:54:47Z</time>
      </trkpt>
      <trkpt lat="43.67945" lon="-1.43853">
        <ele>8.8</ele>
        <time>2021-08-08T07:54:48Z</time>
      </trkpt>
      <trkpt lat="43.67951" lon="-1.43852">
        <ele>9.2</ele>
        <time>2021-08-08T07:54:49Z</time>
      </trkpt>
      <trkpt lat="43.67956" lon="-1.43851">
        <ele>9.4</ele>
        <time>2021-08-08T07:54:50Z</time>
      </trkpt>
      <trkpt lat="43.67961" lon="-1.43849">
        <ele>9.6</ele>
        <time>2021-08-08T07:54:51Z</time>
      </trkpt>
      <trkpt lat="43.67966" lon="-1.43847">
        <ele>9.8</ele>
        <time>2021-08-08T07:54:52Z</time>
      </trkpt>
      <trkpt lat="43.67972" lon="-1.43845">
        <ele>10</ele>
        <time>2021-08-08T07:54:53Z</time>
      </trkpt>
      <trkpt lat="43.67984" lon="-1.43841">
        <ele>10.4</ele>
        <time>2021-08-08T07:54:55Z</time>
      </trkpt>
      <trkpt lat="43.6799" lon="-1.43839">
        <ele>10.4</ele>
        <time>2021-08-08T07:54:56Z</time>
      </trkpt>
      <trkpt lat="43.67996" lon="-1.43837">
        <ele>10.6</ele>
        <time>2021-08-08T07:54:57Z</time>
      </trkpt>
      <trkpt lat="43.68002" lon="-1.43836">
        <ele>10.6</ele>
        <time>2021-08-08T07:54:58Z</time>
      </trkpt>
      <trkpt lat="43.68008" lon="-1.43833">
        <ele>10.6</ele>
        <time>2021-08-08T07:54:59Z</time>
      </trkpt>
      <trkpt lat="43.68014" lon="-1.43831">
        <ele>10.8</ele>
        <time>2021-08-08T07:55:00Z</time>
      </trkpt>
      <trkpt lat="43.68021" lon="-1.43828">
        <ele>10.8</ele>
        <time>2021-08-08T07:55:01Z</time>
      </trkpt>
      <trkpt lat="43.68028" lon="-1.43825">
        <ele>10.8</ele>
        <time>2021-08-08T07:55:02Z</time>
      </trkpt>
      <trkpt lat="43.68035" lon="-1.43821">
        <ele>10.8</ele>
        <time>2021-08-08T07:55:03Z</time>
      </trkpt>
      <trkpt lat="43.68042" lon="-1.43817">
        <ele>10.8</ele>
        <time>2021-08-08T07:55:04Z</time>
      </trkpt>
      <trkpt lat="43.6805" lon="-1.43812">
        <ele>10.8</ele>
        <time>2021-08-08T07:55:05Z</time>
      </trkpt>
      <trkpt lat="43.68058" lon="-1.43806">
        <ele>10.6</ele>
        <time>2021-08-08T07:55:06Z</time>
      </trkpt>
      <trkpt lat="43.68067" lon="-1.43801">
        <ele>10.6</ele>
        <time>2021-08-08T07:55:07Z</time>
      </trkpt>
      <trkpt lat="43.68075" lon="-1.43794">
        <ele>10</ele>
        <time>2021-08-08T07:55:08Z</time>
      </trkpt>
      <trkpt lat="43.68083" lon="-1.43788">
        <ele>9.8</ele>
        <time>2021-08-08T07:55:09Z</time>
      </trkpt>
      <trkpt lat="43.68092" lon="-1.43781">
        <ele>9.2</ele>
        <time>2021-08-08T07:55:10Z</time>
      </trkpt>
      <trkpt lat="43.681" lon="-1.43775">
        <ele>8.8</ele>
        <time>2021-08-08T07:55:11Z</time>
      </trkpt>
      <trkpt lat="43.68123" lon="-1.43754">
        <ele>7.6</ele>
        <time>2021-08-08T07:55:14Z</time>
      </trkpt>
      <trkpt lat="43.68143" lon="-1.43731">
        <ele>7.2</ele>
        <time>2021-08-08T07:55:17Z</time>
      </trkpt>
      <trkpt lat="43.6815" lon="-1.43723">
        <ele>7</ele>
        <time>2021-08-08T07:55:18Z</time>
      </trkpt>
      <trkpt lat="43.68156" lon="-1.43716">
        <ele>6.8</ele>
        <time>2021-08-08T07:55:19Z</time>
      </trkpt>
      <trkpt lat="43.68162" lon="-1.43708">
        <ele>6.6</ele>
        <time>2021-08-08T07:55:20Z</time>
      </trkpt>
      <trkpt lat="43.68167" lon="-1.437">
        <ele>6.6</ele>
        <time>2021-08-08T07:55:21Z</time>
      </trkpt>
      <trkpt lat="43.68172" lon="-1.43692">
        <ele>6.4</ele>
        <time>2021-08-08T07:55:22Z</time>
      </trkpt>
      <trkpt lat="43.68176" lon="-1.43685">
        <ele>6.4</ele>
        <time>2021-08-08T07:55:23Z</time>
      </trkpt>
      <trkpt lat="43.68179" lon="-1.4368">
        <ele>6.4</ele>
        <time>2021-08-08T07:55:24Z</time>
      </trkpt>
      <trkpt lat="43.68182" lon="-1.43675">
        <ele>6.4</ele>
        <time>2021-08-08T07:55:25Z</time>
      </trkpt>
      <trkpt lat="43.68184" lon="-1.43671">
        <ele>6.4</ele>
        <time>2021-08-08T07:55:26Z</time>
      </trkpt>
      <trkpt lat="43.68187" lon="-1.43669">
        <ele>6.4</ele>
        <time>2021-08-08T07:55:27Z</time>
      </trkpt>
      <trkpt lat="43.68191" lon="-1.4367">
        <ele>6.4</ele>
        <time>2021-08-08T07:55:28Z</time>
      </trkpt>
      <trkpt lat="43.68194" lon="-1.43672">
        <ele>6.4</ele>
        <time>2021-08-08T07:55:29Z</time>
      </trkpt>
      <trkpt lat="43.68196" lon="-1.43675">
        <ele>6.4</ele>
        <time>2021-08-08T07:55:30Z</time>
      </trkpt>
      <trkpt lat="43.68198" lon="-1.43678">
        <ele>6.4</ele>
        <time>2021-08-08T07:55:31Z</time>
      </trkpt>
      <trkpt lat="43.682" lon="-1.43679">
        <ele>6.4</ele>
        <time>2021-08-08T07:55:32Z</time>
      </trkpt>
      <trkpt lat="43.68203" lon="-1.43679">
        <ele>6.6</ele>
        <time>2021-08-08T07:55:33Z</time>
      </trkpt>
      <trkpt lat="43.68207" lon="-1.43677">
        <ele>6.6</ele>
        <time>2021-08-08T07:55:34Z</time>
      </trkpt>
      <trkpt lat="43.68215" lon="-1.43672">
        <ele>6.6</ele>
        <time>2021-08-08T07:55:36Z</time>
      </trkpt>
      <trkpt lat="43.6822" lon="-1.4367">
        <ele>6.8</ele>
        <time>2021-08-08T07:55:37Z</time>
      </trkpt>
      <trkpt lat="43.68248" lon="-1.43656">
        <ele>6.8</ele>
        <time>2021-08-08T07:55:42Z</time>
      </trkpt>
      <trkpt lat="43.6826" lon="-1.43651">
        <ele>6.8</ele>
        <time>2021-08-08T07:55:44Z</time>
      </trkpt>
      <trkpt lat="43.6828" lon="-1.43648">
        <ele>6.6</ele>
        <time>2021-08-08T07:55:47Z</time>
      </trkpt>
      <trkpt lat="43.68321" lon="-1.43651">
        <ele>6.4</ele>
        <time>2021-08-08T07:55:53Z</time>
      </trkpt>
      <trkpt lat="43.68375" lon="-1.43663">
        <ele>6.8</ele>
        <time>2021-08-08T07:56:01Z</time>
      </trkpt>
      <trkpt lat="43.68418" lon="-1.43672">
        <ele>7</ele>
        <time>2021-08-08T07:56:07Z</time>
      </trkpt>
      <trkpt lat="43.68473" lon="-1.43684">
        <ele>7.2</ele>
        <time>2021-08-08T07:56:15Z</time>
      </trkpt>
      <trkpt lat="43.68479" lon="-1.43684">
        <ele>7.2</ele>
        <time>2021-08-08T07:56:16Z</time>
      </trkpt>
      <trkpt lat="43.68485" lon="-1.43686">
        <ele>7.2</ele>
        <time>2021-08-08T07:56:17Z</time>
      </trkpt>
      <trkpt lat="43.68491" lon="-1.43688">
        <ele>7.2</ele>
        <time>2021-08-08T07:56:18Z</time>
      </trkpt>
      <trkpt lat="43.68497" lon="-1.43689">
        <ele>7.2</ele>
        <time>2021-08-08T07:56:19Z</time>
      </trkpt>
      <trkpt lat="43.68503" lon="-1.43691">
        <ele>7.2</ele>
        <time>2021-08-08T07:56:20Z</time>
      </trkpt>
      <trkpt lat="43.68521" lon="-1.43696">
        <ele>7.2</ele>
        <time>2021-08-08T07:56:23Z</time>
      </trkpt>
      <trkpt lat="43.68554" lon="-1.43701">
        <ele>7.4</ele>
        <time>2021-08-08T07:56:28Z</time>
      </trkpt>
      <trkpt lat="43.68568" lon="-1.43701">
        <ele>7.4</ele>
        <time>2021-08-08T07:56:30Z</time>
      </trkpt>
      <trkpt lat="43.68574" lon="-1.43699">
        <ele>7.2</ele>
        <time>2021-08-08T07:56:31Z</time>
      </trkpt>
      <trkpt lat="43.6858" lon="-1.43698">
        <ele>7.4</ele>
        <time>2021-08-08T07:56:32Z</time>
      </trkpt>
      <trkpt lat="43.68598" lon="-1.43693">
        <ele>7.4</ele>
        <time>2021-08-08T07:56:35Z</time>
      </trkpt>
      <trkpt lat="43.68604" lon="-1.43691">
        <ele>7.6</ele>
        <time>2021-08-08T07:56:36Z</time>
      </trkpt>
      <trkpt lat="43.6861" lon="-1.43689">
        <ele>7.8</ele>
        <time>2021-08-08T07:56:37Z</time>
      </trkpt>
      <trkpt lat="43.68617" lon="-1.43687">
        <ele>7.8</ele>
        <time>2021-08-08T07:56:38Z</time>
      </trkpt>
      <trkpt lat="43.68651" lon="-1.43673">
        <ele>8</ele>
        <time>2021-08-08T07:56:43Z</time>
      </trkpt>
      <trkpt lat="43.68685" lon="-1.43671">
        <ele>7.8</ele>
        <time>2021-08-08T07:56:48Z</time>
      </trkpt>
      <trkpt lat="43.68689" lon="-1.43674">
        <ele>7.6</ele>
        <time>2021-08-08T07:56:49Z</time>
      </trkpt>
      <trkpt lat="43.68693" lon="-1.43678">
        <ele>7.6</ele>
        <time>2021-08-08T07:56:50Z</time>
      </trkpt>
      <trkpt lat="43.68695" lon="-1.43679">
        <ele>7.6</ele>
        <time>2021-08-08T07:56:51Z</time>
      </trkpt>
      <trkpt lat="43.68697" lon="-1.43679">
        <ele>7.6</ele>
        <time>2021-08-08T07:56:52Z</time>
      </trkpt>
      <trkpt lat="43.68699" lon="-1.43679">
        <ele>7.6</ele>
        <time>2021-08-08T07:56:53Z</time>
      </trkpt>
      <trkpt lat="43.687" lon="-1.43679">
        <ele>7.6</ele>
        <time>2021-08-08T07:56:54Z</time>
      </trkpt>
      <trkpt lat="43.68703" lon="-1.43679">
        <ele>7.6</ele>
        <time>2021-08-08T07:56:55Z</time>
      </trkpt>
      <trkpt lat="43.68719" lon="-1.43685">
        <ele>7.6</ele>
        <time>2021-08-08T07:57:00Z</time>
      </trkpt>
      <trkpt lat="43.68745" lon="-1.43684">
        <ele>7.6</ele>
        <time>2021-08-08T07:57:05Z</time>
      </trkpt>
      <trkpt lat="43.68756" lon="-1.43684">
        <ele>7.6</ele>
        <time>2021-08-08T07:57:07Z</time>
      </trkpt>
      <trkpt lat="43.68778" lon="-1.43685">
        <ele>7.6</ele>
        <time>2021-08-08T07:57:11Z</time>
      </trkpt>
      <trkpt lat="43.68793" lon="-1.43685">
        <ele>7.8</ele>
        <time>2021-08-08T07:57:14Z</time>
      </trkpt>
      <trkpt lat="43.68799" lon="-1.43684">
        <ele>8</ele>
        <time>2021-08-08T07:57:15Z</time>
      </trkpt>
      <trkpt lat="43.68804" lon="-1.43684">
        <ele>8.2</ele>
        <time>2021-08-08T07:57:16Z</time>
      </trkpt>
      <trkpt lat="43.6881" lon="-1.43683">
        <ele>8.4</ele>
        <time>2021-08-08T07:57:17Z</time>
      </trkpt>
      <trkpt lat="43.68822" lon="-1.4368">
        <ele>8.4</ele>
        <time>2021-08-08T07:57:19Z</time>
      </trkpt>
      <trkpt lat="43.68879" lon="-1.43665">
        <ele>9.2</ele>
        <time>2021-08-08T07:57:28Z</time>
      </trkpt>
      <trkpt lat="43.68886" lon="-1.43663">
        <ele>9.2</ele>
        <time>2021-08-08T07:57:29Z</time>
      </trkpt>
      <trkpt lat="43.68892" lon="-1.43661">
        <ele>9.4</ele>
        <time>2021-08-08T07:57:30Z</time>
      </trkpt>
      <trkpt lat="43.68932" lon="-1.43653">
        <ele>9.8</ele>
        <time>2021-08-08T07:57:36Z</time>
      </trkpt>
      <trkpt lat="43.68991" lon="-1.43639">
        <ele>10</ele>
        <time>2021-08-08T07:57:45Z</time>
      </trkpt>
      <trkpt lat="43.69022" lon="-1.43631">
        <ele>10.2</ele>
        <time>2021-08-08T07:57:50Z</time>
      </trkpt>
      <trkpt lat="43.69029" lon="-1.43629">
        <ele>10.2</ele>
        <time>2021-08-08T07:57:51Z</time>
      </trkpt>
      <trkpt lat="43.69034" lon="-1.43627">
        <ele>10.2</ele>
        <time>2021-08-08T07:57:52Z</time>
      </trkpt>
      <trkpt lat="43.6904" lon="-1.43625">
        <ele>10.2</ele>
        <time>2021-08-08T07:57:53Z</time>
      </trkpt>
      <trkpt lat="43.69046" lon="-1.43623">
        <ele>10.2</ele>
        <time>2021-08-08T07:57:54Z</time>
      </trkpt>
      <trkpt lat="43.69051" lon="-1.43621">
        <ele>10</ele>
        <time>2021-08-08T07:57:55Z</time>
      </trkpt>
      <trkpt lat="43.69056" lon="-1.43619">
        <ele>10</ele>
        <time>2021-08-08T07:57:56Z</time>
      </trkpt>
      <trkpt lat="43.69061" lon="-1.4362">
        <ele>10</ele>
        <time>2021-08-08T07:57:57Z</time>
      </trkpt>
      <trkpt lat="43.69065" lon="-1.43623">
        <ele>10</ele>
        <time>2021-08-08T07:57:58Z</time>
      </trkpt>
      <trkpt lat="43.69069" lon="-1.43626">
        <ele>10</ele>
        <time>2021-08-08T07:57:59Z</time>
      </trkpt>
      <trkpt lat="43.69072" lon="-1.43629">
        <ele>10</ele>
        <time>2021-08-08T07:58:00Z</time>
      </trkpt>
      <trkpt lat="43.69076" lon="-1.4363">
        <ele>10</ele>
        <time>2021-08-08T07:58:01Z</time>
      </trkpt>
      <trkpt lat="43.6908" lon="-1.43627">
        <ele>10</ele>
        <time>2021-08-08T07:58:02Z</time>
      </trkpt>
      <trkpt lat="43.69088" lon="-1.4362">
        <ele>9.8</ele>
        <time>2021-08-08T07:58:04Z</time>
      </trkpt>
      <trkpt lat="43.69112" lon="-1.43616">
        <ele>9.8</ele>
        <time>2021-08-08T07:58:09Z</time>
      </trkpt>
      <trkpt lat="43.69126" lon="-1.43616">
        <ele>10</ele>
        <time>2021-08-08T07:58:12Z</time>
      </trkpt>
      <trkpt lat="43.69131" lon="-1.43616">
        <ele>10</ele>
        <time>2021-08-08T07:58:13Z</time>
      </trkpt>
      <trkpt lat="43.69136" lon="-1.43615">
        <ele>10</ele>
        <time>2021-08-08T07:58:14Z</time>
      </trkpt>
      <trkpt lat="43.6914" lon="-1.43613">
        <ele>10</ele>
        <time>2021-08-08T07:58:15Z</time>
      </trkpt>
      <trkpt lat="43.69144" lon="-1.4361">
        <ele>10</ele>
        <time>2021-08-08T07:58:16Z</time>
      </trkpt>
      <trkpt lat="43.69148" lon="-1.43605">
        <ele>10</ele>
        <time>2021-08-08T07:58:17Z</time>
      </trkpt>
      <trkpt lat="43.69151" lon="-1.43601">
        <ele>10</ele>
        <time>2021-08-08T07:58:18Z</time>
      </trkpt>
      <trkpt lat="43.69155" lon="-1.43596">
        <ele>10</ele>
        <time>2021-08-08T07:58:19Z</time>
      </trkpt>
      <trkpt lat="43.69165" lon="-1.43589">
        <ele>10</ele>
        <time>2021-08-08T07:58:21Z</time>
      </trkpt>
      <trkpt lat="43.6917" lon="-1.43588">
        <ele>10</ele>
        <time>2021-08-08T07:58:22Z</time>
      </trkpt>
      <trkpt lat="43.69176" lon="-1.43587">
        <ele>10</ele>
        <time>2021-08-08T07:58:23Z</time>
      </trkpt>
      <trkpt lat="43.69182" lon="-1.43588">
        <ele>10</ele>
        <time>2021-08-08T07:58:24Z</time>
      </trkpt>
      <trkpt lat="43.69188" lon="-1.4359">
        <ele>10</ele>
        <time>2021-08-08T07:58:25Z</time>
      </trkpt>
      <trkpt lat="43.69229" lon="-1.43599">
        <ele>10.2</ele>
        <time>2021-08-08T07:58:32Z</time>
      </trkpt>
      <trkpt lat="43.69234" lon="-1.43602">
        <ele>10.2</ele>
        <time>2021-08-08T07:58:33Z</time>
      </trkpt>
      <trkpt lat="43.6924" lon="-1.43604">
        <ele>10.4</ele>
        <time>2021-08-08T07:58:34Z</time>
      </trkpt>
      <trkpt lat="43.69252" lon="-1.43606">
        <ele>10.6</ele>
        <time>2021-08-08T07:58:36Z</time>
      </trkpt>
      <trkpt lat="43.69265" lon="-1.43607">
        <ele>10.8</ele>
        <time>2021-08-08T07:58:38Z</time>
      </trkpt>
      <trkpt lat="43.69294" lon="-1.43603">
        <ele>11.6</ele>
        <time>2021-08-08T07:58:42Z</time>
      </trkpt>
      <trkpt lat="43.69301" lon="-1.43601">
        <ele>11.6</ele>
        <time>2021-08-08T07:58:43Z</time>
      </trkpt>
      <trkpt lat="43.69342" lon="-1.43587">
        <ele>11.6</ele>
        <time>2021-08-08T07:58:48Z</time>
      </trkpt>
      <trkpt lat="43.69379" lon="-1.43584">
        <ele>11.2</ele>
        <time>2021-08-08T07:58:52Z</time>
      </trkpt>
      <trkpt lat="43.69388" lon="-1.43585">
        <ele>11</ele>
        <time>2021-08-08T07:58:53Z</time>
      </trkpt>
      <trkpt lat="43.69407" lon="-1.43591">
        <ele>10.2</ele>
        <time>2021-08-08T07:58:55Z</time>
      </trkpt>
      <trkpt lat="43.69415" lon="-1.43594">
        <ele>10</ele>
        <time>2021-08-08T07:58:56Z</time>
      </trkpt>
      <trkpt lat="43.69422" lon="-1.43598">
        <ele>9.8</ele>
        <time>2021-08-08T07:58:57Z</time>
      </trkpt>
      <trkpt lat="43.6943" lon="-1.43602">
        <ele>9.8</ele>
        <time>2021-08-08T07:58:58Z</time>
      </trkpt>
      <trkpt lat="43.69436" lon="-1.43605">
        <ele>9.8</ele>
        <time>2021-08-08T07:58:59Z</time>
      </trkpt>
      <trkpt lat="43.69442" lon="-1.43609">
        <ele>9.6</ele>
        <time>2021-08-08T07:59:00Z</time>
      </trkpt>
      <trkpt lat="43.69448" lon="-1.43612">
        <ele>9.8</ele>
        <time>2021-08-08T07:59:01Z</time>
      </trkpt>
      <trkpt lat="43.69454" lon="-1.43615">
        <ele>9.8</ele>
        <time>2021-08-08T07:59:02Z</time>
      </trkpt>
      <trkpt lat="43.69459" lon="-1.43618">
        <ele>10</ele>
        <time>2021-08-08T07:59:03Z</time>
      </trkpt>
      <trkpt lat="43.69465" lon="-1.43621">
        <ele>10</ele>
        <time>2021-08-08T07:59:04Z</time>
      </trkpt>
      <trkpt lat="43.6947" lon="-1.43624">
        <ele>10.6</ele>
        <time>2021-08-08T07:59:05Z</time>
      </trkpt>
      <trkpt lat="43.69476" lon="-1.43625">
        <ele>10.8</ele>
        <time>2021-08-08T07:59:06Z</time>
      </trkpt>
      <trkpt lat="43.69482" lon="-1.43627">
        <ele>11.2</ele>
        <time>2021-08-08T07:59:07Z</time>
      </trkpt>
      <trkpt lat="43.69488" lon="-1.43627">
        <ele>11.4</ele>
        <time>2021-08-08T07:59:08Z</time>
      </trkpt>
      <trkpt lat="43.69494" lon="-1.43627">
        <ele>11.6</ele>
        <time>2021-08-08T07:59:09Z</time>
      </trkpt>
      <trkpt lat="43.69505" lon="-1.43627">
        <ele>12</ele>
        <time>2021-08-08T07:59:11Z</time>
      </trkpt>
      <trkpt lat="43.69511" lon="-1.43626">
        <ele>12.4</ele>
        <time>2021-08-08T07:59:12Z</time>
      </trkpt>
      <trkpt lat="43.69516" lon="-1.43625">
        <ele>12.6</ele>
        <time>2021-08-08T07:59:13Z</time>
      </trkpt>
      <trkpt lat="43.69522" lon="-1.43624">
        <ele>12.8</ele>
        <time>2021-08-08T07:59:14Z</time>
      </trkpt>
      <trkpt lat="43.69527" lon="-1.43623">
        <ele>13</ele>
        <time>2021-08-08T07:59:15Z</time>
      </trkpt>
      <trkpt lat="43.69533" lon="-1.43621">
        <ele>13.2</ele>
        <time>2021-08-08T07:59:16Z</time>
      </trkpt>
      <trkpt lat="43.69538" lon="-1.43619">
        <ele>13.4</ele>
        <time>2021-08-08T07:59:17Z</time>
      </trkpt>
      <trkpt lat="43.69543" lon="-1.43617">
        <ele>13.8</ele>
        <time>2021-08-08T07:59:18Z</time>
      </trkpt>
      <trkpt lat="43.69548" lon="-1.43614">
        <ele>13.8</ele>
        <time>2021-08-08T07:59:19Z</time>
      </trkpt>
      <trkpt lat="43.69553" lon="-1.43611">
        <ele>14.2</ele>
        <time>2021-08-08T07:59:20Z</time>
      </trkpt>
      <trkpt lat="43.69557" lon="-1.43608">
        <ele>14.4</ele>
        <time>2021-08-08T07:59:21Z</time>
      </trkpt>
      <trkpt lat="43.69561" lon="-1.43604">
        <ele>14.6</ele>
        <time>2021-08-08T07:59:22Z</time>
      </trkpt>
      <trkpt lat="43.69564" lon="-1.43601">
        <ele>14.8</ele>
        <time>2021-08-08T07:59:23Z</time>
      </trkpt>
      <trkpt lat="43.69567" lon="-1.43599">
        <ele>14.8</ele>
        <time>2021-08-08T07:59:24Z</time>
      </trkpt>
      <trkpt lat="43.69568" lon="-1.43597">
        <ele>14.8</ele>
        <time>2021-08-08T07:59:25Z</time>
      </trkpt>
      <trkpt lat="43.69568" lon="-1.43596">
        <ele>14.8</ele>
        <time>2021-08-08T07:59:26Z</time>
      </trkpt>
      <trkpt lat="43.69568" lon="-1.43596">
        <ele>14.8</ele>
        <time>2021-08-08T07:59:27Z</time>
      </trkpt>
      <trkpt lat="43.69568" lon="-1.43595">
        <ele>14.8</ele>
        <time>2021-08-08T07:59:28Z</time>
      </trkpt>
      <trkpt lat="43.69567" lon="-1.43593">
        <ele>14.8</ele>
        <time>2021-08-08T07:59:29Z</time>
      </trkpt>
      <trkpt lat="43.69566" lon="-1.43591">
        <ele>14.8</ele>
        <time>2021-08-08T07:59:30Z</time>
      </trkpt>
      <trkpt lat="43.69564" lon="-1.43588">
        <ele>14.6</ele>
        <time>2021-08-08T07:59:31Z</time>
      </trkpt>
      <trkpt lat="43.69561" lon="-1.43585">
        <ele>14.6</ele>
        <time>2021-08-08T07:59:32Z</time>
      </trkpt>
      <trkpt lat="43.69558" lon="-1.43581">
        <ele>14.6</ele>
        <time>2021-08-08T07:59:33Z</time>
      </trkpt>
      <trkpt lat="43.69557" lon="-1.43577">
        <ele>14.6</ele>
        <time>2021-08-08T07:59:34Z</time>
      </trkpt>
      <trkpt lat="43.69557" lon="-1.43571">
        <ele>14.4</ele>
        <time>2021-08-08T07:59:35Z</time>
      </trkpt>
      <trkpt lat="43.69559" lon="-1.43566">
        <ele>14.4</ele>
        <time>2021-08-08T07:59:36Z</time>
      </trkpt>
      <trkpt lat="43.69562" lon="-1.4356">
        <ele>14</ele>
        <time>2021-08-08T07:59:37Z</time>
      </trkpt>
      <trkpt lat="43.69565" lon="-1.43554">
        <ele>14</ele>
        <time>2021-08-08T07:59:38Z</time>
      </trkpt>
      <trkpt lat="43.69567" lon="-1.43548">
        <ele>13.8</ele>
        <time>2021-08-08T07:59:39Z</time>
      </trkpt>
      <trkpt lat="43.69581" lon="-1.435">
        <ele>13.2</ele>
        <time>2021-08-08T07:59:45Z</time>
      </trkpt>
      <trkpt lat="43.69598" lon="-1.43441">
        <ele>12.6</ele>
        <time>2021-08-08T07:59:51Z</time>
      </trkpt>
      <trkpt lat="43.69604" lon="-1.43431">
        <ele>12.4</ele>
        <time>2021-08-08T07:59:52Z</time>
      </trkpt>
      <trkpt lat="43.69616" lon="-1.43413">
        <ele>12.2</ele>
        <time>2021-08-08T07:59:54Z</time>
      </trkpt>
      <trkpt lat="43.69631" lon="-1.43399">
        <ele>11.8</ele>
        <time>2021-08-08T07:59:56Z</time>
      </trkpt>
      <trkpt lat="43.69639" lon="-1.43393">
        <ele>11.4</ele>
        <time>2021-08-08T07:59:57Z</time>
      </trkpt>
      <trkpt lat="43.69647" lon="-1.43388">
        <ele>11.4</ele>
        <time>2021-08-08T07:59:58Z</time>
      </trkpt>
      <trkpt lat="43.69664" lon="-1.43382">
        <ele>11</ele>
        <time>2021-08-08T08:00:00Z</time>
      </trkpt>
      <trkpt lat="43.69681" lon="-1.4338">
        <ele>10.8</ele>
        <time>2021-08-08T08:00:02Z</time>
      </trkpt>
      <trkpt lat="43.6969" lon="-1.43379">
        <ele>10.8</ele>
        <time>2021-08-08T08:00:03Z</time>
      </trkpt>
      <trkpt lat="43.69698" lon="-1.43378">
        <ele>10.6</ele>
        <time>2021-08-08T08:00:04Z</time>
      </trkpt>
      <trkpt lat="43.69707" lon="-1.43378">
        <ele>10.6</ele>
        <time>2021-08-08T08:00:05Z</time>
      </trkpt>
      <trkpt lat="43.69715" lon="-1.43377">
        <ele>10.4</ele>
        <time>2021-08-08T08:00:06Z</time>
      </trkpt>
      <trkpt lat="43.69723" lon="-1.43376">
        <ele>10.4</ele>
        <time>2021-08-08T08:00:07Z</time>
      </trkpt>
      <trkpt lat="43.6974" lon="-1.43375">
        <ele>10.2</ele>
        <time>2021-08-08T08:00:09Z</time>
      </trkpt>
      <trkpt lat="43.69748" lon="-1.43375">
        <ele>10.2</ele>
        <time>2021-08-08T08:00:10Z</time>
      </trkpt>
      <trkpt lat="43.69756" lon="-1.43375">
        <ele>10.2</ele>
        <time>2021-08-08T08:00:11Z</time>
      </trkpt>
      <trkpt lat="43.69763" lon="-1.43374">
        <ele>10</ele>
        <time>2021-08-08T08:00:12Z</time>
      </trkpt>
      <trkpt lat="43.6977" lon="-1.43374">
        <ele>10</ele>
        <time>2021-08-08T08:00:13Z</time>
      </trkpt>
      <trkpt lat="43.69776" lon="-1.43373">
        <ele>9.8</ele>
        <time>2021-08-08T08:00:14Z</time>
      </trkpt>
      <trkpt lat="43.6978" lon="-1.43371">
        <ele>9.8</ele>
        <time>2021-08-08T08:00:15Z</time>
      </trkpt>
      <trkpt lat="43.69782" lon="-1.43367">
        <ele>9.6</ele>
        <time>2021-08-08T08:00:16Z</time>
      </trkpt>
      <trkpt lat="43.69783" lon="-1.43362">
        <ele>9.6</ele>
        <time>2021-08-08T08:00:17Z</time>
      </trkpt>
      <trkpt lat="43.69783" lon="-1.43358">
        <ele>9.4</ele>
        <time>2021-08-08T08:00:18Z</time>
      </trkpt>
      <trkpt lat="43.69783" lon="-1.43353">
        <ele>9.2</ele>
        <time>2021-08-08T08:00:19Z</time>
      </trkpt>
      <trkpt lat="43.69784" lon="-1.43349">
        <ele>8.6</ele>
        <time>2021-08-08T08:00:20Z</time>
      </trkpt>
      <trkpt lat="43.69786" lon="-1.43346">
        <ele>8.4</ele>
        <time>2021-08-08T08:00:21Z</time>
      </trkpt>
      <trkpt lat="43.69789" lon="-1.43343">
        <ele>8</ele>
        <time>2021-08-08T08:00:22Z</time>
      </trkpt>
      <trkpt lat="43.69798" lon="-1.4334">
        <ele>7.8</ele>
        <time>2021-08-08T08:00:24Z</time>
      </trkpt>
      <trkpt lat="43.69803" lon="-1.43338">
        <ele>7.6</ele>
        <time>2021-08-08T08:00:25Z</time>
      </trkpt>
      <trkpt lat="43.69807" lon="-1.43337">
        <ele>7.6</ele>
        <time>2021-08-08T08:00:26Z</time>
      </trkpt>
      <trkpt lat="43.69817" lon="-1.43336">
        <ele>7.4</ele>
        <time>2021-08-08T08:00:28Z</time>
      </trkpt>
      <trkpt lat="43.69828" lon="-1.43338">
        <ele>7.4</ele>
        <time>2021-08-08T08:00:30Z</time>
      </trkpt>
      <trkpt lat="43.69833" lon="-1.43343">
        <ele>7.2</ele>
        <time>2021-08-08T08:00:31Z</time>
      </trkpt>
      <trkpt lat="43.69837" lon="-1.43349">
        <ele>7.2</ele>
        <time>2021-08-08T08:00:32Z</time>
      </trkpt>
      <trkpt lat="43.6984" lon="-1.43356">
        <ele>7</ele>
        <time>2021-08-08T08:00:33Z</time>
      </trkpt>
      <trkpt lat="43.69843" lon="-1.43362">
        <ele>6.8</ele>
        <time>2021-08-08T08:00:34Z</time>
      </trkpt>
      <trkpt lat="43.69846" lon="-1.43366">
        <ele>6.6</ele>
        <time>2021-08-08T08:00:35Z</time>
      </trkpt>
      <trkpt lat="43.6985" lon="-1.43368">
        <ele>6.4</ele>
        <time>2021-08-08T08:00:36Z</time>
      </trkpt>
      <trkpt lat="43.69855" lon="-1.43367">
        <ele>6.4</ele>
        <time>2021-08-08T08:00:37Z</time>
      </trkpt>
      <trkpt lat="43.6986" lon="-1.43365">
        <ele>6.2</ele>
        <time>2021-08-08T08:00:38Z</time>
      </trkpt>
      <trkpt lat="43.69871" lon="-1.43362">
        <ele>6.2</ele>
        <time>2021-08-08T08:00:40Z</time>
      </trkpt>
      <trkpt lat="43.69891" lon="-1.43364">
        <ele>6.2</ele>
        <time>2021-08-08T08:00:43Z</time>
      </trkpt>
      <trkpt lat="43.69897" lon="-1.43363">
        <ele>6.2</ele>
        <time>2021-08-08T08:00:44Z</time>
      </trkpt>
      <trkpt lat="43.69934" lon="-1.43359">
        <ele>6.6</ele>
        <time>2021-08-08T08:00:50Z</time>
      </trkpt>
      <trkpt lat="43.69939" lon="-1.43359">
        <ele>6.6</ele>
        <time>2021-08-08T08:00:51Z</time>
      </trkpt>
      <trkpt lat="43.69944" lon="-1.43359">
        <ele>6.8</ele>
        <time>2021-08-08T08:00:52Z</time>
      </trkpt>
      <trkpt lat="43.69947" lon="-1.43358">
        <ele>7</ele>
        <time>2021-08-08T08:00:53Z</time>
      </trkpt>
      <trkpt lat="43.6995" lon="-1.43355">
        <ele>7.4</ele>
        <time>2021-08-08T08:00:54Z</time>
      </trkpt>
      <trkpt lat="43.69952" lon="-1.43351">
        <ele>7.4</ele>
        <time>2021-08-08T08:00:55Z</time>
      </trkpt>
      <trkpt lat="43.69955" lon="-1.43347">
        <ele>8</ele>
        <time>2021-08-08T08:00:56Z</time>
      </trkpt>
      <trkpt lat="43.69959" lon="-1.43343">
        <ele>8.2</ele>
        <time>2021-08-08T08:00:57Z</time>
      </trkpt>
      <trkpt lat="43.69968" lon="-1.43337">
        <ele>9</ele>
        <time>2021-08-08T08:00:59Z</time>
      </trkpt>
      <trkpt lat="43.69973" lon="-1.43336">
        <ele>9</ele>
        <time>2021-08-08T08:01:00Z</time>
      </trkpt>
      <trkpt lat="43.69978" lon="-1.43337">
        <ele>9.2</ele>
        <time>2021-08-08T08:01:01Z</time>
      </trkpt>
      <trkpt lat="43.69983" lon="-1.43339">
        <ele>9.4</ele>
        <time>2021-08-08T08:01:02Z</time>
      </trkpt>
      <trkpt lat="43.69988" lon="-1.43342">
        <ele>9.4</ele>
        <time>2021-08-08T08:01:03Z</time>
      </trkpt>
      <trkpt lat="43.69993" lon="-1.43347">
        <ele>9.6</ele>
        <time>2021-08-08T08:01:04Z</time>
      </trkpt>
      <trkpt lat="43.69997" lon="-1.43352">
        <ele>9.8</ele>
        <time>2021-08-08T08:01:05Z</time>
      </trkpt>
      <trkpt lat="43.7" lon="-1.43355">
        <ele>10.2</ele>
        <time>2021-08-08T08:01:06Z</time>
      </trkpt>
      <trkpt lat="43.70004" lon="-1.43356">
        <ele>10.4</ele>
        <time>2021-08-08T08:01:07Z</time>
      </trkpt>
      <trkpt lat="43.70009" lon="-1.43356">
        <ele>10.8</ele>
        <time>2021-08-08T08:01:08Z</time>
      </trkpt>
      <trkpt lat="43.70014" lon="-1.43356">
        <ele>11.2</ele>
        <time>2021-08-08T08:01:09Z</time>
      </trkpt>
      <trkpt lat="43.7002" lon="-1.43355">
        <ele>11.2</ele>
        <time>2021-08-08T08:01:10Z</time>
      </trkpt>
      <trkpt lat="43.70026" lon="-1.43355">
        <ele>11.4</ele>
        <time>2021-08-08T08:01:11Z</time>
      </trkpt>
      <trkpt lat="43.70032" lon="-1.43354">
        <ele>11.4</ele>
        <time>2021-08-08T08:01:12Z</time>
      </trkpt>
      <trkpt lat="43.70039" lon="-1.43353">
        <ele>11.6</ele>
        <time>2021-08-08T08:01:13Z</time>
      </trkpt>
      <trkpt lat="43.70045" lon="-1.43352">
        <ele>11.6</ele>
        <time>2021-08-08T08:01:14Z</time>
      </trkpt>
      <trkpt lat="43.70052" lon="-1.43351">
        <ele>11.6</ele>
        <time>2021-08-08T08:01:15Z</time>
      </trkpt>
      <trkpt lat="43.70059" lon="-1.43351">
        <ele>11.6</ele>
        <time>2021-08-08T08:01:16Z</time>
      </trkpt>
      <trkpt lat="43.70066" lon="-1.4335">
        <ele>11.6</ele>
        <time>2021-08-08T08:01:17Z</time>
      </trkpt>
      <trkpt lat="43.70073" lon="-1.4335">
        <ele>11.6</ele>
        <time>2021-08-08T08:01:18Z</time>
      </trkpt>
      <trkpt lat="43.70081" lon="-1.4335">
        <ele>11.6</ele>
        <time>2021-08-08T08:01:19Z</time>
      </trkpt>
      <trkpt lat="43.70088" lon="-1.4335">
        <ele>11.6</ele>
        <time>2021-08-08T08:01:20Z</time>
      </trkpt>
      <trkpt lat="43.70096" lon="-1.43349">
        <ele>11.4</ele>
        <time>2021-08-08T08:01:21Z</time>
      </trkpt>
      <trkpt lat="43.70103" lon="-1.43349">
        <ele>11.4</ele>
        <time>2021-08-08T08:01:22Z</time>
      </trkpt>
      <trkpt lat="43.70111" lon="-1.43349">
        <ele>11.4</ele>
        <time>2021-08-08T08:01:23Z</time>
      </trkpt>
      <trkpt lat="43.70118" lon="-1.43349">
        <ele>11.4</ele>
        <time>2021-08-08T08:01:24Z</time>
      </trkpt>
      <trkpt lat="43.70126" lon="-1.43349">
        <ele>11.2</ele>
        <time>2021-08-08T08:01:25Z</time>
      </trkpt>
      <trkpt lat="43.70133" lon="-1.43349">
        <ele>11.2</ele>
        <time>2021-08-08T08:01:26Z</time>
      </trkpt>
      <trkpt lat="43.70141" lon="-1.43349">
        <ele>11.2</ele>
        <time>2021-08-08T08:01:27Z</time>
      </trkpt>
      <trkpt lat="43.70148" lon="-1.43349">
        <ele>11</ele>
        <time>2021-08-08T08:01:28Z</time>
      </trkpt>
      <trkpt lat="43.70204" lon="-1.43347">
        <ele>10</ele>
        <time>2021-08-08T08:01:35Z</time>
      </trkpt>
      <trkpt lat="43.7022" lon="-1.43347">
        <ele>9.4</ele>
        <time>2021-08-08T08:01:37Z</time>
      </trkpt>
      <trkpt lat="43.70226" lon="-1.43346">
        <ele>9.4</ele>
        <time>2021-08-08T08:01:38Z</time>
      </trkpt>
      <trkpt lat="43.70233" lon="-1.43346">
        <ele>9</ele>
        <time>2021-08-08T08:01:39Z</time>
      </trkpt>
      <trkpt lat="43.7024" lon="-1.43345">
        <ele>8.8</ele>
        <time>2021-08-08T08:01:40Z</time>
      </trkpt>
      <trkpt lat="43.70246" lon="-1.43345">
        <ele>8.6</ele>
        <time>2021-08-08T08:01:41Z</time>
      </trkpt>
      <trkpt lat="43.70253" lon="-1.43344">
        <ele>8.4</ele>
        <time>2021-08-08T08:01:42Z</time>
      </trkpt>
      <trkpt lat="43.7026" lon="-1.43343">
        <ele>7.8</ele>
        <time>2021-08-08T08:01:43Z</time>
      </trkpt>
      <trkpt lat="43.70279" lon="-1.4334">
        <ele>7</ele>
        <time>2021-08-08T08:01:46Z</time>
      </trkpt>
      <trkpt lat="43.70284" lon="-1.43336">
        <ele>6.8</ele>
        <time>2021-08-08T08:01:47Z</time>
      </trkpt>
      <trkpt lat="43.70288" lon="-1.43332">
        <ele>6.8</ele>
        <time>2021-08-08T08:01:48Z</time>
      </trkpt>
      <trkpt lat="43.70291" lon="-1.43326">
        <ele>6.8</ele>
        <time>2021-08-08T08:01:49Z</time>
      </trkpt>
      <trkpt lat="43.70296" lon="-1.43321">
        <ele>6.6</ele>
        <time>2021-08-08T08:01:50Z</time>
      </trkpt>
      <trkpt lat="43.70301" lon="-1.43319">
        <ele>6.6</ele>
        <time>2021-08-08T08:01:51Z</time>
      </trkpt>
      <trkpt lat="43.70306" lon="-1.43317">
        <ele>6.8</ele>
        <time>2021-08-08T08:01:52Z</time>
      </trkpt>
      <trkpt lat="43.70311" lon="-1.43318">
        <ele>6.8</ele>
        <time>2021-08-08T08:01:53Z</time>
      </trkpt>
      <trkpt lat="43.70315" lon="-1.43318">
        <ele>7</ele>
        <time>2021-08-08T08:01:54Z</time>
      </trkpt>
      <trkpt lat="43.70319" lon="-1.43319">
        <ele>7.2</ele>
        <time>2021-08-08T08:01:55Z</time>
      </trkpt>
      <trkpt lat="43.70322" lon="-1.4332">
        <ele>7.4</ele>
        <time>2021-08-08T08:01:56Z</time>
      </trkpt>
      <trkpt lat="43.70325" lon="-1.43321">
        <ele>7.6</ele>
        <time>2021-08-08T08:01:57Z</time>
      </trkpt>
      <trkpt lat="43.70329" lon="-1.43321">
        <ele>8.2</ele>
        <time>2021-08-08T08:01:58Z</time>
      </trkpt>
      <trkpt lat="43.70334" lon="-1.4332">
        <ele>8.2</ele>
        <time>2021-08-08T08:01:59Z</time>
      </trkpt>
      <trkpt lat="43.70338" lon="-1.43318">
        <ele>8.6</ele>
        <time>2021-08-08T08:02:00Z</time>
      </trkpt>
      <trkpt lat="43.70342" lon="-1.43316">
        <ele>9</ele>
        <time>2021-08-08T08:02:01Z</time>
      </trkpt>
      <trkpt lat="43.70347" lon="-1.43314">
        <ele>9.6</ele>
        <time>2021-08-08T08:02:02Z</time>
      </trkpt>
      <trkpt lat="43.70356" lon="-1.43308">
        <ele>10.2</ele>
        <time>2021-08-08T08:02:04Z</time>
      </trkpt>
      <trkpt lat="43.70372" lon="-1.433">
        <ele>10.8</ele>
        <time>2021-08-08T08:02:07Z</time>
      </trkpt>
      <trkpt lat="43.70383" lon="-1.43295">
        <ele>11</ele>
        <time>2021-08-08T08:02:09Z</time>
      </trkpt>
      <trkpt lat="43.70388" lon="-1.43292">
        <ele>11.2</ele>
        <time>2021-08-08T08:02:10Z</time>
      </trkpt>
      <trkpt lat="43.70394" lon="-1.43288">
        <ele>11.4</ele>
        <time>2021-08-08T08:02:11Z</time>
      </trkpt>
      <trkpt lat="43.70399" lon="-1.43283">
        <ele>11.6</ele>
        <time>2021-08-08T08:02:12Z</time>
      </trkpt>
      <trkpt lat="43.70404" lon="-1.43279">
        <ele>11.8</ele>
        <time>2021-08-08T08:02:13Z</time>
      </trkpt>
      <trkpt lat="43.7041" lon="-1.43275">
        <ele>11.8</ele>
        <time>2021-08-08T08:02:14Z</time>
      </trkpt>
      <trkpt lat="43.70417" lon="-1.4327">
        <ele>11.8</ele>
        <time>2021-08-08T08:02:15Z</time>
      </trkpt>
      <trkpt lat="43.70423" lon="-1.43265">
        <ele>12</ele>
        <time>2021-08-08T08:02:16Z</time>
      </trkpt>
      <trkpt lat="43.7043" lon="-1.43261">
        <ele>12</ele>
        <time>2021-08-08T08:02:17Z</time>
      </trkpt>
      <trkpt lat="43.70436" lon="-1.43256">
        <ele>12</ele>
        <time>2021-08-08T08:02:18Z</time>
      </trkpt>
      <trkpt lat="43.70442" lon="-1.43252">
        <ele>12</ele>
        <time>2021-08-08T08:02:19Z</time>
      </trkpt>
      <trkpt lat="43.70449" lon="-1.43248">
        <ele>12</ele>
        <time>2021-08-08T08:02:20Z</time>
      </trkpt>
      <trkpt lat="43.70455" lon="-1.43243">
        <ele>12</ele>
        <time>2021-08-08T08:02:21Z</time>
      </trkpt>
      <trkpt lat="43.70462" lon="-1.43238">
        <ele>12</ele>
        <time>2021-08-08T08:02:22Z</time>
      </trkpt>
      <trkpt lat="43.70468" lon="-1.43234">
        <ele>11.8</ele>
        <time>2021-08-08T08:02:23Z</time>
      </trkpt>
      <trkpt lat="43.70475" lon="-1.43229">
        <ele>11.8</ele>
        <time>2021-08-08T08:02:24Z</time>
      </trkpt>
      <trkpt lat="43.70481" lon="-1.43224">
        <ele>11.4</ele>
        <time>2021-08-08T08:02:25Z</time>
      </trkpt>
      <trkpt lat="43.70488" lon="-1.43219">
        <ele>11.4</ele>
        <time>2021-08-08T08:02:26Z</time>
      </trkpt>
      <trkpt lat="43.70495" lon="-1.43214">
        <ele>11.2</ele>
        <time>2021-08-08T08:02:27Z</time>
      </trkpt>
      <trkpt lat="43.70501" lon="-1.43209">
        <ele>11</ele>
        <time>2021-08-08T08:02:28Z</time>
      </trkpt>
      <trkpt lat="43.70507" lon="-1.43204">
        <ele>11</ele>
        <time>2021-08-08T08:02:29Z</time>
      </trkpt>
      <trkpt lat="43.70512" lon="-1.432">
        <ele>10.6</ele>
        <time>2021-08-08T08:02:30Z</time>
      </trkpt>
      <trkpt lat="43.70516" lon="-1.43195">
        <ele>10.4</ele>
        <time>2021-08-08T08:02:31Z</time>
      </trkpt>
      <trkpt lat="43.70518" lon="-1.4319">
        <ele>10</ele>
        <time>2021-08-08T08:02:32Z</time>
      </trkpt>
      <trkpt lat="43.70519" lon="-1.43185">
        <ele>9.6</ele>
        <time>2021-08-08T08:02:33Z</time>
      </trkpt>
      <trkpt lat="43.70519" lon="-1.4318">
        <ele>9</ele>
        <time>2021-08-08T08:02:34Z</time>
      </trkpt>
      <trkpt lat="43.7052" lon="-1.43176">
        <ele>8.6</ele>
        <time>2021-08-08T08:02:35Z</time>
      </trkpt>
      <trkpt lat="43.70522" lon="-1.43173">
        <ele>8</ele>
        <time>2021-08-08T08:02:36Z</time>
      </trkpt>
      <trkpt lat="43.70524" lon="-1.4317">
        <ele>7.6</ele>
        <time>2021-08-08T08:02:37Z</time>
      </trkpt>
      <trkpt lat="43.70528" lon="-1.43166">
        <ele>7.4</ele>
        <time>2021-08-08T08:02:38Z</time>
      </trkpt>
      <trkpt lat="43.70532" lon="-1.43163">
        <ele>7.2</ele>
        <time>2021-08-08T08:02:39Z</time>
      </trkpt>
      <trkpt lat="43.70537" lon="-1.43162">
        <ele>7.2</ele>
        <time>2021-08-08T08:02:40Z</time>
      </trkpt>
      <trkpt lat="43.70542" lon="-1.43162">
        <ele>7</ele>
        <time>2021-08-08T08:02:41Z</time>
      </trkpt>
      <trkpt lat="43.70551" lon="-1.43167">
        <ele>6.8</ele>
        <time>2021-08-08T08:02:43Z</time>
      </trkpt>
      <trkpt lat="43.70555" lon="-1.43165">
        <ele>6.8</ele>
        <time>2021-08-08T08:02:44Z</time>
      </trkpt>
      <trkpt lat="43.70559" lon="-1.43162">
        <ele>7.2</ele>
        <time>2021-08-08T08:02:45Z</time>
      </trkpt>
      <trkpt lat="43.70564" lon="-1.43158">
        <ele>7.2</ele>
        <time>2021-08-08T08:02:46Z</time>
      </trkpt>
      <trkpt lat="43.7058" lon="-1.43142">
        <ele>7.6</ele>
        <time>2021-08-08T08:02:49Z</time>
      </trkpt>
      <trkpt lat="43.70621" lon="-1.43104">
        <ele>7.8</ele>
        <time>2021-08-08T08:02:56Z</time>
      </trkpt>
      <trkpt lat="43.70627" lon="-1.43099">
        <ele>7.6</ele>
        <time>2021-08-08T08:02:57Z</time>
      </trkpt>
      <trkpt lat="43.70673" lon="-1.43062">
        <ele>7.2</ele>
        <time>2021-08-08T08:03:04Z</time>
      </trkpt>
      <trkpt lat="43.7068" lon="-1.43058">
        <ele>7</ele>
        <time>2021-08-08T08:03:05Z</time>
      </trkpt>
      <trkpt lat="43.70686" lon="-1.43054">
        <ele>7</ele>
        <time>2021-08-08T08:03:06Z</time>
      </trkpt>
      <trkpt lat="43.70692" lon="-1.4305">
        <ele>7</ele>
        <time>2021-08-08T08:03:07Z</time>
      </trkpt>
      <trkpt lat="43.70698" lon="-1.43047">
        <ele>6.8</ele>
        <time>2021-08-08T08:03:08Z</time>
      </trkpt>
      <trkpt lat="43.70703" lon="-1.43043">
        <ele>6.8</ele>
        <time>2021-08-08T08:03:09Z</time>
      </trkpt>
      <trkpt lat="43.70706" lon="-1.43038">
        <ele>6.8</ele>
        <time>2021-08-08T08:03:10Z</time>
      </trkpt>
      <trkpt lat="43.7071" lon="-1.43032">
        <ele>6.8</ele>
        <time>2021-08-08T08:03:11Z</time>
      </trkpt>
      <trkpt lat="43.70712" lon="-1.43025">
        <ele>6.8</ele>
        <time>2021-08-08T08:03:12Z</time>
      </trkpt>
      <trkpt lat="43.70714" lon="-1.43018">
        <ele>6.8</ele>
        <time>2021-08-08T08:03:13Z</time>
      </trkpt>
      <trkpt lat="43.70716" lon="-1.43012">
        <ele>6.8</ele>
        <time>2021-08-08T08:03:14Z</time>
      </trkpt>
      <trkpt lat="43.70717" lon="-1.43005">
        <ele>7</ele>
        <time>2021-08-08T08:03:15Z</time>
      </trkpt>
      <trkpt lat="43.70719" lon="-1.42998">
        <ele>7</ele>
        <time>2021-08-08T08:03:16Z</time>
      </trkpt>
      <trkpt lat="43.70721" lon="-1.42991">
        <ele>7.2</ele>
        <time>2021-08-08T08:03:17Z</time>
      </trkpt>
      <trkpt lat="43.70723" lon="-1.42984">
        <ele>7.4</ele>
        <time>2021-08-08T08:03:18Z</time>
      </trkpt>
      <trkpt lat="43.70725" lon="-1.42976">
        <ele>7.8</ele>
        <time>2021-08-08T08:03:19Z</time>
      </trkpt>
      <trkpt lat="43.70727" lon="-1.42969">
        <ele>8</ele>
        <time>2021-08-08T08:03:20Z</time>
      </trkpt>
      <trkpt lat="43.7073" lon="-1.42962">
        <ele>8.4</ele>
        <time>2021-08-08T08:03:21Z</time>
      </trkpt>
      <trkpt lat="43.70735" lon="-1.42946">
        <ele>8.8</ele>
        <time>2021-08-08T08:03:23Z</time>
      </trkpt>
      <trkpt lat="43.70735" lon="-1.42926">
        <ele>8.8</ele>
        <time>2021-08-08T08:03:25Z</time>
      </trkpt>
      <trkpt lat="43.70742" lon="-1.42876">
        <ele>8.8</ele>
        <time>2021-08-08T08:03:30Z</time>
      </trkpt>
      <trkpt lat="43.70743" lon="-1.42868">
        <ele>8.8</ele>
        <time>2021-08-08T08:03:31Z</time>
      </trkpt>
      <trkpt lat="43.70744" lon="-1.42859">
        <ele>8.8</ele>
        <time>2021-08-08T08:03:32Z</time>
      </trkpt>
      <trkpt lat="43.70745" lon="-1.42848">
        <ele>8.6</ele>
        <time>2021-08-08T08:03:33Z</time>
      </trkpt>
      <trkpt lat="43.70746" lon="-1.42839">
        <ele>8.6</ele>
        <time>2021-08-08T08:03:34Z</time>
      </trkpt>
      <trkpt lat="43.70759" lon="-1.42793">
        <ele>8.8</ele>
        <time>2021-08-08T08:03:39Z</time>
      </trkpt>
      <trkpt lat="43.70763" lon="-1.42785">
        <ele>8.8</ele>
        <time>2021-08-08T08:03:40Z</time>
      </trkpt>
      <trkpt lat="43.70766" lon="-1.42779">
        <ele>8.8</ele>
        <time>2021-08-08T08:03:41Z</time>
      </trkpt>
      <trkpt lat="43.70769" lon="-1.4277">
        <ele>8.8</ele>
        <time>2021-08-08T08:03:42Z</time>
      </trkpt>
      <trkpt lat="43.70772" lon="-1.42763">
        <ele>9</ele>
        <time>2021-08-08T08:03:43Z</time>
      </trkpt>
      <trkpt lat="43.70774" lon="-1.42756">
        <ele>9</ele>
        <time>2021-08-08T08:03:44Z</time>
      </trkpt>
      <trkpt lat="43.70777" lon="-1.42748">
        <ele>9</ele>
        <time>2021-08-08T08:03:45Z</time>
      </trkpt>
      <trkpt lat="43.70782" lon="-1.42734">
        <ele>9.6</ele>
        <time>2021-08-08T08:03:47Z</time>
      </trkpt>
      <trkpt lat="43.70784" lon="-1.42714">
        <ele>10.2</ele>
        <time>2021-08-08T08:03:49Z</time>
      </trkpt>
      <trkpt lat="43.70787" lon="-1.42704">
        <ele>10.2</ele>
        <time>2021-08-08T08:03:50Z</time>
      </trkpt>
      <trkpt lat="43.70793" lon="-1.42691">
        <ele>10.6</ele>
        <time>2021-08-08T08:03:52Z</time>
      </trkpt>
      <trkpt lat="43.70796" lon="-1.42684">
        <ele>10.8</ele>
        <time>2021-08-08T08:03:53Z</time>
      </trkpt>
      <trkpt lat="43.70799" lon="-1.42678">
        <ele>10.8</ele>
        <time>2021-08-08T08:03:54Z</time>
      </trkpt>
      <trkpt lat="43.70804" lon="-1.42655">
        <ele>11.2</ele>
        <time>2021-08-08T08:03:57Z</time>
      </trkpt>
      <trkpt lat="43.70807" lon="-1.42648">
        <ele>11.4</ele>
        <time>2021-08-08T08:03:58Z</time>
      </trkpt>
      <trkpt lat="43.70809" lon="-1.42641">
        <ele>11.4</ele>
        <time>2021-08-08T08:03:59Z</time>
      </trkpt>
      <trkpt lat="43.70811" lon="-1.42633">
        <ele>11.6</ele>
        <time>2021-08-08T08:04:00Z</time>
      </trkpt>
      <trkpt lat="43.70813" lon="-1.42625">
        <ele>11.8</ele>
        <time>2021-08-08T08:04:01Z</time>
      </trkpt>
      <trkpt lat="43.70815" lon="-1.42619">
        <ele>11.8</ele>
        <time>2021-08-08T08:04:02Z</time>
      </trkpt>
      <trkpt lat="43.70817" lon="-1.42612">
        <ele>12</ele>
        <time>2021-08-08T08:04:03Z</time>
      </trkpt>
      <trkpt lat="43.70819" lon="-1.42602">
        <ele>12.2</ele>
        <time>2021-08-08T08:04:04Z</time>
      </trkpt>
      <trkpt lat="43.70821" lon="-1.42592">
        <ele>12.2</ele>
        <time>2021-08-08T08:04:05Z</time>
      </trkpt>
      <trkpt lat="43.70823" lon="-1.42585">
        <ele>12.2</ele>
        <time>2021-08-08T08:04:06Z</time>
      </trkpt>
      <trkpt lat="43.70826" lon="-1.42579">
        <ele>12.2</ele>
        <time>2021-08-08T08:04:07Z</time>
      </trkpt>
      <trkpt lat="43.70829" lon="-1.42572">
        <ele>12.2</ele>
        <time>2021-08-08T08:04:08Z</time>
      </trkpt>
      <trkpt lat="43.70832" lon="-1.42565">
        <ele>12.2</ele>
        <time>2021-08-08T08:04:09Z</time>
      </trkpt>
      <trkpt lat="43.70834" lon="-1.42558">
        <ele>12.4</ele>
        <time>2021-08-08T08:04:10Z</time>
      </trkpt>
      <trkpt lat="43.70836" lon="-1.42549">
        <ele>12.4</ele>
        <time>2021-08-08T08:04:11Z</time>
      </trkpt>
      <trkpt lat="43.70838" lon="-1.42541">
        <ele>12.4</ele>
        <time>2021-08-08T08:04:12Z</time>
      </trkpt>
      <trkpt lat="43.7084" lon="-1.42532">
        <ele>12.4</ele>
        <time>2021-08-08T08:04:13Z</time>
      </trkpt>
      <trkpt lat="43.70843" lon="-1.42524">
        <ele>12.4</ele>
        <time>2021-08-08T08:04:14Z</time>
      </trkpt>
      <trkpt lat="43.70845" lon="-1.42516">
        <ele>12.6</ele>
        <time>2021-08-08T08:04:15Z</time>
      </trkpt>
      <trkpt lat="43.70847" lon="-1.42506">
        <ele>12.6</ele>
        <time>2021-08-08T08:04:16Z</time>
      </trkpt>
      <trkpt lat="43.7085" lon="-1.42497">
        <ele>12.6</ele>
        <time>2021-08-08T08:04:17Z</time>
      </trkpt>
      <trkpt lat="43.70852" lon="-1.42487">
        <ele>12.6</ele>
        <time>2021-08-08T08:04:18Z</time>
      </trkpt>
      <trkpt lat="43.70855" lon="-1.42455">
        <ele>12.4</ele>
        <time>2021-08-08T08:04:21Z</time>
      </trkpt>
      <trkpt lat="43.70855" lon="-1.42431">
        <ele>12.4</ele>
        <time>2021-08-08T08:04:23Z</time>
      </trkpt>
      <trkpt lat="43.70854" lon="-1.42419">
        <ele>12.4</ele>
        <time>2021-08-08T08:04:24Z</time>
      </trkpt>
      <trkpt lat="43.70852" lon="-1.42394">
        <ele>12</ele>
        <time>2021-08-08T08:04:26Z</time>
      </trkpt>
      <trkpt lat="43.70851" lon="-1.42381">
        <ele>11.8</ele>
        <time>2021-08-08T08:04:27Z</time>
      </trkpt>
      <trkpt lat="43.7085" lon="-1.4237">
        <ele>11.8</ele>
        <time>2021-08-08T08:04:28Z</time>
      </trkpt>
      <trkpt lat="43.70844" lon="-1.42344">
        <ele>11.6</ele>
        <time>2021-08-08T08:04:30Z</time>
      </trkpt>
      <trkpt lat="43.70837" lon="-1.42316">
        <ele>11.4</ele>
        <time>2021-08-08T08:04:32Z</time>
      </trkpt>
      <trkpt lat="43.70833" lon="-1.42308">
        <ele>11.2</ele>
        <time>2021-08-08T08:04:33Z</time>
      </trkpt>
      <trkpt lat="43.70828" lon="-1.42297">
        <ele>11.2</ele>
        <time>2021-08-08T08:04:34Z</time>
      </trkpt>
      <trkpt lat="43.70823" lon="-1.42287">
        <ele>11.2</ele>
        <time>2021-08-08T08:04:35Z</time>
      </trkpt>
      <trkpt lat="43.70819" lon="-1.42278">
        <ele>11.2</ele>
        <time>2021-08-08T08:04:36Z</time>
      </trkpt>
      <trkpt lat="43.70814" lon="-1.42269">
        <ele>11</ele>
        <time>2021-08-08T08:04:37Z</time>
      </trkpt>
      <trkpt lat="43.70804" lon="-1.42251">
        <ele>11.2</ele>
        <time>2021-08-08T08:04:39Z</time>
      </trkpt>
      <trkpt lat="43.70799" lon="-1.42244">
        <ele>11.2</ele>
        <time>2021-08-08T08:04:40Z</time>
      </trkpt>
      <trkpt lat="43.70794" lon="-1.42238">
        <ele>11.2</ele>
        <time>2021-08-08T08:04:41Z</time>
      </trkpt>
      <trkpt lat="43.70789" lon="-1.42232">
        <ele>11.2</ele>
        <time>2021-08-08T08:04:42Z</time>
      </trkpt>
      <trkpt lat="43.70783" lon="-1.42227">
        <ele>11.2</ele>
        <time>2021-08-08T08:04:43Z</time>
      </trkpt>
      <trkpt lat="43.70778" lon="-1.42222">
        <ele>11.4</ele>
        <time>2021-08-08T08:04:44Z</time>
      </trkpt>
      <trkpt lat="43.70774" lon="-1.42216">
        <ele>11.4</ele>
        <time>2021-08-08T08:04:45Z</time>
      </trkpt>
      <trkpt lat="43.7077" lon="-1.4221">
        <ele>11.6</ele>
        <time>2021-08-08T08:04:46Z</time>
      </trkpt>
      <trkpt lat="43.70766" lon="-1.42204">
        <ele>12</ele>
        <time>2021-08-08T08:04:47Z</time>
      </trkpt>
      <trkpt lat="43.70762" lon="-1.42198">
        <ele>12.2</ele>
        <time>2021-08-08T08:04:48Z</time>
      </trkpt>
      <trkpt lat="43.70754" lon="-1.42184">
        <ele>12.8</ele>
        <time>2021-08-08T08:04:50Z</time>
      </trkpt>
      <trkpt lat="43.70751" lon="-1.42177">
        <ele>13</ele>
        <time>2021-08-08T08:04:51Z</time>
      </trkpt>
      <trkpt lat="43.70748" lon="-1.42169">
        <ele>13.2</ele>
        <time>2021-08-08T08:04:52Z</time>
      </trkpt>
      <trkpt lat="43.70732" lon="-1.42135">
        <ele>14</ele>
        <time>2021-08-08T08:04:56Z</time>
      </trkpt>
      <trkpt lat="43.70727" lon="-1.42127">
        <ele>14.2</ele>
        <time>2021-08-08T08:04:57Z</time>
      </trkpt>
      <trkpt lat="43.70722" lon="-1.4212">
        <ele>14.2</ele>
        <time>2021-08-08T08:04:58Z</time>
      </trkpt>
      <trkpt lat="43.70718" lon="-1.42113">
        <ele>14.2</ele>
        <time>2021-08-08T08:04:59Z</time>
      </trkpt>
      <trkpt lat="43.70713" lon="-1.42107">
        <ele>14.2</ele>
        <time>2021-08-08T08:05:00Z</time>
      </trkpt>
      <trkpt lat="43.70708" lon="-1.421">
        <ele>14.2</ele>
        <time>2021-08-08T08:05:01Z</time>
      </trkpt>
      <trkpt lat="43.70704" lon="-1.42093">
        <ele>14.2</ele>
        <time>2021-08-08T08:05:02Z</time>
      </trkpt>
      <trkpt lat="43.707" lon="-1.42087">
        <ele>14.2</ele>
        <time>2021-08-08T08:05:03Z</time>
      </trkpt>
      <trkpt lat="43.70695" lon="-1.4208">
        <ele>14.2</ele>
        <time>2021-08-08T08:05:04Z</time>
      </trkpt>
      <trkpt lat="43.70689" lon="-1.42074">
        <ele>14.2</ele>
        <time>2021-08-08T08:05:05Z</time>
      </trkpt>
      <trkpt lat="43.70683" lon="-1.42068">
        <ele>14.2</ele>
        <time>2021-08-08T08:05:06Z</time>
      </trkpt>
      <trkpt lat="43.70677" lon="-1.42063">
        <ele>14.2</ele>
        <time>2021-08-08T08:05:07Z</time>
      </trkpt>
      <trkpt lat="43.70671" lon="-1.4206">
        <ele>14.2</ele>
        <time>2021-08-08T08:05:08Z</time>
      </trkpt>
      <trkpt lat="43.70665" lon="-1.42056">
        <ele>14.2</ele>
        <time>2021-08-08T08:05:09Z</time>
      </trkpt>
      <trkpt lat="43.70659" lon="-1.42053">
        <ele>14.2</ele>
        <time>2021-08-08T08:05:10Z</time>
      </trkpt>
      <trkpt lat="43.70654" lon="-1.42051">
        <ele>14</ele>
        <time>2021-08-08T08:05:11Z</time>
      </trkpt>
      <trkpt lat="43.70649" lon="-1.4205">
        <ele>14</ele>
        <time>2021-08-08T08:05:12Z</time>
      </trkpt>
      <trkpt lat="43.70644" lon="-1.42049">
        <ele>13.8</ele>
        <time>2021-08-08T08:05:13Z</time>
      </trkpt>
      <trkpt lat="43.70639" lon="-1.42049">
        <ele>13.6</ele>
        <time>2021-08-08T08:05:14Z</time>
      </trkpt>
      <trkpt lat="43.70633" lon="-1.4205">
        <ele>13.4</ele>
        <time>2021-08-08T08:05:15Z</time>
      </trkpt>
      <trkpt lat="43.70619" lon="-1.42047">
        <ele>13.2</ele>
        <time>2021-08-08T08:05:17Z</time>
      </trkpt>
      <trkpt lat="43.70614" lon="-1.42043">
        <ele>12.8</ele>
        <time>2021-08-08T08:05:18Z</time>
      </trkpt>
      <trkpt lat="43.70611" lon="-1.42037">
        <ele>12.6</ele>
        <time>2021-08-08T08:05:19Z</time>
      </trkpt>
      <trkpt lat="43.70609" lon="-1.42029">
        <ele>12.6</ele>
        <time>2021-08-08T08:05:20Z</time>
      </trkpt>
      <trkpt lat="43.70609" lon="-1.42022">
        <ele>12.2</ele>
        <time>2021-08-08T08:05:21Z</time>
      </trkpt>
      <trkpt lat="43.70608" lon="-1.42015">
        <ele>12.2</ele>
        <time>2021-08-08T08:05:22Z</time>
      </trkpt>
      <trkpt lat="43.70606" lon="-1.42008">
        <ele>12</ele>
        <time>2021-08-08T08:05:23Z</time>
      </trkpt>
      <trkpt lat="43.70602" lon="-1.41993">
        <ele>11.8</ele>
        <time>2021-08-08T08:05:25Z</time>
      </trkpt>
      <trkpt lat="43.70598" lon="-1.41986">
        <ele>11.6</ele>
        <time>2021-08-08T08:05:26Z</time>
      </trkpt>
      <trkpt lat="43.7059" lon="-1.41972">
        <ele>11.2</ele>
        <time>2021-08-08T08:05:28Z</time>
      </trkpt>
      <trkpt lat="43.70589" lon="-1.41965">
        <ele>11</ele>
        <time>2021-08-08T08:05:29Z</time>
      </trkpt>
      <trkpt lat="43.7059" lon="-1.41957">
        <ele>11</ele>
        <time>2021-08-08T08:05:30Z</time>
      </trkpt>
      <trkpt lat="43.70592" lon="-1.4195">
        <ele>10.8</ele>
        <time>2021-08-08T08:05:31Z</time>
      </trkpt>
      <trkpt lat="43.70594" lon="-1.41943">
        <ele>10.8</ele>
        <time>2021-08-08T08:05:32Z</time>
      </trkpt>
      <trkpt lat="43.70594" lon="-1.41935">
        <ele>10.6</ele>
        <time>2021-08-08T08:05:33Z</time>
      </trkpt>
      <trkpt lat="43.70596" lon="-1.41912">
        <ele>10.6</ele>
        <time>2021-08-08T08:05:36Z</time>
      </trkpt>
      <trkpt lat="43.70597" lon="-1.41905">
        <ele>10.4</ele>
        <time>2021-08-08T08:05:37Z</time>
      </trkpt>
      <trkpt lat="43.70598" lon="-1.41897">
        <ele>10.4</ele>
        <time>2021-08-08T08:05:38Z</time>
      </trkpt>
      <trkpt lat="43.706" lon="-1.41889">
        <ele>10.4</ele>
        <time>2021-08-08T08:05:39Z</time>
      </trkpt>
      <trkpt lat="43.70603" lon="-1.41881">
        <ele>10.2</ele>
        <time>2021-08-08T08:05:40Z</time>
      </trkpt>
      <trkpt lat="43.70605" lon="-1.41874">
        <ele>10.2</ele>
        <time>2021-08-08T08:05:41Z</time>
      </trkpt>
      <trkpt lat="43.70605" lon="-1.41868">
        <ele>10.2</ele>
        <time>2021-08-08T08:05:42Z</time>
      </trkpt>
      <trkpt lat="43.70602" lon="-1.41863">
        <ele>10.4</ele>
        <time>2021-08-08T08:05:43Z</time>
      </trkpt>
      <trkpt lat="43.70597" lon="-1.4186">
        <ele>10.4</ele>
        <time>2021-08-08T08:05:44Z</time>
      </trkpt>
      <trkpt lat="43.70594" lon="-1.41859">
        <ele>10.4</ele>
        <time>2021-08-08T08:05:45Z</time>
      </trkpt>
      <trkpt lat="43.70592" lon="-1.41855">
        <ele>10.6</ele>
        <time>2021-08-08T08:05:46Z</time>
      </trkpt>
      <trkpt lat="43.70592" lon="-1.41852">
        <ele>10.6</ele>
        <time>2021-08-08T08:05:47Z</time>
      </trkpt>
      <trkpt lat="43.70594" lon="-1.41846">
        <ele>10.6</ele>
        <time>2021-08-08T08:05:48Z</time>
      </trkpt>
      <trkpt lat="43.70603" lon="-1.41831">
        <ele>10.6</ele>
        <time>2021-08-08T08:05:51Z</time>
      </trkpt>
      <trkpt lat="43.70605" lon="-1.41826">
        <ele>10.6</ele>
        <time>2021-08-08T08:05:52Z</time>
      </trkpt>
      <trkpt lat="43.70608" lon="-1.4182">
        <ele>10.6</ele>
        <time>2021-08-08T08:05:53Z</time>
      </trkpt>
      <trkpt lat="43.7061" lon="-1.41815">
        <ele>10.4</ele>
        <time>2021-08-08T08:05:54Z</time>
      </trkpt>
      <trkpt lat="43.70612" lon="-1.41803">
        <ele>10.4</ele>
        <time>2021-08-08T08:05:56Z</time>
      </trkpt>
      <trkpt lat="43.70613" lon="-1.41792">
        <ele>10.2</ele>
        <time>2021-08-08T08:05:58Z</time>
      </trkpt>
      <trkpt lat="43.70615" lon="-1.41788">
        <ele>10.2</ele>
        <time>2021-08-08T08:05:59Z</time>
      </trkpt>
      <trkpt lat="43.70619" lon="-1.41786">
        <ele>10.2</ele>
        <time>2021-08-08T08:06:00Z</time>
      </trkpt>
      <trkpt lat="43.70622" lon="-1.41784">
        <ele>10.2</ele>
        <time>2021-08-08T08:06:01Z</time>
      </trkpt>
      <trkpt lat="43.70625" lon="-1.41782">
        <ele>10.2</ele>
        <time>2021-08-08T08:06:02Z</time>
      </trkpt>
      <trkpt lat="43.70629" lon="-1.4178">
        <ele>10.2</ele>
        <time>2021-08-08T08:06:03Z</time>
      </trkpt>
      <trkpt lat="43.70632" lon="-1.4178">
        <ele>10.4</ele>
        <time>2021-08-08T08:06:04Z</time>
      </trkpt>
      <trkpt lat="43.70635" lon="-1.41781">
        <ele>10.4</ele>
        <time>2021-08-08T08:06:05Z</time>
      </trkpt>
      <trkpt lat="43.70639" lon="-1.41783">
        <ele>10.4</ele>
        <time>2021-08-08T08:06:06Z</time>
      </trkpt>
      <trkpt lat="43.70642" lon="-1.41785">
        <ele>10.4</ele>
        <time>2021-08-08T08:06:07Z</time>
      </trkpt>
      <trkpt lat="43.70646" lon="-1.41787">
        <ele>10.6</ele>
        <time>2021-08-08T08:06:08Z</time>
      </trkpt>
      <trkpt lat="43.7065" lon="-1.41786">
        <ele>10.6</ele>
        <time>2021-08-08T08:06:09Z</time>
      </trkpt>
      <trkpt lat="43.70654" lon="-1.41785">
        <ele>10.6</ele>
        <time>2021-08-08T08:06:10Z</time>
      </trkpt>
      <trkpt lat="43.70657" lon="-1.41783">
        <ele>10.6</ele>
        <time>2021-08-08T08:06:11Z</time>
      </trkpt>
      <trkpt lat="43.70661" lon="-1.41779">
        <ele>10.6</ele>
        <time>2021-08-08T08:06:12Z</time>
      </trkpt>
      <trkpt lat="43.70666" lon="-1.41776">
        <ele>10.8</ele>
        <time>2021-08-08T08:06:13Z</time>
      </trkpt>
      <trkpt lat="43.70677" lon="-1.41768">
        <ele>10.8</ele>
        <time>2021-08-08T08:06:15Z</time>
      </trkpt>
      <trkpt lat="43.70695" lon="-1.41754">
        <ele>11</ele>
        <time>2021-08-08T08:06:18Z</time>
      </trkpt>
      <trkpt lat="43.70707" lon="-1.41744">
        <ele>11</ele>
        <time>2021-08-08T08:06:20Z</time>
      </trkpt>
      <trkpt lat="43.70714" lon="-1.41739">
        <ele>11</ele>
        <time>2021-08-08T08:06:21Z</time>
      </trkpt>
      <trkpt lat="43.70733" lon="-1.41725">
        <ele>11.2</ele>
        <time>2021-08-08T08:06:24Z</time>
      </trkpt>
      <trkpt lat="43.70739" lon="-1.4172">
        <ele>11.4</ele>
        <time>2021-08-08T08:06:25Z</time>
      </trkpt>
      <trkpt lat="43.70759" lon="-1.41706">
        <ele>11.6</ele>
        <time>2021-08-08T08:06:28Z</time>
      </trkpt>
      <trkpt lat="43.70771" lon="-1.417">
        <ele>11.8</ele>
        <time>2021-08-08T08:06:30Z</time>
      </trkpt>
      <trkpt lat="43.70777" lon="-1.41699">
        <ele>12</ele>
        <time>2021-08-08T08:06:31Z</time>
      </trkpt>
      <trkpt lat="43.70783" lon="-1.41698">
        <ele>12</ele>
        <time>2021-08-08T08:06:32Z</time>
      </trkpt>
      <trkpt lat="43.7079" lon="-1.41697">
        <ele>12.2</ele>
        <time>2021-08-08T08:06:33Z</time>
      </trkpt>
      <trkpt lat="43.70796" lon="-1.41697">
        <ele>12.4</ele>
        <time>2021-08-08T08:06:34Z</time>
      </trkpt>
      <trkpt lat="43.70801" lon="-1.41698">
        <ele>12.6</ele>
        <time>2021-08-08T08:06:35Z</time>
      </trkpt>
      <trkpt lat="43.70806" lon="-1.41699">
        <ele>12.6</ele>
        <time>2021-08-08T08:06:36Z</time>
      </trkpt>
      <trkpt lat="43.70833" lon="-1.41714">
        <ele>13.6</ele>
        <time>2021-08-08T08:06:41Z</time>
      </trkpt>
      <trkpt lat="43.70839" lon="-1.41719">
        <ele>13.8</ele>
        <time>2021-08-08T08:06:42Z</time>
      </trkpt>
      <trkpt lat="43.7085" lon="-1.41729">
        <ele>14</ele>
        <time>2021-08-08T08:06:44Z</time>
      </trkpt>
      <trkpt lat="43.70854" lon="-1.41736">
        <ele>14.2</ele>
        <time>2021-08-08T08:06:45Z</time>
      </trkpt>
      <trkpt lat="43.70859" lon="-1.41743">
        <ele>14.2</ele>
        <time>2021-08-08T08:06:46Z</time>
      </trkpt>
      <trkpt lat="43.70863" lon="-1.4175">
        <ele>14.2</ele>
        <time>2021-08-08T08:06:47Z</time>
      </trkpt>
      <trkpt lat="43.70867" lon="-1.41758">
        <ele>14.4</ele>
        <time>2021-08-08T08:06:48Z</time>
      </trkpt>
      <trkpt lat="43.7087" lon="-1.41766">
        <ele>14.6</ele>
        <time>2021-08-08T08:06:49Z</time>
      </trkpt>
      <trkpt lat="43.70875" lon="-1.41775">
        <ele>14.6</ele>
        <time>2021-08-08T08:06:50Z</time>
      </trkpt>
      <trkpt lat="43.70879" lon="-1.41783">
        <ele>14.8</ele>
        <time>2021-08-08T08:06:51Z</time>
      </trkpt>
      <trkpt lat="43.70883" lon="-1.41791">
        <ele>14.6</ele>
        <time>2021-08-08T08:06:52Z</time>
      </trkpt>
      <trkpt lat="43.70887" lon="-1.41799">
        <ele>14.8</ele>
        <time>2021-08-08T08:06:53Z</time>
      </trkpt>
      <trkpt lat="43.70892" lon="-1.41807">
        <ele>14.8</ele>
        <time>2021-08-08T08:06:54Z</time>
      </trkpt>
      <trkpt lat="43.70897" lon="-1.41815">
        <ele>14.8</ele>
        <time>2021-08-08T08:06:55Z</time>
      </trkpt>
      <trkpt lat="43.70901" lon="-1.41822">
        <ele>15</ele>
        <time>2021-08-08T08:06:56Z</time>
      </trkpt>
      <trkpt lat="43.70906" lon="-1.4183">
        <ele>15</ele>
        <time>2021-08-08T08:06:57Z</time>
      </trkpt>
      <trkpt lat="43.70911" lon="-1.41837">
        <ele>15</ele>
        <time>2021-08-08T08:06:58Z</time>
      </trkpt>
      <trkpt lat="43.70917" lon="-1.41844">
        <ele>15</ele>
        <time>2021-08-08T08:06:59Z</time>
      </trkpt>
      <trkpt lat="43.70922" lon="-1.41851">
        <ele>15</ele>
        <time>2021-08-08T08:07:00Z</time>
      </trkpt>
      <trkpt lat="43.70928" lon="-1.41859">
        <ele>15</ele>
        <time>2021-08-08T08:07:01Z</time>
      </trkpt>
      <trkpt lat="43.70934" lon="-1.41865">
        <ele>15</ele>
        <time>2021-08-08T08:07:02Z</time>
      </trkpt>
      <trkpt lat="43.70941" lon="-1.41872">
        <ele>14.8</ele>
        <time>2021-08-08T08:07:03Z</time>
      </trkpt>
      <trkpt lat="43.70948" lon="-1.41878">
        <ele>14.8</ele>
        <time>2021-08-08T08:07:04Z</time>
      </trkpt>
      <trkpt lat="43.70963" lon="-1.41889">
        <ele>14.8</ele>
        <time>2021-08-08T08:07:06Z</time>
      </trkpt>
      <trkpt lat="43.7098" lon="-1.41898">
        <ele>14.6</ele>
        <time>2021-08-08T08:07:08Z</time>
      </trkpt>
      <trkpt lat="43.71006" lon="-1.41907">
        <ele>13.8</ele>
        <time>2021-08-08T08:07:11Z</time>
      </trkpt>
      <trkpt lat="43.71015" lon="-1.4191">
        <ele>13.2</ele>
        <time>2021-08-08T08:07:12Z</time>
      </trkpt>
      <trkpt lat="43.71033" lon="-1.41912">
        <ele>12.6</ele>
        <time>2021-08-08T08:07:14Z</time>
      </trkpt>
      <trkpt lat="43.71051" lon="-1.4191">
        <ele>12.2</ele>
        <time>2021-08-08T08:07:16Z</time>
      </trkpt>
      <trkpt lat="43.71069" lon="-1.41905">
        <ele>12</ele>
        <time>2021-08-08T08:07:18Z</time>
      </trkpt>
      <trkpt lat="43.71103" lon="-1.41899">
        <ele>11.6</ele>
        <time>2021-08-08T08:07:22Z</time>
      </trkpt>
      <trkpt lat="43.71112" lon="-1.41896">
        <ele>11.6</ele>
        <time>2021-08-08T08:07:23Z</time>
      </trkpt>
      <trkpt lat="43.71138" lon="-1.41888">
        <ele>11.4</ele>
        <time>2021-08-08T08:07:26Z</time>
      </trkpt>
      <trkpt lat="43.71146" lon="-1.41886">
        <ele>11.2</ele>
        <time>2021-08-08T08:07:27Z</time>
      </trkpt>
      <trkpt lat="43.71163" lon="-1.41881">
        <ele>11.2</ele>
        <time>2021-08-08T08:07:29Z</time>
      </trkpt>
      <trkpt lat="43.71171" lon="-1.4188">
        <ele>11</ele>
        <time>2021-08-08T08:07:30Z</time>
      </trkpt>
      <trkpt lat="43.71179" lon="-1.41879">
        <ele>11</ele>
        <time>2021-08-08T08:07:31Z</time>
      </trkpt>
      <trkpt lat="43.71187" lon="-1.41879">
        <ele>11</ele>
        <time>2021-08-08T08:07:32Z</time>
      </trkpt>
      <trkpt lat="43.71195" lon="-1.4188">
        <ele>11.2</ele>
        <time>2021-08-08T08:07:33Z</time>
      </trkpt>
      <trkpt lat="43.71202" lon="-1.41882">
        <ele>11.2</ele>
        <time>2021-08-08T08:07:34Z</time>
      </trkpt>
      <trkpt lat="43.71209" lon="-1.41884">
        <ele>11.2</ele>
        <time>2021-08-08T08:07:35Z</time>
      </trkpt>
      <trkpt lat="43.71216" lon="-1.41887">
        <ele>11.4</ele>
        <time>2021-08-08T08:07:36Z</time>
      </trkpt>
      <trkpt lat="43.71222" lon="-1.41891">
        <ele>11.4</ele>
        <time>2021-08-08T08:07:37Z</time>
      </trkpt>
      <trkpt lat="43.71228" lon="-1.41894">
        <ele>11.6</ele>
        <time>2021-08-08T08:07:38Z</time>
      </trkpt>
      <trkpt lat="43.71244" lon="-1.41909">
        <ele>12.2</ele>
        <time>2021-08-08T08:07:41Z</time>
      </trkpt>
      <trkpt lat="43.71249" lon="-1.41914">
        <ele>12.6</ele>
        <time>2021-08-08T08:07:42Z</time>
      </trkpt>
      <trkpt lat="43.71254" lon="-1.41919">
        <ele>12.6</ele>
        <time>2021-08-08T08:07:43Z</time>
      </trkpt>
      <trkpt lat="43.71259" lon="-1.41925">
        <ele>12.8</ele>
        <time>2021-08-08T08:07:44Z</time>
      </trkpt>
      <trkpt lat="43.71264" lon="-1.41929">
        <ele>12.8</ele>
        <time>2021-08-08T08:07:45Z</time>
      </trkpt>
      <trkpt lat="43.71271" lon="-1.41933">
        <ele>13</ele>
        <time>2021-08-08T08:07:46Z</time>
      </trkpt>
      <trkpt lat="43.71277" lon="-1.41935">
        <ele>13</ele>
        <time>2021-08-08T08:07:47Z</time>
      </trkpt>
      <trkpt lat="43.71284" lon="-1.41936">
        <ele>13</ele>
        <time>2021-08-08T08:07:48Z</time>
      </trkpt>
      <trkpt lat="43.71291" lon="-1.41939">
        <ele>13</ele>
        <time>2021-08-08T08:07:49Z</time>
      </trkpt>
      <trkpt lat="43.71298" lon="-1.41942">
        <ele>13</ele>
        <time>2021-08-08T08:07:50Z</time>
      </trkpt>
      <trkpt lat="43.71305" lon="-1.41948">
        <ele>13</ele>
        <time>2021-08-08T08:07:51Z</time>
      </trkpt>
      <trkpt lat="43.71311" lon="-1.41956">
        <ele>12.8</ele>
        <time>2021-08-08T08:07:52Z</time>
      </trkpt>
      <trkpt lat="43.71316" lon="-1.41965">
        <ele>12.6</ele>
        <time>2021-08-08T08:07:53Z</time>
      </trkpt>
      <trkpt lat="43.71321" lon="-1.41975">
        <ele>12.6</ele>
        <time>2021-08-08T08:07:54Z</time>
      </trkpt>
      <trkpt lat="43.71327" lon="-1.41985">
        <ele>12.6</ele>
        <time>2021-08-08T08:07:55Z</time>
      </trkpt>
      <trkpt lat="43.71342" lon="-1.42004">
        <ele>12</ele>
        <time>2021-08-08T08:07:57Z</time>
      </trkpt>
      <trkpt lat="43.71356" lon="-1.42021">
        <ele>11</ele>
        <time>2021-08-08T08:07:59Z</time>
      </trkpt>
      <trkpt lat="43.71363" lon="-1.42028">
        <ele>10.6</ele>
        <time>2021-08-08T08:08:00Z</time>
      </trkpt>
      <trkpt lat="43.7137" lon="-1.42036">
        <ele>10.2</ele>
        <time>2021-08-08T08:08:01Z</time>
      </trkpt>
      <trkpt lat="43.71376" lon="-1.42043">
        <ele>10</ele>
        <time>2021-08-08T08:08:02Z</time>
      </trkpt>
      <trkpt lat="43.71383" lon="-1.42049">
        <ele>10</ele>
        <time>2021-08-08T08:08:03Z</time>
      </trkpt>
      <trkpt lat="43.71389" lon="-1.42056">
        <ele>10</ele>
        <time>2021-08-08T08:08:04Z</time>
      </trkpt>
      <trkpt lat="43.71395" lon="-1.42062">
        <ele>9.8</ele>
        <time>2021-08-08T08:08:05Z</time>
      </trkpt>
      <trkpt lat="43.71401" lon="-1.42067">
        <ele>10</ele>
        <time>2021-08-08T08:08:06Z</time>
      </trkpt>
      <trkpt lat="43.71407" lon="-1.42071">
        <ele>10</ele>
        <time>2021-08-08T08:08:07Z</time>
      </trkpt>
      <trkpt lat="43.71413" lon="-1.42076">
        <ele>10.2</ele>
        <time>2021-08-08T08:08:08Z</time>
      </trkpt>
      <trkpt lat="43.71419" lon="-1.4208">
        <ele>10.2</ele>
        <time>2021-08-08T08:08:09Z</time>
      </trkpt>
      <trkpt lat="43.71456" lon="-1.42098">
        <ele>10.8</ele>
        <time>2021-08-08T08:08:14Z</time>
      </trkpt>
      <trkpt lat="43.71493" lon="-1.4211">
        <ele>10.8</ele>
        <time>2021-08-08T08:08:19Z</time>
      </trkpt>
      <trkpt lat="43.71501" lon="-1.42111">
        <ele>10.8</ele>
        <time>2021-08-08T08:08:20Z</time>
      </trkpt>
      <trkpt lat="43.71509" lon="-1.4211">
        <ele>10.8</ele>
        <time>2021-08-08T08:08:21Z</time>
      </trkpt>
      <trkpt lat="43.71534" lon="-1.42109">
        <ele>10.6</ele>
        <time>2021-08-08T08:08:24Z</time>
      </trkpt>
      <trkpt lat="43.71542" lon="-1.42109">
        <ele>10.6</ele>
        <time>2021-08-08T08:08:25Z</time>
      </trkpt>
      <trkpt lat="43.71557" lon="-1.42108">
        <ele>10.6</ele>
        <time>2021-08-08T08:08:27Z</time>
      </trkpt>
      <trkpt lat="43.71564" lon="-1.42106">
        <ele>10.6</ele>
        <time>2021-08-08T08:08:28Z</time>
      </trkpt>
      <trkpt lat="43.7157" lon="-1.42103">
        <ele>10.6</ele>
        <time>2021-08-08T08:08:29Z</time>
      </trkpt>
      <trkpt lat="43.71577" lon="-1.42099">
        <ele>10.6</ele>
        <time>2021-08-08T08:08:30Z</time>
      </trkpt>
      <trkpt lat="43.71584" lon="-1.42095">
        <ele>10.6</ele>
        <time>2021-08-08T08:08:31Z</time>
      </trkpt>
      <trkpt lat="43.71597" lon="-1.42087">
        <ele>10.6</ele>
        <time>2021-08-08T08:08:33Z</time>
      </trkpt>
      <trkpt lat="43.71603" lon="-1.42082">
        <ele>10.6</ele>
        <time>2021-08-08T08:08:34Z</time>
      </trkpt>
      <trkpt lat="43.71609" lon="-1.42076">
        <ele>10.6</ele>
        <time>2021-08-08T08:08:35Z</time>
      </trkpt>
      <trkpt lat="43.7162" lon="-1.42063">
        <ele>10.8</ele>
        <time>2021-08-08T08:08:37Z</time>
      </trkpt>
      <trkpt lat="43.71626" lon="-1.42056">
        <ele>10.8</ele>
        <time>2021-08-08T08:08:38Z</time>
      </trkpt>
      <trkpt lat="43.71643" lon="-1.42033">
        <ele>11</ele>
        <time>2021-08-08T08:08:41Z</time>
      </trkpt>
      <trkpt lat="43.71647" lon="-1.42025">
        <ele>11</ele>
        <time>2021-08-08T08:08:42Z</time>
      </trkpt>
      <trkpt lat="43.71652" lon="-1.42016">
        <ele>11.2</ele>
        <time>2021-08-08T08:08:43Z</time>
      </trkpt>
      <trkpt lat="43.71675" lon="-1.41977">
        <ele>12.2</ele>
        <time>2021-08-08T08:08:48Z</time>
      </trkpt>
      <trkpt lat="43.71679" lon="-1.41969">
        <ele>12.2</ele>
        <time>2021-08-08T08:08:49Z</time>
      </trkpt>
      <trkpt lat="43.71684" lon="-1.41963">
        <ele>12.4</ele>
        <time>2021-08-08T08:08:50Z</time>
      </trkpt>
      <trkpt lat="43.71688" lon="-1.41956">
        <ele>12.4</ele>
        <time>2021-08-08T08:08:51Z</time>
      </trkpt>
      <trkpt lat="43.71692" lon="-1.4195">
        <ele>12.6</ele>
        <time>2021-08-08T08:08:52Z</time>
      </trkpt>
      <trkpt lat="43.71696" lon="-1.41945">
        <ele>13</ele>
        <time>2021-08-08T08:08:53Z</time>
      </trkpt>
      <trkpt lat="43.71699" lon="-1.41939">
        <ele>13.4</ele>
        <time>2021-08-08T08:08:54Z</time>
      </trkpt>
      <trkpt lat="43.71702" lon="-1.41933">
        <ele>13.8</ele>
        <time>2021-08-08T08:08:55Z</time>
      </trkpt>
      <trkpt lat="43.71706" lon="-1.41928">
        <ele>14</ele>
        <time>2021-08-08T08:08:56Z</time>
      </trkpt>
      <trkpt lat="43.71709" lon="-1.41923">
        <ele>14.2</ele>
        <time>2021-08-08T08:08:57Z</time>
      </trkpt>
      <trkpt lat="43.71712" lon="-1.41918">
        <ele>14.4</ele>
        <time>2021-08-08T08:08:58Z</time>
      </trkpt>
      <trkpt lat="43.71715" lon="-1.41913">
        <ele>14.4</ele>
        <time>2021-08-08T08:08:59Z</time>
      </trkpt>
      <trkpt lat="43.71719" lon="-1.41909">
        <ele>14.6</ele>
        <time>2021-08-08T08:09:00Z</time>
      </trkpt>
      <trkpt lat="43.71722" lon="-1.41904">
        <ele>14.8</ele>
        <time>2021-08-08T08:09:01Z</time>
      </trkpt>
      <trkpt lat="43.71725" lon="-1.419">
        <ele>15.2</ele>
        <time>2021-08-08T08:09:02Z</time>
      </trkpt>
      <trkpt lat="43.71728" lon="-1.41895">
        <ele>15.8</ele>
        <time>2021-08-08T08:09:03Z</time>
      </trkpt>
      <trkpt lat="43.71731" lon="-1.4189">
        <ele>16</ele>
        <time>2021-08-08T08:09:04Z</time>
      </trkpt>
      <trkpt lat="43.71734" lon="-1.41885">
        <ele>16.2</ele>
        <time>2021-08-08T08:09:05Z</time>
      </trkpt>
      <trkpt lat="43.71738" lon="-1.4188">
        <ele>16.2</ele>
        <time>2021-08-08T08:09:06Z</time>
      </trkpt>
      <trkpt lat="43.71741" lon="-1.41876">
        <ele>16.4</ele>
        <time>2021-08-08T08:09:07Z</time>
      </trkpt>
      <trkpt lat="43.71745" lon="-1.41872">
        <ele>16.6</ele>
        <time>2021-08-08T08:09:08Z</time>
      </trkpt>
      <trkpt lat="43.71749" lon="-1.41867">
        <ele>16.8</ele>
        <time>2021-08-08T08:09:09Z</time>
      </trkpt>
      <trkpt lat="43.71753" lon="-1.41862">
        <ele>17</ele>
        <time>2021-08-08T08:09:10Z</time>
      </trkpt>
      <trkpt lat="43.71757" lon="-1.41856">
        <ele>17.2</ele>
        <time>2021-08-08T08:09:11Z</time>
      </trkpt>
      <trkpt lat="43.71761" lon="-1.4185">
        <ele>17.4</ele>
        <time>2021-08-08T08:09:12Z</time>
      </trkpt>
      <trkpt lat="43.71765" lon="-1.41843">
        <ele>17.4</ele>
        <time>2021-08-08T08:09:13Z</time>
      </trkpt>
      <trkpt lat="43.7177" lon="-1.41836">
        <ele>17.4</ele>
        <time>2021-08-08T08:09:14Z</time>
      </trkpt>
      <trkpt lat="43.71775" lon="-1.41829">
        <ele>17.4</ele>
        <time>2021-08-08T08:09:15Z</time>
      </trkpt>
      <trkpt lat="43.71781" lon="-1.41821">
        <ele>17.4</ele>
        <time>2021-08-08T08:09:16Z</time>
      </trkpt>
      <trkpt lat="43.71788" lon="-1.41814">
        <ele>17.4</ele>
        <time>2021-08-08T08:09:17Z</time>
      </trkpt>
      <trkpt lat="43.71794" lon="-1.41806">
        <ele>17.4</ele>
        <time>2021-08-08T08:09:18Z</time>
      </trkpt>
      <trkpt lat="43.71801" lon="-1.41797">
        <ele>17.4</ele>
        <time>2021-08-08T08:09:19Z</time>
      </trkpt>
      <trkpt lat="43.71808" lon="-1.41788">
        <ele>17.2</ele>
        <time>2021-08-08T08:09:20Z</time>
      </trkpt>
      <trkpt lat="43.71815" lon="-1.4178">
        <ele>17</ele>
        <time>2021-08-08T08:09:21Z</time>
      </trkpt>
      <trkpt lat="43.71822" lon="-1.41772">
        <ele>16.6</ele>
        <time>2021-08-08T08:09:22Z</time>
      </trkpt>
      <trkpt lat="43.71829" lon="-1.41764">
        <ele>16.6</ele>
        <time>2021-08-08T08:09:23Z</time>
      </trkpt>
      <trkpt lat="43.71836" lon="-1.41756">
        <ele>16.2</ele>
        <time>2021-08-08T08:09:24Z</time>
      </trkpt>
      <trkpt lat="43.71843" lon="-1.41748">
        <ele>16</ele>
        <time>2021-08-08T08:09:25Z</time>
      </trkpt>
      <trkpt lat="43.7185" lon="-1.4174">
        <ele>15.6</ele>
        <time>2021-08-08T08:09:26Z</time>
      </trkpt>
      <trkpt lat="43.71882" lon="-1.41707">
        <ele>14.6</ele>
        <time>2021-08-08T08:09:30Z</time>
      </trkpt>
      <trkpt lat="43.71918" lon="-1.41676">
        <ele>13.4</ele>
        <time>2021-08-08T08:09:34Z</time>
      </trkpt>
      <trkpt lat="43.71935" lon="-1.41662">
        <ele>12.2</ele>
        <time>2021-08-08T08:09:36Z</time>
      </trkpt>
      <trkpt lat="43.71943" lon="-1.41655">
        <ele>11.6</ele>
        <time>2021-08-08T08:09:37Z</time>
      </trkpt>
      <trkpt lat="43.7195" lon="-1.41649">
        <ele>11.2</ele>
        <time>2021-08-08T08:09:38Z</time>
      </trkpt>
      <trkpt lat="43.71958" lon="-1.41643">
        <ele>11</ele>
        <time>2021-08-08T08:09:39Z</time>
      </trkpt>
      <trkpt lat="43.71965" lon="-1.41637">
        <ele>10.8</ele>
        <time>2021-08-08T08:09:40Z</time>
      </trkpt>
      <trkpt lat="43.71973" lon="-1.4163">
        <ele>10.8</ele>
        <time>2021-08-08T08:09:41Z</time>
      </trkpt>
      <trkpt lat="43.72015" lon="-1.41602">
        <ele>10</ele>
        <time>2021-08-08T08:09:46Z</time>
      </trkpt>
      <trkpt lat="43.72023" lon="-1.41597">
        <ele>9.8</ele>
        <time>2021-08-08T08:09:47Z</time>
      </trkpt>
      <trkpt lat="43.72073" lon="-1.41565">
        <ele>9.8</ele>
        <time>2021-08-08T08:09:53Z</time>
      </trkpt>
      <trkpt lat="43.72104" lon="-1.41546">
        <ele>9.8</ele>
        <time>2021-08-08T08:09:57Z</time>
      </trkpt>
      <trkpt lat="43.7211" lon="-1.41541">
        <ele>9.8</ele>
        <time>2021-08-08T08:09:58Z</time>
      </trkpt>
      <trkpt lat="43.72117" lon="-1.41535">
        <ele>9.8</ele>
        <time>2021-08-08T08:09:59Z</time>
      </trkpt>
      <trkpt lat="43.72123" lon="-1.4153">
        <ele>9.8</ele>
        <time>2021-08-08T08:10:00Z</time>
      </trkpt>
      <trkpt lat="43.7213" lon="-1.41527">
        <ele>9.8</ele>
        <time>2021-08-08T08:10:01Z</time>
      </trkpt>
      <trkpt lat="43.72137" lon="-1.41524">
        <ele>10.2</ele>
        <time>2021-08-08T08:10:02Z</time>
      </trkpt>
      <trkpt lat="43.72144" lon="-1.41521">
        <ele>10.2</ele>
        <time>2021-08-08T08:10:03Z</time>
      </trkpt>
      <trkpt lat="43.72179" lon="-1.41502">
        <ele>11</ele>
        <time>2021-08-08T08:10:08Z</time>
      </trkpt>
      <trkpt lat="43.72185" lon="-1.41498">
        <ele>11</ele>
        <time>2021-08-08T08:10:09Z</time>
      </trkpt>
      <trkpt lat="43.72225" lon="-1.41469">
        <ele>11</ele>
        <time>2021-08-08T08:10:15Z</time>
      </trkpt>
      <trkpt lat="43.72233" lon="-1.41465">
        <ele>11</ele>
        <time>2021-08-08T08:10:16Z</time>
      </trkpt>
      <trkpt lat="43.72272" lon="-1.41444">
        <ele>10.6</ele>
        <time>2021-08-08T08:10:21Z</time>
      </trkpt>
      <trkpt lat="43.72309" lon="-1.41421">
        <ele>10</ele>
        <time>2021-08-08T08:10:26Z</time>
      </trkpt>
      <trkpt lat="43.7234" lon="-1.414">
        <ele>10</ele>
        <time>2021-08-08T08:10:30Z</time>
      </trkpt>
      <trkpt lat="43.72347" lon="-1.41395">
        <ele>10</ele>
        <time>2021-08-08T08:10:31Z</time>
      </trkpt>
      <trkpt lat="43.72355" lon="-1.41391">
        <ele>10</ele>
        <time>2021-08-08T08:10:32Z</time>
      </trkpt>
      <trkpt lat="43.72363" lon="-1.41386">
        <ele>10</ele>
        <time>2021-08-08T08:10:33Z</time>
      </trkpt>
      <trkpt lat="43.72371" lon="-1.41381">
        <ele>9.6</ele>
        <time>2021-08-08T08:10:34Z</time>
      </trkpt>
      <trkpt lat="43.72379" lon="-1.41377">
        <ele>9.6</ele>
        <time>2021-08-08T08:10:35Z</time>
      </trkpt>
      <trkpt lat="43.72393" lon="-1.41368">
        <ele>9.6</ele>
        <time>2021-08-08T08:10:37Z</time>
      </trkpt>
      <trkpt lat="43.724" lon="-1.41365">
        <ele>9.6</ele>
        <time>2021-08-08T08:10:38Z</time>
      </trkpt>
      <trkpt lat="43.72406" lon="-1.41361">
        <ele>9.8</ele>
        <time>2021-08-08T08:10:39Z</time>
      </trkpt>
      <trkpt lat="43.72414" lon="-1.41357">
        <ele>9.8</ele>
        <time>2021-08-08T08:10:40Z</time>
      </trkpt>
      <trkpt lat="43.7245" lon="-1.41334">
        <ele>9.6</ele>
        <time>2021-08-08T08:10:45Z</time>
      </trkpt>
      <trkpt lat="43.72469" lon="-1.41321">
        <ele>9.6</ele>
        <time>2021-08-08T08:10:48Z</time>
      </trkpt>
      <trkpt lat="43.72475" lon="-1.41316">
        <ele>9.6</ele>
        <time>2021-08-08T08:10:49Z</time>
      </trkpt>
      <trkpt lat="43.72481" lon="-1.41311">
        <ele>9.6</ele>
        <time>2021-08-08T08:10:50Z</time>
      </trkpt>
      <trkpt lat="43.72487" lon="-1.41306">
        <ele>9.8</ele>
        <time>2021-08-08T08:10:51Z</time>
      </trkpt>
      <trkpt lat="43.72493" lon="-1.41302">
        <ele>9.8</ele>
        <time>2021-08-08T08:10:52Z</time>
      </trkpt>
      <trkpt lat="43.72498" lon="-1.41298">
        <ele>9.8</ele>
        <time>2021-08-08T08:10:53Z</time>
      </trkpt>
      <trkpt lat="43.72504" lon="-1.41293">
        <ele>10.2</ele>
        <time>2021-08-08T08:10:54Z</time>
      </trkpt>
      <trkpt lat="43.72509" lon="-1.41289">
        <ele>10.2</ele>
        <time>2021-08-08T08:10:55Z</time>
      </trkpt>
      <trkpt lat="43.72521" lon="-1.4128">
        <ele>10.6</ele>
        <time>2021-08-08T08:10:57Z</time>
      </trkpt>
      <trkpt lat="43.72561" lon="-1.41256">
        <ele>10.8</ele>
        <time>2021-08-08T08:11:03Z</time>
      </trkpt>
      <trkpt lat="43.72568" lon="-1.41252">
        <ele>10.8</ele>
        <time>2021-08-08T08:11:04Z</time>
      </trkpt>
      <trkpt lat="43.72574" lon="-1.41248">
        <ele>10.8</ele>
        <time>2021-08-08T08:11:05Z</time>
      </trkpt>
      <trkpt lat="43.7258" lon="-1.41244">
        <ele>10.8</ele>
        <time>2021-08-08T08:11:06Z</time>
      </trkpt>
      <trkpt lat="43.72599" lon="-1.4123">
        <ele>10.6</ele>
        <time>2021-08-08T08:11:09Z</time>
      </trkpt>
      <trkpt lat="43.72618" lon="-1.41218">
        <ele>10.6</ele>
        <time>2021-08-08T08:11:12Z</time>
      </trkpt>
      <trkpt lat="43.72624" lon="-1.41215">
        <ele>10.6</ele>
        <time>2021-08-08T08:11:13Z</time>
      </trkpt>
      <trkpt lat="43.7263" lon="-1.41212">
        <ele>10.6</ele>
        <time>2021-08-08T08:11:14Z</time>
      </trkpt>
      <trkpt lat="43.72635" lon="-1.41209">
        <ele>10.6</ele>
        <time>2021-08-08T08:11:15Z</time>
      </trkpt>
      <trkpt lat="43.72639" lon="-1.41206">
        <ele>10.6</ele>
        <time>2021-08-08T08:11:16Z</time>
      </trkpt>
      <trkpt lat="43.72644" lon="-1.41203">
        <ele>10.8</ele>
        <time>2021-08-08T08:11:17Z</time>
      </trkpt>
      <trkpt lat="43.72648" lon="-1.41199">
        <ele>10.8</ele>
        <time>2021-08-08T08:11:18Z</time>
      </trkpt>
      <trkpt lat="43.72652" lon="-1.41195">
        <ele>11</ele>
        <time>2021-08-08T08:11:19Z</time>
      </trkpt>
      <trkpt lat="43.72657" lon="-1.41191">
        <ele>11</ele>
        <time>2021-08-08T08:11:20Z</time>
      </trkpt>
      <trkpt lat="43.72664" lon="-1.41183">
        <ele>11.4</ele>
        <time>2021-08-08T08:11:22Z</time>
      </trkpt>
      <trkpt lat="43.72668" lon="-1.41179">
        <ele>11.6</ele>
        <time>2021-08-08T08:11:23Z</time>
      </trkpt>
      <trkpt lat="43.72672" lon="-1.41176">
        <ele>11.8</ele>
        <time>2021-08-08T08:11:24Z</time>
      </trkpt>
      <trkpt lat="43.72675" lon="-1.41173">
        <ele>12</ele>
        <time>2021-08-08T08:11:25Z</time>
      </trkpt>
      <trkpt lat="43.72678" lon="-1.4117">
        <ele>12</ele>
        <time>2021-08-08T08:11:26Z</time>
      </trkpt>
      <trkpt lat="43.72682" lon="-1.41169">
        <ele>12.2</ele>
        <time>2021-08-08T08:11:27Z</time>
      </trkpt>
      <trkpt lat="43.7269" lon="-1.41169">
        <ele>12.2</ele>
        <time>2021-08-08T08:11:29Z</time>
      </trkpt>
      <trkpt lat="43.72694" lon="-1.41169">
        <ele>12.4</ele>
        <time>2021-08-08T08:11:30Z</time>
      </trkpt>
      <trkpt lat="43.72698" lon="-1.41168">
        <ele>12.4</ele>
        <time>2021-08-08T08:11:31Z</time>
      </trkpt>
      <trkpt lat="43.72703" lon="-1.41166">
        <ele>12.6</ele>
        <time>2021-08-08T08:11:32Z</time>
      </trkpt>
      <trkpt lat="43.72706" lon="-1.41165">
        <ele>12.6</ele>
        <time>2021-08-08T08:11:33Z</time>
      </trkpt>
      <trkpt lat="43.72711" lon="-1.41163">
        <ele>12.8</ele>
        <time>2021-08-08T08:11:34Z</time>
      </trkpt>
      <trkpt lat="43.72721" lon="-1.41161">
        <ele>12.8</ele>
        <time>2021-08-08T08:11:36Z</time>
      </trkpt>
      <trkpt lat="43.72734" lon="-1.41158">
        <ele>12.8</ele>
        <time>2021-08-08T08:11:38Z</time>
      </trkpt>
      <trkpt lat="43.72774" lon="-1.41152">
        <ele>12.6</ele>
        <time>2021-08-08T08:11:43Z</time>
      </trkpt>
      <trkpt lat="43.72817" lon="-1.41154">
        <ele>11.6</ele>
        <time>2021-08-08T08:11:48Z</time>
      </trkpt>
      <trkpt lat="43.72825" lon="-1.41155">
        <ele>11</ele>
        <time>2021-08-08T08:11:49Z</time>
      </trkpt>
      <trkpt lat="43.72842" lon="-1.41156">
        <ele>10.6</ele>
        <time>2021-08-08T08:11:51Z</time>
      </trkpt>
      <trkpt lat="43.7285" lon="-1.41159">
        <ele>10.4</ele>
        <time>2021-08-08T08:11:52Z</time>
      </trkpt>
      <trkpt lat="43.72866" lon="-1.41165">
        <ele>10.2</ele>
        <time>2021-08-08T08:11:54Z</time>
      </trkpt>
      <trkpt lat="43.7289" lon="-1.41174">
        <ele>10</ele>
        <time>2021-08-08T08:11:57Z</time>
      </trkpt>
      <trkpt lat="43.72896" lon="-1.41177">
        <ele>9.8</ele>
        <time>2021-08-08T08:11:58Z</time>
      </trkpt>
      <trkpt lat="43.72905" lon="-1.41181">
        <ele>9.8</ele>
        <time>2021-08-08T08:11:59Z</time>
      </trkpt>
      <trkpt lat="43.72912" lon="-1.41185">
        <ele>9.8</ele>
        <time>2021-08-08T08:12:00Z</time>
      </trkpt>
      <trkpt lat="43.72919" lon="-1.41189">
        <ele>9.8</ele>
        <time>2021-08-08T08:12:01Z</time>
      </trkpt>
      <trkpt lat="43.72926" lon="-1.41192">
        <ele>9.8</ele>
        <time>2021-08-08T08:12:02Z</time>
      </trkpt>
      <trkpt lat="43.72934" lon="-1.41196">
        <ele>9.8</ele>
        <time>2021-08-08T08:12:03Z</time>
      </trkpt>
      <trkpt lat="43.72969" lon="-1.41217">
        <ele>9.6</ele>
        <time>2021-08-08T08:12:08Z</time>
      </trkpt>
      <trkpt lat="43.73007" lon="-1.41248">
        <ele>9.4</ele>
        <time>2021-08-08T08:12:14Z</time>
      </trkpt>
      <trkpt lat="43.73013" lon="-1.41253">
        <ele>9.4</ele>
        <time>2021-08-08T08:12:15Z</time>
      </trkpt>
      <trkpt lat="43.73048" lon="-1.41287">
        <ele>9.4</ele>
        <time>2021-08-08T08:12:21Z</time>
      </trkpt>
      <trkpt lat="43.73055" lon="-1.41292">
        <ele>9.4</ele>
        <time>2021-08-08T08:12:22Z</time>
      </trkpt>
      <trkpt lat="43.73061" lon="-1.41295">
        <ele>9.4</ele>
        <time>2021-08-08T08:12:23Z</time>
      </trkpt>
      <trkpt lat="43.73075" lon="-1.41301">
        <ele>9.4</ele>
        <time>2021-08-08T08:12:25Z</time>
      </trkpt>
      <trkpt lat="43.73096" lon="-1.41303">
        <ele>9.2</ele>
        <time>2021-08-08T08:12:28Z</time>
      </trkpt>
      <trkpt lat="43.73103" lon="-1.41302">
        <ele>9.2</ele>
        <time>2021-08-08T08:12:29Z</time>
      </trkpt>
      <trkpt lat="43.73137" lon="-1.41288">
        <ele>9.2</ele>
        <time>2021-08-08T08:12:34Z</time>
      </trkpt>
      <trkpt lat="43.73144" lon="-1.41285">
        <ele>9.2</ele>
        <time>2021-08-08T08:12:35Z</time>
      </trkpt>
      <trkpt lat="43.73171" lon="-1.41271">
        <ele>9.2</ele>
        <time>2021-08-08T08:12:39Z</time>
      </trkpt>
      <trkpt lat="43.73177" lon="-1.41268">
        <ele>9.4</ele>
        <time>2021-08-08T08:12:40Z</time>
      </trkpt>
      <trkpt lat="43.73189" lon="-1.41262">
        <ele>9.6</ele>
        <time>2021-08-08T08:12:42Z</time>
      </trkpt>
      <trkpt lat="43.73195" lon="-1.41259">
        <ele>9.6</ele>
        <time>2021-08-08T08:12:43Z</time>
      </trkpt>
      <trkpt lat="43.73201" lon="-1.41256">
        <ele>9.8</ele>
        <time>2021-08-08T08:12:44Z</time>
      </trkpt>
      <trkpt lat="43.73207" lon="-1.41252">
        <ele>10</ele>
        <time>2021-08-08T08:12:45Z</time>
      </trkpt>
      <trkpt lat="43.73214" lon="-1.41248">
        <ele>10.2</ele>
        <time>2021-08-08T08:12:46Z</time>
      </trkpt>
      <trkpt lat="43.73219" lon="-1.41244">
        <ele>10.4</ele>
        <time>2021-08-08T08:12:47Z</time>
      </trkpt>
      <trkpt lat="43.73225" lon="-1.41241">
        <ele>10.4</ele>
        <time>2021-08-08T08:12:48Z</time>
      </trkpt>
      <trkpt lat="43.73231" lon="-1.41237">
        <ele>10.6</ele>
        <time>2021-08-08T08:12:49Z</time>
      </trkpt>
      <trkpt lat="43.73236" lon="-1.41234">
        <ele>10.6</ele>
        <time>2021-08-08T08:12:50Z</time>
      </trkpt>
      <trkpt lat="43.73242" lon="-1.41232">
        <ele>10.8</ele>
        <time>2021-08-08T08:12:51Z</time>
      </trkpt>
      <trkpt lat="43.73247" lon="-1.41229">
        <ele>10.8</ele>
        <time>2021-08-08T08:12:52Z</time>
      </trkpt>
      <trkpt lat="43.73253" lon="-1.41227">
        <ele>10.8</ele>
        <time>2021-08-08T08:12:53Z</time>
      </trkpt>
      <trkpt lat="43.73259" lon="-1.41223">
        <ele>11</ele>
        <time>2021-08-08T08:12:54Z</time>
      </trkpt>
      <trkpt lat="43.73272" lon="-1.41218">
        <ele>11.2</ele>
        <time>2021-08-08T08:12:56Z</time>
      </trkpt>
      <trkpt lat="43.7328" lon="-1.41214">
        <ele>11.2</ele>
        <time>2021-08-08T08:12:57Z</time>
      </trkpt>
      <trkpt lat="43.73287" lon="-1.41211">
        <ele>11.4</ele>
        <time>2021-08-08T08:12:58Z</time>
      </trkpt>
      <trkpt lat="43.73334" lon="-1.41186">
        <ele>11.2</ele>
        <time>2021-08-08T08:13:04Z</time>
      </trkpt>
      <trkpt lat="43.73371" lon="-1.41172">
        <ele>10.8</ele>
        <time>2021-08-08T08:13:08Z</time>
      </trkpt>
      <trkpt lat="43.73378" lon="-1.41169">
        <ele>10.6</ele>
        <time>2021-08-08T08:13:09Z</time>
      </trkpt>
      <trkpt lat="43.73383" lon="-1.41166">
        <ele>10.4</ele>
        <time>2021-08-08T08:13:10Z</time>
      </trkpt>
      <trkpt lat="43.7339" lon="-1.41162">
        <ele>10.2</ele>
        <time>2021-08-08T08:13:11Z</time>
      </trkpt>
      <trkpt lat="43.73441" lon="-1.41141">
        <ele>9.6</ele>
        <time>2021-08-08T08:13:17Z</time>
      </trkpt>
      <trkpt lat="43.73447" lon="-1.4114">
        <ele>9.6</ele>
        <time>2021-08-08T08:13:18Z</time>
      </trkpt>
      <trkpt lat="43.73468" lon="-1.41143">
        <ele>9.4</ele>
        <time>2021-08-08T08:13:21Z</time>
      </trkpt>
      <trkpt lat="43.73474" lon="-1.41144">
        <ele>9.4</ele>
        <time>2021-08-08T08:13:22Z</time>
      </trkpt>
      <trkpt lat="43.7348" lon="-1.41144">
        <ele>9.2</ele>
        <time>2021-08-08T08:13:23Z</time>
      </trkpt>
      <trkpt lat="43.73487" lon="-1.41144">
        <ele>9.4</ele>
        <time>2021-08-08T08:13:24Z</time>
      </trkpt>
      <trkpt lat="43.73494" lon="-1.41146">
        <ele>9.4</ele>
        <time>2021-08-08T08:13:25Z</time>
      </trkpt>
      <trkpt lat="43.73507" lon="-1.41155">
        <ele>9.4</ele>
        <time>2021-08-08T08:13:27Z</time>
      </trkpt>
      <trkpt lat="43.73514" lon="-1.41159">
        <ele>9.4</ele>
        <time>2021-08-08T08:13:28Z</time>
      </trkpt>
      <trkpt lat="43.7352" lon="-1.41163">
        <ele>9.2</ele>
        <time>2021-08-08T08:13:29Z</time>
      </trkpt>
      <trkpt lat="43.73527" lon="-1.41167">
        <ele>9.2</ele>
        <time>2021-08-08T08:13:30Z</time>
      </trkpt>
      <trkpt lat="43.73577" lon="-1.41203">
        <ele>8.6</ele>
        <time>2021-08-08T08:13:38Z</time>
      </trkpt>
      <trkpt lat="43.73597" lon="-1.41216">
        <ele>8.4</ele>
        <time>2021-08-08T08:13:41Z</time>
      </trkpt>
      <trkpt lat="43.73611" lon="-1.41222">
        <ele>8.2</ele>
        <time>2021-08-08T08:13:43Z</time>
      </trkpt>
      <trkpt lat="43.73626" lon="-1.41226">
        <ele>8.2</ele>
        <time>2021-08-08T08:13:45Z</time>
      </trkpt>
      <trkpt lat="43.73641" lon="-1.41225">
        <ele>8.2</ele>
        <time>2021-08-08T08:13:47Z</time>
      </trkpt>
      <trkpt lat="43.73648" lon="-1.41224">
        <ele>8.2</ele>
        <time>2021-08-08T08:13:48Z</time>
      </trkpt>
      <trkpt lat="43.73667" lon="-1.41214">
        <ele>8.2</ele>
        <time>2021-08-08T08:13:51Z</time>
      </trkpt>
      <trkpt lat="43.73673" lon="-1.4121">
        <ele>8.2</ele>
        <time>2021-08-08T08:13:52Z</time>
      </trkpt>
      <trkpt lat="43.73684" lon="-1.412">
        <ele>8.4</ele>
        <time>2021-08-08T08:13:54Z</time>
      </trkpt>
      <trkpt lat="43.7369" lon="-1.41196">
        <ele>8.6</ele>
        <time>2021-08-08T08:13:55Z</time>
      </trkpt>
      <trkpt lat="43.73696" lon="-1.41192">
        <ele>8.6</ele>
        <time>2021-08-08T08:13:56Z</time>
      </trkpt>
      <trkpt lat="43.73701" lon="-1.41187">
        <ele>8.8</ele>
        <time>2021-08-08T08:13:57Z</time>
      </trkpt>
      <trkpt lat="43.73707" lon="-1.41182">
        <ele>8.8</ele>
        <time>2021-08-08T08:13:58Z</time>
      </trkpt>
      <trkpt lat="43.73733" lon="-1.41159">
        <ele>9</ele>
        <time>2021-08-08T08:14:02Z</time>
      </trkpt>
      <trkpt lat="43.73747" lon="-1.4115">
        <ele>9</ele>
        <time>2021-08-08T08:14:04Z</time>
      </trkpt>
      <trkpt lat="43.73753" lon="-1.41146">
        <ele>8.8</ele>
        <time>2021-08-08T08:14:05Z</time>
      </trkpt>
      <trkpt lat="43.7376" lon="-1.41141">
        <ele>8.8</ele>
        <time>2021-08-08T08:14:06Z</time>
      </trkpt>
      <trkpt lat="43.73765" lon="-1.41135">
        <ele>8.6</ele>
        <time>2021-08-08T08:14:07Z</time>
      </trkpt>
      <trkpt lat="43.73782" lon="-1.41117">
        <ele>8.4</ele>
        <time>2021-08-08T08:14:10Z</time>
      </trkpt>
      <trkpt lat="43.73789" lon="-1.41111">
        <ele>8.4</ele>
        <time>2021-08-08T08:14:11Z</time>
      </trkpt>
      <trkpt lat="43.73795" lon="-1.41106">
        <ele>8.2</ele>
        <time>2021-08-08T08:14:12Z</time>
      </trkpt>
      <trkpt lat="43.73801" lon="-1.411">
        <ele>8.2</ele>
        <time>2021-08-08T08:14:13Z</time>
      </trkpt>
      <trkpt lat="43.73806" lon="-1.41096">
        <ele>8.2</ele>
        <time>2021-08-08T08:14:14Z</time>
      </trkpt>
      <trkpt lat="43.7382" lon="-1.41084">
        <ele>8.2</ele>
        <time>2021-08-08T08:14:16Z</time>
      </trkpt>
      <trkpt lat="43.73826" lon="-1.41079">
        <ele>8.2</ele>
        <time>2021-08-08T08:14:17Z</time>
      </trkpt>
      <trkpt lat="43.73831" lon="-1.41074">
        <ele>8.2</ele>
        <time>2021-08-08T08:14:18Z</time>
      </trkpt>
      <trkpt lat="43.73845" lon="-1.41064">
        <ele>8.2</ele>
        <time>2021-08-08T08:14:20Z</time>
      </trkpt>
      <trkpt lat="43.73895" lon="-1.41022">
        <ele>8.2</ele>
        <time>2021-08-08T08:14:27Z</time>
      </trkpt>
      <trkpt lat="43.73914" lon="-1.41006">
        <ele>8.4</ele>
        <time>2021-08-08T08:14:30Z</time>
      </trkpt>
      <trkpt lat="43.73921" lon="-1.41001">
        <ele>8.6</ele>
        <time>2021-08-08T08:14:31Z</time>
      </trkpt>
      <trkpt lat="43.73929" lon="-1.40996">
        <ele>8.6</ele>
        <time>2021-08-08T08:14:32Z</time>
      </trkpt>
      <trkpt lat="43.73935" lon="-1.40992">
        <ele>8.6</ele>
        <time>2021-08-08T08:14:33Z</time>
      </trkpt>
      <trkpt lat="43.73941" lon="-1.40987">
        <ele>8.6</ele>
        <time>2021-08-08T08:14:34Z</time>
      </trkpt>
      <trkpt lat="43.73961" lon="-1.40972">
        <ele>8.6</ele>
        <time>2021-08-08T08:14:37Z</time>
      </trkpt>
      <trkpt lat="43.73968" lon="-1.40966">
        <ele>8.6</ele>
        <time>2021-08-08T08:14:38Z</time>
      </trkpt>
      <trkpt lat="43.73975" lon="-1.4096">
        <ele>8.6</ele>
        <time>2021-08-08T08:14:39Z</time>
      </trkpt>
      <trkpt lat="43.73981" lon="-1.40954">
        <ele>8.6</ele>
        <time>2021-08-08T08:14:40Z</time>
      </trkpt>
      <trkpt lat="43.74001" lon="-1.40938">
        <ele>8.6</ele>
        <time>2021-08-08T08:14:43Z</time>
      </trkpt>
      <trkpt lat="43.74007" lon="-1.40933">
        <ele>8.6</ele>
        <time>2021-08-08T08:14:44Z</time>
      </trkpt>
      <trkpt lat="43.74014" lon="-1.40927">
        <ele>8.6</ele>
        <time>2021-08-08T08:14:45Z</time>
      </trkpt>
      <trkpt lat="43.74021" lon="-1.40921">
        <ele>8.6</ele>
        <time>2021-08-08T08:14:46Z</time>
      </trkpt>
      <trkpt lat="43.74029" lon="-1.40916">
        <ele>8.6</ele>
        <time>2021-08-08T08:14:47Z</time>
      </trkpt>
      <trkpt lat="43.74065" lon="-1.40888">
        <ele>8.6</ele>
        <time>2021-08-08T08:14:52Z</time>
      </trkpt>
      <trkpt lat="43.74103" lon="-1.40858">
        <ele>8.6</ele>
        <time>2021-08-08T08:14:58Z</time>
      </trkpt>
      <trkpt lat="43.74142" lon="-1.40824">
        <ele>8.2</ele>
        <time>2021-08-08T08:15:04Z</time>
      </trkpt>
      <trkpt lat="43.74148" lon="-1.40818">
        <ele>8.2</ele>
        <time>2021-08-08T08:15:05Z</time>
      </trkpt>
      <trkpt lat="43.74154" lon="-1.40814">
        <ele>8.2</ele>
        <time>2021-08-08T08:15:06Z</time>
      </trkpt>
      <trkpt lat="43.74166" lon="-1.40803">
        <ele>8.4</ele>
        <time>2021-08-08T08:15:08Z</time>
      </trkpt>
      <trkpt lat="43.74172" lon="-1.40798">
        <ele>8.4</ele>
        <time>2021-08-08T08:15:09Z</time>
      </trkpt>
      <trkpt lat="43.74179" lon="-1.40793">
        <ele>8.4</ele>
        <time>2021-08-08T08:15:10Z</time>
      </trkpt>
      <trkpt lat="43.74185" lon="-1.40788">
        <ele>8.4</ele>
        <time>2021-08-08T08:15:11Z</time>
      </trkpt>
      <trkpt lat="43.74235" lon="-1.40747">
        <ele>8.6</ele>
        <time>2021-08-08T08:15:18Z</time>
      </trkpt>
      <trkpt lat="43.74278" lon="-1.40715">
        <ele>8.4</ele>
        <time>2021-08-08T08:15:24Z</time>
      </trkpt>
      <trkpt lat="43.74285" lon="-1.40709">
        <ele>8.4</ele>
        <time>2021-08-08T08:15:25Z</time>
      </trkpt>
      <trkpt lat="43.74329" lon="-1.40679">
        <ele>8</ele>
        <time>2021-08-08T08:15:31Z</time>
      </trkpt>
      <trkpt lat="43.74342" lon="-1.40668">
        <ele>8</ele>
        <time>2021-08-08T08:15:33Z</time>
      </trkpt>
      <trkpt lat="43.7436" lon="-1.4065">
        <ele>8</ele>
        <time>2021-08-08T08:15:36Z</time>
      </trkpt>
      <trkpt lat="43.74367" lon="-1.40645">
        <ele>8</ele>
        <time>2021-08-08T08:15:37Z</time>
      </trkpt>
      <trkpt lat="43.7438" lon="-1.40636">
        <ele>8</ele>
        <time>2021-08-08T08:15:39Z</time>
      </trkpt>
      <trkpt lat="43.74386" lon="-1.40631">
        <ele>8</ele>
        <time>2021-08-08T08:15:40Z</time>
      </trkpt>
      <trkpt lat="43.74392" lon="-1.40626">
        <ele>8</ele>
        <time>2021-08-08T08:15:41Z</time>
      </trkpt>
      <trkpt lat="43.74417" lon="-1.40606">
        <ele>7.8</ele>
        <time>2021-08-08T08:15:45Z</time>
      </trkpt>
      <trkpt lat="43.74424" lon="-1.40601">
        <ele>7.8</ele>
        <time>2021-08-08T08:15:46Z</time>
      </trkpt>
      <trkpt lat="43.7443" lon="-1.40596">
        <ele>7.8</ele>
        <time>2021-08-08T08:15:47Z</time>
      </trkpt>
      <trkpt lat="43.74481" lon="-1.40556">
        <ele>7.8</ele>
        <time>2021-08-08T08:15:55Z</time>
      </trkpt>
      <trkpt lat="43.74525" lon="-1.40519">
        <ele>7.8</ele>
        <time>2021-08-08T08:16:02Z</time>
      </trkpt>
      <trkpt lat="43.74562" lon="-1.4049">
        <ele>8</ele>
        <time>2021-08-08T08:16:08Z</time>
      </trkpt>
      <trkpt lat="43.74567" lon="-1.40485">
        <ele>8</ele>
        <time>2021-08-08T08:16:09Z</time>
      </trkpt>
      <trkpt lat="43.74572" lon="-1.40481">
        <ele>8</ele>
        <time>2021-08-08T08:16:10Z</time>
      </trkpt>
      <trkpt lat="43.74595" lon="-1.4046">
        <ele>7.8</ele>
        <time>2021-08-08T08:16:14Z</time>
      </trkpt>
      <trkpt lat="43.746" lon="-1.40455">
        <ele>8</ele>
        <time>2021-08-08T08:16:15Z</time>
      </trkpt>
      <trkpt lat="43.74607" lon="-1.40449">
        <ele>8</ele>
        <time>2021-08-08T08:16:16Z</time>
      </trkpt>
      <trkpt lat="43.74624" lon="-1.40436">
        <ele>7.8</ele>
        <time>2021-08-08T08:16:19Z</time>
      </trkpt>
      <trkpt lat="43.74643" lon="-1.40421">
        <ele>7.8</ele>
        <time>2021-08-08T08:16:22Z</time>
      </trkpt>
      <trkpt lat="43.74678" lon="-1.40392">
        <ele>7.6</ele>
        <time>2021-08-08T08:16:27Z</time>
      </trkpt>
      <trkpt lat="43.74684" lon="-1.40386">
        <ele>7.6</ele>
        <time>2021-08-08T08:16:28Z</time>
      </trkpt>
      <trkpt lat="43.747" lon="-1.40375">
        <ele>7.6</ele>
        <time>2021-08-08T08:16:30Z</time>
      </trkpt>
      <trkpt lat="43.74727" lon="-1.40355">
        <ele>7.6</ele>
        <time>2021-08-08T08:16:34Z</time>
      </trkpt>
      <trkpt lat="43.74747" lon="-1.4034">
        <ele>7.8</ele>
        <time>2021-08-08T08:16:37Z</time>
      </trkpt>
      <trkpt lat="43.74753" lon="-1.40335">
        <ele>7.8</ele>
        <time>2021-08-08T08:16:38Z</time>
      </trkpt>
      <trkpt lat="43.7476" lon="-1.4033">
        <ele>7.8</ele>
        <time>2021-08-08T08:16:39Z</time>
      </trkpt>
      <trkpt lat="43.74786" lon="-1.40309">
        <ele>8</ele>
        <time>2021-08-08T08:16:43Z</time>
      </trkpt>
      <trkpt lat="43.74825" lon="-1.40275">
        <ele>8.2</ele>
        <time>2021-08-08T08:16:49Z</time>
      </trkpt>
      <trkpt lat="43.74873" lon="-1.40239">
        <ele>8.2</ele>
        <time>2021-08-08T08:16:56Z</time>
      </trkpt>
      <trkpt lat="43.74921" lon="-1.40198">
        <ele>8.4</ele>
        <time>2021-08-08T08:17:03Z</time>
      </trkpt>
      <trkpt lat="43.74935" lon="-1.40186">
        <ele>8.4</ele>
        <time>2021-08-08T08:17:05Z</time>
      </trkpt>
      <trkpt lat="43.7498" lon="-1.40155">
        <ele>8.4</ele>
        <time>2021-08-08T08:17:11Z</time>
      </trkpt>
      <trkpt lat="43.7503" lon="-1.40113">
        <ele>8.4</ele>
        <time>2021-08-08T08:17:18Z</time>
      </trkpt>
      <trkpt lat="43.75037" lon="-1.40107">
        <ele>8.4</ele>
        <time>2021-08-08T08:17:19Z</time>
      </trkpt>
      <trkpt lat="43.75051" lon="-1.40095">
        <ele>8.4</ele>
        <time>2021-08-08T08:17:21Z</time>
      </trkpt>
      <trkpt lat="43.75086" lon="-1.40064">
        <ele>8.4</ele>
        <time>2021-08-08T08:17:26Z</time>
      </trkpt>
      <trkpt lat="43.75107" lon="-1.40048">
        <ele>8.6</ele>
        <time>2021-08-08T08:17:29Z</time>
      </trkpt>
      <trkpt lat="43.75114" lon="-1.40042">
        <ele>8.6</ele>
        <time>2021-08-08T08:17:30Z</time>
      </trkpt>
      <trkpt lat="43.75121" lon="-1.40037">
        <ele>8.6</ele>
        <time>2021-08-08T08:17:31Z</time>
      </trkpt>
      <trkpt lat="43.75128" lon="-1.40031">
        <ele>8.6</ele>
        <time>2021-08-08T08:17:32Z</time>
      </trkpt>
      <trkpt lat="43.75143" lon="-1.40021">
        <ele>8.6</ele>
        <time>2021-08-08T08:17:34Z</time>
      </trkpt>
      <trkpt lat="43.7515" lon="-1.40015">
        <ele>8.6</ele>
        <time>2021-08-08T08:17:35Z</time>
      </trkpt>
      <trkpt lat="43.75172" lon="-1.39999">
        <ele>8.4</ele>
        <time>2021-08-08T08:17:38Z</time>
      </trkpt>
      <trkpt lat="43.75216" lon="-1.39962">
        <ele>8</ele>
        <time>2021-08-08T08:17:44Z</time>
      </trkpt>
      <trkpt lat="43.7523" lon="-1.39952">
        <ele>8</ele>
        <time>2021-08-08T08:17:46Z</time>
      </trkpt>
      <trkpt lat="43.75237" lon="-1.39947">
        <ele>8</ele>
        <time>2021-08-08T08:17:47Z</time>
      </trkpt>
      <trkpt lat="43.75243" lon="-1.39941">
        <ele>8</ele>
        <time>2021-08-08T08:17:48Z</time>
      </trkpt>
      <trkpt lat="43.7525" lon="-1.39935">
        <ele>8</ele>
        <time>2021-08-08T08:17:49Z</time>
      </trkpt>
      <trkpt lat="43.75285" lon="-1.39906">
        <ele>8</ele>
        <time>2021-08-08T08:17:54Z</time>
      </trkpt>
      <trkpt lat="43.75293" lon="-1.399">
        <ele>8</ele>
        <time>2021-08-08T08:17:55Z</time>
      </trkpt>
      <trkpt lat="43.75327" lon="-1.39869">
        <ele>7.8</ele>
        <time>2021-08-08T08:18:00Z</time>
      </trkpt>
      <trkpt lat="43.75347" lon="-1.39848">
        <ele>7.8</ele>
        <time>2021-08-08T08:18:03Z</time>
      </trkpt>
      <trkpt lat="43.75353" lon="-1.39843">
        <ele>7.8</ele>
        <time>2021-08-08T08:18:04Z</time>
      </trkpt>
      <trkpt lat="43.7536" lon="-1.39838">
        <ele>7.8</ele>
        <time>2021-08-08T08:18:05Z</time>
      </trkpt>
      <trkpt lat="43.75367" lon="-1.39832">
        <ele>7.8</ele>
        <time>2021-08-08T08:18:06Z</time>
      </trkpt>
      <trkpt lat="43.75374" lon="-1.39829">
        <ele>7.8</ele>
        <time>2021-08-08T08:18:07Z</time>
      </trkpt>
      <trkpt lat="43.754" lon="-1.3981">
        <ele>7.8</ele>
        <time>2021-08-08T08:18:11Z</time>
      </trkpt>
      <trkpt lat="43.75413" lon="-1.398">
        <ele>7.8</ele>
        <time>2021-08-08T08:18:13Z</time>
      </trkpt>
      <trkpt lat="43.75418" lon="-1.39796">
        <ele>7.8</ele>
        <time>2021-08-08T08:18:14Z</time>
      </trkpt>
      <trkpt lat="43.75425" lon="-1.3979">
        <ele>7.8</ele>
        <time>2021-08-08T08:18:15Z</time>
      </trkpt>
      <trkpt lat="43.75431" lon="-1.39785">
        <ele>7.6</ele>
        <time>2021-08-08T08:18:16Z</time>
      </trkpt>
      <trkpt lat="43.75442" lon="-1.39775">
        <ele>7.6</ele>
        <time>2021-08-08T08:18:18Z</time>
      </trkpt>
      <trkpt lat="43.75448" lon="-1.39771">
        <ele>7.6</ele>
        <time>2021-08-08T08:18:19Z</time>
      </trkpt>
      <trkpt lat="43.75455" lon="-1.39765">
        <ele>7.6</ele>
        <time>2021-08-08T08:18:20Z</time>
      </trkpt>
      <trkpt lat="43.75461" lon="-1.3976">
        <ele>7.6</ele>
        <time>2021-08-08T08:18:21Z</time>
      </trkpt>
      <trkpt lat="43.75467" lon="-1.39755">
        <ele>7.8</ele>
        <time>2021-08-08T08:18:22Z</time>
      </trkpt>
      <trkpt lat="43.75481" lon="-1.39744">
        <ele>7.8</ele>
        <time>2021-08-08T08:18:24Z</time>
      </trkpt>
      <trkpt lat="43.75516" lon="-1.39715">
        <ele>7.8</ele>
        <time>2021-08-08T08:18:29Z</time>
      </trkpt>
      <trkpt lat="43.75523" lon="-1.3971">
        <ele>7.8</ele>
        <time>2021-08-08T08:18:30Z</time>
      </trkpt>
      <trkpt lat="43.75563" lon="-1.39678">
        <ele>8</ele>
        <time>2021-08-08T08:18:36Z</time>
      </trkpt>
      <trkpt lat="43.7557" lon="-1.39672">
        <ele>8</ele>
        <time>2021-08-08T08:18:37Z</time>
      </trkpt>
      <trkpt lat="43.75577" lon="-1.39666">
        <ele>8</ele>
        <time>2021-08-08T08:18:38Z</time>
      </trkpt>
      <trkpt lat="43.75583" lon="-1.39661">
        <ele>8</ele>
        <time>2021-08-08T08:18:39Z</time>
      </trkpt>
      <trkpt lat="43.75589" lon="-1.39656">
        <ele>8</ele>
        <time>2021-08-08T08:18:40Z</time>
      </trkpt>
      <trkpt lat="43.75595" lon="-1.3965">
        <ele>8.2</ele>
        <time>2021-08-08T08:18:41Z</time>
      </trkpt>
      <trkpt lat="43.75601" lon="-1.39646">
        <ele>8.2</ele>
        <time>2021-08-08T08:18:42Z</time>
      </trkpt>
      <trkpt lat="43.75607" lon="-1.39641">
        <ele>8.2</ele>
        <time>2021-08-08T08:18:43Z</time>
      </trkpt>
      <trkpt lat="43.75628" lon="-1.39626">
        <ele>8.2</ele>
        <time>2021-08-08T08:18:46Z</time>
      </trkpt>
      <trkpt lat="43.75667" lon="-1.39595">
        <ele>8</ele>
        <time>2021-08-08T08:18:52Z</time>
      </trkpt>
      <trkpt lat="43.75673" lon="-1.3959">
        <ele>8</ele>
        <time>2021-08-08T08:18:53Z</time>
      </trkpt>
      <trkpt lat="43.75679" lon="-1.39586">
        <ele>8</ele>
        <time>2021-08-08T08:18:54Z</time>
      </trkpt>
      <trkpt lat="43.75705" lon="-1.39566">
        <ele>8</ele>
        <time>2021-08-08T08:18:58Z</time>
      </trkpt>
      <trkpt lat="43.75744" lon="-1.39532">
        <ele>8</ele>
        <time>2021-08-08T08:19:04Z</time>
      </trkpt>
      <trkpt lat="43.75791" lon="-1.39494">
        <ele>8.2</ele>
        <time>2021-08-08T08:19:11Z</time>
      </trkpt>
      <trkpt lat="43.75825" lon="-1.39468">
        <ele>8</ele>
        <time>2021-08-08T08:19:16Z</time>
      </trkpt>
      <trkpt lat="43.75839" lon="-1.39457">
        <ele>8.2</ele>
        <time>2021-08-08T08:19:18Z</time>
      </trkpt>
      <trkpt lat="43.75858" lon="-1.39441">
        <ele>8.2</ele>
        <time>2021-08-08T08:19:21Z</time>
      </trkpt>
      <trkpt lat="43.75865" lon="-1.39437">
        <ele>8.2</ele>
        <time>2021-08-08T08:19:22Z</time>
      </trkpt>
      <trkpt lat="43.75879" lon="-1.39427">
        <ele>8.4</ele>
        <time>2021-08-08T08:19:24Z</time>
      </trkpt>
      <trkpt lat="43.75892" lon="-1.39416">
        <ele>8.4</ele>
        <time>2021-08-08T08:19:26Z</time>
      </trkpt>
      <trkpt lat="43.75925" lon="-1.39391">
        <ele>8.4</ele>
        <time>2021-08-08T08:19:31Z</time>
      </trkpt>
      <trkpt lat="43.7593" lon="-1.39386">
        <ele>8.4</ele>
        <time>2021-08-08T08:19:32Z</time>
      </trkpt>
      <trkpt lat="43.75936" lon="-1.39381">
        <ele>8.4</ele>
        <time>2021-08-08T08:19:33Z</time>
      </trkpt>
      <trkpt lat="43.75941" lon="-1.39376">
        <ele>8.4</ele>
        <time>2021-08-08T08:19:34Z</time>
      </trkpt>
      <trkpt lat="43.75974" lon="-1.39348">
        <ele>8.2</ele>
        <time>2021-08-08T08:19:39Z</time>
      </trkpt>
      <trkpt lat="43.75981" lon="-1.39343">
        <ele>8.2</ele>
        <time>2021-08-08T08:19:40Z</time>
      </trkpt>
      <trkpt lat="43.75987" lon="-1.39338">
        <ele>8.4</ele>
        <time>2021-08-08T08:19:41Z</time>
      </trkpt>
      <trkpt lat="43.76025" lon="-1.39305">
        <ele>8.4</ele>
        <time>2021-08-08T08:19:47Z</time>
      </trkpt>
      <trkpt lat="43.76031" lon="-1.39299">
        <ele>8.4</ele>
        <time>2021-08-08T08:19:48Z</time>
      </trkpt>
      <trkpt lat="43.76064" lon="-1.39274">
        <ele>8.4</ele>
        <time>2021-08-08T08:19:53Z</time>
      </trkpt>
      <trkpt lat="43.76117" lon="-1.39232">
        <ele>8.4</ele>
        <time>2021-08-08T08:20:01Z</time>
      </trkpt>
      <trkpt lat="43.76165" lon="-1.39196">
        <ele>7.8</ele>
        <time>2021-08-08T08:20:08Z</time>
      </trkpt>
      <trkpt lat="43.76211" lon="-1.39156">
        <ele>7.8</ele>
        <time>2021-08-08T08:20:15Z</time>
      </trkpt>
      <trkpt lat="43.76225" lon="-1.39145">
        <ele>7.8</ele>
        <time>2021-08-08T08:20:17Z</time>
      </trkpt>
      <trkpt lat="43.76231" lon="-1.39139">
        <ele>7.8</ele>
        <time>2021-08-08T08:20:18Z</time>
      </trkpt>
      <trkpt lat="43.76237" lon="-1.39133">
        <ele>7.8</ele>
        <time>2021-08-08T08:20:19Z</time>
      </trkpt>
      <trkpt lat="43.76242" lon="-1.39128">
        <ele>8</ele>
        <time>2021-08-08T08:20:20Z</time>
      </trkpt>
      <trkpt lat="43.76248" lon="-1.39124">
        <ele>8</ele>
        <time>2021-08-08T08:20:21Z</time>
      </trkpt>
      <trkpt lat="43.76252" lon="-1.3912">
        <ele>8</ele>
        <time>2021-08-08T08:20:22Z</time>
      </trkpt>
      <trkpt lat="43.76255" lon="-1.39118">
        <ele>8</ele>
        <time>2021-08-08T08:20:23Z</time>
      </trkpt>
      <trkpt lat="43.76258" lon="-1.39114">
        <ele>7.8</ele>
        <time>2021-08-08T08:20:24Z</time>
      </trkpt>
      <trkpt lat="43.76259" lon="-1.3911">
        <ele>7.8</ele>
        <time>2021-08-08T08:20:25Z</time>
      </trkpt>
      <trkpt lat="43.76259" lon="-1.39108">
        <ele>7.8</ele>
        <time>2021-08-08T08:20:26Z</time>
      </trkpt>
      <trkpt lat="43.76256" lon="-1.39105">
        <ele>7.8</ele>
        <time>2021-08-08T08:20:27Z</time>
      </trkpt>
      <trkpt lat="43.76245" lon="-1.39102">
        <ele>7.6</ele>
        <time>2021-08-08T08:20:30Z</time>
      </trkpt>
      <trkpt lat="43.76241" lon="-1.391">
        <ele>7.6</ele>
        <time>2021-08-08T08:20:31Z</time>
      </trkpt>
      <trkpt lat="43.76236" lon="-1.39098">
        <ele>7.6</ele>
        <time>2021-08-08T08:20:32Z</time>
      </trkpt>
      <trkpt lat="43.76219" lon="-1.3909">
        <ele>7.4</ele>
        <time>2021-08-08T08:20:35Z</time>
      </trkpt>
      <trkpt lat="43.76203" lon="-1.3908">
        <ele>7.4</ele>
        <time>2021-08-08T08:20:38Z</time>
      </trkpt>
      <trkpt lat="43.76184" lon="-1.39073">
        <ele>7.6</ele>
        <time>2021-08-08T08:20:41Z</time>
      </trkpt>
      <trkpt lat="43.76167" lon="-1.39064">
        <ele>7.8</ele>
        <time>2021-08-08T08:20:44Z</time>
      </trkpt>
      <trkpt lat="43.76161" lon="-1.39062">
        <ele>7.8</ele>
        <time>2021-08-08T08:20:45Z</time>
      </trkpt>
      <trkpt lat="43.76155" lon="-1.3906">
        <ele>7.8</ele>
        <time>2021-08-08T08:20:46Z</time>
      </trkpt>
      <trkpt lat="43.76129" lon="-1.3905">
        <ele>8</ele>
        <time>2021-08-08T08:20:50Z</time>
      </trkpt>
      <trkpt lat="43.76123" lon="-1.39048">
        <ele>8</ele>
        <time>2021-08-08T08:20:51Z</time>
      </trkpt>
      <trkpt lat="43.76116" lon="-1.39045">
        <ele>8</ele>
        <time>2021-08-08T08:20:52Z</time>
      </trkpt>
      <trkpt lat="43.76095" lon="-1.39033">
        <ele>8</ele>
        <time>2021-08-08T08:20:55Z</time>
      </trkpt>
      <trkpt lat="43.76081" lon="-1.39026">
        <ele>8</ele>
        <time>2021-08-08T08:20:57Z</time>
      </trkpt>
      <trkpt lat="43.7607" lon="-1.39018">
        <ele>8</ele>
        <time>2021-08-08T08:20:59Z</time>
      </trkpt>
      <trkpt lat="43.76043" lon="-1.39003">
        <ele>8</ele>
        <time>2021-08-08T08:21:03Z</time>
      </trkpt>
      <trkpt lat="43.76002" lon="-1.3898">
        <ele>8</ele>
        <time>2021-08-08T08:21:09Z</time>
      </trkpt>
      <trkpt lat="43.75969" lon="-1.38958">
        <ele>8.2</ele>
        <time>2021-08-08T08:21:14Z</time>
      </trkpt>
      <trkpt lat="43.75956" lon="-1.38949">
        <ele>8.2</ele>
        <time>2021-08-08T08:21:16Z</time>
      </trkpt>
      <trkpt lat="43.75911" lon="-1.38907">
        <ele>8.4</ele>
        <time>2021-08-08T08:21:23Z</time>
      </trkpt>
      <trkpt lat="43.75865" lon="-1.38862">
        <ele>8.2</ele>
        <time>2021-08-08T08:21:30Z</time>
      </trkpt>
      <trkpt lat="43.75845" lon="-1.38844">
        <ele>8</ele>
        <time>2021-08-08T08:21:33Z</time>
      </trkpt>
      <trkpt lat="43.75799" lon="-1.38802">
        <ele>8.2</ele>
        <time>2021-08-08T08:21:40Z</time>
      </trkpt>
      <trkpt lat="43.75786" lon="-1.3879">
        <ele>8.2</ele>
        <time>2021-08-08T08:21:42Z</time>
      </trkpt>
      <trkpt lat="43.75742" lon="-1.38745">
        <ele>8.2</ele>
        <time>2021-08-08T08:21:49Z</time>
      </trkpt>
      <trkpt lat="43.75736" lon="-1.38738">
        <ele>8.2</ele>
        <time>2021-08-08T08:21:50Z</time>
      </trkpt>
      <trkpt lat="43.7573" lon="-1.38731">
        <ele>8.2</ele>
        <time>2021-08-08T08:21:51Z</time>
      </trkpt>
      <trkpt lat="43.75713" lon="-1.3871">
        <ele>8.2</ele>
        <time>2021-08-08T08:21:54Z</time>
      </trkpt>
      <trkpt lat="43.75708" lon="-1.38702">
        <ele>8.2</ele>
        <time>2021-08-08T08:21:55Z</time>
      </trkpt>
      <trkpt lat="43.75691" lon="-1.38679">
        <ele>8.2</ele>
        <time>2021-08-08T08:21:58Z</time>
      </trkpt>
      <trkpt lat="43.75665" lon="-1.38637">
        <ele>8.4</ele>
        <time>2021-08-08T08:22:03Z</time>
      </trkpt>
      <trkpt lat="43.75653" lon="-1.3862">
        <ele>8.6</ele>
        <time>2021-08-08T08:22:05Z</time>
      </trkpt>
      <trkpt lat="43.75617" lon="-1.38573">
        <ele>8.4</ele>
        <time>2021-08-08T08:22:11Z</time>
      </trkpt>
      <trkpt lat="43.75573" lon="-1.38521">
        <ele>9</ele>
        <time>2021-08-08T08:22:18Z</time>
      </trkpt>
      <trkpt lat="43.75567" lon="-1.38514">
        <ele>9</ele>
        <time>2021-08-08T08:22:19Z</time>
      </trkpt>
      <trkpt lat="43.75542" lon="-1.38484">
        <ele>9.2</ele>
        <time>2021-08-08T08:22:23Z</time>
      </trkpt>
      <trkpt lat="43.75511" lon="-1.38447">
        <ele>9.4</ele>
        <time>2021-08-08T08:22:28Z</time>
      </trkpt>
      <trkpt lat="43.75493" lon="-1.38426">
        <ele>9.6</ele>
        <time>2021-08-08T08:22:31Z</time>
      </trkpt>
      <trkpt lat="43.75481" lon="-1.38413">
        <ele>9.6</ele>
        <time>2021-08-08T08:22:33Z</time>
      </trkpt>
      <trkpt lat="43.75475" lon="-1.38406">
        <ele>9.8</ele>
        <time>2021-08-08T08:22:34Z</time>
      </trkpt>
      <trkpt lat="43.7547" lon="-1.384">
        <ele>9.8</ele>
        <time>2021-08-08T08:22:35Z</time>
      </trkpt>
      <trkpt lat="43.75464" lon="-1.38393">
        <ele>10.2</ele>
        <time>2021-08-08T08:22:36Z</time>
      </trkpt>
      <trkpt lat="43.75458" lon="-1.38385">
        <ele>10.2</ele>
        <time>2021-08-08T08:22:37Z</time>
      </trkpt>
      <trkpt lat="43.75452" lon="-1.38378">
        <ele>10.4</ele>
        <time>2021-08-08T08:22:38Z</time>
      </trkpt>
      <trkpt lat="43.75421" lon="-1.38343">
        <ele>10.6</ele>
        <time>2021-08-08T08:22:43Z</time>
      </trkpt>
      <trkpt lat="43.75396" lon="-1.38315">
        <ele>11.2</ele>
        <time>2021-08-08T08:22:47Z</time>
      </trkpt>
      <trkpt lat="43.75368" lon="-1.38278">
        <ele>11.6</ele>
        <time>2021-08-08T08:22:52Z</time>
      </trkpt>
      <trkpt lat="43.75362" lon="-1.3827">
        <ele>11.6</ele>
        <time>2021-08-08T08:22:53Z</time>
      </trkpt>
      <trkpt lat="43.75345" lon="-1.38236">
        <ele>12</ele>
        <time>2021-08-08T08:22:57Z</time>
      </trkpt>
      <trkpt lat="43.75341" lon="-1.38227">
        <ele>12</ele>
        <time>2021-08-08T08:22:58Z</time>
      </trkpt>
      <trkpt lat="43.75337" lon="-1.38218">
        <ele>12.4</ele>
        <time>2021-08-08T08:22:59Z</time>
      </trkpt>
      <trkpt lat="43.75326" lon="-1.38191">
        <ele>12.6</ele>
        <time>2021-08-08T08:23:02Z</time>
      </trkpt>
      <trkpt lat="43.7532" lon="-1.38173">
        <ele>13</ele>
        <time>2021-08-08T08:23:04Z</time>
      </trkpt>
      <trkpt lat="43.75317" lon="-1.38164">
        <ele>12.8</ele>
        <time>2021-08-08T08:23:05Z</time>
      </trkpt>
      <trkpt lat="43.75314" lon="-1.38154">
        <ele>13</ele>
        <time>2021-08-08T08:23:06Z</time>
      </trkpt>
      <trkpt lat="43.75312" lon="-1.38145">
        <ele>13</ele>
        <time>2021-08-08T08:23:07Z</time>
      </trkpt>
      <trkpt lat="43.7531" lon="-1.38135">
        <ele>13.4</ele>
        <time>2021-08-08T08:23:08Z</time>
      </trkpt>
      <trkpt lat="43.75308" lon="-1.38126">
        <ele>13.4</ele>
        <time>2021-08-08T08:23:09Z</time>
      </trkpt>
      <trkpt lat="43.75306" lon="-1.38116">
        <ele>13.6</ele>
        <time>2021-08-08T08:23:10Z</time>
      </trkpt>
      <trkpt lat="43.75304" lon="-1.38107">
        <ele>13.6</ele>
        <time>2021-08-08T08:23:11Z</time>
      </trkpt>
      <trkpt lat="43.75303" lon="-1.38098">
        <ele>13.8</ele>
        <time>2021-08-08T08:23:12Z</time>
      </trkpt>
      <trkpt lat="43.75302" lon="-1.38088">
        <ele>13.8</ele>
        <time>2021-08-08T08:23:13Z</time>
      </trkpt>
      <trkpt lat="43.75301" lon="-1.38077">
        <ele>13.8</ele>
        <time>2021-08-08T08:23:14Z</time>
      </trkpt>
      <trkpt lat="43.75301" lon="-1.38069">
        <ele>13.8</ele>
        <time>2021-08-08T08:23:15Z</time>
      </trkpt>
      <trkpt lat="43.75299" lon="-1.38056">
        <ele>13.8</ele>
        <time>2021-08-08T08:23:16Z</time>
      </trkpt>
      <trkpt lat="43.75298" lon="-1.38046">
        <ele>13.8</ele>
        <time>2021-08-08T08:23:17Z</time>
      </trkpt>
      <trkpt lat="43.75297" lon="-1.38037">
        <ele>13.8</ele>
        <time>2021-08-08T08:23:18Z</time>
      </trkpt>
      <trkpt lat="43.75296" lon="-1.38024">
        <ele>13.8</ele>
        <time>2021-08-08T08:23:19Z</time>
      </trkpt>
      <trkpt lat="43.75295" lon="-1.38012">
        <ele>13.6</ele>
        <time>2021-08-08T08:23:20Z</time>
      </trkpt>
      <trkpt lat="43.75293" lon="-1.38001">
        <ele>13.6</ele>
        <time>2021-08-08T08:23:21Z</time>
      </trkpt>
      <trkpt lat="43.75284" lon="-1.37919">
        <ele>13</ele>
        <time>2021-08-08T08:23:28Z</time>
      </trkpt>
      <trkpt lat="43.75276" lon="-1.37836">
        <ele>12.4</ele>
        <time>2021-08-08T08:23:35Z</time>
      </trkpt>
      <trkpt lat="43.75275" lon="-1.37824">
        <ele>12</ele>
        <time>2021-08-08T08:23:36Z</time>
      </trkpt>
      <trkpt lat="43.75272" lon="-1.378">
        <ele>12.2</ele>
        <time>2021-08-08T08:23:38Z</time>
      </trkpt>
      <trkpt lat="43.75265" lon="-1.37716">
        <ele>11.2</ele>
        <time>2021-08-08T08:23:45Z</time>
      </trkpt>
      <trkpt lat="43.75262" lon="-1.37693">
        <ele>11</ele>
        <time>2021-08-08T08:23:47Z</time>
      </trkpt>
      <trkpt lat="43.75261" lon="-1.37669">
        <ele>11</ele>
        <time>2021-08-08T08:23:49Z</time>
      </trkpt>
      <trkpt lat="43.75262" lon="-1.37599">
        <ele>11</ele>
        <time>2021-08-08T08:23:55Z</time>
      </trkpt>
      <trkpt lat="43.75264" lon="-1.37588">
        <ele>11.2</ele>
        <time>2021-08-08T08:23:56Z</time>
      </trkpt>
      <trkpt lat="43.75266" lon="-1.37567">
        <ele>11.2</ele>
        <time>2021-08-08T08:23:58Z</time>
      </trkpt>
      <trkpt lat="43.75269" lon="-1.37543">
        <ele>11.4</ele>
        <time>2021-08-08T08:24:00Z</time>
      </trkpt>
      <trkpt lat="43.75271" lon="-1.37534">
        <ele>11.4</ele>
        <time>2021-08-08T08:24:01Z</time>
      </trkpt>
      <trkpt lat="43.75275" lon="-1.37512">
        <ele>11.4</ele>
        <time>2021-08-08T08:24:03Z</time>
      </trkpt>
      <trkpt lat="43.75287" lon="-1.37468">
        <ele>11.4</ele>
        <time>2021-08-08T08:24:07Z</time>
      </trkpt>
      <trkpt lat="43.7529" lon="-1.37458">
        <ele>11.4</ele>
        <time>2021-08-08T08:24:08Z</time>
      </trkpt>
      <trkpt lat="43.75293" lon="-1.3745">
        <ele>11.4</ele>
        <time>2021-08-08T08:24:09Z</time>
      </trkpt>
      <trkpt lat="43.75297" lon="-1.37442">
        <ele>11.4</ele>
        <time>2021-08-08T08:24:10Z</time>
      </trkpt>
      <trkpt lat="43.75306" lon="-1.37423">
        <ele>11.6</ele>
        <time>2021-08-08T08:24:12Z</time>
      </trkpt>
      <trkpt lat="43.7531" lon="-1.37415">
        <ele>11.6</ele>
        <time>2021-08-08T08:24:13Z</time>
      </trkpt>
      <trkpt lat="43.75328" lon="-1.37381">
        <ele>11.8</ele>
        <time>2021-08-08T08:24:17Z</time>
      </trkpt>
      <trkpt lat="43.75339" lon="-1.37356">
        <ele>12</ele>
        <time>2021-08-08T08:24:20Z</time>
      </trkpt>
      <trkpt lat="43.75347" lon="-1.37337">
        <ele>11.8</ele>
        <time>2021-08-08T08:24:22Z</time>
      </trkpt>
      <trkpt lat="43.75357" lon="-1.3731">
        <ele>11.8</ele>
        <time>2021-08-08T08:24:25Z</time>
      </trkpt>
      <trkpt lat="43.7536" lon="-1.373">
        <ele>11.8</ele>
        <time>2021-08-08T08:24:26Z</time>
      </trkpt>
      <trkpt lat="43.75368" lon="-1.37267">
        <ele>11.8</ele>
        <time>2021-08-08T08:24:29Z</time>
      </trkpt>
      <trkpt lat="43.75371" lon="-1.37256">
        <ele>11.8</ele>
        <time>2021-08-08T08:24:30Z</time>
      </trkpt>
      <trkpt lat="43.75379" lon="-1.37209">
        <ele>11.8</ele>
        <time>2021-08-08T08:24:34Z</time>
      </trkpt>
      <trkpt lat="43.75384" lon="-1.37175">
        <ele>11.8</ele>
        <time>2021-08-08T08:24:37Z</time>
      </trkpt>
      <trkpt lat="43.75386" lon="-1.37098">
        <ele>11.6</ele>
        <time>2021-08-08T08:24:43Z</time>
      </trkpt>
      <trkpt lat="43.75384" lon="-1.37086">
        <ele>11.6</ele>
        <time>2021-08-08T08:24:44Z</time>
      </trkpt>
      <trkpt lat="43.75383" lon="-1.37074">
        <ele>11.6</ele>
        <time>2021-08-08T08:24:45Z</time>
      </trkpt>
      <trkpt lat="43.75384" lon="-1.37063">
        <ele>11.6</ele>
        <time>2021-08-08T08:24:46Z</time>
      </trkpt>
      <trkpt lat="43.75384" lon="-1.37051">
        <ele>11.6</ele>
        <time>2021-08-08T08:24:47Z</time>
      </trkpt>
      <trkpt lat="43.75384" lon="-1.36993">
        <ele>11.6</ele>
        <time>2021-08-08T08:24:52Z</time>
      </trkpt>
      <trkpt lat="43.75385" lon="-1.36982">
        <ele>11.6</ele>
        <time>2021-08-08T08:24:53Z</time>
      </trkpt>
      <trkpt lat="43.75384" lon="-1.36926">
        <ele>11.8</ele>
        <time>2021-08-08T08:24:58Z</time>
      </trkpt>
      <trkpt lat="43.75384" lon="-1.36916">
        <ele>11.8</ele>
        <time>2021-08-08T08:24:59Z</time>
      </trkpt>
      <trkpt lat="43.75384" lon="-1.36905">
        <ele>11.8</ele>
        <time>2021-08-08T08:25:00Z</time>
      </trkpt>
      <trkpt lat="43.75384" lon="-1.36895">
        <ele>12</ele>
        <time>2021-08-08T08:25:01Z</time>
      </trkpt>
      <trkpt lat="43.75385" lon="-1.36873">
        <ele>12.2</ele>
        <time>2021-08-08T08:25:03Z</time>
      </trkpt>
      <trkpt lat="43.75385" lon="-1.36863">
        <ele>12.4</ele>
        <time>2021-08-08T08:25:04Z</time>
      </trkpt>
      <trkpt lat="43.75385" lon="-1.36852">
        <ele>12.6</ele>
        <time>2021-08-08T08:25:05Z</time>
      </trkpt>
      <trkpt lat="43.75384" lon="-1.36842">
        <ele>12.6</ele>
        <time>2021-08-08T08:25:06Z</time>
      </trkpt>
      <trkpt lat="43.75384" lon="-1.36831">
        <ele>12.8</ele>
        <time>2021-08-08T08:25:07Z</time>
      </trkpt>
      <trkpt lat="43.75383" lon="-1.36822">
        <ele>13</ele>
        <time>2021-08-08T08:25:08Z</time>
      </trkpt>
      <trkpt lat="43.75382" lon="-1.36812">
        <ele>13.2</ele>
        <time>2021-08-08T08:25:09Z</time>
      </trkpt>
      <trkpt lat="43.75382" lon="-1.36803">
        <ele>13.2</ele>
        <time>2021-08-08T08:25:10Z</time>
      </trkpt>
      <trkpt lat="43.75381" lon="-1.36793">
        <ele>13.4</ele>
        <time>2021-08-08T08:25:11Z</time>
      </trkpt>
      <trkpt lat="43.75379" lon="-1.36784">
        <ele>13.4</ele>
        <time>2021-08-08T08:25:12Z</time>
      </trkpt>
      <trkpt lat="43.75372" lon="-1.36747">
        <ele>13.6</ele>
        <time>2021-08-08T08:25:16Z</time>
      </trkpt>
      <trkpt lat="43.75365" lon="-1.36715">
        <ele>13.8</ele>
        <time>2021-08-08T08:25:19Z</time>
      </trkpt>
      <trkpt lat="43.75363" lon="-1.36704">
        <ele>13.6</ele>
        <time>2021-08-08T08:25:20Z</time>
      </trkpt>
      <trkpt lat="43.75355" lon="-1.36684">
        <ele>13.6</ele>
        <time>2021-08-08T08:25:22Z</time>
      </trkpt>
      <trkpt lat="43.75345" lon="-1.36652">
        <ele>13.8</ele>
        <time>2021-08-08T08:25:25Z</time>
      </trkpt>
      <trkpt lat="43.75334" lon="-1.36625">
        <ele>14</ele>
        <time>2021-08-08T08:25:28Z</time>
      </trkpt>
      <trkpt lat="43.75304" lon="-1.36561">
        <ele>14.6</ele>
        <time>2021-08-08T08:25:35Z</time>
      </trkpt>
      <trkpt lat="43.75288" lon="-1.36526">
        <ele>15</ele>
        <time>2021-08-08T08:25:39Z</time>
      </trkpt>
      <trkpt lat="43.7528" lon="-1.36509">
        <ele>15</ele>
        <time>2021-08-08T08:25:41Z</time>
      </trkpt>
      <trkpt lat="43.7527" lon="-1.36493">
        <ele>15</ele>
        <time>2021-08-08T08:25:43Z</time>
      </trkpt>
      <trkpt lat="43.75258" lon="-1.36466">
        <ele>15.2</ele>
        <time>2021-08-08T08:25:46Z</time>
      </trkpt>
      <trkpt lat="43.75237" lon="-1.36406">
        <ele>14.6</ele>
        <time>2021-08-08T08:25:52Z</time>
      </trkpt>
      <trkpt lat="43.75219" lon="-1.3633">
        <ele>14.2</ele>
        <time>2021-08-08T08:25:59Z</time>
      </trkpt>
      <trkpt lat="43.75215" lon="-1.36308">
        <ele>14.2</ele>
        <time>2021-08-08T08:26:01Z</time>
      </trkpt>
      <trkpt lat="43.75207" lon="-1.36265">
        <ele>13.6</ele>
        <time>2021-08-08T08:26:05Z</time>
      </trkpt>
      <trkpt lat="43.75203" lon="-1.36243">
        <ele>13.4</ele>
        <time>2021-08-08T08:26:07Z</time>
      </trkpt>
      <trkpt lat="43.75197" lon="-1.36221">
        <ele>13.2</ele>
        <time>2021-08-08T08:26:09Z</time>
      </trkpt>
      <trkpt lat="43.75181" lon="-1.36141">
        <ele>12.8</ele>
        <time>2021-08-08T08:26:16Z</time>
      </trkpt>
      <trkpt lat="43.75178" lon="-1.36129">
        <ele>12.8</ele>
        <time>2021-08-08T08:26:17Z</time>
      </trkpt>
      <trkpt lat="43.75167" lon="-1.36056">
        <ele>12.6</ele>
        <time>2021-08-08T08:26:23Z</time>
      </trkpt>
      <trkpt lat="43.75166" lon="-1.36044">
        <ele>12.6</ele>
        <time>2021-08-08T08:26:24Z</time>
      </trkpt>
      <trkpt lat="43.75165" lon="-1.36031">
        <ele>12.6</ele>
        <time>2021-08-08T08:26:25Z</time>
      </trkpt>
      <trkpt lat="43.75166" lon="-1.35947">
        <ele>12</ele>
        <time>2021-08-08T08:26:32Z</time>
      </trkpt>
      <trkpt lat="43.75169" lon="-1.3591">
        <ele>11.8</ele>
        <time>2021-08-08T08:26:35Z</time>
      </trkpt>
      <trkpt lat="43.75174" lon="-1.35848">
        <ele>11.6</ele>
        <time>2021-08-08T08:26:40Z</time>
      </trkpt>
      <trkpt lat="43.75175" lon="-1.35823">
        <ele>11.2</ele>
        <time>2021-08-08T08:26:42Z</time>
      </trkpt>
      <trkpt lat="43.75175" lon="-1.35811">
        <ele>11.2</ele>
        <time>2021-08-08T08:26:43Z</time>
      </trkpt>
      <trkpt lat="43.75176" lon="-1.358">
        <ele>11</ele>
        <time>2021-08-08T08:26:44Z</time>
      </trkpt>
      <trkpt lat="43.75176" lon="-1.35789">
        <ele>10.8</ele>
        <time>2021-08-08T08:26:45Z</time>
      </trkpt>
      <trkpt lat="43.75176" lon="-1.35778">
        <ele>10.8</ele>
        <time>2021-08-08T08:26:46Z</time>
      </trkpt>
      <trkpt lat="43.75176" lon="-1.35766">
        <ele>10.6</ele>
        <time>2021-08-08T08:26:47Z</time>
      </trkpt>
      <trkpt lat="43.75175" lon="-1.35755">
        <ele>10.6</ele>
        <time>2021-08-08T08:26:48Z</time>
      </trkpt>
      <trkpt lat="43.75172" lon="-1.35731">
        <ele>10.4</ele>
        <time>2021-08-08T08:26:50Z</time>
      </trkpt>
      <trkpt lat="43.7517" lon="-1.35707">
        <ele>10.4</ele>
        <time>2021-08-08T08:26:52Z</time>
      </trkpt>
      <trkpt lat="43.7516" lon="-1.35627">
        <ele>10.4</ele>
        <time>2021-08-08T08:26:59Z</time>
      </trkpt>
      <trkpt lat="43.75152" lon="-1.35564">
        <ele>10.4</ele>
        <time>2021-08-08T08:27:05Z</time>
      </trkpt>
      <trkpt lat="43.75151" lon="-1.35553">
        <ele>10.4</ele>
        <time>2021-08-08T08:27:06Z</time>
      </trkpt>
      <trkpt lat="43.7515" lon="-1.35543">
        <ele>10.4</ele>
        <time>2021-08-08T08:27:07Z</time>
      </trkpt>
      <trkpt lat="43.75149" lon="-1.35533">
        <ele>10.4</ele>
        <time>2021-08-08T08:27:08Z</time>
      </trkpt>
      <trkpt lat="43.75148" lon="-1.35523">
        <ele>10.4</ele>
        <time>2021-08-08T08:27:09Z</time>
      </trkpt>
      <trkpt lat="43.75147" lon="-1.35515">
        <ele>10.2</ele>
        <time>2021-08-08T08:27:10Z</time>
      </trkpt>
      <trkpt lat="43.75146" lon="-1.35508">
        <ele>10.2</ele>
        <time>2021-08-08T08:27:11Z</time>
      </trkpt>
      <trkpt lat="43.75144" lon="-1.35502">
        <ele>10.2</ele>
        <time>2021-08-08T08:27:12Z</time>
      </trkpt>
      <trkpt lat="43.75144" lon="-1.35496">
        <ele>10.2</ele>
        <time>2021-08-08T08:27:13Z</time>
      </trkpt>
      <trkpt lat="43.75144" lon="-1.35492">
        <ele>10</ele>
        <time>2021-08-08T08:27:14Z</time>
      </trkpt>
      <trkpt lat="43.75144" lon="-1.35489">
        <ele>10</ele>
        <time>2021-08-08T08:27:15Z</time>
      </trkpt>
      <trkpt lat="43.75145" lon="-1.35488">
        <ele>10</ele>
        <time>2021-08-08T08:27:16Z</time>
      </trkpt>
      <trkpt lat="43.75145" lon="-1.35488">
        <ele>9.8</ele>
        <time>2021-08-08T08:27:17Z</time>
      </trkpt>
      <trkpt lat="43.75145" lon="-1.35488">
        <ele>9.8</ele>
        <time>2021-08-08T08:27:18Z</time>
      </trkpt>
      <trkpt lat="43.75145" lon="-1.35488">
        <ele>9.4</ele>
        <time>2021-08-08T08:27:25Z</time>
      </trkpt>
      <trkpt lat="43.75145" lon="-1.35488">
        <ele>9.2</ele>
        <time>2021-08-08T08:27:36Z</time>
      </trkpt>
      <trkpt lat="43.75145" lon="-1.35488">
        <ele>9.2</ele>
        <time>2021-08-08T08:27:43Z</time>
      </trkpt>
      <trkpt lat="43.75149" lon="-1.35486">
        <ele>9.2</ele>
        <time>2021-08-08T08:27:45Z</time>
      </trkpt>
      <trkpt lat="43.75153" lon="-1.35486">
        <ele>9.2</ele>
        <time>2021-08-08T08:27:47Z</time>
      </trkpt>
      <trkpt lat="43.75157" lon="-1.35485">
        <ele>8.8</ele>
        <time>2021-08-08T08:27:49Z</time>
      </trkpt>
      <trkpt lat="43.75159" lon="-1.35484">
        <ele>8.8</ele>
        <time>2021-08-08T08:27:50Z</time>
      </trkpt>
      <trkpt lat="43.75164" lon="-1.35484">
        <ele>8.8</ele>
        <time>2021-08-08T08:27:52Z</time>
      </trkpt>
      <trkpt lat="43.75166" lon="-1.35483">
        <ele>8.8</ele>
        <time>2021-08-08T08:27:53Z</time>
      </trkpt>
      <trkpt lat="43.75176" lon="-1.35481">
        <ele>9.2</ele>
        <time>2021-08-08T08:27:57Z</time>
      </trkpt>
      <trkpt lat="43.75178" lon="-1.3548">
        <ele>9.2</ele>
        <time>2021-08-08T08:27:58Z</time>
      </trkpt>
      <trkpt lat="43.75183" lon="-1.35479">
        <ele>9</ele>
        <time>2021-08-08T08:28:00Z</time>
      </trkpt>
      <trkpt lat="43.75185" lon="-1.35477">
        <ele>9</ele>
        <time>2021-08-08T08:28:01Z</time>
      </trkpt>
      <trkpt lat="43.75186" lon="-1.35476">
        <ele>9</ele>
        <time>2021-08-08T08:28:02Z</time>
      </trkpt>
      <trkpt lat="43.75187" lon="-1.35473">
        <ele>8.8</ele>
        <time>2021-08-08T08:28:03Z</time>
      </trkpt>
      <trkpt lat="43.75186" lon="-1.35461">
        <ele>8.8</ele>
        <time>2021-08-08T08:28:06Z</time>
      </trkpt>
      <trkpt lat="43.75186" lon="-1.35456">
        <ele>8.8</ele>
        <time>2021-08-08T08:28:07Z</time>
      </trkpt>
      <trkpt lat="43.75185" lon="-1.35452">
        <ele>8.8</ele>
        <time>2021-08-08T08:28:08Z</time>
      </trkpt>
      <trkpt lat="43.75181" lon="-1.35422">
        <ele>8.8</ele>
        <time>2021-08-08T08:28:13Z</time>
      </trkpt>
      <trkpt lat="43.75181" lon="-1.35418">
        <ele>8.8</ele>
        <time>2021-08-08T08:28:14Z</time>
      </trkpt>
      <trkpt lat="43.7518" lon="-1.35413">
        <ele>8.8</ele>
        <time>2021-08-08T08:28:15Z</time>
      </trkpt>
      <trkpt lat="43.7518" lon="-1.35408">
        <ele>9</ele>
        <time>2021-08-08T08:28:16Z</time>
      </trkpt>
      <trkpt lat="43.7518" lon="-1.35397">
        <ele>9</ele>
        <time>2021-08-08T08:28:18Z</time>
      </trkpt>
      <trkpt lat="43.75179" lon="-1.35391">
        <ele>9.2</ele>
        <time>2021-08-08T08:28:19Z</time>
      </trkpt>
      <trkpt lat="43.75177" lon="-1.35375">
        <ele>9.6</ele>
        <time>2021-08-08T08:28:22Z</time>
      </trkpt>
      <trkpt lat="43.75176" lon="-1.35371">
        <ele>9.6</ele>
        <time>2021-08-08T08:28:23Z</time>
      </trkpt>
      <trkpt lat="43.75175" lon="-1.35367">
        <ele>9.8</ele>
        <time>2021-08-08T08:28:24Z</time>
      </trkpt>
      <trkpt lat="43.75173" lon="-1.35363">
        <ele>9.8</ele>
        <time>2021-08-08T08:28:25Z</time>
      </trkpt>
      <trkpt lat="43.75171" lon="-1.35358">
        <ele>10.2</ele>
        <time>2021-08-08T08:28:26Z</time>
      </trkpt>
      <trkpt lat="43.7517" lon="-1.35348">
        <ele>10.4</ele>
        <time>2021-08-08T08:28:28Z</time>
      </trkpt>
      <trkpt lat="43.7517" lon="-1.35344">
        <ele>10.8</ele>
        <time>2021-08-08T08:28:29Z</time>
      </trkpt>
      <trkpt lat="43.75171" lon="-1.35341">
        <ele>11.2</ele>
        <time>2021-08-08T08:28:30Z</time>
      </trkpt>
      <trkpt lat="43.75173" lon="-1.35336">
        <ele>11.4</ele>
        <time>2021-08-08T08:28:31Z</time>
      </trkpt>
      <trkpt lat="43.75175" lon="-1.35333">
        <ele>11.6</ele>
        <time>2021-08-08T08:28:32Z</time>
      </trkpt>
      <trkpt lat="43.75178" lon="-1.35331">
        <ele>11.6</ele>
        <time>2021-08-08T08:28:33Z</time>
      </trkpt>
      <trkpt lat="43.75181" lon="-1.35329">
        <ele>11.6</ele>
        <time>2021-08-08T08:28:34Z</time>
      </trkpt>
      <trkpt lat="43.75183" lon="-1.35327">
        <ele>11.6</ele>
        <time>2021-08-08T08:28:35Z</time>
      </trkpt>
      <trkpt lat="43.75186" lon="-1.35325">
        <ele>11.6</ele>
        <time>2021-08-08T08:28:36Z</time>
      </trkpt>
      <trkpt lat="43.75188" lon="-1.35323">
        <ele>11.6</ele>
        <time>2021-08-08T08:28:37Z</time>
      </trkpt>
      <trkpt lat="43.7519" lon="-1.35322">
        <ele>11.4</ele>
        <time>2021-08-08T08:28:38Z</time>
      </trkpt>
      <trkpt lat="43.75192" lon="-1.35321">
        <ele>11.4</ele>
        <time>2021-08-08T08:28:39Z</time>
      </trkpt>
      <trkpt lat="43.75194" lon="-1.35321">
        <ele>11.2</ele>
        <time>2021-08-08T08:28:40Z</time>
      </trkpt>
      <trkpt lat="43.75194" lon="-1.35322">
        <ele>11</ele>
        <time>2021-08-08T08:28:41Z</time>
      </trkpt>
      <trkpt lat="43.75194" lon="-1.35323">
        <ele>10.8</ele>
        <time>2021-08-08T08:28:42Z</time>
      </trkpt>
      <trkpt lat="43.75195" lon="-1.35325">
        <ele>10.6</ele>
        <time>2021-08-08T08:28:43Z</time>
      </trkpt>
      <trkpt lat="43.75195" lon="-1.35326">
        <ele>10.6</ele>
        <time>2021-08-08T08:28:44Z</time>
      </trkpt>
      <trkpt lat="43.75195" lon="-1.35329">
        <ele>10.2</ele>
        <time>2021-08-08T08:28:47Z</time>
      </trkpt>
      <trkpt lat="43.75195" lon="-1.35329">
        <ele>10.2</ele>
        <time>2021-08-08T08:28:48Z</time>
      </trkpt>
      <trkpt lat="43.75195" lon="-1.35329">
        <ele>10</ele>
        <time>2021-08-08T08:28:55Z</time>
      </trkpt>
    </trkseg>
  </trk>
</gpx>